<?xml version="1.0" encoding="UTF-8" standalone="no" ?>
<gpx xmlns="http://www.topografix.com/GPX/1/1" xmlns:xsi="http://www.w3.org/2001/XMLSchema-instance" xsi:schemaLocation="http://www.topografix.com/GPX/1/1 http://www.topografix.com/GPX/1/1/gpx.xsd" version="1.1" creator="VisuGPX - https://www.visugpx.com">
  <metadata>
    <name>Tour du mont Viso</name>
  </metadata>
  <trk>
    <name><![CDATA[visugpx_WLsvIWjyYh_1]]></name>
    <extensions>
      <line xmlns="http://www.topografix.com/GPX/gpx_style/0/2">
        <color>0000FF</color>
        <opacity>1</opacity>
        <width>4</width>
      </line>
    </extensions>
    <trkseg>
      <trkpt lat="44.77348" lon="6.95685">
        <ele>1614.1</ele>
        <time>2026-08-30T08:02:30Z</time>
      </trkpt>
      <trkpt lat="44.77348" lon="6.95687">
        <ele>1614.1</ele>
        <time>2026-08-30T08:02:36Z</time>
      </trkpt>
      <trkpt lat="44.77349" lon="6.95688">
        <ele>1614</ele>
        <time>2026-08-30T08:02:41Z</time>
      </trkpt>
      <trkpt lat="44.77349" lon="6.95688">
        <ele>1614</ele>
        <time>2026-08-30T08:02:46Z</time>
      </trkpt>
      <trkpt lat="44.77349" lon="6.95688">
        <ele>1614</ele>
        <time>2026-08-30T08:02:51Z</time>
      </trkpt>
      <trkpt lat="44.77349" lon="6.95688">
        <ele>1614</ele>
        <time>2026-08-30T08:02:57Z</time>
      </trkpt>
      <trkpt lat="44.77349" lon="6.95688">
        <ele>1614</ele>
        <time>2026-08-30T08:03:02Z</time>
      </trkpt>
      <trkpt lat="44.77349" lon="6.95688">
        <ele>1614</ele>
        <time>2026-08-30T08:03:07Z</time>
      </trkpt>
      <trkpt lat="44.77344" lon="6.95689">
        <ele>1614.1</ele>
        <time>2026-08-30T08:03:13Z</time>
      </trkpt>
      <trkpt lat="44.77338" lon="6.95696">
        <ele>1614.2</ele>
        <time>2026-08-30T08:03:18Z</time>
      </trkpt>
      <trkpt lat="44.77335" lon="6.95704">
        <ele>1614.1</ele>
        <time>2026-08-30T08:03:23Z</time>
      </trkpt>
      <trkpt lat="44.77332" lon="6.95713">
        <ele>1614.2</ele>
        <time>2026-08-30T08:03:29Z</time>
      </trkpt>
      <trkpt lat="44.77331" lon="6.95722">
        <ele>1614.3</ele>
        <time>2026-08-30T08:03:34Z</time>
      </trkpt>
      <trkpt lat="44.77329" lon="6.95731">
        <ele>1614.6</ele>
        <time>2026-08-30T08:03:39Z</time>
      </trkpt>
      <trkpt lat="44.77325" lon="6.95739">
        <ele>1615.4</ele>
        <time>2026-08-30T08:03:45Z</time>
      </trkpt>
      <trkpt lat="44.77322" lon="6.95746">
        <ele>1616</ele>
        <time>2026-08-30T08:03:50Z</time>
      </trkpt>
      <trkpt lat="44.7732" lon="6.95756">
        <ele>1616.2</ele>
        <time>2026-08-30T08:03:55Z</time>
      </trkpt>
      <trkpt lat="44.77317" lon="6.95767">
        <ele>1616.7</ele>
        <time>2026-08-30T08:04:01Z</time>
      </trkpt>
      <trkpt lat="44.77314" lon="6.95776">
        <ele>1617.1</ele>
        <time>2026-08-30T08:04:06Z</time>
      </trkpt>
      <trkpt lat="44.77312" lon="6.95787">
        <ele>1617.3</ele>
        <time>2026-08-30T08:04:11Z</time>
      </trkpt>
      <trkpt lat="44.77309" lon="6.95798">
        <ele>1617.5</ele>
        <time>2026-08-30T08:04:17Z</time>
      </trkpt>
      <trkpt lat="44.77308" lon="6.95807">
        <ele>1617.5</ele>
        <time>2026-08-30T08:04:22Z</time>
      </trkpt>
      <trkpt lat="44.77304" lon="6.95816">
        <ele>1617.9</ele>
        <time>2026-08-30T08:04:27Z</time>
      </trkpt>
      <trkpt lat="44.773" lon="6.95828">
        <ele>1618.2</ele>
        <time>2026-08-30T08:04:33Z</time>
      </trkpt>
      <trkpt lat="44.77298" lon="6.95837">
        <ele>1618.3</ele>
        <time>2026-08-30T08:04:38Z</time>
      </trkpt>
      <trkpt lat="44.77297" lon="6.95848">
        <ele>1618.2</ele>
        <time>2026-08-30T08:04:43Z</time>
      </trkpt>
      <trkpt lat="44.77296" lon="6.9586">
        <ele>1618.1</ele>
        <time>2026-08-30T08:04:49Z</time>
      </trkpt>
      <trkpt lat="44.77295" lon="6.95871">
        <ele>1618</ele>
        <time>2026-08-30T08:04:54Z</time>
      </trkpt>
      <trkpt lat="44.77297" lon="6.95882">
        <ele>1617.4</ele>
        <time>2026-08-30T08:04:59Z</time>
      </trkpt>
      <trkpt lat="44.77297" lon="6.95893">
        <ele>1617.2</ele>
        <time>2026-08-30T08:05:05Z</time>
      </trkpt>
      <trkpt lat="44.77297" lon="6.95901">
        <ele>1617</ele>
        <time>2026-08-30T08:05:10Z</time>
      </trkpt>
      <trkpt lat="44.77294" lon="6.95909">
        <ele>1617.3</ele>
        <time>2026-08-30T08:05:15Z</time>
      </trkpt>
      <trkpt lat="44.77291" lon="6.95921">
        <ele>1617.6</ele>
        <time>2026-08-30T08:05:21Z</time>
      </trkpt>
      <trkpt lat="44.77288" lon="6.95929">
        <ele>1617.9</ele>
        <time>2026-08-30T08:05:26Z</time>
      </trkpt>
      <trkpt lat="44.77288" lon="6.95935">
        <ele>1617.8</ele>
        <time>2026-08-30T08:05:31Z</time>
      </trkpt>
      <trkpt lat="44.77288" lon="6.95945">
        <ele>1617.7</ele>
        <time>2026-08-30T08:05:37Z</time>
      </trkpt>
      <trkpt lat="44.77287" lon="6.95953">
        <ele>1617.7</ele>
        <time>2026-08-30T08:05:42Z</time>
      </trkpt>
      <trkpt lat="44.77284" lon="6.95955">
        <ele>1618.2</ele>
        <time>2026-08-30T08:05:47Z</time>
      </trkpt>
      <trkpt lat="44.77284" lon="6.95957">
        <ele>1618.1</ele>
        <time>2026-08-30T08:05:53Z</time>
      </trkpt>
      <trkpt lat="44.77284" lon="6.95957">
        <ele>1618.1</ele>
        <time>2026-08-30T08:05:58Z</time>
      </trkpt>
      <trkpt lat="44.77282" lon="6.95961">
        <ele>1618.4</ele>
        <time>2026-08-30T08:06:03Z</time>
      </trkpt>
      <trkpt lat="44.77283" lon="6.95964">
        <ele>1618.2</ele>
        <time>2026-08-30T08:06:09Z</time>
      </trkpt>
      <trkpt lat="44.77283" lon="6.95964">
        <ele>1618.2</ele>
        <time>2026-08-30T08:06:14Z</time>
      </trkpt>
      <trkpt lat="44.77283" lon="6.95964">
        <ele>1618.2</ele>
        <time>2026-08-30T08:06:19Z</time>
      </trkpt>
      <trkpt lat="44.77283" lon="6.95964">
        <ele>1618.2</ele>
        <time>2026-08-30T08:06:25Z</time>
      </trkpt>
      <trkpt lat="44.77283" lon="6.95964">
        <ele>1618.2</ele>
        <time>2026-08-30T08:06:30Z</time>
      </trkpt>
      <trkpt lat="44.77283" lon="6.95964">
        <ele>1618.2</ele>
        <time>2026-08-30T08:06:35Z</time>
      </trkpt>
      <trkpt lat="44.77283" lon="6.95964">
        <ele>1618.2</ele>
        <time>2026-08-30T08:06:41Z</time>
      </trkpt>
      <trkpt lat="44.77283" lon="6.95964">
        <ele>1618.2</ele>
        <time>2026-08-30T08:06:46Z</time>
      </trkpt>
      <trkpt lat="44.77283" lon="6.95964">
        <ele>1618.2</ele>
        <time>2026-08-30T08:06:51Z</time>
      </trkpt>
      <trkpt lat="44.77283" lon="6.95964">
        <ele>1618.2</ele>
        <time>2026-08-30T08:06:57Z</time>
      </trkpt>
      <trkpt lat="44.77283" lon="6.95964">
        <ele>1618.2</ele>
        <time>2026-08-30T08:07:02Z</time>
      </trkpt>
      <trkpt lat="44.77283" lon="6.95964">
        <ele>1618.2</ele>
        <time>2026-08-30T08:07:07Z</time>
      </trkpt>
      <trkpt lat="44.77283" lon="6.95964">
        <ele>1618.2</ele>
        <time>2026-08-30T08:07:13Z</time>
      </trkpt>
      <trkpt lat="44.77283" lon="6.95964">
        <ele>1618.2</ele>
        <time>2026-08-30T08:07:18Z</time>
      </trkpt>
      <trkpt lat="44.77283" lon="6.95964">
        <ele>1618.2</ele>
        <time>2026-08-30T08:07:23Z</time>
      </trkpt>
      <trkpt lat="44.77283" lon="6.95964">
        <ele>1618.2</ele>
        <time>2026-08-30T08:07:29Z</time>
      </trkpt>
      <trkpt lat="44.77283" lon="6.95964">
        <ele>1618.2</ele>
        <time>2026-08-30T08:07:34Z</time>
      </trkpt>
      <trkpt lat="44.77283" lon="6.95964">
        <ele>1618.2</ele>
        <time>2026-08-30T08:07:39Z</time>
      </trkpt>
      <trkpt lat="44.77283" lon="6.95964">
        <ele>1618.2</ele>
        <time>2026-08-30T08:07:45Z</time>
      </trkpt>
      <trkpt lat="44.77283" lon="6.95964">
        <ele>1618.2</ele>
        <time>2026-08-30T08:07:50Z</time>
      </trkpt>
      <trkpt lat="44.77283" lon="6.95964">
        <ele>1618.2</ele>
        <time>2026-08-30T08:07:55Z</time>
      </trkpt>
      <trkpt lat="44.77278" lon="6.95974">
        <ele>1618.7</ele>
        <time>2026-08-30T08:08:01Z</time>
      </trkpt>
      <trkpt lat="44.77277" lon="6.95984">
        <ele>1618.7</ele>
        <time>2026-08-30T08:08:06Z</time>
      </trkpt>
      <trkpt lat="44.77277" lon="6.95993">
        <ele>1618.5</ele>
        <time>2026-08-30T08:08:11Z</time>
      </trkpt>
      <trkpt lat="44.77275" lon="6.96004">
        <ele>1618.6</ele>
        <time>2026-08-30T08:08:17Z</time>
      </trkpt>
      <trkpt lat="44.77274" lon="6.96015">
        <ele>1618.6</ele>
        <time>2026-08-30T08:08:22Z</time>
      </trkpt>
      <trkpt lat="44.77273" lon="6.96025">
        <ele>1618.6</ele>
        <time>2026-08-30T08:08:27Z</time>
      </trkpt>
      <trkpt lat="44.77273" lon="6.96037">
        <ele>1618.4</ele>
        <time>2026-08-30T08:08:33Z</time>
      </trkpt>
      <trkpt lat="44.77272" lon="6.96049">
        <ele>1618.4</ele>
        <time>2026-08-30T08:08:38Z</time>
      </trkpt>
      <trkpt lat="44.77271" lon="6.9606">
        <ele>1618.3</ele>
        <time>2026-08-30T08:08:43Z</time>
      </trkpt>
      <trkpt lat="44.77271" lon="6.96072">
        <ele>1618.2</ele>
        <time>2026-08-30T08:08:49Z</time>
      </trkpt>
      <trkpt lat="44.77271" lon="6.96083">
        <ele>1618</ele>
        <time>2026-08-30T08:08:54Z</time>
      </trkpt>
      <trkpt lat="44.77271" lon="6.96093">
        <ele>1617.8</ele>
        <time>2026-08-30T08:08:59Z</time>
      </trkpt>
      <trkpt lat="44.77271" lon="6.96106">
        <ele>1617.6</ele>
        <time>2026-08-30T08:09:05Z</time>
      </trkpt>
      <trkpt lat="44.7727" lon="6.96117">
        <ele>1617.6</ele>
        <time>2026-08-30T08:09:10Z</time>
      </trkpt>
      <trkpt lat="44.77269" lon="6.96127">
        <ele>1617.5</ele>
        <time>2026-08-30T08:09:15Z</time>
      </trkpt>
      <trkpt lat="44.77268" lon="6.96139">
        <ele>1617.4</ele>
        <time>2026-08-30T08:09:21Z</time>
      </trkpt>
      <trkpt lat="44.77269" lon="6.96148">
        <ele>1617.2</ele>
        <time>2026-08-30T08:09:26Z</time>
      </trkpt>
      <trkpt lat="44.7727" lon="6.96149">
        <ele>1617.1</ele>
        <time>2026-08-30T08:09:31Z</time>
      </trkpt>
      <trkpt lat="44.77269" lon="6.9615">
        <ele>1617.1</ele>
        <time>2026-08-30T08:09:37Z</time>
      </trkpt>
      <trkpt lat="44.77269" lon="6.9615">
        <ele>1617.1</ele>
        <time>2026-08-30T08:09:42Z</time>
      </trkpt>
      <trkpt lat="44.77269" lon="6.9615">
        <ele>1617.1</ele>
        <time>2026-08-30T08:09:47Z</time>
      </trkpt>
      <trkpt lat="44.77269" lon="6.9615">
        <ele>1617.1</ele>
        <time>2026-08-30T08:09:53Z</time>
      </trkpt>
      <trkpt lat="44.77269" lon="6.9615">
        <ele>1617.1</ele>
        <time>2026-08-30T08:09:58Z</time>
      </trkpt>
      <trkpt lat="44.77269" lon="6.9615">
        <ele>1617.1</ele>
        <time>2026-08-30T08:10:03Z</time>
      </trkpt>
      <trkpt lat="44.77269" lon="6.9615">
        <ele>1617.1</ele>
        <time>2026-08-30T08:10:09Z</time>
      </trkpt>
      <trkpt lat="44.77269" lon="6.9615">
        <ele>1617.1</ele>
        <time>2026-08-30T08:10:14Z</time>
      </trkpt>
      <trkpt lat="44.77269" lon="6.9615">
        <ele>1617.1</ele>
        <time>2026-08-30T08:10:19Z</time>
      </trkpt>
      <trkpt lat="44.77269" lon="6.9615">
        <ele>1617.1</ele>
        <time>2026-08-30T08:10:25Z</time>
      </trkpt>
      <trkpt lat="44.77269" lon="6.9615">
        <ele>1617.1</ele>
        <time>2026-08-30T08:10:30Z</time>
      </trkpt>
      <trkpt lat="44.77269" lon="6.9615">
        <ele>1617.1</ele>
        <time>2026-08-30T08:10:35Z</time>
      </trkpt>
      <trkpt lat="44.77269" lon="6.9615">
        <ele>1617.1</ele>
        <time>2026-08-30T08:10:41Z</time>
      </trkpt>
      <trkpt lat="44.77269" lon="6.9615">
        <ele>1617.1</ele>
        <time>2026-08-30T08:10:46Z</time>
      </trkpt>
      <trkpt lat="44.77269" lon="6.9615">
        <ele>1617.1</ele>
        <time>2026-08-30T08:10:51Z</time>
      </trkpt>
      <trkpt lat="44.77269" lon="6.9615">
        <ele>1617.1</ele>
        <time>2026-08-30T08:10:57Z</time>
      </trkpt>
      <trkpt lat="44.77269" lon="6.9615">
        <ele>1617.1</ele>
        <time>2026-08-30T08:11:02Z</time>
      </trkpt>
      <trkpt lat="44.77269" lon="6.9615">
        <ele>1617.1</ele>
        <time>2026-08-30T08:11:07Z</time>
      </trkpt>
      <trkpt lat="44.77269" lon="6.9615">
        <ele>1617.1</ele>
        <time>2026-08-30T08:11:13Z</time>
      </trkpt>
      <trkpt lat="44.77269" lon="6.9615">
        <ele>1617.1</ele>
        <time>2026-08-30T08:11:18Z</time>
      </trkpt>
      <trkpt lat="44.77269" lon="6.9615">
        <ele>1617.1</ele>
        <time>2026-08-30T08:11:23Z</time>
      </trkpt>
      <trkpt lat="44.77269" lon="6.9615">
        <ele>1617.1</ele>
        <time>2026-08-30T08:11:29Z</time>
      </trkpt>
      <trkpt lat="44.77269" lon="6.9615">
        <ele>1617.1</ele>
        <time>2026-08-30T08:11:34Z</time>
      </trkpt>
      <trkpt lat="44.77269" lon="6.9615">
        <ele>1617.1</ele>
        <time>2026-08-30T08:11:39Z</time>
      </trkpt>
      <trkpt lat="44.77268" lon="6.96153">
        <ele>1617.1</ele>
        <time>2026-08-30T08:11:45Z</time>
      </trkpt>
      <trkpt lat="44.77267" lon="6.96163">
        <ele>1617</ele>
        <time>2026-08-30T08:11:50Z</time>
      </trkpt>
      <trkpt lat="44.77265" lon="6.96173">
        <ele>1617.3</ele>
        <time>2026-08-30T08:11:55Z</time>
      </trkpt>
      <trkpt lat="44.77265" lon="6.96183">
        <ele>1617.6</ele>
        <time>2026-08-30T08:12:01Z</time>
      </trkpt>
      <trkpt lat="44.77263" lon="6.96193">
        <ele>1618</ele>
        <time>2026-08-30T08:12:06Z</time>
      </trkpt>
      <trkpt lat="44.77263" lon="6.96204">
        <ele>1618.3</ele>
        <time>2026-08-30T08:12:11Z</time>
      </trkpt>
      <trkpt lat="44.77261" lon="6.96215">
        <ele>1618.7</ele>
        <time>2026-08-30T08:12:17Z</time>
      </trkpt>
      <trkpt lat="44.7726" lon="6.96223">
        <ele>1619</ele>
        <time>2026-08-30T08:12:22Z</time>
      </trkpt>
      <trkpt lat="44.77258" lon="6.96233">
        <ele>1619.3</ele>
        <time>2026-08-30T08:12:27Z</time>
      </trkpt>
      <trkpt lat="44.77256" lon="6.96245">
        <ele>1619.7</ele>
        <time>2026-08-30T08:12:33Z</time>
      </trkpt>
      <trkpt lat="44.77254" lon="6.96253">
        <ele>1620.1</ele>
        <time>2026-08-30T08:12:38Z</time>
      </trkpt>
      <trkpt lat="44.77253" lon="6.96263">
        <ele>1620.7</ele>
        <time>2026-08-30T08:12:43Z</time>
      </trkpt>
      <trkpt lat="44.77252" lon="6.96277">
        <ele>1621.5</ele>
        <time>2026-08-30T08:12:49Z</time>
      </trkpt>
      <trkpt lat="44.77252" lon="6.96286">
        <ele>1622.1</ele>
        <time>2026-08-30T08:12:54Z</time>
      </trkpt>
      <trkpt lat="44.77249" lon="6.96295">
        <ele>1623.1</ele>
        <time>2026-08-30T08:12:59Z</time>
      </trkpt>
      <trkpt lat="44.77246" lon="6.96306">
        <ele>1624.8</ele>
        <time>2026-08-30T08:13:05Z</time>
      </trkpt>
      <trkpt lat="44.77243" lon="6.96314">
        <ele>1626.2</ele>
        <time>2026-08-30T08:13:10Z</time>
      </trkpt>
      <trkpt lat="44.77242" lon="6.96322">
        <ele>1627</ele>
        <time>2026-08-30T08:13:15Z</time>
      </trkpt>
      <trkpt lat="44.77238" lon="6.96333">
        <ele>1628.9</ele>
        <time>2026-08-30T08:13:21Z</time>
      </trkpt>
      <trkpt lat="44.77235" lon="6.96342">
        <ele>1630.4</ele>
        <time>2026-08-30T08:13:26Z</time>
      </trkpt>
      <trkpt lat="44.77233" lon="6.96352">
        <ele>1631.5</ele>
        <time>2026-08-30T08:13:31Z</time>
      </trkpt>
      <trkpt lat="44.7723" lon="6.96363">
        <ele>1632.9</ele>
        <time>2026-08-30T08:13:37Z</time>
      </trkpt>
      <trkpt lat="44.77229" lon="6.96373">
        <ele>1633.7</ele>
        <time>2026-08-30T08:13:42Z</time>
      </trkpt>
      <trkpt lat="44.77227" lon="6.96379">
        <ele>1634.5</ele>
        <time>2026-08-30T08:13:47Z</time>
      </trkpt>
      <trkpt lat="44.77227" lon="6.9639">
        <ele>1635</ele>
        <time>2026-08-30T08:13:53Z</time>
      </trkpt>
      <trkpt lat="44.77225" lon="6.96396">
        <ele>1635.7</ele>
        <time>2026-08-30T08:13:58Z</time>
      </trkpt>
      <trkpt lat="44.77221" lon="6.96405">
        <ele>1636.8</ele>
        <time>2026-08-30T08:14:03Z</time>
      </trkpt>
      <trkpt lat="44.77219" lon="6.96417">
        <ele>1637.6</ele>
        <time>2026-08-30T08:14:09Z</time>
      </trkpt>
      <trkpt lat="44.77219" lon="6.96424">
        <ele>1637.7</ele>
        <time>2026-08-30T08:14:14Z</time>
      </trkpt>
      <trkpt lat="44.77216" lon="6.96431">
        <ele>1638.3</ele>
        <time>2026-08-30T08:14:19Z</time>
      </trkpt>
      <trkpt lat="44.77215" lon="6.96441">
        <ele>1638.7</ele>
        <time>2026-08-30T08:14:25Z</time>
      </trkpt>
      <trkpt lat="44.77215" lon="6.96451">
        <ele>1638.8</ele>
        <time>2026-08-30T08:14:30Z</time>
      </trkpt>
      <trkpt lat="44.77214" lon="6.9646">
        <ele>1639.2</ele>
        <time>2026-08-30T08:14:35Z</time>
      </trkpt>
      <trkpt lat="44.77212" lon="6.96471">
        <ele>1639.7</ele>
        <time>2026-08-30T08:14:41Z</time>
      </trkpt>
      <trkpt lat="44.77211" lon="6.9648">
        <ele>1640.1</ele>
        <time>2026-08-30T08:14:46Z</time>
      </trkpt>
      <trkpt lat="44.77213" lon="6.96489">
        <ele>1639.8</ele>
        <time>2026-08-30T08:14:51Z</time>
      </trkpt>
      <trkpt lat="44.77213" lon="6.96501">
        <ele>1640</ele>
        <time>2026-08-30T08:14:57Z</time>
      </trkpt>
      <trkpt lat="44.77213" lon="6.96511">
        <ele>1639.7</ele>
        <time>2026-08-30T08:15:02Z</time>
      </trkpt>
      <trkpt lat="44.77213" lon="6.96518">
        <ele>1639.4</ele>
        <time>2026-08-30T08:15:07Z</time>
      </trkpt>
      <trkpt lat="44.77211" lon="6.96529">
        <ele>1639.5</ele>
        <time>2026-08-30T08:15:13Z</time>
      </trkpt>
      <trkpt lat="44.7721" lon="6.96538">
        <ele>1639.5</ele>
        <time>2026-08-30T08:15:18Z</time>
      </trkpt>
      <trkpt lat="44.77206" lon="6.96547">
        <ele>1640.1</ele>
        <time>2026-08-30T08:15:23Z</time>
      </trkpt>
      <trkpt lat="44.77203" lon="6.96558">
        <ele>1640.5</ele>
        <time>2026-08-30T08:15:29Z</time>
      </trkpt>
      <trkpt lat="44.77199" lon="6.96565">
        <ele>1641.2</ele>
        <time>2026-08-30T08:15:34Z</time>
      </trkpt>
      <trkpt lat="44.77197" lon="6.96575">
        <ele>1641.3</ele>
        <time>2026-08-30T08:15:39Z</time>
      </trkpt>
      <trkpt lat="44.77194" lon="6.96584">
        <ele>1641.7</ele>
        <time>2026-08-30T08:15:45Z</time>
      </trkpt>
      <trkpt lat="44.7719" lon="6.96592">
        <ele>1642.3</ele>
        <time>2026-08-30T08:15:50Z</time>
      </trkpt>
      <trkpt lat="44.77185" lon="6.966">
        <ele>1643</ele>
        <time>2026-08-30T08:15:55Z</time>
      </trkpt>
      <trkpt lat="44.7718" lon="6.96609">
        <ele>1643.6</ele>
        <time>2026-08-30T08:16:01Z</time>
      </trkpt>
      <trkpt lat="44.77178" lon="6.96616">
        <ele>1643.7</ele>
        <time>2026-08-30T08:16:06Z</time>
      </trkpt>
      <trkpt lat="44.77174" lon="6.96623">
        <ele>1644.1</ele>
        <time>2026-08-30T08:16:11Z</time>
      </trkpt>
      <trkpt lat="44.7717" lon="6.96636">
        <ele>1644.2</ele>
        <time>2026-08-30T08:16:17Z</time>
      </trkpt>
      <trkpt lat="44.77167" lon="6.96643">
        <ele>1644.4</ele>
        <time>2026-08-30T08:16:22Z</time>
      </trkpt>
      <trkpt lat="44.77164" lon="6.9665">
        <ele>1645</ele>
        <time>2026-08-30T08:16:27Z</time>
      </trkpt>
      <trkpt lat="44.7716" lon="6.96661">
        <ele>1645.8</ele>
        <time>2026-08-30T08:16:33Z</time>
      </trkpt>
      <trkpt lat="44.77155" lon="6.96669">
        <ele>1646.9</ele>
        <time>2026-08-30T08:16:38Z</time>
      </trkpt>
      <trkpt lat="44.77154" lon="6.96678">
        <ele>1646.2</ele>
        <time>2026-08-30T08:16:43Z</time>
      </trkpt>
      <trkpt lat="44.7715" lon="6.96688">
        <ele>1646.4</ele>
        <time>2026-08-30T08:16:49Z</time>
      </trkpt>
      <trkpt lat="44.77147" lon="6.96697">
        <ele>1646.3</ele>
        <time>2026-08-30T08:16:54Z</time>
      </trkpt>
      <trkpt lat="44.77143" lon="6.96704">
        <ele>1646.7</ele>
        <time>2026-08-30T08:16:59Z</time>
      </trkpt>
      <trkpt lat="44.77138" lon="6.96714">
        <ele>1647</ele>
        <time>2026-08-30T08:17:05Z</time>
      </trkpt>
      <trkpt lat="44.77134" lon="6.96721">
        <ele>1647.4</ele>
        <time>2026-08-30T08:17:10Z</time>
      </trkpt>
      <trkpt lat="44.77131" lon="6.96728">
        <ele>1647.3</ele>
        <time>2026-08-30T08:17:15Z</time>
      </trkpt>
      <trkpt lat="44.77128" lon="6.96739">
        <ele>1646.7</ele>
        <time>2026-08-30T08:17:21Z</time>
      </trkpt>
      <trkpt lat="44.77126" lon="6.9675">
        <ele>1645.7</ele>
        <time>2026-08-30T08:17:26Z</time>
      </trkpt>
      <trkpt lat="44.77124" lon="6.9676">
        <ele>1645.4</ele>
        <time>2026-08-30T08:17:31Z</time>
      </trkpt>
      <trkpt lat="44.77124" lon="6.9677">
        <ele>1644.6</ele>
        <time>2026-08-30T08:17:37Z</time>
      </trkpt>
      <trkpt lat="44.77122" lon="6.9678">
        <ele>1644.3</ele>
        <time>2026-08-30T08:17:42Z</time>
      </trkpt>
      <trkpt lat="44.77121" lon="6.96789">
        <ele>1643.8</ele>
        <time>2026-08-30T08:17:47Z</time>
      </trkpt>
      <trkpt lat="44.77122" lon="6.96802">
        <ele>1642.4</ele>
        <time>2026-08-30T08:17:53Z</time>
      </trkpt>
      <trkpt lat="44.77121" lon="6.96813">
        <ele>1641.7</ele>
        <time>2026-08-30T08:17:58Z</time>
      </trkpt>
      <trkpt lat="44.7712" lon="6.96824">
        <ele>1641</ele>
        <time>2026-08-30T08:18:03Z</time>
      </trkpt>
      <trkpt lat="44.7712" lon="6.96835">
        <ele>1640.1</ele>
        <time>2026-08-30T08:18:09Z</time>
      </trkpt>
      <trkpt lat="44.77119" lon="6.96844">
        <ele>1640.1</ele>
        <time>2026-08-30T08:18:14Z</time>
      </trkpt>
      <trkpt lat="44.77118" lon="6.96853">
        <ele>1640</ele>
        <time>2026-08-30T08:18:19Z</time>
      </trkpt>
      <trkpt lat="44.77117" lon="6.96864">
        <ele>1639.8</ele>
        <time>2026-08-30T08:18:25Z</time>
      </trkpt>
      <trkpt lat="44.77118" lon="6.96873">
        <ele>1639.3</ele>
        <time>2026-08-30T08:18:30Z</time>
      </trkpt>
      <trkpt lat="44.77117" lon="6.96881">
        <ele>1639.2</ele>
        <time>2026-08-30T08:18:35Z</time>
      </trkpt>
      <trkpt lat="44.77114" lon="6.96892">
        <ele>1639.4</ele>
        <time>2026-08-30T08:18:41Z</time>
      </trkpt>
      <trkpt lat="44.77113" lon="6.96901">
        <ele>1639.3</ele>
        <time>2026-08-30T08:18:46Z</time>
      </trkpt>
      <trkpt lat="44.77113" lon="6.96911">
        <ele>1638.9</ele>
        <time>2026-08-30T08:18:51Z</time>
      </trkpt>
      <trkpt lat="44.77114" lon="6.9692">
        <ele>1638.4</ele>
        <time>2026-08-30T08:18:57Z</time>
      </trkpt>
      <trkpt lat="44.77114" lon="6.96929">
        <ele>1638.3</ele>
        <time>2026-08-30T08:19:02Z</time>
      </trkpt>
      <trkpt lat="44.77116" lon="6.96941">
        <ele>1637.7</ele>
        <time>2026-08-30T08:19:07Z</time>
      </trkpt>
      <trkpt lat="44.77117" lon="6.96953">
        <ele>1637.3</ele>
        <time>2026-08-30T08:19:13Z</time>
      </trkpt>
      <trkpt lat="44.77115" lon="6.96963">
        <ele>1637.5</ele>
        <time>2026-08-30T08:19:18Z</time>
      </trkpt>
      <trkpt lat="44.77114" lon="6.96972">
        <ele>1637.5</ele>
        <time>2026-08-30T08:19:23Z</time>
      </trkpt>
      <trkpt lat="44.77112" lon="6.96983">
        <ele>1637.5</ele>
        <time>2026-08-30T08:19:29Z</time>
      </trkpt>
      <trkpt lat="44.7711" lon="6.96992">
        <ele>1637.6</ele>
        <time>2026-08-30T08:19:34Z</time>
      </trkpt>
      <trkpt lat="44.77107" lon="6.97001">
        <ele>1637.9</ele>
        <time>2026-08-30T08:19:39Z</time>
      </trkpt>
      <trkpt lat="44.77106" lon="6.97011">
        <ele>1638.8</ele>
        <time>2026-08-30T08:19:45Z</time>
      </trkpt>
      <trkpt lat="44.77104" lon="6.97018">
        <ele>1639.5</ele>
        <time>2026-08-30T08:19:50Z</time>
      </trkpt>
      <trkpt lat="44.77104" lon="6.97028">
        <ele>1640.2</ele>
        <time>2026-08-30T08:19:55Z</time>
      </trkpt>
      <trkpt lat="44.77106" lon="6.9704">
        <ele>1640.7</ele>
        <time>2026-08-30T08:20:01Z</time>
      </trkpt>
      <trkpt lat="44.77105" lon="6.9705">
        <ele>1641.6</ele>
        <time>2026-08-30T08:20:06Z</time>
      </trkpt>
      <trkpt lat="44.77103" lon="6.97057">
        <ele>1642.4</ele>
        <time>2026-08-30T08:20:11Z</time>
      </trkpt>
      <trkpt lat="44.77102" lon="6.97067">
        <ele>1643.3</ele>
        <time>2026-08-30T08:20:17Z</time>
      </trkpt>
      <trkpt lat="44.77101" lon="6.97075">
        <ele>1644</ele>
        <time>2026-08-30T08:20:22Z</time>
      </trkpt>
      <trkpt lat="44.77099" lon="6.97083">
        <ele>1645</ele>
        <time>2026-08-30T08:20:27Z</time>
      </trkpt>
      <trkpt lat="44.77096" lon="6.97093">
        <ele>1646</ele>
        <time>2026-08-30T08:20:33Z</time>
      </trkpt>
      <trkpt lat="44.77092" lon="6.97102">
        <ele>1647.3</ele>
        <time>2026-08-30T08:20:38Z</time>
      </trkpt>
      <trkpt lat="44.7709" lon="6.9711">
        <ele>1648</ele>
        <time>2026-08-30T08:20:43Z</time>
      </trkpt>
      <trkpt lat="44.77087" lon="6.97118">
        <ele>1649</ele>
        <time>2026-08-30T08:20:49Z</time>
      </trkpt>
      <trkpt lat="44.77084" lon="6.97125">
        <ele>1649.9</ele>
        <time>2026-08-30T08:20:54Z</time>
      </trkpt>
      <trkpt lat="44.77082" lon="6.97134">
        <ele>1650.8</ele>
        <time>2026-08-30T08:20:59Z</time>
      </trkpt>
      <trkpt lat="44.77079" lon="6.97146">
        <ele>1652.2</ele>
        <time>2026-08-30T08:21:05Z</time>
      </trkpt>
      <trkpt lat="44.77076" lon="6.97153">
        <ele>1653.3</ele>
        <time>2026-08-30T08:21:10Z</time>
      </trkpt>
      <trkpt lat="44.77073" lon="6.97161">
        <ele>1654.4</ele>
        <time>2026-08-30T08:21:15Z</time>
      </trkpt>
      <trkpt lat="44.77069" lon="6.97167">
        <ele>1655.6</ele>
        <time>2026-08-30T08:21:21Z</time>
      </trkpt>
      <trkpt lat="44.77066" lon="6.97173">
        <ele>1656.2</ele>
        <time>2026-08-30T08:21:26Z</time>
      </trkpt>
      <trkpt lat="44.77061" lon="6.97178">
        <ele>1657.3</ele>
        <time>2026-08-30T08:21:31Z</time>
      </trkpt>
      <trkpt lat="44.77056" lon="6.97186">
        <ele>1658.3</ele>
        <time>2026-08-30T08:21:37Z</time>
      </trkpt>
      <trkpt lat="44.77053" lon="6.97192">
        <ele>1658.8</ele>
        <time>2026-08-30T08:21:42Z</time>
      </trkpt>
      <trkpt lat="44.77049" lon="6.97199">
        <ele>1659.6</ele>
        <time>2026-08-30T08:21:47Z</time>
      </trkpt>
      <trkpt lat="44.77044" lon="6.97206">
        <ele>1660.7</ele>
        <time>2026-08-30T08:21:53Z</time>
      </trkpt>
      <trkpt lat="44.7704" lon="6.97212">
        <ele>1661.6</ele>
        <time>2026-08-30T08:21:58Z</time>
      </trkpt>
      <trkpt lat="44.77037" lon="6.97219">
        <ele>1662.1</ele>
        <time>2026-08-30T08:22:03Z</time>
      </trkpt>
      <trkpt lat="44.77034" lon="6.97226">
        <ele>1662.7</ele>
        <time>2026-08-30T08:22:09Z</time>
      </trkpt>
      <trkpt lat="44.7703" lon="6.97232">
        <ele>1663.6</ele>
        <time>2026-08-30T08:22:14Z</time>
      </trkpt>
      <trkpt lat="44.77026" lon="6.97238">
        <ele>1664.5</ele>
        <time>2026-08-30T08:22:19Z</time>
      </trkpt>
      <trkpt lat="44.77022" lon="6.97245">
        <ele>1665.3</ele>
        <time>2026-08-30T08:22:25Z</time>
      </trkpt>
      <trkpt lat="44.77019" lon="6.97253">
        <ele>1665.5</ele>
        <time>2026-08-30T08:22:30Z</time>
      </trkpt>
      <trkpt lat="44.77017" lon="6.97261">
        <ele>1664.8</ele>
        <time>2026-08-30T08:22:35Z</time>
      </trkpt>
      <trkpt lat="44.77015" lon="6.97268">
        <ele>1664.2</ele>
        <time>2026-08-30T08:22:41Z</time>
      </trkpt>
      <trkpt lat="44.7701" lon="6.97273">
        <ele>1664.7</ele>
        <time>2026-08-30T08:22:46Z</time>
      </trkpt>
      <trkpt lat="44.77006" lon="6.97278">
        <ele>1664.9</ele>
        <time>2026-08-30T08:22:51Z</time>
      </trkpt>
      <trkpt lat="44.77001" lon="6.97284">
        <ele>1665.1</ele>
        <time>2026-08-30T08:22:57Z</time>
      </trkpt>
      <trkpt lat="44.76997" lon="6.97288">
        <ele>1665.7</ele>
        <time>2026-08-30T08:23:02Z</time>
      </trkpt>
      <trkpt lat="44.76994" lon="6.97292">
        <ele>1666.1</ele>
        <time>2026-08-30T08:23:07Z</time>
      </trkpt>
      <trkpt lat="44.76987" lon="6.97298">
        <ele>1667.6</ele>
        <time>2026-08-30T08:23:13Z</time>
      </trkpt>
      <trkpt lat="44.76983" lon="6.97302">
        <ele>1668.3</ele>
        <time>2026-08-30T08:23:18Z</time>
      </trkpt>
      <trkpt lat="44.76983" lon="6.97305">
        <ele>1667.8</ele>
        <time>2026-08-30T08:23:23Z</time>
      </trkpt>
      <trkpt lat="44.76981" lon="6.97307">
        <ele>1668.2</ele>
        <time>2026-08-30T08:23:29Z</time>
      </trkpt>
      <trkpt lat="44.76981" lon="6.97307">
        <ele>1668.2</ele>
        <time>2026-08-30T08:23:34Z</time>
      </trkpt>
      <trkpt lat="44.76981" lon="6.97307">
        <ele>1668.2</ele>
        <time>2026-08-30T08:23:39Z</time>
      </trkpt>
      <trkpt lat="44.76981" lon="6.97307">
        <ele>1668.2</ele>
        <time>2026-08-30T08:23:45Z</time>
      </trkpt>
      <trkpt lat="44.76981" lon="6.97307">
        <ele>1668.2</ele>
        <time>2026-08-30T08:23:50Z</time>
      </trkpt>
      <trkpt lat="44.76981" lon="6.97307">
        <ele>1668.2</ele>
        <time>2026-08-30T08:23:55Z</time>
      </trkpt>
      <trkpt lat="44.76976" lon="6.9731">
        <ele>1669.4</ele>
        <time>2026-08-30T08:24:01Z</time>
      </trkpt>
      <trkpt lat="44.76973" lon="6.97317">
        <ele>1669.3</ele>
        <time>2026-08-30T08:24:06Z</time>
      </trkpt>
      <trkpt lat="44.76968" lon="6.97322">
        <ele>1670.1</ele>
        <time>2026-08-30T08:24:11Z</time>
      </trkpt>
      <trkpt lat="44.76967" lon="6.97324">
        <ele>1670.1</ele>
        <time>2026-08-30T08:24:17Z</time>
      </trkpt>
      <trkpt lat="44.76965" lon="6.97328">
        <ele>1670.1</ele>
        <time>2026-08-30T08:24:22Z</time>
      </trkpt>
      <trkpt lat="44.7696" lon="6.97333">
        <ele>1671</ele>
        <time>2026-08-30T08:24:27Z</time>
      </trkpt>
      <trkpt lat="44.76954" lon="6.97341">
        <ele>1671.8</ele>
        <time>2026-08-30T08:24:33Z</time>
      </trkpt>
      <trkpt lat="44.76948" lon="6.97348">
        <ele>1672.7</ele>
        <time>2026-08-30T08:24:38Z</time>
      </trkpt>
      <trkpt lat="44.76943" lon="6.97354">
        <ele>1673.4</ele>
        <time>2026-08-30T08:24:43Z</time>
      </trkpt>
      <trkpt lat="44.76935" lon="6.97361">
        <ele>1675</ele>
        <time>2026-08-30T08:24:49Z</time>
      </trkpt>
      <trkpt lat="44.7693" lon="6.97366">
        <ele>1675.9</ele>
        <time>2026-08-30T08:24:54Z</time>
      </trkpt>
      <trkpt lat="44.76924" lon="6.97371">
        <ele>1677.2</ele>
        <time>2026-08-30T08:24:59Z</time>
      </trkpt>
      <trkpt lat="44.76918" lon="6.97377">
        <ele>1678.2</ele>
        <time>2026-08-30T08:25:05Z</time>
      </trkpt>
      <trkpt lat="44.76911" lon="6.97382">
        <ele>1681.3</ele>
        <time>2026-08-30T08:25:10Z</time>
      </trkpt>
      <trkpt lat="44.76906" lon="6.97386">
        <ele>1683.7</ele>
        <time>2026-08-30T08:25:15Z</time>
      </trkpt>
      <trkpt lat="44.769" lon="6.97394">
        <ele>1685.9</ele>
        <time>2026-08-30T08:25:21Z</time>
      </trkpt>
      <trkpt lat="44.76894" lon="6.97403">
        <ele>1687.8</ele>
        <time>2026-08-30T08:25:26Z</time>
      </trkpt>
      <trkpt lat="44.76889" lon="6.97409">
        <ele>1689.5</ele>
        <time>2026-08-30T08:25:31Z</time>
      </trkpt>
      <trkpt lat="44.76884" lon="6.97417">
        <ele>1690.7</ele>
        <time>2026-08-30T08:25:37Z</time>
      </trkpt>
      <trkpt lat="44.76879" lon="6.97423">
        <ele>1692.2</ele>
        <time>2026-08-30T08:25:42Z</time>
      </trkpt>
      <trkpt lat="44.76875" lon="6.97429">
        <ele>1693.1</ele>
        <time>2026-08-30T08:25:47Z</time>
      </trkpt>
      <trkpt lat="44.76869" lon="6.97433">
        <ele>1695.5</ele>
        <time>2026-08-30T08:25:53Z</time>
      </trkpt>
      <trkpt lat="44.76862" lon="6.97438">
        <ele>1698.1</ele>
        <time>2026-08-30T08:25:58Z</time>
      </trkpt>
      <trkpt lat="44.76857" lon="6.97441">
        <ele>1700.1</ele>
        <time>2026-08-30T08:26:03Z</time>
      </trkpt>
      <trkpt lat="44.7685" lon="6.97445">
        <ele>1702.9</ele>
        <time>2026-08-30T08:26:09Z</time>
      </trkpt>
      <trkpt lat="44.76844" lon="6.9745">
        <ele>1704.7</ele>
        <time>2026-08-30T08:26:14Z</time>
      </trkpt>
      <trkpt lat="44.76839" lon="6.97458">
        <ele>1705.1</ele>
        <time>2026-08-30T08:26:19Z</time>
      </trkpt>
      <trkpt lat="44.76835" lon="6.97466">
        <ele>1704.9</ele>
        <time>2026-08-30T08:26:25Z</time>
      </trkpt>
      <trkpt lat="44.76832" lon="6.97474">
        <ele>1704.5</ele>
        <time>2026-08-30T08:26:30Z</time>
      </trkpt>
      <trkpt lat="44.76831" lon="6.97484">
        <ele>1702.3</ele>
        <time>2026-08-30T08:26:35Z</time>
      </trkpt>
      <trkpt lat="44.76831" lon="6.97495">
        <ele>1699.1</ele>
        <time>2026-08-30T08:26:41Z</time>
      </trkpt>
      <trkpt lat="44.7683" lon="6.97505">
        <ele>1697.3</ele>
        <time>2026-08-30T08:26:46Z</time>
      </trkpt>
      <trkpt lat="44.76828" lon="6.97517">
        <ele>1696.3</ele>
        <time>2026-08-30T08:26:51Z</time>
      </trkpt>
      <trkpt lat="44.76826" lon="6.97528">
        <ele>1695.5</ele>
        <time>2026-08-30T08:26:57Z</time>
      </trkpt>
      <trkpt lat="44.76824" lon="6.97538">
        <ele>1694.7</ele>
        <time>2026-08-30T08:27:02Z</time>
      </trkpt>
      <trkpt lat="44.76823" lon="6.97546">
        <ele>1693.7</ele>
        <time>2026-08-30T08:27:07Z</time>
      </trkpt>
      <trkpt lat="44.76822" lon="6.97556">
        <ele>1692.3</ele>
        <time>2026-08-30T08:27:13Z</time>
      </trkpt>
      <trkpt lat="44.76821" lon="6.97564">
        <ele>1691.3</ele>
        <time>2026-08-30T08:27:18Z</time>
      </trkpt>
      <trkpt lat="44.7682" lon="6.97572">
        <ele>1690.2</ele>
        <time>2026-08-30T08:27:23Z</time>
      </trkpt>
      <trkpt lat="44.7682" lon="6.9758">
        <ele>1688.5</ele>
        <time>2026-08-30T08:27:29Z</time>
      </trkpt>
      <trkpt lat="44.76816" lon="6.97588">
        <ele>1689.5</ele>
        <time>2026-08-30T08:27:34Z</time>
      </trkpt>
      <trkpt lat="44.76814" lon="6.97595">
        <ele>1689.6</ele>
        <time>2026-08-30T08:27:39Z</time>
      </trkpt>
      <trkpt lat="44.76809" lon="6.97604">
        <ele>1691.1</ele>
        <time>2026-08-30T08:27:45Z</time>
      </trkpt>
      <trkpt lat="44.76805" lon="6.97611">
        <ele>1692.2</ele>
        <time>2026-08-30T08:27:50Z</time>
      </trkpt>
      <trkpt lat="44.76801" lon="6.97618">
        <ele>1693.3</ele>
        <time>2026-08-30T08:27:55Z</time>
      </trkpt>
      <trkpt lat="44.76798" lon="6.97626">
        <ele>1693.6</ele>
        <time>2026-08-30T08:28:01Z</time>
      </trkpt>
      <trkpt lat="44.76795" lon="6.97634">
        <ele>1693.9</ele>
        <time>2026-08-30T08:28:06Z</time>
      </trkpt>
      <trkpt lat="44.76794" lon="6.97644">
        <ele>1692.7</ele>
        <time>2026-08-30T08:28:11Z</time>
      </trkpt>
      <trkpt lat="44.76791" lon="6.97657">
        <ele>1692</ele>
        <time>2026-08-30T08:28:17Z</time>
      </trkpt>
      <trkpt lat="44.76788" lon="6.97664">
        <ele>1692.3</ele>
        <time>2026-08-30T08:28:22Z</time>
      </trkpt>
      <trkpt lat="44.76784" lon="6.9767">
        <ele>1693.1</ele>
        <time>2026-08-30T08:28:27Z</time>
      </trkpt>
      <trkpt lat="44.76779" lon="6.97678">
        <ele>1693.5</ele>
        <time>2026-08-30T08:28:33Z</time>
      </trkpt>
      <trkpt lat="44.76774" lon="6.97684">
        <ele>1694.5</ele>
        <time>2026-08-30T08:28:38Z</time>
      </trkpt>
      <trkpt lat="44.76772" lon="6.97691">
        <ele>1693.6</ele>
        <time>2026-08-30T08:28:43Z</time>
      </trkpt>
      <trkpt lat="44.76769" lon="6.97698">
        <ele>1693.2</ele>
        <time>2026-08-30T08:28:49Z</time>
      </trkpt>
      <trkpt lat="44.76767" lon="6.97704">
        <ele>1692.5</ele>
        <time>2026-08-30T08:28:54Z</time>
      </trkpt>
      <trkpt lat="44.76765" lon="6.9771">
        <ele>1691.8</ele>
        <time>2026-08-30T08:28:59Z</time>
      </trkpt>
      <trkpt lat="44.76759" lon="6.97716">
        <ele>1692.8</ele>
        <time>2026-08-30T08:29:05Z</time>
      </trkpt>
      <trkpt lat="44.76755" lon="6.97721">
        <ele>1693.2</ele>
        <time>2026-08-30T08:29:10Z</time>
      </trkpt>
      <trkpt lat="44.7675" lon="6.97728">
        <ele>1693.3</ele>
        <time>2026-08-30T08:29:15Z</time>
      </trkpt>
      <trkpt lat="44.76745" lon="6.97737">
        <ele>1693.6</ele>
        <time>2026-08-30T08:29:21Z</time>
      </trkpt>
      <trkpt lat="44.76741" lon="6.97745">
        <ele>1693.4</ele>
        <time>2026-08-30T08:29:26Z</time>
      </trkpt>
      <trkpt lat="44.76736" lon="6.97754">
        <ele>1694</ele>
        <time>2026-08-30T08:29:31Z</time>
      </trkpt>
      <trkpt lat="44.76734" lon="6.97762">
        <ele>1693.5</ele>
        <time>2026-08-30T08:29:37Z</time>
      </trkpt>
      <trkpt lat="44.76731" lon="6.97767">
        <ele>1694.1</ele>
        <time>2026-08-30T08:29:42Z</time>
      </trkpt>
      <trkpt lat="44.76726" lon="6.97775">
        <ele>1695.1</ele>
        <time>2026-08-30T08:29:47Z</time>
      </trkpt>
      <trkpt lat="44.76722" lon="6.97784">
        <ele>1695.4</ele>
        <time>2026-08-30T08:29:53Z</time>
      </trkpt>
      <trkpt lat="44.76716" lon="6.97787">
        <ele>1697.8</ele>
        <time>2026-08-30T08:29:58Z</time>
      </trkpt>
      <trkpt lat="44.76712" lon="6.97793">
        <ele>1698.6</ele>
        <time>2026-08-30T08:30:03Z</time>
      </trkpt>
      <trkpt lat="44.76706" lon="6.97798">
        <ele>1700.5</ele>
        <time>2026-08-30T08:30:09Z</time>
      </trkpt>
      <trkpt lat="44.76701" lon="6.97806">
        <ele>1701.2</ele>
        <time>2026-08-30T08:30:14Z</time>
      </trkpt>
      <trkpt lat="44.76696" lon="6.97812">
        <ele>1702.3</ele>
        <time>2026-08-30T08:30:19Z</time>
      </trkpt>
      <trkpt lat="44.76689" lon="6.9782">
        <ele>1703.8</ele>
        <time>2026-08-30T08:30:25Z</time>
      </trkpt>
      <trkpt lat="44.76684" lon="6.97827">
        <ele>1704.4</ele>
        <time>2026-08-30T08:30:30Z</time>
      </trkpt>
      <trkpt lat="44.7668" lon="6.97833">
        <ele>1704.8</ele>
        <time>2026-08-30T08:30:35Z</time>
      </trkpt>
      <trkpt lat="44.76674" lon="6.97839">
        <ele>1705.9</ele>
        <time>2026-08-30T08:30:41Z</time>
      </trkpt>
      <trkpt lat="44.76671" lon="6.97843">
        <ele>1706.1</ele>
        <time>2026-08-30T08:30:46Z</time>
      </trkpt>
      <trkpt lat="44.76668" lon="6.97848">
        <ele>1706</ele>
        <time>2026-08-30T08:30:51Z</time>
      </trkpt>
      <trkpt lat="44.76664" lon="6.97855">
        <ele>1706.6</ele>
        <time>2026-08-30T08:30:57Z</time>
      </trkpt>
      <trkpt lat="44.76661" lon="6.97861">
        <ele>1707.1</ele>
        <time>2026-08-30T08:31:02Z</time>
      </trkpt>
      <trkpt lat="44.76658" lon="6.97867">
        <ele>1707.6</ele>
        <time>2026-08-30T08:31:07Z</time>
      </trkpt>
      <trkpt lat="44.76654" lon="6.97876">
        <ele>1708</ele>
        <time>2026-08-30T08:31:13Z</time>
      </trkpt>
      <trkpt lat="44.76651" lon="6.97882">
        <ele>1708.5</ele>
        <time>2026-08-30T08:31:18Z</time>
      </trkpt>
      <trkpt lat="44.7665" lon="6.97889">
        <ele>1707.1</ele>
        <time>2026-08-30T08:31:23Z</time>
      </trkpt>
      <trkpt lat="44.76648" lon="6.97897">
        <ele>1706.2</ele>
        <time>2026-08-30T08:31:29Z</time>
      </trkpt>
      <trkpt lat="44.76645" lon="6.97902">
        <ele>1706.9</ele>
        <time>2026-08-30T08:31:34Z</time>
      </trkpt>
      <trkpt lat="44.76641" lon="6.97908">
        <ele>1708.1</ele>
        <time>2026-08-30T08:31:39Z</time>
      </trkpt>
      <trkpt lat="44.76638" lon="6.97918">
        <ele>1707.5</ele>
        <time>2026-08-30T08:31:45Z</time>
      </trkpt>
      <trkpt lat="44.76635" lon="6.97927">
        <ele>1708.3</ele>
        <time>2026-08-30T08:31:50Z</time>
      </trkpt>
      <trkpt lat="44.76632" lon="6.97933">
        <ele>1709.6</ele>
        <time>2026-08-30T08:31:55Z</time>
      </trkpt>
      <trkpt lat="44.76624" lon="6.97939">
        <ele>1714.5</ele>
        <time>2026-08-30T08:32:01Z</time>
      </trkpt>
      <trkpt lat="44.76618" lon="6.97945">
        <ele>1717.8</ele>
        <time>2026-08-30T08:32:06Z</time>
      </trkpt>
      <trkpt lat="44.76611" lon="6.97951">
        <ele>1721.8</ele>
        <time>2026-08-30T08:32:11Z</time>
      </trkpt>
      <trkpt lat="44.76606" lon="6.97958">
        <ele>1724</ele>
        <time>2026-08-30T08:32:17Z</time>
      </trkpt>
      <trkpt lat="44.76601" lon="6.97965">
        <ele>1726.2</ele>
        <time>2026-08-30T08:32:22Z</time>
      </trkpt>
      <trkpt lat="44.76596" lon="6.97971">
        <ele>1728.5</ele>
        <time>2026-08-30T08:32:27Z</time>
      </trkpt>
      <trkpt lat="44.76591" lon="6.97977">
        <ele>1730.7</ele>
        <time>2026-08-30T08:32:33Z</time>
      </trkpt>
      <trkpt lat="44.76586" lon="6.97982">
        <ele>1733.1</ele>
        <time>2026-08-30T08:32:38Z</time>
      </trkpt>
      <trkpt lat="44.76583" lon="6.97986">
        <ele>1734.3</ele>
        <time>2026-08-30T08:32:43Z</time>
      </trkpt>
      <trkpt lat="44.76578" lon="6.97991">
        <ele>1737</ele>
        <time>2026-08-30T08:32:49Z</time>
      </trkpt>
      <trkpt lat="44.76576" lon="6.97997">
        <ele>1737.1</ele>
        <time>2026-08-30T08:32:54Z</time>
      </trkpt>
      <trkpt lat="44.76573" lon="6.98002">
        <ele>1738.2</ele>
        <time>2026-08-30T08:32:59Z</time>
      </trkpt>
      <trkpt lat="44.76571" lon="6.98007">
        <ele>1738.6</ele>
        <time>2026-08-30T08:33:05Z</time>
      </trkpt>
      <trkpt lat="44.76568" lon="6.98011">
        <ele>1739.8</ele>
        <time>2026-08-30T08:33:10Z</time>
      </trkpt>
      <trkpt lat="44.76568" lon="6.98017">
        <ele>1738.4</ele>
        <time>2026-08-30T08:33:15Z</time>
      </trkpt>
      <trkpt lat="44.76567" lon="6.98025">
        <ele>1737.2</ele>
        <time>2026-08-30T08:33:21Z</time>
      </trkpt>
      <trkpt lat="44.76566" lon="6.98033">
        <ele>1735.9</ele>
        <time>2026-08-30T08:33:26Z</time>
      </trkpt>
      <trkpt lat="44.76565" lon="6.98041">
        <ele>1734.7</ele>
        <time>2026-08-30T08:33:31Z</time>
      </trkpt>
      <trkpt lat="44.76566" lon="6.98042">
        <ele>1733.8</ele>
        <time>2026-08-30T08:33:37Z</time>
      </trkpt>
      <trkpt lat="44.76567" lon="6.98042">
        <ele>1733.1</ele>
        <time>2026-08-30T08:33:42Z</time>
      </trkpt>
      <trkpt lat="44.76567" lon="6.98042">
        <ele>1733.1</ele>
        <time>2026-08-30T08:33:47Z</time>
      </trkpt>
      <trkpt lat="44.76567" lon="6.98042">
        <ele>1733.1</ele>
        <time>2026-08-30T08:33:53Z</time>
      </trkpt>
      <trkpt lat="44.76567" lon="6.98042">
        <ele>1733.1</ele>
        <time>2026-08-30T08:33:58Z</time>
      </trkpt>
      <trkpt lat="44.76566" lon="6.98054">
        <ele>1730.9</ele>
        <time>2026-08-30T08:34:03Z</time>
      </trkpt>
      <trkpt lat="44.76565" lon="6.98054">
        <ele>1731.5</ele>
        <time>2026-08-30T08:34:09Z</time>
      </trkpt>
      <trkpt lat="44.76565" lon="6.98054">
        <ele>1731.5</ele>
        <time>2026-08-30T08:34:14Z</time>
      </trkpt>
      <trkpt lat="44.76565" lon="6.98054">
        <ele>1731.5</ele>
        <time>2026-08-30T08:34:19Z</time>
      </trkpt>
      <trkpt lat="44.76561" lon="6.98059">
        <ele>1732.7</ele>
        <time>2026-08-30T08:34:25Z</time>
      </trkpt>
      <trkpt lat="44.7656" lon="6.98065">
        <ele>1731.8</ele>
        <time>2026-08-30T08:34:30Z</time>
      </trkpt>
      <trkpt lat="44.7656" lon="6.98071">
        <ele>1730.3</ele>
        <time>2026-08-30T08:34:35Z</time>
      </trkpt>
      <trkpt lat="44.7656" lon="6.98081">
        <ele>1727.8</ele>
        <time>2026-08-30T08:34:41Z</time>
      </trkpt>
      <trkpt lat="44.76557" lon="6.98089">
        <ele>1727.2</ele>
        <time>2026-08-30T08:34:46Z</time>
      </trkpt>
      <trkpt lat="44.76554" lon="6.98097">
        <ele>1726.5</ele>
        <time>2026-08-30T08:34:51Z</time>
      </trkpt>
      <trkpt lat="44.7655" lon="6.98105">
        <ele>1726.4</ele>
        <time>2026-08-30T08:34:57Z</time>
      </trkpt>
      <trkpt lat="44.76548" lon="6.9811">
        <ele>1725.9</ele>
        <time>2026-08-30T08:35:02Z</time>
      </trkpt>
      <trkpt lat="44.76547" lon="6.98115">
        <ele>1725</ele>
        <time>2026-08-30T08:35:07Z</time>
      </trkpt>
      <trkpt lat="44.76545" lon="6.98121">
        <ele>1724.2</ele>
        <time>2026-08-30T08:35:13Z</time>
      </trkpt>
      <trkpt lat="44.76545" lon="6.98129">
        <ele>1721.8</ele>
        <time>2026-08-30T08:35:18Z</time>
      </trkpt>
      <trkpt lat="44.76546" lon="6.98136">
        <ele>1719.2</ele>
        <time>2026-08-30T08:35:23Z</time>
      </trkpt>
      <trkpt lat="44.76542" lon="6.98144">
        <ele>1718.8</ele>
        <time>2026-08-30T08:35:29Z</time>
      </trkpt>
      <trkpt lat="44.7654" lon="6.98152">
        <ele>1717.3</ele>
        <time>2026-08-30T08:35:34Z</time>
      </trkpt>
      <trkpt lat="44.76538" lon="6.98159">
        <ele>1716.1</ele>
        <time>2026-08-30T08:35:39Z</time>
      </trkpt>
      <trkpt lat="44.76533" lon="6.98168">
        <ele>1715.8</ele>
        <time>2026-08-30T08:35:45Z</time>
      </trkpt>
      <trkpt lat="44.76529" lon="6.98178">
        <ele>1714.6</ele>
        <time>2026-08-30T08:35:50Z</time>
      </trkpt>
      <trkpt lat="44.76527" lon="6.98186">
        <ele>1713.2</ele>
        <time>2026-08-30T08:35:55Z</time>
      </trkpt>
      <trkpt lat="44.76524" lon="6.98195">
        <ele>1711.8</ele>
        <time>2026-08-30T08:36:01Z</time>
      </trkpt>
      <trkpt lat="44.76518" lon="6.98202">
        <ele>1712.4</ele>
        <time>2026-08-30T08:36:06Z</time>
      </trkpt>
      <trkpt lat="44.76513" lon="6.98208">
        <ele>1712.8</ele>
        <time>2026-08-30T08:36:11Z</time>
      </trkpt>
      <trkpt lat="44.76505" lon="6.98216">
        <ele>1713.8</ele>
        <time>2026-08-30T08:36:17Z</time>
      </trkpt>
      <trkpt lat="44.765" lon="6.98226">
        <ele>1712.8</ele>
        <time>2026-08-30T08:36:22Z</time>
      </trkpt>
      <trkpt lat="44.76496" lon="6.98234">
        <ele>1712.9</ele>
        <time>2026-08-30T08:36:27Z</time>
      </trkpt>
      <trkpt lat="44.7649" lon="6.9824">
        <ele>1714.8</ele>
        <time>2026-08-30T08:36:33Z</time>
      </trkpt>
      <trkpt lat="44.76486" lon="6.98247">
        <ele>1715.1</ele>
        <time>2026-08-30T08:36:38Z</time>
      </trkpt>
      <trkpt lat="44.76483" lon="6.98256">
        <ele>1714.3</ele>
        <time>2026-08-30T08:36:43Z</time>
      </trkpt>
      <trkpt lat="44.76478" lon="6.98266">
        <ele>1714.5</ele>
        <time>2026-08-30T08:36:49Z</time>
      </trkpt>
      <trkpt lat="44.76474" lon="6.98273">
        <ele>1714.9</ele>
        <time>2026-08-30T08:36:54Z</time>
      </trkpt>
      <trkpt lat="44.76469" lon="6.98281">
        <ele>1715.5</ele>
        <time>2026-08-30T08:36:59Z</time>
      </trkpt>
      <trkpt lat="44.76463" lon="6.9829">
        <ele>1716.3</ele>
        <time>2026-08-30T08:37:05Z</time>
      </trkpt>
      <trkpt lat="44.76461" lon="6.983">
        <ele>1714.3</ele>
        <time>2026-08-30T08:37:10Z</time>
      </trkpt>
      <trkpt lat="44.76458" lon="6.9831">
        <ele>1712.7</ele>
        <time>2026-08-30T08:37:15Z</time>
      </trkpt>
      <trkpt lat="44.76453" lon="6.98322">
        <ele>1711.6</ele>
        <time>2026-08-30T08:37:21Z</time>
      </trkpt>
      <trkpt lat="44.76452" lon="6.98333">
        <ele>1708.5</ele>
        <time>2026-08-30T08:37:26Z</time>
      </trkpt>
      <trkpt lat="44.7645" lon="6.98344">
        <ele>1707.3</ele>
        <time>2026-08-30T08:37:31Z</time>
      </trkpt>
      <trkpt lat="44.7645" lon="6.98354">
        <ele>1705.3</ele>
        <time>2026-08-30T08:37:37Z</time>
      </trkpt>
      <trkpt lat="44.76449" lon="6.98364">
        <ele>1703.8</ele>
        <time>2026-08-30T08:37:42Z</time>
      </trkpt>
      <trkpt lat="44.76446" lon="6.9837">
        <ele>1704</ele>
        <time>2026-08-30T08:37:47Z</time>
      </trkpt>
      <trkpt lat="44.76446" lon="6.9837">
        <ele>1704</ele>
        <time>2026-08-30T08:37:53Z</time>
      </trkpt>
      <trkpt lat="44.76444" lon="6.98372">
        <ele>1704.5</ele>
        <time>2026-08-30T08:37:58Z</time>
      </trkpt>
      <trkpt lat="44.76441" lon="6.9838">
        <ele>1704.2</ele>
        <time>2026-08-30T08:38:03Z</time>
      </trkpt>
      <trkpt lat="44.76434" lon="6.98385">
        <ele>1706.2</ele>
        <time>2026-08-30T08:38:09Z</time>
      </trkpt>
      <trkpt lat="44.76429" lon="6.98388">
        <ele>1707.8</ele>
        <time>2026-08-30T08:38:14Z</time>
      </trkpt>
      <trkpt lat="44.76424" lon="6.98391">
        <ele>1709.3</ele>
        <time>2026-08-30T08:38:19Z</time>
      </trkpt>
      <trkpt lat="44.76419" lon="6.98398">
        <ele>1709.7</ele>
        <time>2026-08-30T08:38:25Z</time>
      </trkpt>
      <trkpt lat="44.76415" lon="6.98404">
        <ele>1710</ele>
        <time>2026-08-30T08:38:30Z</time>
      </trkpt>
      <trkpt lat="44.76413" lon="6.98413">
        <ele>1708.7</ele>
        <time>2026-08-30T08:38:35Z</time>
      </trkpt>
      <trkpt lat="44.76407" lon="6.98422">
        <ele>1709.3</ele>
        <time>2026-08-30T08:38:41Z</time>
      </trkpt>
      <trkpt lat="44.76403" lon="6.98431">
        <ele>1708.8</ele>
        <time>2026-08-30T08:38:46Z</time>
      </trkpt>
      <trkpt lat="44.76399" lon="6.98438">
        <ele>1708.7</ele>
        <time>2026-08-30T08:38:51Z</time>
      </trkpt>
      <trkpt lat="44.76395" lon="6.98447">
        <ele>1708</ele>
        <time>2026-08-30T08:38:57Z</time>
      </trkpt>
      <trkpt lat="44.76391" lon="6.98455">
        <ele>1707.4</ele>
        <time>2026-08-30T08:39:02Z</time>
      </trkpt>
      <trkpt lat="44.76388" lon="6.98463">
        <ele>1706.3</ele>
        <time>2026-08-30T08:39:07Z</time>
      </trkpt>
      <trkpt lat="44.76383" lon="6.98474">
        <ele>1705.1</ele>
        <time>2026-08-30T08:39:13Z</time>
      </trkpt>
      <trkpt lat="44.7638" lon="6.98482">
        <ele>1703.8</ele>
        <time>2026-08-30T08:39:18Z</time>
      </trkpt>
      <trkpt lat="44.76377" lon="6.98489">
        <ele>1702.7</ele>
        <time>2026-08-30T08:39:23Z</time>
      </trkpt>
      <trkpt lat="44.76373" lon="6.985">
        <ele>1700.7</ele>
        <time>2026-08-30T08:39:29Z</time>
      </trkpt>
      <trkpt lat="44.76369" lon="6.98508">
        <ele>1700.1</ele>
        <time>2026-08-30T08:39:34Z</time>
      </trkpt>
      <trkpt lat="44.76364" lon="6.98515">
        <ele>1700</ele>
        <time>2026-08-30T08:39:39Z</time>
      </trkpt>
      <trkpt lat="44.76359" lon="6.9852">
        <ele>1700.2</ele>
        <time>2026-08-30T08:39:45Z</time>
      </trkpt>
      <trkpt lat="44.76354" lon="6.98526">
        <ele>1700.1</ele>
        <time>2026-08-30T08:39:50Z</time>
      </trkpt>
      <trkpt lat="44.76348" lon="6.98532">
        <ele>1700.2</ele>
        <time>2026-08-30T08:39:55Z</time>
      </trkpt>
      <trkpt lat="44.76342" lon="6.98539">
        <ele>1699.9</ele>
        <time>2026-08-30T08:40:01Z</time>
      </trkpt>
      <trkpt lat="44.76337" lon="6.98547">
        <ele>1698.8</ele>
        <time>2026-08-30T08:40:06Z</time>
      </trkpt>
      <trkpt lat="44.76333" lon="6.98554">
        <ele>1697.7</ele>
        <time>2026-08-30T08:40:11Z</time>
      </trkpt>
      <trkpt lat="44.76329" lon="6.98561">
        <ele>1697.3</ele>
        <time>2026-08-30T08:40:17Z</time>
      </trkpt>
      <trkpt lat="44.76325" lon="6.98571">
        <ele>1695.9</ele>
        <time>2026-08-30T08:40:22Z</time>
      </trkpt>
      <trkpt lat="44.76324" lon="6.9858">
        <ele>1693.4</ele>
        <time>2026-08-30T08:40:27Z</time>
      </trkpt>
      <trkpt lat="44.76324" lon="6.98583">
        <ele>1692.4</ele>
        <time>2026-08-30T08:40:33Z</time>
      </trkpt>
      <trkpt lat="44.76324" lon="6.98583">
        <ele>1692.4</ele>
        <time>2026-08-30T08:40:38Z</time>
      </trkpt>
      <trkpt lat="44.76321" lon="6.98587">
        <ele>1693.1</ele>
        <time>2026-08-30T08:40:43Z</time>
      </trkpt>
      <trkpt lat="44.7632" lon="6.98598">
        <ele>1692</ele>
        <time>2026-08-30T08:40:49Z</time>
      </trkpt>
      <trkpt lat="44.76319" lon="6.986">
        <ele>1692.2</ele>
        <time>2026-08-30T08:40:54Z</time>
      </trkpt>
      <trkpt lat="44.76319" lon="6.98601">
        <ele>1692</ele>
        <time>2026-08-30T08:40:59Z</time>
      </trkpt>
      <trkpt lat="44.76319" lon="6.98601">
        <ele>1692</ele>
        <time>2026-08-30T08:41:05Z</time>
      </trkpt>
      <trkpt lat="44.76315" lon="6.98608">
        <ele>1692.6</ele>
        <time>2026-08-30T08:41:10Z</time>
      </trkpt>
      <trkpt lat="44.7631" lon="6.98614">
        <ele>1693.6</ele>
        <time>2026-08-30T08:41:15Z</time>
      </trkpt>
      <trkpt lat="44.76303" lon="6.9862">
        <ele>1695.1</ele>
        <time>2026-08-30T08:41:21Z</time>
      </trkpt>
      <trkpt lat="44.76299" lon="6.98626">
        <ele>1695.5</ele>
        <time>2026-08-30T08:41:26Z</time>
      </trkpt>
      <trkpt lat="44.76295" lon="6.98632">
        <ele>1695.7</ele>
        <time>2026-08-30T08:41:31Z</time>
      </trkpt>
      <trkpt lat="44.7629" lon="6.98641">
        <ele>1695.4</ele>
        <time>2026-08-30T08:41:37Z</time>
      </trkpt>
      <trkpt lat="44.76284" lon="6.98646">
        <ele>1696.2</ele>
        <time>2026-08-30T08:41:42Z</time>
      </trkpt>
      <trkpt lat="44.76279" lon="6.98651">
        <ele>1696.5</ele>
        <time>2026-08-30T08:41:47Z</time>
      </trkpt>
      <trkpt lat="44.76274" lon="6.98659">
        <ele>1695.9</ele>
        <time>2026-08-30T08:41:53Z</time>
      </trkpt>
      <trkpt lat="44.7627" lon="6.98666">
        <ele>1695.1</ele>
        <time>2026-08-30T08:41:58Z</time>
      </trkpt>
      <trkpt lat="44.76266" lon="6.98674">
        <ele>1695.2</ele>
        <time>2026-08-30T08:42:03Z</time>
      </trkpt>
      <trkpt lat="44.76265" lon="6.98677">
        <ele>1695.2</ele>
        <time>2026-08-30T08:42:09Z</time>
      </trkpt>
      <trkpt lat="44.76265" lon="6.98677">
        <ele>1695.2</ele>
        <time>2026-08-30T08:42:14Z</time>
      </trkpt>
      <trkpt lat="44.76263" lon="6.98686">
        <ele>1694.8</ele>
        <time>2026-08-30T08:42:19Z</time>
      </trkpt>
      <trkpt lat="44.76261" lon="6.98695">
        <ele>1694.3</ele>
        <time>2026-08-30T08:42:25Z</time>
      </trkpt>
      <trkpt lat="44.76258" lon="6.98704">
        <ele>1694.1</ele>
        <time>2026-08-30T08:42:30Z</time>
      </trkpt>
      <trkpt lat="44.76255" lon="6.98712">
        <ele>1694</ele>
        <time>2026-08-30T08:42:35Z</time>
      </trkpt>
      <trkpt lat="44.76252" lon="6.98722">
        <ele>1693.6</ele>
        <time>2026-08-30T08:42:41Z</time>
      </trkpt>
      <trkpt lat="44.76249" lon="6.98729">
        <ele>1693.5</ele>
        <time>2026-08-30T08:42:46Z</time>
      </trkpt>
      <trkpt lat="44.76246" lon="6.98735">
        <ele>1693.6</ele>
        <time>2026-08-30T08:42:51Z</time>
      </trkpt>
      <trkpt lat="44.76241" lon="6.98743">
        <ele>1693.9</ele>
        <time>2026-08-30T08:42:57Z</time>
      </trkpt>
      <trkpt lat="44.76238" lon="6.98751">
        <ele>1693.8</ele>
        <time>2026-08-30T08:43:02Z</time>
      </trkpt>
      <trkpt lat="44.76235" lon="6.98759">
        <ele>1694.2</ele>
        <time>2026-08-30T08:43:07Z</time>
      </trkpt>
      <trkpt lat="44.76231" lon="6.98767">
        <ele>1694.8</ele>
        <time>2026-08-30T08:43:13Z</time>
      </trkpt>
      <trkpt lat="44.76228" lon="6.98775">
        <ele>1695.1</ele>
        <time>2026-08-30T08:43:18Z</time>
      </trkpt>
      <trkpt lat="44.76226" lon="6.98783">
        <ele>1695.2</ele>
        <time>2026-08-30T08:43:23Z</time>
      </trkpt>
      <trkpt lat="44.76221" lon="6.98791">
        <ele>1696</ele>
        <time>2026-08-30T08:43:29Z</time>
      </trkpt>
      <trkpt lat="44.76217" lon="6.98795">
        <ele>1696.7</ele>
        <time>2026-08-30T08:43:34Z</time>
      </trkpt>
      <trkpt lat="44.76213" lon="6.98801">
        <ele>1697.2</ele>
        <time>2026-08-30T08:43:39Z</time>
      </trkpt>
      <trkpt lat="44.76209" lon="6.98808">
        <ele>1697.7</ele>
        <time>2026-08-30T08:43:45Z</time>
      </trkpt>
      <trkpt lat="44.76205" lon="6.98814">
        <ele>1698.3</ele>
        <time>2026-08-30T08:43:50Z</time>
      </trkpt>
      <trkpt lat="44.76202" lon="6.98821">
        <ele>1698.5</ele>
        <time>2026-08-30T08:43:55Z</time>
      </trkpt>
      <trkpt lat="44.76198" lon="6.9883">
        <ele>1698.8</ele>
        <time>2026-08-30T08:44:01Z</time>
      </trkpt>
      <trkpt lat="44.76195" lon="6.98836">
        <ele>1699</ele>
        <time>2026-08-30T08:44:06Z</time>
      </trkpt>
      <trkpt lat="44.76191" lon="6.98843">
        <ele>1699.3</ele>
        <time>2026-08-30T08:44:11Z</time>
      </trkpt>
      <trkpt lat="44.76187" lon="6.98851">
        <ele>1699.5</ele>
        <time>2026-08-30T08:44:17Z</time>
      </trkpt>
      <trkpt lat="44.76185" lon="6.98858">
        <ele>1699.3</ele>
        <time>2026-08-30T08:44:22Z</time>
      </trkpt>
      <trkpt lat="44.76183" lon="6.98867">
        <ele>1698.9</ele>
        <time>2026-08-30T08:44:27Z</time>
      </trkpt>
      <trkpt lat="44.76181" lon="6.98877">
        <ele>1698.4</ele>
        <time>2026-08-30T08:44:33Z</time>
      </trkpt>
      <trkpt lat="44.76179" lon="6.98885">
        <ele>1698.1</ele>
        <time>2026-08-30T08:44:38Z</time>
      </trkpt>
      <trkpt lat="44.76178" lon="6.98893">
        <ele>1697.5</ele>
        <time>2026-08-30T08:44:43Z</time>
      </trkpt>
      <trkpt lat="44.76176" lon="6.98905">
        <ele>1696.8</ele>
        <time>2026-08-30T08:44:49Z</time>
      </trkpt>
      <trkpt lat="44.76176" lon="6.98908">
        <ele>1696.5</ele>
        <time>2026-08-30T08:44:54Z</time>
      </trkpt>
      <trkpt lat="44.76175" lon="6.98917">
        <ele>1695.9</ele>
        <time>2026-08-30T08:44:59Z</time>
      </trkpt>
      <trkpt lat="44.76172" lon="6.98927">
        <ele>1695.6</ele>
        <time>2026-08-30T08:45:05Z</time>
      </trkpt>
      <trkpt lat="44.7617" lon="6.98933">
        <ele>1695.4</ele>
        <time>2026-08-30T08:45:10Z</time>
      </trkpt>
      <trkpt lat="44.76166" lon="6.9894">
        <ele>1695.4</ele>
        <time>2026-08-30T08:45:15Z</time>
      </trkpt>
      <trkpt lat="44.76163" lon="6.98949">
        <ele>1695.3</ele>
        <time>2026-08-30T08:45:21Z</time>
      </trkpt>
      <trkpt lat="44.76159" lon="6.98956">
        <ele>1695.6</ele>
        <time>2026-08-30T08:45:26Z</time>
      </trkpt>
      <trkpt lat="44.76154" lon="6.98963">
        <ele>1695.9</ele>
        <time>2026-08-30T08:45:31Z</time>
      </trkpt>
      <trkpt lat="44.7615" lon="6.98971">
        <ele>1696</ele>
        <time>2026-08-30T08:45:37Z</time>
      </trkpt>
      <trkpt lat="44.76146" lon="6.98979">
        <ele>1696.1</ele>
        <time>2026-08-30T08:45:42Z</time>
      </trkpt>
      <trkpt lat="44.76142" lon="6.98986">
        <ele>1696.3</ele>
        <time>2026-08-30T08:45:47Z</time>
      </trkpt>
      <trkpt lat="44.76141" lon="6.98989">
        <ele>1696.2</ele>
        <time>2026-08-30T08:45:53Z</time>
      </trkpt>
      <trkpt lat="44.76141" lon="6.98989">
        <ele>1696.2</ele>
        <time>2026-08-30T08:45:58Z</time>
      </trkpt>
      <trkpt lat="44.76141" lon="6.98989">
        <ele>1696.2</ele>
        <time>2026-08-30T08:46:03Z</time>
      </trkpt>
      <trkpt lat="44.76142" lon="6.98993">
        <ele>1695.7</ele>
        <time>2026-08-30T08:46:09Z</time>
      </trkpt>
      <trkpt lat="44.76139" lon="6.99">
        <ele>1695.6</ele>
        <time>2026-08-30T08:46:14Z</time>
      </trkpt>
      <trkpt lat="44.76137" lon="6.99006">
        <ele>1695.7</ele>
        <time>2026-08-30T08:46:19Z</time>
      </trkpt>
      <trkpt lat="44.76137" lon="6.99013">
        <ele>1695.3</ele>
        <time>2026-08-30T08:46:25Z</time>
      </trkpt>
      <trkpt lat="44.76136" lon="6.99017">
        <ele>1695.3</ele>
        <time>2026-08-30T08:46:30Z</time>
      </trkpt>
      <trkpt lat="44.76136" lon="6.99021">
        <ele>1695.1</ele>
        <time>2026-08-30T08:46:35Z</time>
      </trkpt>
      <trkpt lat="44.76134" lon="6.99028">
        <ele>1695.1</ele>
        <time>2026-08-30T08:46:41Z</time>
      </trkpt>
      <trkpt lat="44.76131" lon="6.99034">
        <ele>1695.2</ele>
        <time>2026-08-30T08:46:46Z</time>
      </trkpt>
      <trkpt lat="44.76127" lon="6.99041">
        <ele>1695.5</ele>
        <time>2026-08-30T08:46:51Z</time>
      </trkpt>
      <trkpt lat="44.76121" lon="6.99045">
        <ele>1696.2</ele>
        <time>2026-08-30T08:46:57Z</time>
      </trkpt>
      <trkpt lat="44.76116" lon="6.99054">
        <ele>1696.4</ele>
        <time>2026-08-30T08:47:02Z</time>
      </trkpt>
      <trkpt lat="44.76111" lon="6.9906">
        <ele>1696.7</ele>
        <time>2026-08-30T08:47:07Z</time>
      </trkpt>
      <trkpt lat="44.76107" lon="6.99065">
        <ele>1697</ele>
        <time>2026-08-30T08:47:13Z</time>
      </trkpt>
      <trkpt lat="44.76103" lon="6.99071">
        <ele>1697.2</ele>
        <time>2026-08-30T08:47:18Z</time>
      </trkpt>
      <trkpt lat="44.76098" lon="6.99077">
        <ele>1697.5</ele>
        <time>2026-08-30T08:47:23Z</time>
      </trkpt>
      <trkpt lat="44.76094" lon="6.99083">
        <ele>1697.6</ele>
        <time>2026-08-30T08:47:29Z</time>
      </trkpt>
      <trkpt lat="44.7609" lon="6.99088">
        <ele>1697.8</ele>
        <time>2026-08-30T08:47:34Z</time>
      </trkpt>
      <trkpt lat="44.76087" lon="6.99094">
        <ele>1697.8</ele>
        <time>2026-08-30T08:47:39Z</time>
      </trkpt>
      <trkpt lat="44.76081" lon="6.99103">
        <ele>1697.8</ele>
        <time>2026-08-30T08:47:45Z</time>
      </trkpt>
      <trkpt lat="44.76078" lon="6.99106">
        <ele>1697.9</ele>
        <time>2026-08-30T08:47:50Z</time>
      </trkpt>
      <trkpt lat="44.76072" lon="6.9911">
        <ele>1698.2</ele>
        <time>2026-08-30T08:47:55Z</time>
      </trkpt>
      <trkpt lat="44.76066" lon="6.99112">
        <ele>1698.6</ele>
        <time>2026-08-30T08:48:01Z</time>
      </trkpt>
      <trkpt lat="44.76061" lon="6.99113">
        <ele>1699</ele>
        <time>2026-08-30T08:48:06Z</time>
      </trkpt>
      <trkpt lat="44.76056" lon="6.99115">
        <ele>1699.3</ele>
        <time>2026-08-30T08:48:11Z</time>
      </trkpt>
      <trkpt lat="44.76049" lon="6.99116">
        <ele>1699.8</ele>
        <time>2026-08-30T08:48:17Z</time>
      </trkpt>
      <trkpt lat="44.76043" lon="6.99117">
        <ele>1700.2</ele>
        <time>2026-08-30T08:48:22Z</time>
      </trkpt>
      <trkpt lat="44.7604" lon="6.99119">
        <ele>1700.3</ele>
        <time>2026-08-30T08:48:27Z</time>
      </trkpt>
      <trkpt lat="44.76035" lon="6.99122">
        <ele>1700.4</ele>
        <time>2026-08-30T08:48:33Z</time>
      </trkpt>
      <trkpt lat="44.76031" lon="6.99124">
        <ele>1700.5</ele>
        <time>2026-08-30T08:48:38Z</time>
      </trkpt>
      <trkpt lat="44.76026" lon="6.99127">
        <ele>1700.6</ele>
        <time>2026-08-30T08:48:43Z</time>
      </trkpt>
      <trkpt lat="44.7602" lon="6.99131">
        <ele>1700.6</ele>
        <time>2026-08-30T08:48:49Z</time>
      </trkpt>
      <trkpt lat="44.76015" lon="6.99134">
        <ele>1700.6</ele>
        <time>2026-08-30T08:48:54Z</time>
      </trkpt>
      <trkpt lat="44.7601" lon="6.99137">
        <ele>1700.5</ele>
        <time>2026-08-30T08:48:59Z</time>
      </trkpt>
      <trkpt lat="44.76005" lon="6.99141">
        <ele>1700.3</ele>
        <time>2026-08-30T08:49:05Z</time>
      </trkpt>
      <trkpt lat="44.76002" lon="6.99143">
        <ele>1700.3</ele>
        <time>2026-08-30T08:49:10Z</time>
      </trkpt>
      <trkpt lat="44.75997" lon="6.99144">
        <ele>1700.2</ele>
        <time>2026-08-30T08:49:15Z</time>
      </trkpt>
      <trkpt lat="44.75991" lon="6.99146">
        <ele>1699.8</ele>
        <time>2026-08-30T08:49:21Z</time>
      </trkpt>
      <trkpt lat="44.75986" lon="6.99146">
        <ele>1699.7</ele>
        <time>2026-08-30T08:49:26Z</time>
      </trkpt>
      <trkpt lat="44.75981" lon="6.99144">
        <ele>1699.9</ele>
        <time>2026-08-30T08:49:31Z</time>
      </trkpt>
      <trkpt lat="44.75977" lon="6.99144">
        <ele>1699.8</ele>
        <time>2026-08-30T08:49:37Z</time>
      </trkpt>
      <trkpt lat="44.75973" lon="6.99144">
        <ele>1699.7</ele>
        <time>2026-08-30T08:49:42Z</time>
      </trkpt>
      <trkpt lat="44.7597" lon="6.99143">
        <ele>1699.8</ele>
        <time>2026-08-30T08:49:47Z</time>
      </trkpt>
      <trkpt lat="44.75966" lon="6.99141">
        <ele>1700</ele>
        <time>2026-08-30T08:49:53Z</time>
      </trkpt>
      <trkpt lat="44.75961" lon="6.9914">
        <ele>1700.1</ele>
        <time>2026-08-30T08:49:58Z</time>
      </trkpt>
      <trkpt lat="44.75956" lon="6.9914">
        <ele>1700</ele>
        <time>2026-08-30T08:50:03Z</time>
      </trkpt>
      <trkpt lat="44.75951" lon="6.99138">
        <ele>1700.2</ele>
        <time>2026-08-30T08:50:09Z</time>
      </trkpt>
      <trkpt lat="44.75947" lon="6.99137">
        <ele>1700.2</ele>
        <time>2026-08-30T08:50:14Z</time>
      </trkpt>
      <trkpt lat="44.75944" lon="6.99137">
        <ele>1700.2</ele>
        <time>2026-08-30T08:50:19Z</time>
      </trkpt>
      <trkpt lat="44.75939" lon="6.99135">
        <ele>1700.4</ele>
        <time>2026-08-30T08:50:25Z</time>
      </trkpt>
      <trkpt lat="44.75933" lon="6.99136">
        <ele>1700.1</ele>
        <time>2026-08-30T08:50:30Z</time>
      </trkpt>
      <trkpt lat="44.75928" lon="6.99135">
        <ele>1700.2</ele>
        <time>2026-08-30T08:50:35Z</time>
      </trkpt>
      <trkpt lat="44.75922" lon="6.9914">
        <ele>1699.3</ele>
        <time>2026-08-30T08:50:41Z</time>
      </trkpt>
      <trkpt lat="44.75918" lon="6.99144">
        <ele>1698.6</ele>
        <time>2026-08-30T08:50:46Z</time>
      </trkpt>
      <trkpt lat="44.75914" lon="6.99146">
        <ele>1698.3</ele>
        <time>2026-08-30T08:50:51Z</time>
      </trkpt>
      <trkpt lat="44.7591" lon="6.99149">
        <ele>1698</ele>
        <time>2026-08-30T08:50:57Z</time>
      </trkpt>
      <trkpt lat="44.75907" lon="6.99152">
        <ele>1697.6</ele>
        <time>2026-08-30T08:51:02Z</time>
      </trkpt>
      <trkpt lat="44.75904" lon="6.99154">
        <ele>1697.4</ele>
        <time>2026-08-30T08:51:07Z</time>
      </trkpt>
      <trkpt lat="44.75897" lon="6.99157">
        <ele>1697.3</ele>
        <time>2026-08-30T08:51:13Z</time>
      </trkpt>
      <trkpt lat="44.75893" lon="6.9916">
        <ele>1697</ele>
        <time>2026-08-30T08:51:18Z</time>
      </trkpt>
      <trkpt lat="44.75889" lon="6.99163">
        <ele>1696.8</ele>
        <time>2026-08-30T08:51:23Z</time>
      </trkpt>
      <trkpt lat="44.7588" lon="6.99164">
        <ele>1697.1</ele>
        <time>2026-08-30T08:51:29Z</time>
      </trkpt>
      <trkpt lat="44.75872" lon="6.99163">
        <ele>1697.6</ele>
        <time>2026-08-30T08:51:34Z</time>
      </trkpt>
      <trkpt lat="44.75866" lon="6.99161">
        <ele>1698.1</ele>
        <time>2026-08-30T08:51:39Z</time>
      </trkpt>
      <trkpt lat="44.75859" lon="6.99158">
        <ele>1698.7</ele>
        <time>2026-08-30T08:51:45Z</time>
      </trkpt>
      <trkpt lat="44.75852" lon="6.99157">
        <ele>1699.1</ele>
        <time>2026-08-30T08:51:50Z</time>
      </trkpt>
      <trkpt lat="44.75846" lon="6.99155">
        <ele>1699.5</ele>
        <time>2026-08-30T08:51:55Z</time>
      </trkpt>
      <trkpt lat="44.7584" lon="6.99153">
        <ele>1699.9</ele>
        <time>2026-08-30T08:52:01Z</time>
      </trkpt>
      <trkpt lat="44.75833" lon="6.9915">
        <ele>1700.4</ele>
        <time>2026-08-30T08:52:06Z</time>
      </trkpt>
      <trkpt lat="44.75827" lon="6.99145">
        <ele>1701</ele>
        <time>2026-08-30T08:52:11Z</time>
      </trkpt>
      <trkpt lat="44.75819" lon="6.99141">
        <ele>1701.4</ele>
        <time>2026-08-30T08:52:17Z</time>
      </trkpt>
      <trkpt lat="44.75813" lon="6.99135">
        <ele>1702.1</ele>
        <time>2026-08-30T08:52:22Z</time>
      </trkpt>
      <trkpt lat="44.75808" lon="6.99131">
        <ele>1702.5</ele>
        <time>2026-08-30T08:52:27Z</time>
      </trkpt>
      <trkpt lat="44.758" lon="6.99127">
        <ele>1702.9</ele>
        <time>2026-08-30T08:52:33Z</time>
      </trkpt>
      <trkpt lat="44.75795" lon="6.99125">
        <ele>1703.2</ele>
        <time>2026-08-30T08:52:38Z</time>
      </trkpt>
      <trkpt lat="44.75788" lon="6.99122">
        <ele>1703.5</ele>
        <time>2026-08-30T08:52:43Z</time>
      </trkpt>
      <trkpt lat="44.75781" lon="6.99119">
        <ele>1703.9</ele>
        <time>2026-08-30T08:52:49Z</time>
      </trkpt>
      <trkpt lat="44.75779" lon="6.99115">
        <ele>1704.2</ele>
        <time>2026-08-30T08:52:54Z</time>
      </trkpt>
      <trkpt lat="44.75774" lon="6.9911">
        <ele>1704.7</ele>
        <time>2026-08-30T08:52:59Z</time>
      </trkpt>
      <trkpt lat="44.75768" lon="6.99106">
        <ele>1705.1</ele>
        <time>2026-08-30T08:53:05Z</time>
      </trkpt>
      <trkpt lat="44.75762" lon="6.99102">
        <ele>1705.5</ele>
        <time>2026-08-30T08:53:10Z</time>
      </trkpt>
      <trkpt lat="44.75757" lon="6.99098">
        <ele>1705.8</ele>
        <time>2026-08-30T08:53:15Z</time>
      </trkpt>
      <trkpt lat="44.7575" lon="6.99095">
        <ele>1706.2</ele>
        <time>2026-08-30T08:53:21Z</time>
      </trkpt>
      <trkpt lat="44.75743" lon="6.99094">
        <ele>1706.8</ele>
        <time>2026-08-30T08:53:26Z</time>
      </trkpt>
      <trkpt lat="44.75736" lon="6.99092">
        <ele>1707.5</ele>
        <time>2026-08-30T08:53:31Z</time>
      </trkpt>
      <trkpt lat="44.75727" lon="6.99092">
        <ele>1708.2</ele>
        <time>2026-08-30T08:53:37Z</time>
      </trkpt>
      <trkpt lat="44.7572" lon="6.9909">
        <ele>1708.9</ele>
        <time>2026-08-30T08:53:42Z</time>
      </trkpt>
      <trkpt lat="44.75714" lon="6.99088">
        <ele>1709.6</ele>
        <time>2026-08-30T08:53:47Z</time>
      </trkpt>
      <trkpt lat="44.75708" lon="6.99086">
        <ele>1710.3</ele>
        <time>2026-08-30T08:53:53Z</time>
      </trkpt>
      <trkpt lat="44.75705" lon="6.99087">
        <ele>1710.4</ele>
        <time>2026-08-30T08:53:58Z</time>
      </trkpt>
      <trkpt lat="44.757" lon="6.99087">
        <ele>1710.8</ele>
        <time>2026-08-30T08:54:03Z</time>
      </trkpt>
      <trkpt lat="44.75694" lon="6.99084">
        <ele>1711.6</ele>
        <time>2026-08-30T08:54:09Z</time>
      </trkpt>
      <trkpt lat="44.75689" lon="6.99084">
        <ele>1712.1</ele>
        <time>2026-08-30T08:54:14Z</time>
      </trkpt>
      <trkpt lat="44.75683" lon="6.99083">
        <ele>1712.8</ele>
        <time>2026-08-30T08:54:19Z</time>
      </trkpt>
      <trkpt lat="44.75676" lon="6.99084">
        <ele>1713.1</ele>
        <time>2026-08-30T08:54:25Z</time>
      </trkpt>
      <trkpt lat="44.7567" lon="6.99084">
        <ele>1713.6</ele>
        <time>2026-08-30T08:54:30Z</time>
      </trkpt>
      <trkpt lat="44.75663" lon="6.99083">
        <ele>1714.9</ele>
        <time>2026-08-30T08:54:35Z</time>
      </trkpt>
      <trkpt lat="44.75656" lon="6.99082">
        <ele>1716.8</ele>
        <time>2026-08-30T08:54:41Z</time>
      </trkpt>
      <trkpt lat="44.7565" lon="6.99082">
        <ele>1718</ele>
        <time>2026-08-30T08:54:46Z</time>
      </trkpt>
      <trkpt lat="44.75644" lon="6.99082">
        <ele>1719.1</ele>
        <time>2026-08-30T08:54:51Z</time>
      </trkpt>
      <trkpt lat="44.75637" lon="6.99085">
        <ele>1719.4</ele>
        <time>2026-08-30T08:54:57Z</time>
      </trkpt>
      <trkpt lat="44.75631" lon="6.99087">
        <ele>1720.2</ele>
        <time>2026-08-30T08:55:02Z</time>
      </trkpt>
      <trkpt lat="44.75623" lon="6.99089">
        <ele>1721.3</ele>
        <time>2026-08-30T08:55:07Z</time>
      </trkpt>
      <trkpt lat="44.75616" lon="6.99093">
        <ele>1721.7</ele>
        <time>2026-08-30T08:55:13Z</time>
      </trkpt>
      <trkpt lat="44.75611" lon="6.99094">
        <ele>1722.4</ele>
        <time>2026-08-30T08:55:18Z</time>
      </trkpt>
      <trkpt lat="44.75607" lon="6.99094">
        <ele>1723.1</ele>
        <time>2026-08-30T08:55:23Z</time>
      </trkpt>
      <trkpt lat="44.75598" lon="6.99097">
        <ele>1723.9</ele>
        <time>2026-08-30T08:55:29Z</time>
      </trkpt>
      <trkpt lat="44.75592" lon="6.99099">
        <ele>1724.4</ele>
        <time>2026-08-30T08:55:34Z</time>
      </trkpt>
      <trkpt lat="44.75586" lon="6.99096">
        <ele>1726.2</ele>
        <time>2026-08-30T08:55:39Z</time>
      </trkpt>
      <trkpt lat="44.7558" lon="6.99097">
        <ele>1727.4</ele>
        <time>2026-08-30T08:55:45Z</time>
      </trkpt>
      <trkpt lat="44.7558" lon="6.99096">
        <ele>1727.7</ele>
        <time>2026-08-30T08:55:50Z</time>
      </trkpt>
      <trkpt lat="44.75578" lon="6.99096">
        <ele>1728.3</ele>
        <time>2026-08-30T08:55:55Z</time>
      </trkpt>
      <trkpt lat="44.75578" lon="6.99096">
        <ele>1728.3</ele>
        <time>2026-08-30T08:56:01Z</time>
      </trkpt>
      <trkpt lat="44.75573" lon="6.991">
        <ele>1728.7</ele>
        <time>2026-08-30T08:56:06Z</time>
      </trkpt>
      <trkpt lat="44.75566" lon="6.99099">
        <ele>1731.2</ele>
        <time>2026-08-30T08:56:11Z</time>
      </trkpt>
      <trkpt lat="44.75559" lon="6.99096">
        <ele>1734.3</ele>
        <time>2026-08-30T08:56:17Z</time>
      </trkpt>
      <trkpt lat="44.75553" lon="6.99096">
        <ele>1736.2</ele>
        <time>2026-08-30T08:56:22Z</time>
      </trkpt>
      <trkpt lat="44.75547" lon="6.99096">
        <ele>1738</ele>
        <time>2026-08-30T08:56:27Z</time>
      </trkpt>
      <trkpt lat="44.75541" lon="6.99094">
        <ele>1740.7</ele>
        <time>2026-08-30T08:56:33Z</time>
      </trkpt>
      <trkpt lat="44.75537" lon="6.99094">
        <ele>1742</ele>
        <time>2026-08-30T08:56:38Z</time>
      </trkpt>
      <trkpt lat="44.75533" lon="6.99093">
        <ele>1743.6</ele>
        <time>2026-08-30T08:56:43Z</time>
      </trkpt>
      <trkpt lat="44.75525" lon="6.99097">
        <ele>1744.5</ele>
        <time>2026-08-30T08:56:49Z</time>
      </trkpt>
      <trkpt lat="44.75518" lon="6.99098">
        <ele>1746.2</ele>
        <time>2026-08-30T08:56:54Z</time>
      </trkpt>
      <trkpt lat="44.75512" lon="6.99099">
        <ele>1747.6</ele>
        <time>2026-08-30T08:56:59Z</time>
      </trkpt>
      <trkpt lat="44.75505" lon="6.991">
        <ele>1749.3</ele>
        <time>2026-08-30T08:57:05Z</time>
      </trkpt>
      <trkpt lat="44.755" lon="6.991">
        <ele>1750.8</ele>
        <time>2026-08-30T08:57:10Z</time>
      </trkpt>
      <trkpt lat="44.75494" lon="6.99102">
        <ele>1750.7</ele>
        <time>2026-08-30T08:57:15Z</time>
      </trkpt>
      <trkpt lat="44.75485" lon="6.99107">
        <ele>1749.6</ele>
        <time>2026-08-30T08:57:21Z</time>
      </trkpt>
      <trkpt lat="44.7548" lon="6.99108">
        <ele>1749.9</ele>
        <time>2026-08-30T08:57:26Z</time>
      </trkpt>
      <trkpt lat="44.75474" lon="6.9911">
        <ele>1749.9</ele>
        <time>2026-08-30T08:57:31Z</time>
      </trkpt>
      <trkpt lat="44.75466" lon="6.99111">
        <ele>1750.7</ele>
        <time>2026-08-30T08:57:37Z</time>
      </trkpt>
      <trkpt lat="44.75461" lon="6.99114">
        <ele>1750.1</ele>
        <time>2026-08-30T08:57:42Z</time>
      </trkpt>
      <trkpt lat="44.75455" lon="6.99114">
        <ele>1751</ele>
        <time>2026-08-30T08:57:47Z</time>
      </trkpt>
      <trkpt lat="44.75447" lon="6.99119">
        <ele>1750.1</ele>
        <time>2026-08-30T08:57:53Z</time>
      </trkpt>
      <trkpt lat="44.75443" lon="6.9912">
        <ele>1750.3</ele>
        <time>2026-08-30T08:57:58Z</time>
      </trkpt>
      <trkpt lat="44.75437" lon="6.99124">
        <ele>1749.5</ele>
        <time>2026-08-30T08:58:03Z</time>
      </trkpt>
      <trkpt lat="44.75431" lon="6.99127">
        <ele>1749.2</ele>
        <time>2026-08-30T08:58:09Z</time>
      </trkpt>
      <trkpt lat="44.75424" lon="6.99127">
        <ele>1750.4</ele>
        <time>2026-08-30T08:58:14Z</time>
      </trkpt>
      <trkpt lat="44.75419" lon="6.99133">
        <ele>1748.7</ele>
        <time>2026-08-30T08:58:19Z</time>
      </trkpt>
      <trkpt lat="44.75412" lon="6.9914">
        <ele>1747.8</ele>
        <time>2026-08-30T08:58:25Z</time>
      </trkpt>
      <trkpt lat="44.75408" lon="6.99145">
        <ele>1747.2</ele>
        <time>2026-08-30T08:58:30Z</time>
      </trkpt>
      <trkpt lat="44.75403" lon="6.99151">
        <ele>1746.6</ele>
        <time>2026-08-30T08:58:35Z</time>
      </trkpt>
      <trkpt lat="44.75396" lon="6.99152">
        <ele>1748.8</ele>
        <time>2026-08-30T08:58:41Z</time>
      </trkpt>
      <trkpt lat="44.75393" lon="6.99152">
        <ele>1749.9</ele>
        <time>2026-08-30T08:58:46Z</time>
      </trkpt>
      <trkpt lat="44.75391" lon="6.99158">
        <ele>1748.4</ele>
        <time>2026-08-30T08:58:51Z</time>
      </trkpt>
      <trkpt lat="44.75389" lon="6.99168">
        <ele>1745.6</ele>
        <time>2026-08-30T08:58:57Z</time>
      </trkpt>
      <trkpt lat="44.75385" lon="6.99173">
        <ele>1746</ele>
        <time>2026-08-30T08:59:02Z</time>
      </trkpt>
      <trkpt lat="44.75381" lon="6.99179">
        <ele>1746</ele>
        <time>2026-08-30T08:59:07Z</time>
      </trkpt>
      <trkpt lat="44.75375" lon="6.99187">
        <ele>1746.1</ele>
        <time>2026-08-30T08:59:13Z</time>
      </trkpt>
      <trkpt lat="44.75371" lon="6.99194">
        <ele>1745.6</ele>
        <time>2026-08-30T08:59:18Z</time>
      </trkpt>
      <trkpt lat="44.75367" lon="6.992">
        <ele>1745.3</ele>
        <time>2026-08-30T08:59:23Z</time>
      </trkpt>
      <trkpt lat="44.75361" lon="6.99206">
        <ele>1745.4</ele>
        <time>2026-08-30T08:59:29Z</time>
      </trkpt>
      <trkpt lat="44.7536" lon="6.9921">
        <ele>1744.5</ele>
        <time>2026-08-30T08:59:34Z</time>
      </trkpt>
      <trkpt lat="44.7536" lon="6.99212">
        <ele>1743.9</ele>
        <time>2026-08-30T08:59:39Z</time>
      </trkpt>
      <trkpt lat="44.75354" lon="6.99217">
        <ele>1744.1</ele>
        <time>2026-08-30T08:59:45Z</time>
      </trkpt>
      <trkpt lat="44.75347" lon="6.99222">
        <ele>1744.4</ele>
        <time>2026-08-30T08:59:50Z</time>
      </trkpt>
      <trkpt lat="44.75342" lon="6.99223">
        <ele>1745.4</ele>
        <time>2026-08-30T08:59:55Z</time>
      </trkpt>
      <trkpt lat="44.75336" lon="6.99226">
        <ele>1745.9</ele>
        <time>2026-08-30T09:00:01Z</time>
      </trkpt>
      <trkpt lat="44.75331" lon="6.9923">
        <ele>1745.8</ele>
        <time>2026-08-30T09:00:06Z</time>
      </trkpt>
      <trkpt lat="44.75325" lon="6.99235">
        <ele>1745.4</ele>
        <time>2026-08-30T09:00:11Z</time>
      </trkpt>
      <trkpt lat="44.75317" lon="6.99241">
        <ele>1744.8</ele>
        <time>2026-08-30T09:00:17Z</time>
      </trkpt>
      <trkpt lat="44.75311" lon="6.99243">
        <ele>1745.2</ele>
        <time>2026-08-30T09:00:22Z</time>
      </trkpt>
      <trkpt lat="44.75306" lon="6.99243">
        <ele>1746.2</ele>
        <time>2026-08-30T09:00:27Z</time>
      </trkpt>
      <trkpt lat="44.75299" lon="6.99245">
        <ele>1746.7</ele>
        <time>2026-08-30T09:00:33Z</time>
      </trkpt>
      <trkpt lat="44.75292" lon="6.99247">
        <ele>1747</ele>
        <time>2026-08-30T09:00:38Z</time>
      </trkpt>
      <trkpt lat="44.75289" lon="6.99246">
        <ele>1748.1</ele>
        <time>2026-08-30T09:00:43Z</time>
      </trkpt>
      <trkpt lat="44.75284" lon="6.99247">
        <ele>1748.6</ele>
        <time>2026-08-30T09:00:49Z</time>
      </trkpt>
      <trkpt lat="44.75278" lon="6.99249">
        <ele>1748.5</ele>
        <time>2026-08-30T09:00:54Z</time>
      </trkpt>
      <trkpt lat="44.75272" lon="6.99252">
        <ele>1748.4</ele>
        <time>2026-08-30T09:00:59Z</time>
      </trkpt>
      <trkpt lat="44.75264" lon="6.99257">
        <ele>1748.2</ele>
        <time>2026-08-30T09:01:05Z</time>
      </trkpt>
      <trkpt lat="44.75256" lon="6.99262">
        <ele>1747.9</ele>
        <time>2026-08-30T09:01:10Z</time>
      </trkpt>
      <trkpt lat="44.75254" lon="6.99264">
        <ele>1747.5</ele>
        <time>2026-08-30T09:01:15Z</time>
      </trkpt>
      <trkpt lat="44.75247" lon="6.99269">
        <ele>1746.9</ele>
        <time>2026-08-30T09:01:21Z</time>
      </trkpt>
      <trkpt lat="44.75241" lon="6.99272">
        <ele>1747</ele>
        <time>2026-08-30T09:01:26Z</time>
      </trkpt>
      <trkpt lat="44.75236" lon="6.99276">
        <ele>1746.4</ele>
        <time>2026-08-30T09:01:31Z</time>
      </trkpt>
      <trkpt lat="44.7523" lon="6.99279">
        <ele>1746.3</ele>
        <time>2026-08-30T09:01:37Z</time>
      </trkpt>
      <trkpt lat="44.75223" lon="6.99283">
        <ele>1745.9</ele>
        <time>2026-08-30T09:01:42Z</time>
      </trkpt>
      <trkpt lat="44.75219" lon="6.99288">
        <ele>1744.6</ele>
        <time>2026-08-30T09:01:47Z</time>
      </trkpt>
      <trkpt lat="44.75211" lon="6.99294">
        <ele>1743.4</ele>
        <time>2026-08-30T09:01:53Z</time>
      </trkpt>
      <trkpt lat="44.75206" lon="6.99299">
        <ele>1742</ele>
        <time>2026-08-30T09:01:58Z</time>
      </trkpt>
      <trkpt lat="44.75199" lon="6.99305">
        <ele>1740.4</ele>
        <time>2026-08-30T09:02:03Z</time>
      </trkpt>
      <trkpt lat="44.75193" lon="6.99309">
        <ele>1739.5</ele>
        <time>2026-08-30T09:02:09Z</time>
      </trkpt>
      <trkpt lat="44.75186" lon="6.99313">
        <ele>1738.5</ele>
        <time>2026-08-30T09:02:14Z</time>
      </trkpt>
      <trkpt lat="44.75181" lon="6.99315">
        <ele>1738.2</ele>
        <time>2026-08-30T09:02:19Z</time>
      </trkpt>
      <trkpt lat="44.75174" lon="6.99319">
        <ele>1737.1</ele>
        <time>2026-08-30T09:02:25Z</time>
      </trkpt>
      <trkpt lat="44.75167" lon="6.99322">
        <ele>1736.4</ele>
        <time>2026-08-30T09:02:30Z</time>
      </trkpt>
      <trkpt lat="44.75161" lon="6.99325">
        <ele>1735.5</ele>
        <time>2026-08-30T09:02:35Z</time>
      </trkpt>
      <trkpt lat="44.75154" lon="6.99325">
        <ele>1736.1</ele>
        <time>2026-08-30T09:02:41Z</time>
      </trkpt>
      <trkpt lat="44.75148" lon="6.99322">
        <ele>1738.1</ele>
        <time>2026-08-30T09:02:46Z</time>
      </trkpt>
      <trkpt lat="44.75143" lon="6.99322">
        <ele>1738.5</ele>
        <time>2026-08-30T09:02:51Z</time>
      </trkpt>
      <trkpt lat="44.7514" lon="6.99324">
        <ele>1737.8</ele>
        <time>2026-08-30T09:02:57Z</time>
      </trkpt>
      <trkpt lat="44.7514" lon="6.99324">
        <ele>1737.8</ele>
        <time>2026-08-30T09:03:02Z</time>
      </trkpt>
      <trkpt lat="44.7514" lon="6.99324">
        <ele>1737.8</ele>
        <time>2026-08-30T09:03:07Z</time>
      </trkpt>
      <trkpt lat="44.75131" lon="6.99321">
        <ele>1740</ele>
        <time>2026-08-30T09:03:13Z</time>
      </trkpt>
      <trkpt lat="44.75124" lon="6.99324">
        <ele>1739.2</ele>
        <time>2026-08-30T09:03:18Z</time>
      </trkpt>
      <trkpt lat="44.75118" lon="6.99325">
        <ele>1739.2</ele>
        <time>2026-08-30T09:03:23Z</time>
      </trkpt>
      <trkpt lat="44.75111" lon="6.99326">
        <ele>1739.3</ele>
        <time>2026-08-30T09:03:29Z</time>
      </trkpt>
      <trkpt lat="44.7511" lon="6.99328">
        <ele>1738.4</ele>
        <time>2026-08-30T09:03:34Z</time>
      </trkpt>
      <trkpt lat="44.75108" lon="6.9933">
        <ele>1737.6</ele>
        <time>2026-08-30T09:03:39Z</time>
      </trkpt>
      <trkpt lat="44.75108" lon="6.9933">
        <ele>1737.6</ele>
        <time>2026-08-30T09:03:45Z</time>
      </trkpt>
      <trkpt lat="44.75108" lon="6.9933">
        <ele>1737.6</ele>
        <time>2026-08-30T09:03:50Z</time>
      </trkpt>
      <trkpt lat="44.75103" lon="6.99332">
        <ele>1737</ele>
        <time>2026-08-30T09:03:55Z</time>
      </trkpt>
      <trkpt lat="44.75101" lon="6.99334">
        <ele>1736.4</ele>
        <time>2026-08-30T09:04:01Z</time>
      </trkpt>
      <trkpt lat="44.75101" lon="6.99334">
        <ele>1736.4</ele>
        <time>2026-08-30T09:04:06Z</time>
      </trkpt>
      <trkpt lat="44.75099" lon="6.99331">
        <ele>1737.8</ele>
        <time>2026-08-30T09:04:11Z</time>
      </trkpt>
      <trkpt lat="44.75096" lon="6.99328">
        <ele>1739.6</ele>
        <time>2026-08-30T09:04:17Z</time>
      </trkpt>
      <trkpt lat="44.75089" lon="6.99328">
        <ele>1740.2</ele>
        <time>2026-08-30T09:04:22Z</time>
      </trkpt>
      <trkpt lat="44.75083" lon="6.99327">
        <ele>1741.2</ele>
        <time>2026-08-30T09:04:27Z</time>
      </trkpt>
      <trkpt lat="44.75078" lon="6.99328">
        <ele>1740.7</ele>
        <time>2026-08-30T09:04:33Z</time>
      </trkpt>
      <trkpt lat="44.75077" lon="6.99329">
        <ele>1740.3</ele>
        <time>2026-08-30T09:04:38Z</time>
      </trkpt>
      <trkpt lat="44.75075" lon="6.99329">
        <ele>1740.3</ele>
        <time>2026-08-30T09:04:43Z</time>
      </trkpt>
      <trkpt lat="44.75069" lon="6.99328">
        <ele>1740.8</ele>
        <time>2026-08-30T09:04:49Z</time>
      </trkpt>
      <trkpt lat="44.75063" lon="6.99328">
        <ele>1740.9</ele>
        <time>2026-08-30T09:04:54Z</time>
      </trkpt>
      <trkpt lat="44.75058" lon="6.99327">
        <ele>1741.4</ele>
        <time>2026-08-30T09:04:59Z</time>
      </trkpt>
      <trkpt lat="44.75051" lon="6.99328">
        <ele>1741</ele>
        <time>2026-08-30T09:05:05Z</time>
      </trkpt>
      <trkpt lat="44.75045" lon="6.99329">
        <ele>1740.6</ele>
        <time>2026-08-30T09:05:10Z</time>
      </trkpt>
      <trkpt lat="44.75038" lon="6.99329">
        <ele>1740.7</ele>
        <time>2026-08-30T09:05:15Z</time>
      </trkpt>
      <trkpt lat="44.75031" lon="6.99329">
        <ele>1740.7</ele>
        <time>2026-08-30T09:05:21Z</time>
      </trkpt>
      <trkpt lat="44.75023" lon="6.99332">
        <ele>1739.4</ele>
        <time>2026-08-30T09:05:26Z</time>
      </trkpt>
      <trkpt lat="44.75017" lon="6.99336">
        <ele>1738.5</ele>
        <time>2026-08-30T09:05:31Z</time>
      </trkpt>
      <trkpt lat="44.75009" lon="6.99338">
        <ele>1738.4</ele>
        <time>2026-08-30T09:05:37Z</time>
      </trkpt>
      <trkpt lat="44.75004" lon="6.99338">
        <ele>1738.4</ele>
        <time>2026-08-30T09:05:42Z</time>
      </trkpt>
      <trkpt lat="44.74998" lon="6.99338">
        <ele>1738.5</ele>
        <time>2026-08-30T09:05:47Z</time>
      </trkpt>
      <trkpt lat="44.74992" lon="6.9934">
        <ele>1738.2</ele>
        <time>2026-08-30T09:05:53Z</time>
      </trkpt>
      <trkpt lat="44.74985" lon="6.99342">
        <ele>1737.9</ele>
        <time>2026-08-30T09:05:58Z</time>
      </trkpt>
      <trkpt lat="44.74979" lon="6.99343">
        <ele>1737.8</ele>
        <time>2026-08-30T09:06:03Z</time>
      </trkpt>
      <trkpt lat="44.74971" lon="6.99343">
        <ele>1737.7</ele>
        <time>2026-08-30T09:06:09Z</time>
      </trkpt>
      <trkpt lat="44.74967" lon="6.99343">
        <ele>1737.7</ele>
        <time>2026-08-30T09:06:14Z</time>
      </trkpt>
      <trkpt lat="44.74962" lon="6.99341">
        <ele>1737.8</ele>
        <time>2026-08-30T09:06:19Z</time>
      </trkpt>
      <trkpt lat="44.74955" lon="6.9934">
        <ele>1737.8</ele>
        <time>2026-08-30T09:06:25Z</time>
      </trkpt>
      <trkpt lat="44.74949" lon="6.9934">
        <ele>1737.8</ele>
        <time>2026-08-30T09:06:30Z</time>
      </trkpt>
      <trkpt lat="44.74944" lon="6.99341">
        <ele>1737.6</ele>
        <time>2026-08-30T09:06:35Z</time>
      </trkpt>
      <trkpt lat="44.74938" lon="6.99342">
        <ele>1737.5</ele>
        <time>2026-08-30T09:06:41Z</time>
      </trkpt>
      <trkpt lat="44.74933" lon="6.99341">
        <ele>1737.5</ele>
        <time>2026-08-30T09:06:46Z</time>
      </trkpt>
      <trkpt lat="44.74928" lon="6.99343">
        <ele>1737.3</ele>
        <time>2026-08-30T09:06:51Z</time>
      </trkpt>
      <trkpt lat="44.74922" lon="6.99342">
        <ele>1737.3</ele>
        <time>2026-08-30T09:06:57Z</time>
      </trkpt>
      <trkpt lat="44.74917" lon="6.9934">
        <ele>1737.4</ele>
        <time>2026-08-30T09:07:02Z</time>
      </trkpt>
      <trkpt lat="44.74909" lon="6.99336">
        <ele>1738.3</ele>
        <time>2026-08-30T09:07:07Z</time>
      </trkpt>
      <trkpt lat="44.74901" lon="6.99335">
        <ele>1739</ele>
        <time>2026-08-30T09:07:13Z</time>
      </trkpt>
      <trkpt lat="44.74897" lon="6.99333">
        <ele>1739.6</ele>
        <time>2026-08-30T09:07:18Z</time>
      </trkpt>
      <trkpt lat="44.74891" lon="6.99333">
        <ele>1740</ele>
        <time>2026-08-30T09:07:23Z</time>
      </trkpt>
      <trkpt lat="44.74884" lon="6.99331">
        <ele>1741.2</ele>
        <time>2026-08-30T09:07:29Z</time>
      </trkpt>
      <trkpt lat="44.74879" lon="6.9933">
        <ele>1741.9</ele>
        <time>2026-08-30T09:07:34Z</time>
      </trkpt>
      <trkpt lat="44.74877" lon="6.99328">
        <ele>1742.7</ele>
        <time>2026-08-30T09:07:39Z</time>
      </trkpt>
      <trkpt lat="44.74877" lon="6.99328">
        <ele>1742.7</ele>
        <time>2026-08-30T09:07:45Z</time>
      </trkpt>
      <trkpt lat="44.74874" lon="6.99332">
        <ele>1741.5</ele>
        <time>2026-08-30T09:07:50Z</time>
      </trkpt>
      <trkpt lat="44.74867" lon="6.99332">
        <ele>1742</ele>
        <time>2026-08-30T09:07:55Z</time>
      </trkpt>
      <trkpt lat="44.74859" lon="6.99333">
        <ele>1742.3</ele>
        <time>2026-08-30T09:08:01Z</time>
      </trkpt>
      <trkpt lat="44.74852" lon="6.99336">
        <ele>1742.4</ele>
        <time>2026-08-30T09:08:06Z</time>
      </trkpt>
      <trkpt lat="44.74848" lon="6.99338">
        <ele>1742.5</ele>
        <time>2026-08-30T09:08:11Z</time>
      </trkpt>
      <trkpt lat="44.7484" lon="6.99339">
        <ele>1743</ele>
        <time>2026-08-30T09:08:17Z</time>
      </trkpt>
      <trkpt lat="44.74833" lon="6.99339">
        <ele>1743.5</ele>
        <time>2026-08-30T09:08:22Z</time>
      </trkpt>
      <trkpt lat="44.74828" lon="6.99338">
        <ele>1743.8</ele>
        <time>2026-08-30T09:08:27Z</time>
      </trkpt>
      <trkpt lat="44.74828" lon="6.99338">
        <ele>1743.8</ele>
        <time>2026-08-30T09:08:33Z</time>
      </trkpt>
      <trkpt lat="44.74828" lon="6.99338">
        <ele>1743.8</ele>
        <time>2026-08-30T09:08:38Z</time>
      </trkpt>
      <trkpt lat="44.74826" lon="6.99337">
        <ele>1744</ele>
        <time>2026-08-30T09:08:43Z</time>
      </trkpt>
      <trkpt lat="44.74816" lon="6.99336">
        <ele>1744.6</ele>
        <time>2026-08-30T09:08:49Z</time>
      </trkpt>
      <trkpt lat="44.74809" lon="6.99335">
        <ele>1745</ele>
        <time>2026-08-30T09:08:54Z</time>
      </trkpt>
      <trkpt lat="44.74804" lon="6.99333">
        <ele>1745.5</ele>
        <time>2026-08-30T09:08:59Z</time>
      </trkpt>
      <trkpt lat="44.74796" lon="6.99332">
        <ele>1746.1</ele>
        <time>2026-08-30T09:09:05Z</time>
      </trkpt>
      <trkpt lat="44.74791" lon="6.99332">
        <ele>1746.3</ele>
        <time>2026-08-30T09:09:10Z</time>
      </trkpt>
      <trkpt lat="44.74785" lon="6.99331">
        <ele>1746.8</ele>
        <time>2026-08-30T09:09:15Z</time>
      </trkpt>
      <trkpt lat="44.74776" lon="6.99331">
        <ele>1747.2</ele>
        <time>2026-08-30T09:09:21Z</time>
      </trkpt>
      <trkpt lat="44.74771" lon="6.99333">
        <ele>1747</ele>
        <time>2026-08-30T09:09:26Z</time>
      </trkpt>
      <trkpt lat="44.74764" lon="6.99332">
        <ele>1747.5</ele>
        <time>2026-08-30T09:09:31Z</time>
      </trkpt>
      <trkpt lat="44.74757" lon="6.99333">
        <ele>1747.7</ele>
        <time>2026-08-30T09:09:37Z</time>
      </trkpt>
      <trkpt lat="44.74752" lon="6.99339">
        <ele>1747.4</ele>
        <time>2026-08-30T09:09:42Z</time>
      </trkpt>
      <trkpt lat="44.74746" lon="6.99347">
        <ele>1747.6</ele>
        <time>2026-08-30T09:09:47Z</time>
      </trkpt>
      <trkpt lat="44.74741" lon="6.9935">
        <ele>1748.2</ele>
        <time>2026-08-30T09:09:53Z</time>
      </trkpt>
      <trkpt lat="44.74735" lon="6.99355">
        <ele>1748.9</ele>
        <time>2026-08-30T09:09:58Z</time>
      </trkpt>
      <trkpt lat="44.74731" lon="6.99357">
        <ele>1749.4</ele>
        <time>2026-08-30T09:10:03Z</time>
      </trkpt>
      <trkpt lat="44.74723" lon="6.99363">
        <ele>1750.2</ele>
        <time>2026-08-30T09:10:09Z</time>
      </trkpt>
      <trkpt lat="44.74717" lon="6.99367">
        <ele>1750.9</ele>
        <time>2026-08-30T09:10:14Z</time>
      </trkpt>
      <trkpt lat="44.74713" lon="6.99373">
        <ele>1750.9</ele>
        <time>2026-08-30T09:10:19Z</time>
      </trkpt>
      <trkpt lat="44.74706" lon="6.99382">
        <ele>1751.1</ele>
        <time>2026-08-30T09:10:25Z</time>
      </trkpt>
      <trkpt lat="44.74702" lon="6.99388">
        <ele>1751.1</ele>
        <time>2026-08-30T09:10:30Z</time>
      </trkpt>
      <trkpt lat="44.74698" lon="6.99394">
        <ele>1751.1</ele>
        <time>2026-08-30T09:10:35Z</time>
      </trkpt>
      <trkpt lat="44.74692" lon="6.994">
        <ele>1751.3</ele>
        <time>2026-08-30T09:10:41Z</time>
      </trkpt>
      <trkpt lat="44.74688" lon="6.99406">
        <ele>1751.2</ele>
        <time>2026-08-30T09:10:46Z</time>
      </trkpt>
      <trkpt lat="44.74683" lon="6.99412">
        <ele>1751.2</ele>
        <time>2026-08-30T09:10:51Z</time>
      </trkpt>
      <trkpt lat="44.74677" lon="6.99415">
        <ele>1751.7</ele>
        <time>2026-08-30T09:10:57Z</time>
      </trkpt>
      <trkpt lat="44.74671" lon="6.9942">
        <ele>1752.4</ele>
        <time>2026-08-30T09:11:02Z</time>
      </trkpt>
      <trkpt lat="44.74665" lon="6.99422">
        <ele>1753.1</ele>
        <time>2026-08-30T09:11:07Z</time>
      </trkpt>
      <trkpt lat="44.74659" lon="6.99425">
        <ele>1753.5</ele>
        <time>2026-08-30T09:11:13Z</time>
      </trkpt>
      <trkpt lat="44.74654" lon="6.99427">
        <ele>1753.8</ele>
        <time>2026-08-30T09:11:18Z</time>
      </trkpt>
      <trkpt lat="44.74648" lon="6.99426">
        <ele>1754.1</ele>
        <time>2026-08-30T09:11:23Z</time>
      </trkpt>
      <trkpt lat="44.74642" lon="6.99424">
        <ele>1754.4</ele>
        <time>2026-08-30T09:11:29Z</time>
      </trkpt>
      <trkpt lat="44.74637" lon="6.99422">
        <ele>1754.6</ele>
        <time>2026-08-30T09:11:34Z</time>
      </trkpt>
      <trkpt lat="44.74632" lon="6.99419">
        <ele>1754.8</ele>
        <time>2026-08-30T09:11:39Z</time>
      </trkpt>
      <trkpt lat="44.74626" lon="6.99418">
        <ele>1755</ele>
        <time>2026-08-30T09:11:45Z</time>
      </trkpt>
      <trkpt lat="44.74622" lon="6.99417">
        <ele>1755.2</ele>
        <time>2026-08-30T09:11:50Z</time>
      </trkpt>
      <trkpt lat="44.74617" lon="6.99417">
        <ele>1755.4</ele>
        <time>2026-08-30T09:11:55Z</time>
      </trkpt>
      <trkpt lat="44.74613" lon="6.99418">
        <ele>1755.7</ele>
        <time>2026-08-30T09:12:01Z</time>
      </trkpt>
      <trkpt lat="44.74608" lon="6.99418">
        <ele>1755.9</ele>
        <time>2026-08-30T09:12:06Z</time>
      </trkpt>
      <trkpt lat="44.74604" lon="6.99422">
        <ele>1756.4</ele>
        <time>2026-08-30T09:12:11Z</time>
      </trkpt>
      <trkpt lat="44.74598" lon="6.99425">
        <ele>1757</ele>
        <time>2026-08-30T09:12:17Z</time>
      </trkpt>
      <trkpt lat="44.74592" lon="6.99428">
        <ele>1757.7</ele>
        <time>2026-08-30T09:12:22Z</time>
      </trkpt>
      <trkpt lat="44.74586" lon="6.99429">
        <ele>1758.2</ele>
        <time>2026-08-30T09:12:27Z</time>
      </trkpt>
      <trkpt lat="44.74579" lon="6.99429">
        <ele>1758.5</ele>
        <time>2026-08-30T09:12:33Z</time>
      </trkpt>
      <trkpt lat="44.74578" lon="6.99427">
        <ele>1758.3</ele>
        <time>2026-08-30T09:12:38Z</time>
      </trkpt>
      <trkpt lat="44.74572" lon="6.99428">
        <ele>1758.5</ele>
        <time>2026-08-30T09:12:43Z</time>
      </trkpt>
      <trkpt lat="44.74566" lon="6.99428">
        <ele>1758.7</ele>
        <time>2026-08-30T09:12:49Z</time>
      </trkpt>
      <trkpt lat="44.74561" lon="6.99427">
        <ele>1758.7</ele>
        <time>2026-08-30T09:12:54Z</time>
      </trkpt>
      <trkpt lat="44.74556" lon="6.99427">
        <ele>1758.8</ele>
        <time>2026-08-30T09:12:59Z</time>
      </trkpt>
      <trkpt lat="44.74551" lon="6.99426">
        <ele>1758.7</ele>
        <time>2026-08-30T09:13:05Z</time>
      </trkpt>
      <trkpt lat="44.74547" lon="6.99425">
        <ele>1758.6</ele>
        <time>2026-08-30T09:13:10Z</time>
      </trkpt>
      <trkpt lat="44.74544" lon="6.99424">
        <ele>1758.5</ele>
        <time>2026-08-30T09:13:15Z</time>
      </trkpt>
      <trkpt lat="44.74544" lon="6.99424">
        <ele>1758.5</ele>
        <time>2026-08-30T09:13:21Z</time>
      </trkpt>
      <trkpt lat="44.74544" lon="6.99424">
        <ele>1758.5</ele>
        <time>2026-08-30T09:13:26Z</time>
      </trkpt>
      <trkpt lat="44.74544" lon="6.99424">
        <ele>1758.5</ele>
        <time>2026-08-30T09:13:31Z</time>
      </trkpt>
      <trkpt lat="44.74544" lon="6.99424">
        <ele>1758.5</ele>
        <time>2026-08-30T09:13:37Z</time>
      </trkpt>
      <trkpt lat="44.74544" lon="6.99424">
        <ele>1758.5</ele>
        <time>2026-08-30T09:13:42Z</time>
      </trkpt>
      <trkpt lat="44.74544" lon="6.99424">
        <ele>1758.5</ele>
        <time>2026-08-30T09:13:47Z</time>
      </trkpt>
      <trkpt lat="44.74544" lon="6.99424">
        <ele>1758.5</ele>
        <time>2026-08-30T09:13:53Z</time>
      </trkpt>
      <trkpt lat="44.74544" lon="6.99424">
        <ele>1758.5</ele>
        <time>2026-08-30T09:13:58Z</time>
      </trkpt>
      <trkpt lat="44.74544" lon="6.99424">
        <ele>1758.5</ele>
        <time>2026-08-30T09:14:03Z</time>
      </trkpt>
      <trkpt lat="44.74544" lon="6.99424">
        <ele>1758.5</ele>
        <time>2026-08-30T09:14:09Z</time>
      </trkpt>
      <trkpt lat="44.74544" lon="6.99424">
        <ele>1758.5</ele>
        <time>2026-08-30T09:14:14Z</time>
      </trkpt>
      <trkpt lat="44.74533" lon="6.99421">
        <ele>1758</ele>
        <time>2026-08-30T09:14:19Z</time>
      </trkpt>
      <trkpt lat="44.74533" lon="6.99421">
        <ele>1758</ele>
        <time>2026-08-30T09:14:25Z</time>
      </trkpt>
      <trkpt lat="44.74533" lon="6.99421">
        <ele>1758</ele>
        <time>2026-08-30T09:14:30Z</time>
      </trkpt>
      <trkpt lat="44.74533" lon="6.99421">
        <ele>1758</ele>
        <time>2026-08-30T09:14:35Z</time>
      </trkpt>
      <trkpt lat="44.74526" lon="6.99421">
        <ele>1758.1</ele>
        <time>2026-08-30T09:14:41Z</time>
      </trkpt>
      <trkpt lat="44.7452" lon="6.99418">
        <ele>1757.4</ele>
        <time>2026-08-30T09:14:46Z</time>
      </trkpt>
      <trkpt lat="44.74514" lon="6.99419">
        <ele>1757.6</ele>
        <time>2026-08-30T09:14:51Z</time>
      </trkpt>
      <trkpt lat="44.74507" lon="6.99413">
        <ele>1757.2</ele>
        <time>2026-08-30T09:14:57Z</time>
      </trkpt>
      <trkpt lat="44.74501" lon="6.99413">
        <ele>1757.2</ele>
        <time>2026-08-30T09:15:02Z</time>
      </trkpt>
      <trkpt lat="44.74496" lon="6.99413">
        <ele>1757.3</ele>
        <time>2026-08-30T09:15:07Z</time>
      </trkpt>
      <trkpt lat="44.74489" lon="6.99412">
        <ele>1757.6</ele>
        <time>2026-08-30T09:15:13Z</time>
      </trkpt>
      <trkpt lat="44.74483" lon="6.99409">
        <ele>1757.9</ele>
        <time>2026-08-30T09:15:18Z</time>
      </trkpt>
      <trkpt lat="44.74481" lon="6.9941">
        <ele>1757.9</ele>
        <time>2026-08-30T09:15:23Z</time>
      </trkpt>
      <trkpt lat="44.74476" lon="6.99409">
        <ele>1758.1</ele>
        <time>2026-08-30T09:15:29Z</time>
      </trkpt>
      <trkpt lat="44.74473" lon="6.99407">
        <ele>1758.3</ele>
        <time>2026-08-30T09:15:34Z</time>
      </trkpt>
      <trkpt lat="44.74469" lon="6.99405">
        <ele>1758.5</ele>
        <time>2026-08-30T09:15:39Z</time>
      </trkpt>
      <trkpt lat="44.74463" lon="6.99403">
        <ele>1758.8</ele>
        <time>2026-08-30T09:15:45Z</time>
      </trkpt>
      <trkpt lat="44.74459" lon="6.99399">
        <ele>1759.1</ele>
        <time>2026-08-30T09:15:50Z</time>
      </trkpt>
      <trkpt lat="44.74458" lon="6.99398">
        <ele>1759.2</ele>
        <time>2026-08-30T09:15:55Z</time>
      </trkpt>
      <trkpt lat="44.74455" lon="6.99395">
        <ele>1759.5</ele>
        <time>2026-08-30T09:16:01Z</time>
      </trkpt>
      <trkpt lat="44.74451" lon="6.99392">
        <ele>1759.8</ele>
        <time>2026-08-30T09:16:06Z</time>
      </trkpt>
      <trkpt lat="44.74446" lon="6.99387">
        <ele>1760.3</ele>
        <time>2026-08-30T09:16:11Z</time>
      </trkpt>
      <trkpt lat="44.74438" lon="6.99384">
        <ele>1760.7</ele>
        <time>2026-08-30T09:16:17Z</time>
      </trkpt>
      <trkpt lat="44.74432" lon="6.9938">
        <ele>1761.2</ele>
        <time>2026-08-30T09:16:22Z</time>
      </trkpt>
      <trkpt lat="44.74426" lon="6.99376">
        <ele>1761.6</ele>
        <time>2026-08-30T09:16:27Z</time>
      </trkpt>
      <trkpt lat="44.7442" lon="6.99373">
        <ele>1762</ele>
        <time>2026-08-30T09:16:33Z</time>
      </trkpt>
      <trkpt lat="44.74415" lon="6.99371">
        <ele>1762.4</ele>
        <time>2026-08-30T09:16:38Z</time>
      </trkpt>
      <trkpt lat="44.74414" lon="6.99373">
        <ele>1762.3</ele>
        <time>2026-08-30T09:16:43Z</time>
      </trkpt>
      <trkpt lat="44.74411" lon="6.99372">
        <ele>1762.5</ele>
        <time>2026-08-30T09:16:49Z</time>
      </trkpt>
      <trkpt lat="44.7441" lon="6.99373">
        <ele>1762.5</ele>
        <time>2026-08-30T09:16:54Z</time>
      </trkpt>
      <trkpt lat="44.7441" lon="6.99373">
        <ele>1762.5</ele>
        <time>2026-08-30T09:16:59Z</time>
      </trkpt>
      <trkpt lat="44.7441" lon="6.99373">
        <ele>1762.5</ele>
        <time>2026-08-30T09:17:05Z</time>
      </trkpt>
      <trkpt lat="44.74405" lon="6.99375">
        <ele>1762.6</ele>
        <time>2026-08-30T09:17:10Z</time>
      </trkpt>
      <trkpt lat="44.74402" lon="6.99374">
        <ele>1762.9</ele>
        <time>2026-08-30T09:17:15Z</time>
      </trkpt>
      <trkpt lat="44.74399" lon="6.99371">
        <ele>1763.2</ele>
        <time>2026-08-30T09:17:21Z</time>
      </trkpt>
      <trkpt lat="44.744" lon="6.99368">
        <ele>1763.3</ele>
        <time>2026-08-30T09:17:26Z</time>
      </trkpt>
      <trkpt lat="44.74399" lon="6.99368">
        <ele>1763.4</ele>
        <time>2026-08-30T09:17:31Z</time>
      </trkpt>
      <trkpt lat="44.74399" lon="6.99368">
        <ele>1763.4</ele>
        <time>2026-08-30T09:17:37Z</time>
      </trkpt>
      <trkpt lat="44.74399" lon="6.99368">
        <ele>1763.4</ele>
        <time>2026-08-30T09:17:42Z</time>
      </trkpt>
      <trkpt lat="44.74399" lon="6.99368">
        <ele>1763.4</ele>
        <time>2026-08-30T09:17:47Z</time>
      </trkpt>
      <trkpt lat="44.74403" lon="6.99381">
        <ele>1762.4</ele>
        <time>2026-08-30T09:17:53Z</time>
      </trkpt>
      <trkpt lat="44.74401" lon="6.99387">
        <ele>1762.1</ele>
        <time>2026-08-30T09:17:58Z</time>
      </trkpt>
      <trkpt lat="44.744" lon="6.99383">
        <ele>1762.4</ele>
        <time>2026-08-30T09:18:03Z</time>
      </trkpt>
      <trkpt lat="44.74401" lon="6.99372">
        <ele>1763</ele>
        <time>2026-08-30T09:18:09Z</time>
      </trkpt>
      <trkpt lat="44.74402" lon="6.99368">
        <ele>1763.2</ele>
        <time>2026-08-30T09:18:14Z</time>
      </trkpt>
      <trkpt lat="44.74405" lon="6.99364">
        <ele>1763.3</ele>
        <time>2026-08-30T09:18:19Z</time>
      </trkpt>
      <trkpt lat="44.74406" lon="6.99358">
        <ele>1763.7</ele>
        <time>2026-08-30T09:18:25Z</time>
      </trkpt>
      <trkpt lat="44.74405" lon="6.99353">
        <ele>1764</ele>
        <time>2026-08-30T09:18:30Z</time>
      </trkpt>
      <trkpt lat="44.74403" lon="6.99349">
        <ele>1764.4</ele>
        <time>2026-08-30T09:18:35Z</time>
      </trkpt>
      <trkpt lat="44.74402" lon="6.99342">
        <ele>1764.8</ele>
        <time>2026-08-30T09:18:41Z</time>
      </trkpt>
      <trkpt lat="44.74401" lon="6.99341">
        <ele>1764.9</ele>
        <time>2026-08-30T09:18:46Z</time>
      </trkpt>
      <trkpt lat="44.744" lon="6.9934">
        <ele>1765</ele>
        <time>2026-08-30T09:18:51Z</time>
      </trkpt>
      <trkpt lat="44.744" lon="6.99336">
        <ele>1765.2</ele>
        <time>2026-08-30T09:18:57Z</time>
      </trkpt>
      <trkpt lat="44.74399" lon="6.99334">
        <ele>1765.4</ele>
        <time>2026-08-30T09:19:02Z</time>
      </trkpt>
      <trkpt lat="44.74402" lon="6.9934">
        <ele>1764.9</ele>
        <time>2026-08-30T09:19:07Z</time>
      </trkpt>
      <trkpt lat="44.74403" lon="6.99349">
        <ele>1764.4</ele>
        <time>2026-08-30T09:19:13Z</time>
      </trkpt>
      <trkpt lat="44.74402" lon="6.99358">
        <ele>1763.8</ele>
        <time>2026-08-30T09:19:18Z</time>
      </trkpt>
      <trkpt lat="44.74404" lon="6.99364">
        <ele>1763.4</ele>
        <time>2026-08-30T09:19:23Z</time>
      </trkpt>
      <trkpt lat="44.74404" lon="6.99369">
        <ele>1763.1</ele>
        <time>2026-08-30T09:19:29Z</time>
      </trkpt>
      <trkpt lat="44.74404" lon="6.99372">
        <ele>1762.9</ele>
        <time>2026-08-30T09:19:34Z</time>
      </trkpt>
      <trkpt lat="44.74403" lon="6.99373">
        <ele>1762.9</ele>
        <time>2026-08-30T09:19:39Z</time>
      </trkpt>
      <trkpt lat="44.74402" lon="6.99372">
        <ele>1763</ele>
        <time>2026-08-30T09:19:45Z</time>
      </trkpt>
      <trkpt lat="44.74402" lon="6.99372">
        <ele>1763</ele>
        <time>2026-08-30T09:19:50Z</time>
      </trkpt>
      <trkpt lat="44.74402" lon="6.99372">
        <ele>1763</ele>
        <time>2026-08-30T09:19:55Z</time>
      </trkpt>
      <trkpt lat="44.74399" lon="6.99371">
        <ele>1763.2</ele>
        <time>2026-08-30T09:20:01Z</time>
      </trkpt>
      <trkpt lat="44.74399" lon="6.99372">
        <ele>1763.1</ele>
        <time>2026-08-30T09:20:06Z</time>
      </trkpt>
      <trkpt lat="44.74399" lon="6.99372">
        <ele>1763.1</ele>
        <time>2026-08-30T09:20:11Z</time>
      </trkpt>
      <trkpt lat="44.74399" lon="6.99372">
        <ele>1763.1</ele>
        <time>2026-08-30T09:20:17Z</time>
      </trkpt>
      <trkpt lat="44.74399" lon="6.99372">
        <ele>1763.1</ele>
        <time>2026-08-30T09:20:22Z</time>
      </trkpt>
      <trkpt lat="44.74399" lon="6.99372">
        <ele>1763.1</ele>
        <time>2026-08-30T09:20:27Z</time>
      </trkpt>
      <trkpt lat="44.74399" lon="6.99372">
        <ele>1763.1</ele>
        <time>2026-08-30T09:20:33Z</time>
      </trkpt>
      <trkpt lat="44.74399" lon="6.99372">
        <ele>1763.1</ele>
        <time>2026-08-30T09:20:38Z</time>
      </trkpt>
      <trkpt lat="44.74399" lon="6.99372">
        <ele>1763.1</ele>
        <time>2026-08-30T09:20:43Z</time>
      </trkpt>
      <trkpt lat="44.74395" lon="6.99377">
        <ele>1763.1</ele>
        <time>2026-08-30T09:20:49Z</time>
      </trkpt>
      <trkpt lat="44.7439" lon="6.99377">
        <ele>1763.3</ele>
        <time>2026-08-30T09:20:54Z</time>
      </trkpt>
      <trkpt lat="44.74385" lon="6.99376">
        <ele>1763.7</ele>
        <time>2026-08-30T09:20:59Z</time>
      </trkpt>
      <trkpt lat="44.74377" lon="6.99375">
        <ele>1764.1</ele>
        <time>2026-08-30T09:21:05Z</time>
      </trkpt>
      <trkpt lat="44.74372" lon="6.99372">
        <ele>1764.5</ele>
        <time>2026-08-30T09:21:10Z</time>
      </trkpt>
      <trkpt lat="44.74367" lon="6.99372">
        <ele>1764.8</ele>
        <time>2026-08-30T09:21:15Z</time>
      </trkpt>
      <trkpt lat="44.74359" lon="6.99369">
        <ele>1765.3</ele>
        <time>2026-08-30T09:21:21Z</time>
      </trkpt>
      <trkpt lat="44.74355" lon="6.9937">
        <ele>1765.5</ele>
        <time>2026-08-30T09:21:26Z</time>
      </trkpt>
      <trkpt lat="44.7435" lon="6.9937">
        <ele>1765.7</ele>
        <time>2026-08-30T09:21:31Z</time>
      </trkpt>
      <trkpt lat="44.74344" lon="6.99367">
        <ele>1766.1</ele>
        <time>2026-08-30T09:21:37Z</time>
      </trkpt>
      <trkpt lat="44.74343" lon="6.99361">
        <ele>1766.2</ele>
        <time>2026-08-30T09:21:42Z</time>
      </trkpt>
      <trkpt lat="44.74344" lon="6.99359">
        <ele>1766.2</ele>
        <time>2026-08-30T09:21:47Z</time>
      </trkpt>
      <trkpt lat="44.74344" lon="6.99359">
        <ele>1766.2</ele>
        <time>2026-08-30T09:21:53Z</time>
      </trkpt>
      <trkpt lat="44.74344" lon="6.99359">
        <ele>1766.2</ele>
        <time>2026-08-30T09:21:58Z</time>
      </trkpt>
      <trkpt lat="44.74344" lon="6.99359">
        <ele>1766.2</ele>
        <time>2026-08-30T09:22:03Z</time>
      </trkpt>
      <trkpt lat="44.74344" lon="6.99359">
        <ele>1766.2</ele>
        <time>2026-08-30T09:22:09Z</time>
      </trkpt>
      <trkpt lat="44.74344" lon="6.99359">
        <ele>1766.2</ele>
        <time>2026-08-30T09:22:14Z</time>
      </trkpt>
      <trkpt lat="44.74344" lon="6.99359">
        <ele>1766.2</ele>
        <time>2026-08-30T09:22:19Z</time>
      </trkpt>
      <trkpt lat="44.74344" lon="6.99359">
        <ele>1766.2</ele>
        <time>2026-08-30T09:22:25Z</time>
      </trkpt>
      <trkpt lat="44.74344" lon="6.99359">
        <ele>1766.2</ele>
        <time>2026-08-30T09:22:30Z</time>
      </trkpt>
      <trkpt lat="44.74344" lon="6.99359">
        <ele>1766.2</ele>
        <time>2026-08-30T09:22:35Z</time>
      </trkpt>
      <trkpt lat="44.74344" lon="6.99359">
        <ele>1766.2</ele>
        <time>2026-08-30T09:22:41Z</time>
      </trkpt>
      <trkpt lat="44.74344" lon="6.99359">
        <ele>1766.2</ele>
        <time>2026-08-30T09:22:46Z</time>
      </trkpt>
      <trkpt lat="44.74344" lon="6.99359">
        <ele>1766.2</ele>
        <time>2026-08-30T09:22:51Z</time>
      </trkpt>
      <trkpt lat="44.74344" lon="6.99359">
        <ele>1766.2</ele>
        <time>2026-08-30T09:22:57Z</time>
      </trkpt>
      <trkpt lat="44.74344" lon="6.99359">
        <ele>1766.2</ele>
        <time>2026-08-30T09:23:02Z</time>
      </trkpt>
      <trkpt lat="44.74344" lon="6.99359">
        <ele>1766.2</ele>
        <time>2026-08-30T09:23:07Z</time>
      </trkpt>
      <trkpt lat="44.74344" lon="6.99359">
        <ele>1766.2</ele>
        <time>2026-08-30T09:23:13Z</time>
      </trkpt>
      <trkpt lat="44.74344" lon="6.99359">
        <ele>1766.2</ele>
        <time>2026-08-30T09:23:18Z</time>
      </trkpt>
      <trkpt lat="44.74344" lon="6.99359">
        <ele>1766.2</ele>
        <time>2026-08-30T09:23:23Z</time>
      </trkpt>
      <trkpt lat="44.74344" lon="6.99359">
        <ele>1766.2</ele>
        <time>2026-08-30T09:23:29Z</time>
      </trkpt>
      <trkpt lat="44.74344" lon="6.99359">
        <ele>1766.2</ele>
        <time>2026-08-30T09:23:34Z</time>
      </trkpt>
      <trkpt lat="44.74344" lon="6.99359">
        <ele>1766.2</ele>
        <time>2026-08-30T09:23:39Z</time>
      </trkpt>
      <trkpt lat="44.74344" lon="6.99359">
        <ele>1766.2</ele>
        <time>2026-08-30T09:23:45Z</time>
      </trkpt>
      <trkpt lat="44.74344" lon="6.99359">
        <ele>1766.2</ele>
        <time>2026-08-30T09:23:50Z</time>
      </trkpt>
      <trkpt lat="44.74344" lon="6.99359">
        <ele>1766.2</ele>
        <time>2026-08-30T09:23:55Z</time>
      </trkpt>
      <trkpt lat="44.74344" lon="6.99359">
        <ele>1766.2</ele>
        <time>2026-08-30T09:24:01Z</time>
      </trkpt>
      <trkpt lat="44.74344" lon="6.99359">
        <ele>1766.2</ele>
        <time>2026-08-30T09:24:06Z</time>
      </trkpt>
      <trkpt lat="44.74344" lon="6.99359">
        <ele>1766.2</ele>
        <time>2026-08-30T09:24:11Z</time>
      </trkpt>
      <trkpt lat="44.74344" lon="6.99359">
        <ele>1766.2</ele>
        <time>2026-08-30T09:24:17Z</time>
      </trkpt>
      <trkpt lat="44.74349" lon="6.99353">
        <ele>1766.2</ele>
        <time>2026-08-30T09:24:22Z</time>
      </trkpt>
      <trkpt lat="44.74345" lon="6.99375">
        <ele>1765.9</ele>
        <time>2026-08-30T09:24:27Z</time>
      </trkpt>
      <trkpt lat="44.74345" lon="6.99375">
        <ele>1765.9</ele>
        <time>2026-08-30T09:24:33Z</time>
      </trkpt>
      <trkpt lat="44.74345" lon="6.99375">
        <ele>1765.9</ele>
        <time>2026-08-30T09:24:38Z</time>
      </trkpt>
      <trkpt lat="44.74342" lon="6.99364">
        <ele>1766.2</ele>
        <time>2026-08-30T09:24:43Z</time>
      </trkpt>
      <trkpt lat="44.74342" lon="6.99364">
        <ele>1766.2</ele>
        <time>2026-08-30T09:24:49Z</time>
      </trkpt>
      <trkpt lat="44.74342" lon="6.99364">
        <ele>1766.2</ele>
        <time>2026-08-30T09:24:54Z</time>
      </trkpt>
      <trkpt lat="44.74342" lon="6.99364">
        <ele>1766.2</ele>
        <time>2026-08-30T09:24:59Z</time>
      </trkpt>
      <trkpt lat="44.74342" lon="6.99364">
        <ele>1766.2</ele>
        <time>2026-08-30T09:25:05Z</time>
      </trkpt>
      <trkpt lat="44.74342" lon="6.99355">
        <ele>1766.4</ele>
        <time>2026-08-30T09:25:10Z</time>
      </trkpt>
      <trkpt lat="44.74336" lon="6.99354">
        <ele>1766.6</ele>
        <time>2026-08-30T09:25:15Z</time>
      </trkpt>
      <trkpt lat="44.74329" lon="6.9935">
        <ele>1767</ele>
        <time>2026-08-30T09:25:21Z</time>
      </trkpt>
      <trkpt lat="44.74327" lon="6.99346">
        <ele>1767.1</ele>
        <time>2026-08-30T09:25:26Z</time>
      </trkpt>
      <trkpt lat="44.74324" lon="6.99341">
        <ele>1767.3</ele>
        <time>2026-08-30T09:25:31Z</time>
      </trkpt>
      <trkpt lat="44.74319" lon="6.99335">
        <ele>1767.5</ele>
        <time>2026-08-30T09:25:37Z</time>
      </trkpt>
      <trkpt lat="44.74315" lon="6.99327">
        <ele>1769.8</ele>
        <time>2026-08-30T09:25:42Z</time>
      </trkpt>
      <trkpt lat="44.7431" lon="6.99321">
        <ele>1772</ele>
        <time>2026-08-30T09:25:47Z</time>
      </trkpt>
      <trkpt lat="44.74302" lon="6.99319">
        <ele>1773.1</ele>
        <time>2026-08-30T09:25:53Z</time>
      </trkpt>
      <trkpt lat="44.74293" lon="6.99319">
        <ele>1773.5</ele>
        <time>2026-08-30T09:25:58Z</time>
      </trkpt>
      <trkpt lat="44.74286" lon="6.9932">
        <ele>1773.5</ele>
        <time>2026-08-30T09:26:03Z</time>
      </trkpt>
      <trkpt lat="44.74277" lon="6.9932">
        <ele>1773.9</ele>
        <time>2026-08-30T09:26:09Z</time>
      </trkpt>
      <trkpt lat="44.74272" lon="6.99318">
        <ele>1774.9</ele>
        <time>2026-08-30T09:26:14Z</time>
      </trkpt>
      <trkpt lat="44.74265" lon="6.99315">
        <ele>1776.3</ele>
        <time>2026-08-30T09:26:19Z</time>
      </trkpt>
      <trkpt lat="44.74257" lon="6.99314">
        <ele>1777.1</ele>
        <time>2026-08-30T09:26:25Z</time>
      </trkpt>
      <trkpt lat="44.7425" lon="6.99314">
        <ele>1777.4</ele>
        <time>2026-08-30T09:26:30Z</time>
      </trkpt>
      <trkpt lat="44.74244" lon="6.99313">
        <ele>1778.3</ele>
        <time>2026-08-30T09:26:35Z</time>
      </trkpt>
      <trkpt lat="44.74236" lon="6.99312">
        <ele>1779.4</ele>
        <time>2026-08-30T09:26:41Z</time>
      </trkpt>
      <trkpt lat="44.7423" lon="6.99311">
        <ele>1780.3</ele>
        <time>2026-08-30T09:26:46Z</time>
      </trkpt>
      <trkpt lat="44.74224" lon="6.99311">
        <ele>1780.8</ele>
        <time>2026-08-30T09:26:51Z</time>
      </trkpt>
      <trkpt lat="44.74218" lon="6.99313">
        <ele>1780.5</ele>
        <time>2026-08-30T09:26:57Z</time>
      </trkpt>
      <trkpt lat="44.7421" lon="6.99315">
        <ele>1780.3</ele>
        <time>2026-08-30T09:27:02Z</time>
      </trkpt>
      <trkpt lat="44.74203" lon="6.99313">
        <ele>1781.7</ele>
        <time>2026-08-30T09:27:07Z</time>
      </trkpt>
      <trkpt lat="44.74196" lon="6.9931">
        <ele>1783.6</ele>
        <time>2026-08-30T09:27:13Z</time>
      </trkpt>
      <trkpt lat="44.7419" lon="6.99308">
        <ele>1784.9</ele>
        <time>2026-08-30T09:27:18Z</time>
      </trkpt>
      <trkpt lat="44.74184" lon="6.99307">
        <ele>1785.9</ele>
        <time>2026-08-30T09:27:23Z</time>
      </trkpt>
      <trkpt lat="44.74177" lon="6.99305">
        <ele>1787.3</ele>
        <time>2026-08-30T09:27:29Z</time>
      </trkpt>
      <trkpt lat="44.74171" lon="6.99305">
        <ele>1787.9</ele>
        <time>2026-08-30T09:27:34Z</time>
      </trkpt>
      <trkpt lat="44.74164" lon="6.99305">
        <ele>1788.5</ele>
        <time>2026-08-30T09:27:39Z</time>
      </trkpt>
      <trkpt lat="44.74156" lon="6.99305">
        <ele>1789.4</ele>
        <time>2026-08-30T09:27:45Z</time>
      </trkpt>
      <trkpt lat="44.74151" lon="6.99303">
        <ele>1790.8</ele>
        <time>2026-08-30T09:27:50Z</time>
      </trkpt>
      <trkpt lat="44.74145" lon="6.99301">
        <ele>1792.4</ele>
        <time>2026-08-30T09:27:55Z</time>
      </trkpt>
      <trkpt lat="44.74137" lon="6.99302">
        <ele>1792.8</ele>
        <time>2026-08-30T09:28:01Z</time>
      </trkpt>
      <trkpt lat="44.7413" lon="6.99301">
        <ele>1794</ele>
        <time>2026-08-30T09:28:06Z</time>
      </trkpt>
      <trkpt lat="44.74124" lon="6.99302">
        <ele>1794.3</ele>
        <time>2026-08-30T09:28:11Z</time>
      </trkpt>
      <trkpt lat="44.74116" lon="6.99303">
        <ele>1794.7</ele>
        <time>2026-08-30T09:28:17Z</time>
      </trkpt>
      <trkpt lat="44.74111" lon="6.99305">
        <ele>1794.5</ele>
        <time>2026-08-30T09:28:22Z</time>
      </trkpt>
      <trkpt lat="44.74111" lon="6.9931">
        <ele>1792.4</ele>
        <time>2026-08-30T09:28:27Z</time>
      </trkpt>
      <trkpt lat="44.74111" lon="6.99315">
        <ele>1790.3</ele>
        <time>2026-08-30T09:28:33Z</time>
      </trkpt>
      <trkpt lat="44.74111" lon="6.99315">
        <ele>1790.3</ele>
        <time>2026-08-30T09:28:38Z</time>
      </trkpt>
      <trkpt lat="44.74111" lon="6.99315">
        <ele>1790.3</ele>
        <time>2026-08-30T09:28:43Z</time>
      </trkpt>
      <trkpt lat="44.74102" lon="6.99317">
        <ele>1790.5</ele>
        <time>2026-08-30T09:28:49Z</time>
      </trkpt>
      <trkpt lat="44.74098" lon="6.99315">
        <ele>1791.8</ele>
        <time>2026-08-30T09:28:54Z</time>
      </trkpt>
      <trkpt lat="44.74091" lon="6.99313">
        <ele>1793.4</ele>
        <time>2026-08-30T09:28:59Z</time>
      </trkpt>
      <trkpt lat="44.74086" lon="6.99311">
        <ele>1794.8</ele>
        <time>2026-08-30T09:29:05Z</time>
      </trkpt>
      <trkpt lat="44.74082" lon="6.99313">
        <ele>1794.6</ele>
        <time>2026-08-30T09:29:10Z</time>
      </trkpt>
      <trkpt lat="44.74076" lon="6.99312">
        <ele>1796.5</ele>
        <time>2026-08-30T09:29:15Z</time>
      </trkpt>
      <trkpt lat="44.74069" lon="6.99315">
        <ele>1796.9</ele>
        <time>2026-08-30T09:29:21Z</time>
      </trkpt>
      <trkpt lat="44.74062" lon="6.99318">
        <ele>1797.4</ele>
        <time>2026-08-30T09:29:26Z</time>
      </trkpt>
      <trkpt lat="44.74057" lon="6.99321">
        <ele>1797.4</ele>
        <time>2026-08-30T09:29:31Z</time>
      </trkpt>
      <trkpt lat="44.7405" lon="6.99326">
        <ele>1797</ele>
        <time>2026-08-30T09:29:37Z</time>
      </trkpt>
      <trkpt lat="44.74047" lon="6.99331">
        <ele>1795.7</ele>
        <time>2026-08-30T09:29:42Z</time>
      </trkpt>
      <trkpt lat="44.74046" lon="6.99335">
        <ele>1794.6</ele>
        <time>2026-08-30T09:29:47Z</time>
      </trkpt>
      <trkpt lat="44.74044" lon="6.99335">
        <ele>1795.1</ele>
        <time>2026-08-30T09:29:53Z</time>
      </trkpt>
      <trkpt lat="44.74039" lon="6.99333">
        <ele>1796.8</ele>
        <time>2026-08-30T09:29:58Z</time>
      </trkpt>
      <trkpt lat="44.74034" lon="6.99333">
        <ele>1798</ele>
        <time>2026-08-30T09:30:03Z</time>
      </trkpt>
      <trkpt lat="44.74028" lon="6.99332">
        <ele>1799.8</ele>
        <time>2026-08-30T09:30:09Z</time>
      </trkpt>
      <trkpt lat="44.74022" lon="6.99335">
        <ele>1800.4</ele>
        <time>2026-08-30T09:30:14Z</time>
      </trkpt>
      <trkpt lat="44.74016" lon="6.99339">
        <ele>1800.9</ele>
        <time>2026-08-30T09:30:19Z</time>
      </trkpt>
      <trkpt lat="44.74011" lon="6.99343">
        <ele>1801.2</ele>
        <time>2026-08-30T09:30:25Z</time>
      </trkpt>
      <trkpt lat="44.74007" lon="6.99345">
        <ele>1801.7</ele>
        <time>2026-08-30T09:30:30Z</time>
      </trkpt>
      <trkpt lat="44.74001" lon="6.9935">
        <ele>1802</ele>
        <time>2026-08-30T09:30:35Z</time>
      </trkpt>
      <trkpt lat="44.73994" lon="6.99355">
        <ele>1803.3</ele>
        <time>2026-08-30T09:30:41Z</time>
      </trkpt>
      <trkpt lat="44.73988" lon="6.9936">
        <ele>1804.4</ele>
        <time>2026-08-30T09:30:46Z</time>
      </trkpt>
      <trkpt lat="44.73981" lon="6.99365">
        <ele>1805.8</ele>
        <time>2026-08-30T09:30:51Z</time>
      </trkpt>
      <trkpt lat="44.73975" lon="6.99373">
        <ele>1805.9</ele>
        <time>2026-08-30T09:30:57Z</time>
      </trkpt>
      <trkpt lat="44.73971" lon="6.99376">
        <ele>1806.5</ele>
        <time>2026-08-30T09:31:02Z</time>
      </trkpt>
      <trkpt lat="44.73967" lon="6.99381">
        <ele>1806.6</ele>
        <time>2026-08-30T09:31:07Z</time>
      </trkpt>
      <trkpt lat="44.73962" lon="6.99388">
        <ele>1806.3</ele>
        <time>2026-08-30T09:31:13Z</time>
      </trkpt>
      <trkpt lat="44.73957" lon="6.99393">
        <ele>1806.6</ele>
        <time>2026-08-30T09:31:18Z</time>
      </trkpt>
      <trkpt lat="44.73953" lon="6.99399">
        <ele>1806.2</ele>
        <time>2026-08-30T09:31:23Z</time>
      </trkpt>
      <trkpt lat="44.73948" lon="6.99404">
        <ele>1806.3</ele>
        <time>2026-08-30T09:31:29Z</time>
      </trkpt>
      <trkpt lat="44.73943" lon="6.9941">
        <ele>1806.1</ele>
        <time>2026-08-30T09:31:34Z</time>
      </trkpt>
      <trkpt lat="44.7394" lon="6.99417">
        <ele>1804.9</ele>
        <time>2026-08-30T09:31:39Z</time>
      </trkpt>
      <trkpt lat="44.73933" lon="6.99425">
        <ele>1804.9</ele>
        <time>2026-08-30T09:31:45Z</time>
      </trkpt>
      <trkpt lat="44.73928" lon="6.99426">
        <ele>1806.1</ele>
        <time>2026-08-30T09:31:50Z</time>
      </trkpt>
      <trkpt lat="44.73922" lon="6.9943">
        <ele>1806.6</ele>
        <time>2026-08-30T09:31:55Z</time>
      </trkpt>
      <trkpt lat="44.73916" lon="6.99436">
        <ele>1806.4</ele>
        <time>2026-08-30T09:32:01Z</time>
      </trkpt>
      <trkpt lat="44.73913" lon="6.99437">
        <ele>1806.7</ele>
        <time>2026-08-30T09:32:06Z</time>
      </trkpt>
      <trkpt lat="44.73908" lon="6.99437">
        <ele>1807.9</ele>
        <time>2026-08-30T09:32:11Z</time>
      </trkpt>
      <trkpt lat="44.73903" lon="6.99437">
        <ele>1809</ele>
        <time>2026-08-30T09:32:17Z</time>
      </trkpt>
      <trkpt lat="44.73898" lon="6.99438">
        <ele>1809.9</ele>
        <time>2026-08-30T09:32:22Z</time>
      </trkpt>
      <trkpt lat="44.73892" lon="6.99444">
        <ele>1809.3</ele>
        <time>2026-08-30T09:32:27Z</time>
      </trkpt>
      <trkpt lat="44.73889" lon="6.99454">
        <ele>1806.8</ele>
        <time>2026-08-30T09:32:33Z</time>
      </trkpt>
      <trkpt lat="44.73884" lon="6.9946">
        <ele>1806</ele>
        <time>2026-08-30T09:32:38Z</time>
      </trkpt>
      <trkpt lat="44.73879" lon="6.99461">
        <ele>1806.8</ele>
        <time>2026-08-30T09:32:43Z</time>
      </trkpt>
      <trkpt lat="44.73872" lon="6.99462">
        <ele>1808</ele>
        <time>2026-08-30T09:32:49Z</time>
      </trkpt>
      <trkpt lat="44.73868" lon="6.99464">
        <ele>1808.2</ele>
        <time>2026-08-30T09:32:54Z</time>
      </trkpt>
      <trkpt lat="44.73863" lon="6.99467">
        <ele>1808.2</ele>
        <time>2026-08-30T09:32:59Z</time>
      </trkpt>
      <trkpt lat="44.73857" lon="6.99472">
        <ele>1807.8</ele>
        <time>2026-08-30T09:33:05Z</time>
      </trkpt>
      <trkpt lat="44.73853" lon="6.99479">
        <ele>1806.3</ele>
        <time>2026-08-30T09:33:10Z</time>
      </trkpt>
      <trkpt lat="44.73849" lon="6.99486">
        <ele>1804.7</ele>
        <time>2026-08-30T09:33:15Z</time>
      </trkpt>
      <trkpt lat="44.73844" lon="6.99493">
        <ele>1803.3</ele>
        <time>2026-08-30T09:33:21Z</time>
      </trkpt>
      <trkpt lat="44.73842" lon="6.99497">
        <ele>1802.4</ele>
        <time>2026-08-30T09:33:26Z</time>
      </trkpt>
      <trkpt lat="44.73839" lon="6.99493">
        <ele>1804.3</ele>
        <time>2026-08-30T09:33:31Z</time>
      </trkpt>
      <trkpt lat="44.73836" lon="6.99494">
        <ele>1804.6</ele>
        <time>2026-08-30T09:33:37Z</time>
      </trkpt>
      <trkpt lat="44.73832" lon="6.99497">
        <ele>1804.4</ele>
        <time>2026-08-30T09:33:42Z</time>
      </trkpt>
      <trkpt lat="44.73827" lon="6.995">
        <ele>1804.7</ele>
        <time>2026-08-30T09:33:47Z</time>
      </trkpt>
      <trkpt lat="44.73827" lon="6.995">
        <ele>1804.7</ele>
        <time>2026-08-30T09:33:53Z</time>
      </trkpt>
      <trkpt lat="44.73827" lon="6.995">
        <ele>1804.7</ele>
        <time>2026-08-30T09:33:58Z</time>
      </trkpt>
      <trkpt lat="44.73827" lon="6.995">
        <ele>1804.7</ele>
        <time>2026-08-30T09:34:03Z</time>
      </trkpt>
      <trkpt lat="44.73827" lon="6.995">
        <ele>1804.7</ele>
        <time>2026-08-30T09:34:09Z</time>
      </trkpt>
      <trkpt lat="44.73824" lon="6.9951">
        <ele>1803.6</ele>
        <time>2026-08-30T09:34:14Z</time>
      </trkpt>
      <trkpt lat="44.73817" lon="6.99512">
        <ele>1805</ele>
        <time>2026-08-30T09:34:19Z</time>
      </trkpt>
      <trkpt lat="44.73811" lon="6.99514">
        <ele>1806.1</ele>
        <time>2026-08-30T09:34:25Z</time>
      </trkpt>
      <trkpt lat="44.73804" lon="6.99514">
        <ele>1807.8</ele>
        <time>2026-08-30T09:34:30Z</time>
      </trkpt>
      <trkpt lat="44.73798" lon="6.99515">
        <ele>1809.1</ele>
        <time>2026-08-30T09:34:35Z</time>
      </trkpt>
      <trkpt lat="44.73792" lon="6.99516">
        <ele>1810.4</ele>
        <time>2026-08-30T09:34:41Z</time>
      </trkpt>
      <trkpt lat="44.73794" lon="6.99517">
        <ele>1809.6</ele>
        <time>2026-08-30T09:34:46Z</time>
      </trkpt>
      <trkpt lat="44.73793" lon="6.9952">
        <ele>1809.2</ele>
        <time>2026-08-30T09:34:51Z</time>
      </trkpt>
      <trkpt lat="44.73787" lon="6.99522">
        <ele>1810.2</ele>
        <time>2026-08-30T09:34:57Z</time>
      </trkpt>
      <trkpt lat="44.73782" lon="6.99523">
        <ele>1811.2</ele>
        <time>2026-08-30T09:35:02Z</time>
      </trkpt>
      <trkpt lat="44.73778" lon="6.99526">
        <ele>1811.5</ele>
        <time>2026-08-30T09:35:07Z</time>
      </trkpt>
      <trkpt lat="44.73772" lon="6.99528">
        <ele>1812.4</ele>
        <time>2026-08-30T09:35:13Z</time>
      </trkpt>
      <trkpt lat="44.73766" lon="6.9953">
        <ele>1813.3</ele>
        <time>2026-08-30T09:35:18Z</time>
      </trkpt>
      <trkpt lat="44.73761" lon="6.99533">
        <ele>1813.7</ele>
        <time>2026-08-30T09:35:23Z</time>
      </trkpt>
      <trkpt lat="44.73758" lon="6.99537">
        <ele>1813.4</ele>
        <time>2026-08-30T09:35:29Z</time>
      </trkpt>
      <trkpt lat="44.73757" lon="6.9954">
        <ele>1812.9</ele>
        <time>2026-08-30T09:35:34Z</time>
      </trkpt>
      <trkpt lat="44.73756" lon="6.9954">
        <ele>1813.1</ele>
        <time>2026-08-30T09:35:39Z</time>
      </trkpt>
      <trkpt lat="44.73756" lon="6.99539">
        <ele>1813.4</ele>
        <time>2026-08-30T09:35:45Z</time>
      </trkpt>
      <trkpt lat="44.73756" lon="6.99539">
        <ele>1813.4</ele>
        <time>2026-08-30T09:35:50Z</time>
      </trkpt>
      <trkpt lat="44.73756" lon="6.99539">
        <ele>1813.4</ele>
        <time>2026-08-30T09:35:55Z</time>
      </trkpt>
      <trkpt lat="44.7375" lon="6.99535">
        <ele>1815.8</ele>
        <time>2026-08-30T09:36:01Z</time>
      </trkpt>
      <trkpt lat="44.73746" lon="6.99539">
        <ele>1815.8</ele>
        <time>2026-08-30T09:36:06Z</time>
      </trkpt>
      <trkpt lat="44.7374" lon="6.99545">
        <ele>1815.7</ele>
        <time>2026-08-30T09:36:11Z</time>
      </trkpt>
      <trkpt lat="44.73736" lon="6.99549">
        <ele>1815.6</ele>
        <time>2026-08-30T09:36:17Z</time>
      </trkpt>
      <trkpt lat="44.73731" lon="6.99556">
        <ele>1814.9</ele>
        <time>2026-08-30T09:36:22Z</time>
      </trkpt>
      <trkpt lat="44.73725" lon="6.99556">
        <ele>1816.4</ele>
        <time>2026-08-30T09:36:27Z</time>
      </trkpt>
      <trkpt lat="44.73724" lon="6.99559">
        <ele>1815.8</ele>
        <time>2026-08-30T09:36:33Z</time>
      </trkpt>
      <trkpt lat="44.73724" lon="6.99564">
        <ele>1814.3</ele>
        <time>2026-08-30T09:36:38Z</time>
      </trkpt>
      <trkpt lat="44.7372" lon="6.99567">
        <ele>1814.4</ele>
        <time>2026-08-30T09:36:43Z</time>
      </trkpt>
      <trkpt lat="44.73715" lon="6.99568">
        <ele>1815.2</ele>
        <time>2026-08-30T09:36:49Z</time>
      </trkpt>
      <trkpt lat="44.73711" lon="6.99572">
        <ele>1814.9</ele>
        <time>2026-08-30T09:36:54Z</time>
      </trkpt>
      <trkpt lat="44.73705" lon="6.99577">
        <ele>1814.7</ele>
        <time>2026-08-30T09:36:59Z</time>
      </trkpt>
      <trkpt lat="44.73697" lon="6.99582">
        <ele>1814.9</ele>
        <time>2026-08-30T09:37:05Z</time>
      </trkpt>
      <trkpt lat="44.73692" lon="6.99586">
        <ele>1815.1</ele>
        <time>2026-08-30T09:37:10Z</time>
      </trkpt>
      <trkpt lat="44.73685" lon="6.99589">
        <ele>1816.1</ele>
        <time>2026-08-30T09:37:15Z</time>
      </trkpt>
      <trkpt lat="44.73678" lon="6.99591">
        <ele>1817.2</ele>
        <time>2026-08-30T09:37:21Z</time>
      </trkpt>
      <trkpt lat="44.73672" lon="6.99595">
        <ele>1817.8</ele>
        <time>2026-08-30T09:37:26Z</time>
      </trkpt>
      <trkpt lat="44.73667" lon="6.99602">
        <ele>1817.6</ele>
        <time>2026-08-30T09:37:31Z</time>
      </trkpt>
      <trkpt lat="44.73661" lon="6.99611">
        <ele>1817.8</ele>
        <time>2026-08-30T09:37:37Z</time>
      </trkpt>
      <trkpt lat="44.73658" lon="6.99616">
        <ele>1817.7</ele>
        <time>2026-08-30T09:37:42Z</time>
      </trkpt>
      <trkpt lat="44.73654" lon="6.99621">
        <ele>1817.9</ele>
        <time>2026-08-30T09:37:47Z</time>
      </trkpt>
      <trkpt lat="44.73648" lon="6.99628">
        <ele>1818.3</ele>
        <time>2026-08-30T09:37:53Z</time>
      </trkpt>
      <trkpt lat="44.73642" lon="6.99631">
        <ele>1819.3</ele>
        <time>2026-08-30T09:37:58Z</time>
      </trkpt>
      <trkpt lat="44.73639" lon="6.99636">
        <ele>1819</ele>
        <time>2026-08-30T09:38:03Z</time>
      </trkpt>
      <trkpt lat="44.73633" lon="6.99644">
        <ele>1818.9</ele>
        <time>2026-08-30T09:38:09Z</time>
      </trkpt>
      <trkpt lat="44.73629" lon="6.99649">
        <ele>1818.7</ele>
        <time>2026-08-30T09:38:14Z</time>
      </trkpt>
      <trkpt lat="44.73626" lon="6.99655">
        <ele>1818.1</ele>
        <time>2026-08-30T09:38:19Z</time>
      </trkpt>
      <trkpt lat="44.73622" lon="6.99663">
        <ele>1817.1</ele>
        <time>2026-08-30T09:38:25Z</time>
      </trkpt>
      <trkpt lat="44.73619" lon="6.99669">
        <ele>1816.6</ele>
        <time>2026-08-30T09:38:30Z</time>
      </trkpt>
      <trkpt lat="44.73617" lon="6.99677">
        <ele>1816</ele>
        <time>2026-08-30T09:38:35Z</time>
      </trkpt>
      <trkpt lat="44.73614" lon="6.99684">
        <ele>1815.7</ele>
        <time>2026-08-30T09:38:41Z</time>
      </trkpt>
      <trkpt lat="44.73611" lon="6.99689">
        <ele>1815.7</ele>
        <time>2026-08-30T09:38:46Z</time>
      </trkpt>
      <trkpt lat="44.73609" lon="6.99695">
        <ele>1815.2</ele>
        <time>2026-08-30T09:38:51Z</time>
      </trkpt>
      <trkpt lat="44.73606" lon="6.99702">
        <ele>1814.8</ele>
        <time>2026-08-30T09:38:57Z</time>
      </trkpt>
      <trkpt lat="44.73603" lon="6.99706">
        <ele>1814.8</ele>
        <time>2026-08-30T09:39:02Z</time>
      </trkpt>
      <trkpt lat="44.736" lon="6.99708">
        <ele>1815</ele>
        <time>2026-08-30T09:39:07Z</time>
      </trkpt>
      <trkpt lat="44.736" lon="6.99708">
        <ele>1815</ele>
        <time>2026-08-30T09:39:13Z</time>
      </trkpt>
      <trkpt lat="44.736" lon="6.99708">
        <ele>1815</ele>
        <time>2026-08-30T09:39:18Z</time>
      </trkpt>
      <trkpt lat="44.736" lon="6.99708">
        <ele>1815</ele>
        <time>2026-08-30T09:39:23Z</time>
      </trkpt>
      <trkpt lat="44.736" lon="6.99708">
        <ele>1815</ele>
        <time>2026-08-30T09:39:29Z</time>
      </trkpt>
      <trkpt lat="44.736" lon="6.99708">
        <ele>1815</ele>
        <time>2026-08-30T09:39:34Z</time>
      </trkpt>
      <trkpt lat="44.736" lon="6.99708">
        <ele>1815</ele>
        <time>2026-08-30T09:39:39Z</time>
      </trkpt>
      <trkpt lat="44.736" lon="6.99708">
        <ele>1815</ele>
        <time>2026-08-30T09:39:45Z</time>
      </trkpt>
      <trkpt lat="44.736" lon="6.99708">
        <ele>1815</ele>
        <time>2026-08-30T09:39:50Z</time>
      </trkpt>
      <trkpt lat="44.736" lon="6.99708">
        <ele>1815</ele>
        <time>2026-08-30T09:39:55Z</time>
      </trkpt>
      <trkpt lat="44.736" lon="6.99708">
        <ele>1815</ele>
        <time>2026-08-30T09:40:01Z</time>
      </trkpt>
      <trkpt lat="44.736" lon="6.99708">
        <ele>1815</ele>
        <time>2026-08-30T09:40:06Z</time>
      </trkpt>
      <trkpt lat="44.736" lon="6.99708">
        <ele>1815</ele>
        <time>2026-08-30T09:40:11Z</time>
      </trkpt>
      <trkpt lat="44.736" lon="6.99708">
        <ele>1815</ele>
        <time>2026-08-30T09:40:17Z</time>
      </trkpt>
      <trkpt lat="44.736" lon="6.99708">
        <ele>1815</ele>
        <time>2026-08-30T09:40:22Z</time>
      </trkpt>
      <trkpt lat="44.736" lon="6.99708">
        <ele>1815</ele>
        <time>2026-08-30T09:40:27Z</time>
      </trkpt>
      <trkpt lat="44.736" lon="6.99708">
        <ele>1815</ele>
        <time>2026-08-30T09:40:33Z</time>
      </trkpt>
      <trkpt lat="44.736" lon="6.99708">
        <ele>1815</ele>
        <time>2026-08-30T09:40:38Z</time>
      </trkpt>
      <trkpt lat="44.736" lon="6.99708">
        <ele>1815</ele>
        <time>2026-08-30T09:40:43Z</time>
      </trkpt>
      <trkpt lat="44.736" lon="6.99708">
        <ele>1815</ele>
        <time>2026-08-30T09:40:49Z</time>
      </trkpt>
      <trkpt lat="44.736" lon="6.99708">
        <ele>1815</ele>
        <time>2026-08-30T09:40:54Z</time>
      </trkpt>
      <trkpt lat="44.736" lon="6.99708">
        <ele>1815</ele>
        <time>2026-08-30T09:40:59Z</time>
      </trkpt>
      <trkpt lat="44.736" lon="6.99708">
        <ele>1815</ele>
        <time>2026-08-30T09:41:05Z</time>
      </trkpt>
      <trkpt lat="44.736" lon="6.99708">
        <ele>1815</ele>
        <time>2026-08-30T09:41:10Z</time>
      </trkpt>
      <trkpt lat="44.736" lon="6.99708">
        <ele>1815</ele>
        <time>2026-08-30T09:41:15Z</time>
      </trkpt>
      <trkpt lat="44.736" lon="6.99708">
        <ele>1815</ele>
        <time>2026-08-30T09:41:21Z</time>
      </trkpt>
      <trkpt lat="44.736" lon="6.99711">
        <ele>1814.6</ele>
        <time>2026-08-30T09:41:26Z</time>
      </trkpt>
      <trkpt lat="44.73594" lon="6.99714">
        <ele>1815.2</ele>
        <time>2026-08-30T09:41:31Z</time>
      </trkpt>
      <trkpt lat="44.73588" lon="6.99716">
        <ele>1815.9</ele>
        <time>2026-08-30T09:41:37Z</time>
      </trkpt>
      <trkpt lat="44.73585" lon="6.99718">
        <ele>1816.1</ele>
        <time>2026-08-30T09:41:42Z</time>
      </trkpt>
      <trkpt lat="44.73582" lon="6.99718">
        <ele>1816.9</ele>
        <time>2026-08-30T09:41:47Z</time>
      </trkpt>
      <trkpt lat="44.73579" lon="6.99718">
        <ele>1818</ele>
        <time>2026-08-30T09:41:53Z</time>
      </trkpt>
      <trkpt lat="44.73575" lon="6.99719">
        <ele>1819.2</ele>
        <time>2026-08-30T09:41:58Z</time>
      </trkpt>
      <trkpt lat="44.73572" lon="6.9972">
        <ele>1820.2</ele>
        <time>2026-08-30T09:42:03Z</time>
      </trkpt>
      <trkpt lat="44.73568" lon="6.99722">
        <ele>1821.3</ele>
        <time>2026-08-30T09:42:09Z</time>
      </trkpt>
      <trkpt lat="44.73564" lon="6.99722">
        <ele>1822.7</ele>
        <time>2026-08-30T09:42:14Z</time>
      </trkpt>
      <trkpt lat="44.7356" lon="6.99721">
        <ele>1824.4</ele>
        <time>2026-08-30T09:42:19Z</time>
      </trkpt>
      <trkpt lat="44.73558" lon="6.99718">
        <ele>1825.6</ele>
        <time>2026-08-30T09:42:25Z</time>
      </trkpt>
      <trkpt lat="44.73555" lon="6.99717">
        <ele>1826.9</ele>
        <time>2026-08-30T09:42:30Z</time>
      </trkpt>
      <trkpt lat="44.73555" lon="6.99719">
        <ele>1826.5</ele>
        <time>2026-08-30T09:42:35Z</time>
      </trkpt>
      <trkpt lat="44.73551" lon="6.9972">
        <ele>1827.8</ele>
        <time>2026-08-30T09:42:41Z</time>
      </trkpt>
      <trkpt lat="44.73549" lon="6.99719">
        <ele>1828.7</ele>
        <time>2026-08-30T09:42:46Z</time>
      </trkpt>
      <trkpt lat="44.73545" lon="6.9972">
        <ele>1830</ele>
        <time>2026-08-30T09:42:51Z</time>
      </trkpt>
      <trkpt lat="44.73541" lon="6.99722">
        <ele>1831.1</ele>
        <time>2026-08-30T09:42:57Z</time>
      </trkpt>
      <trkpt lat="44.73539" lon="6.99722">
        <ele>1831.8</ele>
        <time>2026-08-30T09:43:02Z</time>
      </trkpt>
      <trkpt lat="44.73537" lon="6.99725">
        <ele>1832</ele>
        <time>2026-08-30T09:43:07Z</time>
      </trkpt>
      <trkpt lat="44.73534" lon="6.99728">
        <ele>1832.6</ele>
        <time>2026-08-30T09:43:13Z</time>
      </trkpt>
      <trkpt lat="44.7353" lon="6.9973">
        <ele>1833.7</ele>
        <time>2026-08-30T09:43:18Z</time>
      </trkpt>
      <trkpt lat="44.73526" lon="6.99732">
        <ele>1834.8</ele>
        <time>2026-08-30T09:43:23Z</time>
      </trkpt>
      <trkpt lat="44.73522" lon="6.99737">
        <ele>1835.4</ele>
        <time>2026-08-30T09:43:29Z</time>
      </trkpt>
      <trkpt lat="44.73519" lon="6.9974">
        <ele>1835.9</ele>
        <time>2026-08-30T09:43:34Z</time>
      </trkpt>
      <trkpt lat="44.73516" lon="6.99744">
        <ele>1836.3</ele>
        <time>2026-08-30T09:43:39Z</time>
      </trkpt>
      <trkpt lat="44.73512" lon="6.99748">
        <ele>1837</ele>
        <time>2026-08-30T09:43:45Z</time>
      </trkpt>
      <trkpt lat="44.73509" lon="6.99751">
        <ele>1837.5</ele>
        <time>2026-08-30T09:43:50Z</time>
      </trkpt>
      <trkpt lat="44.73509" lon="6.99751">
        <ele>1837.5</ele>
        <time>2026-08-30T09:43:55Z</time>
      </trkpt>
      <trkpt lat="44.73509" lon="6.99751">
        <ele>1837.5</ele>
        <time>2026-08-30T09:44:01Z</time>
      </trkpt>
      <trkpt lat="44.73509" lon="6.99751">
        <ele>1837.5</ele>
        <time>2026-08-30T09:44:06Z</time>
      </trkpt>
      <trkpt lat="44.73509" lon="6.99751">
        <ele>1837.5</ele>
        <time>2026-08-30T09:44:11Z</time>
      </trkpt>
      <trkpt lat="44.73509" lon="6.99751">
        <ele>1837.5</ele>
        <time>2026-08-30T09:44:17Z</time>
      </trkpt>
      <trkpt lat="44.73509" lon="6.99751">
        <ele>1837.5</ele>
        <time>2026-08-30T09:44:22Z</time>
      </trkpt>
      <trkpt lat="44.73509" lon="6.99751">
        <ele>1837.5</ele>
        <time>2026-08-30T09:44:27Z</time>
      </trkpt>
      <trkpt lat="44.73509" lon="6.99751">
        <ele>1837.5</ele>
        <time>2026-08-30T09:44:33Z</time>
      </trkpt>
      <trkpt lat="44.73509" lon="6.99751">
        <ele>1837.5</ele>
        <time>2026-08-30T09:44:38Z</time>
      </trkpt>
      <trkpt lat="44.73509" lon="6.99751">
        <ele>1837.5</ele>
        <time>2026-08-30T09:44:43Z</time>
      </trkpt>
      <trkpt lat="44.73509" lon="6.99751">
        <ele>1837.5</ele>
        <time>2026-08-30T09:44:49Z</time>
      </trkpt>
      <trkpt lat="44.73509" lon="6.99751">
        <ele>1837.5</ele>
        <time>2026-08-30T09:44:54Z</time>
      </trkpt>
      <trkpt lat="44.73509" lon="6.99751">
        <ele>1837.5</ele>
        <time>2026-08-30T09:44:59Z</time>
      </trkpt>
      <trkpt lat="44.73509" lon="6.99751">
        <ele>1837.5</ele>
        <time>2026-08-30T09:45:05Z</time>
      </trkpt>
      <trkpt lat="44.73509" lon="6.99751">
        <ele>1837.5</ele>
        <time>2026-08-30T09:45:10Z</time>
      </trkpt>
      <trkpt lat="44.73509" lon="6.99751">
        <ele>1837.5</ele>
        <time>2026-08-30T09:45:15Z</time>
      </trkpt>
      <trkpt lat="44.73509" lon="6.99751">
        <ele>1837.5</ele>
        <time>2026-08-30T09:45:21Z</time>
      </trkpt>
      <trkpt lat="44.73509" lon="6.99751">
        <ele>1837.5</ele>
        <time>2026-08-30T09:45:26Z</time>
      </trkpt>
      <trkpt lat="44.73509" lon="6.99751">
        <ele>1837.5</ele>
        <time>2026-08-30T09:45:31Z</time>
      </trkpt>
      <trkpt lat="44.73509" lon="6.99751">
        <ele>1837.5</ele>
        <time>2026-08-30T09:45:37Z</time>
      </trkpt>
      <trkpt lat="44.73509" lon="6.99751">
        <ele>1837.5</ele>
        <time>2026-08-30T09:45:42Z</time>
      </trkpt>
      <trkpt lat="44.73508" lon="6.99758">
        <ele>1836.4</ele>
        <time>2026-08-30T09:45:47Z</time>
      </trkpt>
      <trkpt lat="44.73503" lon="6.99761">
        <ele>1837.5</ele>
        <time>2026-08-30T09:45:53Z</time>
      </trkpt>
      <trkpt lat="44.735" lon="6.99766">
        <ele>1837.4</ele>
        <time>2026-08-30T09:45:58Z</time>
      </trkpt>
      <trkpt lat="44.73498" lon="6.99766">
        <ele>1838.8</ele>
        <time>2026-08-30T09:46:03Z</time>
      </trkpt>
      <trkpt lat="44.73494" lon="6.99768">
        <ele>1841.3</ele>
        <time>2026-08-30T09:46:09Z</time>
      </trkpt>
      <trkpt lat="44.7349" lon="6.99771">
        <ele>1843.5</ele>
        <time>2026-08-30T09:46:14Z</time>
      </trkpt>
      <trkpt lat="44.73485" lon="6.99772">
        <ele>1846.9</ele>
        <time>2026-08-30T09:46:19Z</time>
      </trkpt>
      <trkpt lat="44.7348" lon="6.99774">
        <ele>1850</ele>
        <time>2026-08-30T09:46:25Z</time>
      </trkpt>
      <trkpt lat="44.73475" lon="6.99776">
        <ele>1853</ele>
        <time>2026-08-30T09:46:30Z</time>
      </trkpt>
      <trkpt lat="44.73471" lon="6.99776">
        <ele>1855.8</ele>
        <time>2026-08-30T09:46:35Z</time>
      </trkpt>
      <trkpt lat="44.73464" lon="6.99778">
        <ele>1860.2</ele>
        <time>2026-08-30T09:46:41Z</time>
      </trkpt>
      <trkpt lat="44.7346" lon="6.99778">
        <ele>1863.1</ele>
        <time>2026-08-30T09:46:46Z</time>
      </trkpt>
      <trkpt lat="44.73456" lon="6.99779">
        <ele>1865.6</ele>
        <time>2026-08-30T09:46:51Z</time>
      </trkpt>
      <trkpt lat="44.73453" lon="6.99781">
        <ele>1867</ele>
        <time>2026-08-30T09:46:57Z</time>
      </trkpt>
      <trkpt lat="44.73451" lon="6.99784">
        <ele>1867.4</ele>
        <time>2026-08-30T09:47:02Z</time>
      </trkpt>
      <trkpt lat="44.73447" lon="6.99784">
        <ele>1870.2</ele>
        <time>2026-08-30T09:47:07Z</time>
      </trkpt>
      <trkpt lat="44.73443" lon="6.99783">
        <ele>1873.3</ele>
        <time>2026-08-30T09:47:13Z</time>
      </trkpt>
      <trkpt lat="44.73439" lon="6.99783">
        <ele>1876.1</ele>
        <time>2026-08-30T09:47:18Z</time>
      </trkpt>
      <trkpt lat="44.73434" lon="6.99781">
        <ele>1880.4</ele>
        <time>2026-08-30T09:47:23Z</time>
      </trkpt>
      <trkpt lat="44.73429" lon="6.99778">
        <ele>1885.1</ele>
        <time>2026-08-30T09:47:29Z</time>
      </trkpt>
      <trkpt lat="44.73425" lon="6.99777">
        <ele>1888.4</ele>
        <time>2026-08-30T09:47:34Z</time>
      </trkpt>
      <trkpt lat="44.73422" lon="6.99775">
        <ele>1891.4</ele>
        <time>2026-08-30T09:47:39Z</time>
      </trkpt>
      <trkpt lat="44.73419" lon="6.99775">
        <ele>1893.5</ele>
        <time>2026-08-30T09:47:45Z</time>
      </trkpt>
      <trkpt lat="44.73417" lon="6.99777">
        <ele>1894.1</ele>
        <time>2026-08-30T09:47:50Z</time>
      </trkpt>
      <trkpt lat="44.73417" lon="6.99777">
        <ele>1894.1</ele>
        <time>2026-08-30T09:47:55Z</time>
      </trkpt>
      <trkpt lat="44.73417" lon="6.99777">
        <ele>1894.1</ele>
        <time>2026-08-30T09:48:01Z</time>
      </trkpt>
      <trkpt lat="44.73417" lon="6.99777">
        <ele>1894.1</ele>
        <time>2026-08-30T09:48:06Z</time>
      </trkpt>
      <trkpt lat="44.73417" lon="6.99777">
        <ele>1894.1</ele>
        <time>2026-08-30T09:48:11Z</time>
      </trkpt>
      <trkpt lat="44.73417" lon="6.99777">
        <ele>1894.1</ele>
        <time>2026-08-30T09:48:17Z</time>
      </trkpt>
      <trkpt lat="44.73417" lon="6.99777">
        <ele>1894.1</ele>
        <time>2026-08-30T09:48:22Z</time>
      </trkpt>
      <trkpt lat="44.73417" lon="6.99777">
        <ele>1894.1</ele>
        <time>2026-08-30T09:48:27Z</time>
      </trkpt>
      <trkpt lat="44.73417" lon="6.99777">
        <ele>1894.1</ele>
        <time>2026-08-30T09:48:33Z</time>
      </trkpt>
      <trkpt lat="44.73417" lon="6.99777">
        <ele>1894.1</ele>
        <time>2026-08-30T09:48:38Z</time>
      </trkpt>
      <trkpt lat="44.73417" lon="6.99777">
        <ele>1894.1</ele>
        <time>2026-08-30T09:48:43Z</time>
      </trkpt>
      <trkpt lat="44.73417" lon="6.99777">
        <ele>1894.1</ele>
        <time>2026-08-30T09:48:49Z</time>
      </trkpt>
      <trkpt lat="44.73417" lon="6.99777">
        <ele>1894.1</ele>
        <time>2026-08-30T09:48:54Z</time>
      </trkpt>
      <trkpt lat="44.73407" lon="6.99785">
        <ele>1893.7</ele>
        <time>2026-08-30T09:48:59Z</time>
      </trkpt>
      <trkpt lat="44.73401" lon="6.99787">
        <ele>1894.5</ele>
        <time>2026-08-30T09:49:05Z</time>
      </trkpt>
      <trkpt lat="44.73398" lon="6.99788">
        <ele>1895</ele>
        <time>2026-08-30T09:49:10Z</time>
      </trkpt>
      <trkpt lat="44.73394" lon="6.9979">
        <ele>1895.2</ele>
        <time>2026-08-30T09:49:15Z</time>
      </trkpt>
      <trkpt lat="44.7339" lon="6.99794">
        <ele>1894.7</ele>
        <time>2026-08-30T09:49:21Z</time>
      </trkpt>
      <trkpt lat="44.73387" lon="6.99797">
        <ele>1894.2</ele>
        <time>2026-08-30T09:49:26Z</time>
      </trkpt>
      <trkpt lat="44.73386" lon="6.99797">
        <ele>1894.5</ele>
        <time>2026-08-30T09:49:31Z</time>
      </trkpt>
      <trkpt lat="44.73383" lon="6.99799">
        <ele>1894.5</ele>
        <time>2026-08-30T09:49:37Z</time>
      </trkpt>
      <trkpt lat="44.73381" lon="6.99802">
        <ele>1893.8</ele>
        <time>2026-08-30T09:49:42Z</time>
      </trkpt>
      <trkpt lat="44.73381" lon="6.99806">
        <ele>1892.1</ele>
        <time>2026-08-30T09:49:47Z</time>
      </trkpt>
      <trkpt lat="44.73377" lon="6.99807">
        <ele>1892.8</ele>
        <time>2026-08-30T09:49:53Z</time>
      </trkpt>
      <trkpt lat="44.73376" lon="6.99808">
        <ele>1892.7</ele>
        <time>2026-08-30T09:49:58Z</time>
      </trkpt>
      <trkpt lat="44.73372" lon="6.9981">
        <ele>1892.9</ele>
        <time>2026-08-30T09:50:03Z</time>
      </trkpt>
      <trkpt lat="44.73372" lon="6.9981">
        <ele>1892.9</ele>
        <time>2026-08-30T09:50:09Z</time>
      </trkpt>
      <trkpt lat="44.73372" lon="6.9981">
        <ele>1892.9</ele>
        <time>2026-08-30T09:50:14Z</time>
      </trkpt>
      <trkpt lat="44.73372" lon="6.9981">
        <ele>1892.9</ele>
        <time>2026-08-30T09:50:19Z</time>
      </trkpt>
      <trkpt lat="44.73365" lon="6.99819">
        <ele>1891.1</ele>
        <time>2026-08-30T09:50:25Z</time>
      </trkpt>
      <trkpt lat="44.73365" lon="6.9982">
        <ele>1890.6</ele>
        <time>2026-08-30T09:50:30Z</time>
      </trkpt>
      <trkpt lat="44.73365" lon="6.9982">
        <ele>1890.6</ele>
        <time>2026-08-30T09:50:35Z</time>
      </trkpt>
      <trkpt lat="44.73365" lon="6.9982">
        <ele>1890.6</ele>
        <time>2026-08-30T09:50:41Z</time>
      </trkpt>
      <trkpt lat="44.7336" lon="6.99832">
        <ele>1886.9</ele>
        <time>2026-08-30T09:50:46Z</time>
      </trkpt>
      <trkpt lat="44.73357" lon="6.99837">
        <ele>1886.6</ele>
        <time>2026-08-30T09:50:51Z</time>
      </trkpt>
      <trkpt lat="44.73356" lon="6.99842">
        <ele>1886</ele>
        <time>2026-08-30T09:50:57Z</time>
      </trkpt>
      <trkpt lat="44.73356" lon="6.99843">
        <ele>1885.9</ele>
        <time>2026-08-30T09:51:02Z</time>
      </trkpt>
      <trkpt lat="44.73356" lon="6.99843">
        <ele>1885.9</ele>
        <time>2026-08-30T09:51:07Z</time>
      </trkpt>
      <trkpt lat="44.73356" lon="6.99843">
        <ele>1885.9</ele>
        <time>2026-08-30T09:51:13Z</time>
      </trkpt>
      <trkpt lat="44.73356" lon="6.99843">
        <ele>1885.9</ele>
        <time>2026-08-30T09:51:18Z</time>
      </trkpt>
      <trkpt lat="44.73356" lon="6.99843">
        <ele>1885.9</ele>
        <time>2026-08-30T09:51:23Z</time>
      </trkpt>
      <trkpt lat="44.73356" lon="6.99843">
        <ele>1885.9</ele>
        <time>2026-08-30T09:51:29Z</time>
      </trkpt>
      <trkpt lat="44.73356" lon="6.99843">
        <ele>1885.9</ele>
        <time>2026-08-30T09:51:34Z</time>
      </trkpt>
      <trkpt lat="44.73347" lon="6.99845">
        <ele>1888.3</ele>
        <time>2026-08-30T09:51:39Z</time>
      </trkpt>
      <trkpt lat="44.73347" lon="6.99845">
        <ele>1888.3</ele>
        <time>2026-08-30T09:51:45Z</time>
      </trkpt>
      <trkpt lat="44.73347" lon="6.99845">
        <ele>1888.3</ele>
        <time>2026-08-30T09:51:50Z</time>
      </trkpt>
      <trkpt lat="44.73347" lon="6.99845">
        <ele>1888.3</ele>
        <time>2026-08-30T09:51:55Z</time>
      </trkpt>
      <trkpt lat="44.73339" lon="6.99851">
        <ele>1889.9</ele>
        <time>2026-08-30T09:52:01Z</time>
      </trkpt>
      <trkpt lat="44.73336" lon="6.99854">
        <ele>1890.4</ele>
        <time>2026-08-30T09:52:06Z</time>
      </trkpt>
      <trkpt lat="44.73333" lon="6.99859">
        <ele>1890.7</ele>
        <time>2026-08-30T09:52:11Z</time>
      </trkpt>
      <trkpt lat="44.73332" lon="6.99863">
        <ele>1890.4</ele>
        <time>2026-08-30T09:52:17Z</time>
      </trkpt>
      <trkpt lat="44.73333" lon="6.99865">
        <ele>1889.9</ele>
        <time>2026-08-30T09:52:22Z</time>
      </trkpt>
      <trkpt lat="44.73333" lon="6.99865">
        <ele>1889.9</ele>
        <time>2026-08-30T09:52:27Z</time>
      </trkpt>
      <trkpt lat="44.73333" lon="6.99865">
        <ele>1889.9</ele>
        <time>2026-08-30T09:52:33Z</time>
      </trkpt>
      <trkpt lat="44.73333" lon="6.99865">
        <ele>1889.9</ele>
        <time>2026-08-30T09:52:38Z</time>
      </trkpt>
      <trkpt lat="44.73333" lon="6.99865">
        <ele>1889.9</ele>
        <time>2026-08-30T09:52:43Z</time>
      </trkpt>
      <trkpt lat="44.73333" lon="6.99865">
        <ele>1889.9</ele>
        <time>2026-08-30T09:52:49Z</time>
      </trkpt>
      <trkpt lat="44.7333" lon="6.99877">
        <ele>1889</ele>
        <time>2026-08-30T09:52:54Z</time>
      </trkpt>
      <trkpt lat="44.73329" lon="6.99882">
        <ele>1888.5</ele>
        <time>2026-08-30T09:52:59Z</time>
      </trkpt>
      <trkpt lat="44.73326" lon="6.99884">
        <ele>1888.9</ele>
        <time>2026-08-30T09:53:05Z</time>
      </trkpt>
      <trkpt lat="44.73324" lon="6.99888">
        <ele>1888.9</ele>
        <time>2026-08-30T09:53:10Z</time>
      </trkpt>
      <trkpt lat="44.73321" lon="6.99888">
        <ele>1889.5</ele>
        <time>2026-08-30T09:53:15Z</time>
      </trkpt>
      <trkpt lat="44.73315" lon="6.99889">
        <ele>1890.8</ele>
        <time>2026-08-30T09:53:21Z</time>
      </trkpt>
      <trkpt lat="44.73312" lon="6.99886">
        <ele>1891.8</ele>
        <time>2026-08-30T09:53:26Z</time>
      </trkpt>
      <trkpt lat="44.73311" lon="6.99886">
        <ele>1892</ele>
        <time>2026-08-30T09:53:31Z</time>
      </trkpt>
      <trkpt lat="44.73311" lon="6.99886">
        <ele>1892</ele>
        <time>2026-08-30T09:53:37Z</time>
      </trkpt>
      <trkpt lat="44.73308" lon="6.99899">
        <ele>1891</ele>
        <time>2026-08-30T09:53:42Z</time>
      </trkpt>
      <trkpt lat="44.73309" lon="6.999">
        <ele>1890.7</ele>
        <time>2026-08-30T09:53:47Z</time>
      </trkpt>
      <trkpt lat="44.73309" lon="6.999">
        <ele>1890.7</ele>
        <time>2026-08-30T09:53:53Z</time>
      </trkpt>
      <trkpt lat="44.73305" lon="6.99897">
        <ele>1892</ele>
        <time>2026-08-30T09:53:58Z</time>
      </trkpt>
      <trkpt lat="44.73303" lon="6.99887">
        <ele>1893.7</ele>
        <time>2026-08-30T09:54:03Z</time>
      </trkpt>
      <trkpt lat="44.73299" lon="6.99878">
        <ele>1895.7</ele>
        <time>2026-08-30T09:54:09Z</time>
      </trkpt>
      <trkpt lat="44.73294" lon="6.99873">
        <ele>1897.5</ele>
        <time>2026-08-30T09:54:14Z</time>
      </trkpt>
      <trkpt lat="44.73288" lon="6.99871">
        <ele>1899.1</ele>
        <time>2026-08-30T09:54:19Z</time>
      </trkpt>
      <trkpt lat="44.73283" lon="6.99869">
        <ele>1900.4</ele>
        <time>2026-08-30T09:54:25Z</time>
      </trkpt>
      <trkpt lat="44.73279" lon="6.99869">
        <ele>1901.3</ele>
        <time>2026-08-30T09:54:30Z</time>
      </trkpt>
      <trkpt lat="44.73275" lon="6.99869">
        <ele>1902.2</ele>
        <time>2026-08-30T09:54:35Z</time>
      </trkpt>
      <trkpt lat="44.73275" lon="6.99869">
        <ele>1902.2</ele>
        <time>2026-08-30T09:54:41Z</time>
      </trkpt>
      <trkpt lat="44.73273" lon="6.99864">
        <ele>1903.3</ele>
        <time>2026-08-30T09:54:46Z</time>
      </trkpt>
      <trkpt lat="44.73269" lon="6.99862">
        <ele>1904.4</ele>
        <time>2026-08-30T09:54:51Z</time>
      </trkpt>
      <trkpt lat="44.73266" lon="6.9986">
        <ele>1905.3</ele>
        <time>2026-08-30T09:54:57Z</time>
      </trkpt>
      <trkpt lat="44.73264" lon="6.99858">
        <ele>1906</ele>
        <time>2026-08-30T09:55:02Z</time>
      </trkpt>
      <trkpt lat="44.7326" lon="6.99859">
        <ele>1906.7</ele>
        <time>2026-08-30T09:55:07Z</time>
      </trkpt>
      <trkpt lat="44.73259" lon="6.99859">
        <ele>1906.9</ele>
        <time>2026-08-30T09:55:13Z</time>
      </trkpt>
      <trkpt lat="44.73259" lon="6.99859">
        <ele>1906.9</ele>
        <time>2026-08-30T09:55:18Z</time>
      </trkpt>
      <trkpt lat="44.73259" lon="6.99859">
        <ele>1906.9</ele>
        <time>2026-08-30T09:55:23Z</time>
      </trkpt>
      <trkpt lat="44.73259" lon="6.99859">
        <ele>1906.9</ele>
        <time>2026-08-30T09:55:29Z</time>
      </trkpt>
      <trkpt lat="44.73259" lon="6.99859">
        <ele>1906.9</ele>
        <time>2026-08-30T09:55:34Z</time>
      </trkpt>
      <trkpt lat="44.73259" lon="6.99859">
        <ele>1906.9</ele>
        <time>2026-08-30T09:55:39Z</time>
      </trkpt>
      <trkpt lat="44.73259" lon="6.99859">
        <ele>1906.9</ele>
        <time>2026-08-30T09:55:45Z</time>
      </trkpt>
      <trkpt lat="44.73259" lon="6.99859">
        <ele>1906.9</ele>
        <time>2026-08-30T09:55:50Z</time>
      </trkpt>
      <trkpt lat="44.73259" lon="6.99859">
        <ele>1906.9</ele>
        <time>2026-08-30T09:55:55Z</time>
      </trkpt>
      <trkpt lat="44.73259" lon="6.99859">
        <ele>1906.9</ele>
        <time>2026-08-30T09:56:01Z</time>
      </trkpt>
      <trkpt lat="44.73251" lon="6.99868">
        <ele>1907.6</ele>
        <time>2026-08-30T09:56:06Z</time>
      </trkpt>
      <trkpt lat="44.73252" lon="6.99871">
        <ele>1907</ele>
        <time>2026-08-30T09:56:11Z</time>
      </trkpt>
      <trkpt lat="44.7325" lon="6.99873">
        <ele>1907.2</ele>
        <time>2026-08-30T09:56:17Z</time>
      </trkpt>
      <trkpt lat="44.7325" lon="6.99873">
        <ele>1907.2</ele>
        <time>2026-08-30T09:56:22Z</time>
      </trkpt>
      <trkpt lat="44.7325" lon="6.99873">
        <ele>1907.2</ele>
        <time>2026-08-30T09:56:27Z</time>
      </trkpt>
      <trkpt lat="44.73248" lon="6.99886">
        <ele>1906</ele>
        <time>2026-08-30T09:56:33Z</time>
      </trkpt>
      <trkpt lat="44.73248" lon="6.99887">
        <ele>1905.8</ele>
        <time>2026-08-30T09:56:38Z</time>
      </trkpt>
      <trkpt lat="44.73248" lon="6.99887">
        <ele>1905.8</ele>
        <time>2026-08-30T09:56:43Z</time>
      </trkpt>
      <trkpt lat="44.73248" lon="6.99887">
        <ele>1905.8</ele>
        <time>2026-08-30T09:56:49Z</time>
      </trkpt>
      <trkpt lat="44.73248" lon="6.99887">
        <ele>1905.8</ele>
        <time>2026-08-30T09:56:54Z</time>
      </trkpt>
      <trkpt lat="44.73248" lon="6.99887">
        <ele>1905.8</ele>
        <time>2026-08-30T09:56:59Z</time>
      </trkpt>
      <trkpt lat="44.73248" lon="6.99887">
        <ele>1905.8</ele>
        <time>2026-08-30T09:57:05Z</time>
      </trkpt>
      <trkpt lat="44.73257" lon="6.99894">
        <ele>1903.1</ele>
        <time>2026-08-30T09:57:10Z</time>
      </trkpt>
      <trkpt lat="44.73257" lon="6.99894">
        <ele>1903.1</ele>
        <time>2026-08-30T09:57:15Z</time>
      </trkpt>
      <trkpt lat="44.73257" lon="6.99894">
        <ele>1903.1</ele>
        <time>2026-08-30T09:57:21Z</time>
      </trkpt>
      <trkpt lat="44.73257" lon="6.99894">
        <ele>1903.1</ele>
        <time>2026-08-30T09:57:26Z</time>
      </trkpt>
      <trkpt lat="44.73257" lon="6.99894">
        <ele>1903.1</ele>
        <time>2026-08-30T09:57:31Z</time>
      </trkpt>
      <trkpt lat="44.73257" lon="6.99894">
        <ele>1903.1</ele>
        <time>2026-08-30T09:57:37Z</time>
      </trkpt>
      <trkpt lat="44.73257" lon="6.99894">
        <ele>1903.1</ele>
        <time>2026-08-30T09:57:42Z</time>
      </trkpt>
      <trkpt lat="44.73257" lon="6.99894">
        <ele>1903.1</ele>
        <time>2026-08-30T09:57:47Z</time>
      </trkpt>
      <trkpt lat="44.73256" lon="6.99902">
        <ele>1902.4</ele>
        <time>2026-08-30T09:57:53Z</time>
      </trkpt>
      <trkpt lat="44.73255" lon="6.99903">
        <ele>1902.5</ele>
        <time>2026-08-30T09:57:58Z</time>
      </trkpt>
      <trkpt lat="44.73255" lon="6.99903">
        <ele>1902.5</ele>
        <time>2026-08-30T09:58:03Z</time>
      </trkpt>
      <trkpt lat="44.73255" lon="6.99903">
        <ele>1902.5</ele>
        <time>2026-08-30T09:58:09Z</time>
      </trkpt>
      <trkpt lat="44.73255" lon="6.99903">
        <ele>1902.5</ele>
        <time>2026-08-30T09:58:14Z</time>
      </trkpt>
      <trkpt lat="44.73255" lon="6.99903">
        <ele>1902.5</ele>
        <time>2026-08-30T09:58:19Z</time>
      </trkpt>
      <trkpt lat="44.73255" lon="6.99903">
        <ele>1902.5</ele>
        <time>2026-08-30T09:58:25Z</time>
      </trkpt>
      <trkpt lat="44.73245" lon="6.99901">
        <ele>1904.5</ele>
        <time>2026-08-30T09:58:30Z</time>
      </trkpt>
      <trkpt lat="44.73245" lon="6.99901">
        <ele>1904.5</ele>
        <time>2026-08-30T09:58:35Z</time>
      </trkpt>
      <trkpt lat="44.73245" lon="6.99901">
        <ele>1904.5</ele>
        <time>2026-08-30T09:58:41Z</time>
      </trkpt>
      <trkpt lat="44.73245" lon="6.99901">
        <ele>1904.5</ele>
        <time>2026-08-30T09:58:46Z</time>
      </trkpt>
      <trkpt lat="44.73245" lon="6.99901">
        <ele>1904.5</ele>
        <time>2026-08-30T09:58:51Z</time>
      </trkpt>
      <trkpt lat="44.73245" lon="6.99901">
        <ele>1904.5</ele>
        <time>2026-08-30T09:58:57Z</time>
      </trkpt>
      <trkpt lat="44.73245" lon="6.99901">
        <ele>1904.5</ele>
        <time>2026-08-30T09:59:02Z</time>
      </trkpt>
      <trkpt lat="44.73245" lon="6.99901">
        <ele>1904.5</ele>
        <time>2026-08-30T09:59:07Z</time>
      </trkpt>
      <trkpt lat="44.73245" lon="6.99901">
        <ele>1904.5</ele>
        <time>2026-08-30T09:59:13Z</time>
      </trkpt>
      <trkpt lat="44.73236" lon="6.99898">
        <ele>1906.1</ele>
        <time>2026-08-30T09:59:18Z</time>
      </trkpt>
      <trkpt lat="44.73236" lon="6.99897">
        <ele>1906.2</ele>
        <time>2026-08-30T09:59:23Z</time>
      </trkpt>
      <trkpt lat="44.73236" lon="6.99897">
        <ele>1906.2</ele>
        <time>2026-08-30T09:59:29Z</time>
      </trkpt>
      <trkpt lat="44.73236" lon="6.99897">
        <ele>1906.2</ele>
        <time>2026-08-30T09:59:34Z</time>
      </trkpt>
      <trkpt lat="44.73236" lon="6.99897">
        <ele>1906.2</ele>
        <time>2026-08-30T09:59:39Z</time>
      </trkpt>
      <trkpt lat="44.7323" lon="6.99907">
        <ele>1905.7</ele>
        <time>2026-08-30T09:59:45Z</time>
      </trkpt>
      <trkpt lat="44.7323" lon="6.99907">
        <ele>1905.7</ele>
        <time>2026-08-30T09:59:50Z</time>
      </trkpt>
      <trkpt lat="44.7323" lon="6.99907">
        <ele>1905.7</ele>
        <time>2026-08-30T09:59:55Z</time>
      </trkpt>
      <trkpt lat="44.7323" lon="6.99907">
        <ele>1905.7</ele>
        <time>2026-08-30T10:00:01Z</time>
      </trkpt>
      <trkpt lat="44.7323" lon="6.99907">
        <ele>1905.7</ele>
        <time>2026-08-30T10:00:06Z</time>
      </trkpt>
      <trkpt lat="44.73222" lon="6.99909">
        <ele>1906.4</ele>
        <time>2026-08-30T10:00:11Z</time>
      </trkpt>
      <trkpt lat="44.73222" lon="6.99906">
        <ele>1906.8</ele>
        <time>2026-08-30T10:00:17Z</time>
      </trkpt>
      <trkpt lat="44.73222" lon="6.99906">
        <ele>1906.8</ele>
        <time>2026-08-30T10:00:22Z</time>
      </trkpt>
      <trkpt lat="44.73222" lon="6.99906">
        <ele>1906.8</ele>
        <time>2026-08-30T10:00:27Z</time>
      </trkpt>
      <trkpt lat="44.73222" lon="6.99906">
        <ele>1906.8</ele>
        <time>2026-08-30T10:00:33Z</time>
      </trkpt>
      <trkpt lat="44.73212" lon="6.99897">
        <ele>1909.4</ele>
        <time>2026-08-30T10:00:38Z</time>
      </trkpt>
      <trkpt lat="44.7321" lon="6.99897">
        <ele>1909.6</ele>
        <time>2026-08-30T10:00:43Z</time>
      </trkpt>
      <trkpt lat="44.7321" lon="6.99898">
        <ele>1909.5</ele>
        <time>2026-08-30T10:00:49Z</time>
      </trkpt>
      <trkpt lat="44.7321" lon="6.99898">
        <ele>1909.5</ele>
        <time>2026-08-30T10:00:54Z</time>
      </trkpt>
      <trkpt lat="44.732" lon="6.99895">
        <ele>1911.2</ele>
        <time>2026-08-30T10:00:59Z</time>
      </trkpt>
      <trkpt lat="44.73197" lon="6.99893">
        <ele>1911.9</ele>
        <time>2026-08-30T10:01:05Z</time>
      </trkpt>
      <trkpt lat="44.73193" lon="6.99893">
        <ele>1912.5</ele>
        <time>2026-08-30T10:01:10Z</time>
      </trkpt>
      <trkpt lat="44.7319" lon="6.99895">
        <ele>1912.5</ele>
        <time>2026-08-30T10:01:15Z</time>
      </trkpt>
      <trkpt lat="44.73187" lon="6.99896">
        <ele>1912.8</ele>
        <time>2026-08-30T10:01:21Z</time>
      </trkpt>
      <trkpt lat="44.73185" lon="6.99898">
        <ele>1912.7</ele>
        <time>2026-08-30T10:01:26Z</time>
      </trkpt>
      <trkpt lat="44.73183" lon="6.99902">
        <ele>1912.4</ele>
        <time>2026-08-30T10:01:31Z</time>
      </trkpt>
      <trkpt lat="44.73183" lon="6.99902">
        <ele>1912.4</ele>
        <time>2026-08-30T10:01:37Z</time>
      </trkpt>
      <trkpt lat="44.73179" lon="6.99908">
        <ele>1911.9</ele>
        <time>2026-08-30T10:01:42Z</time>
      </trkpt>
      <trkpt lat="44.73178" lon="6.9991">
        <ele>1911.7</ele>
        <time>2026-08-30T10:01:47Z</time>
      </trkpt>
      <trkpt lat="44.73179" lon="6.99915">
        <ele>1910.8</ele>
        <time>2026-08-30T10:01:53Z</time>
      </trkpt>
      <trkpt lat="44.73178" lon="6.99919">
        <ele>1910.2</ele>
        <time>2026-08-30T10:01:58Z</time>
      </trkpt>
      <trkpt lat="44.73177" lon="6.99922">
        <ele>1909.8</ele>
        <time>2026-08-30T10:02:03Z</time>
      </trkpt>
      <trkpt lat="44.73174" lon="6.99927">
        <ele>1909.3</ele>
        <time>2026-08-30T10:02:09Z</time>
      </trkpt>
      <trkpt lat="44.73172" lon="6.99927">
        <ele>1909.5</ele>
        <time>2026-08-30T10:02:14Z</time>
      </trkpt>
      <trkpt lat="44.73172" lon="6.99927">
        <ele>1909.5</ele>
        <time>2026-08-30T10:02:19Z</time>
      </trkpt>
      <trkpt lat="44.73172" lon="6.99927">
        <ele>1909.5</ele>
        <time>2026-08-30T10:02:25Z</time>
      </trkpt>
      <trkpt lat="44.73172" lon="6.99927">
        <ele>1909.5</ele>
        <time>2026-08-30T10:02:30Z</time>
      </trkpt>
      <trkpt lat="44.73172" lon="6.99927">
        <ele>1909.5</ele>
        <time>2026-08-30T10:02:35Z</time>
      </trkpt>
      <trkpt lat="44.73172" lon="6.99927">
        <ele>1909.5</ele>
        <time>2026-08-30T10:02:41Z</time>
      </trkpt>
      <trkpt lat="44.7317" lon="6.99937">
        <ele>1907.9</ele>
        <time>2026-08-30T10:02:46Z</time>
      </trkpt>
      <trkpt lat="44.73166" lon="6.99941">
        <ele>1907.7</ele>
        <time>2026-08-30T10:02:51Z</time>
      </trkpt>
      <trkpt lat="44.73162" lon="6.99947">
        <ele>1907.4</ele>
        <time>2026-08-30T10:02:57Z</time>
      </trkpt>
      <trkpt lat="44.73157" lon="6.99951">
        <ele>1907.6</ele>
        <time>2026-08-30T10:03:02Z</time>
      </trkpt>
      <trkpt lat="44.73153" lon="6.99956">
        <ele>1907.4</ele>
        <time>2026-08-30T10:03:07Z</time>
      </trkpt>
      <trkpt lat="44.73145" lon="6.99961">
        <ele>1907.9</ele>
        <time>2026-08-30T10:03:13Z</time>
      </trkpt>
      <trkpt lat="44.7314" lon="6.99965">
        <ele>1908.1</ele>
        <time>2026-08-30T10:03:18Z</time>
      </trkpt>
      <trkpt lat="44.73133" lon="6.99968">
        <ele>1908.8</ele>
        <time>2026-08-30T10:03:23Z</time>
      </trkpt>
      <trkpt lat="44.73126" lon="6.99971">
        <ele>1909.5</ele>
        <time>2026-08-30T10:03:29Z</time>
      </trkpt>
      <trkpt lat="44.73121" lon="6.99971">
        <ele>1910.4</ele>
        <time>2026-08-30T10:03:34Z</time>
      </trkpt>
      <trkpt lat="44.73115" lon="6.9997">
        <ele>1911.7</ele>
        <time>2026-08-30T10:03:39Z</time>
      </trkpt>
      <trkpt lat="44.73111" lon="6.99977">
        <ele>1911.2</ele>
        <time>2026-08-30T10:03:45Z</time>
      </trkpt>
      <trkpt lat="44.73104" lon="6.99981">
        <ele>1911.7</ele>
        <time>2026-08-30T10:03:50Z</time>
      </trkpt>
      <trkpt lat="44.73099" lon="6.99985">
        <ele>1911.9</ele>
        <time>2026-08-30T10:03:55Z</time>
      </trkpt>
      <trkpt lat="44.73091" lon="6.99987">
        <ele>1913</ele>
        <time>2026-08-30T10:04:01Z</time>
      </trkpt>
      <trkpt lat="44.73085" lon="6.99991">
        <ele>1913.3</ele>
        <time>2026-08-30T10:04:06Z</time>
      </trkpt>
      <trkpt lat="44.7308" lon="6.99995">
        <ele>1913.9</ele>
        <time>2026-08-30T10:04:11Z</time>
      </trkpt>
      <trkpt lat="44.73074" lon="7.00003">
        <ele>1914.6</ele>
        <time>2026-08-30T10:04:17Z</time>
      </trkpt>
      <trkpt lat="44.73072" lon="7.00007">
        <ele>1914.7</ele>
        <time>2026-08-30T10:04:22Z</time>
      </trkpt>
      <trkpt lat="44.7307" lon="7.00009">
        <ele>1915.1</ele>
        <time>2026-08-30T10:04:27Z</time>
      </trkpt>
      <trkpt lat="44.73062" lon="7.00015">
        <ele>1916.9</ele>
        <time>2026-08-30T10:04:33Z</time>
      </trkpt>
      <trkpt lat="44.73058" lon="7.00019">
        <ele>1917.6</ele>
        <time>2026-08-30T10:04:38Z</time>
      </trkpt>
      <trkpt lat="44.73055" lon="7.00022">
        <ele>1918.2</ele>
        <time>2026-08-30T10:04:43Z</time>
      </trkpt>
      <trkpt lat="44.7305" lon="7.00029">
        <ele>1918.9</ele>
        <time>2026-08-30T10:04:49Z</time>
      </trkpt>
      <trkpt lat="44.73047" lon="7.00034">
        <ele>1919.1</ele>
        <time>2026-08-30T10:04:54Z</time>
      </trkpt>
      <trkpt lat="44.73045" lon="7.00042">
        <ele>1918.7</ele>
        <time>2026-08-30T10:04:59Z</time>
      </trkpt>
      <trkpt lat="44.73045" lon="7.00051">
        <ele>1917.6</ele>
        <time>2026-08-30T10:05:05Z</time>
      </trkpt>
      <trkpt lat="44.73045" lon="7.00058">
        <ele>1916.7</ele>
        <time>2026-08-30T10:05:10Z</time>
      </trkpt>
      <trkpt lat="44.73043" lon="7.00063">
        <ele>1916.7</ele>
        <time>2026-08-30T10:05:15Z</time>
      </trkpt>
      <trkpt lat="44.73042" lon="7.00072">
        <ele>1915.8</ele>
        <time>2026-08-30T10:05:21Z</time>
      </trkpt>
      <trkpt lat="44.7304" lon="7.00079">
        <ele>1915.5</ele>
        <time>2026-08-30T10:05:26Z</time>
      </trkpt>
      <trkpt lat="44.73037" lon="7.00086">
        <ele>1915.6</ele>
        <time>2026-08-30T10:05:31Z</time>
      </trkpt>
      <trkpt lat="44.73032" lon="7.00092">
        <ele>1916.5</ele>
        <time>2026-08-30T10:05:37Z</time>
      </trkpt>
      <trkpt lat="44.73028" lon="7.00098">
        <ele>1917</ele>
        <time>2026-08-30T10:05:42Z</time>
      </trkpt>
      <trkpt lat="44.73023" lon="7.00102">
        <ele>1917.8</ele>
        <time>2026-08-30T10:05:47Z</time>
      </trkpt>
      <trkpt lat="44.73018" lon="7.00103">
        <ele>1918.7</ele>
        <time>2026-08-30T10:05:53Z</time>
      </trkpt>
      <trkpt lat="44.73016" lon="7.00104">
        <ele>1919.1</ele>
        <time>2026-08-30T10:05:58Z</time>
      </trkpt>
      <trkpt lat="44.73015" lon="7.00106">
        <ele>1919</ele>
        <time>2026-08-30T10:06:03Z</time>
      </trkpt>
      <trkpt lat="44.73015" lon="7.00106">
        <ele>1919</ele>
        <time>2026-08-30T10:06:09Z</time>
      </trkpt>
      <trkpt lat="44.73015" lon="7.00106">
        <ele>1919</ele>
        <time>2026-08-30T10:06:14Z</time>
      </trkpt>
      <trkpt lat="44.73015" lon="7.00106">
        <ele>1919</ele>
        <time>2026-08-30T10:06:19Z</time>
      </trkpt>
      <trkpt lat="44.73013" lon="7.00105">
        <ele>1919.6</ele>
        <time>2026-08-30T10:06:25Z</time>
      </trkpt>
      <trkpt lat="44.73007" lon="7.00105">
        <ele>1920.9</ele>
        <time>2026-08-30T10:06:30Z</time>
      </trkpt>
      <trkpt lat="44.73001" lon="7.00108">
        <ele>1921.7</ele>
        <time>2026-08-30T10:06:35Z</time>
      </trkpt>
      <trkpt lat="44.72994" lon="7.00111">
        <ele>1923</ele>
        <time>2026-08-30T10:06:41Z</time>
      </trkpt>
      <trkpt lat="44.72991" lon="7.00113">
        <ele>1923.4</ele>
        <time>2026-08-30T10:06:46Z</time>
      </trkpt>
      <trkpt lat="44.72988" lon="7.00113">
        <ele>1924.2</ele>
        <time>2026-08-30T10:06:51Z</time>
      </trkpt>
      <trkpt lat="44.72982" lon="7.00117">
        <ele>1925.1</ele>
        <time>2026-08-30T10:06:57Z</time>
      </trkpt>
      <trkpt lat="44.7298" lon="7.00119">
        <ele>1925.3</ele>
        <time>2026-08-30T10:07:02Z</time>
      </trkpt>
      <trkpt lat="44.72977" lon="7.00123">
        <ele>1925.3</ele>
        <time>2026-08-30T10:07:07Z</time>
      </trkpt>
      <trkpt lat="44.72973" lon="7.00129">
        <ele>1925.2</ele>
        <time>2026-08-30T10:07:13Z</time>
      </trkpt>
      <trkpt lat="44.72969" lon="7.00132">
        <ele>1925.7</ele>
        <time>2026-08-30T10:07:18Z</time>
      </trkpt>
      <trkpt lat="44.72966" lon="7.00138">
        <ele>1925.3</ele>
        <time>2026-08-30T10:07:23Z</time>
      </trkpt>
      <trkpt lat="44.72963" lon="7.00141">
        <ele>1925.4</ele>
        <time>2026-08-30T10:07:29Z</time>
      </trkpt>
      <trkpt lat="44.72959" lon="7.00142">
        <ele>1926.2</ele>
        <time>2026-08-30T10:07:34Z</time>
      </trkpt>
      <trkpt lat="44.72955" lon="7.00145">
        <ele>1926.6</ele>
        <time>2026-08-30T10:07:39Z</time>
      </trkpt>
      <trkpt lat="44.72951" lon="7.00147">
        <ele>1927.2</ele>
        <time>2026-08-30T10:07:45Z</time>
      </trkpt>
      <trkpt lat="44.72948" lon="7.0015">
        <ele>1927.3</ele>
        <time>2026-08-30T10:07:50Z</time>
      </trkpt>
      <trkpt lat="44.72945" lon="7.00153">
        <ele>1927.4</ele>
        <time>2026-08-30T10:07:55Z</time>
      </trkpt>
      <trkpt lat="44.72944" lon="7.00155">
        <ele>1927.2</ele>
        <time>2026-08-30T10:08:01Z</time>
      </trkpt>
      <trkpt lat="44.72944" lon="7.00155">
        <ele>1927.2</ele>
        <time>2026-08-30T10:08:06Z</time>
      </trkpt>
      <trkpt lat="44.72951" lon="7.0016">
        <ele>1924.5</ele>
        <time>2026-08-30T10:08:11Z</time>
      </trkpt>
      <trkpt lat="44.72954" lon="7.00157">
        <ele>1924.4</ele>
        <time>2026-08-30T10:08:17Z</time>
      </trkpt>
      <trkpt lat="44.72957" lon="7.00153">
        <ele>1924.5</ele>
        <time>2026-08-30T10:08:22Z</time>
      </trkpt>
      <trkpt lat="44.72961" lon="7.00151">
        <ele>1924</ele>
        <time>2026-08-30T10:08:27Z</time>
      </trkpt>
      <trkpt lat="44.72963" lon="7.0015">
        <ele>1923.7</ele>
        <time>2026-08-30T10:08:33Z</time>
      </trkpt>
      <trkpt lat="44.72963" lon="7.0015">
        <ele>1923.7</ele>
        <time>2026-08-30T10:08:38Z</time>
      </trkpt>
      <trkpt lat="44.72963" lon="7.0015">
        <ele>1923.7</ele>
        <time>2026-08-30T10:08:43Z</time>
      </trkpt>
      <trkpt lat="44.72963" lon="7.0015">
        <ele>1923.7</ele>
        <time>2026-08-30T10:08:49Z</time>
      </trkpt>
      <trkpt lat="44.72963" lon="7.0015">
        <ele>1923.7</ele>
        <time>2026-08-30T10:08:54Z</time>
      </trkpt>
      <trkpt lat="44.72963" lon="7.0015">
        <ele>1923.7</ele>
        <time>2026-08-30T10:08:59Z</time>
      </trkpt>
      <trkpt lat="44.72963" lon="7.0015">
        <ele>1923.7</ele>
        <time>2026-08-30T10:09:05Z</time>
      </trkpt>
      <trkpt lat="44.72963" lon="7.0015">
        <ele>1923.7</ele>
        <time>2026-08-30T10:09:10Z</time>
      </trkpt>
      <trkpt lat="44.72963" lon="7.0015">
        <ele>1923.7</ele>
        <time>2026-08-30T10:09:15Z</time>
      </trkpt>
      <trkpt lat="44.72963" lon="7.0015">
        <ele>1923.7</ele>
        <time>2026-08-30T10:09:21Z</time>
      </trkpt>
      <trkpt lat="44.72963" lon="7.0015">
        <ele>1923.7</ele>
        <time>2026-08-30T10:09:26Z</time>
      </trkpt>
      <trkpt lat="44.72963" lon="7.0015">
        <ele>1923.7</ele>
        <time>2026-08-30T10:09:31Z</time>
      </trkpt>
      <trkpt lat="44.72963" lon="7.0015">
        <ele>1923.7</ele>
        <time>2026-08-30T10:09:37Z</time>
      </trkpt>
      <trkpt lat="44.72963" lon="7.0015">
        <ele>1923.7</ele>
        <time>2026-08-30T10:09:42Z</time>
      </trkpt>
      <trkpt lat="44.72963" lon="7.0015">
        <ele>1923.7</ele>
        <time>2026-08-30T10:09:47Z</time>
      </trkpt>
      <trkpt lat="44.72963" lon="7.0015">
        <ele>1923.7</ele>
        <time>2026-08-30T10:09:53Z</time>
      </trkpt>
      <trkpt lat="44.72966" lon="7.00151">
        <ele>1922.8</ele>
        <time>2026-08-30T10:09:58Z</time>
      </trkpt>
      <trkpt lat="44.72969" lon="7.00144">
        <ele>1923.4</ele>
        <time>2026-08-30T10:10:03Z</time>
      </trkpt>
      <trkpt lat="44.72973" lon="7.00135">
        <ele>1924.1</ele>
        <time>2026-08-30T10:10:09Z</time>
      </trkpt>
      <trkpt lat="44.72977" lon="7.00131">
        <ele>1923.8</ele>
        <time>2026-08-30T10:10:14Z</time>
      </trkpt>
      <trkpt lat="44.7298" lon="7.00127">
        <ele>1923.8</ele>
        <time>2026-08-30T10:10:19Z</time>
      </trkpt>
      <trkpt lat="44.72982" lon="7.00123">
        <ele>1924</ele>
        <time>2026-08-30T10:10:25Z</time>
      </trkpt>
      <trkpt lat="44.72986" lon="7.00121">
        <ele>1923.3</ele>
        <time>2026-08-30T10:10:30Z</time>
      </trkpt>
      <trkpt lat="44.72988" lon="7.00118">
        <ele>1923.3</ele>
        <time>2026-08-30T10:10:35Z</time>
      </trkpt>
      <trkpt lat="44.72991" lon="7.00113">
        <ele>1923.4</ele>
        <time>2026-08-30T10:10:41Z</time>
      </trkpt>
      <trkpt lat="44.72992" lon="7.00111">
        <ele>1923.5</ele>
        <time>2026-08-30T10:10:46Z</time>
      </trkpt>
      <trkpt lat="44.72996" lon="7.0011">
        <ele>1922.6</ele>
        <time>2026-08-30T10:10:51Z</time>
      </trkpt>
      <trkpt lat="44.73003" lon="7.00107">
        <ele>1921.4</ele>
        <time>2026-08-30T10:10:57Z</time>
      </trkpt>
      <trkpt lat="44.73007" lon="7.00106">
        <ele>1920.7</ele>
        <time>2026-08-30T10:11:02Z</time>
      </trkpt>
      <trkpt lat="44.73011" lon="7.00106">
        <ele>1919.9</ele>
        <time>2026-08-30T10:11:07Z</time>
      </trkpt>
      <trkpt lat="44.73018" lon="7.00106">
        <ele>1918.4</ele>
        <time>2026-08-30T10:11:13Z</time>
      </trkpt>
      <trkpt lat="44.73023" lon="7.00104">
        <ele>1917.5</ele>
        <time>2026-08-30T10:11:18Z</time>
      </trkpt>
      <trkpt lat="44.73029" lon="7.00101">
        <ele>1916.5</ele>
        <time>2026-08-30T10:11:23Z</time>
      </trkpt>
      <trkpt lat="44.73035" lon="7.00094">
        <ele>1915.6</ele>
        <time>2026-08-30T10:11:29Z</time>
      </trkpt>
      <trkpt lat="44.7304" lon="7.00087">
        <ele>1914.8</ele>
        <time>2026-08-30T10:11:34Z</time>
      </trkpt>
      <trkpt lat="44.73043" lon="7.0008">
        <ele>1914.6</ele>
        <time>2026-08-30T10:11:39Z</time>
      </trkpt>
      <trkpt lat="44.73043" lon="7.00072">
        <ele>1915.6</ele>
        <time>2026-08-30T10:11:45Z</time>
      </trkpt>
      <trkpt lat="44.73043" lon="7.00063">
        <ele>1916.7</ele>
        <time>2026-08-30T10:11:50Z</time>
      </trkpt>
      <trkpt lat="44.73045" lon="7.00055">
        <ele>1917.1</ele>
        <time>2026-08-30T10:11:55Z</time>
      </trkpt>
      <trkpt lat="44.73046" lon="7.00045">
        <ele>1918.1</ele>
        <time>2026-08-30T10:12:01Z</time>
      </trkpt>
      <trkpt lat="44.73048" lon="7.00037">
        <ele>1918.5</ele>
        <time>2026-08-30T10:12:06Z</time>
      </trkpt>
      <trkpt lat="44.7305" lon="7.00032">
        <ele>1918.5</ele>
        <time>2026-08-30T10:12:11Z</time>
      </trkpt>
      <trkpt lat="44.73055" lon="7.00025">
        <ele>1917.8</ele>
        <time>2026-08-30T10:12:17Z</time>
      </trkpt>
      <trkpt lat="44.73059" lon="7.00019">
        <ele>1917.3</ele>
        <time>2026-08-30T10:12:22Z</time>
      </trkpt>
      <trkpt lat="44.73064" lon="7.00014">
        <ele>1916.4</ele>
        <time>2026-08-30T10:12:27Z</time>
      </trkpt>
      <trkpt lat="44.7307" lon="7.00008">
        <ele>1915.2</ele>
        <time>2026-08-30T10:12:33Z</time>
      </trkpt>
      <trkpt lat="44.73076" lon="7.00004">
        <ele>1913.8</ele>
        <time>2026-08-30T10:12:38Z</time>
      </trkpt>
      <trkpt lat="44.73082" lon="6.99998">
        <ele>1912.8</ele>
        <time>2026-08-30T10:12:43Z</time>
      </trkpt>
      <trkpt lat="44.73086" lon="6.99992">
        <ele>1913</ele>
        <time>2026-08-30T10:12:49Z</time>
      </trkpt>
      <trkpt lat="44.73087" lon="6.9999">
        <ele>1913.1</ele>
        <time>2026-08-30T10:12:54Z</time>
      </trkpt>
      <trkpt lat="44.73093" lon="6.99987">
        <ele>1912.6</ele>
        <time>2026-08-30T10:12:59Z</time>
      </trkpt>
      <trkpt lat="44.73101" lon="6.99985">
        <ele>1911.5</ele>
        <time>2026-08-30T10:13:05Z</time>
      </trkpt>
      <trkpt lat="44.73108" lon="6.99982">
        <ele>1910.8</ele>
        <time>2026-08-30T10:13:10Z</time>
      </trkpt>
      <trkpt lat="44.73113" lon="6.99977">
        <ele>1910.8</ele>
        <time>2026-08-30T10:13:15Z</time>
      </trkpt>
      <trkpt lat="44.73117" lon="6.99971">
        <ele>1911.2</ele>
        <time>2026-08-30T10:13:21Z</time>
      </trkpt>
      <trkpt lat="44.73122" lon="6.9997">
        <ele>1910.4</ele>
        <time>2026-08-30T10:13:26Z</time>
      </trkpt>
      <trkpt lat="44.73128" lon="6.99972">
        <ele>1909</ele>
        <time>2026-08-30T10:13:31Z</time>
      </trkpt>
      <trkpt lat="44.73136" lon="6.9997">
        <ele>1907.9</ele>
        <time>2026-08-30T10:13:37Z</time>
      </trkpt>
      <trkpt lat="44.73141" lon="6.99967">
        <ele>1907.6</ele>
        <time>2026-08-30T10:13:42Z</time>
      </trkpt>
      <trkpt lat="44.73147" lon="6.99963">
        <ele>1907.2</ele>
        <time>2026-08-30T10:13:47Z</time>
      </trkpt>
      <trkpt lat="44.73153" lon="6.99955">
        <ele>1907.6</ele>
        <time>2026-08-30T10:13:53Z</time>
      </trkpt>
      <trkpt lat="44.73157" lon="6.9995">
        <ele>1907.7</ele>
        <time>2026-08-30T10:13:58Z</time>
      </trkpt>
      <trkpt lat="44.73162" lon="6.99946">
        <ele>1907.6</ele>
        <time>2026-08-30T10:14:03Z</time>
      </trkpt>
      <trkpt lat="44.73167" lon="6.99939">
        <ele>1907.9</ele>
        <time>2026-08-30T10:14:09Z</time>
      </trkpt>
      <trkpt lat="44.7317" lon="6.99933">
        <ele>1908.7</ele>
        <time>2026-08-30T10:14:14Z</time>
      </trkpt>
      <trkpt lat="44.73175" lon="6.99929">
        <ele>1908.8</ele>
        <time>2026-08-30T10:14:19Z</time>
      </trkpt>
      <trkpt lat="44.73177" lon="6.99933">
        <ele>1907.8</ele>
        <time>2026-08-30T10:14:25Z</time>
      </trkpt>
      <trkpt lat="44.73177" lon="6.99934">
        <ele>1907.7</ele>
        <time>2026-08-30T10:14:30Z</time>
      </trkpt>
      <trkpt lat="44.73177" lon="6.99934">
        <ele>1907.7</ele>
        <time>2026-08-30T10:14:35Z</time>
      </trkpt>
      <trkpt lat="44.73177" lon="6.99934">
        <ele>1907.7</ele>
        <time>2026-08-30T10:14:41Z</time>
      </trkpt>
      <trkpt lat="44.73185" lon="6.99935">
        <ele>1906.5</ele>
        <time>2026-08-30T10:14:46Z</time>
      </trkpt>
      <trkpt lat="44.73192" lon="6.99935">
        <ele>1905.7</ele>
        <time>2026-08-30T10:14:51Z</time>
      </trkpt>
      <trkpt lat="44.73198" lon="6.99934">
        <ele>1905.2</ele>
        <time>2026-08-30T10:14:57Z</time>
      </trkpt>
      <trkpt lat="44.73198" lon="6.99937">
        <ele>1904.7</ele>
        <time>2026-08-30T10:15:02Z</time>
      </trkpt>
      <trkpt lat="44.73197" lon="6.99937">
        <ele>1904.8</ele>
        <time>2026-08-30T10:15:07Z</time>
      </trkpt>
      <trkpt lat="44.73197" lon="6.99937">
        <ele>1904.8</ele>
        <time>2026-08-30T10:15:13Z</time>
      </trkpt>
      <trkpt lat="44.73197" lon="6.99937">
        <ele>1904.8</ele>
        <time>2026-08-30T10:15:18Z</time>
      </trkpt>
      <trkpt lat="44.73197" lon="6.99937">
        <ele>1904.8</ele>
        <time>2026-08-30T10:15:23Z</time>
      </trkpt>
      <trkpt lat="44.73197" lon="6.99937">
        <ele>1904.8</ele>
        <time>2026-08-30T10:15:29Z</time>
      </trkpt>
      <trkpt lat="44.73197" lon="6.99937">
        <ele>1904.8</ele>
        <time>2026-08-30T10:15:34Z</time>
      </trkpt>
      <trkpt lat="44.73197" lon="6.99937">
        <ele>1904.8</ele>
        <time>2026-08-30T10:15:39Z</time>
      </trkpt>
      <trkpt lat="44.73197" lon="6.99937">
        <ele>1904.8</ele>
        <time>2026-08-30T10:15:45Z</time>
      </trkpt>
      <trkpt lat="44.73197" lon="6.99937">
        <ele>1904.8</ele>
        <time>2026-08-30T10:15:50Z</time>
      </trkpt>
      <trkpt lat="44.73197" lon="6.99937">
        <ele>1904.8</ele>
        <time>2026-08-30T10:15:55Z</time>
      </trkpt>
      <trkpt lat="44.73197" lon="6.99937">
        <ele>1904.8</ele>
        <time>2026-08-30T10:16:01Z</time>
      </trkpt>
      <trkpt lat="44.73197" lon="6.99937">
        <ele>1904.8</ele>
        <time>2026-08-30T10:16:06Z</time>
      </trkpt>
      <trkpt lat="44.73197" lon="6.99937">
        <ele>1904.8</ele>
        <time>2026-08-30T10:16:11Z</time>
      </trkpt>
      <trkpt lat="44.73197" lon="6.99937">
        <ele>1904.8</ele>
        <time>2026-08-30T10:16:17Z</time>
      </trkpt>
      <trkpt lat="44.73197" lon="6.99937">
        <ele>1904.8</ele>
        <time>2026-08-30T10:16:22Z</time>
      </trkpt>
      <trkpt lat="44.73197" lon="6.99937">
        <ele>1904.8</ele>
        <time>2026-08-30T10:16:27Z</time>
      </trkpt>
      <trkpt lat="44.73197" lon="6.99937">
        <ele>1904.8</ele>
        <time>2026-08-30T10:16:33Z</time>
      </trkpt>
      <trkpt lat="44.73197" lon="6.99937">
        <ele>1904.8</ele>
        <time>2026-08-30T10:16:38Z</time>
      </trkpt>
      <trkpt lat="44.73197" lon="6.99937">
        <ele>1904.8</ele>
        <time>2026-08-30T10:16:43Z</time>
      </trkpt>
      <trkpt lat="44.73197" lon="6.99937">
        <ele>1904.8</ele>
        <time>2026-08-30T10:16:49Z</time>
      </trkpt>
      <trkpt lat="44.73197" lon="6.99937">
        <ele>1904.8</ele>
        <time>2026-08-30T10:16:54Z</time>
      </trkpt>
      <trkpt lat="44.73197" lon="6.99937">
        <ele>1904.8</ele>
        <time>2026-08-30T10:16:59Z</time>
      </trkpt>
      <trkpt lat="44.73197" lon="6.99937">
        <ele>1904.8</ele>
        <time>2026-08-30T10:17:05Z</time>
      </trkpt>
      <trkpt lat="44.73197" lon="6.99937">
        <ele>1904.8</ele>
        <time>2026-08-30T10:17:10Z</time>
      </trkpt>
      <trkpt lat="44.73197" lon="6.99937">
        <ele>1904.8</ele>
        <time>2026-08-30T10:17:15Z</time>
      </trkpt>
      <trkpt lat="44.73197" lon="6.99937">
        <ele>1904.8</ele>
        <time>2026-08-30T10:17:21Z</time>
      </trkpt>
      <trkpt lat="44.73197" lon="6.99937">
        <ele>1904.8</ele>
        <time>2026-08-30T10:17:26Z</time>
      </trkpt>
      <trkpt lat="44.73197" lon="6.99937">
        <ele>1904.8</ele>
        <time>2026-08-30T10:17:31Z</time>
      </trkpt>
      <trkpt lat="44.73197" lon="6.99937">
        <ele>1904.8</ele>
        <time>2026-08-30T10:17:37Z</time>
      </trkpt>
      <trkpt lat="44.73197" lon="6.99937">
        <ele>1904.8</ele>
        <time>2026-08-30T10:17:42Z</time>
      </trkpt>
      <trkpt lat="44.73197" lon="6.99937">
        <ele>1904.8</ele>
        <time>2026-08-30T10:17:47Z</time>
      </trkpt>
      <trkpt lat="44.73197" lon="6.99937">
        <ele>1904.8</ele>
        <time>2026-08-30T10:17:53Z</time>
      </trkpt>
      <trkpt lat="44.73197" lon="6.99937">
        <ele>1904.8</ele>
        <time>2026-08-30T10:17:58Z</time>
      </trkpt>
      <trkpt lat="44.73197" lon="6.99937">
        <ele>1904.8</ele>
        <time>2026-08-30T10:18:03Z</time>
      </trkpt>
      <trkpt lat="44.73197" lon="6.99937">
        <ele>1904.8</ele>
        <time>2026-08-30T10:18:09Z</time>
      </trkpt>
      <trkpt lat="44.73197" lon="6.99937">
        <ele>1904.8</ele>
        <time>2026-08-30T10:18:14Z</time>
      </trkpt>
      <trkpt lat="44.73197" lon="6.99937">
        <ele>1904.8</ele>
        <time>2026-08-30T10:18:19Z</time>
      </trkpt>
      <trkpt lat="44.73197" lon="6.99937">
        <ele>1904.8</ele>
        <time>2026-08-30T10:18:25Z</time>
      </trkpt>
      <trkpt lat="44.73197" lon="6.99937">
        <ele>1904.8</ele>
        <time>2026-08-30T10:18:30Z</time>
      </trkpt>
      <trkpt lat="44.73197" lon="6.99937">
        <ele>1904.8</ele>
        <time>2026-08-30T10:18:35Z</time>
      </trkpt>
      <trkpt lat="44.73197" lon="6.99937">
        <ele>1904.8</ele>
        <time>2026-08-30T10:18:41Z</time>
      </trkpt>
      <trkpt lat="44.73197" lon="6.99937">
        <ele>1904.8</ele>
        <time>2026-08-30T10:18:46Z</time>
      </trkpt>
      <trkpt lat="44.73197" lon="6.99937">
        <ele>1904.8</ele>
        <time>2026-08-30T10:18:51Z</time>
      </trkpt>
      <trkpt lat="44.73197" lon="6.99937">
        <ele>1904.8</ele>
        <time>2026-08-30T10:18:57Z</time>
      </trkpt>
      <trkpt lat="44.73197" lon="6.99937">
        <ele>1904.8</ele>
        <time>2026-08-30T10:19:02Z</time>
      </trkpt>
      <trkpt lat="44.73197" lon="6.99937">
        <ele>1904.8</ele>
        <time>2026-08-30T10:19:07Z</time>
      </trkpt>
      <trkpt lat="44.73197" lon="6.99937">
        <ele>1904.8</ele>
        <time>2026-08-30T10:19:13Z</time>
      </trkpt>
      <trkpt lat="44.73197" lon="6.99937">
        <ele>1904.8</ele>
        <time>2026-08-30T10:19:18Z</time>
      </trkpt>
      <trkpt lat="44.73197" lon="6.99937">
        <ele>1904.8</ele>
        <time>2026-08-30T10:19:23Z</time>
      </trkpt>
      <trkpt lat="44.73197" lon="6.99937">
        <ele>1904.8</ele>
        <time>2026-08-30T10:19:29Z</time>
      </trkpt>
      <trkpt lat="44.73197" lon="6.99937">
        <ele>1904.8</ele>
        <time>2026-08-30T10:19:34Z</time>
      </trkpt>
      <trkpt lat="44.73197" lon="6.99937">
        <ele>1904.8</ele>
        <time>2026-08-30T10:19:39Z</time>
      </trkpt>
      <trkpt lat="44.73197" lon="6.99937">
        <ele>1904.8</ele>
        <time>2026-08-30T10:19:45Z</time>
      </trkpt>
      <trkpt lat="44.73197" lon="6.99937">
        <ele>1904.8</ele>
        <time>2026-08-30T10:19:50Z</time>
      </trkpt>
      <trkpt lat="44.73197" lon="6.99937">
        <ele>1904.8</ele>
        <time>2026-08-30T10:19:55Z</time>
      </trkpt>
      <trkpt lat="44.73197" lon="6.99937">
        <ele>1904.8</ele>
        <time>2026-08-30T10:20:01Z</time>
      </trkpt>
      <trkpt lat="44.73197" lon="6.99937">
        <ele>1904.8</ele>
        <time>2026-08-30T10:20:06Z</time>
      </trkpt>
      <trkpt lat="44.73197" lon="6.99937">
        <ele>1904.8</ele>
        <time>2026-08-30T10:20:11Z</time>
      </trkpt>
      <trkpt lat="44.73197" lon="6.99937">
        <ele>1904.8</ele>
        <time>2026-08-30T10:20:17Z</time>
      </trkpt>
      <trkpt lat="44.73197" lon="6.99937">
        <ele>1904.8</ele>
        <time>2026-08-30T10:20:22Z</time>
      </trkpt>
      <trkpt lat="44.73197" lon="6.99937">
        <ele>1904.8</ele>
        <time>2026-08-30T10:20:27Z</time>
      </trkpt>
      <trkpt lat="44.73197" lon="6.99937">
        <ele>1904.8</ele>
        <time>2026-08-30T10:20:33Z</time>
      </trkpt>
      <trkpt lat="44.73197" lon="6.99937">
        <ele>1904.8</ele>
        <time>2026-08-30T10:20:38Z</time>
      </trkpt>
      <trkpt lat="44.73197" lon="6.99937">
        <ele>1904.8</ele>
        <time>2026-08-30T10:20:43Z</time>
      </trkpt>
      <trkpt lat="44.73197" lon="6.99937">
        <ele>1904.8</ele>
        <time>2026-08-30T10:20:49Z</time>
      </trkpt>
      <trkpt lat="44.73197" lon="6.99937">
        <ele>1904.8</ele>
        <time>2026-08-30T10:20:54Z</time>
      </trkpt>
      <trkpt lat="44.73197" lon="6.99937">
        <ele>1904.8</ele>
        <time>2026-08-30T10:20:59Z</time>
      </trkpt>
      <trkpt lat="44.73197" lon="6.99937">
        <ele>1904.8</ele>
        <time>2026-08-30T10:21:05Z</time>
      </trkpt>
      <trkpt lat="44.73197" lon="6.99937">
        <ele>1904.8</ele>
        <time>2026-08-30T10:21:10Z</time>
      </trkpt>
      <trkpt lat="44.73197" lon="6.99937">
        <ele>1904.8</ele>
        <time>2026-08-30T10:21:15Z</time>
      </trkpt>
      <trkpt lat="44.73197" lon="6.99937">
        <ele>1904.8</ele>
        <time>2026-08-30T10:21:21Z</time>
      </trkpt>
      <trkpt lat="44.73197" lon="6.99937">
        <ele>1904.8</ele>
        <time>2026-08-30T10:21:26Z</time>
      </trkpt>
      <trkpt lat="44.73197" lon="6.99937">
        <ele>1904.8</ele>
        <time>2026-08-30T10:21:31Z</time>
      </trkpt>
      <trkpt lat="44.73197" lon="6.99937">
        <ele>1904.8</ele>
        <time>2026-08-30T10:21:37Z</time>
      </trkpt>
      <trkpt lat="44.73197" lon="6.99937">
        <ele>1904.8</ele>
        <time>2026-08-30T10:21:42Z</time>
      </trkpt>
      <trkpt lat="44.73197" lon="6.99937">
        <ele>1904.8</ele>
        <time>2026-08-30T10:21:47Z</time>
      </trkpt>
      <trkpt lat="44.73197" lon="6.99937">
        <ele>1904.8</ele>
        <time>2026-08-30T10:21:53Z</time>
      </trkpt>
      <trkpt lat="44.73197" lon="6.99937">
        <ele>1904.8</ele>
        <time>2026-08-30T10:21:58Z</time>
      </trkpt>
      <trkpt lat="44.73197" lon="6.99937">
        <ele>1904.8</ele>
        <time>2026-08-30T10:22:03Z</time>
      </trkpt>
      <trkpt lat="44.73197" lon="6.99937">
        <ele>1904.8</ele>
        <time>2026-08-30T10:22:09Z</time>
        <extensions>
          <visugpx:TrkExtension xmlns:visugpx="https://www.visugpx.com/editgpx/">
            <visugpx:node>1</visugpx:node>
            </visugpx:TrkExtension>
        </extensions>
      </trkpt>
      <trkpt lat="44.73206" lon="6.99929">
        <ele>1905.1</ele>
        <time>2026-08-31T06:02:45Z</time>
      </trkpt>
      <trkpt lat="44.73219" lon="6.99927">
        <ele>1903.9</ele>
        <time>2026-08-31T06:02:46Z</time>
      </trkpt>
      <trkpt lat="44.73204" lon="6.99917">
        <ele>1907.5</ele>
        <time>2026-08-31T06:02:52Z</time>
      </trkpt>
      <trkpt lat="44.73203" lon="6.99923">
        <ele>1906.5</ele>
        <time>2026-08-31T06:02:57Z</time>
      </trkpt>
      <trkpt lat="44.73203" lon="6.99927">
        <ele>1905.8</ele>
        <time>2026-08-31T06:03:02Z</time>
      </trkpt>
      <trkpt lat="44.73201" lon="6.99929">
        <ele>1905.7</ele>
        <time>2026-08-31T06:03:08Z</time>
      </trkpt>
      <trkpt lat="44.73199" lon="6.99931">
        <ele>1905.6</ele>
        <time>2026-08-31T06:03:13Z</time>
      </trkpt>
      <trkpt lat="44.73199" lon="6.99933">
        <ele>1905.3</ele>
        <time>2026-08-31T06:03:18Z</time>
      </trkpt>
      <trkpt lat="44.73199" lon="6.99934">
        <ele>1905.1</ele>
        <time>2026-08-31T06:03:24Z</time>
      </trkpt>
      <trkpt lat="44.73199" lon="6.99934">
        <ele>1905.1</ele>
        <time>2026-08-31T06:03:29Z</time>
      </trkpt>
      <trkpt lat="44.73196" lon="6.9994">
        <ele>1904.4</ele>
        <time>2026-08-31T06:03:34Z</time>
      </trkpt>
      <trkpt lat="44.73196" lon="6.9994">
        <ele>1904.4</ele>
        <time>2026-08-31T06:03:40Z</time>
      </trkpt>
      <trkpt lat="44.73196" lon="6.9994">
        <ele>1904.4</ele>
        <time>2026-08-31T06:03:45Z</time>
      </trkpt>
      <trkpt lat="44.73196" lon="6.9994">
        <ele>1904.4</ele>
        <time>2026-08-31T06:03:50Z</time>
      </trkpt>
      <trkpt lat="44.73196" lon="6.9994">
        <ele>1904.4</ele>
        <time>2026-08-31T06:03:56Z</time>
      </trkpt>
      <trkpt lat="44.73196" lon="6.9994">
        <ele>1904.4</ele>
        <time>2026-08-31T06:04:01Z</time>
      </trkpt>
      <trkpt lat="44.73196" lon="6.9994">
        <ele>1904.4</ele>
        <time>2026-08-31T06:04:06Z</time>
      </trkpt>
      <trkpt lat="44.73196" lon="6.9994">
        <ele>1904.4</ele>
        <time>2026-08-31T06:04:12Z</time>
      </trkpt>
      <trkpt lat="44.73196" lon="6.9994">
        <ele>1904.4</ele>
        <time>2026-08-31T06:04:17Z</time>
      </trkpt>
      <trkpt lat="44.73196" lon="6.9994">
        <ele>1904.4</ele>
        <time>2026-08-31T06:04:22Z</time>
      </trkpt>
      <trkpt lat="44.73186" lon="6.99938">
        <ele>1905.9</ele>
        <time>2026-08-31T06:04:28Z</time>
      </trkpt>
      <trkpt lat="44.73181" lon="6.99937">
        <ele>1906.7</ele>
        <time>2026-08-31T06:04:33Z</time>
      </trkpt>
      <trkpt lat="44.73178" lon="6.99936">
        <ele>1907.2</ele>
        <time>2026-08-31T06:04:38Z</time>
      </trkpt>
      <trkpt lat="44.73178" lon="6.99935">
        <ele>1907.4</ele>
        <time>2026-08-31T06:04:44Z</time>
      </trkpt>
      <trkpt lat="44.73172" lon="6.99934">
        <ele>1908.3</ele>
        <time>2026-08-31T06:04:49Z</time>
      </trkpt>
      <trkpt lat="44.73171" lon="6.99935">
        <ele>1908.2</ele>
        <time>2026-08-31T06:04:54Z</time>
      </trkpt>
      <trkpt lat="44.73169" lon="6.99939">
        <ele>1907.7</ele>
        <time>2026-08-31T06:05:00Z</time>
      </trkpt>
      <trkpt lat="44.73165" lon="6.99944">
        <ele>1907.4</ele>
        <time>2026-08-31T06:05:05Z</time>
      </trkpt>
      <trkpt lat="44.73159" lon="6.99951">
        <ele>1907.2</ele>
        <time>2026-08-31T06:05:10Z</time>
      </trkpt>
      <trkpt lat="44.73153" lon="6.99956">
        <ele>1907.4</ele>
        <time>2026-08-31T06:05:16Z</time>
      </trkpt>
      <trkpt lat="44.73148" lon="6.99961">
        <ele>1907.4</ele>
        <time>2026-08-31T06:05:21Z</time>
      </trkpt>
      <trkpt lat="44.73143" lon="6.99966">
        <ele>1907.4</ele>
        <time>2026-08-31T06:05:26Z</time>
      </trkpt>
      <trkpt lat="44.73135" lon="6.99968">
        <ele>1908.5</ele>
        <time>2026-08-31T06:05:32Z</time>
      </trkpt>
      <trkpt lat="44.73128" lon="6.99972">
        <ele>1909</ele>
        <time>2026-08-31T06:05:37Z</time>
      </trkpt>
      <trkpt lat="44.7312" lon="6.99971">
        <ele>1910.6</ele>
        <time>2026-08-31T06:05:42Z</time>
      </trkpt>
      <trkpt lat="44.73114" lon="6.99975">
        <ele>1911</ele>
        <time>2026-08-31T06:05:48Z</time>
      </trkpt>
      <trkpt lat="44.73109" lon="6.99983">
        <ele>1910.4</ele>
        <time>2026-08-31T06:05:53Z</time>
      </trkpt>
      <trkpt lat="44.73102" lon="6.99985">
        <ele>1911.3</ele>
        <time>2026-08-31T06:05:58Z</time>
      </trkpt>
      <trkpt lat="44.73094" lon="6.99989">
        <ele>1912.1</ele>
        <time>2026-08-31T06:06:04Z</time>
      </trkpt>
      <trkpt lat="44.73088" lon="6.99995">
        <ele>1912.1</ele>
        <time>2026-08-31T06:06:09Z</time>
      </trkpt>
      <trkpt lat="44.73081" lon="7.00001">
        <ele>1912.6</ele>
        <time>2026-08-31T06:06:14Z</time>
      </trkpt>
      <trkpt lat="44.73074" lon="7.00008">
        <ele>1914</ele>
        <time>2026-08-31T06:06:20Z</time>
      </trkpt>
      <trkpt lat="44.7307" lon="7.00013">
        <ele>1914.7</ele>
        <time>2026-08-31T06:06:25Z</time>
      </trkpt>
      <trkpt lat="44.73064" lon="7.00018">
        <ele>1915.9</ele>
        <time>2026-08-31T06:06:30Z</time>
      </trkpt>
      <trkpt lat="44.73059" lon="7.00024">
        <ele>1916.7</ele>
        <time>2026-08-31T06:06:36Z</time>
      </trkpt>
      <trkpt lat="44.73055" lon="7.0003">
        <ele>1917.2</ele>
        <time>2026-08-31T06:06:41Z</time>
      </trkpt>
      <trkpt lat="44.7305" lon="7.00035">
        <ele>1918.1</ele>
        <time>2026-08-31T06:06:46Z</time>
      </trkpt>
      <trkpt lat="44.73047" lon="7.00045">
        <ele>1917.8</ele>
        <time>2026-08-31T06:06:52Z</time>
      </trkpt>
      <trkpt lat="44.73046" lon="7.00053">
        <ele>1917.1</ele>
        <time>2026-08-31T06:06:57Z</time>
      </trkpt>
      <trkpt lat="44.73044" lon="7.0006">
        <ele>1916.8</ele>
        <time>2026-08-31T06:07:02Z</time>
      </trkpt>
      <trkpt lat="44.73042" lon="7.00068">
        <ele>1916.3</ele>
        <time>2026-08-31T06:07:08Z</time>
      </trkpt>
      <trkpt lat="44.73041" lon="7.00076">
        <ele>1915.6</ele>
        <time>2026-08-31T06:07:13Z</time>
      </trkpt>
      <trkpt lat="44.73039" lon="7.00083">
        <ele>1915.3</ele>
        <time>2026-08-31T06:07:18Z</time>
      </trkpt>
      <trkpt lat="44.73035" lon="7.00089">
        <ele>1916</ele>
        <time>2026-08-31T06:07:24Z</time>
      </trkpt>
      <trkpt lat="44.73031" lon="7.00095">
        <ele>1916.5</ele>
        <time>2026-08-31T06:07:29Z</time>
      </trkpt>
      <trkpt lat="44.73026" lon="7.00101">
        <ele>1917.2</ele>
        <time>2026-08-31T06:07:34Z</time>
      </trkpt>
      <trkpt lat="44.7302" lon="7.00104">
        <ele>1918.2</ele>
        <time>2026-08-31T06:07:40Z</time>
      </trkpt>
      <trkpt lat="44.73017" lon="7.00105">
        <ele>1918.7</ele>
        <time>2026-08-31T06:07:45Z</time>
      </trkpt>
      <trkpt lat="44.73011" lon="7.00106">
        <ele>1919.9</ele>
        <time>2026-08-31T06:07:50Z</time>
      </trkpt>
      <trkpt lat="44.73006" lon="7.00107">
        <ele>1920.8</ele>
        <time>2026-08-31T06:07:56Z</time>
      </trkpt>
      <trkpt lat="44.73004" lon="7.00107">
        <ele>1921.2</ele>
        <time>2026-08-31T06:08:01Z</time>
      </trkpt>
      <trkpt lat="44.72997" lon="7.0011">
        <ele>1922.3</ele>
        <time>2026-08-31T06:08:06Z</time>
      </trkpt>
      <trkpt lat="44.7299" lon="7.00112">
        <ele>1923.9</ele>
        <time>2026-08-31T06:08:12Z</time>
      </trkpt>
      <trkpt lat="44.72986" lon="7.00116">
        <ele>1924.2</ele>
        <time>2026-08-31T06:08:17Z</time>
      </trkpt>
      <trkpt lat="44.72981" lon="7.00116">
        <ele>1925.5</ele>
        <time>2026-08-31T06:08:22Z</time>
      </trkpt>
      <trkpt lat="44.72977" lon="7.00121">
        <ele>1925.7</ele>
        <time>2026-08-31T06:08:28Z</time>
      </trkpt>
      <trkpt lat="44.72976" lon="7.00127">
        <ele>1924.8</ele>
        <time>2026-08-31T06:08:33Z</time>
      </trkpt>
      <trkpt lat="44.72978" lon="7.00129">
        <ele>1923.9</ele>
        <time>2026-08-31T06:08:38Z</time>
      </trkpt>
      <trkpt lat="44.7298" lon="7.0013">
        <ele>1923.2</ele>
        <time>2026-08-31T06:08:44Z</time>
      </trkpt>
      <trkpt lat="44.7298" lon="7.0013">
        <ele>1923.2</ele>
        <time>2026-08-31T06:08:49Z</time>
      </trkpt>
      <trkpt lat="44.72987" lon="7.00141">
        <ele>1919.5</ele>
        <time>2026-08-31T06:08:54Z</time>
      </trkpt>
      <trkpt lat="44.72993" lon="7.00146">
        <ele>1917.2</ele>
        <time>2026-08-31T06:09:00Z</time>
      </trkpt>
      <trkpt lat="44.72994" lon="7.0015">
        <ele>1916.2</ele>
        <time>2026-08-31T06:09:05Z</time>
      </trkpt>
      <trkpt lat="44.72994" lon="7.0015">
        <ele>1916.2</ele>
        <time>2026-08-31T06:09:10Z</time>
      </trkpt>
      <trkpt lat="44.72994" lon="7.0015">
        <ele>1916.2</ele>
        <time>2026-08-31T06:09:16Z</time>
      </trkpt>
      <trkpt lat="44.72994" lon="7.0015">
        <ele>1916.2</ele>
        <time>2026-08-31T06:09:21Z</time>
      </trkpt>
      <trkpt lat="44.72993" lon="7.00154">
        <ele>1915.8</ele>
        <time>2026-08-31T06:09:26Z</time>
      </trkpt>
      <trkpt lat="44.72997" lon="7.00161">
        <ele>1913.6</ele>
        <time>2026-08-31T06:09:32Z</time>
      </trkpt>
      <trkpt lat="44.72999" lon="7.00163">
        <ele>1912.8</ele>
        <time>2026-08-31T06:09:37Z</time>
      </trkpt>
      <trkpt lat="44.73" lon="7.00164">
        <ele>1912.4</ele>
        <time>2026-08-31T06:09:42Z</time>
      </trkpt>
      <trkpt lat="44.72996" lon="7.00164">
        <ele>1913.4</ele>
        <time>2026-08-31T06:09:48Z</time>
      </trkpt>
      <trkpt lat="44.7299" lon="7.00163">
        <ele>1914.9</ele>
        <time>2026-08-31T06:09:53Z</time>
      </trkpt>
      <trkpt lat="44.72984" lon="7.00162">
        <ele>1916.5</ele>
        <time>2026-08-31T06:09:58Z</time>
      </trkpt>
      <trkpt lat="44.72978" lon="7.00165">
        <ele>1917.3</ele>
        <time>2026-08-31T06:10:04Z</time>
      </trkpt>
      <trkpt lat="44.72972" lon="7.00168">
        <ele>1918.3</ele>
        <time>2026-08-31T06:10:09Z</time>
      </trkpt>
      <trkpt lat="44.72968" lon="7.00167">
        <ele>1919.3</ele>
        <time>2026-08-31T06:10:14Z</time>
      </trkpt>
      <trkpt lat="44.72962" lon="7.0017">
        <ele>1920.4</ele>
        <time>2026-08-31T06:10:20Z</time>
      </trkpt>
      <trkpt lat="44.72957" lon="7.00171">
        <ele>1921.4</ele>
        <time>2026-08-31T06:10:25Z</time>
      </trkpt>
      <trkpt lat="44.72952" lon="7.00171">
        <ele>1922.5</ele>
        <time>2026-08-31T06:10:30Z</time>
      </trkpt>
      <trkpt lat="44.72949" lon="7.00171">
        <ele>1923.2</ele>
        <time>2026-08-31T06:10:36Z</time>
      </trkpt>
      <trkpt lat="44.72947" lon="7.00176">
        <ele>1923.1</ele>
        <time>2026-08-31T06:10:41Z</time>
      </trkpt>
      <trkpt lat="44.72947" lon="7.00179">
        <ele>1922.8</ele>
        <time>2026-08-31T06:10:46Z</time>
      </trkpt>
      <trkpt lat="44.72949" lon="7.00179">
        <ele>1922.4</ele>
        <time>2026-08-31T06:10:52Z</time>
      </trkpt>
      <trkpt lat="44.72949" lon="7.0018">
        <ele>1922.3</ele>
        <time>2026-08-31T06:10:57Z</time>
      </trkpt>
      <trkpt lat="44.72949" lon="7.0018">
        <ele>1922.3</ele>
        <time>2026-08-31T06:11:02Z</time>
      </trkpt>
      <trkpt lat="44.72949" lon="7.0018">
        <ele>1922.3</ele>
        <time>2026-08-31T06:11:08Z</time>
      </trkpt>
      <trkpt lat="44.72944" lon="7.00177">
        <ele>1923.6</ele>
        <time>2026-08-31T06:11:13Z</time>
      </trkpt>
      <trkpt lat="44.72943" lon="7.00177">
        <ele>1923.9</ele>
        <time>2026-08-31T06:11:18Z</time>
      </trkpt>
      <trkpt lat="44.72939" lon="7.00183">
        <ele>1924</ele>
        <time>2026-08-31T06:11:24Z</time>
      </trkpt>
      <trkpt lat="44.72938" lon="7.00188">
        <ele>1923.6</ele>
        <time>2026-08-31T06:11:29Z</time>
      </trkpt>
      <trkpt lat="44.72938" lon="7.00194">
        <ele>1922.9</ele>
        <time>2026-08-31T06:11:34Z</time>
      </trkpt>
      <trkpt lat="44.72936" lon="7.00198">
        <ele>1922.8</ele>
        <time>2026-08-31T06:11:40Z</time>
      </trkpt>
      <trkpt lat="44.72936" lon="7.00202">
        <ele>1922.3</ele>
        <time>2026-08-31T06:11:45Z</time>
      </trkpt>
      <trkpt lat="44.72934" lon="7.00205">
        <ele>1922.2</ele>
        <time>2026-08-31T06:11:50Z</time>
      </trkpt>
      <trkpt lat="44.72933" lon="7.00209">
        <ele>1921.9</ele>
        <time>2026-08-31T06:11:56Z</time>
      </trkpt>
      <trkpt lat="44.72932" lon="7.00212">
        <ele>1921.6</ele>
        <time>2026-08-31T06:12:01Z</time>
      </trkpt>
      <trkpt lat="44.72931" lon="7.00216">
        <ele>1921.3</ele>
        <time>2026-08-31T06:12:06Z</time>
      </trkpt>
      <trkpt lat="44.72929" lon="7.0022">
        <ele>1921</ele>
        <time>2026-08-31T06:12:12Z</time>
      </trkpt>
      <trkpt lat="44.72928" lon="7.00222">
        <ele>1920.9</ele>
        <time>2026-08-31T06:12:17Z</time>
      </trkpt>
      <trkpt lat="44.72926" lon="7.00225">
        <ele>1920.7</ele>
        <time>2026-08-31T06:12:22Z</time>
      </trkpt>
      <trkpt lat="44.72927" lon="7.00226">
        <ele>1920.4</ele>
        <time>2026-08-31T06:12:28Z</time>
      </trkpt>
      <trkpt lat="44.7293" lon="7.00227">
        <ele>1919.9</ele>
        <time>2026-08-31T06:12:33Z</time>
      </trkpt>
      <trkpt lat="44.72932" lon="7.00226">
        <ele>1919.8</ele>
        <time>2026-08-31T06:12:38Z</time>
      </trkpt>
      <trkpt lat="44.72933" lon="7.0023">
        <ele>1919.2</ele>
        <time>2026-08-31T06:12:44Z</time>
      </trkpt>
      <trkpt lat="44.72932" lon="7.00234">
        <ele>1918.8</ele>
        <time>2026-08-31T06:12:49Z</time>
      </trkpt>
      <trkpt lat="44.72929" lon="7.00238">
        <ele>1918.6</ele>
        <time>2026-08-31T06:12:54Z</time>
      </trkpt>
      <trkpt lat="44.72926" lon="7.00244">
        <ele>1918.1</ele>
        <time>2026-08-31T06:13:00Z</time>
      </trkpt>
      <trkpt lat="44.72925" lon="7.00249">
        <ele>1917.4</ele>
        <time>2026-08-31T06:13:05Z</time>
      </trkpt>
      <trkpt lat="44.72923" lon="7.00253">
        <ele>1917.4</ele>
        <time>2026-08-31T06:13:10Z</time>
      </trkpt>
      <trkpt lat="44.72919" lon="7.00257">
        <ele>1917.7</ele>
        <time>2026-08-31T06:13:16Z</time>
      </trkpt>
      <trkpt lat="44.72917" lon="7.00262">
        <ele>1917.7</ele>
        <time>2026-08-31T06:13:21Z</time>
      </trkpt>
      <trkpt lat="44.72914" lon="7.00264">
        <ele>1918.3</ele>
        <time>2026-08-31T06:13:26Z</time>
      </trkpt>
      <trkpt lat="44.72913" lon="7.0027">
        <ele>1918.4</ele>
        <time>2026-08-31T06:13:32Z</time>
      </trkpt>
      <trkpt lat="44.72911" lon="7.00275">
        <ele>1918.7</ele>
        <time>2026-08-31T06:13:37Z</time>
      </trkpt>
      <trkpt lat="44.72909" lon="7.0028">
        <ele>1919</ele>
        <time>2026-08-31T06:13:42Z</time>
      </trkpt>
      <trkpt lat="44.72907" lon="7.00284">
        <ele>1919.3</ele>
        <time>2026-08-31T06:13:48Z</time>
      </trkpt>
      <trkpt lat="44.72905" lon="7.00287">
        <ele>1919.6</ele>
        <time>2026-08-31T06:13:53Z</time>
      </trkpt>
      <trkpt lat="44.72903" lon="7.00291">
        <ele>1919.9</ele>
        <time>2026-08-31T06:13:58Z</time>
      </trkpt>
      <trkpt lat="44.72903" lon="7.00294">
        <ele>1919.8</ele>
        <time>2026-08-31T06:14:04Z</time>
      </trkpt>
      <trkpt lat="44.72903" lon="7.00298">
        <ele>1919.6</ele>
        <time>2026-08-31T06:14:09Z</time>
      </trkpt>
      <trkpt lat="44.72903" lon="7.00302">
        <ele>1919.4</ele>
        <time>2026-08-31T06:14:14Z</time>
      </trkpt>
      <trkpt lat="44.72903" lon="7.00306">
        <ele>1919.2</ele>
        <time>2026-08-31T06:14:20Z</time>
      </trkpt>
      <trkpt lat="44.72903" lon="7.00307">
        <ele>1919.2</ele>
        <time>2026-08-31T06:14:25Z</time>
      </trkpt>
      <trkpt lat="44.72904" lon="7.0031">
        <ele>1918.9</ele>
        <time>2026-08-31T06:14:30Z</time>
      </trkpt>
      <trkpt lat="44.72904" lon="7.00315">
        <ele>1918.6</ele>
        <time>2026-08-31T06:14:36Z</time>
      </trkpt>
      <trkpt lat="44.72908" lon="7.00316">
        <ele>1917.9</ele>
        <time>2026-08-31T06:14:41Z</time>
      </trkpt>
      <trkpt lat="44.72911" lon="7.00321">
        <ele>1917.2</ele>
        <time>2026-08-31T06:14:46Z</time>
      </trkpt>
      <trkpt lat="44.72912" lon="7.00326">
        <ele>1916.9</ele>
        <time>2026-08-31T06:14:52Z</time>
      </trkpt>
      <trkpt lat="44.72913" lon="7.00332">
        <ele>1916.6</ele>
        <time>2026-08-31T06:14:57Z</time>
      </trkpt>
      <trkpt lat="44.72915" lon="7.00336">
        <ele>1916.7</ele>
        <time>2026-08-31T06:15:02Z</time>
      </trkpt>
      <trkpt lat="44.72916" lon="7.0034">
        <ele>1917.4</ele>
        <time>2026-08-31T06:15:08Z</time>
      </trkpt>
      <trkpt lat="44.72916" lon="7.0034">
        <ele>1917.4</ele>
        <time>2026-08-31T06:15:13Z</time>
      </trkpt>
      <trkpt lat="44.72915" lon="7.0034">
        <ele>1917.5</ele>
        <time>2026-08-31T06:15:18Z</time>
      </trkpt>
      <trkpt lat="44.72915" lon="7.0034">
        <ele>1917.5</ele>
        <time>2026-08-31T06:15:24Z</time>
      </trkpt>
      <trkpt lat="44.72915" lon="7.0034">
        <ele>1917.5</ele>
        <time>2026-08-31T06:15:29Z</time>
      </trkpt>
      <trkpt lat="44.72913" lon="7.00343">
        <ele>1918.3</ele>
        <time>2026-08-31T06:15:34Z</time>
      </trkpt>
      <trkpt lat="44.72914" lon="7.00345">
        <ele>1918.5</ele>
        <time>2026-08-31T06:15:40Z</time>
      </trkpt>
      <trkpt lat="44.72914" lon="7.00345">
        <ele>1918.5</ele>
        <time>2026-08-31T06:15:45Z</time>
      </trkpt>
      <trkpt lat="44.72912" lon="7.00353">
        <ele>1920.1</ele>
        <time>2026-08-31T06:15:50Z</time>
      </trkpt>
      <trkpt lat="44.72912" lon="7.00353">
        <ele>1920.1</ele>
        <time>2026-08-31T06:15:56Z</time>
      </trkpt>
      <trkpt lat="44.72912" lon="7.00353">
        <ele>1920.1</ele>
        <time>2026-08-31T06:16:01Z</time>
      </trkpt>
      <trkpt lat="44.72912" lon="7.00353">
        <ele>1920.1</ele>
        <time>2026-08-31T06:16:06Z</time>
      </trkpt>
      <trkpt lat="44.72917" lon="7.00361">
        <ele>1921.4</ele>
        <time>2026-08-31T06:16:12Z</time>
      </trkpt>
      <trkpt lat="44.72917" lon="7.00361">
        <ele>1921.4</ele>
        <time>2026-08-31T06:16:17Z</time>
      </trkpt>
      <trkpt lat="44.72917" lon="7.00361">
        <ele>1921.4</ele>
        <time>2026-08-31T06:16:22Z</time>
      </trkpt>
      <trkpt lat="44.7291" lon="7.00368">
        <ele>1922.9</ele>
        <time>2026-08-31T06:16:28Z</time>
      </trkpt>
      <trkpt lat="44.7291" lon="7.00368">
        <ele>1922.9</ele>
        <time>2026-08-31T06:16:33Z</time>
      </trkpt>
      <trkpt lat="44.7291" lon="7.00368">
        <ele>1922.9</ele>
        <time>2026-08-31T06:16:38Z</time>
      </trkpt>
      <trkpt lat="44.7291" lon="7.00368">
        <ele>1922.9</ele>
        <time>2026-08-31T06:16:44Z</time>
      </trkpt>
      <trkpt lat="44.72904" lon="7.00363">
        <ele>1922.3</ele>
        <time>2026-08-31T06:16:49Z</time>
      </trkpt>
      <trkpt lat="44.72901" lon="7.00369">
        <ele>1923.3</ele>
        <time>2026-08-31T06:16:54Z</time>
      </trkpt>
      <trkpt lat="44.72897" lon="7.00378">
        <ele>1924.5</ele>
        <time>2026-08-31T06:17:00Z</time>
      </trkpt>
      <trkpt lat="44.72893" lon="7.00383">
        <ele>1925.1</ele>
        <time>2026-08-31T06:17:05Z</time>
      </trkpt>
      <trkpt lat="44.72891" lon="7.0039">
        <ele>1925.8</ele>
        <time>2026-08-31T06:17:10Z</time>
      </trkpt>
      <trkpt lat="44.72887" lon="7.00397">
        <ele>1926.2</ele>
        <time>2026-08-31T06:17:16Z</time>
      </trkpt>
      <trkpt lat="44.72883" lon="7.00403">
        <ele>1926.5</ele>
        <time>2026-08-31T06:17:21Z</time>
      </trkpt>
      <trkpt lat="44.72879" lon="7.0041">
        <ele>1926.6</ele>
        <time>2026-08-31T06:17:26Z</time>
      </trkpt>
      <trkpt lat="44.72873" lon="7.00418">
        <ele>1926.6</ele>
        <time>2026-08-31T06:17:32Z</time>
      </trkpt>
      <trkpt lat="44.7287" lon="7.00424">
        <ele>1927.7</ele>
        <time>2026-08-31T06:17:37Z</time>
      </trkpt>
      <trkpt lat="44.72865" lon="7.00429">
        <ele>1928.1</ele>
        <time>2026-08-31T06:17:42Z</time>
      </trkpt>
      <trkpt lat="44.72861" lon="7.00434">
        <ele>1928.7</ele>
        <time>2026-08-31T06:17:48Z</time>
      </trkpt>
      <trkpt lat="44.72857" lon="7.00439">
        <ele>1929.1</ele>
        <time>2026-08-31T06:17:53Z</time>
      </trkpt>
      <trkpt lat="44.72852" lon="7.00443">
        <ele>1929.1</ele>
        <time>2026-08-31T06:17:58Z</time>
      </trkpt>
      <trkpt lat="44.72845" lon="7.00449">
        <ele>1929.1</ele>
        <time>2026-08-31T06:18:04Z</time>
      </trkpt>
      <trkpt lat="44.72842" lon="7.00453">
        <ele>1929.3</ele>
        <time>2026-08-31T06:18:09Z</time>
      </trkpt>
      <trkpt lat="44.72838" lon="7.00458">
        <ele>1929.4</ele>
        <time>2026-08-31T06:18:14Z</time>
      </trkpt>
      <trkpt lat="44.72833" lon="7.00465">
        <ele>1929.7</ele>
        <time>2026-08-31T06:18:20Z</time>
      </trkpt>
      <trkpt lat="44.7283" lon="7.00471">
        <ele>1930.7</ele>
        <time>2026-08-31T06:18:25Z</time>
      </trkpt>
      <trkpt lat="44.72828" lon="7.00477">
        <ele>1931.7</ele>
        <time>2026-08-31T06:18:30Z</time>
      </trkpt>
      <trkpt lat="44.72825" lon="7.00485">
        <ele>1932.8</ele>
        <time>2026-08-31T06:18:36Z</time>
      </trkpt>
      <trkpt lat="44.72823" lon="7.00492">
        <ele>1933.8</ele>
        <time>2026-08-31T06:18:41Z</time>
      </trkpt>
      <trkpt lat="44.7282" lon="7.00498">
        <ele>1934.4</ele>
        <time>2026-08-31T06:18:46Z</time>
      </trkpt>
      <trkpt lat="44.72819" lon="7.00503">
        <ele>1935.4</ele>
        <time>2026-08-31T06:18:52Z</time>
      </trkpt>
      <trkpt lat="44.72816" lon="7.00504">
        <ele>1935.3</ele>
        <time>2026-08-31T06:18:57Z</time>
      </trkpt>
      <trkpt lat="44.72813" lon="7.0051">
        <ele>1936.5</ele>
        <time>2026-08-31T06:19:02Z</time>
      </trkpt>
      <trkpt lat="44.72807" lon="7.00515">
        <ele>1937.1</ele>
        <time>2026-08-31T06:19:08Z</time>
      </trkpt>
      <trkpt lat="44.72803" lon="7.0052">
        <ele>1937.9</ele>
        <time>2026-08-31T06:19:13Z</time>
      </trkpt>
      <trkpt lat="44.72799" lon="7.00525">
        <ele>1938.7</ele>
        <time>2026-08-31T06:19:18Z</time>
      </trkpt>
      <trkpt lat="44.72794" lon="7.00532">
        <ele>1939.8</ele>
        <time>2026-08-31T06:19:24Z</time>
      </trkpt>
      <trkpt lat="44.72789" lon="7.00535">
        <ele>1939.9</ele>
        <time>2026-08-31T06:19:29Z</time>
      </trkpt>
      <trkpt lat="44.72784" lon="7.00539">
        <ele>1940.2</ele>
        <time>2026-08-31T06:19:34Z</time>
      </trkpt>
      <trkpt lat="44.72778" lon="7.00546">
        <ele>1941</ele>
        <time>2026-08-31T06:19:40Z</time>
      </trkpt>
      <trkpt lat="44.72774" lon="7.00552">
        <ele>1941.8</ele>
        <time>2026-08-31T06:19:45Z</time>
      </trkpt>
      <trkpt lat="44.72771" lon="7.00555">
        <ele>1942.1</ele>
        <time>2026-08-31T06:19:50Z</time>
      </trkpt>
      <trkpt lat="44.72771" lon="7.00557">
        <ele>1942.5</ele>
        <time>2026-08-31T06:19:56Z</time>
      </trkpt>
      <trkpt lat="44.72771" lon="7.00557">
        <ele>1942.5</ele>
        <time>2026-08-31T06:20:01Z</time>
      </trkpt>
      <trkpt lat="44.72771" lon="7.00557">
        <ele>1942.5</ele>
        <time>2026-08-31T06:20:06Z</time>
      </trkpt>
      <trkpt lat="44.72771" lon="7.00557">
        <ele>1942.5</ele>
        <time>2026-08-31T06:20:12Z</time>
      </trkpt>
      <trkpt lat="44.72771" lon="7.00557">
        <ele>1942.5</ele>
        <time>2026-08-31T06:20:17Z</time>
      </trkpt>
      <trkpt lat="44.72771" lon="7.00557">
        <ele>1942.5</ele>
        <time>2026-08-31T06:20:22Z</time>
      </trkpt>
      <trkpt lat="44.72771" lon="7.00557">
        <ele>1942.5</ele>
        <time>2026-08-31T06:20:28Z</time>
      </trkpt>
      <trkpt lat="44.72771" lon="7.00557">
        <ele>1942.5</ele>
        <time>2026-08-31T06:20:33Z</time>
      </trkpt>
      <trkpt lat="44.72771" lon="7.00557">
        <ele>1942.5</ele>
        <time>2026-08-31T06:20:38Z</time>
      </trkpt>
      <trkpt lat="44.72771" lon="7.00557">
        <ele>1942.5</ele>
        <time>2026-08-31T06:20:44Z</time>
      </trkpt>
      <trkpt lat="44.72771" lon="7.00557">
        <ele>1942.5</ele>
        <time>2026-08-31T06:20:49Z</time>
      </trkpt>
      <trkpt lat="44.72771" lon="7.00557">
        <ele>1942.5</ele>
        <time>2026-08-31T06:20:54Z</time>
      </trkpt>
      <trkpt lat="44.72771" lon="7.00557">
        <ele>1942.5</ele>
        <time>2026-08-31T06:21:00Z</time>
      </trkpt>
      <trkpt lat="44.72771" lon="7.00557">
        <ele>1942.5</ele>
        <time>2026-08-31T06:21:05Z</time>
      </trkpt>
      <trkpt lat="44.72771" lon="7.00557">
        <ele>1942.5</ele>
        <time>2026-08-31T06:21:10Z</time>
      </trkpt>
      <trkpt lat="44.72771" lon="7.00557">
        <ele>1942.5</ele>
        <time>2026-08-31T06:21:16Z</time>
      </trkpt>
      <trkpt lat="44.72771" lon="7.00557">
        <ele>1942.5</ele>
        <time>2026-08-31T06:21:21Z</time>
      </trkpt>
      <trkpt lat="44.72771" lon="7.00557">
        <ele>1942.5</ele>
        <time>2026-08-31T06:21:26Z</time>
      </trkpt>
      <trkpt lat="44.72771" lon="7.00557">
        <ele>1942.5</ele>
        <time>2026-08-31T06:21:32Z</time>
      </trkpt>
      <trkpt lat="44.72771" lon="7.00557">
        <ele>1942.5</ele>
        <time>2026-08-31T06:21:37Z</time>
      </trkpt>
      <trkpt lat="44.72771" lon="7.00557">
        <ele>1942.5</ele>
        <time>2026-08-31T06:21:42Z</time>
      </trkpt>
      <trkpt lat="44.72771" lon="7.00557">
        <ele>1942.5</ele>
        <time>2026-08-31T06:21:48Z</time>
      </trkpt>
      <trkpt lat="44.72771" lon="7.00557">
        <ele>1942.5</ele>
        <time>2026-08-31T06:21:53Z</time>
      </trkpt>
      <trkpt lat="44.72771" lon="7.00557">
        <ele>1942.5</ele>
        <time>2026-08-31T06:21:58Z</time>
      </trkpt>
      <trkpt lat="44.72771" lon="7.00557">
        <ele>1942.5</ele>
        <time>2026-08-31T06:22:04Z</time>
      </trkpt>
      <trkpt lat="44.72771" lon="7.00557">
        <ele>1942.5</ele>
        <time>2026-08-31T06:22:09Z</time>
      </trkpt>
      <trkpt lat="44.72771" lon="7.00557">
        <ele>1942.5</ele>
        <time>2026-08-31T06:22:14Z</time>
      </trkpt>
      <trkpt lat="44.72771" lon="7.00557">
        <ele>1942.5</ele>
        <time>2026-08-31T06:22:20Z</time>
      </trkpt>
      <trkpt lat="44.72771" lon="7.00557">
        <ele>1942.5</ele>
        <time>2026-08-31T06:22:25Z</time>
      </trkpt>
      <trkpt lat="44.72771" lon="7.00557">
        <ele>1942.5</ele>
        <time>2026-08-31T06:22:30Z</time>
      </trkpt>
      <trkpt lat="44.72771" lon="7.00557">
        <ele>1942.5</ele>
        <time>2026-08-31T06:22:36Z</time>
      </trkpt>
      <trkpt lat="44.72771" lon="7.00557">
        <ele>1942.5</ele>
        <time>2026-08-31T06:22:41Z</time>
      </trkpt>
      <trkpt lat="44.72771" lon="7.00557">
        <ele>1942.5</ele>
        <time>2026-08-31T06:22:46Z</time>
      </trkpt>
      <trkpt lat="44.72771" lon="7.00557">
        <ele>1942.5</ele>
        <time>2026-08-31T06:22:52Z</time>
      </trkpt>
      <trkpt lat="44.72771" lon="7.00557">
        <ele>1942.5</ele>
        <time>2026-08-31T06:22:57Z</time>
      </trkpt>
      <trkpt lat="44.72771" lon="7.00557">
        <ele>1942.5</ele>
        <time>2026-08-31T06:23:02Z</time>
      </trkpt>
      <trkpt lat="44.72771" lon="7.00557">
        <ele>1942.5</ele>
        <time>2026-08-31T06:23:08Z</time>
      </trkpt>
      <trkpt lat="44.72771" lon="7.00557">
        <ele>1942.5</ele>
        <time>2026-08-31T06:23:13Z</time>
      </trkpt>
      <trkpt lat="44.72771" lon="7.00557">
        <ele>1942.5</ele>
        <time>2026-08-31T06:23:18Z</time>
      </trkpt>
      <trkpt lat="44.72771" lon="7.00557">
        <ele>1942.5</ele>
        <time>2026-08-31T06:23:24Z</time>
      </trkpt>
      <trkpt lat="44.72771" lon="7.00557">
        <ele>1942.5</ele>
        <time>2026-08-31T06:23:29Z</time>
      </trkpt>
      <trkpt lat="44.72771" lon="7.00557">
        <ele>1942.5</ele>
        <time>2026-08-31T06:23:34Z</time>
      </trkpt>
      <trkpt lat="44.72771" lon="7.00557">
        <ele>1942.5</ele>
        <time>2026-08-31T06:23:40Z</time>
      </trkpt>
      <trkpt lat="44.72771" lon="7.00557">
        <ele>1942.5</ele>
        <time>2026-08-31T06:23:45Z</time>
      </trkpt>
      <trkpt lat="44.72771" lon="7.00557">
        <ele>1942.5</ele>
        <time>2026-08-31T06:23:50Z</time>
      </trkpt>
      <trkpt lat="44.72771" lon="7.00557">
        <ele>1942.5</ele>
        <time>2026-08-31T06:23:56Z</time>
      </trkpt>
      <trkpt lat="44.72771" lon="7.00557">
        <ele>1942.5</ele>
        <time>2026-08-31T06:24:01Z</time>
      </trkpt>
      <trkpt lat="44.72771" lon="7.00557">
        <ele>1942.5</ele>
        <time>2026-08-31T06:24:06Z</time>
      </trkpt>
      <trkpt lat="44.72771" lon="7.00557">
        <ele>1942.5</ele>
        <time>2026-08-31T06:24:12Z</time>
      </trkpt>
      <trkpt lat="44.72771" lon="7.00557">
        <ele>1942.5</ele>
        <time>2026-08-31T06:24:17Z</time>
      </trkpt>
      <trkpt lat="44.72771" lon="7.00557">
        <ele>1942.5</ele>
        <time>2026-08-31T06:24:22Z</time>
      </trkpt>
      <trkpt lat="44.72771" lon="7.00557">
        <ele>1942.5</ele>
        <time>2026-08-31T06:24:28Z</time>
      </trkpt>
      <trkpt lat="44.72771" lon="7.00557">
        <ele>1942.5</ele>
        <time>2026-08-31T06:24:33Z</time>
      </trkpt>
      <trkpt lat="44.72771" lon="7.00557">
        <ele>1942.5</ele>
        <time>2026-08-31T06:24:38Z</time>
      </trkpt>
      <trkpt lat="44.72771" lon="7.00557">
        <ele>1942.5</ele>
        <time>2026-08-31T06:24:44Z</time>
      </trkpt>
      <trkpt lat="44.72771" lon="7.00557">
        <ele>1942.5</ele>
        <time>2026-08-31T06:24:49Z</time>
      </trkpt>
      <trkpt lat="44.72771" lon="7.00557">
        <ele>1942.5</ele>
        <time>2026-08-31T06:24:54Z</time>
      </trkpt>
      <trkpt lat="44.72771" lon="7.00557">
        <ele>1942.5</ele>
        <time>2026-08-31T06:25:00Z</time>
      </trkpt>
      <trkpt lat="44.72771" lon="7.00557">
        <ele>1942.5</ele>
        <time>2026-08-31T06:25:05Z</time>
      </trkpt>
      <trkpt lat="44.72771" lon="7.00557">
        <ele>1942.5</ele>
        <time>2026-08-31T06:25:10Z</time>
      </trkpt>
      <trkpt lat="44.72771" lon="7.00557">
        <ele>1942.5</ele>
        <time>2026-08-31T06:25:16Z</time>
      </trkpt>
      <trkpt lat="44.72771" lon="7.00557">
        <ele>1942.5</ele>
        <time>2026-08-31T06:25:21Z</time>
      </trkpt>
      <trkpt lat="44.72771" lon="7.00557">
        <ele>1942.5</ele>
        <time>2026-08-31T06:25:26Z</time>
      </trkpt>
      <trkpt lat="44.72771" lon="7.00557">
        <ele>1942.5</ele>
        <time>2026-08-31T06:25:32Z</time>
      </trkpt>
      <trkpt lat="44.72771" lon="7.00557">
        <ele>1942.5</ele>
        <time>2026-08-31T06:25:37Z</time>
      </trkpt>
      <trkpt lat="44.72771" lon="7.00557">
        <ele>1942.5</ele>
        <time>2026-08-31T06:25:42Z</time>
      </trkpt>
      <trkpt lat="44.72771" lon="7.00557">
        <ele>1942.5</ele>
        <time>2026-08-31T06:25:48Z</time>
      </trkpt>
      <trkpt lat="44.72771" lon="7.00557">
        <ele>1942.5</ele>
        <time>2026-08-31T06:25:53Z</time>
      </trkpt>
      <trkpt lat="44.72771" lon="7.00557">
        <ele>1942.5</ele>
        <time>2026-08-31T06:25:58Z</time>
      </trkpt>
      <trkpt lat="44.72771" lon="7.00557">
        <ele>1942.5</ele>
        <time>2026-08-31T06:26:04Z</time>
      </trkpt>
      <trkpt lat="44.72771" lon="7.00557">
        <ele>1942.5</ele>
        <time>2026-08-31T06:26:09Z</time>
      </trkpt>
      <trkpt lat="44.72771" lon="7.00557">
        <ele>1942.5</ele>
        <time>2026-08-31T06:26:14Z</time>
      </trkpt>
      <trkpt lat="44.72771" lon="7.00557">
        <ele>1942.5</ele>
        <time>2026-08-31T06:26:20Z</time>
      </trkpt>
      <trkpt lat="44.72771" lon="7.00557">
        <ele>1942.5</ele>
        <time>2026-08-31T06:26:25Z</time>
      </trkpt>
      <trkpt lat="44.72766" lon="7.00562">
        <ele>1942.9</ele>
        <time>2026-08-31T06:26:30Z</time>
      </trkpt>
      <trkpt lat="44.72762" lon="7.00566">
        <ele>1943.2</ele>
        <time>2026-08-31T06:26:36Z</time>
      </trkpt>
      <trkpt lat="44.7276" lon="7.0057">
        <ele>1943.7</ele>
        <time>2026-08-31T06:26:41Z</time>
      </trkpt>
      <trkpt lat="44.72759" lon="7.00575">
        <ele>1944.7</ele>
        <time>2026-08-31T06:26:46Z</time>
      </trkpt>
      <trkpt lat="44.72757" lon="7.00576">
        <ele>1944.6</ele>
        <time>2026-08-31T06:26:52Z</time>
      </trkpt>
      <trkpt lat="44.72757" lon="7.00576">
        <ele>1944.6</ele>
        <time>2026-08-31T06:26:57Z</time>
      </trkpt>
      <trkpt lat="44.72757" lon="7.00576">
        <ele>1944.6</ele>
        <time>2026-08-31T06:27:02Z</time>
      </trkpt>
      <trkpt lat="44.72757" lon="7.00576">
        <ele>1944.6</ele>
        <time>2026-08-31T06:27:08Z</time>
      </trkpt>
      <trkpt lat="44.72757" lon="7.00576">
        <ele>1944.6</ele>
        <time>2026-08-31T06:27:13Z</time>
      </trkpt>
      <trkpt lat="44.72757" lon="7.00576">
        <ele>1944.6</ele>
        <time>2026-08-31T06:27:18Z</time>
      </trkpt>
      <trkpt lat="44.72757" lon="7.00576">
        <ele>1944.6</ele>
        <time>2026-08-31T06:27:24Z</time>
      </trkpt>
      <trkpt lat="44.72757" lon="7.00576">
        <ele>1944.6</ele>
        <time>2026-08-31T06:27:29Z</time>
      </trkpt>
      <trkpt lat="44.72757" lon="7.00576">
        <ele>1944.6</ele>
        <time>2026-08-31T06:27:34Z</time>
      </trkpt>
      <trkpt lat="44.72757" lon="7.00576">
        <ele>1944.6</ele>
        <time>2026-08-31T06:27:40Z</time>
      </trkpt>
      <trkpt lat="44.72757" lon="7.00576">
        <ele>1944.6</ele>
        <time>2026-08-31T06:27:45Z</time>
      </trkpt>
      <trkpt lat="44.72757" lon="7.00576">
        <ele>1944.6</ele>
        <time>2026-08-31T06:27:50Z</time>
      </trkpt>
      <trkpt lat="44.72754" lon="7.00583">
        <ele>1945.6</ele>
        <time>2026-08-31T06:27:56Z</time>
      </trkpt>
      <trkpt lat="44.72752" lon="7.0059">
        <ele>1947.5</ele>
        <time>2026-08-31T06:28:01Z</time>
      </trkpt>
      <trkpt lat="44.7275" lon="7.00594">
        <ele>1948.5</ele>
        <time>2026-08-31T06:28:06Z</time>
      </trkpt>
      <trkpt lat="44.72745" lon="7.00601">
        <ele>1950.2</ele>
        <time>2026-08-31T06:28:12Z</time>
      </trkpt>
      <trkpt lat="44.72739" lon="7.00604">
        <ele>1950.5</ele>
        <time>2026-08-31T06:28:17Z</time>
      </trkpt>
      <trkpt lat="44.72732" lon="7.00605">
        <ele>1950</ele>
        <time>2026-08-31T06:28:22Z</time>
      </trkpt>
      <trkpt lat="44.72725" lon="7.00606">
        <ele>1949.5</ele>
        <time>2026-08-31T06:28:28Z</time>
      </trkpt>
      <trkpt lat="44.7272" lon="7.00611">
        <ele>1950.4</ele>
        <time>2026-08-31T06:28:33Z</time>
      </trkpt>
      <trkpt lat="44.72716" lon="7.00615">
        <ele>1951</ele>
        <time>2026-08-31T06:28:38Z</time>
      </trkpt>
      <trkpt lat="44.72709" lon="7.00621">
        <ele>1951.8</ele>
        <time>2026-08-31T06:28:44Z</time>
      </trkpt>
      <trkpt lat="44.72703" lon="7.00626">
        <ele>1952.3</ele>
        <time>2026-08-31T06:28:49Z</time>
      </trkpt>
      <trkpt lat="44.72697" lon="7.00631">
        <ele>1952.7</ele>
        <time>2026-08-31T06:28:54Z</time>
      </trkpt>
      <trkpt lat="44.7269" lon="7.00636">
        <ele>1952.9</ele>
        <time>2026-08-31T06:29:00Z</time>
      </trkpt>
      <trkpt lat="44.72684" lon="7.00636">
        <ele>1952</ele>
        <time>2026-08-31T06:29:05Z</time>
      </trkpt>
      <trkpt lat="44.72678" lon="7.00634">
        <ele>1950.6</ele>
        <time>2026-08-31T06:29:10Z</time>
      </trkpt>
      <trkpt lat="44.72672" lon="7.00632">
        <ele>1949.3</ele>
        <time>2026-08-31T06:29:16Z</time>
      </trkpt>
      <trkpt lat="44.72667" lon="7.00628">
        <ele>1947.7</ele>
        <time>2026-08-31T06:29:21Z</time>
      </trkpt>
      <trkpt lat="44.72662" lon="7.00626">
        <ele>1947.3</ele>
        <time>2026-08-31T06:29:26Z</time>
      </trkpt>
      <trkpt lat="44.72656" lon="7.00627">
        <ele>1947.6</ele>
        <time>2026-08-31T06:29:32Z</time>
      </trkpt>
      <trkpt lat="44.7265" lon="7.00627">
        <ele>1947.6</ele>
        <time>2026-08-31T06:29:37Z</time>
      </trkpt>
      <trkpt lat="44.72644" lon="7.00631">
        <ele>1948.3</ele>
        <time>2026-08-31T06:29:42Z</time>
      </trkpt>
      <trkpt lat="44.72639" lon="7.00638">
        <ele>1949.3</ele>
        <time>2026-08-31T06:29:48Z</time>
      </trkpt>
      <trkpt lat="44.72635" lon="7.0064">
        <ele>1949.5</ele>
        <time>2026-08-31T06:29:53Z</time>
      </trkpt>
      <trkpt lat="44.72631" lon="7.00648">
        <ele>1950.4</ele>
        <time>2026-08-31T06:29:58Z</time>
      </trkpt>
      <trkpt lat="44.72629" lon="7.00655">
        <ele>1951.1</ele>
        <time>2026-08-31T06:30:04Z</time>
      </trkpt>
      <trkpt lat="44.72626" lon="7.0066">
        <ele>1951.4</ele>
        <time>2026-08-31T06:30:09Z</time>
      </trkpt>
      <trkpt lat="44.72623" lon="7.00666">
        <ele>1951.7</ele>
        <time>2026-08-31T06:30:14Z</time>
      </trkpt>
      <trkpt lat="44.72621" lon="7.00674">
        <ele>1953.4</ele>
        <time>2026-08-31T06:30:20Z</time>
      </trkpt>
      <trkpt lat="44.72619" lon="7.0068">
        <ele>1954.6</ele>
        <time>2026-08-31T06:30:25Z</time>
      </trkpt>
      <trkpt lat="44.72616" lon="7.00685">
        <ele>1955.4</ele>
        <time>2026-08-31T06:30:30Z</time>
      </trkpt>
      <trkpt lat="44.72614" lon="7.00692">
        <ele>1956.7</ele>
        <time>2026-08-31T06:30:36Z</time>
      </trkpt>
      <trkpt lat="44.72612" lon="7.00699">
        <ele>1958</ele>
        <time>2026-08-31T06:30:41Z</time>
      </trkpt>
      <trkpt lat="44.72611" lon="7.00706">
        <ele>1959.5</ele>
        <time>2026-08-31T06:30:46Z</time>
      </trkpt>
      <trkpt lat="44.72609" lon="7.00714">
        <ele>1960.9</ele>
        <time>2026-08-31T06:30:52Z</time>
      </trkpt>
      <trkpt lat="44.72606" lon="7.00719">
        <ele>1961.5</ele>
        <time>2026-08-31T06:30:57Z</time>
      </trkpt>
      <trkpt lat="44.72603" lon="7.00722">
        <ele>1961.6</ele>
        <time>2026-08-31T06:31:02Z</time>
      </trkpt>
      <trkpt lat="44.72596" lon="7.00723">
        <ele>1960.5</ele>
        <time>2026-08-31T06:31:08Z</time>
      </trkpt>
      <trkpt lat="44.7259" lon="7.0072">
        <ele>1958.8</ele>
        <time>2026-08-31T06:31:13Z</time>
      </trkpt>
      <trkpt lat="44.72584" lon="7.00716">
        <ele>1957</ele>
        <time>2026-08-31T06:31:18Z</time>
      </trkpt>
      <trkpt lat="44.72579" lon="7.00714">
        <ele>1958.7</ele>
        <time>2026-08-31T06:31:24Z</time>
      </trkpt>
      <trkpt lat="44.72578" lon="7.00714">
        <ele>1959.2</ele>
        <time>2026-08-31T06:31:29Z</time>
      </trkpt>
      <trkpt lat="44.72573" lon="7.00711">
        <ele>1961.3</ele>
        <time>2026-08-31T06:31:34Z</time>
      </trkpt>
      <trkpt lat="44.72565" lon="7.00714">
        <ele>1965.8</ele>
        <time>2026-08-31T06:31:40Z</time>
      </trkpt>
      <trkpt lat="44.7256" lon="7.00719">
        <ele>1968.7</ele>
        <time>2026-08-31T06:31:45Z</time>
      </trkpt>
      <trkpt lat="44.72553" lon="7.00721">
        <ele>1972.1</ele>
        <time>2026-08-31T06:31:50Z</time>
      </trkpt>
      <trkpt lat="44.72546" lon="7.00727">
        <ele>1975.6</ele>
        <time>2026-08-31T06:31:56Z</time>
      </trkpt>
      <trkpt lat="44.7254" lon="7.00734">
        <ele>1978.2</ele>
        <time>2026-08-31T06:32:01Z</time>
      </trkpt>
      <trkpt lat="44.72537" lon="7.00741">
        <ele>1979.3</ele>
        <time>2026-08-31T06:32:06Z</time>
      </trkpt>
      <trkpt lat="44.72536" lon="7.00744">
        <ele>1979.6</ele>
        <time>2026-08-31T06:32:12Z</time>
      </trkpt>
      <trkpt lat="44.72531" lon="7.00751">
        <ele>1981.2</ele>
        <time>2026-08-31T06:32:17Z</time>
      </trkpt>
      <trkpt lat="44.72528" lon="7.00759">
        <ele>1981.7</ele>
        <time>2026-08-31T06:32:22Z</time>
      </trkpt>
      <trkpt lat="44.72523" lon="7.00769">
        <ele>1982.5</ele>
        <time>2026-08-31T06:32:28Z</time>
      </trkpt>
      <trkpt lat="44.72516" lon="7.00775">
        <ele>1983.8</ele>
        <time>2026-08-31T06:32:33Z</time>
      </trkpt>
      <trkpt lat="44.72512" lon="7.00778">
        <ele>1984.4</ele>
        <time>2026-08-31T06:32:38Z</time>
      </trkpt>
      <trkpt lat="44.72504" lon="7.00782">
        <ele>1985.7</ele>
        <time>2026-08-31T06:32:44Z</time>
      </trkpt>
      <trkpt lat="44.72497" lon="7.00782">
        <ele>1989.2</ele>
        <time>2026-08-31T06:32:49Z</time>
      </trkpt>
      <trkpt lat="44.72492" lon="7.00787">
        <ele>1992.5</ele>
        <time>2026-08-31T06:32:54Z</time>
      </trkpt>
      <trkpt lat="44.72487" lon="7.00793">
        <ele>1995.7</ele>
        <time>2026-08-31T06:33:00Z</time>
      </trkpt>
      <trkpt lat="44.72485" lon="7.00802">
        <ele>1995.7</ele>
        <time>2026-08-31T06:33:05Z</time>
      </trkpt>
      <trkpt lat="44.72483" lon="7.0081">
        <ele>1995.8</ele>
        <time>2026-08-31T06:33:10Z</time>
      </trkpt>
      <trkpt lat="44.72483" lon="7.00811">
        <ele>1995.7</ele>
        <time>2026-08-31T06:33:16Z</time>
      </trkpt>
      <trkpt lat="44.72483" lon="7.00817">
        <ele>1994.5</ele>
        <time>2026-08-31T06:33:21Z</time>
      </trkpt>
      <trkpt lat="44.72482" lon="7.00821">
        <ele>1994.6</ele>
        <time>2026-08-31T06:33:26Z</time>
      </trkpt>
      <trkpt lat="44.7248" lon="7.00819">
        <ele>1996.6</ele>
        <time>2026-08-31T06:33:32Z</time>
      </trkpt>
      <trkpt lat="44.7248" lon="7.00819">
        <ele>1996.6</ele>
        <time>2026-08-31T06:33:37Z</time>
      </trkpt>
      <trkpt lat="44.7248" lon="7.00819">
        <ele>1996.6</ele>
        <time>2026-08-31T06:33:42Z</time>
      </trkpt>
      <trkpt lat="44.7248" lon="7.00819">
        <ele>1996.6</ele>
        <time>2026-08-31T06:33:48Z</time>
      </trkpt>
      <trkpt lat="44.7248" lon="7.00819">
        <ele>1996.6</ele>
        <time>2026-08-31T06:33:53Z</time>
      </trkpt>
      <trkpt lat="44.7248" lon="7.00824">
        <ele>1995.6</ele>
        <time>2026-08-31T06:33:58Z</time>
      </trkpt>
      <trkpt lat="44.7248" lon="7.00836">
        <ele>1993.4</ele>
        <time>2026-08-31T06:34:04Z</time>
      </trkpt>
      <trkpt lat="44.72481" lon="7.00844">
        <ele>1991.4</ele>
        <time>2026-08-31T06:34:09Z</time>
      </trkpt>
      <trkpt lat="44.72482" lon="7.00852">
        <ele>1989.4</ele>
        <time>2026-08-31T06:34:14Z</time>
      </trkpt>
      <trkpt lat="44.72481" lon="7.00854">
        <ele>1989.8</ele>
        <time>2026-08-31T06:34:20Z</time>
      </trkpt>
      <trkpt lat="44.72481" lon="7.00863">
        <ele>1988.3</ele>
        <time>2026-08-31T06:34:25Z</time>
      </trkpt>
      <trkpt lat="44.7248" lon="7.00872">
        <ele>1987.6</ele>
        <time>2026-08-31T06:34:30Z</time>
      </trkpt>
      <trkpt lat="44.72478" lon="7.00882">
        <ele>1987.2</ele>
        <time>2026-08-31T06:34:36Z</time>
      </trkpt>
      <trkpt lat="44.72473" lon="7.00888">
        <ele>1989.2</ele>
        <time>2026-08-31T06:34:41Z</time>
      </trkpt>
      <trkpt lat="44.72469" lon="7.00894">
        <ele>1990.5</ele>
        <time>2026-08-31T06:34:46Z</time>
      </trkpt>
      <trkpt lat="44.72461" lon="7.009">
        <ele>1993.9</ele>
        <time>2026-08-31T06:34:52Z</time>
      </trkpt>
      <trkpt lat="44.72456" lon="7.00904">
        <ele>1995.8</ele>
        <time>2026-08-31T06:34:57Z</time>
      </trkpt>
      <trkpt lat="44.72453" lon="7.00912">
        <ele>1995.4</ele>
        <time>2026-08-31T06:35:02Z</time>
      </trkpt>
      <trkpt lat="44.7245" lon="7.0092">
        <ele>1995.3</ele>
        <time>2026-08-31T06:35:08Z</time>
      </trkpt>
      <trkpt lat="44.72446" lon="7.00929">
        <ele>1995.7</ele>
        <time>2026-08-31T06:35:13Z</time>
      </trkpt>
      <trkpt lat="44.72441" lon="7.00935">
        <ele>1996.7</ele>
        <time>2026-08-31T06:35:18Z</time>
      </trkpt>
      <trkpt lat="44.72437" lon="7.00946">
        <ele>1995.8</ele>
        <time>2026-08-31T06:35:24Z</time>
      </trkpt>
      <trkpt lat="44.72435" lon="7.00956">
        <ele>1994.1</ele>
        <time>2026-08-31T06:35:29Z</time>
      </trkpt>
      <trkpt lat="44.7243" lon="7.00964">
        <ele>1993.4</ele>
        <time>2026-08-31T06:35:34Z</time>
      </trkpt>
      <trkpt lat="44.72425" lon="7.00976">
        <ele>1991</ele>
        <time>2026-08-31T06:35:40Z</time>
      </trkpt>
      <trkpt lat="44.72421" lon="7.00986">
        <ele>1988.4</ele>
        <time>2026-08-31T06:35:45Z</time>
      </trkpt>
      <trkpt lat="44.72415" lon="7.00995">
        <ele>1986.7</ele>
        <time>2026-08-31T06:35:50Z</time>
      </trkpt>
      <trkpt lat="44.72412" lon="7.01002">
        <ele>1986.5</ele>
        <time>2026-08-31T06:35:56Z</time>
      </trkpt>
      <trkpt lat="44.72408" lon="7.01008">
        <ele>1987.7</ele>
        <time>2026-08-31T06:36:01Z</time>
      </trkpt>
      <trkpt lat="44.72408" lon="7.01011">
        <ele>1987.2</ele>
        <time>2026-08-31T06:36:06Z</time>
      </trkpt>
      <trkpt lat="44.72405" lon="7.01017">
        <ele>1987.7</ele>
        <time>2026-08-31T06:36:12Z</time>
      </trkpt>
      <trkpt lat="44.72402" lon="7.01026">
        <ele>1987.4</ele>
        <time>2026-08-31T06:36:17Z</time>
      </trkpt>
      <trkpt lat="44.72399" lon="7.01034">
        <ele>1987.2</ele>
        <time>2026-08-31T06:36:22Z</time>
      </trkpt>
      <trkpt lat="44.72397" lon="7.01047">
        <ele>1985.3</ele>
        <time>2026-08-31T06:36:28Z</time>
      </trkpt>
      <trkpt lat="44.72393" lon="7.01059">
        <ele>1984.2</ele>
        <time>2026-08-31T06:36:33Z</time>
      </trkpt>
      <trkpt lat="44.7239" lon="7.01067">
        <ele>1983.4</ele>
        <time>2026-08-31T06:36:38Z</time>
      </trkpt>
      <trkpt lat="44.72386" lon="7.01078">
        <ele>1982</ele>
        <time>2026-08-31T06:36:44Z</time>
      </trkpt>
      <trkpt lat="44.72384" lon="7.01087">
        <ele>1981.1</ele>
        <time>2026-08-31T06:36:49Z</time>
      </trkpt>
      <trkpt lat="44.7238" lon="7.01095">
        <ele>1981.9</ele>
        <time>2026-08-31T06:36:54Z</time>
      </trkpt>
      <trkpt lat="44.72375" lon="7.01105">
        <ele>1982.6</ele>
        <time>2026-08-31T06:37:00Z</time>
      </trkpt>
      <trkpt lat="44.72372" lon="7.01114">
        <ele>1982.5</ele>
        <time>2026-08-31T06:37:05Z</time>
      </trkpt>
      <trkpt lat="44.72369" lon="7.01122">
        <ele>1982.2</ele>
        <time>2026-08-31T06:37:10Z</time>
      </trkpt>
      <trkpt lat="44.72367" lon="7.01133">
        <ele>1981.3</ele>
        <time>2026-08-31T06:37:16Z</time>
      </trkpt>
      <trkpt lat="44.72365" lon="7.01142">
        <ele>1980.5</ele>
        <time>2026-08-31T06:37:21Z</time>
      </trkpt>
      <trkpt lat="44.72364" lon="7.01149">
        <ele>1979.7</ele>
        <time>2026-08-31T06:37:26Z</time>
      </trkpt>
      <trkpt lat="44.7236" lon="7.01157">
        <ele>1978.6</ele>
        <time>2026-08-31T06:37:32Z</time>
      </trkpt>
      <trkpt lat="44.72359" lon="7.01161">
        <ele>1978</ele>
        <time>2026-08-31T06:37:37Z</time>
      </trkpt>
      <trkpt lat="44.72359" lon="7.01161">
        <ele>1978</ele>
        <time>2026-08-31T06:37:42Z</time>
      </trkpt>
      <trkpt lat="44.72356" lon="7.01162">
        <ele>1977.6</ele>
        <time>2026-08-31T06:37:48Z</time>
      </trkpt>
      <trkpt lat="44.72351" lon="7.01167">
        <ele>1976.5</ele>
        <time>2026-08-31T06:37:53Z</time>
      </trkpt>
      <trkpt lat="44.72346" lon="7.01173">
        <ele>1976.9</ele>
        <time>2026-08-31T06:37:58Z</time>
      </trkpt>
      <trkpt lat="44.72338" lon="7.01176">
        <ele>1976.6</ele>
        <time>2026-08-31T06:38:04Z</time>
      </trkpt>
      <trkpt lat="44.72331" lon="7.01181">
        <ele>1977.2</ele>
        <time>2026-08-31T06:38:09Z</time>
      </trkpt>
      <trkpt lat="44.72325" lon="7.01187">
        <ele>1979.1</ele>
        <time>2026-08-31T06:38:14Z</time>
      </trkpt>
      <trkpt lat="44.72319" lon="7.01194">
        <ele>1980.9</ele>
        <time>2026-08-31T06:38:20Z</time>
      </trkpt>
      <trkpt lat="44.72313" lon="7.012">
        <ele>1982.3</ele>
        <time>2026-08-31T06:38:25Z</time>
      </trkpt>
      <trkpt lat="44.72308" lon="7.01207">
        <ele>1983.4</ele>
        <time>2026-08-31T06:38:30Z</time>
      </trkpt>
      <trkpt lat="44.723" lon="7.01214">
        <ele>1984.7</ele>
        <time>2026-08-31T06:38:36Z</time>
      </trkpt>
      <trkpt lat="44.72295" lon="7.01218">
        <ele>1985.3</ele>
        <time>2026-08-31T06:38:41Z</time>
      </trkpt>
      <trkpt lat="44.72289" lon="7.01223">
        <ele>1985.9</ele>
        <time>2026-08-31T06:38:46Z</time>
      </trkpt>
      <trkpt lat="44.72285" lon="7.01232">
        <ele>1986.1</ele>
        <time>2026-08-31T06:38:52Z</time>
      </trkpt>
      <trkpt lat="44.7228" lon="7.01239">
        <ele>1986.1</ele>
        <time>2026-08-31T06:38:57Z</time>
      </trkpt>
      <trkpt lat="44.72275" lon="7.01243">
        <ele>1986.1</ele>
        <time>2026-08-31T06:39:02Z</time>
      </trkpt>
      <trkpt lat="44.72269" lon="7.01248">
        <ele>1985.9</ele>
        <time>2026-08-31T06:39:08Z</time>
      </trkpt>
      <trkpt lat="44.72263" lon="7.01254">
        <ele>1986.2</ele>
        <time>2026-08-31T06:39:13Z</time>
      </trkpt>
      <trkpt lat="44.72259" lon="7.01258">
        <ele>1986.5</ele>
        <time>2026-08-31T06:39:18Z</time>
      </trkpt>
      <trkpt lat="44.72259" lon="7.01258">
        <ele>1986.5</ele>
        <time>2026-08-31T06:39:24Z</time>
      </trkpt>
      <trkpt lat="44.72259" lon="7.01258">
        <ele>1986.5</ele>
        <time>2026-08-31T06:39:29Z</time>
      </trkpt>
      <trkpt lat="44.72259" lon="7.01258">
        <ele>1986.5</ele>
        <time>2026-08-31T06:39:34Z</time>
      </trkpt>
      <trkpt lat="44.72259" lon="7.01258">
        <ele>1986.5</ele>
        <time>2026-08-31T06:39:40Z</time>
      </trkpt>
      <trkpt lat="44.72252" lon="7.0126">
        <ele>1986.7</ele>
        <time>2026-08-31T06:39:45Z</time>
      </trkpt>
      <trkpt lat="44.72248" lon="7.01266">
        <ele>1987.5</ele>
        <time>2026-08-31T06:39:50Z</time>
      </trkpt>
      <trkpt lat="44.72242" lon="7.01272">
        <ele>1988.7</ele>
        <time>2026-08-31T06:39:56Z</time>
      </trkpt>
      <trkpt lat="44.72237" lon="7.01274">
        <ele>1989.5</ele>
        <time>2026-08-31T06:40:01Z</time>
      </trkpt>
      <trkpt lat="44.72233" lon="7.0128">
        <ele>1990.2</ele>
        <time>2026-08-31T06:40:06Z</time>
      </trkpt>
      <trkpt lat="44.72226" lon="7.01285">
        <ele>1991</ele>
        <time>2026-08-31T06:40:12Z</time>
      </trkpt>
      <trkpt lat="44.7222" lon="7.01289">
        <ele>1991.6</ele>
        <time>2026-08-31T06:40:17Z</time>
      </trkpt>
      <trkpt lat="44.72216" lon="7.01293">
        <ele>1991.8</ele>
        <time>2026-08-31T06:40:22Z</time>
      </trkpt>
      <trkpt lat="44.7221" lon="7.01298">
        <ele>1992.1</ele>
        <time>2026-08-31T06:40:28Z</time>
      </trkpt>
      <trkpt lat="44.72205" lon="7.013">
        <ele>1992.3</ele>
        <time>2026-08-31T06:40:33Z</time>
      </trkpt>
      <trkpt lat="44.72198" lon="7.01302">
        <ele>1992.6</ele>
        <time>2026-08-31T06:40:38Z</time>
      </trkpt>
      <trkpt lat="44.72192" lon="7.01305">
        <ele>1992.6</ele>
        <time>2026-08-31T06:40:44Z</time>
      </trkpt>
      <trkpt lat="44.72185" lon="7.01309">
        <ele>1992.5</ele>
        <time>2026-08-31T06:40:49Z</time>
      </trkpt>
      <trkpt lat="44.72179" lon="7.01313">
        <ele>1992.1</ele>
        <time>2026-08-31T06:40:54Z</time>
      </trkpt>
      <trkpt lat="44.72174" lon="7.01317">
        <ele>1991.7</ele>
        <time>2026-08-31T06:41:00Z</time>
      </trkpt>
      <trkpt lat="44.72167" lon="7.01321">
        <ele>1991.1</ele>
        <time>2026-08-31T06:41:05Z</time>
      </trkpt>
      <trkpt lat="44.72162" lon="7.01325">
        <ele>1991.6</ele>
        <time>2026-08-31T06:41:10Z</time>
      </trkpt>
      <trkpt lat="44.72156" lon="7.01334">
        <ele>1991.6</ele>
        <time>2026-08-31T06:41:16Z</time>
      </trkpt>
      <trkpt lat="44.72151" lon="7.01343">
        <ele>1993.1</ele>
        <time>2026-08-31T06:41:21Z</time>
      </trkpt>
      <trkpt lat="44.72145" lon="7.01347">
        <ele>1994.4</ele>
        <time>2026-08-31T06:41:26Z</time>
      </trkpt>
      <trkpt lat="44.72138" lon="7.01354">
        <ele>1995.7</ele>
        <time>2026-08-31T06:41:32Z</time>
      </trkpt>
      <trkpt lat="44.72134" lon="7.0136">
        <ele>1996.3</ele>
        <time>2026-08-31T06:41:37Z</time>
      </trkpt>
      <trkpt lat="44.72129" lon="7.01366">
        <ele>1996.7</ele>
        <time>2026-08-31T06:41:42Z</time>
      </trkpt>
      <trkpt lat="44.72121" lon="7.01368">
        <ele>1997.6</ele>
        <time>2026-08-31T06:41:48Z</time>
      </trkpt>
      <trkpt lat="44.72116" lon="7.01374">
        <ele>1997.6</ele>
        <time>2026-08-31T06:41:53Z</time>
      </trkpt>
      <trkpt lat="44.72114" lon="7.01378">
        <ele>1997.5</ele>
        <time>2026-08-31T06:41:58Z</time>
      </trkpt>
      <trkpt lat="44.72113" lon="7.01376">
        <ele>1997.7</ele>
        <time>2026-08-31T06:42:04Z</time>
      </trkpt>
      <trkpt lat="44.72112" lon="7.01376">
        <ele>1997.8</ele>
        <time>2026-08-31T06:42:09Z</time>
      </trkpt>
      <trkpt lat="44.72112" lon="7.01376">
        <ele>1997.8</ele>
        <time>2026-08-31T06:42:14Z</time>
      </trkpt>
      <trkpt lat="44.72112" lon="7.01376">
        <ele>1997.8</ele>
        <time>2026-08-31T06:42:20Z</time>
      </trkpt>
      <trkpt lat="44.72112" lon="7.01376">
        <ele>1997.8</ele>
        <time>2026-08-31T06:42:25Z</time>
      </trkpt>
      <trkpt lat="44.72112" lon="7.01376">
        <ele>1997.8</ele>
        <time>2026-08-31T06:42:30Z</time>
      </trkpt>
      <trkpt lat="44.72112" lon="7.01376">
        <ele>1997.8</ele>
        <time>2026-08-31T06:42:36Z</time>
      </trkpt>
      <trkpt lat="44.72112" lon="7.01376">
        <ele>1997.8</ele>
        <time>2026-08-31T06:42:41Z</time>
      </trkpt>
      <trkpt lat="44.72112" lon="7.01376">
        <ele>1997.8</ele>
        <time>2026-08-31T06:42:46Z</time>
      </trkpt>
      <trkpt lat="44.72112" lon="7.01376">
        <ele>1997.8</ele>
        <time>2026-08-31T06:42:52Z</time>
      </trkpt>
      <trkpt lat="44.72112" lon="7.01376">
        <ele>1997.8</ele>
        <time>2026-08-31T06:42:57Z</time>
      </trkpt>
      <trkpt lat="44.72112" lon="7.01376">
        <ele>1997.8</ele>
        <time>2026-08-31T06:43:02Z</time>
      </trkpt>
      <trkpt lat="44.72112" lon="7.01376">
        <ele>1997.8</ele>
        <time>2026-08-31T06:43:08Z</time>
      </trkpt>
      <trkpt lat="44.72112" lon="7.01376">
        <ele>1997.8</ele>
        <time>2026-08-31T06:43:13Z</time>
      </trkpt>
      <trkpt lat="44.72112" lon="7.01376">
        <ele>1997.8</ele>
        <time>2026-08-31T06:43:18Z</time>
      </trkpt>
      <trkpt lat="44.72112" lon="7.01376">
        <ele>1997.8</ele>
        <time>2026-08-31T06:43:24Z</time>
      </trkpt>
      <trkpt lat="44.72112" lon="7.01376">
        <ele>1997.8</ele>
        <time>2026-08-31T06:43:29Z</time>
      </trkpt>
      <trkpt lat="44.72112" lon="7.01376">
        <ele>1997.8</ele>
        <time>2026-08-31T06:43:34Z</time>
      </trkpt>
      <trkpt lat="44.72112" lon="7.01376">
        <ele>1997.8</ele>
        <time>2026-08-31T06:43:40Z</time>
      </trkpt>
      <trkpt lat="44.72112" lon="7.01376">
        <ele>1997.8</ele>
        <time>2026-08-31T06:43:45Z</time>
      </trkpt>
      <trkpt lat="44.72112" lon="7.01376">
        <ele>1997.8</ele>
        <time>2026-08-31T06:43:50Z</time>
      </trkpt>
      <trkpt lat="44.72112" lon="7.01376">
        <ele>1997.8</ele>
        <time>2026-08-31T06:43:56Z</time>
      </trkpt>
      <trkpt lat="44.72112" lon="7.01376">
        <ele>1997.8</ele>
        <time>2026-08-31T06:44:01Z</time>
      </trkpt>
      <trkpt lat="44.72112" lon="7.01376">
        <ele>1997.8</ele>
        <time>2026-08-31T06:44:06Z</time>
      </trkpt>
      <trkpt lat="44.72112" lon="7.01376">
        <ele>1997.8</ele>
        <time>2026-08-31T06:44:12Z</time>
      </trkpt>
      <trkpt lat="44.72112" lon="7.01376">
        <ele>1997.8</ele>
        <time>2026-08-31T06:44:17Z</time>
      </trkpt>
      <trkpt lat="44.72112" lon="7.01376">
        <ele>1997.8</ele>
        <time>2026-08-31T06:44:22Z</time>
      </trkpt>
      <trkpt lat="44.72107" lon="7.01378">
        <ele>1998</ele>
        <time>2026-08-31T06:44:28Z</time>
      </trkpt>
      <trkpt lat="44.72103" lon="7.01383">
        <ele>1997.7</ele>
        <time>2026-08-31T06:44:33Z</time>
      </trkpt>
      <trkpt lat="44.721" lon="7.01385">
        <ele>1997.6</ele>
        <time>2026-08-31T06:44:38Z</time>
      </trkpt>
      <trkpt lat="44.72098" lon="7.01389">
        <ele>1997.1</ele>
        <time>2026-08-31T06:44:44Z</time>
      </trkpt>
      <trkpt lat="44.72092" lon="7.01396">
        <ele>1996.1</ele>
        <time>2026-08-31T06:44:49Z</time>
      </trkpt>
      <trkpt lat="44.72086" lon="7.014">
        <ele>1995.4</ele>
        <time>2026-08-31T06:44:54Z</time>
      </trkpt>
      <trkpt lat="44.72077" lon="7.01403">
        <ele>1997</ele>
        <time>2026-08-31T06:45:00Z</time>
      </trkpt>
      <trkpt lat="44.7207" lon="7.01408">
        <ele>1998.2</ele>
        <time>2026-08-31T06:45:05Z</time>
      </trkpt>
      <trkpt lat="44.72063" lon="7.01415">
        <ele>1998.8</ele>
        <time>2026-08-31T06:45:10Z</time>
      </trkpt>
      <trkpt lat="44.72055" lon="7.01421">
        <ele>2000.7</ele>
        <time>2026-08-31T06:45:16Z</time>
      </trkpt>
      <trkpt lat="44.72049" lon="7.01427">
        <ele>2002.2</ele>
        <time>2026-08-31T06:45:21Z</time>
      </trkpt>
      <trkpt lat="44.72043" lon="7.01434">
        <ele>2003.2</ele>
        <time>2026-08-31T06:45:26Z</time>
      </trkpt>
      <trkpt lat="44.72035" lon="7.01439">
        <ele>2004.6</ele>
        <time>2026-08-31T06:45:32Z</time>
      </trkpt>
      <trkpt lat="44.72027" lon="7.01444">
        <ele>2005.5</ele>
        <time>2026-08-31T06:45:37Z</time>
      </trkpt>
      <trkpt lat="44.7202" lon="7.01448">
        <ele>2006.2</ele>
        <time>2026-08-31T06:45:42Z</time>
      </trkpt>
      <trkpt lat="44.72011" lon="7.01449">
        <ele>2007.6</ele>
        <time>2026-08-31T06:45:48Z</time>
      </trkpt>
      <trkpt lat="44.72005" lon="7.01452">
        <ele>2007.9</ele>
        <time>2026-08-31T06:45:53Z</time>
      </trkpt>
      <trkpt lat="44.71998" lon="7.01457">
        <ele>2008.1</ele>
        <time>2026-08-31T06:45:58Z</time>
      </trkpt>
      <trkpt lat="44.71989" lon="7.01461">
        <ele>2010.3</ele>
        <time>2026-08-31T06:46:04Z</time>
      </trkpt>
      <trkpt lat="44.71981" lon="7.01463">
        <ele>2012.6</ele>
        <time>2026-08-31T06:46:09Z</time>
      </trkpt>
      <trkpt lat="44.71974" lon="7.01465">
        <ele>2014.5</ele>
        <time>2026-08-31T06:46:14Z</time>
      </trkpt>
      <trkpt lat="44.71967" lon="7.0147">
        <ele>2015.2</ele>
        <time>2026-08-31T06:46:20Z</time>
      </trkpt>
      <trkpt lat="44.7196" lon="7.01476">
        <ele>2015.4</ele>
        <time>2026-08-31T06:46:25Z</time>
      </trkpt>
      <trkpt lat="44.71954" lon="7.01479">
        <ele>2016.2</ele>
        <time>2026-08-31T06:46:30Z</time>
      </trkpt>
      <trkpt lat="44.71946" lon="7.01487">
        <ele>2015.5</ele>
        <time>2026-08-31T06:46:36Z</time>
      </trkpt>
      <trkpt lat="44.71939" lon="7.01491">
        <ele>2015.9</ele>
        <time>2026-08-31T06:46:41Z</time>
      </trkpt>
      <trkpt lat="44.71936" lon="7.01497">
        <ele>2014.2</ele>
        <time>2026-08-31T06:46:46Z</time>
      </trkpt>
      <trkpt lat="44.71932" lon="7.01504">
        <ele>2013.2</ele>
        <time>2026-08-31T06:46:52Z</time>
      </trkpt>
      <trkpt lat="44.71927" lon="7.0151">
        <ele>2013.3</ele>
        <time>2026-08-31T06:46:57Z</time>
      </trkpt>
      <trkpt lat="44.71923" lon="7.01516">
        <ele>2012.9</ele>
        <time>2026-08-31T06:47:02Z</time>
      </trkpt>
      <trkpt lat="44.71919" lon="7.01522">
        <ele>2012.3</ele>
        <time>2026-08-31T06:47:08Z</time>
      </trkpt>
      <trkpt lat="44.71915" lon="7.01531">
        <ele>2011.3</ele>
        <time>2026-08-31T06:47:13Z</time>
      </trkpt>
      <trkpt lat="44.71913" lon="7.01539">
        <ele>2010.3</ele>
        <time>2026-08-31T06:47:18Z</time>
      </trkpt>
      <trkpt lat="44.71909" lon="7.01547">
        <ele>2009.9</ele>
        <time>2026-08-31T06:47:24Z</time>
      </trkpt>
      <trkpt lat="44.71906" lon="7.01553">
        <ele>2009.5</ele>
        <time>2026-08-31T06:47:29Z</time>
      </trkpt>
      <trkpt lat="44.71903" lon="7.01561">
        <ele>2008.4</ele>
        <time>2026-08-31T06:47:34Z</time>
      </trkpt>
      <trkpt lat="44.71898" lon="7.01567">
        <ele>2008.3</ele>
        <time>2026-08-31T06:47:40Z</time>
      </trkpt>
      <trkpt lat="44.71895" lon="7.01573">
        <ele>2007.5</ele>
        <time>2026-08-31T06:47:45Z</time>
      </trkpt>
      <trkpt lat="44.71891" lon="7.01578">
        <ele>2007.1</ele>
        <time>2026-08-31T06:47:50Z</time>
      </trkpt>
      <trkpt lat="44.71884" lon="7.0158">
        <ele>2008.6</ele>
        <time>2026-08-31T06:47:56Z</time>
      </trkpt>
      <trkpt lat="44.71879" lon="7.01584">
        <ele>2008.8</ele>
        <time>2026-08-31T06:48:01Z</time>
      </trkpt>
      <trkpt lat="44.71875" lon="7.0159">
        <ele>2009.4</ele>
        <time>2026-08-31T06:48:06Z</time>
      </trkpt>
      <trkpt lat="44.71868" lon="7.01595">
        <ele>2010.7</ele>
        <time>2026-08-31T06:48:12Z</time>
      </trkpt>
      <trkpt lat="44.71864" lon="7.016">
        <ele>2011.1</ele>
        <time>2026-08-31T06:48:17Z</time>
      </trkpt>
      <trkpt lat="44.71859" lon="7.01604">
        <ele>2011.6</ele>
        <time>2026-08-31T06:48:22Z</time>
      </trkpt>
      <trkpt lat="44.71854" lon="7.01611">
        <ele>2011.5</ele>
        <time>2026-08-31T06:48:28Z</time>
      </trkpt>
      <trkpt lat="44.7185" lon="7.01616">
        <ele>2011.4</ele>
        <time>2026-08-31T06:48:33Z</time>
      </trkpt>
      <trkpt lat="44.71846" lon="7.01618">
        <ele>2011.7</ele>
        <time>2026-08-31T06:48:38Z</time>
      </trkpt>
      <trkpt lat="44.7184" lon="7.01623">
        <ele>2011.6</ele>
        <time>2026-08-31T06:48:44Z</time>
      </trkpt>
      <trkpt lat="44.71836" lon="7.01627">
        <ele>2011.2</ele>
        <time>2026-08-31T06:48:49Z</time>
      </trkpt>
      <trkpt lat="44.71832" lon="7.01632">
        <ele>2011</ele>
        <time>2026-08-31T06:48:54Z</time>
      </trkpt>
      <trkpt lat="44.71829" lon="7.01639">
        <ele>2010.6</ele>
        <time>2026-08-31T06:49:00Z</time>
      </trkpt>
      <trkpt lat="44.71827" lon="7.01644">
        <ele>2010.2</ele>
        <time>2026-08-31T06:49:05Z</time>
      </trkpt>
      <trkpt lat="44.71825" lon="7.01647">
        <ele>2010.2</ele>
        <time>2026-08-31T06:49:10Z</time>
      </trkpt>
      <trkpt lat="44.71825" lon="7.0165">
        <ele>2009.3</ele>
        <time>2026-08-31T06:49:16Z</time>
      </trkpt>
      <trkpt lat="44.71824" lon="7.01652">
        <ele>2009.1</ele>
        <time>2026-08-31T06:49:21Z</time>
      </trkpt>
      <trkpt lat="44.71818" lon="7.01657">
        <ele>2009.8</ele>
        <time>2026-08-31T06:49:26Z</time>
      </trkpt>
      <trkpt lat="44.71813" lon="7.01662">
        <ele>2009.8</ele>
        <time>2026-08-31T06:49:32Z</time>
      </trkpt>
      <trkpt lat="44.7181" lon="7.01667">
        <ele>2009</ele>
        <time>2026-08-31T06:49:37Z</time>
      </trkpt>
      <trkpt lat="44.71806" lon="7.01671">
        <ele>2010.2</ele>
        <time>2026-08-31T06:49:42Z</time>
      </trkpt>
      <trkpt lat="44.71804" lon="7.01679">
        <ele>2010.6</ele>
        <time>2026-08-31T06:49:48Z</time>
      </trkpt>
      <trkpt lat="44.71801" lon="7.01684">
        <ele>2011.2</ele>
        <time>2026-08-31T06:49:53Z</time>
      </trkpt>
      <trkpt lat="44.71798" lon="7.0169">
        <ele>2011.6</ele>
        <time>2026-08-31T06:49:58Z</time>
      </trkpt>
      <trkpt lat="44.71793" lon="7.01696">
        <ele>2012.2</ele>
        <time>2026-08-31T06:50:04Z</time>
      </trkpt>
      <trkpt lat="44.7179" lon="7.01701">
        <ele>2012.3</ele>
        <time>2026-08-31T06:50:09Z</time>
      </trkpt>
      <trkpt lat="44.71786" lon="7.01703">
        <ele>2012.7</ele>
        <time>2026-08-31T06:50:14Z</time>
      </trkpt>
      <trkpt lat="44.7178" lon="7.01707">
        <ele>2013.1</ele>
        <time>2026-08-31T06:50:20Z</time>
      </trkpt>
      <trkpt lat="44.71776" lon="7.01712">
        <ele>2012.9</ele>
        <time>2026-08-31T06:50:25Z</time>
      </trkpt>
      <trkpt lat="44.71771" lon="7.01716">
        <ele>2012.7</ele>
        <time>2026-08-31T06:50:30Z</time>
      </trkpt>
      <trkpt lat="44.71766" lon="7.01719">
        <ele>2012.6</ele>
        <time>2026-08-31T06:50:36Z</time>
      </trkpt>
      <trkpt lat="44.71762" lon="7.01725">
        <ele>2011.7</ele>
        <time>2026-08-31T06:50:41Z</time>
      </trkpt>
      <trkpt lat="44.71757" lon="7.01728">
        <ele>2011.3</ele>
        <time>2026-08-31T06:50:46Z</time>
      </trkpt>
      <trkpt lat="44.71752" lon="7.01735">
        <ele>2009.8</ele>
        <time>2026-08-31T06:50:52Z</time>
      </trkpt>
      <trkpt lat="44.71747" lon="7.0174">
        <ele>2009.4</ele>
        <time>2026-08-31T06:50:57Z</time>
      </trkpt>
      <trkpt lat="44.71743" lon="7.01744">
        <ele>2009.4</ele>
        <time>2026-08-31T06:51:02Z</time>
      </trkpt>
      <trkpt lat="44.71736" lon="7.0175">
        <ele>2009.4</ele>
        <time>2026-08-31T06:51:08Z</time>
      </trkpt>
      <trkpt lat="44.71731" lon="7.01757">
        <ele>2010.6</ele>
        <time>2026-08-31T06:51:13Z</time>
      </trkpt>
      <trkpt lat="44.71729" lon="7.01765">
        <ele>2011</ele>
        <time>2026-08-31T06:51:18Z</time>
      </trkpt>
      <trkpt lat="44.71722" lon="7.01771">
        <ele>2012.4</ele>
        <time>2026-08-31T06:51:24Z</time>
      </trkpt>
      <trkpt lat="44.71717" lon="7.01778">
        <ele>2013.2</ele>
        <time>2026-08-31T06:51:29Z</time>
      </trkpt>
      <trkpt lat="44.71712" lon="7.01784">
        <ele>2013.9</ele>
        <time>2026-08-31T06:51:34Z</time>
      </trkpt>
      <trkpt lat="44.71706" lon="7.0179">
        <ele>2014.7</ele>
        <time>2026-08-31T06:51:40Z</time>
      </trkpt>
      <trkpt lat="44.71702" lon="7.01799">
        <ele>2014.9</ele>
        <time>2026-08-31T06:51:45Z</time>
      </trkpt>
      <trkpt lat="44.71697" lon="7.01806">
        <ele>2015.2</ele>
        <time>2026-08-31T06:51:50Z</time>
      </trkpt>
      <trkpt lat="44.71693" lon="7.01817">
        <ele>2014.9</ele>
        <time>2026-08-31T06:51:56Z</time>
      </trkpt>
      <trkpt lat="44.71692" lon="7.01827">
        <ele>2014.3</ele>
        <time>2026-08-31T06:52:01Z</time>
      </trkpt>
      <trkpt lat="44.71688" lon="7.01835">
        <ele>2014.2</ele>
        <time>2026-08-31T06:52:06Z</time>
      </trkpt>
      <trkpt lat="44.71683" lon="7.01845">
        <ele>2014.4</ele>
        <time>2026-08-31T06:52:12Z</time>
      </trkpt>
      <trkpt lat="44.71682" lon="7.01854">
        <ele>2014.2</ele>
        <time>2026-08-31T06:52:17Z</time>
      </trkpt>
      <trkpt lat="44.7168" lon="7.01864">
        <ele>2014.1</ele>
        <time>2026-08-31T06:52:22Z</time>
      </trkpt>
      <trkpt lat="44.71674" lon="7.01875">
        <ele>2013.9</ele>
        <time>2026-08-31T06:52:28Z</time>
      </trkpt>
      <trkpt lat="44.71671" lon="7.01883">
        <ele>2013.6</ele>
        <time>2026-08-31T06:52:33Z</time>
      </trkpt>
      <trkpt lat="44.71666" lon="7.0189">
        <ele>2013.5</ele>
        <time>2026-08-31T06:52:38Z</time>
      </trkpt>
      <trkpt lat="44.71661" lon="7.019">
        <ele>2014.5</ele>
        <time>2026-08-31T06:52:44Z</time>
      </trkpt>
      <trkpt lat="44.71656" lon="7.01909">
        <ele>2015.4</ele>
        <time>2026-08-31T06:52:49Z</time>
      </trkpt>
      <trkpt lat="44.71652" lon="7.01918">
        <ele>2016</ele>
        <time>2026-08-31T06:52:54Z</time>
      </trkpt>
      <trkpt lat="44.71645" lon="7.01925">
        <ele>2017.7</ele>
        <time>2026-08-31T06:53:00Z</time>
      </trkpt>
      <trkpt lat="44.71641" lon="7.01931">
        <ele>2018.5</ele>
        <time>2026-08-31T06:53:05Z</time>
      </trkpt>
      <trkpt lat="44.71637" lon="7.01939">
        <ele>2019</ele>
        <time>2026-08-31T06:53:10Z</time>
      </trkpt>
      <trkpt lat="44.7163" lon="7.01948">
        <ele>2020</ele>
        <time>2026-08-31T06:53:16Z</time>
      </trkpt>
      <trkpt lat="44.71625" lon="7.01956">
        <ele>2020.4</ele>
        <time>2026-08-31T06:53:21Z</time>
      </trkpt>
      <trkpt lat="44.7162" lon="7.01965">
        <ele>2020.6</ele>
        <time>2026-08-31T06:53:26Z</time>
      </trkpt>
      <trkpt lat="44.71613" lon="7.01975">
        <ele>2020.7</ele>
        <time>2026-08-31T06:53:32Z</time>
      </trkpt>
      <trkpt lat="44.71608" lon="7.01982">
        <ele>2020.7</ele>
        <time>2026-08-31T06:53:37Z</time>
      </trkpt>
      <trkpt lat="44.71603" lon="7.0199">
        <ele>2020.4</ele>
        <time>2026-08-31T06:53:42Z</time>
      </trkpt>
      <trkpt lat="44.71597" lon="7.01994">
        <ele>2020.5</ele>
        <time>2026-08-31T06:53:48Z</time>
      </trkpt>
      <trkpt lat="44.71596" lon="7.02003">
        <ele>2019.7</ele>
        <time>2026-08-31T06:53:53Z</time>
      </trkpt>
      <trkpt lat="44.71594" lon="7.02009">
        <ele>2019.6</ele>
        <time>2026-08-31T06:53:58Z</time>
      </trkpt>
      <trkpt lat="44.71591" lon="7.02021">
        <ele>2019.1</ele>
        <time>2026-08-31T06:54:04Z</time>
      </trkpt>
      <trkpt lat="44.7159" lon="7.0203">
        <ele>2018.6</ele>
        <time>2026-08-31T06:54:09Z</time>
      </trkpt>
      <trkpt lat="44.71586" lon="7.02037">
        <ele>2018</ele>
        <time>2026-08-31T06:54:14Z</time>
      </trkpt>
      <trkpt lat="44.71585" lon="7.02039">
        <ele>2017.8</ele>
        <time>2026-08-31T06:54:20Z</time>
      </trkpt>
      <trkpt lat="44.71584" lon="7.02038">
        <ele>2017.8</ele>
        <time>2026-08-31T06:54:25Z</time>
      </trkpt>
      <trkpt lat="44.71584" lon="7.02038">
        <ele>2017.8</ele>
        <time>2026-08-31T06:54:30Z</time>
      </trkpt>
      <trkpt lat="44.71578" lon="7.02048">
        <ele>2017.4</ele>
        <time>2026-08-31T06:54:36Z</time>
      </trkpt>
      <trkpt lat="44.71574" lon="7.02054">
        <ele>2017.1</ele>
        <time>2026-08-31T06:54:41Z</time>
      </trkpt>
      <trkpt lat="44.71567" lon="7.0206">
        <ele>2017.1</ele>
        <time>2026-08-31T06:54:46Z</time>
      </trkpt>
      <trkpt lat="44.71561" lon="7.02068">
        <ele>2016.8</ele>
        <time>2026-08-31T06:54:52Z</time>
      </trkpt>
      <trkpt lat="44.71554" lon="7.02072">
        <ele>2016.9</ele>
        <time>2026-08-31T06:54:57Z</time>
      </trkpt>
      <trkpt lat="44.71546" lon="7.02075">
        <ele>2017.1</ele>
        <time>2026-08-31T06:55:02Z</time>
      </trkpt>
      <trkpt lat="44.71539" lon="7.0208">
        <ele>2017</ele>
        <time>2026-08-31T06:55:08Z</time>
      </trkpt>
      <trkpt lat="44.71531" lon="7.02082">
        <ele>2017.3</ele>
        <time>2026-08-31T06:55:13Z</time>
      </trkpt>
      <trkpt lat="44.71524" lon="7.02085">
        <ele>2017.7</ele>
        <time>2026-08-31T06:55:18Z</time>
      </trkpt>
      <trkpt lat="44.71517" lon="7.02088">
        <ele>2018.2</ele>
        <time>2026-08-31T06:55:24Z</time>
      </trkpt>
      <trkpt lat="44.7151" lon="7.02089">
        <ele>2018.6</ele>
        <time>2026-08-31T06:55:29Z</time>
      </trkpt>
      <trkpt lat="44.71503" lon="7.02094">
        <ele>2018.9</ele>
        <time>2026-08-31T06:55:34Z</time>
      </trkpt>
      <trkpt lat="44.71496" lon="7.021">
        <ele>2019.1</ele>
        <time>2026-08-31T06:55:40Z</time>
      </trkpt>
      <trkpt lat="44.71491" lon="7.02106">
        <ele>2019.3</ele>
        <time>2026-08-31T06:55:45Z</time>
      </trkpt>
      <trkpt lat="44.71485" lon="7.02111">
        <ele>2019.4</ele>
        <time>2026-08-31T06:55:50Z</time>
      </trkpt>
      <trkpt lat="44.71479" lon="7.02118">
        <ele>2019.5</ele>
        <time>2026-08-31T06:55:56Z</time>
      </trkpt>
      <trkpt lat="44.71475" lon="7.02124">
        <ele>2019.5</ele>
        <time>2026-08-31T06:56:01Z</time>
      </trkpt>
      <trkpt lat="44.71473" lon="7.02125">
        <ele>2019.5</ele>
        <time>2026-08-31T06:56:06Z</time>
      </trkpt>
      <trkpt lat="44.71473" lon="7.02125">
        <ele>2019.5</ele>
        <time>2026-08-31T06:56:12Z</time>
      </trkpt>
      <trkpt lat="44.71473" lon="7.02127">
        <ele>2019.4</ele>
        <time>2026-08-31T06:56:17Z</time>
      </trkpt>
      <trkpt lat="44.71473" lon="7.02127">
        <ele>2019.4</ele>
        <time>2026-08-31T06:56:22Z</time>
      </trkpt>
      <trkpt lat="44.71473" lon="7.02127">
        <ele>2019.4</ele>
        <time>2026-08-31T06:56:28Z</time>
      </trkpt>
      <trkpt lat="44.71473" lon="7.02127">
        <ele>2019.4</ele>
        <time>2026-08-31T06:56:33Z</time>
      </trkpt>
      <trkpt lat="44.71473" lon="7.02127">
        <ele>2019.4</ele>
        <time>2026-08-31T06:56:38Z</time>
      </trkpt>
      <trkpt lat="44.71473" lon="7.02127">
        <ele>2019.4</ele>
        <time>2026-08-31T06:56:44Z</time>
      </trkpt>
      <trkpt lat="44.71473" lon="7.02127">
        <ele>2019.4</ele>
        <time>2026-08-31T06:56:49Z</time>
      </trkpt>
      <trkpt lat="44.71473" lon="7.02127">
        <ele>2019.4</ele>
        <time>2026-08-31T06:56:54Z</time>
      </trkpt>
      <trkpt lat="44.71473" lon="7.02127">
        <ele>2019.4</ele>
        <time>2026-08-31T06:57:00Z</time>
      </trkpt>
      <trkpt lat="44.71473" lon="7.02127">
        <ele>2019.4</ele>
        <time>2026-08-31T06:57:05Z</time>
      </trkpt>
      <trkpt lat="44.71473" lon="7.02127">
        <ele>2019.4</ele>
        <time>2026-08-31T06:57:10Z</time>
      </trkpt>
      <trkpt lat="44.71473" lon="7.02127">
        <ele>2019.4</ele>
        <time>2026-08-31T06:57:16Z</time>
      </trkpt>
      <trkpt lat="44.71471" lon="7.02135">
        <ele>2019.3</ele>
        <time>2026-08-31T06:57:21Z</time>
      </trkpt>
      <trkpt lat="44.71468" lon="7.02143">
        <ele>2019.2</ele>
        <time>2026-08-31T06:57:26Z</time>
      </trkpt>
      <trkpt lat="44.71462" lon="7.02149">
        <ele>2019</ele>
        <time>2026-08-31T06:57:32Z</time>
      </trkpt>
      <trkpt lat="44.71455" lon="7.02154">
        <ele>2018.9</ele>
        <time>2026-08-31T06:57:37Z</time>
      </trkpt>
      <trkpt lat="44.71451" lon="7.0216">
        <ele>2018.6</ele>
        <time>2026-08-31T06:57:42Z</time>
      </trkpt>
      <trkpt lat="44.71446" lon="7.02165">
        <ele>2018.4</ele>
        <time>2026-08-31T06:57:48Z</time>
      </trkpt>
      <trkpt lat="44.7144" lon="7.0217">
        <ele>2018.9</ele>
        <time>2026-08-31T06:57:53Z</time>
      </trkpt>
      <trkpt lat="44.71436" lon="7.02174">
        <ele>2019.5</ele>
        <time>2026-08-31T06:57:58Z</time>
      </trkpt>
      <trkpt lat="44.7143" lon="7.02178">
        <ele>2020</ele>
        <time>2026-08-31T06:58:04Z</time>
      </trkpt>
      <trkpt lat="44.71424" lon="7.02181">
        <ele>2020.3</ele>
        <time>2026-08-31T06:58:09Z</time>
      </trkpt>
      <trkpt lat="44.71419" lon="7.02183">
        <ele>2020.4</ele>
        <time>2026-08-31T06:58:14Z</time>
      </trkpt>
      <trkpt lat="44.71413" lon="7.02187">
        <ele>2020.8</ele>
        <time>2026-08-31T06:58:20Z</time>
      </trkpt>
      <trkpt lat="44.71409" lon="7.0219">
        <ele>2021.1</ele>
        <time>2026-08-31T06:58:25Z</time>
      </trkpt>
      <trkpt lat="44.71409" lon="7.02192">
        <ele>2021.4</ele>
        <time>2026-08-31T06:58:30Z</time>
      </trkpt>
      <trkpt lat="44.7141" lon="7.02193">
        <ele>2021.5</ele>
        <time>2026-08-31T06:58:36Z</time>
      </trkpt>
      <trkpt lat="44.7141" lon="7.02193">
        <ele>2021.5</ele>
        <time>2026-08-31T06:58:41Z</time>
      </trkpt>
      <trkpt lat="44.7141" lon="7.02193">
        <ele>2021.5</ele>
        <time>2026-08-31T06:58:46Z</time>
      </trkpt>
      <trkpt lat="44.71401" lon="7.02194">
        <ele>2021.3</ele>
        <time>2026-08-31T06:58:52Z</time>
      </trkpt>
      <trkpt lat="44.71396" lon="7.02197">
        <ele>2021.5</ele>
        <time>2026-08-31T06:58:57Z</time>
      </trkpt>
      <trkpt lat="44.7139" lon="7.02197">
        <ele>2021.2</ele>
        <time>2026-08-31T06:59:02Z</time>
      </trkpt>
      <trkpt lat="44.71384" lon="7.02197">
        <ele>2020.9</ele>
        <time>2026-08-31T06:59:08Z</time>
      </trkpt>
      <trkpt lat="44.71377" lon="7.02201">
        <ele>2021</ele>
        <time>2026-08-31T06:59:13Z</time>
      </trkpt>
      <trkpt lat="44.71372" lon="7.02203">
        <ele>2020.9</ele>
        <time>2026-08-31T06:59:18Z</time>
      </trkpt>
      <trkpt lat="44.71363" lon="7.02205">
        <ele>2020.6</ele>
        <time>2026-08-31T06:59:24Z</time>
      </trkpt>
      <trkpt lat="44.71356" lon="7.02207">
        <ele>2020.3</ele>
        <time>2026-08-31T06:59:29Z</time>
      </trkpt>
      <trkpt lat="44.7135" lon="7.02209">
        <ele>2020</ele>
        <time>2026-08-31T06:59:34Z</time>
      </trkpt>
      <trkpt lat="44.71342" lon="7.02211">
        <ele>2019.6</ele>
        <time>2026-08-31T06:59:40Z</time>
      </trkpt>
      <trkpt lat="44.71335" lon="7.0221">
        <ele>2019.1</ele>
        <time>2026-08-31T06:59:45Z</time>
      </trkpt>
      <trkpt lat="44.71328" lon="7.0221">
        <ele>2019.5</ele>
        <time>2026-08-31T06:59:50Z</time>
      </trkpt>
      <trkpt lat="44.7132" lon="7.02209">
        <ele>2020.2</ele>
        <time>2026-08-31T06:59:56Z</time>
      </trkpt>
      <trkpt lat="44.71315" lon="7.02209">
        <ele>2020.7</ele>
        <time>2026-08-31T07:00:01Z</time>
      </trkpt>
      <trkpt lat="44.71308" lon="7.02211">
        <ele>2021.3</ele>
        <time>2026-08-31T07:00:06Z</time>
      </trkpt>
      <trkpt lat="44.71304" lon="7.02216">
        <ele>2021.5</ele>
        <time>2026-08-31T07:00:12Z</time>
      </trkpt>
      <trkpt lat="44.71303" lon="7.02218">
        <ele>2021.6</ele>
        <time>2026-08-31T07:00:17Z</time>
      </trkpt>
      <trkpt lat="44.71297" lon="7.02223">
        <ele>2021.9</ele>
        <time>2026-08-31T07:00:22Z</time>
      </trkpt>
      <trkpt lat="44.7129" lon="7.02229">
        <ele>2022.2</ele>
        <time>2026-08-31T07:00:28Z</time>
      </trkpt>
      <trkpt lat="44.71287" lon="7.02237">
        <ele>2022.1</ele>
        <time>2026-08-31T07:00:33Z</time>
      </trkpt>
      <trkpt lat="44.71284" lon="7.02242">
        <ele>2022.1</ele>
        <time>2026-08-31T07:00:38Z</time>
      </trkpt>
      <trkpt lat="44.7128" lon="7.02252">
        <ele>2022.1</ele>
        <time>2026-08-31T07:00:44Z</time>
      </trkpt>
      <trkpt lat="44.71275" lon="7.02261">
        <ele>2022.8</ele>
        <time>2026-08-31T07:00:49Z</time>
      </trkpt>
      <trkpt lat="44.71271" lon="7.02268">
        <ele>2023.3</ele>
        <time>2026-08-31T07:00:54Z</time>
      </trkpt>
      <trkpt lat="44.71268" lon="7.02279">
        <ele>2024</ele>
        <time>2026-08-31T07:01:00Z</time>
      </trkpt>
      <trkpt lat="44.71267" lon="7.02289">
        <ele>2024.6</ele>
        <time>2026-08-31T07:01:05Z</time>
      </trkpt>
      <trkpt lat="44.71264" lon="7.02295">
        <ele>2024.8</ele>
        <time>2026-08-31T07:01:10Z</time>
      </trkpt>
      <trkpt lat="44.71259" lon="7.02304">
        <ele>2025.2</ele>
        <time>2026-08-31T07:01:16Z</time>
      </trkpt>
      <trkpt lat="44.71254" lon="7.02311">
        <ele>2025.3</ele>
        <time>2026-08-31T07:01:21Z</time>
      </trkpt>
      <trkpt lat="44.71251" lon="7.02318">
        <ele>2025.5</ele>
        <time>2026-08-31T07:01:26Z</time>
      </trkpt>
      <trkpt lat="44.71248" lon="7.02328">
        <ele>2026.4</ele>
        <time>2026-08-31T07:01:32Z</time>
      </trkpt>
      <trkpt lat="44.71244" lon="7.02335">
        <ele>2027.8</ele>
        <time>2026-08-31T07:01:37Z</time>
      </trkpt>
      <trkpt lat="44.7124" lon="7.02341">
        <ele>2029.2</ele>
        <time>2026-08-31T07:01:42Z</time>
      </trkpt>
      <trkpt lat="44.71234" lon="7.02349">
        <ele>2031</ele>
        <time>2026-08-31T07:01:48Z</time>
      </trkpt>
      <trkpt lat="44.7123" lon="7.02356">
        <ele>2032.1</ele>
        <time>2026-08-31T07:01:53Z</time>
      </trkpt>
      <trkpt lat="44.71226" lon="7.02365">
        <ele>2033.1</ele>
        <time>2026-08-31T07:01:58Z</time>
      </trkpt>
      <trkpt lat="44.71223" lon="7.02375">
        <ele>2033.8</ele>
        <time>2026-08-31T07:02:04Z</time>
      </trkpt>
      <trkpt lat="44.71219" lon="7.02381">
        <ele>2034.7</ele>
        <time>2026-08-31T07:02:09Z</time>
      </trkpt>
      <trkpt lat="44.71215" lon="7.02389">
        <ele>2035.4</ele>
        <time>2026-08-31T07:02:14Z</time>
      </trkpt>
      <trkpt lat="44.71211" lon="7.02399">
        <ele>2036</ele>
        <time>2026-08-31T07:02:20Z</time>
      </trkpt>
      <trkpt lat="44.71207" lon="7.02405">
        <ele>2036.6</ele>
        <time>2026-08-31T07:02:25Z</time>
      </trkpt>
      <trkpt lat="44.71207" lon="7.02407">
        <ele>2036.5</ele>
        <time>2026-08-31T07:02:30Z</time>
      </trkpt>
      <trkpt lat="44.71208" lon="7.02406">
        <ele>2036.4</ele>
        <time>2026-08-31T07:02:36Z</time>
      </trkpt>
      <trkpt lat="44.71208" lon="7.02406">
        <ele>2036.4</ele>
        <time>2026-08-31T07:02:41Z</time>
      </trkpt>
      <trkpt lat="44.71208" lon="7.02406">
        <ele>2036.4</ele>
        <time>2026-08-31T07:02:46Z</time>
      </trkpt>
      <trkpt lat="44.71208" lon="7.02406">
        <ele>2036.4</ele>
        <time>2026-08-31T07:02:52Z</time>
      </trkpt>
      <trkpt lat="44.71204" lon="7.0241">
        <ele>2037</ele>
        <time>2026-08-31T07:02:57Z</time>
      </trkpt>
      <trkpt lat="44.71201" lon="7.02418">
        <ele>2037.2</ele>
        <time>2026-08-31T07:03:02Z</time>
      </trkpt>
      <trkpt lat="44.71198" lon="7.02427">
        <ele>2037.6</ele>
        <time>2026-08-31T07:03:08Z</time>
      </trkpt>
      <trkpt lat="44.71197" lon="7.02436">
        <ele>2037.7</ele>
        <time>2026-08-31T07:03:13Z</time>
      </trkpt>
      <trkpt lat="44.71195" lon="7.02443">
        <ele>2037.8</ele>
        <time>2026-08-31T07:03:18Z</time>
      </trkpt>
      <trkpt lat="44.71193" lon="7.02452">
        <ele>2038</ele>
        <time>2026-08-31T07:03:24Z</time>
      </trkpt>
      <trkpt lat="44.71193" lon="7.02461">
        <ele>2037.8</ele>
        <time>2026-08-31T07:03:29Z</time>
      </trkpt>
      <trkpt lat="44.71191" lon="7.02469">
        <ele>2037.9</ele>
        <time>2026-08-31T07:03:34Z</time>
      </trkpt>
      <trkpt lat="44.71191" lon="7.02479">
        <ele>2037.7</ele>
        <time>2026-08-31T07:03:40Z</time>
      </trkpt>
      <trkpt lat="44.71191" lon="7.02489">
        <ele>2037.5</ele>
        <time>2026-08-31T07:03:45Z</time>
      </trkpt>
      <trkpt lat="44.7119" lon="7.02499">
        <ele>2037.3</ele>
        <time>2026-08-31T07:03:50Z</time>
      </trkpt>
      <trkpt lat="44.71187" lon="7.02509">
        <ele>2038.1</ele>
        <time>2026-08-31T07:03:56Z</time>
      </trkpt>
      <trkpt lat="44.71184" lon="7.02518">
        <ele>2038.7</ele>
        <time>2026-08-31T07:04:01Z</time>
      </trkpt>
      <trkpt lat="44.71181" lon="7.02525">
        <ele>2039.1</ele>
        <time>2026-08-31T07:04:06Z</time>
      </trkpt>
      <trkpt lat="44.71178" lon="7.02534">
        <ele>2039.5</ele>
        <time>2026-08-31T07:04:12Z</time>
      </trkpt>
      <trkpt lat="44.71175" lon="7.02541">
        <ele>2039.7</ele>
        <time>2026-08-31T07:04:17Z</time>
      </trkpt>
      <trkpt lat="44.71172" lon="7.02547">
        <ele>2039.8</ele>
        <time>2026-08-31T07:04:22Z</time>
      </trkpt>
      <trkpt lat="44.71165" lon="7.02549">
        <ele>2039.8</ele>
        <time>2026-08-31T07:04:28Z</time>
      </trkpt>
      <trkpt lat="44.7116" lon="7.0255">
        <ele>2040.6</ele>
        <time>2026-08-31T07:04:33Z</time>
      </trkpt>
      <trkpt lat="44.71156" lon="7.02553">
        <ele>2041.1</ele>
        <time>2026-08-31T07:04:38Z</time>
      </trkpt>
      <trkpt lat="44.71148" lon="7.02556">
        <ele>2042.2</ele>
        <time>2026-08-31T07:04:44Z</time>
      </trkpt>
      <trkpt lat="44.71142" lon="7.02559">
        <ele>2042.9</ele>
        <time>2026-08-31T07:04:49Z</time>
      </trkpt>
      <trkpt lat="44.71136" lon="7.0256">
        <ele>2043.6</ele>
        <time>2026-08-31T07:04:54Z</time>
      </trkpt>
      <trkpt lat="44.71129" lon="7.02563">
        <ele>2044.2</ele>
        <time>2026-08-31T07:05:00Z</time>
      </trkpt>
      <trkpt lat="44.71124" lon="7.02566">
        <ele>2044.6</ele>
        <time>2026-08-31T07:05:05Z</time>
      </trkpt>
      <trkpt lat="44.7112" lon="7.02572">
        <ele>2044.4</ele>
        <time>2026-08-31T07:05:10Z</time>
      </trkpt>
      <trkpt lat="44.71121" lon="7.02583">
        <ele>2043.3</ele>
        <time>2026-08-31T07:05:16Z</time>
      </trkpt>
      <trkpt lat="44.71125" lon="7.02587">
        <ele>2043.9</ele>
        <time>2026-08-31T07:05:21Z</time>
      </trkpt>
      <trkpt lat="44.7113" lon="7.02589">
        <ele>2044</ele>
        <time>2026-08-31T07:05:26Z</time>
      </trkpt>
      <trkpt lat="44.71138" lon="7.02588">
        <ele>2043.3</ele>
        <time>2026-08-31T07:05:32Z</time>
      </trkpt>
      <trkpt lat="44.71145" lon="7.02589">
        <ele>2043.2</ele>
        <time>2026-08-31T07:05:37Z</time>
      </trkpt>
      <trkpt lat="44.7115" lon="7.02587">
        <ele>2042.3</ele>
        <time>2026-08-31T07:05:42Z</time>
      </trkpt>
      <trkpt lat="44.71155" lon="7.02589">
        <ele>2042.6</ele>
        <time>2026-08-31T07:05:48Z</time>
      </trkpt>
      <trkpt lat="44.71159" lon="7.02589">
        <ele>2042.3</ele>
        <time>2026-08-31T07:05:53Z</time>
      </trkpt>
      <trkpt lat="44.71159" lon="7.02595">
        <ele>2044.3</ele>
        <time>2026-08-31T07:05:58Z</time>
      </trkpt>
      <trkpt lat="44.71158" lon="7.02601">
        <ele>2046.2</ele>
        <time>2026-08-31T07:06:04Z</time>
      </trkpt>
      <trkpt lat="44.71158" lon="7.02602">
        <ele>2046.5</ele>
        <time>2026-08-31T07:06:09Z</time>
      </trkpt>
      <trkpt lat="44.71158" lon="7.02602">
        <ele>2046.5</ele>
        <time>2026-08-31T07:06:14Z</time>
      </trkpt>
      <trkpt lat="44.71155" lon="7.02605">
        <ele>2047.5</ele>
        <time>2026-08-31T07:06:20Z</time>
      </trkpt>
      <trkpt lat="44.71151" lon="7.02604">
        <ele>2047.3</ele>
        <time>2026-08-31T07:06:25Z</time>
      </trkpt>
      <trkpt lat="44.71146" lon="7.02604">
        <ele>2047.4</ele>
        <time>2026-08-31T07:06:30Z</time>
      </trkpt>
      <trkpt lat="44.71142" lon="7.02605">
        <ele>2047.7</ele>
        <time>2026-08-31T07:06:36Z</time>
      </trkpt>
      <trkpt lat="44.71138" lon="7.02608">
        <ele>2048.6</ele>
        <time>2026-08-31T07:06:41Z</time>
      </trkpt>
      <trkpt lat="44.71134" lon="7.02611">
        <ele>2049.4</ele>
        <time>2026-08-31T07:06:46Z</time>
      </trkpt>
      <trkpt lat="44.71129" lon="7.02616">
        <ele>2050.7</ele>
        <time>2026-08-31T07:06:52Z</time>
      </trkpt>
      <trkpt lat="44.71126" lon="7.02617">
        <ele>2050.9</ele>
        <time>2026-08-31T07:06:57Z</time>
      </trkpt>
      <trkpt lat="44.71122" lon="7.02619">
        <ele>2051.3</ele>
        <time>2026-08-31T07:07:02Z</time>
      </trkpt>
      <trkpt lat="44.71116" lon="7.0262">
        <ele>2051.4</ele>
        <time>2026-08-31T07:07:08Z</time>
      </trkpt>
      <trkpt lat="44.71113" lon="7.0262">
        <ele>2051.4</ele>
        <time>2026-08-31T07:07:13Z</time>
      </trkpt>
      <trkpt lat="44.71108" lon="7.02622">
        <ele>2051.7</ele>
        <time>2026-08-31T07:07:18Z</time>
      </trkpt>
      <trkpt lat="44.71104" lon="7.02621">
        <ele>2051.4</ele>
        <time>2026-08-31T07:07:24Z</time>
      </trkpt>
      <trkpt lat="44.711" lon="7.02621">
        <ele>2051.3</ele>
        <time>2026-08-31T07:07:29Z</time>
      </trkpt>
      <trkpt lat="44.71097" lon="7.02621">
        <ele>2051.2</ele>
        <time>2026-08-31T07:07:34Z</time>
      </trkpt>
      <trkpt lat="44.71093" lon="7.02623">
        <ele>2051.5</ele>
        <time>2026-08-31T07:07:40Z</time>
      </trkpt>
      <trkpt lat="44.71089" lon="7.02623">
        <ele>2051.4</ele>
        <time>2026-08-31T07:07:45Z</time>
      </trkpt>
      <trkpt lat="44.71086" lon="7.02623">
        <ele>2051.3</ele>
        <time>2026-08-31T07:07:50Z</time>
      </trkpt>
      <trkpt lat="44.71081" lon="7.02624">
        <ele>2052.4</ele>
        <time>2026-08-31T07:07:56Z</time>
      </trkpt>
      <trkpt lat="44.7108" lon="7.02623">
        <ele>2052.7</ele>
        <time>2026-08-31T07:08:01Z</time>
      </trkpt>
      <trkpt lat="44.71077" lon="7.0262">
        <ele>2053.7</ele>
        <time>2026-08-31T07:08:06Z</time>
      </trkpt>
      <trkpt lat="44.71072" lon="7.02621">
        <ele>2056</ele>
        <time>2026-08-31T07:08:12Z</time>
      </trkpt>
      <trkpt lat="44.71069" lon="7.02624">
        <ele>2057.6</ele>
        <time>2026-08-31T07:08:17Z</time>
      </trkpt>
      <trkpt lat="44.71066" lon="7.02625">
        <ele>2059</ele>
        <time>2026-08-31T07:08:22Z</time>
      </trkpt>
      <trkpt lat="44.71061" lon="7.02629">
        <ele>2061.4</ele>
        <time>2026-08-31T07:08:28Z</time>
      </trkpt>
      <trkpt lat="44.71056" lon="7.02632">
        <ele>2063.6</ele>
        <time>2026-08-31T07:08:33Z</time>
      </trkpt>
      <trkpt lat="44.71053" lon="7.02636">
        <ele>2065</ele>
        <time>2026-08-31T07:08:38Z</time>
      </trkpt>
      <trkpt lat="44.71051" lon="7.02642">
        <ele>2066</ele>
        <time>2026-08-31T07:08:44Z</time>
      </trkpt>
      <trkpt lat="44.71048" lon="7.02646">
        <ele>2067.2</ele>
        <time>2026-08-31T07:08:49Z</time>
      </trkpt>
      <trkpt lat="44.71045" lon="7.02649">
        <ele>2068.3</ele>
        <time>2026-08-31T07:08:54Z</time>
      </trkpt>
      <trkpt lat="44.71045" lon="7.02649">
        <ele>2068.3</ele>
        <time>2026-08-31T07:09:00Z</time>
      </trkpt>
      <trkpt lat="44.71045" lon="7.02649">
        <ele>2068.3</ele>
        <time>2026-08-31T07:09:05Z</time>
      </trkpt>
      <trkpt lat="44.71045" lon="7.02649">
        <ele>2068.3</ele>
        <time>2026-08-31T07:09:10Z</time>
      </trkpt>
      <trkpt lat="44.71053" lon="7.02647">
        <ele>2065.4</ele>
        <time>2026-08-31T07:09:16Z</time>
      </trkpt>
      <trkpt lat="44.7106" lon="7.02648">
        <ele>2062.9</ele>
        <time>2026-08-31T07:09:21Z</time>
      </trkpt>
      <trkpt lat="44.71065" lon="7.0265">
        <ele>2061.3</ele>
        <time>2026-08-31T07:09:26Z</time>
      </trkpt>
      <trkpt lat="44.71068" lon="7.0265">
        <ele>2060.2</ele>
        <time>2026-08-31T07:09:32Z</time>
      </trkpt>
      <trkpt lat="44.71069" lon="7.0265">
        <ele>2059.9</ele>
        <time>2026-08-31T07:09:37Z</time>
      </trkpt>
      <trkpt lat="44.71069" lon="7.02651">
        <ele>2059.9</ele>
        <time>2026-08-31T07:09:42Z</time>
      </trkpt>
      <trkpt lat="44.71069" lon="7.02651">
        <ele>2059.9</ele>
        <time>2026-08-31T07:09:48Z</time>
      </trkpt>
      <trkpt lat="44.71069" lon="7.02651">
        <ele>2059.9</ele>
        <time>2026-08-31T07:09:53Z</time>
      </trkpt>
      <trkpt lat="44.71069" lon="7.02651">
        <ele>2059.9</ele>
        <time>2026-08-31T07:09:58Z</time>
      </trkpt>
      <trkpt lat="44.71069" lon="7.02651">
        <ele>2059.9</ele>
        <time>2026-08-31T07:10:04Z</time>
      </trkpt>
      <trkpt lat="44.71069" lon="7.02651">
        <ele>2059.9</ele>
        <time>2026-08-31T07:10:09Z</time>
      </trkpt>
      <trkpt lat="44.71069" lon="7.02651">
        <ele>2059.9</ele>
        <time>2026-08-31T07:10:14Z</time>
      </trkpt>
      <trkpt lat="44.71075" lon="7.02643">
        <ele>2057</ele>
        <time>2026-08-31T07:10:20Z</time>
      </trkpt>
      <trkpt lat="44.71078" lon="7.02648">
        <ele>2056.5</ele>
        <time>2026-08-31T07:10:25Z</time>
      </trkpt>
      <trkpt lat="44.71084" lon="7.0265">
        <ele>2054.9</ele>
        <time>2026-08-31T07:10:30Z</time>
      </trkpt>
      <trkpt lat="44.71089" lon="7.02653">
        <ele>2055.8</ele>
        <time>2026-08-31T07:10:36Z</time>
      </trkpt>
      <trkpt lat="44.71092" lon="7.02656">
        <ele>2056.5</ele>
        <time>2026-08-31T07:10:41Z</time>
      </trkpt>
      <trkpt lat="44.71098" lon="7.0266">
        <ele>2057.8</ele>
        <time>2026-08-31T07:10:46Z</time>
      </trkpt>
      <trkpt lat="44.71103" lon="7.02667">
        <ele>2059.7</ele>
        <time>2026-08-31T07:10:52Z</time>
      </trkpt>
      <trkpt lat="44.71106" lon="7.0267">
        <ele>2061.1</ele>
        <time>2026-08-31T07:10:57Z</time>
      </trkpt>
      <trkpt lat="44.71107" lon="7.02669">
        <ele>2060.9</ele>
        <time>2026-08-31T07:11:02Z</time>
      </trkpt>
      <trkpt lat="44.71111" lon="7.02672">
        <ele>2062.4</ele>
        <time>2026-08-31T07:11:08Z</time>
      </trkpt>
      <trkpt lat="44.71116" lon="7.02674">
        <ele>2063.8</ele>
        <time>2026-08-31T07:11:13Z</time>
      </trkpt>
      <trkpt lat="44.71121" lon="7.0268">
        <ele>2066.6</ele>
        <time>2026-08-31T07:11:18Z</time>
      </trkpt>
      <trkpt lat="44.71126" lon="7.02684">
        <ele>2068.7</ele>
        <time>2026-08-31T07:11:24Z</time>
      </trkpt>
      <trkpt lat="44.71132" lon="7.02686">
        <ele>2070.3</ele>
        <time>2026-08-31T07:11:29Z</time>
      </trkpt>
      <trkpt lat="44.71136" lon="7.02687">
        <ele>2071.3</ele>
        <time>2026-08-31T07:11:34Z</time>
      </trkpt>
      <trkpt lat="44.71142" lon="7.02689">
        <ele>2073</ele>
        <time>2026-08-31T07:11:40Z</time>
      </trkpt>
      <trkpt lat="44.71146" lon="7.02691">
        <ele>2074.3</ele>
        <time>2026-08-31T07:11:45Z</time>
      </trkpt>
      <trkpt lat="44.7115" lon="7.02692">
        <ele>2075.3</ele>
        <time>2026-08-31T07:11:50Z</time>
      </trkpt>
      <trkpt lat="44.71155" lon="7.02692">
        <ele>2076.2</ele>
        <time>2026-08-31T07:11:56Z</time>
      </trkpt>
      <trkpt lat="44.7116" lon="7.02691">
        <ele>2076.6</ele>
        <time>2026-08-31T07:12:01Z</time>
      </trkpt>
      <trkpt lat="44.71164" lon="7.02689">
        <ele>2076.4</ele>
        <time>2026-08-31T07:12:06Z</time>
      </trkpt>
      <trkpt lat="44.71169" lon="7.02689">
        <ele>2077.2</ele>
        <time>2026-08-31T07:12:12Z</time>
      </trkpt>
      <trkpt lat="44.71171" lon="7.02685">
        <ele>2076</ele>
        <time>2026-08-31T07:12:17Z</time>
      </trkpt>
      <trkpt lat="44.71173" lon="7.02684">
        <ele>2075.9</ele>
        <time>2026-08-31T07:12:22Z</time>
      </trkpt>
      <trkpt lat="44.71175" lon="7.02689">
        <ele>2078.2</ele>
        <time>2026-08-31T07:12:28Z</time>
      </trkpt>
      <trkpt lat="44.71174" lon="7.02695">
        <ele>2080.4</ele>
        <time>2026-08-31T07:12:33Z</time>
      </trkpt>
      <trkpt lat="44.71172" lon="7.02699">
        <ele>2081.7</ele>
        <time>2026-08-31T07:12:38Z</time>
      </trkpt>
      <trkpt lat="44.71169" lon="7.02703">
        <ele>2082.8</ele>
        <time>2026-08-31T07:12:44Z</time>
      </trkpt>
      <trkpt lat="44.71166" lon="7.02706">
        <ele>2083.5</ele>
        <time>2026-08-31T07:12:49Z</time>
      </trkpt>
      <trkpt lat="44.7116" lon="7.0271">
        <ele>2083.9</ele>
        <time>2026-08-31T07:12:54Z</time>
      </trkpt>
      <trkpt lat="44.71156" lon="7.02713">
        <ele>2084.4</ele>
        <time>2026-08-31T07:13:00Z</time>
      </trkpt>
      <trkpt lat="44.71154" lon="7.02713">
        <ele>2084</ele>
        <time>2026-08-31T07:13:05Z</time>
      </trkpt>
      <trkpt lat="44.7115" lon="7.02711">
        <ele>2082.5</ele>
        <time>2026-08-31T07:13:10Z</time>
      </trkpt>
      <trkpt lat="44.71146" lon="7.02712">
        <ele>2082.1</ele>
        <time>2026-08-31T07:13:16Z</time>
      </trkpt>
      <trkpt lat="44.71143" lon="7.02714">
        <ele>2082.3</ele>
        <time>2026-08-31T07:13:21Z</time>
      </trkpt>
      <trkpt lat="44.71139" lon="7.02715">
        <ele>2081.9</ele>
        <time>2026-08-31T07:13:26Z</time>
      </trkpt>
      <trkpt lat="44.71136" lon="7.02712">
        <ele>2080.3</ele>
        <time>2026-08-31T07:13:32Z</time>
      </trkpt>
      <trkpt lat="44.71135" lon="7.0271">
        <ele>2079.4</ele>
        <time>2026-08-31T07:13:37Z</time>
      </trkpt>
      <trkpt lat="44.71135" lon="7.0271">
        <ele>2079.4</ele>
        <time>2026-08-31T07:13:42Z</time>
      </trkpt>
      <trkpt lat="44.71133" lon="7.02714">
        <ele>2080.5</ele>
        <time>2026-08-31T07:13:48Z</time>
      </trkpt>
      <trkpt lat="44.71129" lon="7.02719">
        <ele>2081.5</ele>
        <time>2026-08-31T07:13:53Z</time>
      </trkpt>
      <trkpt lat="44.71126" lon="7.02723">
        <ele>2082.3</ele>
        <time>2026-08-31T07:13:58Z</time>
      </trkpt>
      <trkpt lat="44.71121" lon="7.02722">
        <ele>2081</ele>
        <time>2026-08-31T07:14:04Z</time>
      </trkpt>
      <trkpt lat="44.71118" lon="7.0272">
        <ele>2079.7</ele>
        <time>2026-08-31T07:14:09Z</time>
      </trkpt>
      <trkpt lat="44.71113" lon="7.02718">
        <ele>2078.1</ele>
        <time>2026-08-31T07:14:14Z</time>
      </trkpt>
      <trkpt lat="44.7111" lon="7.02715">
        <ele>2076.5</ele>
        <time>2026-08-31T07:14:20Z</time>
      </trkpt>
      <trkpt lat="44.71108" lon="7.02714">
        <ele>2075.8</ele>
        <time>2026-08-31T07:14:25Z</time>
      </trkpt>
      <trkpt lat="44.71105" lon="7.02711">
        <ele>2074.3</ele>
        <time>2026-08-31T07:14:30Z</time>
      </trkpt>
      <trkpt lat="44.71101" lon="7.02708">
        <ele>2072.6</ele>
        <time>2026-08-31T07:14:36Z</time>
      </trkpt>
      <trkpt lat="44.71099" lon="7.02707">
        <ele>2071.9</ele>
        <time>2026-08-31T07:14:41Z</time>
      </trkpt>
      <trkpt lat="44.71096" lon="7.02708">
        <ele>2071.7</ele>
        <time>2026-08-31T07:14:46Z</time>
      </trkpt>
      <trkpt lat="44.71091" lon="7.0271">
        <ele>2071.4</ele>
        <time>2026-08-31T07:14:52Z</time>
      </trkpt>
      <trkpt lat="44.71088" lon="7.02712">
        <ele>2071.5</ele>
        <time>2026-08-31T07:14:57Z</time>
      </trkpt>
      <trkpt lat="44.71084" lon="7.02715">
        <ele>2071.6</ele>
        <time>2026-08-31T07:15:02Z</time>
      </trkpt>
      <trkpt lat="44.71079" lon="7.02719">
        <ele>2073.1</ele>
        <time>2026-08-31T07:15:08Z</time>
      </trkpt>
      <trkpt lat="44.71077" lon="7.02722">
        <ele>2074</ele>
        <time>2026-08-31T07:15:13Z</time>
      </trkpt>
      <trkpt lat="44.71074" lon="7.02724">
        <ele>2074.8</ele>
        <time>2026-08-31T07:15:18Z</time>
      </trkpt>
      <trkpt lat="44.7107" lon="7.02727">
        <ele>2075.7</ele>
        <time>2026-08-31T07:15:24Z</time>
      </trkpt>
      <trkpt lat="44.71068" lon="7.02729">
        <ele>2076.3</ele>
        <time>2026-08-31T07:15:29Z</time>
      </trkpt>
      <trkpt lat="44.71067" lon="7.02729">
        <ele>2076.3</ele>
        <time>2026-08-31T07:15:34Z</time>
      </trkpt>
      <trkpt lat="44.71067" lon="7.02729">
        <ele>2076.3</ele>
        <time>2026-08-31T07:15:40Z</time>
      </trkpt>
      <trkpt lat="44.71067" lon="7.02729">
        <ele>2076.3</ele>
        <time>2026-08-31T07:15:45Z</time>
      </trkpt>
      <trkpt lat="44.71067" lon="7.02729">
        <ele>2076.3</ele>
        <time>2026-08-31T07:15:50Z</time>
      </trkpt>
      <trkpt lat="44.71064" lon="7.02731">
        <ele>2076.9</ele>
        <time>2026-08-31T07:15:56Z</time>
      </trkpt>
      <trkpt lat="44.71062" lon="7.02735">
        <ele>2077.8</ele>
        <time>2026-08-31T07:16:01Z</time>
      </trkpt>
      <trkpt lat="44.7106" lon="7.02738">
        <ele>2078.4</ele>
        <time>2026-08-31T07:16:06Z</time>
      </trkpt>
      <trkpt lat="44.71059" lon="7.02738">
        <ele>2078.5</ele>
        <time>2026-08-31T07:16:12Z</time>
      </trkpt>
      <trkpt lat="44.71054" lon="7.02746">
        <ele>2079.9</ele>
        <time>2026-08-31T07:16:17Z</time>
      </trkpt>
      <trkpt lat="44.71052" lon="7.02749">
        <ele>2080.3</ele>
        <time>2026-08-31T07:16:22Z</time>
      </trkpt>
      <trkpt lat="44.7105" lon="7.02755">
        <ele>2081.6</ele>
        <time>2026-08-31T07:16:28Z</time>
      </trkpt>
      <trkpt lat="44.71046" lon="7.02759">
        <ele>2082.3</ele>
        <time>2026-08-31T07:16:33Z</time>
      </trkpt>
      <trkpt lat="44.71044" lon="7.02763">
        <ele>2083</ele>
        <time>2026-08-31T07:16:38Z</time>
      </trkpt>
      <trkpt lat="44.71041" lon="7.02769">
        <ele>2084</ele>
        <time>2026-08-31T07:16:44Z</time>
      </trkpt>
      <trkpt lat="44.7104" lon="7.02773">
        <ele>2084.8</ele>
        <time>2026-08-31T07:16:49Z</time>
      </trkpt>
      <trkpt lat="44.71038" lon="7.0278">
        <ele>2086</ele>
        <time>2026-08-31T07:16:54Z</time>
      </trkpt>
      <trkpt lat="44.71035" lon="7.02788">
        <ele>2087.1</ele>
        <time>2026-08-31T07:17:00Z</time>
      </trkpt>
      <trkpt lat="44.71033" lon="7.02792">
        <ele>2087.5</ele>
        <time>2026-08-31T07:17:05Z</time>
      </trkpt>
      <trkpt lat="44.71032" lon="7.02795">
        <ele>2087.9</ele>
        <time>2026-08-31T07:17:10Z</time>
      </trkpt>
      <trkpt lat="44.7103" lon="7.028">
        <ele>2088.4</ele>
        <time>2026-08-31T07:17:16Z</time>
      </trkpt>
      <trkpt lat="44.71028" lon="7.02804">
        <ele>2088.7</ele>
        <time>2026-08-31T07:17:21Z</time>
      </trkpt>
      <trkpt lat="44.71027" lon="7.02805">
        <ele>2088.6</ele>
        <time>2026-08-31T07:17:26Z</time>
      </trkpt>
      <trkpt lat="44.71027" lon="7.02807">
        <ele>2089</ele>
        <time>2026-08-31T07:17:32Z</time>
      </trkpt>
      <trkpt lat="44.71027" lon="7.02807">
        <ele>2089</ele>
        <time>2026-08-31T07:17:37Z</time>
      </trkpt>
      <trkpt lat="44.71022" lon="7.02811">
        <ele>2088.4</ele>
        <time>2026-08-31T07:17:42Z</time>
      </trkpt>
      <trkpt lat="44.71021" lon="7.02816">
        <ele>2088.9</ele>
        <time>2026-08-31T07:17:48Z</time>
      </trkpt>
      <trkpt lat="44.7102" lon="7.02819">
        <ele>2089.1</ele>
        <time>2026-08-31T07:17:53Z</time>
      </trkpt>
      <trkpt lat="44.71018" lon="7.02824">
        <ele>2089.3</ele>
        <time>2026-08-31T07:17:58Z</time>
      </trkpt>
      <trkpt lat="44.71013" lon="7.02828">
        <ele>2088.4</ele>
        <time>2026-08-31T07:18:04Z</time>
      </trkpt>
      <trkpt lat="44.71012" lon="7.0283">
        <ele>2088.3</ele>
        <time>2026-08-31T07:18:09Z</time>
      </trkpt>
      <trkpt lat="44.71009" lon="7.02834">
        <ele>2088</ele>
        <time>2026-08-31T07:18:14Z</time>
      </trkpt>
      <trkpt lat="44.71007" lon="7.02838">
        <ele>2088.4</ele>
        <time>2026-08-31T07:18:20Z</time>
      </trkpt>
      <trkpt lat="44.71004" lon="7.02843">
        <ele>2088.7</ele>
        <time>2026-08-31T07:18:25Z</time>
      </trkpt>
      <trkpt lat="44.71001" lon="7.02848">
        <ele>2089</ele>
        <time>2026-08-31T07:18:30Z</time>
      </trkpt>
      <trkpt lat="44.70998" lon="7.02852">
        <ele>2090.6</ele>
        <time>2026-08-31T07:18:36Z</time>
      </trkpt>
      <trkpt lat="44.70996" lon="7.02853">
        <ele>2091.8</ele>
        <time>2026-08-31T07:18:41Z</time>
      </trkpt>
      <trkpt lat="44.70992" lon="7.02857">
        <ele>2094.5</ele>
        <time>2026-08-31T07:18:46Z</time>
      </trkpt>
      <trkpt lat="44.7099" lon="7.02863">
        <ele>2096.5</ele>
        <time>2026-08-31T07:18:52Z</time>
      </trkpt>
      <trkpt lat="44.7099" lon="7.02863">
        <ele>2096.5</ele>
        <time>2026-08-31T07:18:57Z</time>
      </trkpt>
      <trkpt lat="44.7099" lon="7.02863">
        <ele>2096.5</ele>
        <time>2026-08-31T07:19:02Z</time>
      </trkpt>
      <trkpt lat="44.7099" lon="7.02863">
        <ele>2096.5</ele>
        <time>2026-08-31T07:19:08Z</time>
      </trkpt>
      <trkpt lat="44.7099" lon="7.02863">
        <ele>2096.5</ele>
        <time>2026-08-31T07:19:13Z</time>
      </trkpt>
      <trkpt lat="44.70987" lon="7.02867">
        <ele>2098.5</ele>
        <time>2026-08-31T07:19:18Z</time>
      </trkpt>
      <trkpt lat="44.70984" lon="7.02875">
        <ele>2100.9</ele>
        <time>2026-08-31T07:19:24Z</time>
      </trkpt>
      <trkpt lat="44.7098" lon="7.02881">
        <ele>2103</ele>
        <time>2026-08-31T07:19:29Z</time>
      </trkpt>
      <trkpt lat="44.70976" lon="7.02885">
        <ele>2104.7</ele>
        <time>2026-08-31T07:19:34Z</time>
      </trkpt>
      <trkpt lat="44.70974" lon="7.02889">
        <ele>2105.7</ele>
        <time>2026-08-31T07:19:40Z</time>
      </trkpt>
      <trkpt lat="44.70973" lon="7.02893">
        <ele>2106.3</ele>
        <time>2026-08-31T07:19:45Z</time>
      </trkpt>
      <trkpt lat="44.7097" lon="7.02896">
        <ele>2107.2</ele>
        <time>2026-08-31T07:19:50Z</time>
      </trkpt>
      <trkpt lat="44.70969" lon="7.02901">
        <ele>2107.8</ele>
        <time>2026-08-31T07:19:56Z</time>
      </trkpt>
      <trkpt lat="44.70966" lon="7.02906">
        <ele>2108.7</ele>
        <time>2026-08-31T07:20:01Z</time>
      </trkpt>
      <trkpt lat="44.70964" lon="7.02912">
        <ele>2109.2</ele>
        <time>2026-08-31T07:20:06Z</time>
      </trkpt>
      <trkpt lat="44.70961" lon="7.02919">
        <ele>2110</ele>
        <time>2026-08-31T07:20:12Z</time>
      </trkpt>
      <trkpt lat="44.70957" lon="7.02923">
        <ele>2110.8</ele>
        <time>2026-08-31T07:20:17Z</time>
      </trkpt>
      <trkpt lat="44.70955" lon="7.02928">
        <ele>2111.5</ele>
        <time>2026-08-31T07:20:22Z</time>
      </trkpt>
      <trkpt lat="44.70952" lon="7.02931">
        <ele>2112</ele>
        <time>2026-08-31T07:20:28Z</time>
      </trkpt>
      <trkpt lat="44.7095" lon="7.02933">
        <ele>2112.3</ele>
        <time>2026-08-31T07:20:33Z</time>
      </trkpt>
      <trkpt lat="44.7095" lon="7.02933">
        <ele>2112.3</ele>
        <time>2026-08-31T07:20:38Z</time>
      </trkpt>
      <trkpt lat="44.7095" lon="7.02933">
        <ele>2112.3</ele>
        <time>2026-08-31T07:20:44Z</time>
      </trkpt>
      <trkpt lat="44.7095" lon="7.02933">
        <ele>2112.3</ele>
        <time>2026-08-31T07:20:49Z</time>
      </trkpt>
      <trkpt lat="44.7095" lon="7.02933">
        <ele>2112.3</ele>
        <time>2026-08-31T07:20:54Z</time>
      </trkpt>
      <trkpt lat="44.7095" lon="7.02933">
        <ele>2112.3</ele>
        <time>2026-08-31T07:21:00Z</time>
      </trkpt>
      <trkpt lat="44.70947" lon="7.02933">
        <ele>2112.4</ele>
        <time>2026-08-31T07:21:05Z</time>
      </trkpt>
      <trkpt lat="44.70942" lon="7.02938">
        <ele>2112.9</ele>
        <time>2026-08-31T07:21:10Z</time>
      </trkpt>
      <trkpt lat="44.7094" lon="7.02945">
        <ele>2113.4</ele>
        <time>2026-08-31T07:21:16Z</time>
      </trkpt>
      <trkpt lat="44.70938" lon="7.02951">
        <ele>2113.8</ele>
        <time>2026-08-31T07:21:21Z</time>
      </trkpt>
      <trkpt lat="44.70938" lon="7.02956">
        <ele>2114</ele>
        <time>2026-08-31T07:21:26Z</time>
      </trkpt>
      <trkpt lat="44.70935" lon="7.02962">
        <ele>2114.2</ele>
        <time>2026-08-31T07:21:32Z</time>
      </trkpt>
      <trkpt lat="44.70934" lon="7.02967">
        <ele>2114.4</ele>
        <time>2026-08-31T07:21:37Z</time>
      </trkpt>
      <trkpt lat="44.70933" lon="7.02974">
        <ele>2114.6</ele>
        <time>2026-08-31T07:21:42Z</time>
      </trkpt>
      <trkpt lat="44.70931" lon="7.02982">
        <ele>2114.7</ele>
        <time>2026-08-31T07:21:48Z</time>
      </trkpt>
      <trkpt lat="44.70928" lon="7.02986">
        <ele>2114.5</ele>
        <time>2026-08-31T07:21:53Z</time>
      </trkpt>
      <trkpt lat="44.70927" lon="7.02992">
        <ele>2114.5</ele>
        <time>2026-08-31T07:21:58Z</time>
      </trkpt>
      <trkpt lat="44.70926" lon="7.02999">
        <ele>2114.4</ele>
        <time>2026-08-31T07:22:04Z</time>
      </trkpt>
      <trkpt lat="44.70924" lon="7.03006">
        <ele>2114.2</ele>
        <time>2026-08-31T07:22:09Z</time>
      </trkpt>
      <trkpt lat="44.70923" lon="7.0301">
        <ele>2114.1</ele>
        <time>2026-08-31T07:22:14Z</time>
      </trkpt>
      <trkpt lat="44.70922" lon="7.03016">
        <ele>2114</ele>
        <time>2026-08-31T07:22:20Z</time>
      </trkpt>
      <trkpt lat="44.70921" lon="7.03019">
        <ele>2113.9</ele>
        <time>2026-08-31T07:22:25Z</time>
      </trkpt>
      <trkpt lat="44.7092" lon="7.03023">
        <ele>2113.7</ele>
        <time>2026-08-31T07:22:30Z</time>
      </trkpt>
      <trkpt lat="44.7092" lon="7.0303">
        <ele>2113.8</ele>
        <time>2026-08-31T07:22:36Z</time>
      </trkpt>
      <trkpt lat="44.70921" lon="7.03036">
        <ele>2114</ele>
        <time>2026-08-31T07:22:41Z</time>
      </trkpt>
      <trkpt lat="44.70922" lon="7.0304">
        <ele>2114.3</ele>
        <time>2026-08-31T07:22:46Z</time>
      </trkpt>
      <trkpt lat="44.70923" lon="7.03048">
        <ele>2114.7</ele>
        <time>2026-08-31T07:22:52Z</time>
      </trkpt>
      <trkpt lat="44.70922" lon="7.03054">
        <ele>2114.5</ele>
        <time>2026-08-31T07:22:57Z</time>
      </trkpt>
      <trkpt lat="44.70922" lon="7.03058">
        <ele>2114.5</ele>
        <time>2026-08-31T07:23:02Z</time>
      </trkpt>
      <trkpt lat="44.7092" lon="7.03066">
        <ele>2114</ele>
        <time>2026-08-31T07:23:08Z</time>
      </trkpt>
      <trkpt lat="44.70918" lon="7.03073">
        <ele>2113.4</ele>
        <time>2026-08-31T07:23:13Z</time>
      </trkpt>
      <trkpt lat="44.70917" lon="7.03078">
        <ele>2113.1</ele>
        <time>2026-08-31T07:23:18Z</time>
      </trkpt>
      <trkpt lat="44.70916" lon="7.03085">
        <ele>2113.8</ele>
        <time>2026-08-31T07:23:24Z</time>
      </trkpt>
      <trkpt lat="44.70916" lon="7.0309">
        <ele>2114</ele>
        <time>2026-08-31T07:23:29Z</time>
      </trkpt>
      <trkpt lat="44.70916" lon="7.03093">
        <ele>2114.1</ele>
        <time>2026-08-31T07:23:34Z</time>
      </trkpt>
      <trkpt lat="44.70914" lon="7.03102">
        <ele>2116.5</ele>
        <time>2026-08-31T07:23:40Z</time>
      </trkpt>
      <trkpt lat="44.70914" lon="7.03107">
        <ele>2116.7</ele>
        <time>2026-08-31T07:23:45Z</time>
      </trkpt>
      <trkpt lat="44.70913" lon="7.03112">
        <ele>2117.8</ele>
        <time>2026-08-31T07:23:50Z</time>
      </trkpt>
      <trkpt lat="44.70913" lon="7.03117">
        <ele>2118</ele>
        <time>2026-08-31T07:23:56Z</time>
      </trkpt>
      <trkpt lat="44.70913" lon="7.03121">
        <ele>2118.1</ele>
        <time>2026-08-31T07:24:01Z</time>
      </trkpt>
      <trkpt lat="44.70913" lon="7.03126">
        <ele>2118.3</ele>
        <time>2026-08-31T07:24:06Z</time>
      </trkpt>
      <trkpt lat="44.70913" lon="7.03133">
        <ele>2118.5</ele>
        <time>2026-08-31T07:24:12Z</time>
      </trkpt>
      <trkpt lat="44.70913" lon="7.03138">
        <ele>2118.7</ele>
        <time>2026-08-31T07:24:17Z</time>
      </trkpt>
      <trkpt lat="44.70913" lon="7.03143">
        <ele>2118.8</ele>
        <time>2026-08-31T07:24:22Z</time>
      </trkpt>
      <trkpt lat="44.70917" lon="7.03145">
        <ele>2116.1</ele>
        <time>2026-08-31T07:24:28Z</time>
      </trkpt>
      <trkpt lat="44.70918" lon="7.03146">
        <ele>2116.6</ele>
        <time>2026-08-31T07:24:33Z</time>
      </trkpt>
      <trkpt lat="44.70918" lon="7.03146">
        <ele>2116.6</ele>
        <time>2026-08-31T07:24:38Z</time>
      </trkpt>
      <trkpt lat="44.70918" lon="7.03146">
        <ele>2116.6</ele>
        <time>2026-08-31T07:24:44Z</time>
      </trkpt>
      <trkpt lat="44.70918" lon="7.03146">
        <ele>2116.6</ele>
        <time>2026-08-31T07:24:49Z</time>
      </trkpt>
      <trkpt lat="44.70918" lon="7.03146">
        <ele>2116.6</ele>
        <time>2026-08-31T07:24:54Z</time>
      </trkpt>
      <trkpt lat="44.70918" lon="7.03146">
        <ele>2116.6</ele>
        <time>2026-08-31T07:25:00Z</time>
      </trkpt>
      <trkpt lat="44.70918" lon="7.03146">
        <ele>2116.6</ele>
        <time>2026-08-31T07:25:05Z</time>
      </trkpt>
      <trkpt lat="44.70918" lon="7.03146">
        <ele>2116.6</ele>
        <time>2026-08-31T07:25:10Z</time>
      </trkpt>
      <trkpt lat="44.70918" lon="7.03146">
        <ele>2116.6</ele>
        <time>2026-08-31T07:25:16Z</time>
      </trkpt>
      <trkpt lat="44.70918" lon="7.03146">
        <ele>2116.6</ele>
        <time>2026-08-31T07:25:21Z</time>
      </trkpt>
      <trkpt lat="44.70918" lon="7.03146">
        <ele>2116.6</ele>
        <time>2026-08-31T07:25:26Z</time>
      </trkpt>
      <trkpt lat="44.70918" lon="7.03146">
        <ele>2116.6</ele>
        <time>2026-08-31T07:25:32Z</time>
      </trkpt>
      <trkpt lat="44.70918" lon="7.03146">
        <ele>2116.6</ele>
        <time>2026-08-31T07:25:37Z</time>
      </trkpt>
      <trkpt lat="44.70918" lon="7.03146">
        <ele>2116.6</ele>
        <time>2026-08-31T07:25:42Z</time>
      </trkpt>
      <trkpt lat="44.70918" lon="7.03146">
        <ele>2116.6</ele>
        <time>2026-08-31T07:25:48Z</time>
      </trkpt>
      <trkpt lat="44.70918" lon="7.03146">
        <ele>2116.6</ele>
        <time>2026-08-31T07:25:53Z</time>
      </trkpt>
      <trkpt lat="44.70921" lon="7.03156">
        <ele>2118.3</ele>
        <time>2026-08-31T07:25:58Z</time>
      </trkpt>
      <trkpt lat="44.7092" lon="7.03159">
        <ele>2118</ele>
        <time>2026-08-31T07:26:04Z</time>
      </trkpt>
      <trkpt lat="44.7092" lon="7.03163">
        <ele>2118.3</ele>
        <time>2026-08-31T07:26:09Z</time>
      </trkpt>
      <trkpt lat="44.70921" lon="7.03165">
        <ele>2118.8</ele>
        <time>2026-08-31T07:26:14Z</time>
      </trkpt>
      <trkpt lat="44.7092" lon="7.03169">
        <ele>2118.9</ele>
        <time>2026-08-31T07:26:20Z</time>
      </trkpt>
      <trkpt lat="44.70919" lon="7.03172">
        <ele>2119</ele>
        <time>2026-08-31T07:26:25Z</time>
      </trkpt>
      <trkpt lat="44.70918" lon="7.03176">
        <ele>2119.3</ele>
        <time>2026-08-31T07:26:30Z</time>
      </trkpt>
      <trkpt lat="44.70917" lon="7.0318">
        <ele>2119.5</ele>
        <time>2026-08-31T07:26:36Z</time>
      </trkpt>
      <trkpt lat="44.70917" lon="7.0318">
        <ele>2119.5</ele>
        <time>2026-08-31T07:26:41Z</time>
      </trkpt>
      <trkpt lat="44.70917" lon="7.0318">
        <ele>2119.5</ele>
        <time>2026-08-31T07:26:46Z</time>
      </trkpt>
      <trkpt lat="44.70917" lon="7.0318">
        <ele>2119.5</ele>
        <time>2026-08-31T07:26:52Z</time>
      </trkpt>
      <trkpt lat="44.70917" lon="7.0318">
        <ele>2119.5</ele>
        <time>2026-08-31T07:26:57Z</time>
      </trkpt>
      <trkpt lat="44.70917" lon="7.0318">
        <ele>2119.5</ele>
        <time>2026-08-31T07:27:02Z</time>
      </trkpt>
      <trkpt lat="44.70917" lon="7.0318">
        <ele>2119.5</ele>
        <time>2026-08-31T07:27:08Z</time>
      </trkpt>
      <trkpt lat="44.70914" lon="7.03184">
        <ele>2121.8</ele>
        <time>2026-08-31T07:27:13Z</time>
      </trkpt>
      <trkpt lat="44.70911" lon="7.03188">
        <ele>2124.3</ele>
        <time>2026-08-31T07:27:18Z</time>
      </trkpt>
      <trkpt lat="44.70907" lon="7.03193">
        <ele>2127.4</ele>
        <time>2026-08-31T07:27:24Z</time>
      </trkpt>
      <trkpt lat="44.70904" lon="7.03198">
        <ele>2129.8</ele>
        <time>2026-08-31T07:27:29Z</time>
      </trkpt>
      <trkpt lat="44.70903" lon="7.03203">
        <ele>2130.9</ele>
        <time>2026-08-31T07:27:34Z</time>
      </trkpt>
      <trkpt lat="44.70901" lon="7.03208">
        <ele>2132.5</ele>
        <time>2026-08-31T07:27:40Z</time>
      </trkpt>
      <trkpt lat="44.709" lon="7.03212">
        <ele>2133.5</ele>
        <time>2026-08-31T07:27:45Z</time>
      </trkpt>
      <trkpt lat="44.70897" lon="7.03216">
        <ele>2135.3</ele>
        <time>2026-08-31T07:27:50Z</time>
      </trkpt>
      <trkpt lat="44.70896" lon="7.03221">
        <ele>2136.2</ele>
        <time>2026-08-31T07:27:56Z</time>
      </trkpt>
      <trkpt lat="44.70894" lon="7.03223">
        <ele>2137.3</ele>
        <time>2026-08-31T07:28:01Z</time>
      </trkpt>
      <trkpt lat="44.70891" lon="7.03227">
        <ele>2138.9</ele>
        <time>2026-08-31T07:28:06Z</time>
      </trkpt>
      <trkpt lat="44.70891" lon="7.0323">
        <ele>2139.1</ele>
        <time>2026-08-31T07:28:12Z</time>
      </trkpt>
      <trkpt lat="44.70894" lon="7.03231">
        <ele>2137.9</ele>
        <time>2026-08-31T07:28:17Z</time>
      </trkpt>
      <trkpt lat="44.70897" lon="7.03231">
        <ele>2136.7</ele>
        <time>2026-08-31T07:28:22Z</time>
      </trkpt>
      <trkpt lat="44.709" lon="7.03231">
        <ele>2135.4</ele>
        <time>2026-08-31T07:28:28Z</time>
      </trkpt>
      <trkpt lat="44.70903" lon="7.03231">
        <ele>2134.2</ele>
        <time>2026-08-31T07:28:33Z</time>
      </trkpt>
      <trkpt lat="44.70907" lon="7.03231">
        <ele>2132.6</ele>
        <time>2026-08-31T07:28:38Z</time>
      </trkpt>
      <trkpt lat="44.7091" lon="7.03231">
        <ele>2131.3</ele>
        <time>2026-08-31T07:28:44Z</time>
      </trkpt>
      <trkpt lat="44.70912" lon="7.03231">
        <ele>2130.5</ele>
        <time>2026-08-31T07:28:49Z</time>
      </trkpt>
      <trkpt lat="44.70912" lon="7.03231">
        <ele>2130.5</ele>
        <time>2026-08-31T07:28:54Z</time>
      </trkpt>
      <trkpt lat="44.70912" lon="7.03231">
        <ele>2130.5</ele>
        <time>2026-08-31T07:29:00Z</time>
      </trkpt>
      <trkpt lat="44.70912" lon="7.03231">
        <ele>2130.5</ele>
        <time>2026-08-31T07:29:05Z</time>
      </trkpt>
      <trkpt lat="44.70913" lon="7.03235">
        <ele>2130.7</ele>
        <time>2026-08-31T07:29:10Z</time>
      </trkpt>
      <trkpt lat="44.70911" lon="7.0324">
        <ele>2132.3</ele>
        <time>2026-08-31T07:29:16Z</time>
      </trkpt>
      <trkpt lat="44.7091" lon="7.03245">
        <ele>2133.4</ele>
        <time>2026-08-31T07:29:21Z</time>
      </trkpt>
      <trkpt lat="44.70907" lon="7.0325">
        <ele>2135.1</ele>
        <time>2026-08-31T07:29:26Z</time>
      </trkpt>
      <trkpt lat="44.70904" lon="7.03254">
        <ele>2137</ele>
        <time>2026-08-31T07:29:32Z</time>
      </trkpt>
      <trkpt lat="44.70902" lon="7.03258">
        <ele>2138.5</ele>
        <time>2026-08-31T07:29:37Z</time>
      </trkpt>
      <trkpt lat="44.70902" lon="7.03259">
        <ele>2138.8</ele>
        <time>2026-08-31T07:29:42Z</time>
      </trkpt>
      <trkpt lat="44.70902" lon="7.03259">
        <ele>2138.8</ele>
        <time>2026-08-31T07:29:48Z</time>
      </trkpt>
      <trkpt lat="44.70902" lon="7.03259">
        <ele>2138.8</ele>
        <time>2026-08-31T07:29:53Z</time>
      </trkpt>
      <trkpt lat="44.70902" lon="7.03259">
        <ele>2138.8</ele>
        <time>2026-08-31T07:29:58Z</time>
      </trkpt>
      <trkpt lat="44.70902" lon="7.03259">
        <ele>2138.8</ele>
        <time>2026-08-31T07:30:04Z</time>
      </trkpt>
      <trkpt lat="44.70902" lon="7.03259">
        <ele>2138.8</ele>
        <time>2026-08-31T07:30:09Z</time>
      </trkpt>
      <trkpt lat="44.70902" lon="7.03259">
        <ele>2138.8</ele>
        <time>2026-08-31T07:30:14Z</time>
      </trkpt>
      <trkpt lat="44.70902" lon="7.03259">
        <ele>2138.8</ele>
        <time>2026-08-31T07:30:20Z</time>
      </trkpt>
      <trkpt lat="44.70902" lon="7.03259">
        <ele>2138.8</ele>
        <time>2026-08-31T07:30:25Z</time>
      </trkpt>
      <trkpt lat="44.70902" lon="7.03259">
        <ele>2138.8</ele>
        <time>2026-08-31T07:30:30Z</time>
      </trkpt>
      <trkpt lat="44.70902" lon="7.03259">
        <ele>2138.8</ele>
        <time>2026-08-31T07:30:36Z</time>
      </trkpt>
      <trkpt lat="44.70902" lon="7.03259">
        <ele>2138.8</ele>
        <time>2026-08-31T07:30:41Z</time>
      </trkpt>
      <trkpt lat="44.70902" lon="7.03259">
        <ele>2138.8</ele>
        <time>2026-08-31T07:30:46Z</time>
      </trkpt>
      <trkpt lat="44.70902" lon="7.03259">
        <ele>2138.8</ele>
        <time>2026-08-31T07:30:52Z</time>
      </trkpt>
      <trkpt lat="44.70902" lon="7.03259">
        <ele>2138.8</ele>
        <time>2026-08-31T07:30:57Z</time>
      </trkpt>
      <trkpt lat="44.70902" lon="7.03259">
        <ele>2138.8</ele>
        <time>2026-08-31T07:31:02Z</time>
      </trkpt>
      <trkpt lat="44.70902" lon="7.03259">
        <ele>2138.8</ele>
        <time>2026-08-31T07:31:08Z</time>
      </trkpt>
      <trkpt lat="44.70902" lon="7.03259">
        <ele>2138.8</ele>
        <time>2026-08-31T07:31:13Z</time>
      </trkpt>
      <trkpt lat="44.70902" lon="7.03259">
        <ele>2138.8</ele>
        <time>2026-08-31T07:31:18Z</time>
      </trkpt>
      <trkpt lat="44.70902" lon="7.03259">
        <ele>2138.8</ele>
        <time>2026-08-31T07:31:24Z</time>
      </trkpt>
      <trkpt lat="44.70902" lon="7.03259">
        <ele>2138.8</ele>
        <time>2026-08-31T07:31:29Z</time>
      </trkpt>
      <trkpt lat="44.70902" lon="7.03259">
        <ele>2138.8</ele>
        <time>2026-08-31T07:31:34Z</time>
      </trkpt>
      <trkpt lat="44.70902" lon="7.03259">
        <ele>2138.8</ele>
        <time>2026-08-31T07:31:40Z</time>
      </trkpt>
      <trkpt lat="44.70902" lon="7.03259">
        <ele>2138.8</ele>
        <time>2026-08-31T07:31:45Z</time>
      </trkpt>
      <trkpt lat="44.70902" lon="7.03259">
        <ele>2138.8</ele>
        <time>2026-08-31T07:31:50Z</time>
      </trkpt>
      <trkpt lat="44.70902" lon="7.03259">
        <ele>2138.8</ele>
        <time>2026-08-31T07:31:56Z</time>
      </trkpt>
      <trkpt lat="44.70902" lon="7.03259">
        <ele>2138.8</ele>
        <time>2026-08-31T07:32:01Z</time>
      </trkpt>
      <trkpt lat="44.70902" lon="7.03259">
        <ele>2138.8</ele>
        <time>2026-08-31T07:32:06Z</time>
      </trkpt>
      <trkpt lat="44.70902" lon="7.03259">
        <ele>2138.8</ele>
        <time>2026-08-31T07:32:12Z</time>
      </trkpt>
      <trkpt lat="44.70902" lon="7.03259">
        <ele>2138.8</ele>
        <time>2026-08-31T07:32:17Z</time>
      </trkpt>
      <trkpt lat="44.70902" lon="7.03259">
        <ele>2138.8</ele>
        <time>2026-08-31T07:32:22Z</time>
      </trkpt>
      <trkpt lat="44.70902" lon="7.03259">
        <ele>2138.8</ele>
        <time>2026-08-31T07:32:28Z</time>
      </trkpt>
      <trkpt lat="44.70902" lon="7.03259">
        <ele>2138.8</ele>
        <time>2026-08-31T07:32:33Z</time>
      </trkpt>
      <trkpt lat="44.70902" lon="7.03259">
        <ele>2138.8</ele>
        <time>2026-08-31T07:32:38Z</time>
      </trkpt>
      <trkpt lat="44.70902" lon="7.03259">
        <ele>2138.8</ele>
        <time>2026-08-31T07:32:44Z</time>
      </trkpt>
      <trkpt lat="44.70902" lon="7.03259">
        <ele>2138.8</ele>
        <time>2026-08-31T07:32:49Z</time>
      </trkpt>
      <trkpt lat="44.70902" lon="7.03259">
        <ele>2138.8</ele>
        <time>2026-08-31T07:32:54Z</time>
      </trkpt>
      <trkpt lat="44.70902" lon="7.03259">
        <ele>2138.8</ele>
        <time>2026-08-31T07:33:00Z</time>
      </trkpt>
      <trkpt lat="44.70902" lon="7.03259">
        <ele>2138.8</ele>
        <time>2026-08-31T07:33:05Z</time>
      </trkpt>
      <trkpt lat="44.70902" lon="7.03259">
        <ele>2138.8</ele>
        <time>2026-08-31T07:33:10Z</time>
      </trkpt>
      <trkpt lat="44.70902" lon="7.03259">
        <ele>2138.8</ele>
        <time>2026-08-31T07:33:16Z</time>
      </trkpt>
      <trkpt lat="44.70902" lon="7.03259">
        <ele>2138.8</ele>
        <time>2026-08-31T07:33:21Z</time>
      </trkpt>
      <trkpt lat="44.70902" lon="7.03259">
        <ele>2138.8</ele>
        <time>2026-08-31T07:33:26Z</time>
      </trkpt>
      <trkpt lat="44.70902" lon="7.03259">
        <ele>2138.8</ele>
        <time>2026-08-31T07:33:32Z</time>
      </trkpt>
      <trkpt lat="44.70902" lon="7.03259">
        <ele>2138.8</ele>
        <time>2026-08-31T07:33:37Z</time>
      </trkpt>
      <trkpt lat="44.70902" lon="7.03259">
        <ele>2138.8</ele>
        <time>2026-08-31T07:33:42Z</time>
      </trkpt>
      <trkpt lat="44.70902" lon="7.03259">
        <ele>2138.8</ele>
        <time>2026-08-31T07:33:48Z</time>
      </trkpt>
      <trkpt lat="44.70902" lon="7.03259">
        <ele>2138.8</ele>
        <time>2026-08-31T07:33:53Z</time>
      </trkpt>
      <trkpt lat="44.70902" lon="7.03259">
        <ele>2138.8</ele>
        <time>2026-08-31T07:33:58Z</time>
      </trkpt>
      <trkpt lat="44.70902" lon="7.03259">
        <ele>2138.8</ele>
        <time>2026-08-31T07:34:04Z</time>
      </trkpt>
      <trkpt lat="44.70902" lon="7.03259">
        <ele>2138.8</ele>
        <time>2026-08-31T07:34:09Z</time>
      </trkpt>
      <trkpt lat="44.70902" lon="7.03259">
        <ele>2138.8</ele>
        <time>2026-08-31T07:34:14Z</time>
      </trkpt>
      <trkpt lat="44.70902" lon="7.03259">
        <ele>2138.8</ele>
        <time>2026-08-31T07:34:20Z</time>
      </trkpt>
      <trkpt lat="44.70902" lon="7.03259">
        <ele>2138.8</ele>
        <time>2026-08-31T07:34:25Z</time>
      </trkpt>
      <trkpt lat="44.70902" lon="7.03259">
        <ele>2138.8</ele>
        <time>2026-08-31T07:34:30Z</time>
      </trkpt>
      <trkpt lat="44.70902" lon="7.03259">
        <ele>2138.8</ele>
        <time>2026-08-31T07:34:36Z</time>
      </trkpt>
      <trkpt lat="44.70902" lon="7.03259">
        <ele>2138.8</ele>
        <time>2026-08-31T07:34:41Z</time>
      </trkpt>
      <trkpt lat="44.70902" lon="7.03259">
        <ele>2138.8</ele>
        <time>2026-08-31T07:34:46Z</time>
      </trkpt>
      <trkpt lat="44.70902" lon="7.03259">
        <ele>2138.8</ele>
        <time>2026-08-31T07:34:52Z</time>
      </trkpt>
      <trkpt lat="44.70902" lon="7.03259">
        <ele>2138.8</ele>
        <time>2026-08-31T07:34:57Z</time>
      </trkpt>
      <trkpt lat="44.70902" lon="7.03259">
        <ele>2138.8</ele>
        <time>2026-08-31T07:35:02Z</time>
      </trkpt>
      <trkpt lat="44.70902" lon="7.03259">
        <ele>2138.8</ele>
        <time>2026-08-31T07:35:08Z</time>
      </trkpt>
      <trkpt lat="44.70902" lon="7.03259">
        <ele>2138.8</ele>
        <time>2026-08-31T07:35:13Z</time>
      </trkpt>
      <trkpt lat="44.709" lon="7.03265">
        <ele>2140.6</ele>
        <time>2026-08-31T07:35:18Z</time>
      </trkpt>
      <trkpt lat="44.70898" lon="7.03273">
        <ele>2142.9</ele>
        <time>2026-08-31T07:35:24Z</time>
      </trkpt>
      <trkpt lat="44.70895" lon="7.03277">
        <ele>2144.4</ele>
        <time>2026-08-31T07:35:29Z</time>
      </trkpt>
      <trkpt lat="44.70894" lon="7.03282">
        <ele>2145.6</ele>
        <time>2026-08-31T07:35:34Z</time>
      </trkpt>
      <trkpt lat="44.70891" lon="7.03283">
        <ele>2146.4</ele>
        <time>2026-08-31T07:35:40Z</time>
      </trkpt>
      <trkpt lat="44.70891" lon="7.03283">
        <ele>2146.4</ele>
        <time>2026-08-31T07:35:45Z</time>
      </trkpt>
      <trkpt lat="44.70891" lon="7.03283">
        <ele>2146.4</ele>
        <time>2026-08-31T07:35:50Z</time>
      </trkpt>
      <trkpt lat="44.70891" lon="7.03283">
        <ele>2146.4</ele>
        <time>2026-08-31T07:35:56Z</time>
      </trkpt>
      <trkpt lat="44.70891" lon="7.03283">
        <ele>2146.4</ele>
        <time>2026-08-31T07:36:01Z</time>
      </trkpt>
      <trkpt lat="44.70891" lon="7.03283">
        <ele>2146.4</ele>
        <time>2026-08-31T07:36:06Z</time>
      </trkpt>
      <trkpt lat="44.70891" lon="7.03283">
        <ele>2146.4</ele>
        <time>2026-08-31T07:36:12Z</time>
      </trkpt>
      <trkpt lat="44.70891" lon="7.03283">
        <ele>2146.4</ele>
        <time>2026-08-31T07:36:17Z</time>
      </trkpt>
      <trkpt lat="44.70891" lon="7.03283">
        <ele>2146.4</ele>
        <time>2026-08-31T07:36:22Z</time>
      </trkpt>
      <trkpt lat="44.70891" lon="7.03283">
        <ele>2146.4</ele>
        <time>2026-08-31T07:36:28Z</time>
      </trkpt>
      <trkpt lat="44.70891" lon="7.03283">
        <ele>2146.4</ele>
        <time>2026-08-31T07:36:33Z</time>
      </trkpt>
      <trkpt lat="44.70891" lon="7.03283">
        <ele>2146.4</ele>
        <time>2026-08-31T07:36:38Z</time>
      </trkpt>
      <trkpt lat="44.70891" lon="7.03283">
        <ele>2146.4</ele>
        <time>2026-08-31T07:36:44Z</time>
      </trkpt>
      <trkpt lat="44.70891" lon="7.03283">
        <ele>2146.4</ele>
        <time>2026-08-31T07:36:49Z</time>
      </trkpt>
      <trkpt lat="44.70891" lon="7.03283">
        <ele>2146.4</ele>
        <time>2026-08-31T07:36:54Z</time>
      </trkpt>
      <trkpt lat="44.70891" lon="7.03283">
        <ele>2146.4</ele>
        <time>2026-08-31T07:37:00Z</time>
      </trkpt>
      <trkpt lat="44.70891" lon="7.03283">
        <ele>2146.4</ele>
        <time>2026-08-31T07:37:05Z</time>
      </trkpt>
      <trkpt lat="44.70891" lon="7.03283">
        <ele>2146.4</ele>
        <time>2026-08-31T07:37:10Z</time>
      </trkpt>
      <trkpt lat="44.70891" lon="7.03283">
        <ele>2146.4</ele>
        <time>2026-08-31T07:37:16Z</time>
      </trkpt>
      <trkpt lat="44.70891" lon="7.03283">
        <ele>2146.4</ele>
        <time>2026-08-31T07:37:21Z</time>
      </trkpt>
      <trkpt lat="44.70891" lon="7.03283">
        <ele>2146.4</ele>
        <time>2026-08-31T07:37:26Z</time>
      </trkpt>
      <trkpt lat="44.70894" lon="7.03297">
        <ele>2148.5</ele>
        <time>2026-08-31T07:37:32Z</time>
      </trkpt>
      <trkpt lat="44.70897" lon="7.03297">
        <ele>2148</ele>
        <time>2026-08-31T07:37:37Z</time>
      </trkpt>
      <trkpt lat="44.70898" lon="7.033">
        <ele>2148.5</ele>
        <time>2026-08-31T07:37:42Z</time>
      </trkpt>
      <trkpt lat="44.70897" lon="7.03306">
        <ele>2149.9</ele>
        <time>2026-08-31T07:37:48Z</time>
      </trkpt>
      <trkpt lat="44.70897" lon="7.03312">
        <ele>2151.1</ele>
        <time>2026-08-31T07:37:53Z</time>
      </trkpt>
      <trkpt lat="44.70896" lon="7.03315">
        <ele>2151.8</ele>
        <time>2026-08-31T07:37:58Z</time>
      </trkpt>
      <trkpt lat="44.70895" lon="7.03318">
        <ele>2152.5</ele>
        <time>2026-08-31T07:38:04Z</time>
      </trkpt>
      <trkpt lat="44.70896" lon="7.0332">
        <ele>2152.8</ele>
        <time>2026-08-31T07:38:09Z</time>
      </trkpt>
      <trkpt lat="44.70896" lon="7.03323">
        <ele>2153.4</ele>
        <time>2026-08-31T07:38:14Z</time>
      </trkpt>
      <trkpt lat="44.70896" lon="7.03326">
        <ele>2154</ele>
        <time>2026-08-31T07:38:20Z</time>
      </trkpt>
      <trkpt lat="44.70896" lon="7.03326">
        <ele>2154</ele>
        <time>2026-08-31T07:38:25Z</time>
      </trkpt>
      <trkpt lat="44.70898" lon="7.03326">
        <ele>2153.9</ele>
        <time>2026-08-31T07:38:30Z</time>
      </trkpt>
      <trkpt lat="44.70898" lon="7.03326">
        <ele>2153.9</ele>
        <time>2026-08-31T07:38:36Z</time>
      </trkpt>
      <trkpt lat="44.70898" lon="7.03326">
        <ele>2153.9</ele>
        <time>2026-08-31T07:38:41Z</time>
      </trkpt>
      <trkpt lat="44.70898" lon="7.03326">
        <ele>2153.9</ele>
        <time>2026-08-31T07:38:46Z</time>
      </trkpt>
      <trkpt lat="44.70898" lon="7.03326">
        <ele>2153.9</ele>
        <time>2026-08-31T07:38:52Z</time>
      </trkpt>
      <trkpt lat="44.70898" lon="7.03326">
        <ele>2153.9</ele>
        <time>2026-08-31T07:38:57Z</time>
      </trkpt>
      <trkpt lat="44.70898" lon="7.03326">
        <ele>2153.9</ele>
        <time>2026-08-31T07:39:02Z</time>
      </trkpt>
      <trkpt lat="44.70898" lon="7.03326">
        <ele>2153.9</ele>
        <time>2026-08-31T07:39:08Z</time>
      </trkpt>
      <trkpt lat="44.709" lon="7.03338">
        <ele>2156.3</ele>
        <time>2026-08-31T07:39:13Z</time>
      </trkpt>
      <trkpt lat="44.70901" lon="7.03343">
        <ele>2157.2</ele>
        <time>2026-08-31T07:39:18Z</time>
      </trkpt>
      <trkpt lat="44.70903" lon="7.0335">
        <ele>2158.5</ele>
        <time>2026-08-31T07:39:24Z</time>
      </trkpt>
      <trkpt lat="44.70903" lon="7.03357">
        <ele>2159.9</ele>
        <time>2026-08-31T07:39:29Z</time>
      </trkpt>
      <trkpt lat="44.70905" lon="7.03362">
        <ele>2161</ele>
        <time>2026-08-31T07:39:34Z</time>
      </trkpt>
      <trkpt lat="44.70904" lon="7.03367">
        <ele>2161.9</ele>
        <time>2026-08-31T07:39:40Z</time>
      </trkpt>
      <trkpt lat="44.70905" lon="7.03369">
        <ele>2162.4</ele>
        <time>2026-08-31T07:39:45Z</time>
      </trkpt>
      <trkpt lat="44.70905" lon="7.03369">
        <ele>2162.4</ele>
        <time>2026-08-31T07:39:50Z</time>
      </trkpt>
      <trkpt lat="44.70905" lon="7.03369">
        <ele>2162.4</ele>
        <time>2026-08-31T07:39:56Z</time>
      </trkpt>
      <trkpt lat="44.70905" lon="7.03369">
        <ele>2162.4</ele>
        <time>2026-08-31T07:40:01Z</time>
      </trkpt>
      <trkpt lat="44.70905" lon="7.03369">
        <ele>2162.4</ele>
        <time>2026-08-31T07:40:06Z</time>
      </trkpt>
      <trkpt lat="44.70905" lon="7.03369">
        <ele>2162.4</ele>
        <time>2026-08-31T07:40:12Z</time>
      </trkpt>
      <trkpt lat="44.70903" lon="7.0338">
        <ele>2164.3</ele>
        <time>2026-08-31T07:40:17Z</time>
      </trkpt>
      <trkpt lat="44.70904" lon="7.03387">
        <ele>2165.8</ele>
        <time>2026-08-31T07:40:22Z</time>
      </trkpt>
      <trkpt lat="44.70904" lon="7.03394">
        <ele>2167.2</ele>
        <time>2026-08-31T07:40:28Z</time>
      </trkpt>
      <trkpt lat="44.70904" lon="7.03398">
        <ele>2168</ele>
        <time>2026-08-31T07:40:33Z</time>
      </trkpt>
      <trkpt lat="44.70904" lon="7.03398">
        <ele>2168</ele>
        <time>2026-08-31T07:40:38Z</time>
      </trkpt>
      <trkpt lat="44.70904" lon="7.03398">
        <ele>2168</ele>
        <time>2026-08-31T07:40:44Z</time>
      </trkpt>
      <trkpt lat="44.70906" lon="7.03406">
        <ele>2170</ele>
        <time>2026-08-31T07:40:49Z</time>
      </trkpt>
      <trkpt lat="44.70906" lon="7.03414">
        <ele>2171.6</ele>
        <time>2026-08-31T07:40:54Z</time>
      </trkpt>
      <trkpt lat="44.70905" lon="7.03423">
        <ele>2172.8</ele>
        <time>2026-08-31T07:41:00Z</time>
      </trkpt>
      <trkpt lat="44.70904" lon="7.0343">
        <ele>2173.4</ele>
        <time>2026-08-31T07:41:05Z</time>
      </trkpt>
      <trkpt lat="44.70904" lon="7.03436">
        <ele>2174.2</ele>
        <time>2026-08-31T07:41:10Z</time>
      </trkpt>
      <trkpt lat="44.70905" lon="7.03442">
        <ele>2175.4</ele>
        <time>2026-08-31T07:41:16Z</time>
      </trkpt>
      <trkpt lat="44.70904" lon="7.03443">
        <ele>2175.2</ele>
        <time>2026-08-31T07:41:21Z</time>
      </trkpt>
      <trkpt lat="44.70904" lon="7.03444">
        <ele>2175.3</ele>
        <time>2026-08-31T07:41:26Z</time>
      </trkpt>
      <trkpt lat="44.70904" lon="7.03444">
        <ele>2175.3</ele>
        <time>2026-08-31T07:41:32Z</time>
      </trkpt>
      <trkpt lat="44.70904" lon="7.03444">
        <ele>2175.3</ele>
        <time>2026-08-31T07:41:37Z</time>
      </trkpt>
      <trkpt lat="44.70902" lon="7.0345">
        <ele>2175.5</ele>
        <time>2026-08-31T07:41:42Z</time>
      </trkpt>
      <trkpt lat="44.709" lon="7.03459">
        <ele>2176</ele>
        <time>2026-08-31T07:41:48Z</time>
      </trkpt>
      <trkpt lat="44.709" lon="7.03466">
        <ele>2176.9</ele>
        <time>2026-08-31T07:41:53Z</time>
      </trkpt>
      <trkpt lat="44.70899" lon="7.03474">
        <ele>2177.5</ele>
        <time>2026-08-31T07:41:58Z</time>
      </trkpt>
      <trkpt lat="44.70898" lon="7.03482">
        <ele>2178.2</ele>
        <time>2026-08-31T07:42:04Z</time>
      </trkpt>
      <trkpt lat="44.70894" lon="7.03486">
        <ele>2177.1</ele>
        <time>2026-08-31T07:42:09Z</time>
      </trkpt>
      <trkpt lat="44.70891" lon="7.03489">
        <ele>2176.3</ele>
        <time>2026-08-31T07:42:14Z</time>
      </trkpt>
      <trkpt lat="44.70889" lon="7.03494">
        <ele>2176.1</ele>
        <time>2026-08-31T07:42:20Z</time>
      </trkpt>
      <trkpt lat="44.70887" lon="7.035">
        <ele>2175.9</ele>
        <time>2026-08-31T07:42:25Z</time>
      </trkpt>
      <trkpt lat="44.70883" lon="7.03503">
        <ele>2174.6</ele>
        <time>2026-08-31T07:42:30Z</time>
      </trkpt>
      <trkpt lat="44.70879" lon="7.03509">
        <ele>2173.7</ele>
        <time>2026-08-31T07:42:36Z</time>
      </trkpt>
      <trkpt lat="44.70879" lon="7.03514">
        <ele>2174.2</ele>
        <time>2026-08-31T07:42:41Z</time>
      </trkpt>
      <trkpt lat="44.70877" lon="7.03517">
        <ele>2173.8</ele>
        <time>2026-08-31T07:42:46Z</time>
      </trkpt>
      <trkpt lat="44.70877" lon="7.03521">
        <ele>2174.2</ele>
        <time>2026-08-31T07:42:52Z</time>
      </trkpt>
      <trkpt lat="44.70878" lon="7.03522">
        <ele>2174.7</ele>
        <time>2026-08-31T07:42:57Z</time>
      </trkpt>
      <trkpt lat="44.70878" lon="7.03522">
        <ele>2174.7</ele>
        <time>2026-08-31T07:43:02Z</time>
      </trkpt>
      <trkpt lat="44.70877" lon="7.03527">
        <ele>2174.9</ele>
        <time>2026-08-31T07:43:08Z</time>
      </trkpt>
      <trkpt lat="44.70876" lon="7.03531">
        <ele>2174.9</ele>
        <time>2026-08-31T07:43:13Z</time>
      </trkpt>
      <trkpt lat="44.70877" lon="7.03535">
        <ele>2175.8</ele>
        <time>2026-08-31T07:43:18Z</time>
      </trkpt>
      <trkpt lat="44.70878" lon="7.03541">
        <ele>2176.9</ele>
        <time>2026-08-31T07:43:24Z</time>
      </trkpt>
      <trkpt lat="44.70879" lon="7.03546">
        <ele>2177.9</ele>
        <time>2026-08-31T07:43:29Z</time>
      </trkpt>
      <trkpt lat="44.70879" lon="7.03549">
        <ele>2178.2</ele>
        <time>2026-08-31T07:43:34Z</time>
      </trkpt>
      <trkpt lat="44.7088" lon="7.03554">
        <ele>2179.2</ele>
        <time>2026-08-31T07:43:40Z</time>
      </trkpt>
      <trkpt lat="44.70882" lon="7.03555">
        <ele>2180.2</ele>
        <time>2026-08-31T07:43:45Z</time>
      </trkpt>
      <trkpt lat="44.70882" lon="7.03555">
        <ele>2180.2</ele>
        <time>2026-08-31T07:43:50Z</time>
      </trkpt>
      <trkpt lat="44.70882" lon="7.03555">
        <ele>2180.2</ele>
        <time>2026-08-31T07:43:56Z</time>
      </trkpt>
      <trkpt lat="44.70882" lon="7.03555">
        <ele>2180.2</ele>
        <time>2026-08-31T07:44:01Z</time>
      </trkpt>
      <trkpt lat="44.70882" lon="7.03555">
        <ele>2180.2</ele>
        <time>2026-08-31T07:44:06Z</time>
      </trkpt>
      <trkpt lat="44.70882" lon="7.03555">
        <ele>2180.2</ele>
        <time>2026-08-31T07:44:12Z</time>
      </trkpt>
      <trkpt lat="44.70882" lon="7.03555">
        <ele>2180.2</ele>
        <time>2026-08-31T07:44:17Z</time>
      </trkpt>
      <trkpt lat="44.70882" lon="7.03555">
        <ele>2180.2</ele>
        <time>2026-08-31T07:44:22Z</time>
      </trkpt>
      <trkpt lat="44.70882" lon="7.03555">
        <ele>2180.2</ele>
        <time>2026-08-31T07:44:28Z</time>
      </trkpt>
      <trkpt lat="44.70882" lon="7.03555">
        <ele>2180.2</ele>
        <time>2026-08-31T07:44:33Z</time>
      </trkpt>
      <trkpt lat="44.70882" lon="7.03555">
        <ele>2180.2</ele>
        <time>2026-08-31T07:44:38Z</time>
      </trkpt>
      <trkpt lat="44.70882" lon="7.03555">
        <ele>2180.2</ele>
        <time>2026-08-31T07:44:44Z</time>
      </trkpt>
      <trkpt lat="44.70882" lon="7.03555">
        <ele>2180.2</ele>
        <time>2026-08-31T07:44:49Z</time>
      </trkpt>
      <trkpt lat="44.70882" lon="7.03555">
        <ele>2180.2</ele>
        <time>2026-08-31T07:44:54Z</time>
      </trkpt>
      <trkpt lat="44.70882" lon="7.03555">
        <ele>2180.2</ele>
        <time>2026-08-31T07:45:00Z</time>
      </trkpt>
      <trkpt lat="44.70882" lon="7.03555">
        <ele>2180.2</ele>
        <time>2026-08-31T07:45:05Z</time>
      </trkpt>
      <trkpt lat="44.70882" lon="7.03555">
        <ele>2180.2</ele>
        <time>2026-08-31T07:45:10Z</time>
      </trkpt>
      <trkpt lat="44.70882" lon="7.03555">
        <ele>2180.2</ele>
        <time>2026-08-31T07:45:16Z</time>
      </trkpt>
      <trkpt lat="44.70882" lon="7.03555">
        <ele>2180.2</ele>
        <time>2026-08-31T07:45:21Z</time>
      </trkpt>
      <trkpt lat="44.70882" lon="7.03555">
        <ele>2180.2</ele>
        <time>2026-08-31T07:45:26Z</time>
      </trkpt>
      <trkpt lat="44.70882" lon="7.03555">
        <ele>2180.2</ele>
        <time>2026-08-31T07:45:32Z</time>
      </trkpt>
      <trkpt lat="44.70882" lon="7.03555">
        <ele>2180.2</ele>
        <time>2026-08-31T07:45:37Z</time>
      </trkpt>
      <trkpt lat="44.70882" lon="7.03555">
        <ele>2180.2</ele>
        <time>2026-08-31T07:45:42Z</time>
      </trkpt>
      <trkpt lat="44.70882" lon="7.03555">
        <ele>2180.2</ele>
        <time>2026-08-31T07:45:48Z</time>
      </trkpt>
      <trkpt lat="44.70882" lon="7.03555">
        <ele>2180.2</ele>
        <time>2026-08-31T07:45:53Z</time>
      </trkpt>
      <trkpt lat="44.70882" lon="7.03555">
        <ele>2180.2</ele>
        <time>2026-08-31T07:45:58Z</time>
      </trkpt>
      <trkpt lat="44.70882" lon="7.03555">
        <ele>2180.2</ele>
        <time>2026-08-31T07:46:04Z</time>
      </trkpt>
      <trkpt lat="44.70882" lon="7.03555">
        <ele>2180.2</ele>
        <time>2026-08-31T07:46:09Z</time>
      </trkpt>
      <trkpt lat="44.70882" lon="7.03555">
        <ele>2180.2</ele>
        <time>2026-08-31T07:46:14Z</time>
      </trkpt>
      <trkpt lat="44.70882" lon="7.03555">
        <ele>2180.2</ele>
        <time>2026-08-31T07:46:20Z</time>
      </trkpt>
      <trkpt lat="44.70882" lon="7.03555">
        <ele>2180.2</ele>
        <time>2026-08-31T07:46:25Z</time>
      </trkpt>
      <trkpt lat="44.70882" lon="7.03555">
        <ele>2180.2</ele>
        <time>2026-08-31T07:46:30Z</time>
      </trkpt>
      <trkpt lat="44.70882" lon="7.03555">
        <ele>2180.2</ele>
        <time>2026-08-31T07:46:36Z</time>
      </trkpt>
      <trkpt lat="44.70882" lon="7.03555">
        <ele>2180.2</ele>
        <time>2026-08-31T07:46:41Z</time>
      </trkpt>
      <trkpt lat="44.70882" lon="7.03555">
        <ele>2180.2</ele>
        <time>2026-08-31T07:46:46Z</time>
      </trkpt>
      <trkpt lat="44.70882" lon="7.03555">
        <ele>2180.2</ele>
        <time>2026-08-31T07:46:52Z</time>
      </trkpt>
      <trkpt lat="44.70882" lon="7.03555">
        <ele>2180.2</ele>
        <time>2026-08-31T07:46:57Z</time>
      </trkpt>
      <trkpt lat="44.70882" lon="7.03555">
        <ele>2180.2</ele>
        <time>2026-08-31T07:47:02Z</time>
      </trkpt>
      <trkpt lat="44.70882" lon="7.03555">
        <ele>2180.2</ele>
        <time>2026-08-31T07:47:08Z</time>
      </trkpt>
      <trkpt lat="44.70882" lon="7.03555">
        <ele>2180.2</ele>
        <time>2026-08-31T07:47:13Z</time>
      </trkpt>
      <trkpt lat="44.70882" lon="7.03555">
        <ele>2180.2</ele>
        <time>2026-08-31T07:47:18Z</time>
      </trkpt>
      <trkpt lat="44.70882" lon="7.03555">
        <ele>2180.2</ele>
        <time>2026-08-31T07:47:24Z</time>
      </trkpt>
      <trkpt lat="44.70882" lon="7.03555">
        <ele>2180.2</ele>
        <time>2026-08-31T07:47:29Z</time>
      </trkpt>
      <trkpt lat="44.70882" lon="7.03555">
        <ele>2180.2</ele>
        <time>2026-08-31T07:47:34Z</time>
      </trkpt>
      <trkpt lat="44.70882" lon="7.03555">
        <ele>2180.2</ele>
        <time>2026-08-31T07:47:40Z</time>
      </trkpt>
      <trkpt lat="44.70882" lon="7.03555">
        <ele>2180.2</ele>
        <time>2026-08-31T07:47:45Z</time>
      </trkpt>
      <trkpt lat="44.70882" lon="7.03555">
        <ele>2180.2</ele>
        <time>2026-08-31T07:47:50Z</time>
      </trkpt>
      <trkpt lat="44.70882" lon="7.03555">
        <ele>2180.2</ele>
        <time>2026-08-31T07:47:56Z</time>
      </trkpt>
      <trkpt lat="44.70882" lon="7.03555">
        <ele>2180.2</ele>
        <time>2026-08-31T07:48:01Z</time>
      </trkpt>
      <trkpt lat="44.70882" lon="7.03555">
        <ele>2180.2</ele>
        <time>2026-08-31T07:48:06Z</time>
      </trkpt>
      <trkpt lat="44.70882" lon="7.03555">
        <ele>2180.2</ele>
        <time>2026-08-31T07:48:12Z</time>
      </trkpt>
      <trkpt lat="44.70882" lon="7.03555">
        <ele>2180.2</ele>
        <time>2026-08-31T07:48:17Z</time>
      </trkpt>
      <trkpt lat="44.70882" lon="7.03555">
        <ele>2180.2</ele>
        <time>2026-08-31T07:48:22Z</time>
      </trkpt>
      <trkpt lat="44.70882" lon="7.03555">
        <ele>2180.2</ele>
        <time>2026-08-31T07:48:28Z</time>
      </trkpt>
      <trkpt lat="44.70882" lon="7.03555">
        <ele>2180.2</ele>
        <time>2026-08-31T07:48:33Z</time>
      </trkpt>
      <trkpt lat="44.70882" lon="7.0356">
        <ele>2180.8</ele>
        <time>2026-08-31T07:48:38Z</time>
      </trkpt>
      <trkpt lat="44.70882" lon="7.03569">
        <ele>2181.8</ele>
        <time>2026-08-31T07:48:44Z</time>
      </trkpt>
      <trkpt lat="44.70883" lon="7.03575">
        <ele>2182.9</ele>
        <time>2026-08-31T07:48:49Z</time>
      </trkpt>
      <trkpt lat="44.70883" lon="7.03582">
        <ele>2183.7</ele>
        <time>2026-08-31T07:48:54Z</time>
      </trkpt>
      <trkpt lat="44.70881" lon="7.0359">
        <ele>2183.6</ele>
        <time>2026-08-31T07:49:00Z</time>
      </trkpt>
      <trkpt lat="44.7088" lon="7.03594">
        <ele>2183.6</ele>
        <time>2026-08-31T07:49:05Z</time>
      </trkpt>
      <trkpt lat="44.70879" lon="7.03599">
        <ele>2183.6</ele>
        <time>2026-08-31T07:49:10Z</time>
      </trkpt>
      <trkpt lat="44.70878" lon="7.03608">
        <ele>2184</ele>
        <time>2026-08-31T07:49:16Z</time>
      </trkpt>
      <trkpt lat="44.70877" lon="7.03613">
        <ele>2184</ele>
        <time>2026-08-31T07:49:21Z</time>
      </trkpt>
      <trkpt lat="44.70877" lon="7.03618">
        <ele>2184.5</ele>
        <time>2026-08-31T07:49:26Z</time>
      </trkpt>
      <trkpt lat="44.70878" lon="7.03625">
        <ele>2185.5</ele>
        <time>2026-08-31T07:49:32Z</time>
      </trkpt>
      <trkpt lat="44.70877" lon="7.0363">
        <ele>2185.5</ele>
        <time>2026-08-31T07:49:37Z</time>
      </trkpt>
      <trkpt lat="44.70876" lon="7.03635">
        <ele>2185.6</ele>
        <time>2026-08-31T07:49:42Z</time>
      </trkpt>
      <trkpt lat="44.70875" lon="7.03638">
        <ele>2185.4</ele>
        <time>2026-08-31T07:49:48Z</time>
      </trkpt>
      <trkpt lat="44.70876" lon="7.03641">
        <ele>2186.1</ele>
        <time>2026-08-31T07:49:53Z</time>
      </trkpt>
      <trkpt lat="44.70876" lon="7.03643">
        <ele>2186.3</ele>
        <time>2026-08-31T07:49:58Z</time>
      </trkpt>
      <trkpt lat="44.70876" lon="7.03643">
        <ele>2186.3</ele>
        <time>2026-08-31T07:50:04Z</time>
      </trkpt>
      <trkpt lat="44.70876" lon="7.03643">
        <ele>2186.3</ele>
        <time>2026-08-31T07:50:09Z</time>
      </trkpt>
      <trkpt lat="44.70876" lon="7.03643">
        <ele>2186.3</ele>
        <time>2026-08-31T07:50:14Z</time>
      </trkpt>
      <trkpt lat="44.70875" lon="7.0365">
        <ele>2186.5</ele>
        <time>2026-08-31T07:50:20Z</time>
      </trkpt>
      <trkpt lat="44.70874" lon="7.0365">
        <ele>2186.1</ele>
        <time>2026-08-31T07:50:25Z</time>
      </trkpt>
      <trkpt lat="44.70872" lon="7.03655">
        <ele>2185.7</ele>
        <time>2026-08-31T07:50:30Z</time>
      </trkpt>
      <trkpt lat="44.70873" lon="7.03659">
        <ele>2186.5</ele>
        <time>2026-08-31T07:50:36Z</time>
      </trkpt>
      <trkpt lat="44.70874" lon="7.03662">
        <ele>2187.2</ele>
        <time>2026-08-31T07:50:41Z</time>
      </trkpt>
      <trkpt lat="44.70874" lon="7.03666">
        <ele>2187.5</ele>
        <time>2026-08-31T07:50:46Z</time>
      </trkpt>
      <trkpt lat="44.70872" lon="7.03667">
        <ele>2186.8</ele>
        <time>2026-08-31T07:50:52Z</time>
      </trkpt>
      <trkpt lat="44.70872" lon="7.03671">
        <ele>2187.5</ele>
        <time>2026-08-31T07:50:57Z</time>
      </trkpt>
      <trkpt lat="44.70872" lon="7.03675">
        <ele>2188.3</ele>
        <time>2026-08-31T07:51:02Z</time>
      </trkpt>
      <trkpt lat="44.70872" lon="7.03675">
        <ele>2188.3</ele>
        <time>2026-08-31T07:51:08Z</time>
      </trkpt>
      <trkpt lat="44.70872" lon="7.03675">
        <ele>2188.3</ele>
        <time>2026-08-31T07:51:13Z</time>
      </trkpt>
      <trkpt lat="44.70872" lon="7.03675">
        <ele>2188.3</ele>
        <time>2026-08-31T07:51:18Z</time>
      </trkpt>
      <trkpt lat="44.70872" lon="7.03675">
        <ele>2188.3</ele>
        <time>2026-08-31T07:51:24Z</time>
      </trkpt>
      <trkpt lat="44.70872" lon="7.03675">
        <ele>2188.3</ele>
        <time>2026-08-31T07:51:29Z</time>
      </trkpt>
      <trkpt lat="44.70872" lon="7.03675">
        <ele>2188.3</ele>
        <time>2026-08-31T07:51:34Z</time>
      </trkpt>
      <trkpt lat="44.70872" lon="7.03675">
        <ele>2188.3</ele>
        <time>2026-08-31T07:51:40Z</time>
      </trkpt>
      <trkpt lat="44.7087" lon="7.03687">
        <ele>2189.6</ele>
        <time>2026-08-31T07:51:45Z</time>
      </trkpt>
      <trkpt lat="44.70869" lon="7.03692">
        <ele>2190</ele>
        <time>2026-08-31T07:51:50Z</time>
      </trkpt>
      <trkpt lat="44.70868" lon="7.03696">
        <ele>2190.3</ele>
        <time>2026-08-31T07:51:56Z</time>
      </trkpt>
      <trkpt lat="44.70868" lon="7.037">
        <ele>2191</ele>
        <time>2026-08-31T07:52:01Z</time>
      </trkpt>
      <trkpt lat="44.70869" lon="7.03702">
        <ele>2191.8</ele>
        <time>2026-08-31T07:52:06Z</time>
      </trkpt>
      <trkpt lat="44.70871" lon="7.03701">
        <ele>2192.5</ele>
        <time>2026-08-31T07:52:12Z</time>
      </trkpt>
      <trkpt lat="44.70876" lon="7.03695">
        <ele>2193.5</ele>
        <time>2026-08-31T07:52:17Z</time>
      </trkpt>
      <trkpt lat="44.70877" lon="7.03693">
        <ele>2193.6</ele>
        <time>2026-08-31T07:52:22Z</time>
      </trkpt>
      <trkpt lat="44.70877" lon="7.03693">
        <ele>2193.6</ele>
        <time>2026-08-31T07:52:28Z</time>
      </trkpt>
      <trkpt lat="44.7088" lon="7.03689">
        <ele>2194.1</ele>
        <time>2026-08-31T07:52:33Z</time>
      </trkpt>
      <trkpt lat="44.70882" lon="7.03687">
        <ele>2194.6</ele>
        <time>2026-08-31T07:52:38Z</time>
      </trkpt>
      <trkpt lat="44.70885" lon="7.03684">
        <ele>2195.3</ele>
        <time>2026-08-31T07:52:44Z</time>
      </trkpt>
      <trkpt lat="44.70888" lon="7.03679">
        <ele>2195.6</ele>
        <time>2026-08-31T07:52:49Z</time>
      </trkpt>
      <trkpt lat="44.70891" lon="7.03678">
        <ele>2196.7</ele>
        <time>2026-08-31T07:52:54Z</time>
      </trkpt>
      <trkpt lat="44.70892" lon="7.03677">
        <ele>2196.9</ele>
        <time>2026-08-31T07:53:00Z</time>
      </trkpt>
      <trkpt lat="44.70892" lon="7.03678">
        <ele>2197.1</ele>
        <time>2026-08-31T07:53:05Z</time>
      </trkpt>
      <trkpt lat="44.70891" lon="7.03681">
        <ele>2197.2</ele>
        <time>2026-08-31T07:53:10Z</time>
      </trkpt>
      <trkpt lat="44.70891" lon="7.03686">
        <ele>2198.2</ele>
        <time>2026-08-31T07:53:16Z</time>
      </trkpt>
      <trkpt lat="44.70891" lon="7.0369">
        <ele>2198.9</ele>
        <time>2026-08-31T07:53:21Z</time>
      </trkpt>
      <trkpt lat="44.7089" lon="7.03694">
        <ele>2199.3</ele>
        <time>2026-08-31T07:53:26Z</time>
      </trkpt>
      <trkpt lat="44.70888" lon="7.03699">
        <ele>2199.4</ele>
        <time>2026-08-31T07:53:32Z</time>
      </trkpt>
      <trkpt lat="44.70887" lon="7.03704">
        <ele>2199.9</ele>
        <time>2026-08-31T07:53:37Z</time>
      </trkpt>
      <trkpt lat="44.70885" lon="7.03707">
        <ele>2199.6</ele>
        <time>2026-08-31T07:53:42Z</time>
      </trkpt>
      <trkpt lat="44.70885" lon="7.03712">
        <ele>2200.5</ele>
        <time>2026-08-31T07:53:48Z</time>
      </trkpt>
      <trkpt lat="44.70883" lon="7.03715">
        <ele>2200.2</ele>
        <time>2026-08-31T07:53:53Z</time>
      </trkpt>
      <trkpt lat="44.70881" lon="7.03718">
        <ele>2199.9</ele>
        <time>2026-08-31T07:53:58Z</time>
      </trkpt>
      <trkpt lat="44.70878" lon="7.03721">
        <ele>2199.1</ele>
        <time>2026-08-31T07:54:04Z</time>
      </trkpt>
      <trkpt lat="44.70877" lon="7.03722">
        <ele>2198.8</ele>
        <time>2026-08-31T07:54:09Z</time>
      </trkpt>
      <trkpt lat="44.70876" lon="7.03724">
        <ele>2198.8</ele>
        <time>2026-08-31T07:54:14Z</time>
      </trkpt>
      <trkpt lat="44.70876" lon="7.03725">
        <ele>2198.9</ele>
        <time>2026-08-31T07:54:20Z</time>
      </trkpt>
      <trkpt lat="44.70876" lon="7.03725">
        <ele>2198.9</ele>
        <time>2026-08-31T07:54:25Z</time>
      </trkpt>
      <trkpt lat="44.70874" lon="7.03731">
        <ele>2199.1</ele>
        <time>2026-08-31T07:54:30Z</time>
      </trkpt>
      <trkpt lat="44.70873" lon="7.03735">
        <ele>2199.4</ele>
        <time>2026-08-31T07:54:36Z</time>
      </trkpt>
      <trkpt lat="44.70872" lon="7.03738">
        <ele>2199.5</ele>
        <time>2026-08-31T07:54:41Z</time>
      </trkpt>
      <trkpt lat="44.70871" lon="7.03739">
        <ele>2199.2</ele>
        <time>2026-08-31T07:54:46Z</time>
      </trkpt>
      <trkpt lat="44.7087" lon="7.0374">
        <ele>2198.9</ele>
        <time>2026-08-31T07:54:52Z</time>
      </trkpt>
      <trkpt lat="44.7087" lon="7.0374">
        <ele>2198.9</ele>
        <time>2026-08-31T07:54:57Z</time>
      </trkpt>
      <trkpt lat="44.70869" lon="7.03746">
        <ele>2199.6</ele>
        <time>2026-08-31T07:55:02Z</time>
      </trkpt>
      <trkpt lat="44.70869" lon="7.03746">
        <ele>2199.6</ele>
        <time>2026-08-31T07:55:08Z</time>
      </trkpt>
      <trkpt lat="44.70869" lon="7.03746">
        <ele>2199.6</ele>
        <time>2026-08-31T07:55:13Z</time>
      </trkpt>
      <trkpt lat="44.70869" lon="7.03746">
        <ele>2199.6</ele>
        <time>2026-08-31T07:55:18Z</time>
      </trkpt>
      <trkpt lat="44.70869" lon="7.03746">
        <ele>2199.6</ele>
        <time>2026-08-31T07:55:24Z</time>
      </trkpt>
      <trkpt lat="44.70869" lon="7.03746">
        <ele>2199.6</ele>
        <time>2026-08-31T07:55:29Z</time>
      </trkpt>
      <trkpt lat="44.70863" lon="7.03759">
        <ele>2200.9</ele>
        <time>2026-08-31T07:55:34Z</time>
      </trkpt>
      <trkpt lat="44.70861" lon="7.03762">
        <ele>2201.1</ele>
        <time>2026-08-31T07:55:40Z</time>
      </trkpt>
      <trkpt lat="44.70861" lon="7.03762">
        <ele>2201.1</ele>
        <time>2026-08-31T07:55:45Z</time>
      </trkpt>
      <trkpt lat="44.70861" lon="7.03762">
        <ele>2201.1</ele>
        <time>2026-08-31T07:55:50Z</time>
      </trkpt>
      <trkpt lat="44.70861" lon="7.03762">
        <ele>2201.1</ele>
        <time>2026-08-31T07:55:56Z</time>
      </trkpt>
      <trkpt lat="44.70861" lon="7.03762">
        <ele>2201.1</ele>
        <time>2026-08-31T07:56:01Z</time>
      </trkpt>
      <trkpt lat="44.70861" lon="7.03762">
        <ele>2201.1</ele>
        <time>2026-08-31T07:56:06Z</time>
      </trkpt>
      <trkpt lat="44.70861" lon="7.03762">
        <ele>2201.1</ele>
        <time>2026-08-31T07:56:12Z</time>
      </trkpt>
      <trkpt lat="44.70861" lon="7.03762">
        <ele>2201.1</ele>
        <time>2026-08-31T07:56:17Z</time>
      </trkpt>
      <trkpt lat="44.70861" lon="7.03762">
        <ele>2201.1</ele>
        <time>2026-08-31T07:56:22Z</time>
      </trkpt>
      <trkpt lat="44.70861" lon="7.03762">
        <ele>2201.1</ele>
        <time>2026-08-31T07:56:28Z</time>
      </trkpt>
      <trkpt lat="44.70861" lon="7.03762">
        <ele>2201.1</ele>
        <time>2026-08-31T07:56:33Z</time>
      </trkpt>
      <trkpt lat="44.70861" lon="7.03762">
        <ele>2201.1</ele>
        <time>2026-08-31T07:56:38Z</time>
      </trkpt>
      <trkpt lat="44.70861" lon="7.03762">
        <ele>2201.1</ele>
        <time>2026-08-31T07:56:44Z</time>
      </trkpt>
      <trkpt lat="44.70861" lon="7.03762">
        <ele>2201.1</ele>
        <time>2026-08-31T07:56:49Z</time>
      </trkpt>
      <trkpt lat="44.70861" lon="7.03762">
        <ele>2201.1</ele>
        <time>2026-08-31T07:56:54Z</time>
      </trkpt>
      <trkpt lat="44.70861" lon="7.03762">
        <ele>2201.1</ele>
        <time>2026-08-31T07:57:00Z</time>
      </trkpt>
      <trkpt lat="44.70861" lon="7.03762">
        <ele>2201.1</ele>
        <time>2026-08-31T07:57:05Z</time>
      </trkpt>
      <trkpt lat="44.70852" lon="7.03773">
        <ele>2201.2</ele>
        <time>2026-08-31T07:57:10Z</time>
      </trkpt>
      <trkpt lat="44.70852" lon="7.03773">
        <ele>2201.2</ele>
        <time>2026-08-31T07:57:16Z</time>
      </trkpt>
      <trkpt lat="44.70851" lon="7.03777">
        <ele>2202.3</ele>
        <time>2026-08-31T07:57:21Z</time>
      </trkpt>
      <trkpt lat="44.70855" lon="7.03782">
        <ele>2206</ele>
        <time>2026-08-31T07:57:26Z</time>
      </trkpt>
      <trkpt lat="44.70853" lon="7.03792">
        <ele>2208.9</ele>
        <time>2026-08-31T07:57:32Z</time>
      </trkpt>
      <trkpt lat="44.70849" lon="7.038">
        <ele>2210.3</ele>
        <time>2026-08-31T07:57:37Z</time>
      </trkpt>
      <trkpt lat="44.70847" lon="7.03806">
        <ele>2211.7</ele>
        <time>2026-08-31T07:57:42Z</time>
      </trkpt>
      <trkpt lat="44.70843" lon="7.03818">
        <ele>2214.8</ele>
        <time>2026-08-31T07:57:48Z</time>
      </trkpt>
      <trkpt lat="44.70843" lon="7.03827">
        <ele>2218.3</ele>
        <time>2026-08-31T07:57:53Z</time>
      </trkpt>
      <trkpt lat="44.70844" lon="7.03835">
        <ele>2221.6</ele>
        <time>2026-08-31T07:57:58Z</time>
      </trkpt>
      <trkpt lat="44.70841" lon="7.03841">
        <ele>2222.4</ele>
        <time>2026-08-31T07:58:04Z</time>
      </trkpt>
      <trkpt lat="44.70837" lon="7.03846">
        <ele>2222.5</ele>
        <time>2026-08-31T07:58:09Z</time>
      </trkpt>
      <trkpt lat="44.70834" lon="7.03853">
        <ele>2223.6</ele>
        <time>2026-08-31T07:58:14Z</time>
      </trkpt>
      <trkpt lat="44.70833" lon="7.03861">
        <ele>2225.8</ele>
        <time>2026-08-31T07:58:20Z</time>
      </trkpt>
      <trkpt lat="44.7083" lon="7.0387">
        <ele>2227.7</ele>
        <time>2026-08-31T07:58:25Z</time>
      </trkpt>
      <trkpt lat="44.70825" lon="7.03876">
        <ele>2227.9</ele>
        <time>2026-08-31T07:58:30Z</time>
      </trkpt>
      <trkpt lat="44.70821" lon="7.03882">
        <ele>2228.5</ele>
        <time>2026-08-31T07:58:36Z</time>
      </trkpt>
      <trkpt lat="44.70817" lon="7.03887">
        <ele>2228.8</ele>
        <time>2026-08-31T07:58:41Z</time>
      </trkpt>
      <trkpt lat="44.70813" lon="7.03893">
        <ele>2229.5</ele>
        <time>2026-08-31T07:58:46Z</time>
      </trkpt>
      <trkpt lat="44.70808" lon="7.03897">
        <ele>2229.2</ele>
        <time>2026-08-31T07:58:52Z</time>
      </trkpt>
      <trkpt lat="44.70806" lon="7.039">
        <ele>2229.6</ele>
        <time>2026-08-31T07:58:57Z</time>
      </trkpt>
      <trkpt lat="44.70804" lon="7.03903">
        <ele>2230</ele>
        <time>2026-08-31T07:59:02Z</time>
      </trkpt>
      <trkpt lat="44.708" lon="7.03908">
        <ele>2230.5</ele>
        <time>2026-08-31T07:59:08Z</time>
      </trkpt>
      <trkpt lat="44.70799" lon="7.03909">
        <ele>2230.5</ele>
        <time>2026-08-31T07:59:13Z</time>
      </trkpt>
      <trkpt lat="44.70799" lon="7.03909">
        <ele>2230.5</ele>
        <time>2026-08-31T07:59:18Z</time>
      </trkpt>
      <trkpt lat="44.70796" lon="7.03916">
        <ele>2232.1</ele>
        <time>2026-08-31T07:59:24Z</time>
      </trkpt>
      <trkpt lat="44.70794" lon="7.03921">
        <ele>2232.8</ele>
        <time>2026-08-31T07:59:29Z</time>
      </trkpt>
      <trkpt lat="44.70794" lon="7.03925">
        <ele>2233.8</ele>
        <time>2026-08-31T07:59:34Z</time>
      </trkpt>
      <trkpt lat="44.70793" lon="7.03928">
        <ele>2234.2</ele>
        <time>2026-08-31T07:59:40Z</time>
      </trkpt>
      <trkpt lat="44.70791" lon="7.03931">
        <ele>2234.3</ele>
        <time>2026-08-31T07:59:45Z</time>
      </trkpt>
      <trkpt lat="44.7079" lon="7.03936">
        <ele>2235.2</ele>
        <time>2026-08-31T07:59:50Z</time>
      </trkpt>
      <trkpt lat="44.70789" lon="7.0394">
        <ele>2235.9</ele>
        <time>2026-08-31T07:59:56Z</time>
      </trkpt>
      <trkpt lat="44.70788" lon="7.03942">
        <ele>2236</ele>
        <time>2026-08-31T08:00:01Z</time>
      </trkpt>
      <trkpt lat="44.70787" lon="7.03947">
        <ele>2236.9</ele>
        <time>2026-08-31T08:00:06Z</time>
      </trkpt>
      <trkpt lat="44.70785" lon="7.03951">
        <ele>2237.3</ele>
        <time>2026-08-31T08:00:12Z</time>
      </trkpt>
      <trkpt lat="44.70783" lon="7.03954">
        <ele>2237.3</ele>
        <time>2026-08-31T08:00:17Z</time>
      </trkpt>
      <trkpt lat="44.70781" lon="7.03956">
        <ele>2237.2</ele>
        <time>2026-08-31T08:00:22Z</time>
      </trkpt>
      <trkpt lat="44.70778" lon="7.03957">
        <ele>2236.4</ele>
        <time>2026-08-31T08:00:28Z</time>
      </trkpt>
      <trkpt lat="44.70776" lon="7.03959">
        <ele>2236.2</ele>
        <time>2026-08-31T08:00:33Z</time>
      </trkpt>
      <trkpt lat="44.70774" lon="7.03962">
        <ele>2236.3</ele>
        <time>2026-08-31T08:00:38Z</time>
      </trkpt>
      <trkpt lat="44.70774" lon="7.03962">
        <ele>2236.3</ele>
        <time>2026-08-31T08:00:44Z</time>
      </trkpt>
      <trkpt lat="44.70774" lon="7.03962">
        <ele>2236.3</ele>
        <time>2026-08-31T08:00:49Z</time>
      </trkpt>
      <trkpt lat="44.70774" lon="7.03965">
        <ele>2237</ele>
        <time>2026-08-31T08:00:54Z</time>
      </trkpt>
      <trkpt lat="44.70774" lon="7.0397">
        <ele>2238.2</ele>
        <time>2026-08-31T08:01:00Z</time>
      </trkpt>
      <trkpt lat="44.70774" lon="7.03973">
        <ele>2238.9</ele>
        <time>2026-08-31T08:01:05Z</time>
      </trkpt>
      <trkpt lat="44.70771" lon="7.03976">
        <ele>2238.6</ele>
        <time>2026-08-31T08:01:10Z</time>
      </trkpt>
      <trkpt lat="44.70768" lon="7.0398">
        <ele>2238.5</ele>
        <time>2026-08-31T08:01:16Z</time>
      </trkpt>
      <trkpt lat="44.70767" lon="7.03982">
        <ele>2238.7</ele>
        <time>2026-08-31T08:01:21Z</time>
      </trkpt>
      <trkpt lat="44.70767" lon="7.03986">
        <ele>2239.6</ele>
        <time>2026-08-31T08:01:26Z</time>
      </trkpt>
      <trkpt lat="44.70767" lon="7.0399">
        <ele>2240.6</ele>
        <time>2026-08-31T08:01:32Z</time>
      </trkpt>
      <trkpt lat="44.70766" lon="7.03994">
        <ele>2241.2</ele>
        <time>2026-08-31T08:01:37Z</time>
      </trkpt>
      <trkpt lat="44.70765" lon="7.03998">
        <ele>2241.8</ele>
        <time>2026-08-31T08:01:42Z</time>
      </trkpt>
      <trkpt lat="44.70763" lon="7.04003">
        <ele>2242.1</ele>
        <time>2026-08-31T08:01:48Z</time>
      </trkpt>
      <trkpt lat="44.70762" lon="7.04008">
        <ele>2242.6</ele>
        <time>2026-08-31T08:01:53Z</time>
      </trkpt>
      <trkpt lat="44.70762" lon="7.04011">
        <ele>2243.2</ele>
        <time>2026-08-31T08:01:58Z</time>
      </trkpt>
      <trkpt lat="44.7076" lon="7.04016">
        <ele>2243.4</ele>
        <time>2026-08-31T08:02:04Z</time>
      </trkpt>
      <trkpt lat="44.7076" lon="7.0402">
        <ele>2244.1</ele>
        <time>2026-08-31T08:02:09Z</time>
      </trkpt>
      <trkpt lat="44.70761" lon="7.04022">
        <ele>2244.9</ele>
        <time>2026-08-31T08:02:14Z</time>
      </trkpt>
      <trkpt lat="44.70761" lon="7.04022">
        <ele>2244.9</ele>
        <time>2026-08-31T08:02:20Z</time>
      </trkpt>
      <trkpt lat="44.70761" lon="7.04022">
        <ele>2244.9</ele>
        <time>2026-08-31T08:02:25Z</time>
      </trkpt>
      <trkpt lat="44.70761" lon="7.04022">
        <ele>2244.9</ele>
        <time>2026-08-31T08:02:30Z</time>
      </trkpt>
      <trkpt lat="44.70762" lon="7.04024">
        <ele>2245.6</ele>
        <time>2026-08-31T08:02:36Z</time>
      </trkpt>
      <trkpt lat="44.70762" lon="7.04024">
        <ele>2245.6</ele>
        <time>2026-08-31T08:02:41Z</time>
      </trkpt>
      <trkpt lat="44.70766" lon="7.0403">
        <ele>2248.1</ele>
        <time>2026-08-31T08:02:46Z</time>
      </trkpt>
      <trkpt lat="44.70768" lon="7.04035">
        <ele>2249.7</ele>
        <time>2026-08-31T08:02:52Z</time>
      </trkpt>
      <trkpt lat="44.70771" lon="7.04038">
        <ele>2251.4</ele>
        <time>2026-08-31T08:02:57Z</time>
      </trkpt>
      <trkpt lat="44.70774" lon="7.0404">
        <ele>2252.8</ele>
        <time>2026-08-31T08:03:02Z</time>
      </trkpt>
      <trkpt lat="44.70778" lon="7.0404">
        <ele>2254.3</ele>
        <time>2026-08-31T08:03:08Z</time>
      </trkpt>
      <trkpt lat="44.7078" lon="7.04042">
        <ele>2255.4</ele>
        <time>2026-08-31T08:03:13Z</time>
      </trkpt>
      <trkpt lat="44.70783" lon="7.04042">
        <ele>2256.4</ele>
        <time>2026-08-31T08:03:18Z</time>
      </trkpt>
      <trkpt lat="44.70785" lon="7.04044">
        <ele>2257.5</ele>
        <time>2026-08-31T08:03:24Z</time>
      </trkpt>
      <trkpt lat="44.70787" lon="7.04046">
        <ele>2258.6</ele>
        <time>2026-08-31T08:03:29Z</time>
      </trkpt>
      <trkpt lat="44.70788" lon="7.04049">
        <ele>2259.6</ele>
        <time>2026-08-31T08:03:34Z</time>
      </trkpt>
      <trkpt lat="44.70788" lon="7.04049">
        <ele>2259.6</ele>
        <time>2026-08-31T08:03:40Z</time>
      </trkpt>
      <trkpt lat="44.70788" lon="7.04049">
        <ele>2259.6</ele>
        <time>2026-08-31T08:03:45Z</time>
      </trkpt>
      <trkpt lat="44.70787" lon="7.04052">
        <ele>2259.8</ele>
        <time>2026-08-31T08:03:50Z</time>
      </trkpt>
      <trkpt lat="44.70787" lon="7.04056">
        <ele>2260.6</ele>
        <time>2026-08-31T08:03:56Z</time>
      </trkpt>
      <trkpt lat="44.70787" lon="7.04057">
        <ele>2260.7</ele>
        <time>2026-08-31T08:04:01Z</time>
      </trkpt>
      <trkpt lat="44.70787" lon="7.04057">
        <ele>2260.7</ele>
        <time>2026-08-31T08:04:06Z</time>
      </trkpt>
      <trkpt lat="44.70789" lon="7.04062">
        <ele>2262.4</ele>
        <time>2026-08-31T08:04:12Z</time>
      </trkpt>
      <trkpt lat="44.70788" lon="7.04066">
        <ele>2262.8</ele>
        <time>2026-08-31T08:04:17Z</time>
      </trkpt>
      <trkpt lat="44.70787" lon="7.04071">
        <ele>2263.4</ele>
        <time>2026-08-31T08:04:22Z</time>
      </trkpt>
      <trkpt lat="44.70784" lon="7.04077">
        <ele>2263.4</ele>
        <time>2026-08-31T08:04:28Z</time>
      </trkpt>
      <trkpt lat="44.70782" lon="7.04081">
        <ele>2263.5</ele>
        <time>2026-08-31T08:04:33Z</time>
      </trkpt>
      <trkpt lat="44.70781" lon="7.04086">
        <ele>2264.1</ele>
        <time>2026-08-31T08:04:38Z</time>
      </trkpt>
      <trkpt lat="44.70781" lon="7.04091">
        <ele>2265.1</ele>
        <time>2026-08-31T08:04:44Z</time>
      </trkpt>
      <trkpt lat="44.70779" lon="7.04095">
        <ele>2265.1</ele>
        <time>2026-08-31T08:04:49Z</time>
      </trkpt>
      <trkpt lat="44.70779" lon="7.04096">
        <ele>2265.3</ele>
        <time>2026-08-31T08:04:54Z</time>
      </trkpt>
      <trkpt lat="44.70779" lon="7.04098">
        <ele>2265.7</ele>
        <time>2026-08-31T08:05:00Z</time>
      </trkpt>
      <trkpt lat="44.70779" lon="7.04102">
        <ele>2266.5</ele>
        <time>2026-08-31T08:05:05Z</time>
      </trkpt>
      <trkpt lat="44.70779" lon="7.04102">
        <ele>2266.5</ele>
        <time>2026-08-31T08:05:10Z</time>
      </trkpt>
      <trkpt lat="44.7078" lon="7.04106">
        <ele>2267.7</ele>
        <time>2026-08-31T08:05:16Z</time>
      </trkpt>
      <trkpt lat="44.70781" lon="7.04109">
        <ele>2268.6</ele>
        <time>2026-08-31T08:05:21Z</time>
      </trkpt>
      <trkpt lat="44.70781" lon="7.04113">
        <ele>2269.4</ele>
        <time>2026-08-31T08:05:26Z</time>
      </trkpt>
      <trkpt lat="44.7078" lon="7.04119">
        <ele>2270.2</ele>
        <time>2026-08-31T08:05:32Z</time>
      </trkpt>
      <trkpt lat="44.70781" lon="7.04122">
        <ele>2271.2</ele>
        <time>2026-08-31T08:05:37Z</time>
      </trkpt>
      <trkpt lat="44.70783" lon="7.04126">
        <ele>2272.7</ele>
        <time>2026-08-31T08:05:42Z</time>
      </trkpt>
      <trkpt lat="44.70784" lon="7.04131">
        <ele>2274</ele>
        <time>2026-08-31T08:05:48Z</time>
      </trkpt>
      <trkpt lat="44.70784" lon="7.04135">
        <ele>2274.8</ele>
        <time>2026-08-31T08:05:53Z</time>
      </trkpt>
      <trkpt lat="44.70784" lon="7.04139">
        <ele>2275.6</ele>
        <time>2026-08-31T08:05:58Z</time>
      </trkpt>
      <trkpt lat="44.70786" lon="7.04144">
        <ele>2277.2</ele>
        <time>2026-08-31T08:06:04Z</time>
      </trkpt>
      <trkpt lat="44.70786" lon="7.04149">
        <ele>2278.2</ele>
        <time>2026-08-31T08:06:09Z</time>
      </trkpt>
      <trkpt lat="44.70786" lon="7.04153">
        <ele>2279</ele>
        <time>2026-08-31T08:06:14Z</time>
      </trkpt>
      <trkpt lat="44.70786" lon="7.04156">
        <ele>2279.6</ele>
        <time>2026-08-31T08:06:20Z</time>
      </trkpt>
      <trkpt lat="44.70786" lon="7.04156">
        <ele>2279.6</ele>
        <time>2026-08-31T08:06:25Z</time>
      </trkpt>
      <trkpt lat="44.70786" lon="7.04156">
        <ele>2279.6</ele>
        <time>2026-08-31T08:06:30Z</time>
      </trkpt>
      <trkpt lat="44.70786" lon="7.04156">
        <ele>2279.6</ele>
        <time>2026-08-31T08:06:36Z</time>
      </trkpt>
      <trkpt lat="44.70786" lon="7.04156">
        <ele>2279.6</ele>
        <time>2026-08-31T08:06:41Z</time>
      </trkpt>
      <trkpt lat="44.70786" lon="7.04156">
        <ele>2279.6</ele>
        <time>2026-08-31T08:06:46Z</time>
      </trkpt>
      <trkpt lat="44.70786" lon="7.04156">
        <ele>2279.6</ele>
        <time>2026-08-31T08:06:52Z</time>
      </trkpt>
      <trkpt lat="44.70786" lon="7.04156">
        <ele>2279.6</ele>
        <time>2026-08-31T08:06:57Z</time>
      </trkpt>
      <trkpt lat="44.70786" lon="7.04156">
        <ele>2279.6</ele>
        <time>2026-08-31T08:07:02Z</time>
      </trkpt>
      <trkpt lat="44.70785" lon="7.04164">
        <ele>2280.8</ele>
        <time>2026-08-31T08:07:08Z</time>
      </trkpt>
      <trkpt lat="44.70783" lon="7.04169">
        <ele>2281.3</ele>
        <time>2026-08-31T08:07:13Z</time>
      </trkpt>
      <trkpt lat="44.70782" lon="7.04172">
        <ele>2281.7</ele>
        <time>2026-08-31T08:07:18Z</time>
      </trkpt>
      <trkpt lat="44.70782" lon="7.04177">
        <ele>2282.9</ele>
        <time>2026-08-31T08:07:24Z</time>
      </trkpt>
      <trkpt lat="44.70782" lon="7.04181">
        <ele>2283.8</ele>
        <time>2026-08-31T08:07:29Z</time>
      </trkpt>
      <trkpt lat="44.70783" lon="7.04185">
        <ele>2285.1</ele>
        <time>2026-08-31T08:07:34Z</time>
      </trkpt>
      <trkpt lat="44.70784" lon="7.04191">
        <ele>2286.8</ele>
        <time>2026-08-31T08:07:40Z</time>
      </trkpt>
      <trkpt lat="44.70787" lon="7.04193">
        <ele>2288.2</ele>
        <time>2026-08-31T08:07:45Z</time>
      </trkpt>
      <trkpt lat="44.70787" lon="7.04194">
        <ele>2288.5</ele>
        <time>2026-08-31T08:07:50Z</time>
      </trkpt>
      <trkpt lat="44.70788" lon="7.04193">
        <ele>2288.5</ele>
        <time>2026-08-31T08:07:56Z</time>
      </trkpt>
      <trkpt lat="44.70788" lon="7.04193">
        <ele>2288.5</ele>
        <time>2026-08-31T08:08:01Z</time>
      </trkpt>
      <trkpt lat="44.70788" lon="7.04193">
        <ele>2288.5</ele>
        <time>2026-08-31T08:08:06Z</time>
      </trkpt>
      <trkpt lat="44.70788" lon="7.04193">
        <ele>2288.5</ele>
        <time>2026-08-31T08:08:12Z</time>
      </trkpt>
      <trkpt lat="44.70788" lon="7.04193">
        <ele>2288.5</ele>
        <time>2026-08-31T08:08:17Z</time>
      </trkpt>
      <trkpt lat="44.70788" lon="7.04193">
        <ele>2288.5</ele>
        <time>2026-08-31T08:08:22Z</time>
      </trkpt>
      <trkpt lat="44.70788" lon="7.04193">
        <ele>2288.5</ele>
        <time>2026-08-31T08:08:28Z</time>
      </trkpt>
      <trkpt lat="44.70793" lon="7.04204">
        <ele>2292.6</ele>
        <time>2026-08-31T08:08:33Z</time>
      </trkpt>
      <trkpt lat="44.70793" lon="7.04204">
        <ele>2292.6</ele>
        <time>2026-08-31T08:08:38Z</time>
      </trkpt>
      <trkpt lat="44.70793" lon="7.04204">
        <ele>2292.6</ele>
        <time>2026-08-31T08:08:44Z</time>
      </trkpt>
      <trkpt lat="44.70797" lon="7.04212">
        <ele>2295.7</ele>
        <time>2026-08-31T08:08:49Z</time>
      </trkpt>
      <trkpt lat="44.708" lon="7.04215">
        <ele>2297.2</ele>
        <time>2026-08-31T08:08:54Z</time>
      </trkpt>
      <trkpt lat="44.70803" lon="7.04218">
        <ele>2298.8</ele>
        <time>2026-08-31T08:09:00Z</time>
      </trkpt>
      <trkpt lat="44.70803" lon="7.04219">
        <ele>2299</ele>
        <time>2026-08-31T08:09:05Z</time>
      </trkpt>
      <trkpt lat="44.70803" lon="7.04219">
        <ele>2299</ele>
        <time>2026-08-31T08:09:10Z</time>
      </trkpt>
      <trkpt lat="44.70803" lon="7.04219">
        <ele>2299</ele>
        <time>2026-08-31T08:09:16Z</time>
      </trkpt>
      <trkpt lat="44.70803" lon="7.04219">
        <ele>2299</ele>
        <time>2026-08-31T08:09:21Z</time>
      </trkpt>
      <trkpt lat="44.70803" lon="7.04219">
        <ele>2299</ele>
        <time>2026-08-31T08:09:26Z</time>
      </trkpt>
      <trkpt lat="44.70803" lon="7.04219">
        <ele>2299</ele>
        <time>2026-08-31T08:09:32Z</time>
      </trkpt>
      <trkpt lat="44.70803" lon="7.04219">
        <ele>2299</ele>
        <time>2026-08-31T08:09:37Z</time>
      </trkpt>
      <trkpt lat="44.70803" lon="7.04219">
        <ele>2299</ele>
        <time>2026-08-31T08:09:42Z</time>
      </trkpt>
      <trkpt lat="44.70803" lon="7.04219">
        <ele>2299</ele>
        <time>2026-08-31T08:09:48Z</time>
      </trkpt>
      <trkpt lat="44.70803" lon="7.04219">
        <ele>2299</ele>
        <time>2026-08-31T08:09:53Z</time>
      </trkpt>
      <trkpt lat="44.70803" lon="7.04219">
        <ele>2299</ele>
        <time>2026-08-31T08:09:58Z</time>
      </trkpt>
      <trkpt lat="44.70803" lon="7.04219">
        <ele>2299</ele>
        <time>2026-08-31T08:10:04Z</time>
      </trkpt>
      <trkpt lat="44.70803" lon="7.04219">
        <ele>2299</ele>
        <time>2026-08-31T08:10:09Z</time>
      </trkpt>
      <trkpt lat="44.70803" lon="7.04224">
        <ele>2300.1</ele>
        <time>2026-08-31T08:10:14Z</time>
      </trkpt>
      <trkpt lat="44.70803" lon="7.04228">
        <ele>2301</ele>
        <time>2026-08-31T08:10:20Z</time>
      </trkpt>
      <trkpt lat="44.708" lon="7.04232">
        <ele>2301.1</ele>
        <time>2026-08-31T08:10:25Z</time>
      </trkpt>
      <trkpt lat="44.70799" lon="7.04237">
        <ele>2302</ele>
        <time>2026-08-31T08:10:30Z</time>
      </trkpt>
      <trkpt lat="44.70796" lon="7.04241">
        <ele>2302.1</ele>
        <time>2026-08-31T08:10:36Z</time>
      </trkpt>
      <trkpt lat="44.70793" lon="7.04243">
        <ele>2301.7</ele>
        <time>2026-08-31T08:10:41Z</time>
      </trkpt>
      <trkpt lat="44.70792" lon="7.04249">
        <ele>2302.9</ele>
        <time>2026-08-31T08:10:46Z</time>
      </trkpt>
      <trkpt lat="44.70791" lon="7.04254">
        <ele>2303.6</ele>
        <time>2026-08-31T08:10:52Z</time>
      </trkpt>
      <trkpt lat="44.70791" lon="7.04258">
        <ele>2304.4</ele>
        <time>2026-08-31T08:10:57Z</time>
      </trkpt>
      <trkpt lat="44.70791" lon="7.04263">
        <ele>2305.3</ele>
        <time>2026-08-31T08:11:02Z</time>
      </trkpt>
      <trkpt lat="44.70789" lon="7.04269">
        <ele>2305.9</ele>
        <time>2026-08-31T08:11:08Z</time>
      </trkpt>
      <trkpt lat="44.70788" lon="7.04272">
        <ele>2306.3</ele>
        <time>2026-08-31T08:11:13Z</time>
      </trkpt>
      <trkpt lat="44.70788" lon="7.04274">
        <ele>2306.6</ele>
        <time>2026-08-31T08:11:18Z</time>
      </trkpt>
      <trkpt lat="44.70788" lon="7.04274">
        <ele>2306.6</ele>
        <time>2026-08-31T08:11:24Z</time>
      </trkpt>
      <trkpt lat="44.70787" lon="7.0428">
        <ele>2307.5</ele>
        <time>2026-08-31T08:11:29Z</time>
      </trkpt>
      <trkpt lat="44.70787" lon="7.04284">
        <ele>2308.3</ele>
        <time>2026-08-31T08:11:34Z</time>
      </trkpt>
      <trkpt lat="44.70785" lon="7.04289">
        <ele>2308.7</ele>
        <time>2026-08-31T08:11:40Z</time>
      </trkpt>
      <trkpt lat="44.70783" lon="7.04293">
        <ele>2309</ele>
        <time>2026-08-31T08:11:45Z</time>
      </trkpt>
      <trkpt lat="44.70783" lon="7.04296">
        <ele>2309.5</ele>
        <time>2026-08-31T08:11:50Z</time>
      </trkpt>
      <trkpt lat="44.70782" lon="7.04299">
        <ele>2309.9</ele>
        <time>2026-08-31T08:11:56Z</time>
      </trkpt>
      <trkpt lat="44.70782" lon="7.04302">
        <ele>2310.4</ele>
        <time>2026-08-31T08:12:01Z</time>
      </trkpt>
      <trkpt lat="44.70782" lon="7.04304">
        <ele>2310.8</ele>
        <time>2026-08-31T08:12:06Z</time>
      </trkpt>
      <trkpt lat="44.70781" lon="7.04304">
        <ele>2310.6</ele>
        <time>2026-08-31T08:12:12Z</time>
      </trkpt>
      <trkpt lat="44.70781" lon="7.04304">
        <ele>2310.6</ele>
        <time>2026-08-31T08:12:17Z</time>
      </trkpt>
      <trkpt lat="44.70781" lon="7.04304">
        <ele>2310.6</ele>
        <time>2026-08-31T08:12:22Z</time>
      </trkpt>
      <trkpt lat="44.70781" lon="7.04311">
        <ele>2311.9</ele>
        <time>2026-08-31T08:12:28Z</time>
      </trkpt>
      <trkpt lat="44.7078" lon="7.04316">
        <ele>2312.6</ele>
        <time>2026-08-31T08:12:33Z</time>
      </trkpt>
      <trkpt lat="44.7078" lon="7.0432">
        <ele>2313.4</ele>
        <time>2026-08-31T08:12:38Z</time>
      </trkpt>
      <trkpt lat="44.70779" lon="7.04325">
        <ele>2314.1</ele>
        <time>2026-08-31T08:12:44Z</time>
      </trkpt>
      <trkpt lat="44.70778" lon="7.0433">
        <ele>2314.8</ele>
        <time>2026-08-31T08:12:49Z</time>
      </trkpt>
      <trkpt lat="44.70778" lon="7.04331">
        <ele>2314.9</ele>
        <time>2026-08-31T08:12:54Z</time>
      </trkpt>
      <trkpt lat="44.70778" lon="7.04332">
        <ele>2315.1</ele>
        <time>2026-08-31T08:13:00Z</time>
      </trkpt>
      <trkpt lat="44.70776" lon="7.04335">
        <ele>2315.1</ele>
        <time>2026-08-31T08:13:05Z</time>
      </trkpt>
      <trkpt lat="44.70776" lon="7.04339">
        <ele>2315.8</ele>
        <time>2026-08-31T08:13:10Z</time>
      </trkpt>
      <trkpt lat="44.70776" lon="7.04343">
        <ele>2316.4</ele>
        <time>2026-08-31T08:13:16Z</time>
      </trkpt>
      <trkpt lat="44.70774" lon="7.04345">
        <ele>2316.2</ele>
        <time>2026-08-31T08:13:21Z</time>
      </trkpt>
      <trkpt lat="44.70772" lon="7.04349">
        <ele>2316.4</ele>
        <time>2026-08-31T08:13:26Z</time>
      </trkpt>
      <trkpt lat="44.70772" lon="7.04355">
        <ele>2317.3</ele>
        <time>2026-08-31T08:13:32Z</time>
      </trkpt>
      <trkpt lat="44.70773" lon="7.04359">
        <ele>2318.2</ele>
        <time>2026-08-31T08:13:37Z</time>
      </trkpt>
      <trkpt lat="44.70771" lon="7.04362">
        <ele>2318.2</ele>
        <time>2026-08-31T08:13:42Z</time>
      </trkpt>
      <trkpt lat="44.70769" lon="7.04367">
        <ele>2318.5</ele>
        <time>2026-08-31T08:13:48Z</time>
      </trkpt>
      <trkpt lat="44.70769" lon="7.0437">
        <ele>2318.9</ele>
        <time>2026-08-31T08:13:53Z</time>
      </trkpt>
      <trkpt lat="44.70768" lon="7.04373">
        <ele>2319.1</ele>
        <time>2026-08-31T08:13:58Z</time>
      </trkpt>
      <trkpt lat="44.70766" lon="7.04376">
        <ele>2319.1</ele>
        <time>2026-08-31T08:14:04Z</time>
      </trkpt>
      <trkpt lat="44.70766" lon="7.04377">
        <ele>2319.2</ele>
        <time>2026-08-31T08:14:09Z</time>
      </trkpt>
      <trkpt lat="44.70766" lon="7.04377">
        <ele>2319.2</ele>
        <time>2026-08-31T08:14:14Z</time>
      </trkpt>
      <trkpt lat="44.70765" lon="7.04379">
        <ele>2319.3</ele>
        <time>2026-08-31T08:14:20Z</time>
      </trkpt>
      <trkpt lat="44.70762" lon="7.04382">
        <ele>2318.9</ele>
        <time>2026-08-31T08:14:25Z</time>
      </trkpt>
      <trkpt lat="44.70761" lon="7.04385">
        <ele>2319.1</ele>
        <time>2026-08-31T08:14:30Z</time>
      </trkpt>
      <trkpt lat="44.70759" lon="7.04388">
        <ele>2319</ele>
        <time>2026-08-31T08:14:36Z</time>
      </trkpt>
      <trkpt lat="44.70759" lon="7.0439">
        <ele>2319.4</ele>
        <time>2026-08-31T08:14:41Z</time>
      </trkpt>
      <trkpt lat="44.70758" lon="7.04392">
        <ele>2319.4</ele>
        <time>2026-08-31T08:14:46Z</time>
      </trkpt>
      <trkpt lat="44.70757" lon="7.04395">
        <ele>2319.6</ele>
        <time>2026-08-31T08:14:52Z</time>
      </trkpt>
      <trkpt lat="44.70757" lon="7.04396">
        <ele>2319.8</ele>
        <time>2026-08-31T08:14:57Z</time>
      </trkpt>
      <trkpt lat="44.70756" lon="7.04399">
        <ele>2319.9</ele>
        <time>2026-08-31T08:15:02Z</time>
      </trkpt>
      <trkpt lat="44.70755" lon="7.04403">
        <ele>2320.3</ele>
        <time>2026-08-31T08:15:08Z</time>
      </trkpt>
      <trkpt lat="44.70755" lon="7.04405">
        <ele>2320.6</ele>
        <time>2026-08-31T08:15:13Z</time>
      </trkpt>
      <trkpt lat="44.70754" lon="7.04409">
        <ele>2320.9</ele>
        <time>2026-08-31T08:15:18Z</time>
      </trkpt>
      <trkpt lat="44.70754" lon="7.04411">
        <ele>2321.3</ele>
        <time>2026-08-31T08:15:24Z</time>
      </trkpt>
      <trkpt lat="44.70753" lon="7.04414">
        <ele>2321.4</ele>
        <time>2026-08-31T08:15:29Z</time>
      </trkpt>
      <trkpt lat="44.70753" lon="7.04416">
        <ele>2321.8</ele>
        <time>2026-08-31T08:15:34Z</time>
      </trkpt>
      <trkpt lat="44.70752" lon="7.0442">
        <ele>2322.2</ele>
        <time>2026-08-31T08:15:40Z</time>
      </trkpt>
      <trkpt lat="44.70753" lon="7.04424">
        <ele>2323.2</ele>
        <time>2026-08-31T08:15:45Z</time>
      </trkpt>
      <trkpt lat="44.70751" lon="7.04427">
        <ele>2323.2</ele>
        <time>2026-08-31T08:15:50Z</time>
      </trkpt>
      <trkpt lat="44.7075" lon="7.0443">
        <ele>2323.4</ele>
        <time>2026-08-31T08:15:56Z</time>
      </trkpt>
      <trkpt lat="44.7075" lon="7.04433">
        <ele>2323.9</ele>
        <time>2026-08-31T08:16:01Z</time>
      </trkpt>
      <trkpt lat="44.70749" lon="7.04435">
        <ele>2323.9</ele>
        <time>2026-08-31T08:16:06Z</time>
      </trkpt>
      <trkpt lat="44.70747" lon="7.04439">
        <ele>2323.7</ele>
        <time>2026-08-31T08:16:12Z</time>
      </trkpt>
      <trkpt lat="44.70746" lon="7.04441">
        <ele>2323.6</ele>
        <time>2026-08-31T08:16:17Z</time>
      </trkpt>
      <trkpt lat="44.70746" lon="7.04443">
        <ele>2324</ele>
        <time>2026-08-31T08:16:22Z</time>
      </trkpt>
      <trkpt lat="44.70743" lon="7.04447">
        <ele>2323.4</ele>
        <time>2026-08-31T08:16:28Z</time>
      </trkpt>
      <trkpt lat="44.70743" lon="7.04448">
        <ele>2323.5</ele>
        <time>2026-08-31T08:16:33Z</time>
      </trkpt>
      <trkpt lat="44.70743" lon="7.04448">
        <ele>2323.5</ele>
        <time>2026-08-31T08:16:38Z</time>
      </trkpt>
      <trkpt lat="44.70743" lon="7.04448">
        <ele>2323.5</ele>
        <time>2026-08-31T08:16:44Z</time>
      </trkpt>
      <trkpt lat="44.70742" lon="7.04451">
        <ele>2323.6</ele>
        <time>2026-08-31T08:16:49Z</time>
      </trkpt>
      <trkpt lat="44.70742" lon="7.04455">
        <ele>2324.3</ele>
        <time>2026-08-31T08:16:54Z</time>
      </trkpt>
      <trkpt lat="44.70741" lon="7.04461">
        <ele>2325</ele>
        <time>2026-08-31T08:17:00Z</time>
      </trkpt>
      <trkpt lat="44.70741" lon="7.04464">
        <ele>2325.5</ele>
        <time>2026-08-31T08:17:05Z</time>
      </trkpt>
      <trkpt lat="44.70737" lon="7.0447">
        <ele>2324.8</ele>
        <time>2026-08-31T08:17:10Z</time>
      </trkpt>
      <trkpt lat="44.70734" lon="7.04478">
        <ele>2324.9</ele>
        <time>2026-08-31T08:17:16Z</time>
      </trkpt>
      <trkpt lat="44.70732" lon="7.04482">
        <ele>2324.8</ele>
        <time>2026-08-31T08:17:21Z</time>
      </trkpt>
      <trkpt lat="44.7073" lon="7.04486">
        <ele>2324.6</ele>
        <time>2026-08-31T08:17:26Z</time>
      </trkpt>
      <trkpt lat="44.70727" lon="7.0449">
        <ele>2324</ele>
        <time>2026-08-31T08:17:32Z</time>
      </trkpt>
      <trkpt lat="44.70728" lon="7.04493">
        <ele>2325</ele>
        <time>2026-08-31T08:17:37Z</time>
      </trkpt>
      <trkpt lat="44.70728" lon="7.04496">
        <ele>2325.5</ele>
        <time>2026-08-31T08:17:42Z</time>
      </trkpt>
      <trkpt lat="44.70728" lon="7.04496">
        <ele>2325.5</ele>
        <time>2026-08-31T08:17:48Z</time>
      </trkpt>
      <trkpt lat="44.70727" lon="7.04498">
        <ele>2325.4</ele>
        <time>2026-08-31T08:17:53Z</time>
      </trkpt>
      <trkpt lat="44.70727" lon="7.04503">
        <ele>2326.7</ele>
        <time>2026-08-31T08:17:58Z</time>
      </trkpt>
      <trkpt lat="44.70727" lon="7.04507">
        <ele>2327.8</ele>
        <time>2026-08-31T08:18:04Z</time>
      </trkpt>
      <trkpt lat="44.70726" lon="7.04512">
        <ele>2328.8</ele>
        <time>2026-08-31T08:18:09Z</time>
      </trkpt>
      <trkpt lat="44.70726" lon="7.04516">
        <ele>2330</ele>
        <time>2026-08-31T08:18:14Z</time>
      </trkpt>
      <trkpt lat="44.70727" lon="7.0452">
        <ele>2331.5</ele>
        <time>2026-08-31T08:18:20Z</time>
      </trkpt>
      <trkpt lat="44.70728" lon="7.04521">
        <ele>2332.3</ele>
        <time>2026-08-31T08:18:25Z</time>
      </trkpt>
      <trkpt lat="44.70728" lon="7.04521">
        <ele>2332.3</ele>
        <time>2026-08-31T08:18:30Z</time>
      </trkpt>
      <trkpt lat="44.70728" lon="7.04521">
        <ele>2332.3</ele>
        <time>2026-08-31T08:18:36Z</time>
      </trkpt>
      <trkpt lat="44.70728" lon="7.04521">
        <ele>2332.3</ele>
        <time>2026-08-31T08:18:41Z</time>
      </trkpt>
      <trkpt lat="44.70728" lon="7.04521">
        <ele>2332.3</ele>
        <time>2026-08-31T08:18:46Z</time>
      </trkpt>
      <trkpt lat="44.70728" lon="7.04521">
        <ele>2332.3</ele>
        <time>2026-08-31T08:18:52Z</time>
      </trkpt>
      <trkpt lat="44.70728" lon="7.04521">
        <ele>2332.3</ele>
        <time>2026-08-31T08:18:57Z</time>
      </trkpt>
      <trkpt lat="44.70728" lon="7.04521">
        <ele>2332.3</ele>
        <time>2026-08-31T08:19:02Z</time>
      </trkpt>
      <trkpt lat="44.70728" lon="7.04521">
        <ele>2332.3</ele>
        <time>2026-08-31T08:19:08Z</time>
      </trkpt>
      <trkpt lat="44.70728" lon="7.04521">
        <ele>2332.3</ele>
        <time>2026-08-31T08:19:13Z</time>
      </trkpt>
      <trkpt lat="44.70728" lon="7.04521">
        <ele>2332.3</ele>
        <time>2026-08-31T08:19:18Z</time>
      </trkpt>
      <trkpt lat="44.70728" lon="7.04521">
        <ele>2332.3</ele>
        <time>2026-08-31T08:19:24Z</time>
      </trkpt>
      <trkpt lat="44.70728" lon="7.04521">
        <ele>2332.3</ele>
        <time>2026-08-31T08:19:29Z</time>
      </trkpt>
      <trkpt lat="44.70728" lon="7.04521">
        <ele>2332.3</ele>
        <time>2026-08-31T08:19:34Z</time>
      </trkpt>
      <trkpt lat="44.70728" lon="7.04521">
        <ele>2332.3</ele>
        <time>2026-08-31T08:19:40Z</time>
      </trkpt>
      <trkpt lat="44.70728" lon="7.04521">
        <ele>2332.3</ele>
        <time>2026-08-31T08:19:45Z</time>
      </trkpt>
      <trkpt lat="44.70728" lon="7.04521">
        <ele>2332.3</ele>
        <time>2026-08-31T08:19:50Z</time>
      </trkpt>
      <trkpt lat="44.70728" lon="7.04521">
        <ele>2332.3</ele>
        <time>2026-08-31T08:19:56Z</time>
      </trkpt>
      <trkpt lat="44.70728" lon="7.04521">
        <ele>2332.3</ele>
        <time>2026-08-31T08:20:01Z</time>
      </trkpt>
      <trkpt lat="44.70728" lon="7.04521">
        <ele>2332.3</ele>
        <time>2026-08-31T08:20:06Z</time>
      </trkpt>
      <trkpt lat="44.70728" lon="7.04521">
        <ele>2332.3</ele>
        <time>2026-08-31T08:20:12Z</time>
      </trkpt>
      <trkpt lat="44.70728" lon="7.04521">
        <ele>2332.3</ele>
        <time>2026-08-31T08:20:17Z</time>
      </trkpt>
      <trkpt lat="44.70728" lon="7.04521">
        <ele>2332.3</ele>
        <time>2026-08-31T08:20:22Z</time>
      </trkpt>
      <trkpt lat="44.70728" lon="7.04521">
        <ele>2332.3</ele>
        <time>2026-08-31T08:20:28Z</time>
      </trkpt>
      <trkpt lat="44.70728" lon="7.04521">
        <ele>2332.3</ele>
        <time>2026-08-31T08:20:33Z</time>
      </trkpt>
      <trkpt lat="44.70728" lon="7.04521">
        <ele>2332.3</ele>
        <time>2026-08-31T08:20:38Z</time>
      </trkpt>
      <trkpt lat="44.70728" lon="7.04521">
        <ele>2332.3</ele>
        <time>2026-08-31T08:20:44Z</time>
      </trkpt>
      <trkpt lat="44.70728" lon="7.04526">
        <ele>2333.7</ele>
        <time>2026-08-31T08:20:49Z</time>
      </trkpt>
      <trkpt lat="44.70727" lon="7.04532">
        <ele>2335</ele>
        <time>2026-08-31T08:20:54Z</time>
      </trkpt>
      <trkpt lat="44.70725" lon="7.04538">
        <ele>2335.8</ele>
        <time>2026-08-31T08:21:00Z</time>
      </trkpt>
      <trkpt lat="44.70724" lon="7.04542">
        <ele>2336.6</ele>
        <time>2026-08-31T08:21:05Z</time>
      </trkpt>
      <trkpt lat="44.70725" lon="7.04545">
        <ele>2337.9</ele>
        <time>2026-08-31T08:21:10Z</time>
      </trkpt>
      <trkpt lat="44.70725" lon="7.0455">
        <ele>2339.3</ele>
        <time>2026-08-31T08:21:16Z</time>
      </trkpt>
      <trkpt lat="44.70725" lon="7.04555">
        <ele>2340.7</ele>
        <time>2026-08-31T08:21:21Z</time>
      </trkpt>
      <trkpt lat="44.70726" lon="7.04557">
        <ele>2341.8</ele>
        <time>2026-08-31T08:21:26Z</time>
      </trkpt>
      <trkpt lat="44.70727" lon="7.0456">
        <ele>2343.1</ele>
        <time>2026-08-31T08:21:32Z</time>
      </trkpt>
      <trkpt lat="44.70727" lon="7.04563">
        <ele>2343.9</ele>
        <time>2026-08-31T08:21:37Z</time>
      </trkpt>
      <trkpt lat="44.70727" lon="7.04564">
        <ele>2344.2</ele>
        <time>2026-08-31T08:21:42Z</time>
      </trkpt>
      <trkpt lat="44.70727" lon="7.04564">
        <ele>2344.2</ele>
        <time>2026-08-31T08:21:48Z</time>
      </trkpt>
      <trkpt lat="44.70727" lon="7.04564">
        <ele>2344.2</ele>
        <time>2026-08-31T08:21:53Z</time>
      </trkpt>
      <trkpt lat="44.70727" lon="7.04564">
        <ele>2344.2</ele>
        <time>2026-08-31T08:21:58Z</time>
      </trkpt>
      <trkpt lat="44.70727" lon="7.04564">
        <ele>2344.2</ele>
        <time>2026-08-31T08:22:04Z</time>
      </trkpt>
      <trkpt lat="44.70727" lon="7.04564">
        <ele>2344.2</ele>
        <time>2026-08-31T08:22:09Z</time>
      </trkpt>
      <trkpt lat="44.70727" lon="7.04564">
        <ele>2344.2</ele>
        <time>2026-08-31T08:22:14Z</time>
      </trkpt>
      <trkpt lat="44.70727" lon="7.04564">
        <ele>2344.2</ele>
        <time>2026-08-31T08:22:20Z</time>
      </trkpt>
      <trkpt lat="44.70718" lon="7.04571">
        <ele>2342.2</ele>
        <time>2026-08-31T08:22:25Z</time>
      </trkpt>
      <trkpt lat="44.70716" lon="7.04573">
        <ele>2341.9</ele>
        <time>2026-08-31T08:22:30Z</time>
      </trkpt>
      <trkpt lat="44.70713" lon="7.04576">
        <ele>2341.5</ele>
        <time>2026-08-31T08:22:36Z</time>
      </trkpt>
      <trkpt lat="44.70711" lon="7.04578">
        <ele>2341.1</ele>
        <time>2026-08-31T08:22:41Z</time>
      </trkpt>
      <trkpt lat="44.7071" lon="7.0458">
        <ele>2341.3</ele>
        <time>2026-08-31T08:22:46Z</time>
      </trkpt>
      <trkpt lat="44.7071" lon="7.04581">
        <ele>2341.6</ele>
        <time>2026-08-31T08:22:52Z</time>
      </trkpt>
      <trkpt lat="44.7071" lon="7.04581">
        <ele>2341.6</ele>
        <time>2026-08-31T08:22:57Z</time>
      </trkpt>
      <trkpt lat="44.7071" lon="7.04581">
        <ele>2341.6</ele>
        <time>2026-08-31T08:23:02Z</time>
      </trkpt>
      <trkpt lat="44.7071" lon="7.04581">
        <ele>2341.6</ele>
        <time>2026-08-31T08:23:08Z</time>
      </trkpt>
      <trkpt lat="44.70716" lon="7.0459">
        <ele>2347.3</ele>
        <time>2026-08-31T08:23:13Z</time>
      </trkpt>
      <trkpt lat="44.70717" lon="7.04592">
        <ele>2348.4</ele>
        <time>2026-08-31T08:23:18Z</time>
      </trkpt>
      <trkpt lat="44.70719" lon="7.04595">
        <ele>2350.4</ele>
        <time>2026-08-31T08:23:24Z</time>
      </trkpt>
      <trkpt lat="44.7072" lon="7.04598">
        <ele>2351.9</ele>
        <time>2026-08-31T08:23:29Z</time>
      </trkpt>
      <trkpt lat="44.7072" lon="7.046">
        <ele>2352.6</ele>
        <time>2026-08-31T08:23:34Z</time>
      </trkpt>
      <trkpt lat="44.70721" lon="7.04604">
        <ele>2354.4</ele>
        <time>2026-08-31T08:23:40Z</time>
      </trkpt>
      <trkpt lat="44.70721" lon="7.04604">
        <ele>2354.4</ele>
        <time>2026-08-31T08:23:45Z</time>
      </trkpt>
      <trkpt lat="44.70721" lon="7.04604">
        <ele>2354.4</ele>
        <time>2026-08-31T08:23:50Z</time>
      </trkpt>
      <trkpt lat="44.70726" lon="7.04606">
        <ele>2357.3</ele>
        <time>2026-08-31T08:23:56Z</time>
      </trkpt>
      <trkpt lat="44.70727" lon="7.04609">
        <ele>2358.8</ele>
        <time>2026-08-31T08:24:01Z</time>
      </trkpt>
      <trkpt lat="44.70727" lon="7.04612">
        <ele>2359.8</ele>
        <time>2026-08-31T08:24:06Z</time>
      </trkpt>
      <trkpt lat="44.70729" lon="7.04616">
        <ele>2362</ele>
        <time>2026-08-31T08:24:12Z</time>
      </trkpt>
      <trkpt lat="44.70732" lon="7.04617">
        <ele>2363.7</ele>
        <time>2026-08-31T08:24:17Z</time>
      </trkpt>
      <trkpt lat="44.70735" lon="7.04618">
        <ele>2365.3</ele>
        <time>2026-08-31T08:24:22Z</time>
      </trkpt>
      <trkpt lat="44.70737" lon="7.0462">
        <ele>2366.8</ele>
        <time>2026-08-31T08:24:28Z</time>
      </trkpt>
      <trkpt lat="44.70739" lon="7.04621">
        <ele>2368</ele>
        <time>2026-08-31T08:24:33Z</time>
      </trkpt>
      <trkpt lat="44.70742" lon="7.04621">
        <ele>2369.3</ele>
        <time>2026-08-31T08:24:38Z</time>
      </trkpt>
      <trkpt lat="44.70745" lon="7.04621">
        <ele>2370.5</ele>
        <time>2026-08-31T08:24:44Z</time>
      </trkpt>
      <trkpt lat="44.70748" lon="7.04621">
        <ele>2371.8</ele>
        <time>2026-08-31T08:24:49Z</time>
      </trkpt>
      <trkpt lat="44.70751" lon="7.04623">
        <ele>2373.6</ele>
        <time>2026-08-31T08:24:54Z</time>
      </trkpt>
      <trkpt lat="44.70752" lon="7.04626">
        <ele>2374.9</ele>
        <time>2026-08-31T08:25:00Z</time>
      </trkpt>
      <trkpt lat="44.70751" lon="7.04628">
        <ele>2375.3</ele>
        <time>2026-08-31T08:25:05Z</time>
      </trkpt>
      <trkpt lat="44.7075" lon="7.04629">
        <ele>2375.3</ele>
        <time>2026-08-31T08:25:10Z</time>
      </trkpt>
      <trkpt lat="44.7075" lon="7.04629">
        <ele>2375.3</ele>
        <time>2026-08-31T08:25:16Z</time>
      </trkpt>
      <trkpt lat="44.7075" lon="7.04629">
        <ele>2375.3</ele>
        <time>2026-08-31T08:25:21Z</time>
      </trkpt>
      <trkpt lat="44.7075" lon="7.04629">
        <ele>2375.3</ele>
        <time>2026-08-31T08:25:26Z</time>
      </trkpt>
      <trkpt lat="44.7075" lon="7.04629">
        <ele>2375.3</ele>
        <time>2026-08-31T08:25:32Z</time>
      </trkpt>
      <trkpt lat="44.70744" lon="7.04641">
        <ele>2376.9</ele>
        <time>2026-08-31T08:25:37Z</time>
      </trkpt>
      <trkpt lat="44.70742" lon="7.04643">
        <ele>2376.8</ele>
        <time>2026-08-31T08:25:42Z</time>
      </trkpt>
      <trkpt lat="44.70739" lon="7.04645">
        <ele>2376.2</ele>
        <time>2026-08-31T08:25:48Z</time>
      </trkpt>
      <trkpt lat="44.70738" lon="7.04647">
        <ele>2376.5</ele>
        <time>2026-08-31T08:25:53Z</time>
      </trkpt>
      <trkpt lat="44.70737" lon="7.04649">
        <ele>2376.8</ele>
        <time>2026-08-31T08:25:58Z</time>
      </trkpt>
      <trkpt lat="44.70737" lon="7.04649">
        <ele>2376.8</ele>
        <time>2026-08-31T08:26:04Z</time>
      </trkpt>
      <trkpt lat="44.70737" lon="7.04649">
        <ele>2376.8</ele>
        <time>2026-08-31T08:26:09Z</time>
      </trkpt>
      <trkpt lat="44.70737" lon="7.04649">
        <ele>2376.8</ele>
        <time>2026-08-31T08:26:14Z</time>
      </trkpt>
      <trkpt lat="44.70737" lon="7.04649">
        <ele>2376.8</ele>
        <time>2026-08-31T08:26:20Z</time>
      </trkpt>
      <trkpt lat="44.7073" lon="7.04657">
        <ele>2376.7</ele>
        <time>2026-08-31T08:26:25Z</time>
      </trkpt>
      <trkpt lat="44.70728" lon="7.04658">
        <ele>2376.3</ele>
        <time>2026-08-31T08:26:30Z</time>
      </trkpt>
      <trkpt lat="44.70725" lon="7.04662">
        <ele>2376.5</ele>
        <time>2026-08-31T08:26:36Z</time>
      </trkpt>
      <trkpt lat="44.70722" lon="7.04664">
        <ele>2376</ele>
        <time>2026-08-31T08:26:41Z</time>
      </trkpt>
      <trkpt lat="44.70717" lon="7.04662">
        <ele>2373.3</ele>
        <time>2026-08-31T08:26:46Z</time>
      </trkpt>
      <trkpt lat="44.70712" lon="7.0466">
        <ele>2370.6</ele>
        <time>2026-08-31T08:26:52Z</time>
      </trkpt>
      <trkpt lat="44.70708" lon="7.0466">
        <ele>2369</ele>
        <time>2026-08-31T08:26:57Z</time>
      </trkpt>
      <trkpt lat="44.70705" lon="7.04661">
        <ele>2368.1</ele>
        <time>2026-08-31T08:27:02Z</time>
      </trkpt>
      <trkpt lat="44.70701" lon="7.04662">
        <ele>2366.9</ele>
        <time>2026-08-31T08:27:08Z</time>
      </trkpt>
      <trkpt lat="44.70698" lon="7.04664">
        <ele>2366.4</ele>
        <time>2026-08-31T08:27:13Z</time>
      </trkpt>
      <trkpt lat="44.70697" lon="7.04665">
        <ele>2366.4</ele>
        <time>2026-08-31T08:27:18Z</time>
      </trkpt>
      <trkpt lat="44.70696" lon="7.04665">
        <ele>2366</ele>
        <time>2026-08-31T08:27:24Z</time>
      </trkpt>
      <trkpt lat="44.70694" lon="7.04667">
        <ele>2365.9</ele>
        <time>2026-08-31T08:27:29Z</time>
      </trkpt>
      <trkpt lat="44.70694" lon="7.04667">
        <ele>2365.9</ele>
        <time>2026-08-31T08:27:34Z</time>
      </trkpt>
      <trkpt lat="44.70694" lon="7.04667">
        <ele>2365.9</ele>
        <time>2026-08-31T08:27:40Z</time>
      </trkpt>
      <trkpt lat="44.70694" lon="7.04667">
        <ele>2365.9</ele>
        <time>2026-08-31T08:27:45Z</time>
      </trkpt>
      <trkpt lat="44.70694" lon="7.04667">
        <ele>2365.9</ele>
        <time>2026-08-31T08:27:50Z</time>
      </trkpt>
      <trkpt lat="44.70694" lon="7.04667">
        <ele>2365.9</ele>
        <time>2026-08-31T08:27:56Z</time>
      </trkpt>
      <trkpt lat="44.70693" lon="7.04674">
        <ele>2367.9</ele>
        <time>2026-08-31T08:28:01Z</time>
      </trkpt>
      <trkpt lat="44.70693" lon="7.04676">
        <ele>2368.6</ele>
        <time>2026-08-31T08:28:06Z</time>
      </trkpt>
      <trkpt lat="44.70692" lon="7.04679">
        <ele>2369.2</ele>
        <time>2026-08-31T08:28:12Z</time>
      </trkpt>
      <trkpt lat="44.70691" lon="7.04681">
        <ele>2369.5</ele>
        <time>2026-08-31T08:28:17Z</time>
      </trkpt>
      <trkpt lat="44.70689" lon="7.04682">
        <ele>2369.1</ele>
        <time>2026-08-31T08:28:22Z</time>
      </trkpt>
      <trkpt lat="44.70687" lon="7.04684">
        <ele>2369</ele>
        <time>2026-08-31T08:28:28Z</time>
      </trkpt>
      <trkpt lat="44.70687" lon="7.04684">
        <ele>2369</ele>
        <time>2026-08-31T08:28:33Z</time>
      </trkpt>
      <trkpt lat="44.70687" lon="7.04684">
        <ele>2369</ele>
        <time>2026-08-31T08:28:38Z</time>
      </trkpt>
      <trkpt lat="44.70687" lon="7.04684">
        <ele>2369</ele>
        <time>2026-08-31T08:28:44Z</time>
      </trkpt>
      <trkpt lat="44.70687" lon="7.04684">
        <ele>2369</ele>
        <time>2026-08-31T08:28:49Z</time>
      </trkpt>
      <trkpt lat="44.70685" lon="7.04689">
        <ele>2370</ele>
        <time>2026-08-31T08:28:54Z</time>
      </trkpt>
      <trkpt lat="44.70683" lon="7.04692">
        <ele>2370.3</ele>
        <time>2026-08-31T08:29:00Z</time>
      </trkpt>
      <trkpt lat="44.70683" lon="7.04695">
        <ele>2371.3</ele>
        <time>2026-08-31T08:29:05Z</time>
      </trkpt>
      <trkpt lat="44.70683" lon="7.04699">
        <ele>2372.7</ele>
        <time>2026-08-31T08:29:10Z</time>
      </trkpt>
      <trkpt lat="44.70687" lon="7.04699">
        <ele>2374.2</ele>
        <time>2026-08-31T08:29:16Z</time>
      </trkpt>
      <trkpt lat="44.70691" lon="7.04697">
        <ele>2375</ele>
        <time>2026-08-31T08:29:21Z</time>
      </trkpt>
      <trkpt lat="44.70695" lon="7.04695">
        <ele>2375.8</ele>
        <time>2026-08-31T08:29:26Z</time>
      </trkpt>
      <trkpt lat="44.70698" lon="7.04697">
        <ele>2377.6</ele>
        <time>2026-08-31T08:29:32Z</time>
      </trkpt>
      <trkpt lat="44.70702" lon="7.04697">
        <ele>2379.1</ele>
        <time>2026-08-31T08:29:37Z</time>
      </trkpt>
      <trkpt lat="44.70703" lon="7.04699">
        <ele>2380.2</ele>
        <time>2026-08-31T08:29:42Z</time>
      </trkpt>
      <trkpt lat="44.70702" lon="7.04702">
        <ele>2380.8</ele>
        <time>2026-08-31T08:29:48Z</time>
      </trkpt>
      <trkpt lat="44.707" lon="7.04704">
        <ele>2380.7</ele>
        <time>2026-08-31T08:29:53Z</time>
      </trkpt>
      <trkpt lat="44.70697" lon="7.04707">
        <ele>2380.7</ele>
        <time>2026-08-31T08:29:58Z</time>
      </trkpt>
      <trkpt lat="44.70692" lon="7.04709">
        <ele>2379.5</ele>
        <time>2026-08-31T08:30:04Z</time>
      </trkpt>
      <trkpt lat="44.70691" lon="7.04712">
        <ele>2380.2</ele>
        <time>2026-08-31T08:30:09Z</time>
      </trkpt>
      <trkpt lat="44.70689" lon="7.04714">
        <ele>2380.1</ele>
        <time>2026-08-31T08:30:14Z</time>
      </trkpt>
      <trkpt lat="44.70687" lon="7.04719">
        <ele>2381.1</ele>
        <time>2026-08-31T08:30:20Z</time>
      </trkpt>
      <trkpt lat="44.70687" lon="7.04723">
        <ele>2382.5</ele>
        <time>2026-08-31T08:30:25Z</time>
      </trkpt>
      <trkpt lat="44.70687" lon="7.04725">
        <ele>2383.2</ele>
        <time>2026-08-31T08:30:30Z</time>
      </trkpt>
      <trkpt lat="44.70687" lon="7.04725">
        <ele>2383.2</ele>
        <time>2026-08-31T08:30:36Z</time>
      </trkpt>
      <trkpt lat="44.70687" lon="7.04725">
        <ele>2383.2</ele>
        <time>2026-08-31T08:30:41Z</time>
      </trkpt>
      <trkpt lat="44.70687" lon="7.04729">
        <ele>2384.6</ele>
        <time>2026-08-31T08:30:46Z</time>
      </trkpt>
      <trkpt lat="44.70688" lon="7.04731">
        <ele>2385.6</ele>
        <time>2026-08-31T08:30:52Z</time>
      </trkpt>
      <trkpt lat="44.70688" lon="7.04731">
        <ele>2385.6</ele>
        <time>2026-08-31T08:30:57Z</time>
      </trkpt>
      <trkpt lat="44.70694" lon="7.04731">
        <ele>2387.7</ele>
        <time>2026-08-31T08:31:02Z</time>
      </trkpt>
      <trkpt lat="44.70695" lon="7.04732">
        <ele>2388.4</ele>
        <time>2026-08-31T08:31:08Z</time>
      </trkpt>
      <trkpt lat="44.70695" lon="7.04733">
        <ele>2388.7</ele>
        <time>2026-08-31T08:31:13Z</time>
      </trkpt>
      <trkpt lat="44.70693" lon="7.04737">
        <ele>2389.4</ele>
        <time>2026-08-31T08:31:18Z</time>
      </trkpt>
      <trkpt lat="44.70693" lon="7.04742">
        <ele>2391.1</ele>
        <time>2026-08-31T08:31:24Z</time>
      </trkpt>
      <trkpt lat="44.70693" lon="7.04742">
        <ele>2391.1</ele>
        <time>2026-08-31T08:31:29Z</time>
      </trkpt>
      <trkpt lat="44.70693" lon="7.04742">
        <ele>2391.1</ele>
        <time>2026-08-31T08:31:34Z</time>
      </trkpt>
      <trkpt lat="44.70693" lon="7.04742">
        <ele>2391.1</ele>
        <time>2026-08-31T08:31:40Z</time>
      </trkpt>
      <trkpt lat="44.70693" lon="7.04742">
        <ele>2391.1</ele>
        <time>2026-08-31T08:31:45Z</time>
      </trkpt>
      <trkpt lat="44.70691" lon="7.04749">
        <ele>2392.8</ele>
        <time>2026-08-31T08:31:50Z</time>
      </trkpt>
      <trkpt lat="44.7069" lon="7.04753">
        <ele>2393.9</ele>
        <time>2026-08-31T08:31:56Z</time>
      </trkpt>
      <trkpt lat="44.7069" lon="7.04755">
        <ele>2394.7</ele>
        <time>2026-08-31T08:32:01Z</time>
      </trkpt>
      <trkpt lat="44.7069" lon="7.04756">
        <ele>2395</ele>
        <time>2026-08-31T08:32:06Z</time>
      </trkpt>
      <trkpt lat="44.7069" lon="7.04756">
        <ele>2395</ele>
        <time>2026-08-31T08:32:12Z</time>
      </trkpt>
      <trkpt lat="44.7069" lon="7.04756">
        <ele>2395</ele>
        <time>2026-08-31T08:32:17Z</time>
      </trkpt>
      <trkpt lat="44.7069" lon="7.04765">
        <ele>2398.3</ele>
        <time>2026-08-31T08:32:22Z</time>
      </trkpt>
      <trkpt lat="44.70691" lon="7.04769">
        <ele>2400.1</ele>
        <time>2026-08-31T08:32:28Z</time>
      </trkpt>
      <trkpt lat="44.7069" lon="7.04773">
        <ele>2401.3</ele>
        <time>2026-08-31T08:32:33Z</time>
      </trkpt>
      <trkpt lat="44.7069" lon="7.04776">
        <ele>2402.4</ele>
        <time>2026-08-31T08:32:38Z</time>
      </trkpt>
      <trkpt lat="44.7069" lon="7.0478">
        <ele>2403.8</ele>
        <time>2026-08-31T08:32:44Z</time>
      </trkpt>
      <trkpt lat="44.70689" lon="7.0478">
        <ele>2403.6</ele>
        <time>2026-08-31T08:32:49Z</time>
      </trkpt>
      <trkpt lat="44.70689" lon="7.0478">
        <ele>2403.6</ele>
        <time>2026-08-31T08:32:54Z</time>
      </trkpt>
      <trkpt lat="44.70689" lon="7.0478">
        <ele>2403.6</ele>
        <time>2026-08-31T08:33:00Z</time>
      </trkpt>
      <trkpt lat="44.70689" lon="7.0478">
        <ele>2403.6</ele>
        <time>2026-08-31T08:33:05Z</time>
      </trkpt>
      <trkpt lat="44.70689" lon="7.0478">
        <ele>2403.6</ele>
        <time>2026-08-31T08:33:10Z</time>
      </trkpt>
      <trkpt lat="44.70689" lon="7.0478">
        <ele>2403.6</ele>
        <time>2026-08-31T08:33:16Z</time>
      </trkpt>
      <trkpt lat="44.70689" lon="7.0478">
        <ele>2403.6</ele>
        <time>2026-08-31T08:33:21Z</time>
      </trkpt>
      <trkpt lat="44.70689" lon="7.0478">
        <ele>2403.6</ele>
        <time>2026-08-31T08:33:26Z</time>
      </trkpt>
      <trkpt lat="44.70689" lon="7.0478">
        <ele>2403.6</ele>
        <time>2026-08-31T08:33:32Z</time>
      </trkpt>
      <trkpt lat="44.70689" lon="7.04784">
        <ele>2405</ele>
        <time>2026-08-31T08:33:37Z</time>
      </trkpt>
      <trkpt lat="44.70687" lon="7.04787">
        <ele>2405.6</ele>
        <time>2026-08-31T08:33:42Z</time>
      </trkpt>
      <trkpt lat="44.7069" lon="7.04792">
        <ele>2408.2</ele>
        <time>2026-08-31T08:33:48Z</time>
      </trkpt>
      <trkpt lat="44.70691" lon="7.04797">
        <ele>2410.3</ele>
        <time>2026-08-31T08:33:53Z</time>
      </trkpt>
      <trkpt lat="44.70693" lon="7.048">
        <ele>2411.8</ele>
        <time>2026-08-31T08:33:58Z</time>
      </trkpt>
      <trkpt lat="44.70693" lon="7.04804">
        <ele>2413.3</ele>
        <time>2026-08-31T08:34:04Z</time>
      </trkpt>
      <trkpt lat="44.70694" lon="7.04809">
        <ele>2415.2</ele>
        <time>2026-08-31T08:34:09Z</time>
      </trkpt>
      <trkpt lat="44.70696" lon="7.04809">
        <ele>2415.6</ele>
        <time>2026-08-31T08:34:14Z</time>
      </trkpt>
      <trkpt lat="44.70697" lon="7.04814">
        <ele>2417.6</ele>
        <time>2026-08-31T08:34:20Z</time>
      </trkpt>
      <trkpt lat="44.70699" lon="7.0482">
        <ele>2420</ele>
        <time>2026-08-31T08:34:25Z</time>
      </trkpt>
      <trkpt lat="44.707" lon="7.04825">
        <ele>2421.9</ele>
        <time>2026-08-31T08:34:30Z</time>
      </trkpt>
      <trkpt lat="44.70701" lon="7.04832">
        <ele>2424.5</ele>
        <time>2026-08-31T08:34:36Z</time>
      </trkpt>
      <trkpt lat="44.70702" lon="7.04837">
        <ele>2425.9</ele>
        <time>2026-08-31T08:34:41Z</time>
      </trkpt>
      <trkpt lat="44.70703" lon="7.04843">
        <ele>2427.4</ele>
        <time>2026-08-31T08:34:46Z</time>
      </trkpt>
      <trkpt lat="44.70706" lon="7.04848">
        <ele>2428.9</ele>
        <time>2026-08-31T08:34:52Z</time>
      </trkpt>
      <trkpt lat="44.70708" lon="7.04853">
        <ele>2430.2</ele>
        <time>2026-08-31T08:34:57Z</time>
      </trkpt>
      <trkpt lat="44.7071" lon="7.04857">
        <ele>2431.3</ele>
        <time>2026-08-31T08:35:02Z</time>
      </trkpt>
      <trkpt lat="44.70713" lon="7.04861">
        <ele>2432.5</ele>
        <time>2026-08-31T08:35:08Z</time>
      </trkpt>
      <trkpt lat="44.70713" lon="7.04864">
        <ele>2433.2</ele>
        <time>2026-08-31T08:35:13Z</time>
      </trkpt>
      <trkpt lat="44.70713" lon="7.04864">
        <ele>2433.2</ele>
        <time>2026-08-31T08:35:18Z</time>
      </trkpt>
      <trkpt lat="44.70713" lon="7.04864">
        <ele>2433.2</ele>
        <time>2026-08-31T08:35:24Z</time>
      </trkpt>
      <trkpt lat="44.70715" lon="7.04868">
        <ele>2434.2</ele>
        <time>2026-08-31T08:35:29Z</time>
      </trkpt>
      <trkpt lat="44.70717" lon="7.04875">
        <ele>2435.9</ele>
        <time>2026-08-31T08:35:34Z</time>
      </trkpt>
      <trkpt lat="44.70719" lon="7.04884">
        <ele>2438</ele>
        <time>2026-08-31T08:35:40Z</time>
      </trkpt>
      <trkpt lat="44.70721" lon="7.0489">
        <ele>2439.4</ele>
        <time>2026-08-31T08:35:45Z</time>
      </trkpt>
      <trkpt lat="44.70722" lon="7.04897">
        <ele>2441</ele>
        <time>2026-08-31T08:35:50Z</time>
      </trkpt>
      <trkpt lat="44.70725" lon="7.04904">
        <ele>2442.6</ele>
        <time>2026-08-31T08:35:56Z</time>
      </trkpt>
      <trkpt lat="44.70728" lon="7.04909">
        <ele>2443.9</ele>
        <time>2026-08-31T08:36:01Z</time>
      </trkpt>
      <trkpt lat="44.7073" lon="7.04914">
        <ele>2445</ele>
        <time>2026-08-31T08:36:06Z</time>
      </trkpt>
      <trkpt lat="44.70733" lon="7.0492">
        <ele>2446.2</ele>
        <time>2026-08-31T08:36:12Z</time>
      </trkpt>
      <trkpt lat="44.70734" lon="7.04922">
        <ele>2446.6</ele>
        <time>2026-08-31T08:36:17Z</time>
      </trkpt>
      <trkpt lat="44.70732" lon="7.04927">
        <ele>2447.1</ele>
        <time>2026-08-31T08:36:22Z</time>
      </trkpt>
      <trkpt lat="44.70729" lon="7.04935">
        <ele>2448.1</ele>
        <time>2026-08-31T08:36:28Z</time>
      </trkpt>
      <trkpt lat="44.70723" lon="7.04938">
        <ele>2448.2</ele>
        <time>2026-08-31T08:36:33Z</time>
      </trkpt>
      <trkpt lat="44.7072" lon="7.04942">
        <ele>2448.6</ele>
        <time>2026-08-31T08:36:38Z</time>
      </trkpt>
      <trkpt lat="44.70721" lon="7.0495">
        <ele>2449.9</ele>
        <time>2026-08-31T08:36:44Z</time>
      </trkpt>
      <trkpt lat="44.70723" lon="7.04956">
        <ele>2450.8</ele>
        <time>2026-08-31T08:36:49Z</time>
      </trkpt>
      <trkpt lat="44.70721" lon="7.04964">
        <ele>2452</ele>
        <time>2026-08-31T08:36:54Z</time>
      </trkpt>
      <trkpt lat="44.70716" lon="7.04967">
        <ele>2452.3</ele>
        <time>2026-08-31T08:37:00Z</time>
      </trkpt>
      <trkpt lat="44.7071" lon="7.04966">
        <ele>2452</ele>
        <time>2026-08-31T08:37:05Z</time>
      </trkpt>
      <trkpt lat="44.70705" lon="7.04969">
        <ele>2452.4</ele>
        <time>2026-08-31T08:37:10Z</time>
      </trkpt>
      <trkpt lat="44.707" lon="7.04972">
        <ele>2452.8</ele>
        <time>2026-08-31T08:37:16Z</time>
      </trkpt>
      <trkpt lat="44.70697" lon="7.04975">
        <ele>2453.3</ele>
        <time>2026-08-31T08:37:21Z</time>
      </trkpt>
      <trkpt lat="44.70694" lon="7.04977">
        <ele>2453.6</ele>
        <time>2026-08-31T08:37:26Z</time>
      </trkpt>
      <trkpt lat="44.70691" lon="7.0498">
        <ele>2454.1</ele>
        <time>2026-08-31T08:37:32Z</time>
      </trkpt>
      <trkpt lat="44.70687" lon="7.04981">
        <ele>2454.3</ele>
        <time>2026-08-31T08:37:37Z</time>
      </trkpt>
      <trkpt lat="44.70685" lon="7.04983">
        <ele>2454.6</ele>
        <time>2026-08-31T08:37:42Z</time>
      </trkpt>
      <trkpt lat="44.70681" lon="7.04982">
        <ele>2454.4</ele>
        <time>2026-08-31T08:37:48Z</time>
      </trkpt>
      <trkpt lat="44.70676" lon="7.04985">
        <ele>2455</ele>
        <time>2026-08-31T08:37:53Z</time>
      </trkpt>
      <trkpt lat="44.70673" lon="7.04986">
        <ele>2455.2</ele>
        <time>2026-08-31T08:37:58Z</time>
      </trkpt>
      <trkpt lat="44.70668" lon="7.04985">
        <ele>2454.9</ele>
        <time>2026-08-31T08:38:04Z</time>
      </trkpt>
      <trkpt lat="44.70664" lon="7.04985">
        <ele>2454.7</ele>
        <time>2026-08-31T08:38:09Z</time>
      </trkpt>
      <trkpt lat="44.70661" lon="7.04985">
        <ele>2454.3</ele>
        <time>2026-08-31T08:38:14Z</time>
      </trkpt>
      <trkpt lat="44.70657" lon="7.04984">
        <ele>2453.7</ele>
        <time>2026-08-31T08:38:20Z</time>
      </trkpt>
      <trkpt lat="44.70653" lon="7.04981">
        <ele>2452.7</ele>
        <time>2026-08-31T08:38:25Z</time>
      </trkpt>
      <trkpt lat="44.7065" lon="7.04981">
        <ele>2452.3</ele>
        <time>2026-08-31T08:38:30Z</time>
      </trkpt>
      <trkpt lat="44.70646" lon="7.0498">
        <ele>2451.7</ele>
        <time>2026-08-31T08:38:36Z</time>
      </trkpt>
      <trkpt lat="44.70643" lon="7.04978">
        <ele>2450.9</ele>
        <time>2026-08-31T08:38:41Z</time>
      </trkpt>
      <trkpt lat="44.7064" lon="7.04976">
        <ele>2450.2</ele>
        <time>2026-08-31T08:38:46Z</time>
      </trkpt>
      <trkpt lat="44.70638" lon="7.04975">
        <ele>2449.7</ele>
        <time>2026-08-31T08:38:52Z</time>
      </trkpt>
      <trkpt lat="44.70638" lon="7.04975">
        <ele>2449.7</ele>
        <time>2026-08-31T08:38:57Z</time>
      </trkpt>
      <trkpt lat="44.70638" lon="7.04975">
        <ele>2449.7</ele>
        <time>2026-08-31T08:39:02Z</time>
      </trkpt>
      <trkpt lat="44.70638" lon="7.04975">
        <ele>2449.7</ele>
        <time>2026-08-31T08:39:08Z</time>
      </trkpt>
      <trkpt lat="44.70638" lon="7.04975">
        <ele>2449.7</ele>
        <time>2026-08-31T08:39:13Z</time>
      </trkpt>
      <trkpt lat="44.70638" lon="7.04975">
        <ele>2449.7</ele>
        <time>2026-08-31T08:39:18Z</time>
      </trkpt>
      <trkpt lat="44.70638" lon="7.04975">
        <ele>2449.7</ele>
        <time>2026-08-31T08:39:24Z</time>
      </trkpt>
      <trkpt lat="44.70638" lon="7.04975">
        <ele>2449.7</ele>
        <time>2026-08-31T08:39:29Z</time>
      </trkpt>
      <trkpt lat="44.70638" lon="7.04975">
        <ele>2449.7</ele>
        <time>2026-08-31T08:39:34Z</time>
      </trkpt>
      <trkpt lat="44.70638" lon="7.04975">
        <ele>2449.7</ele>
        <time>2026-08-31T08:39:40Z</time>
      </trkpt>
      <trkpt lat="44.70638" lon="7.04975">
        <ele>2449.7</ele>
        <time>2026-08-31T08:39:45Z</time>
      </trkpt>
      <trkpt lat="44.70638" lon="7.04975">
        <ele>2449.7</ele>
        <time>2026-08-31T08:39:50Z</time>
      </trkpt>
      <trkpt lat="44.70638" lon="7.04975">
        <ele>2449.7</ele>
        <time>2026-08-31T08:39:56Z</time>
      </trkpt>
      <trkpt lat="44.70638" lon="7.04975">
        <ele>2449.7</ele>
        <time>2026-08-31T08:40:01Z</time>
      </trkpt>
      <trkpt lat="44.70638" lon="7.04975">
        <ele>2449.7</ele>
        <time>2026-08-31T08:40:06Z</time>
      </trkpt>
      <trkpt lat="44.70638" lon="7.04975">
        <ele>2449.7</ele>
        <time>2026-08-31T08:40:12Z</time>
      </trkpt>
      <trkpt lat="44.70638" lon="7.04975">
        <ele>2449.7</ele>
        <time>2026-08-31T08:40:17Z</time>
      </trkpt>
      <trkpt lat="44.70638" lon="7.04975">
        <ele>2449.7</ele>
        <time>2026-08-31T08:40:22Z</time>
      </trkpt>
      <trkpt lat="44.70638" lon="7.04975">
        <ele>2449.7</ele>
        <time>2026-08-31T08:40:28Z</time>
      </trkpt>
      <trkpt lat="44.70638" lon="7.04975">
        <ele>2449.7</ele>
        <time>2026-08-31T08:40:33Z</time>
      </trkpt>
      <trkpt lat="44.70638" lon="7.04975">
        <ele>2449.7</ele>
        <time>2026-08-31T08:40:38Z</time>
      </trkpt>
      <trkpt lat="44.70638" lon="7.04975">
        <ele>2449.7</ele>
        <time>2026-08-31T08:40:44Z</time>
      </trkpt>
      <trkpt lat="44.70638" lon="7.04975">
        <ele>2449.7</ele>
        <time>2026-08-31T08:40:49Z</time>
      </trkpt>
      <trkpt lat="44.70635" lon="7.04975">
        <ele>2449.4</ele>
        <time>2026-08-31T08:40:54Z</time>
      </trkpt>
      <trkpt lat="44.70629" lon="7.04973">
        <ele>2448.3</ele>
        <time>2026-08-31T08:41:00Z</time>
      </trkpt>
      <trkpt lat="44.70626" lon="7.04973">
        <ele>2448</ele>
        <time>2026-08-31T08:41:05Z</time>
      </trkpt>
      <trkpt lat="44.70621" lon="7.04973">
        <ele>2447.4</ele>
        <time>2026-08-31T08:41:10Z</time>
      </trkpt>
      <trkpt lat="44.70617" lon="7.04971">
        <ele>2446.5</ele>
        <time>2026-08-31T08:41:16Z</time>
      </trkpt>
      <trkpt lat="44.70615" lon="7.04968">
        <ele>2445.6</ele>
        <time>2026-08-31T08:41:21Z</time>
      </trkpt>
      <trkpt lat="44.70612" lon="7.04964">
        <ele>2444.3</ele>
        <time>2026-08-31T08:41:26Z</time>
      </trkpt>
      <trkpt lat="44.70609" lon="7.04961">
        <ele>2443.2</ele>
        <time>2026-08-31T08:41:32Z</time>
      </trkpt>
      <trkpt lat="44.70608" lon="7.04958">
        <ele>2442.4</ele>
        <time>2026-08-31T08:41:37Z</time>
      </trkpt>
      <trkpt lat="44.70609" lon="7.04957">
        <ele>2442.3</ele>
        <time>2026-08-31T08:41:42Z</time>
      </trkpt>
      <trkpt lat="44.70609" lon="7.04956">
        <ele>2442</ele>
        <time>2026-08-31T08:41:48Z</time>
      </trkpt>
      <trkpt lat="44.70609" lon="7.04956">
        <ele>2442</ele>
        <time>2026-08-31T08:41:53Z</time>
      </trkpt>
      <trkpt lat="44.70609" lon="7.04956">
        <ele>2442</ele>
        <time>2026-08-31T08:41:58Z</time>
      </trkpt>
      <trkpt lat="44.70607" lon="7.04952">
        <ele>2440.8</ele>
        <time>2026-08-31T08:42:04Z</time>
      </trkpt>
      <trkpt lat="44.70603" lon="7.04949">
        <ele>2439.6</ele>
        <time>2026-08-31T08:42:09Z</time>
      </trkpt>
      <trkpt lat="44.70597" lon="7.04948">
        <ele>2438.6</ele>
        <time>2026-08-31T08:42:14Z</time>
      </trkpt>
      <trkpt lat="44.70589" lon="7.04953">
        <ele>2438.9</ele>
        <time>2026-08-31T08:42:20Z</time>
      </trkpt>
      <trkpt lat="44.70585" lon="7.04955">
        <ele>2438.9</ele>
        <time>2026-08-31T08:42:25Z</time>
      </trkpt>
      <trkpt lat="44.7058" lon="7.04957">
        <ele>2438.9</ele>
        <time>2026-08-31T08:42:30Z</time>
      </trkpt>
      <trkpt lat="44.70573" lon="7.04962">
        <ele>2439.5</ele>
        <time>2026-08-31T08:42:36Z</time>
      </trkpt>
      <trkpt lat="44.70569" lon="7.04965">
        <ele>2439.9</ele>
        <time>2026-08-31T08:42:41Z</time>
      </trkpt>
      <trkpt lat="44.70564" lon="7.04971">
        <ele>2440.9</ele>
        <time>2026-08-31T08:42:46Z</time>
      </trkpt>
      <trkpt lat="44.7056" lon="7.04978">
        <ele>2442.1</ele>
        <time>2026-08-31T08:42:52Z</time>
      </trkpt>
      <trkpt lat="44.70555" lon="7.0498">
        <ele>2442</ele>
        <time>2026-08-31T08:42:57Z</time>
      </trkpt>
      <trkpt lat="44.7055" lon="7.04981">
        <ele>2441.8</ele>
        <time>2026-08-31T08:43:02Z</time>
      </trkpt>
      <trkpt lat="44.70547" lon="7.04984">
        <ele>2442.1</ele>
        <time>2026-08-31T08:43:08Z</time>
      </trkpt>
      <trkpt lat="44.70543" lon="7.04986">
        <ele>2442.1</ele>
        <time>2026-08-31T08:43:13Z</time>
      </trkpt>
      <trkpt lat="44.70539" lon="7.04988">
        <ele>2442.1</ele>
        <time>2026-08-31T08:43:18Z</time>
      </trkpt>
      <trkpt lat="44.70532" lon="7.0499">
        <ele>2441.8</ele>
        <time>2026-08-31T08:43:24Z</time>
      </trkpt>
      <trkpt lat="44.70526" lon="7.0499">
        <ele>2441.1</ele>
        <time>2026-08-31T08:43:29Z</time>
      </trkpt>
      <trkpt lat="44.70523" lon="7.04992">
        <ele>2441.2</ele>
        <time>2026-08-31T08:43:34Z</time>
      </trkpt>
      <trkpt lat="44.7052" lon="7.04998">
        <ele>2442</ele>
        <time>2026-08-31T08:43:40Z</time>
      </trkpt>
      <trkpt lat="44.70519" lon="7.04999">
        <ele>2442.1</ele>
        <time>2026-08-31T08:43:45Z</time>
      </trkpt>
      <trkpt lat="44.70517" lon="7.05">
        <ele>2442</ele>
        <time>2026-08-31T08:43:50Z</time>
      </trkpt>
      <trkpt lat="44.70513" lon="7.05003">
        <ele>2442.4</ele>
        <time>2026-08-31T08:43:56Z</time>
      </trkpt>
      <trkpt lat="44.70509" lon="7.05006">
        <ele>2442.7</ele>
        <time>2026-08-31T08:44:01Z</time>
      </trkpt>
      <trkpt lat="44.70506" lon="7.05011">
        <ele>2443.8</ele>
        <time>2026-08-31T08:44:06Z</time>
      </trkpt>
      <trkpt lat="44.70506" lon="7.05012">
        <ele>2444</ele>
        <time>2026-08-31T08:44:12Z</time>
      </trkpt>
      <trkpt lat="44.70504" lon="7.05012">
        <ele>2443.8</ele>
        <time>2026-08-31T08:44:17Z</time>
      </trkpt>
      <trkpt lat="44.70498" lon="7.05014">
        <ele>2443.6</ele>
        <time>2026-08-31T08:44:22Z</time>
      </trkpt>
      <trkpt lat="44.70495" lon="7.0502">
        <ele>2444.8</ele>
        <time>2026-08-31T08:44:28Z</time>
      </trkpt>
      <trkpt lat="44.70492" lon="7.05025">
        <ele>2445.7</ele>
        <time>2026-08-31T08:44:33Z</time>
      </trkpt>
      <trkpt lat="44.70491" lon="7.05027">
        <ele>2446.2</ele>
        <time>2026-08-31T08:44:38Z</time>
      </trkpt>
      <trkpt lat="44.70486" lon="7.0503">
        <ele>2446.3</ele>
        <time>2026-08-31T08:44:44Z</time>
      </trkpt>
      <trkpt lat="44.70482" lon="7.05032">
        <ele>2446.2</ele>
        <time>2026-08-31T08:44:49Z</time>
      </trkpt>
      <trkpt lat="44.70477" lon="7.05037">
        <ele>2446.9</ele>
        <time>2026-08-31T08:44:54Z</time>
      </trkpt>
      <trkpt lat="44.70474" lon="7.0504">
        <ele>2447.3</ele>
        <time>2026-08-31T08:45:00Z</time>
      </trkpt>
      <trkpt lat="44.70472" lon="7.05044">
        <ele>2448.1</ele>
        <time>2026-08-31T08:45:05Z</time>
      </trkpt>
      <trkpt lat="44.7047" lon="7.05047">
        <ele>2448.7</ele>
        <time>2026-08-31T08:45:10Z</time>
      </trkpt>
      <trkpt lat="44.70469" lon="7.05051">
        <ele>2449.6</ele>
        <time>2026-08-31T08:45:16Z</time>
      </trkpt>
      <trkpt lat="44.70468" lon="7.05051">
        <ele>2449.5</ele>
        <time>2026-08-31T08:45:21Z</time>
      </trkpt>
      <trkpt lat="44.70468" lon="7.05051">
        <ele>2449.5</ele>
        <time>2026-08-31T08:45:26Z</time>
      </trkpt>
      <trkpt lat="44.70468" lon="7.05051">
        <ele>2449.5</ele>
        <time>2026-08-31T08:45:32Z</time>
      </trkpt>
      <trkpt lat="44.70468" lon="7.05051">
        <ele>2449.5</ele>
        <time>2026-08-31T08:45:37Z</time>
      </trkpt>
      <trkpt lat="44.70468" lon="7.05051">
        <ele>2449.5</ele>
        <time>2026-08-31T08:45:42Z</time>
      </trkpt>
      <trkpt lat="44.70468" lon="7.05051">
        <ele>2449.5</ele>
        <time>2026-08-31T08:45:48Z</time>
      </trkpt>
      <trkpt lat="44.70468" lon="7.05051">
        <ele>2449.5</ele>
        <time>2026-08-31T08:45:53Z</time>
      </trkpt>
      <trkpt lat="44.70468" lon="7.05051">
        <ele>2449.5</ele>
        <time>2026-08-31T08:45:58Z</time>
      </trkpt>
      <trkpt lat="44.70468" lon="7.05051">
        <ele>2449.5</ele>
        <time>2026-08-31T08:46:04Z</time>
      </trkpt>
      <trkpt lat="44.70461" lon="7.05057">
        <ele>2450.1</ele>
        <time>2026-08-31T08:46:09Z</time>
      </trkpt>
      <trkpt lat="44.70458" lon="7.05061">
        <ele>2450.8</ele>
        <time>2026-08-31T08:46:14Z</time>
      </trkpt>
      <trkpt lat="44.70455" lon="7.05065">
        <ele>2451.5</ele>
        <time>2026-08-31T08:46:20Z</time>
      </trkpt>
      <trkpt lat="44.70451" lon="7.05067">
        <ele>2451.4</ele>
        <time>2026-08-31T08:46:25Z</time>
      </trkpt>
      <trkpt lat="44.70445" lon="7.05067">
        <ele>2450.6</ele>
        <time>2026-08-31T08:46:30Z</time>
      </trkpt>
      <trkpt lat="44.70437" lon="7.05068">
        <ele>2449.7</ele>
        <time>2026-08-31T08:46:36Z</time>
      </trkpt>
      <trkpt lat="44.70431" lon="7.05069">
        <ele>2449.1</ele>
        <time>2026-08-31T08:46:41Z</time>
      </trkpt>
      <trkpt lat="44.70426" lon="7.05072">
        <ele>2449.2</ele>
        <time>2026-08-31T08:46:46Z</time>
      </trkpt>
      <trkpt lat="44.70419" lon="7.05074">
        <ele>2448.8</ele>
        <time>2026-08-31T08:46:52Z</time>
      </trkpt>
      <trkpt lat="44.70413" lon="7.05076">
        <ele>2448.9</ele>
        <time>2026-08-31T08:46:57Z</time>
      </trkpt>
      <trkpt lat="44.70409" lon="7.0508">
        <ele>2449.9</ele>
        <time>2026-08-31T08:47:02Z</time>
      </trkpt>
      <trkpt lat="44.70404" lon="7.05085">
        <ele>2451.1</ele>
        <time>2026-08-31T08:47:08Z</time>
      </trkpt>
      <trkpt lat="44.704" lon="7.05088">
        <ele>2451.7</ele>
        <time>2026-08-31T08:47:13Z</time>
      </trkpt>
      <trkpt lat="44.70396" lon="7.05093">
        <ele>2452.8</ele>
        <time>2026-08-31T08:47:18Z</time>
      </trkpt>
      <trkpt lat="44.70392" lon="7.05097">
        <ele>2453.6</ele>
        <time>2026-08-31T08:47:24Z</time>
      </trkpt>
      <trkpt lat="44.70389" lon="7.05101">
        <ele>2454.4</ele>
        <time>2026-08-31T08:47:29Z</time>
      </trkpt>
      <trkpt lat="44.70384" lon="7.05105">
        <ele>2455.1</ele>
        <time>2026-08-31T08:47:34Z</time>
      </trkpt>
      <trkpt lat="44.7038" lon="7.05106">
        <ele>2455.1</ele>
        <time>2026-08-31T08:47:40Z</time>
      </trkpt>
      <trkpt lat="44.70376" lon="7.05109">
        <ele>2455.6</ele>
        <time>2026-08-31T08:47:45Z</time>
      </trkpt>
      <trkpt lat="44.70371" lon="7.05112">
        <ele>2456</ele>
        <time>2026-08-31T08:47:50Z</time>
      </trkpt>
      <trkpt lat="44.70366" lon="7.05117">
        <ele>2456.7</ele>
        <time>2026-08-31T08:47:56Z</time>
      </trkpt>
      <trkpt lat="44.70361" lon="7.05121">
        <ele>2457.2</ele>
        <time>2026-08-31T08:48:01Z</time>
      </trkpt>
      <trkpt lat="44.70356" lon="7.05124">
        <ele>2457.4</ele>
        <time>2026-08-31T08:48:06Z</time>
      </trkpt>
      <trkpt lat="44.70349" lon="7.05128">
        <ele>2457.7</ele>
        <time>2026-08-31T08:48:12Z</time>
      </trkpt>
      <trkpt lat="44.70344" lon="7.05132">
        <ele>2458</ele>
        <time>2026-08-31T08:48:17Z</time>
      </trkpt>
      <trkpt lat="44.70338" lon="7.05136">
        <ele>2458.2</ele>
        <time>2026-08-31T08:48:22Z</time>
      </trkpt>
      <trkpt lat="44.70333" lon="7.05139">
        <ele>2458.3</ele>
        <time>2026-08-31T08:48:28Z</time>
      </trkpt>
      <trkpt lat="44.70327" lon="7.05142">
        <ele>2458.8</ele>
        <time>2026-08-31T08:48:33Z</time>
      </trkpt>
      <trkpt lat="44.70324" lon="7.05144">
        <ele>2459.1</ele>
        <time>2026-08-31T08:48:38Z</time>
      </trkpt>
      <trkpt lat="44.70321" lon="7.05148">
        <ele>2459.7</ele>
        <time>2026-08-31T08:48:44Z</time>
      </trkpt>
      <trkpt lat="44.70315" lon="7.05149">
        <ele>2459.8</ele>
        <time>2026-08-31T08:48:49Z</time>
      </trkpt>
      <trkpt lat="44.70309" lon="7.05149">
        <ele>2459.7</ele>
        <time>2026-08-31T08:48:54Z</time>
      </trkpt>
      <trkpt lat="44.703" lon="7.05149">
        <ele>2459.6</ele>
        <time>2026-08-31T08:49:00Z</time>
      </trkpt>
      <trkpt lat="44.70294" lon="7.05153">
        <ele>2460.2</ele>
        <time>2026-08-31T08:49:05Z</time>
      </trkpt>
      <trkpt lat="44.70288" lon="7.05155">
        <ele>2460.5</ele>
        <time>2026-08-31T08:49:10Z</time>
      </trkpt>
      <trkpt lat="44.7028" lon="7.0516">
        <ele>2461.2</ele>
        <time>2026-08-31T08:49:16Z</time>
      </trkpt>
      <trkpt lat="44.70277" lon="7.05167">
        <ele>2462.4</ele>
        <time>2026-08-31T08:49:21Z</time>
      </trkpt>
      <trkpt lat="44.70272" lon="7.05171">
        <ele>2463.1</ele>
        <time>2026-08-31T08:49:26Z</time>
      </trkpt>
      <trkpt lat="44.70265" lon="7.05175">
        <ele>2463.7</ele>
        <time>2026-08-31T08:49:32Z</time>
      </trkpt>
      <trkpt lat="44.70261" lon="7.05178">
        <ele>2464.3</ele>
        <time>2026-08-31T08:49:37Z</time>
      </trkpt>
      <trkpt lat="44.70257" lon="7.05179">
        <ele>2464.4</ele>
        <time>2026-08-31T08:49:42Z</time>
      </trkpt>
      <trkpt lat="44.70253" lon="7.05181">
        <ele>2464.8</ele>
        <time>2026-08-31T08:49:48Z</time>
      </trkpt>
      <trkpt lat="44.70247" lon="7.05182">
        <ele>2465</ele>
        <time>2026-08-31T08:49:53Z</time>
      </trkpt>
      <trkpt lat="44.70241" lon="7.05182">
        <ele>2465.3</ele>
        <time>2026-08-31T08:49:58Z</time>
      </trkpt>
      <trkpt lat="44.70236" lon="7.05185">
        <ele>2466</ele>
        <time>2026-08-31T08:50:04Z</time>
      </trkpt>
      <trkpt lat="44.70233" lon="7.05186">
        <ele>2466.2</ele>
        <time>2026-08-31T08:50:09Z</time>
      </trkpt>
      <trkpt lat="44.70229" lon="7.05185">
        <ele>2466.2</ele>
        <time>2026-08-31T08:50:14Z</time>
      </trkpt>
      <trkpt lat="44.70223" lon="7.05185">
        <ele>2466.4</ele>
        <time>2026-08-31T08:50:20Z</time>
      </trkpt>
      <trkpt lat="44.70218" lon="7.05187">
        <ele>2466.9</ele>
        <time>2026-08-31T08:50:25Z</time>
      </trkpt>
      <trkpt lat="44.70212" lon="7.05185">
        <ele>2466.7</ele>
        <time>2026-08-31T08:50:30Z</time>
      </trkpt>
      <trkpt lat="44.70206" lon="7.05186">
        <ele>2467.1</ele>
        <time>2026-08-31T08:50:36Z</time>
      </trkpt>
      <trkpt lat="44.70199" lon="7.05186">
        <ele>2467.3</ele>
        <time>2026-08-31T08:50:41Z</time>
      </trkpt>
      <trkpt lat="44.70194" lon="7.05188">
        <ele>2467.8</ele>
        <time>2026-08-31T08:50:46Z</time>
      </trkpt>
      <trkpt lat="44.70185" lon="7.05187">
        <ele>2467.9</ele>
        <time>2026-08-31T08:50:52Z</time>
      </trkpt>
      <trkpt lat="44.70179" lon="7.05187">
        <ele>2468.1</ele>
        <time>2026-08-31T08:50:57Z</time>
      </trkpt>
      <trkpt lat="44.70174" lon="7.05184">
        <ele>2467.8</ele>
        <time>2026-08-31T08:51:02Z</time>
      </trkpt>
      <trkpt lat="44.70168" lon="7.05182">
        <ele>2467.8</ele>
        <time>2026-08-31T08:51:08Z</time>
      </trkpt>
      <trkpt lat="44.70161" lon="7.05184">
        <ele>2467.8</ele>
        <time>2026-08-31T08:51:13Z</time>
      </trkpt>
      <trkpt lat="44.70156" lon="7.0518">
        <ele>2467.2</ele>
        <time>2026-08-31T08:51:18Z</time>
      </trkpt>
      <trkpt lat="44.70148" lon="7.05175">
        <ele>2466.3</ele>
        <time>2026-08-31T08:51:24Z</time>
      </trkpt>
      <trkpt lat="44.70141" lon="7.05175">
        <ele>2466</ele>
        <time>2026-08-31T08:51:29Z</time>
      </trkpt>
      <trkpt lat="44.70135" lon="7.05177">
        <ele>2466</ele>
        <time>2026-08-31T08:51:34Z</time>
      </trkpt>
      <trkpt lat="44.70129" lon="7.0518">
        <ele>2466.1</ele>
        <time>2026-08-31T08:51:40Z</time>
      </trkpt>
      <trkpt lat="44.70124" lon="7.05179">
        <ele>2465.8</ele>
        <time>2026-08-31T08:51:45Z</time>
      </trkpt>
      <trkpt lat="44.70119" lon="7.05178">
        <ele>2465.5</ele>
        <time>2026-08-31T08:51:50Z</time>
      </trkpt>
      <trkpt lat="44.70113" lon="7.05176">
        <ele>2465</ele>
        <time>2026-08-31T08:51:56Z</time>
      </trkpt>
      <trkpt lat="44.70108" lon="7.05173">
        <ele>2464.5</ele>
        <time>2026-08-31T08:52:01Z</time>
      </trkpt>
      <trkpt lat="44.70104" lon="7.0517">
        <ele>2464.1</ele>
        <time>2026-08-31T08:52:06Z</time>
      </trkpt>
      <trkpt lat="44.701" lon="7.05167">
        <ele>2463.6</ele>
        <time>2026-08-31T08:52:12Z</time>
      </trkpt>
      <trkpt lat="44.70097" lon="7.05165">
        <ele>2463.2</ele>
        <time>2026-08-31T08:52:17Z</time>
      </trkpt>
      <trkpt lat="44.70096" lon="7.05164">
        <ele>2463</ele>
        <time>2026-08-31T08:52:22Z</time>
      </trkpt>
      <trkpt lat="44.70092" lon="7.05163">
        <ele>2462.6</ele>
        <time>2026-08-31T08:52:28Z</time>
      </trkpt>
      <trkpt lat="44.70091" lon="7.05163">
        <ele>2462.6</ele>
        <time>2026-08-31T08:52:33Z</time>
      </trkpt>
      <trkpt lat="44.70089" lon="7.05162">
        <ele>2462.3</ele>
        <time>2026-08-31T08:52:38Z</time>
      </trkpt>
      <trkpt lat="44.70083" lon="7.05159">
        <ele>2461.3</ele>
        <time>2026-08-31T08:52:44Z</time>
      </trkpt>
      <trkpt lat="44.70079" lon="7.05156">
        <ele>2459.6</ele>
        <time>2026-08-31T08:52:49Z</time>
      </trkpt>
      <trkpt lat="44.70075" lon="7.05155">
        <ele>2458.2</ele>
        <time>2026-08-31T08:52:54Z</time>
      </trkpt>
      <trkpt lat="44.7007" lon="7.05155">
        <ele>2456.8</ele>
        <time>2026-08-31T08:53:00Z</time>
      </trkpt>
      <trkpt lat="44.70065" lon="7.05156">
        <ele>2455.5</ele>
        <time>2026-08-31T08:53:05Z</time>
      </trkpt>
      <trkpt lat="44.70062" lon="7.05158">
        <ele>2455.1</ele>
        <time>2026-08-31T08:53:10Z</time>
      </trkpt>
      <trkpt lat="44.70057" lon="7.05161">
        <ele>2454.3</ele>
        <time>2026-08-31T08:53:16Z</time>
      </trkpt>
      <trkpt lat="44.70053" lon="7.05163">
        <ele>2453.5</ele>
        <time>2026-08-31T08:53:21Z</time>
      </trkpt>
      <trkpt lat="44.70049" lon="7.05164">
        <ele>2452.6</ele>
        <time>2026-08-31T08:53:26Z</time>
      </trkpt>
      <trkpt lat="44.70046" lon="7.05171">
        <ele>2452.9</ele>
        <time>2026-08-31T08:53:32Z</time>
      </trkpt>
      <trkpt lat="44.70044" lon="7.05171">
        <ele>2452.3</ele>
        <time>2026-08-31T08:53:37Z</time>
      </trkpt>
      <trkpt lat="44.70043" lon="7.05165">
        <ele>2451</ele>
        <time>2026-08-31T08:53:42Z</time>
      </trkpt>
      <trkpt lat="44.70042" lon="7.05164">
        <ele>2450.6</ele>
        <time>2026-08-31T08:53:48Z</time>
      </trkpt>
      <trkpt lat="44.70042" lon="7.05164">
        <ele>2450.6</ele>
        <time>2026-08-31T08:53:53Z</time>
      </trkpt>
      <trkpt lat="44.70042" lon="7.05164">
        <ele>2450.6</ele>
        <time>2026-08-31T08:53:58Z</time>
      </trkpt>
      <trkpt lat="44.70042" lon="7.05164">
        <ele>2450.6</ele>
        <time>2026-08-31T08:54:04Z</time>
      </trkpt>
      <trkpt lat="44.70042" lon="7.05164">
        <ele>2450.6</ele>
        <time>2026-08-31T08:54:09Z</time>
      </trkpt>
      <trkpt lat="44.70042" lon="7.05164">
        <ele>2450.6</ele>
        <time>2026-08-31T08:54:14Z</time>
      </trkpt>
      <trkpt lat="44.70042" lon="7.05164">
        <ele>2450.6</ele>
        <time>2026-08-31T08:54:20Z</time>
      </trkpt>
      <trkpt lat="44.70042" lon="7.05164">
        <ele>2450.6</ele>
        <time>2026-08-31T08:54:25Z</time>
      </trkpt>
      <trkpt lat="44.70042" lon="7.05164">
        <ele>2450.6</ele>
        <time>2026-08-31T08:54:30Z</time>
      </trkpt>
      <trkpt lat="44.70042" lon="7.05164">
        <ele>2450.6</ele>
        <time>2026-08-31T08:54:36Z</time>
      </trkpt>
      <trkpt lat="44.70042" lon="7.05164">
        <ele>2450.6</ele>
        <time>2026-08-31T08:54:41Z</time>
      </trkpt>
      <trkpt lat="44.70042" lon="7.05164">
        <ele>2450.6</ele>
        <time>2026-08-31T08:54:46Z</time>
      </trkpt>
      <trkpt lat="44.70042" lon="7.05164">
        <ele>2450.6</ele>
        <time>2026-08-31T08:54:52Z</time>
      </trkpt>
      <trkpt lat="44.70042" lon="7.05164">
        <ele>2450.6</ele>
        <time>2026-08-31T08:54:57Z</time>
      </trkpt>
      <trkpt lat="44.70042" lon="7.05164">
        <ele>2450.6</ele>
        <time>2026-08-31T08:55:02Z</time>
      </trkpt>
      <trkpt lat="44.70042" lon="7.05164">
        <ele>2450.6</ele>
        <time>2026-08-31T08:55:08Z</time>
      </trkpt>
      <trkpt lat="44.70042" lon="7.05164">
        <ele>2450.6</ele>
        <time>2026-08-31T08:55:13Z</time>
      </trkpt>
      <trkpt lat="44.70042" lon="7.05164">
        <ele>2450.6</ele>
        <time>2026-08-31T08:55:18Z</time>
      </trkpt>
      <trkpt lat="44.70042" lon="7.05164">
        <ele>2450.6</ele>
        <time>2026-08-31T08:55:24Z</time>
      </trkpt>
      <trkpt lat="44.70042" lon="7.05164">
        <ele>2450.6</ele>
        <time>2026-08-31T08:55:29Z</time>
      </trkpt>
      <trkpt lat="44.70042" lon="7.05164">
        <ele>2450.6</ele>
        <time>2026-08-31T08:55:34Z</time>
      </trkpt>
      <trkpt lat="44.70042" lon="7.05164">
        <ele>2450.6</ele>
        <time>2026-08-31T08:55:40Z</time>
      </trkpt>
      <trkpt lat="44.70042" lon="7.05164">
        <ele>2450.6</ele>
        <time>2026-08-31T08:55:45Z</time>
      </trkpt>
      <trkpt lat="44.70042" lon="7.05164">
        <ele>2450.6</ele>
        <time>2026-08-31T08:55:50Z</time>
      </trkpt>
      <trkpt lat="44.70043" lon="7.05164">
        <ele>2450.8</ele>
        <time>2026-08-31T08:55:56Z</time>
      </trkpt>
      <trkpt lat="44.70043" lon="7.05164">
        <ele>2450.8</ele>
        <time>2026-08-31T08:56:01Z</time>
      </trkpt>
      <trkpt lat="44.70045" lon="7.05164">
        <ele>2451.4</ele>
        <time>2026-08-31T08:56:06Z</time>
      </trkpt>
      <trkpt lat="44.70045" lon="7.05164">
        <ele>2451.4</ele>
        <time>2026-08-31T08:56:12Z</time>
      </trkpt>
      <trkpt lat="44.70045" lon="7.05164">
        <ele>2451.4</ele>
        <time>2026-08-31T08:56:17Z</time>
      </trkpt>
      <trkpt lat="44.70045" lon="7.05164">
        <ele>2451.4</ele>
        <time>2026-08-31T08:56:22Z</time>
      </trkpt>
      <trkpt lat="44.70045" lon="7.05164">
        <ele>2451.4</ele>
        <time>2026-08-31T08:56:28Z</time>
      </trkpt>
      <trkpt lat="44.70045" lon="7.05164">
        <ele>2451.4</ele>
        <time>2026-08-31T08:56:33Z</time>
      </trkpt>
      <trkpt lat="44.70045" lon="7.05164">
        <ele>2451.4</ele>
        <time>2026-08-31T08:56:38Z</time>
      </trkpt>
      <trkpt lat="44.70045" lon="7.05164">
        <ele>2451.4</ele>
        <time>2026-08-31T08:56:44Z</time>
      </trkpt>
      <trkpt lat="44.70045" lon="7.05164">
        <ele>2451.4</ele>
        <time>2026-08-31T08:56:49Z</time>
      </trkpt>
      <trkpt lat="44.70045" lon="7.05164">
        <ele>2451.4</ele>
        <time>2026-08-31T08:56:54Z</time>
      </trkpt>
      <trkpt lat="44.70045" lon="7.05164">
        <ele>2451.4</ele>
        <time>2026-08-31T08:57:00Z</time>
      </trkpt>
      <trkpt lat="44.70045" lon="7.05164">
        <ele>2451.4</ele>
        <time>2026-08-31T08:57:05Z</time>
      </trkpt>
      <trkpt lat="44.70045" lon="7.05164">
        <ele>2451.4</ele>
        <time>2026-08-31T08:57:10Z</time>
      </trkpt>
      <trkpt lat="44.70045" lon="7.05164">
        <ele>2451.4</ele>
        <time>2026-08-31T08:57:16Z</time>
      </trkpt>
      <trkpt lat="44.70045" lon="7.05164">
        <ele>2451.4</ele>
        <time>2026-08-31T08:57:21Z</time>
      </trkpt>
      <trkpt lat="44.70045" lon="7.05164">
        <ele>2451.4</ele>
        <time>2026-08-31T08:57:26Z</time>
      </trkpt>
      <trkpt lat="44.70045" lon="7.05164">
        <ele>2451.4</ele>
        <time>2026-08-31T08:57:32Z</time>
      </trkpt>
      <trkpt lat="44.70045" lon="7.05164">
        <ele>2451.4</ele>
        <time>2026-08-31T08:57:37Z</time>
      </trkpt>
      <trkpt lat="44.70045" lon="7.05164">
        <ele>2451.4</ele>
        <time>2026-08-31T08:57:42Z</time>
      </trkpt>
      <trkpt lat="44.70045" lon="7.05164">
        <ele>2451.4</ele>
        <time>2026-08-31T08:57:48Z</time>
      </trkpt>
      <trkpt lat="44.70045" lon="7.05164">
        <ele>2451.4</ele>
        <time>2026-08-31T08:57:53Z</time>
      </trkpt>
      <trkpt lat="44.70045" lon="7.05164">
        <ele>2451.4</ele>
        <time>2026-08-31T08:57:58Z</time>
      </trkpt>
      <trkpt lat="44.70045" lon="7.05164">
        <ele>2451.4</ele>
        <time>2026-08-31T08:58:04Z</time>
      </trkpt>
      <trkpt lat="44.70045" lon="7.05164">
        <ele>2451.4</ele>
        <time>2026-08-31T08:58:09Z</time>
      </trkpt>
      <trkpt lat="44.70045" lon="7.05164">
        <ele>2451.4</ele>
        <time>2026-08-31T08:58:14Z</time>
      </trkpt>
      <trkpt lat="44.70045" lon="7.05164">
        <ele>2451.4</ele>
        <time>2026-08-31T08:58:20Z</time>
      </trkpt>
      <trkpt lat="44.70045" lon="7.05164">
        <ele>2451.4</ele>
        <time>2026-08-31T08:58:25Z</time>
      </trkpt>
      <trkpt lat="44.70045" lon="7.05164">
        <ele>2451.4</ele>
        <time>2026-08-31T08:58:30Z</time>
      </trkpt>
      <trkpt lat="44.70045" lon="7.05164">
        <ele>2451.4</ele>
        <time>2026-08-31T08:58:36Z</time>
      </trkpt>
      <trkpt lat="44.70045" lon="7.05164">
        <ele>2451.4</ele>
        <time>2026-08-31T08:58:41Z</time>
      </trkpt>
      <trkpt lat="44.70045" lon="7.05164">
        <ele>2451.4</ele>
        <time>2026-08-31T08:58:46Z</time>
      </trkpt>
      <trkpt lat="44.70045" lon="7.05164">
        <ele>2451.4</ele>
        <time>2026-08-31T08:58:52Z</time>
      </trkpt>
      <trkpt lat="44.70045" lon="7.05164">
        <ele>2451.4</ele>
        <time>2026-08-31T08:58:57Z</time>
      </trkpt>
      <trkpt lat="44.70045" lon="7.05164">
        <ele>2451.4</ele>
        <time>2026-08-31T08:59:02Z</time>
      </trkpt>
      <trkpt lat="44.70045" lon="7.05164">
        <ele>2451.4</ele>
        <time>2026-08-31T08:59:08Z</time>
      </trkpt>
      <trkpt lat="44.70045" lon="7.05164">
        <ele>2451.4</ele>
        <time>2026-08-31T08:59:13Z</time>
      </trkpt>
      <trkpt lat="44.70045" lon="7.05164">
        <ele>2451.4</ele>
        <time>2026-08-31T08:59:18Z</time>
      </trkpt>
      <trkpt lat="44.70045" lon="7.05164">
        <ele>2451.4</ele>
        <time>2026-08-31T08:59:24Z</time>
      </trkpt>
      <trkpt lat="44.70045" lon="7.05164">
        <ele>2451.4</ele>
        <time>2026-08-31T08:59:29Z</time>
      </trkpt>
      <trkpt lat="44.70045" lon="7.05164">
        <ele>2451.4</ele>
        <time>2026-08-31T08:59:34Z</time>
      </trkpt>
      <trkpt lat="44.70045" lon="7.05164">
        <ele>2451.4</ele>
        <time>2026-08-31T08:59:40Z</time>
      </trkpt>
      <trkpt lat="44.70045" lon="7.05164">
        <ele>2451.4</ele>
        <time>2026-08-31T08:59:45Z</time>
      </trkpt>
      <trkpt lat="44.70045" lon="7.05164">
        <ele>2451.4</ele>
        <time>2026-08-31T08:59:50Z</time>
      </trkpt>
      <trkpt lat="44.70045" lon="7.05164">
        <ele>2451.4</ele>
        <time>2026-08-31T08:59:56Z</time>
      </trkpt>
      <trkpt lat="44.70045" lon="7.05164">
        <ele>2451.4</ele>
        <time>2026-08-31T09:00:01Z</time>
      </trkpt>
      <trkpt lat="44.70045" lon="7.05164">
        <ele>2451.4</ele>
        <time>2026-08-31T09:00:06Z</time>
      </trkpt>
      <trkpt lat="44.70045" lon="7.05164">
        <ele>2451.4</ele>
        <time>2026-08-31T09:00:12Z</time>
      </trkpt>
      <trkpt lat="44.70045" lon="7.05164">
        <ele>2451.4</ele>
        <time>2026-08-31T09:00:17Z</time>
      </trkpt>
      <trkpt lat="44.70045" lon="7.05164">
        <ele>2451.4</ele>
        <time>2026-08-31T09:00:22Z</time>
      </trkpt>
      <trkpt lat="44.70045" lon="7.05164">
        <ele>2451.4</ele>
        <time>2026-08-31T09:00:28Z</time>
      </trkpt>
      <trkpt lat="44.70045" lon="7.05164">
        <ele>2451.4</ele>
        <time>2026-08-31T09:00:33Z</time>
      </trkpt>
      <trkpt lat="44.70045" lon="7.05164">
        <ele>2451.4</ele>
        <time>2026-08-31T09:00:38Z</time>
      </trkpt>
      <trkpt lat="44.70045" lon="7.05164">
        <ele>2451.4</ele>
        <time>2026-08-31T09:00:44Z</time>
      </trkpt>
      <trkpt lat="44.70045" lon="7.05164">
        <ele>2451.4</ele>
        <time>2026-08-31T09:00:49Z</time>
      </trkpt>
      <trkpt lat="44.70045" lon="7.05164">
        <ele>2451.4</ele>
        <time>2026-08-31T09:00:54Z</time>
      </trkpt>
      <trkpt lat="44.70045" lon="7.05164">
        <ele>2451.4</ele>
        <time>2026-08-31T09:01:00Z</time>
      </trkpt>
      <trkpt lat="44.70045" lon="7.05164">
        <ele>2451.4</ele>
        <time>2026-08-31T09:01:05Z</time>
      </trkpt>
      <trkpt lat="44.70045" lon="7.05164">
        <ele>2451.4</ele>
        <time>2026-08-31T09:01:10Z</time>
      </trkpt>
      <trkpt lat="44.70045" lon="7.05164">
        <ele>2451.4</ele>
        <time>2026-08-31T09:01:16Z</time>
      </trkpt>
      <trkpt lat="44.70045" lon="7.05164">
        <ele>2451.4</ele>
        <time>2026-08-31T09:01:21Z</time>
      </trkpt>
      <trkpt lat="44.70045" lon="7.05164">
        <ele>2451.4</ele>
        <time>2026-08-31T09:01:26Z</time>
      </trkpt>
      <trkpt lat="44.70045" lon="7.05164">
        <ele>2451.4</ele>
        <time>2026-08-31T09:01:32Z</time>
      </trkpt>
      <trkpt lat="44.70045" lon="7.05164">
        <ele>2451.4</ele>
        <time>2026-08-31T09:01:37Z</time>
      </trkpt>
      <trkpt lat="44.70045" lon="7.05164">
        <ele>2451.4</ele>
        <time>2026-08-31T09:01:42Z</time>
      </trkpt>
      <trkpt lat="44.70045" lon="7.05164">
        <ele>2451.4</ele>
        <time>2026-08-31T09:01:48Z</time>
      </trkpt>
      <trkpt lat="44.70045" lon="7.05164">
        <ele>2451.4</ele>
        <time>2026-08-31T09:01:53Z</time>
      </trkpt>
      <trkpt lat="44.70045" lon="7.05164">
        <ele>2451.4</ele>
        <time>2026-08-31T09:01:58Z</time>
      </trkpt>
      <trkpt lat="44.70045" lon="7.05164">
        <ele>2451.4</ele>
        <time>2026-08-31T09:02:04Z</time>
      </trkpt>
      <trkpt lat="44.70045" lon="7.05164">
        <ele>2451.4</ele>
        <time>2026-08-31T09:02:09Z</time>
      </trkpt>
      <trkpt lat="44.70045" lon="7.05164">
        <ele>2451.4</ele>
        <time>2026-08-31T09:02:14Z</time>
      </trkpt>
      <trkpt lat="44.70045" lon="7.05164">
        <ele>2451.4</ele>
        <time>2026-08-31T09:02:20Z</time>
      </trkpt>
      <trkpt lat="44.70045" lon="7.05164">
        <ele>2451.4</ele>
        <time>2026-08-31T09:02:25Z</time>
      </trkpt>
      <trkpt lat="44.70045" lon="7.05164">
        <ele>2451.4</ele>
        <time>2026-08-31T09:02:30Z</time>
      </trkpt>
      <trkpt lat="44.70045" lon="7.05164">
        <ele>2451.4</ele>
        <time>2026-08-31T09:02:36Z</time>
      </trkpt>
      <trkpt lat="44.70045" lon="7.05164">
        <ele>2451.4</ele>
        <time>2026-08-31T09:02:41Z</time>
      </trkpt>
      <trkpt lat="44.70045" lon="7.05164">
        <ele>2451.4</ele>
        <time>2026-08-31T09:02:46Z</time>
      </trkpt>
      <trkpt lat="44.70045" lon="7.05164">
        <ele>2451.4</ele>
        <time>2026-08-31T09:02:52Z</time>
      </trkpt>
      <trkpt lat="44.70045" lon="7.05164">
        <ele>2451.4</ele>
        <time>2026-08-31T09:02:57Z</time>
      </trkpt>
      <trkpt lat="44.70045" lon="7.05164">
        <ele>2451.4</ele>
        <time>2026-08-31T09:03:02Z</time>
      </trkpt>
      <trkpt lat="44.70045" lon="7.05164">
        <ele>2451.4</ele>
        <time>2026-08-31T09:03:08Z</time>
      </trkpt>
      <trkpt lat="44.70045" lon="7.05164">
        <ele>2451.4</ele>
        <time>2026-08-31T09:03:13Z</time>
      </trkpt>
      <trkpt lat="44.70045" lon="7.05164">
        <ele>2451.4</ele>
        <time>2026-08-31T09:03:18Z</time>
      </trkpt>
      <trkpt lat="44.70045" lon="7.05164">
        <ele>2451.4</ele>
        <time>2026-08-31T09:03:24Z</time>
      </trkpt>
      <trkpt lat="44.70045" lon="7.05164">
        <ele>2451.4</ele>
        <time>2026-08-31T09:03:29Z</time>
      </trkpt>
      <trkpt lat="44.70045" lon="7.05164">
        <ele>2451.4</ele>
        <time>2026-08-31T09:03:34Z</time>
      </trkpt>
      <trkpt lat="44.70045" lon="7.05164">
        <ele>2451.4</ele>
        <time>2026-08-31T09:03:40Z</time>
      </trkpt>
      <trkpt lat="44.70045" lon="7.05164">
        <ele>2451.4</ele>
        <time>2026-08-31T09:03:45Z</time>
      </trkpt>
      <trkpt lat="44.70045" lon="7.05164">
        <ele>2451.4</ele>
        <time>2026-08-31T09:03:50Z</time>
      </trkpt>
      <trkpt lat="44.70045" lon="7.05164">
        <ele>2451.4</ele>
        <time>2026-08-31T09:03:56Z</time>
      </trkpt>
      <trkpt lat="44.70045" lon="7.05164">
        <ele>2451.4</ele>
        <time>2026-08-31T09:04:01Z</time>
      </trkpt>
      <trkpt lat="44.70045" lon="7.05164">
        <ele>2451.4</ele>
        <time>2026-08-31T09:04:06Z</time>
      </trkpt>
      <trkpt lat="44.70045" lon="7.05164">
        <ele>2451.4</ele>
        <time>2026-08-31T09:04:12Z</time>
      </trkpt>
      <trkpt lat="44.70045" lon="7.05164">
        <ele>2451.4</ele>
        <time>2026-08-31T09:04:17Z</time>
      </trkpt>
      <trkpt lat="44.70045" lon="7.05164">
        <ele>2451.4</ele>
        <time>2026-08-31T09:04:22Z</time>
      </trkpt>
      <trkpt lat="44.70045" lon="7.05164">
        <ele>2451.4</ele>
        <time>2026-08-31T09:04:28Z</time>
      </trkpt>
      <trkpt lat="44.70045" lon="7.05164">
        <ele>2451.4</ele>
        <time>2026-08-31T09:04:33Z</time>
      </trkpt>
      <trkpt lat="44.70045" lon="7.05164">
        <ele>2451.4</ele>
        <time>2026-08-31T09:04:38Z</time>
      </trkpt>
      <trkpt lat="44.70045" lon="7.05164">
        <ele>2451.4</ele>
        <time>2026-08-31T09:04:44Z</time>
      </trkpt>
      <trkpt lat="44.70045" lon="7.05164">
        <ele>2451.4</ele>
        <time>2026-08-31T09:04:49Z</time>
      </trkpt>
      <trkpt lat="44.70045" lon="7.05164">
        <ele>2451.4</ele>
        <time>2026-08-31T09:04:54Z</time>
      </trkpt>
      <trkpt lat="44.70045" lon="7.05164">
        <ele>2451.4</ele>
        <time>2026-08-31T09:05:00Z</time>
      </trkpt>
      <trkpt lat="44.70045" lon="7.05164">
        <ele>2451.4</ele>
        <time>2026-08-31T09:05:05Z</time>
      </trkpt>
      <trkpt lat="44.70045" lon="7.05164">
        <ele>2451.4</ele>
        <time>2026-08-31T09:05:10Z</time>
      </trkpt>
      <trkpt lat="44.70045" lon="7.05164">
        <ele>2451.4</ele>
        <time>2026-08-31T09:05:16Z</time>
      </trkpt>
      <trkpt lat="44.70045" lon="7.05164">
        <ele>2451.4</ele>
        <time>2026-08-31T09:05:21Z</time>
      </trkpt>
      <trkpt lat="44.70045" lon="7.05164">
        <ele>2451.4</ele>
        <time>2026-08-31T09:05:26Z</time>
      </trkpt>
      <trkpt lat="44.70045" lon="7.05164">
        <ele>2451.4</ele>
        <time>2026-08-31T09:05:32Z</time>
      </trkpt>
      <trkpt lat="44.70045" lon="7.05164">
        <ele>2451.4</ele>
        <time>2026-08-31T09:05:37Z</time>
      </trkpt>
      <trkpt lat="44.70045" lon="7.05164">
        <ele>2451.4</ele>
        <time>2026-08-31T09:05:42Z</time>
      </trkpt>
      <trkpt lat="44.70045" lon="7.05164">
        <ele>2451.4</ele>
        <time>2026-08-31T09:05:48Z</time>
      </trkpt>
      <trkpt lat="44.70045" lon="7.05164">
        <ele>2451.4</ele>
        <time>2026-08-31T09:05:53Z</time>
      </trkpt>
      <trkpt lat="44.70045" lon="7.05164">
        <ele>2451.4</ele>
        <time>2026-08-31T09:05:58Z</time>
      </trkpt>
      <trkpt lat="44.70045" lon="7.05164">
        <ele>2451.4</ele>
        <time>2026-08-31T09:06:04Z</time>
      </trkpt>
      <trkpt lat="44.70045" lon="7.05164">
        <ele>2451.4</ele>
        <time>2026-08-31T09:06:09Z</time>
      </trkpt>
      <trkpt lat="44.70045" lon="7.05164">
        <ele>2451.4</ele>
        <time>2026-08-31T09:06:14Z</time>
      </trkpt>
      <trkpt lat="44.70045" lon="7.05164">
        <ele>2451.4</ele>
        <time>2026-08-31T09:06:20Z</time>
      </trkpt>
      <trkpt lat="44.70045" lon="7.05164">
        <ele>2451.4</ele>
        <time>2026-08-31T09:06:25Z</time>
      </trkpt>
      <trkpt lat="44.70045" lon="7.05164">
        <ele>2451.4</ele>
        <time>2026-08-31T09:06:30Z</time>
      </trkpt>
      <trkpt lat="44.70045" lon="7.05164">
        <ele>2451.4</ele>
        <time>2026-08-31T09:06:36Z</time>
      </trkpt>
      <trkpt lat="44.70045" lon="7.05164">
        <ele>2451.4</ele>
        <time>2026-08-31T09:06:41Z</time>
      </trkpt>
      <trkpt lat="44.70045" lon="7.05164">
        <ele>2451.4</ele>
        <time>2026-08-31T09:06:46Z</time>
      </trkpt>
      <trkpt lat="44.70045" lon="7.05164">
        <ele>2451.4</ele>
        <time>2026-08-31T09:06:52Z</time>
      </trkpt>
      <trkpt lat="44.70045" lon="7.05164">
        <ele>2451.4</ele>
        <time>2026-08-31T09:06:57Z</time>
      </trkpt>
      <trkpt lat="44.70045" lon="7.05164">
        <ele>2451.4</ele>
        <time>2026-08-31T09:07:02Z</time>
      </trkpt>
      <trkpt lat="44.70045" lon="7.05164">
        <ele>2451.4</ele>
        <time>2026-08-31T09:07:08Z</time>
      </trkpt>
      <trkpt lat="44.70045" lon="7.05164">
        <ele>2451.4</ele>
        <time>2026-08-31T09:07:13Z</time>
      </trkpt>
      <trkpt lat="44.70045" lon="7.05164">
        <ele>2451.4</ele>
        <time>2026-08-31T09:07:18Z</time>
      </trkpt>
      <trkpt lat="44.70045" lon="7.05164">
        <ele>2451.4</ele>
        <time>2026-08-31T09:07:24Z</time>
      </trkpt>
      <trkpt lat="44.70045" lon="7.05164">
        <ele>2451.4</ele>
        <time>2026-08-31T09:07:29Z</time>
      </trkpt>
      <trkpt lat="44.70045" lon="7.05164">
        <ele>2451.4</ele>
        <time>2026-08-31T09:07:34Z</time>
      </trkpt>
      <trkpt lat="44.70045" lon="7.05164">
        <ele>2451.4</ele>
        <time>2026-08-31T09:07:40Z</time>
      </trkpt>
      <trkpt lat="44.70045" lon="7.05164">
        <ele>2451.4</ele>
        <time>2026-08-31T09:07:45Z</time>
      </trkpt>
      <trkpt lat="44.70045" lon="7.05164">
        <ele>2451.4</ele>
        <time>2026-08-31T09:07:50Z</time>
      </trkpt>
      <trkpt lat="44.70045" lon="7.05164">
        <ele>2451.4</ele>
        <time>2026-08-31T09:07:56Z</time>
      </trkpt>
      <trkpt lat="44.70045" lon="7.05164">
        <ele>2451.4</ele>
        <time>2026-08-31T09:08:01Z</time>
      </trkpt>
      <trkpt lat="44.70045" lon="7.05164">
        <ele>2451.4</ele>
        <time>2026-08-31T09:08:06Z</time>
      </trkpt>
      <trkpt lat="44.70045" lon="7.05164">
        <ele>2451.4</ele>
        <time>2026-08-31T09:08:12Z</time>
      </trkpt>
      <trkpt lat="44.70045" lon="7.05164">
        <ele>2451.4</ele>
        <time>2026-08-31T09:08:17Z</time>
      </trkpt>
      <trkpt lat="44.70045" lon="7.05164">
        <ele>2451.4</ele>
        <time>2026-08-31T09:08:22Z</time>
      </trkpt>
      <trkpt lat="44.70045" lon="7.05164">
        <ele>2451.4</ele>
        <time>2026-08-31T09:08:28Z</time>
      </trkpt>
      <trkpt lat="44.70045" lon="7.05164">
        <ele>2451.4</ele>
        <time>2026-08-31T09:08:33Z</time>
      </trkpt>
      <trkpt lat="44.70045" lon="7.05164">
        <ele>2451.4</ele>
        <time>2026-08-31T09:08:38Z</time>
      </trkpt>
      <trkpt lat="44.70045" lon="7.05164">
        <ele>2451.4</ele>
        <time>2026-08-31T09:08:44Z</time>
      </trkpt>
      <trkpt lat="44.70045" lon="7.05164">
        <ele>2451.4</ele>
        <time>2026-08-31T09:08:49Z</time>
      </trkpt>
      <trkpt lat="44.70045" lon="7.05164">
        <ele>2451.4</ele>
        <time>2026-08-31T09:08:54Z</time>
      </trkpt>
      <trkpt lat="44.70045" lon="7.05164">
        <ele>2451.4</ele>
        <time>2026-08-31T09:09:00Z</time>
      </trkpt>
      <trkpt lat="44.70045" lon="7.05164">
        <ele>2451.4</ele>
        <time>2026-08-31T09:09:05Z</time>
      </trkpt>
      <trkpt lat="44.70045" lon="7.05164">
        <ele>2451.4</ele>
        <time>2026-08-31T09:09:10Z</time>
      </trkpt>
      <trkpt lat="44.70045" lon="7.05164">
        <ele>2451.4</ele>
        <time>2026-08-31T09:09:16Z</time>
      </trkpt>
      <trkpt lat="44.70045" lon="7.05164">
        <ele>2451.4</ele>
        <time>2026-08-31T09:09:21Z</time>
      </trkpt>
      <trkpt lat="44.70045" lon="7.05164">
        <ele>2451.4</ele>
        <time>2026-08-31T09:09:26Z</time>
      </trkpt>
      <trkpt lat="44.70045" lon="7.05164">
        <ele>2451.4</ele>
        <time>2026-08-31T09:09:32Z</time>
      </trkpt>
      <trkpt lat="44.70045" lon="7.05164">
        <ele>2451.4</ele>
        <time>2026-08-31T09:09:37Z</time>
      </trkpt>
      <trkpt lat="44.70045" lon="7.05164">
        <ele>2451.4</ele>
        <time>2026-08-31T09:09:42Z</time>
      </trkpt>
      <trkpt lat="44.70045" lon="7.05164">
        <ele>2451.4</ele>
        <time>2026-08-31T09:09:48Z</time>
      </trkpt>
      <trkpt lat="44.70045" lon="7.05164">
        <ele>2451.4</ele>
        <time>2026-08-31T09:09:53Z</time>
      </trkpt>
      <trkpt lat="44.70045" lon="7.05164">
        <ele>2451.4</ele>
        <time>2026-08-31T09:09:58Z</time>
      </trkpt>
      <trkpt lat="44.70045" lon="7.05164">
        <ele>2451.4</ele>
        <time>2026-08-31T09:10:04Z</time>
      </trkpt>
      <trkpt lat="44.70045" lon="7.05164">
        <ele>2451.4</ele>
        <time>2026-08-31T09:10:09Z</time>
      </trkpt>
      <trkpt lat="44.70045" lon="7.05164">
        <ele>2451.4</ele>
        <time>2026-08-31T09:10:14Z</time>
      </trkpt>
      <trkpt lat="44.70045" lon="7.05164">
        <ele>2451.4</ele>
        <time>2026-08-31T09:10:20Z</time>
      </trkpt>
      <trkpt lat="44.70045" lon="7.05164">
        <ele>2451.4</ele>
        <time>2026-08-31T09:10:25Z</time>
      </trkpt>
      <trkpt lat="44.70045" lon="7.05164">
        <ele>2451.4</ele>
        <time>2026-08-31T09:10:30Z</time>
      </trkpt>
      <trkpt lat="44.70045" lon="7.05164">
        <ele>2451.4</ele>
        <time>2026-08-31T09:10:36Z</time>
      </trkpt>
      <trkpt lat="44.70045" lon="7.05164">
        <ele>2451.4</ele>
        <time>2026-08-31T09:10:41Z</time>
      </trkpt>
      <trkpt lat="44.70045" lon="7.05164">
        <ele>2451.4</ele>
        <time>2026-08-31T09:10:46Z</time>
      </trkpt>
      <trkpt lat="44.70045" lon="7.05164">
        <ele>2451.4</ele>
        <time>2026-08-31T09:10:52Z</time>
      </trkpt>
      <trkpt lat="44.70045" lon="7.05164">
        <ele>2451.4</ele>
        <time>2026-08-31T09:10:57Z</time>
      </trkpt>
      <trkpt lat="44.70045" lon="7.05164">
        <ele>2451.4</ele>
        <time>2026-08-31T09:11:02Z</time>
      </trkpt>
      <trkpt lat="44.70045" lon="7.05164">
        <ele>2451.4</ele>
        <time>2026-08-31T09:11:08Z</time>
      </trkpt>
      <trkpt lat="44.70045" lon="7.05164">
        <ele>2451.4</ele>
        <time>2026-08-31T09:11:13Z</time>
      </trkpt>
      <trkpt lat="44.70045" lon="7.05164">
        <ele>2451.4</ele>
        <time>2026-08-31T09:11:18Z</time>
      </trkpt>
      <trkpt lat="44.70045" lon="7.05164">
        <ele>2451.4</ele>
        <time>2026-08-31T09:11:24Z</time>
      </trkpt>
      <trkpt lat="44.70045" lon="7.05164">
        <ele>2451.4</ele>
        <time>2026-08-31T09:11:29Z</time>
      </trkpt>
      <trkpt lat="44.70045" lon="7.05164">
        <ele>2451.4</ele>
        <time>2026-08-31T09:11:34Z</time>
      </trkpt>
      <trkpt lat="44.70045" lon="7.05164">
        <ele>2451.4</ele>
        <time>2026-08-31T09:11:40Z</time>
      </trkpt>
      <trkpt lat="44.70045" lon="7.05164">
        <ele>2451.4</ele>
        <time>2026-08-31T09:11:45Z</time>
      </trkpt>
      <trkpt lat="44.70045" lon="7.05164">
        <ele>2451.4</ele>
        <time>2026-08-31T09:11:50Z</time>
      </trkpt>
      <trkpt lat="44.70045" lon="7.05164">
        <ele>2451.4</ele>
        <time>2026-08-31T09:11:56Z</time>
      </trkpt>
      <trkpt lat="44.70045" lon="7.05164">
        <ele>2451.4</ele>
        <time>2026-08-31T09:12:01Z</time>
      </trkpt>
      <trkpt lat="44.70045" lon="7.05164">
        <ele>2451.4</ele>
        <time>2026-08-31T09:12:06Z</time>
      </trkpt>
      <trkpt lat="44.70045" lon="7.05164">
        <ele>2451.4</ele>
        <time>2026-08-31T09:12:12Z</time>
      </trkpt>
      <trkpt lat="44.70045" lon="7.05164">
        <ele>2451.4</ele>
        <time>2026-08-31T09:12:17Z</time>
      </trkpt>
      <trkpt lat="44.70045" lon="7.05164">
        <ele>2451.4</ele>
        <time>2026-08-31T09:12:22Z</time>
      </trkpt>
      <trkpt lat="44.70045" lon="7.05164">
        <ele>2451.4</ele>
        <time>2026-08-31T09:12:28Z</time>
      </trkpt>
      <trkpt lat="44.70045" lon="7.05164">
        <ele>2451.4</ele>
        <time>2026-08-31T09:12:33Z</time>
      </trkpt>
      <trkpt lat="44.70045" lon="7.05164">
        <ele>2451.4</ele>
        <time>2026-08-31T09:12:38Z</time>
      </trkpt>
      <trkpt lat="44.70045" lon="7.05164">
        <ele>2451.4</ele>
        <time>2026-08-31T09:12:44Z</time>
      </trkpt>
      <trkpt lat="44.70045" lon="7.05164">
        <ele>2451.4</ele>
        <time>2026-08-31T09:12:49Z</time>
      </trkpt>
      <trkpt lat="44.70045" lon="7.05164">
        <ele>2451.4</ele>
        <time>2026-08-31T09:12:54Z</time>
      </trkpt>
      <trkpt lat="44.70045" lon="7.05164">
        <ele>2451.4</ele>
        <time>2026-08-31T09:13:00Z</time>
      </trkpt>
      <trkpt lat="44.70045" lon="7.05164">
        <ele>2451.4</ele>
        <time>2026-08-31T09:13:05Z</time>
      </trkpt>
      <trkpt lat="44.70045" lon="7.05164">
        <ele>2451.4</ele>
        <time>2026-08-31T09:13:10Z</time>
      </trkpt>
      <trkpt lat="44.70045" lon="7.05164">
        <ele>2451.4</ele>
        <time>2026-08-31T09:13:16Z</time>
      </trkpt>
      <trkpt lat="44.70045" lon="7.05164">
        <ele>2451.4</ele>
        <time>2026-08-31T09:13:21Z</time>
      </trkpt>
      <trkpt lat="44.70045" lon="7.05164">
        <ele>2451.4</ele>
        <time>2026-08-31T09:13:26Z</time>
      </trkpt>
      <trkpt lat="44.70045" lon="7.05164">
        <ele>2451.4</ele>
        <time>2026-08-31T09:13:32Z</time>
      </trkpt>
      <trkpt lat="44.70045" lon="7.05164">
        <ele>2451.4</ele>
        <time>2026-08-31T09:13:37Z</time>
      </trkpt>
      <trkpt lat="44.70045" lon="7.05164">
        <ele>2451.4</ele>
        <time>2026-08-31T09:13:42Z</time>
      </trkpt>
      <trkpt lat="44.70045" lon="7.05164">
        <ele>2451.4</ele>
        <time>2026-08-31T09:13:48Z</time>
      </trkpt>
      <trkpt lat="44.70045" lon="7.05164">
        <ele>2451.4</ele>
        <time>2026-08-31T09:13:53Z</time>
      </trkpt>
      <trkpt lat="44.70045" lon="7.05164">
        <ele>2451.4</ele>
        <time>2026-08-31T09:13:58Z</time>
      </trkpt>
      <trkpt lat="44.70045" lon="7.05164">
        <ele>2451.4</ele>
        <time>2026-08-31T09:14:04Z</time>
      </trkpt>
      <trkpt lat="44.70045" lon="7.05164">
        <ele>2451.4</ele>
        <time>2026-08-31T09:14:09Z</time>
      </trkpt>
      <trkpt lat="44.70045" lon="7.05164">
        <ele>2451.4</ele>
        <time>2026-08-31T09:14:14Z</time>
      </trkpt>
      <trkpt lat="44.70045" lon="7.05164">
        <ele>2451.4</ele>
        <time>2026-08-31T09:14:20Z</time>
      </trkpt>
      <trkpt lat="44.70045" lon="7.05164">
        <ele>2451.4</ele>
        <time>2026-08-31T09:14:25Z</time>
      </trkpt>
      <trkpt lat="44.70045" lon="7.05164">
        <ele>2451.4</ele>
        <time>2026-08-31T09:14:30Z</time>
      </trkpt>
      <trkpt lat="44.70045" lon="7.05164">
        <ele>2451.4</ele>
        <time>2026-08-31T09:14:36Z</time>
      </trkpt>
      <trkpt lat="44.70045" lon="7.05164">
        <ele>2451.4</ele>
        <time>2026-08-31T09:14:41Z</time>
      </trkpt>
      <trkpt lat="44.70045" lon="7.05164">
        <ele>2451.4</ele>
        <time>2026-08-31T09:14:46Z</time>
      </trkpt>
      <trkpt lat="44.70045" lon="7.05164">
        <ele>2451.4</ele>
        <time>2026-08-31T09:14:52Z</time>
      </trkpt>
      <trkpt lat="44.70045" lon="7.05164">
        <ele>2451.4</ele>
        <time>2026-08-31T09:14:57Z</time>
      </trkpt>
      <trkpt lat="44.70045" lon="7.05164">
        <ele>2451.4</ele>
        <time>2026-08-31T09:15:02Z</time>
      </trkpt>
      <trkpt lat="44.70045" lon="7.05164">
        <ele>2451.4</ele>
        <time>2026-08-31T09:15:08Z</time>
      </trkpt>
      <trkpt lat="44.70045" lon="7.05164">
        <ele>2451.4</ele>
        <time>2026-08-31T09:15:13Z</time>
      </trkpt>
      <trkpt lat="44.70045" lon="7.05164">
        <ele>2451.4</ele>
        <time>2026-08-31T09:15:18Z</time>
      </trkpt>
      <trkpt lat="44.70045" lon="7.05164">
        <ele>2451.4</ele>
        <time>2026-08-31T09:15:24Z</time>
      </trkpt>
      <trkpt lat="44.70045" lon="7.05164">
        <ele>2451.4</ele>
        <time>2026-08-31T09:15:29Z</time>
      </trkpt>
      <trkpt lat="44.70045" lon="7.05164">
        <ele>2451.4</ele>
        <time>2026-08-31T09:15:34Z</time>
      </trkpt>
      <trkpt lat="44.70045" lon="7.05164">
        <ele>2451.4</ele>
        <time>2026-08-31T09:15:40Z</time>
      </trkpt>
      <trkpt lat="44.70045" lon="7.05164">
        <ele>2451.4</ele>
        <time>2026-08-31T09:15:45Z</time>
      </trkpt>
      <trkpt lat="44.70045" lon="7.05164">
        <ele>2451.4</ele>
        <time>2026-08-31T09:15:50Z</time>
      </trkpt>
      <trkpt lat="44.70045" lon="7.05164">
        <ele>2451.4</ele>
        <time>2026-08-31T09:15:56Z</time>
      </trkpt>
      <trkpt lat="44.70045" lon="7.05164">
        <ele>2451.4</ele>
        <time>2026-08-31T09:16:01Z</time>
      </trkpt>
      <trkpt lat="44.70045" lon="7.05164">
        <ele>2451.4</ele>
        <time>2026-08-31T09:16:06Z</time>
      </trkpt>
      <trkpt lat="44.70045" lon="7.05164">
        <ele>2451.4</ele>
        <time>2026-08-31T09:16:12Z</time>
      </trkpt>
      <trkpt lat="44.70045" lon="7.05164">
        <ele>2451.4</ele>
        <time>2026-08-31T09:16:17Z</time>
      </trkpt>
      <trkpt lat="44.70045" lon="7.05164">
        <ele>2451.4</ele>
        <time>2026-08-31T09:16:22Z</time>
      </trkpt>
      <trkpt lat="44.70045" lon="7.05164">
        <ele>2451.4</ele>
        <time>2026-08-31T09:16:28Z</time>
      </trkpt>
      <trkpt lat="44.70045" lon="7.05164">
        <ele>2451.4</ele>
        <time>2026-08-31T09:16:33Z</time>
      </trkpt>
      <trkpt lat="44.70045" lon="7.05164">
        <ele>2451.4</ele>
        <time>2026-08-31T09:16:38Z</time>
      </trkpt>
      <trkpt lat="44.70045" lon="7.05164">
        <ele>2451.4</ele>
        <time>2026-08-31T09:16:44Z</time>
      </trkpt>
      <trkpt lat="44.70045" lon="7.05164">
        <ele>2451.4</ele>
        <time>2026-08-31T09:16:49Z</time>
      </trkpt>
      <trkpt lat="44.70045" lon="7.05164">
        <ele>2451.4</ele>
        <time>2026-08-31T09:16:54Z</time>
      </trkpt>
      <trkpt lat="44.70045" lon="7.05164">
        <ele>2451.4</ele>
        <time>2026-08-31T09:17:00Z</time>
      </trkpt>
      <trkpt lat="44.70045" lon="7.05164">
        <ele>2451.4</ele>
        <time>2026-08-31T09:17:05Z</time>
      </trkpt>
      <trkpt lat="44.70045" lon="7.05164">
        <ele>2451.4</ele>
        <time>2026-08-31T09:17:10Z</time>
      </trkpt>
      <trkpt lat="44.70045" lon="7.05164">
        <ele>2451.4</ele>
        <time>2026-08-31T09:17:16Z</time>
      </trkpt>
      <trkpt lat="44.70045" lon="7.05164">
        <ele>2451.4</ele>
        <time>2026-08-31T09:17:21Z</time>
      </trkpt>
      <trkpt lat="44.70045" lon="7.05164">
        <ele>2451.4</ele>
        <time>2026-08-31T09:17:26Z</time>
      </trkpt>
      <trkpt lat="44.70045" lon="7.05164">
        <ele>2451.4</ele>
        <time>2026-08-31T09:17:32Z</time>
      </trkpt>
      <trkpt lat="44.70045" lon="7.05164">
        <ele>2451.4</ele>
        <time>2026-08-31T09:17:37Z</time>
      </trkpt>
      <trkpt lat="44.70045" lon="7.05164">
        <ele>2451.4</ele>
        <time>2026-08-31T09:17:42Z</time>
      </trkpt>
      <trkpt lat="44.70045" lon="7.05164">
        <ele>2451.4</ele>
        <time>2026-08-31T09:17:48Z</time>
      </trkpt>
      <trkpt lat="44.70045" lon="7.05164">
        <ele>2451.4</ele>
        <time>2026-08-31T09:17:53Z</time>
      </trkpt>
      <trkpt lat="44.70045" lon="7.05164">
        <ele>2451.4</ele>
        <time>2026-08-31T09:17:58Z</time>
      </trkpt>
      <trkpt lat="44.70045" lon="7.05164">
        <ele>2451.4</ele>
        <time>2026-08-31T09:18:04Z</time>
      </trkpt>
      <trkpt lat="44.70045" lon="7.05164">
        <ele>2451.4</ele>
        <time>2026-08-31T09:18:09Z</time>
      </trkpt>
      <trkpt lat="44.70045" lon="7.05164">
        <ele>2451.4</ele>
        <time>2026-08-31T09:18:14Z</time>
      </trkpt>
      <trkpt lat="44.70045" lon="7.05164">
        <ele>2451.4</ele>
        <time>2026-08-31T09:18:20Z</time>
      </trkpt>
      <trkpt lat="44.70045" lon="7.05164">
        <ele>2451.4</ele>
        <time>2026-08-31T09:18:25Z</time>
      </trkpt>
      <trkpt lat="44.70045" lon="7.05164">
        <ele>2451.4</ele>
        <time>2026-08-31T09:18:30Z</time>
      </trkpt>
      <trkpt lat="44.70045" lon="7.05164">
        <ele>2451.4</ele>
        <time>2026-08-31T09:18:36Z</time>
      </trkpt>
      <trkpt lat="44.70045" lon="7.05164">
        <ele>2451.4</ele>
        <time>2026-08-31T09:18:41Z</time>
      </trkpt>
      <trkpt lat="44.70045" lon="7.05164">
        <ele>2451.4</ele>
        <time>2026-08-31T09:18:46Z</time>
      </trkpt>
      <trkpt lat="44.70045" lon="7.05164">
        <ele>2451.4</ele>
        <time>2026-08-31T09:18:52Z</time>
      </trkpt>
      <trkpt lat="44.70045" lon="7.05164">
        <ele>2451.4</ele>
        <time>2026-08-31T09:18:57Z</time>
      </trkpt>
      <trkpt lat="44.70045" lon="7.05164">
        <ele>2451.4</ele>
        <time>2026-08-31T09:19:02Z</time>
      </trkpt>
      <trkpt lat="44.70045" lon="7.05164">
        <ele>2451.4</ele>
        <time>2026-08-31T09:19:08Z</time>
      </trkpt>
      <trkpt lat="44.70045" lon="7.05164">
        <ele>2451.4</ele>
        <time>2026-08-31T09:19:13Z</time>
      </trkpt>
      <trkpt lat="44.70045" lon="7.05164">
        <ele>2451.4</ele>
        <time>2026-08-31T09:19:18Z</time>
      </trkpt>
      <trkpt lat="44.70045" lon="7.05164">
        <ele>2451.4</ele>
        <time>2026-08-31T09:19:24Z</time>
      </trkpt>
      <trkpt lat="44.70045" lon="7.05164">
        <ele>2451.4</ele>
        <time>2026-08-31T09:19:29Z</time>
      </trkpt>
      <trkpt lat="44.70045" lon="7.05164">
        <ele>2451.4</ele>
        <time>2026-08-31T09:19:34Z</time>
      </trkpt>
      <trkpt lat="44.70041" lon="7.05169">
        <ele>2451.2</ele>
        <time>2026-08-31T09:19:40Z</time>
      </trkpt>
      <trkpt lat="44.70037" lon="7.05174">
        <ele>2450.8</ele>
        <time>2026-08-31T09:19:45Z</time>
      </trkpt>
      <trkpt lat="44.70035" lon="7.05177">
        <ele>2450.8</ele>
        <time>2026-08-31T09:19:50Z</time>
      </trkpt>
      <trkpt lat="44.70032" lon="7.05177">
        <ele>2450</ele>
        <time>2026-08-31T09:19:56Z</time>
      </trkpt>
      <trkpt lat="44.7003" lon="7.05175">
        <ele>2449.1</ele>
        <time>2026-08-31T09:20:01Z</time>
      </trkpt>
      <trkpt lat="44.70026" lon="7.05173">
        <ele>2447.6</ele>
        <time>2026-08-31T09:20:06Z</time>
      </trkpt>
      <trkpt lat="44.70019" lon="7.05176">
        <ele>2446.2</ele>
        <time>2026-08-31T09:20:12Z</time>
      </trkpt>
      <trkpt lat="44.70016" lon="7.05177">
        <ele>2445.6</ele>
        <time>2026-08-31T09:20:17Z</time>
      </trkpt>
      <trkpt lat="44.70012" lon="7.05182">
        <ele>2445.5</ele>
        <time>2026-08-31T09:20:22Z</time>
      </trkpt>
      <trkpt lat="44.7001" lon="7.05185">
        <ele>2445.6</ele>
        <time>2026-08-31T09:20:28Z</time>
      </trkpt>
      <trkpt lat="44.70009" lon="7.05185">
        <ele>2445.3</ele>
        <time>2026-08-31T09:20:33Z</time>
      </trkpt>
      <trkpt lat="44.70009" lon="7.05186">
        <ele>2445.5</ele>
        <time>2026-08-31T09:20:38Z</time>
      </trkpt>
      <trkpt lat="44.70009" lon="7.05186">
        <ele>2445.5</ele>
        <time>2026-08-31T09:20:44Z</time>
      </trkpt>
      <trkpt lat="44.70009" lon="7.05186">
        <ele>2445.5</ele>
        <time>2026-08-31T09:20:49Z</time>
      </trkpt>
      <trkpt lat="44.70007" lon="7.05189">
        <ele>2445.6</ele>
        <time>2026-08-31T09:20:54Z</time>
      </trkpt>
      <trkpt lat="44.69999" lon="7.05195">
        <ele>2444.8</ele>
        <time>2026-08-31T09:21:00Z</time>
      </trkpt>
      <trkpt lat="44.69994" lon="7.052">
        <ele>2444.5</ele>
        <time>2026-08-31T09:21:05Z</time>
      </trkpt>
      <trkpt lat="44.69989" lon="7.05205">
        <ele>2444.3</ele>
        <time>2026-08-31T09:21:10Z</time>
      </trkpt>
      <trkpt lat="44.69983" lon="7.05211">
        <ele>2444</ele>
        <time>2026-08-31T09:21:16Z</time>
      </trkpt>
      <trkpt lat="44.69978" lon="7.05215">
        <ele>2443.6</ele>
        <time>2026-08-31T09:21:21Z</time>
      </trkpt>
      <trkpt lat="44.69971" lon="7.05219">
        <ele>2442.7</ele>
        <time>2026-08-31T09:21:26Z</time>
      </trkpt>
      <trkpt lat="44.69963" lon="7.05225">
        <ele>2442.1</ele>
        <time>2026-08-31T09:21:32Z</time>
      </trkpt>
      <trkpt lat="44.69955" lon="7.05226">
        <ele>2440.2</ele>
        <time>2026-08-31T09:21:37Z</time>
      </trkpt>
      <trkpt lat="44.69948" lon="7.05227">
        <ele>2438.7</ele>
        <time>2026-08-31T09:21:42Z</time>
      </trkpt>
      <trkpt lat="44.69943" lon="7.05234">
        <ele>2439.2</ele>
        <time>2026-08-31T09:21:48Z</time>
      </trkpt>
      <trkpt lat="44.69939" lon="7.05237">
        <ele>2439</ele>
        <time>2026-08-31T09:21:53Z</time>
      </trkpt>
      <trkpt lat="44.69935" lon="7.05243">
        <ele>2439.6</ele>
        <time>2026-08-31T09:21:58Z</time>
      </trkpt>
      <trkpt lat="44.69929" lon="7.0525">
        <ele>2440</ele>
        <time>2026-08-31T09:22:04Z</time>
      </trkpt>
      <trkpt lat="44.69925" lon="7.05254">
        <ele>2439.7</ele>
        <time>2026-08-31T09:22:09Z</time>
      </trkpt>
      <trkpt lat="44.6992" lon="7.05258">
        <ele>2439.1</ele>
        <time>2026-08-31T09:22:14Z</time>
      </trkpt>
      <trkpt lat="44.69915" lon="7.05259">
        <ele>2438.1</ele>
        <time>2026-08-31T09:22:20Z</time>
      </trkpt>
      <trkpt lat="44.69912" lon="7.05259">
        <ele>2437.3</ele>
        <time>2026-08-31T09:22:25Z</time>
      </trkpt>
      <trkpt lat="44.6991" lon="7.05266">
        <ele>2438</ele>
        <time>2026-08-31T09:22:30Z</time>
      </trkpt>
      <trkpt lat="44.69905" lon="7.05272">
        <ele>2437.7</ele>
        <time>2026-08-31T09:22:36Z</time>
      </trkpt>
      <trkpt lat="44.69899" lon="7.05278">
        <ele>2437.3</ele>
        <time>2026-08-31T09:22:41Z</time>
      </trkpt>
      <trkpt lat="44.69893" lon="7.0528">
        <ele>2436.1</ele>
        <time>2026-08-31T09:22:46Z</time>
      </trkpt>
      <trkpt lat="44.69887" lon="7.05282">
        <ele>2435</ele>
        <time>2026-08-31T09:22:52Z</time>
      </trkpt>
      <trkpt lat="44.69881" lon="7.05282">
        <ele>2433.5</ele>
        <time>2026-08-31T09:22:57Z</time>
      </trkpt>
      <trkpt lat="44.69875" lon="7.05286">
        <ele>2432.7</ele>
        <time>2026-08-31T09:23:02Z</time>
      </trkpt>
      <trkpt lat="44.69869" lon="7.0529">
        <ele>2432</ele>
        <time>2026-08-31T09:23:08Z</time>
      </trkpt>
      <trkpt lat="44.6987" lon="7.05292">
        <ele>2432.6</ele>
        <time>2026-08-31T09:23:13Z</time>
      </trkpt>
      <trkpt lat="44.6987" lon="7.05293">
        <ele>2432.8</ele>
        <time>2026-08-31T09:23:18Z</time>
      </trkpt>
      <trkpt lat="44.6987" lon="7.05293">
        <ele>2432.8</ele>
        <time>2026-08-31T09:23:24Z</time>
      </trkpt>
      <trkpt lat="44.6987" lon="7.05293">
        <ele>2432.8</ele>
        <time>2026-08-31T09:23:29Z</time>
      </trkpt>
      <trkpt lat="44.6987" lon="7.05293">
        <ele>2432.8</ele>
        <time>2026-08-31T09:23:34Z</time>
      </trkpt>
      <trkpt lat="44.69866" lon="7.05294">
        <ele>2432</ele>
        <time>2026-08-31T09:23:40Z</time>
      </trkpt>
      <trkpt lat="44.69865" lon="7.05294">
        <ele>2431.7</ele>
        <time>2026-08-31T09:23:45Z</time>
      </trkpt>
      <trkpt lat="44.69863" lon="7.05295">
        <ele>2431.4</ele>
        <time>2026-08-31T09:23:50Z</time>
      </trkpt>
      <trkpt lat="44.6986" lon="7.05297">
        <ele>2431.1</ele>
        <time>2026-08-31T09:23:56Z</time>
      </trkpt>
      <trkpt lat="44.69856" lon="7.053">
        <ele>2430.7</ele>
        <time>2026-08-31T09:24:01Z</time>
      </trkpt>
      <trkpt lat="44.69852" lon="7.05302">
        <ele>2430.1</ele>
        <time>2026-08-31T09:24:06Z</time>
      </trkpt>
      <trkpt lat="44.69848" lon="7.05306">
        <ele>2429.9</ele>
        <time>2026-08-31T09:24:12Z</time>
      </trkpt>
      <trkpt lat="44.69844" lon="7.0531">
        <ele>2429.8</ele>
        <time>2026-08-31T09:24:17Z</time>
      </trkpt>
      <trkpt lat="44.6984" lon="7.05314">
        <ele>2429.6</ele>
        <time>2026-08-31T09:24:22Z</time>
      </trkpt>
      <trkpt lat="44.69834" lon="7.0532">
        <ele>2429.4</ele>
        <time>2026-08-31T09:24:28Z</time>
      </trkpt>
      <trkpt lat="44.6983" lon="7.05324">
        <ele>2429.7</ele>
        <time>2026-08-31T09:24:33Z</time>
      </trkpt>
      <trkpt lat="44.69826" lon="7.05329">
        <ele>2430.2</ele>
        <time>2026-08-31T09:24:38Z</time>
      </trkpt>
      <trkpt lat="44.69819" lon="7.05335">
        <ele>2430.5</ele>
        <time>2026-08-31T09:24:44Z</time>
      </trkpt>
      <trkpt lat="44.69813" lon="7.05341">
        <ele>2430.5</ele>
        <time>2026-08-31T09:24:49Z</time>
      </trkpt>
      <trkpt lat="44.69808" lon="7.05345">
        <ele>2430.4</ele>
        <time>2026-08-31T09:24:54Z</time>
      </trkpt>
      <trkpt lat="44.69802" lon="7.05348">
        <ele>2430.1</ele>
        <time>2026-08-31T09:25:00Z</time>
      </trkpt>
      <trkpt lat="44.69797" lon="7.05352">
        <ele>2430.1</ele>
        <time>2026-08-31T09:25:05Z</time>
      </trkpt>
      <trkpt lat="44.69791" lon="7.05357">
        <ele>2430</ele>
        <time>2026-08-31T09:25:10Z</time>
      </trkpt>
      <trkpt lat="44.69784" lon="7.05361">
        <ele>2429.8</ele>
        <time>2026-08-31T09:25:16Z</time>
      </trkpt>
      <trkpt lat="44.69778" lon="7.05362">
        <ele>2429.3</ele>
        <time>2026-08-31T09:25:21Z</time>
      </trkpt>
      <trkpt lat="44.69773" lon="7.05364">
        <ele>2429</ele>
        <time>2026-08-31T09:25:26Z</time>
      </trkpt>
      <trkpt lat="44.69766" lon="7.05365">
        <ele>2428.3</ele>
        <time>2026-08-31T09:25:32Z</time>
      </trkpt>
      <trkpt lat="44.69762" lon="7.05365">
        <ele>2427.9</ele>
        <time>2026-08-31T09:25:37Z</time>
      </trkpt>
      <trkpt lat="44.69761" lon="7.05365">
        <ele>2427.8</ele>
        <time>2026-08-31T09:25:42Z</time>
      </trkpt>
      <trkpt lat="44.69754" lon="7.05368">
        <ele>2427.4</ele>
        <time>2026-08-31T09:25:48Z</time>
      </trkpt>
      <trkpt lat="44.69747" lon="7.05369">
        <ele>2426.8</ele>
        <time>2026-08-31T09:25:53Z</time>
      </trkpt>
      <trkpt lat="44.69743" lon="7.05372">
        <ele>2426.9</ele>
        <time>2026-08-31T09:25:58Z</time>
      </trkpt>
      <trkpt lat="44.69738" lon="7.05374">
        <ele>2426.7</ele>
        <time>2026-08-31T09:26:04Z</time>
      </trkpt>
      <trkpt lat="44.69732" lon="7.05375">
        <ele>2426.3</ele>
        <time>2026-08-31T09:26:09Z</time>
      </trkpt>
      <trkpt lat="44.69729" lon="7.05379">
        <ele>2426.6</ele>
        <time>2026-08-31T09:26:14Z</time>
      </trkpt>
      <trkpt lat="44.69722" lon="7.05384">
        <ele>2426.8</ele>
        <time>2026-08-31T09:26:20Z</time>
      </trkpt>
      <trkpt lat="44.69716" lon="7.05386">
        <ele>2426.5</ele>
        <time>2026-08-31T09:26:25Z</time>
      </trkpt>
      <trkpt lat="44.69711" lon="7.05391">
        <ele>2426.9</ele>
        <time>2026-08-31T09:26:30Z</time>
      </trkpt>
      <trkpt lat="44.69706" lon="7.05394">
        <ele>2427</ele>
        <time>2026-08-31T09:26:36Z</time>
      </trkpt>
      <trkpt lat="44.69706" lon="7.05397">
        <ele>2427.5</ele>
        <time>2026-08-31T09:26:41Z</time>
      </trkpt>
      <trkpt lat="44.69703" lon="7.054">
        <ele>2427.8</ele>
        <time>2026-08-31T09:26:46Z</time>
      </trkpt>
      <trkpt lat="44.69698" lon="7.05401">
        <ele>2427.5</ele>
        <time>2026-08-31T09:26:52Z</time>
      </trkpt>
      <trkpt lat="44.69695" lon="7.05402">
        <ele>2427.5</ele>
        <time>2026-08-31T09:26:57Z</time>
      </trkpt>
      <trkpt lat="44.69692" lon="7.05403">
        <ele>2427.4</ele>
        <time>2026-08-31T09:27:02Z</time>
      </trkpt>
      <trkpt lat="44.69688" lon="7.05407">
        <ele>2427.8</ele>
        <time>2026-08-31T09:27:08Z</time>
      </trkpt>
      <trkpt lat="44.69685" lon="7.05411">
        <ele>2428.3</ele>
        <time>2026-08-31T09:27:13Z</time>
      </trkpt>
      <trkpt lat="44.6968" lon="7.05412">
        <ele>2428.1</ele>
        <time>2026-08-31T09:27:18Z</time>
      </trkpt>
      <trkpt lat="44.69675" lon="7.05414">
        <ele>2428.1</ele>
        <time>2026-08-31T09:27:24Z</time>
      </trkpt>
      <trkpt lat="44.6967" lon="7.05416">
        <ele>2428.1</ele>
        <time>2026-08-31T09:27:29Z</time>
      </trkpt>
      <trkpt lat="44.69667" lon="7.05421">
        <ele>2428.5</ele>
        <time>2026-08-31T09:27:34Z</time>
      </trkpt>
      <trkpt lat="44.69663" lon="7.05427">
        <ele>2428.6</ele>
        <time>2026-08-31T09:27:40Z</time>
      </trkpt>
      <trkpt lat="44.69662" lon="7.05433">
        <ele>2429.1</ele>
        <time>2026-08-31T09:27:45Z</time>
      </trkpt>
      <trkpt lat="44.6966" lon="7.05437">
        <ele>2429.3</ele>
        <time>2026-08-31T09:27:50Z</time>
      </trkpt>
      <trkpt lat="44.69657" lon="7.05436">
        <ele>2428.8</ele>
        <time>2026-08-31T09:27:56Z</time>
      </trkpt>
      <trkpt lat="44.69653" lon="7.05436">
        <ele>2428.2</ele>
        <time>2026-08-31T09:28:01Z</time>
      </trkpt>
      <trkpt lat="44.6965" lon="7.05439">
        <ele>2428.2</ele>
        <time>2026-08-31T09:28:06Z</time>
      </trkpt>
      <trkpt lat="44.69647" lon="7.05443">
        <ele>2428.2</ele>
        <time>2026-08-31T09:28:12Z</time>
      </trkpt>
      <trkpt lat="44.69642" lon="7.05442">
        <ele>2427.4</ele>
        <time>2026-08-31T09:28:17Z</time>
      </trkpt>
      <trkpt lat="44.69637" lon="7.05442">
        <ele>2426.7</ele>
        <time>2026-08-31T09:28:22Z</time>
      </trkpt>
      <trkpt lat="44.69631" lon="7.05445">
        <ele>2426.2</ele>
        <time>2026-08-31T09:28:28Z</time>
      </trkpt>
      <trkpt lat="44.69625" lon="7.05443">
        <ele>2425.2</ele>
        <time>2026-08-31T09:28:33Z</time>
      </trkpt>
      <trkpt lat="44.6962" lon="7.05443">
        <ele>2424.5</ele>
        <time>2026-08-31T09:28:38Z</time>
      </trkpt>
      <trkpt lat="44.69614" lon="7.05445">
        <ele>2423.9</ele>
        <time>2026-08-31T09:28:44Z</time>
      </trkpt>
      <trkpt lat="44.69609" lon="7.05445">
        <ele>2423.2</ele>
        <time>2026-08-31T09:28:49Z</time>
      </trkpt>
      <trkpt lat="44.69603" lon="7.05446">
        <ele>2422.5</ele>
        <time>2026-08-31T09:28:54Z</time>
      </trkpt>
      <trkpt lat="44.69595" lon="7.05448">
        <ele>2421.6</ele>
        <time>2026-08-31T09:29:00Z</time>
      </trkpt>
      <trkpt lat="44.69588" lon="7.05447">
        <ele>2420.5</ele>
        <time>2026-08-31T09:29:05Z</time>
      </trkpt>
      <trkpt lat="44.69581" lon="7.05447">
        <ele>2419.7</ele>
        <time>2026-08-31T09:29:10Z</time>
      </trkpt>
      <trkpt lat="44.69575" lon="7.05452">
        <ele>2419.7</ele>
        <time>2026-08-31T09:29:16Z</time>
      </trkpt>
      <trkpt lat="44.69571" lon="7.05458">
        <ele>2420.1</ele>
        <time>2026-08-31T09:29:21Z</time>
      </trkpt>
      <trkpt lat="44.69571" lon="7.05461">
        <ele>2420.4</ele>
        <time>2026-08-31T09:29:26Z</time>
      </trkpt>
      <trkpt lat="44.69571" lon="7.05461">
        <ele>2420.4</ele>
        <time>2026-08-31T09:29:32Z</time>
      </trkpt>
      <trkpt lat="44.69571" lon="7.05461">
        <ele>2420.4</ele>
        <time>2026-08-31T09:29:37Z</time>
      </trkpt>
      <trkpt lat="44.69571" lon="7.05461">
        <ele>2420.4</ele>
        <time>2026-08-31T09:29:42Z</time>
      </trkpt>
      <trkpt lat="44.69569" lon="7.05464">
        <ele>2420.6</ele>
        <time>2026-08-31T09:29:48Z</time>
      </trkpt>
      <trkpt lat="44.69564" lon="7.05465">
        <ele>2420.4</ele>
        <time>2026-08-31T09:29:53Z</time>
      </trkpt>
      <trkpt lat="44.69558" lon="7.05465">
        <ele>2420</ele>
        <time>2026-08-31T09:29:58Z</time>
      </trkpt>
      <trkpt lat="44.6955" lon="7.05467">
        <ele>2419.7</ele>
        <time>2026-08-31T09:30:04Z</time>
      </trkpt>
      <trkpt lat="44.69547" lon="7.05473">
        <ele>2420.3</ele>
        <time>2026-08-31T09:30:09Z</time>
      </trkpt>
      <trkpt lat="44.69543" lon="7.05478">
        <ele>2420.7</ele>
        <time>2026-08-31T09:30:14Z</time>
      </trkpt>
      <trkpt lat="44.69537" lon="7.05481">
        <ele>2420.7</ele>
        <time>2026-08-31T09:30:20Z</time>
      </trkpt>
      <trkpt lat="44.69531" lon="7.05488">
        <ele>2421.4</ele>
        <time>2026-08-31T09:30:25Z</time>
      </trkpt>
      <trkpt lat="44.69526" lon="7.05493">
        <ele>2421.9</ele>
        <time>2026-08-31T09:30:30Z</time>
      </trkpt>
      <trkpt lat="44.69518" lon="7.05497">
        <ele>2422.2</ele>
        <time>2026-08-31T09:30:36Z</time>
      </trkpt>
      <trkpt lat="44.69512" lon="7.05497">
        <ele>2422</ele>
        <time>2026-08-31T09:30:41Z</time>
      </trkpt>
      <trkpt lat="44.69507" lon="7.05504">
        <ele>2423.4</ele>
        <time>2026-08-31T09:30:46Z</time>
      </trkpt>
      <trkpt lat="44.69503" lon="7.05508">
        <ele>2424.5</ele>
        <time>2026-08-31T09:30:52Z</time>
      </trkpt>
      <trkpt lat="44.69499" lon="7.05508">
        <ele>2424.3</ele>
        <time>2026-08-31T09:30:57Z</time>
      </trkpt>
      <trkpt lat="44.69496" lon="7.05509">
        <ele>2424.4</ele>
        <time>2026-08-31T09:31:02Z</time>
      </trkpt>
      <trkpt lat="44.69492" lon="7.05515">
        <ele>2426</ele>
        <time>2026-08-31T09:31:08Z</time>
      </trkpt>
      <trkpt lat="44.69489" lon="7.05519">
        <ele>2426.9</ele>
        <time>2026-08-31T09:31:13Z</time>
      </trkpt>
      <trkpt lat="44.69486" lon="7.05521">
        <ele>2427.3</ele>
        <time>2026-08-31T09:31:18Z</time>
      </trkpt>
      <trkpt lat="44.69482" lon="7.05525">
        <ele>2428.2</ele>
        <time>2026-08-31T09:31:24Z</time>
      </trkpt>
      <trkpt lat="44.69478" lon="7.05527">
        <ele>2428.4</ele>
        <time>2026-08-31T09:31:29Z</time>
      </trkpt>
      <trkpt lat="44.69472" lon="7.05531">
        <ele>2429.1</ele>
        <time>2026-08-31T09:31:34Z</time>
      </trkpt>
      <trkpt lat="44.69465" lon="7.05532">
        <ele>2428.9</ele>
        <time>2026-08-31T09:31:40Z</time>
      </trkpt>
      <trkpt lat="44.6946" lon="7.05531">
        <ele>2428.2</ele>
        <time>2026-08-31T09:31:45Z</time>
      </trkpt>
      <trkpt lat="44.69454" lon="7.05529">
        <ele>2427.2</ele>
        <time>2026-08-31T09:31:50Z</time>
      </trkpt>
      <trkpt lat="44.69452" lon="7.05529">
        <ele>2427</ele>
        <time>2026-08-31T09:31:56Z</time>
      </trkpt>
      <trkpt lat="44.69452" lon="7.05529">
        <ele>2427</ele>
        <time>2026-08-31T09:32:01Z</time>
      </trkpt>
      <trkpt lat="44.69452" lon="7.05529">
        <ele>2427</ele>
        <time>2026-08-31T09:32:06Z</time>
      </trkpt>
      <trkpt lat="44.69452" lon="7.05529">
        <ele>2427</ele>
        <time>2026-08-31T09:32:12Z</time>
      </trkpt>
      <trkpt lat="44.69449" lon="7.05531">
        <ele>2427.3</ele>
        <time>2026-08-31T09:32:17Z</time>
      </trkpt>
      <trkpt lat="44.69445" lon="7.05534">
        <ele>2427.8</ele>
        <time>2026-08-31T09:32:22Z</time>
      </trkpt>
      <trkpt lat="44.69437" lon="7.05533">
        <ele>2426.9</ele>
        <time>2026-08-31T09:32:28Z</time>
      </trkpt>
      <trkpt lat="44.69437" lon="7.05535">
        <ele>2427.4</ele>
        <time>2026-08-31T09:32:33Z</time>
      </trkpt>
      <trkpt lat="44.69432" lon="7.05533">
        <ele>2426.5</ele>
        <time>2026-08-31T09:32:38Z</time>
      </trkpt>
      <trkpt lat="44.69425" lon="7.05534">
        <ele>2426.2</ele>
        <time>2026-08-31T09:32:44Z</time>
      </trkpt>
      <trkpt lat="44.69417" lon="7.05531">
        <ele>2424.8</ele>
        <time>2026-08-31T09:32:49Z</time>
      </trkpt>
      <trkpt lat="44.69409" lon="7.05531">
        <ele>2424.1</ele>
        <time>2026-08-31T09:32:54Z</time>
      </trkpt>
      <trkpt lat="44.69401" lon="7.0553">
        <ele>2423</ele>
        <time>2026-08-31T09:33:00Z</time>
      </trkpt>
      <trkpt lat="44.69396" lon="7.05532">
        <ele>2423</ele>
        <time>2026-08-31T09:33:05Z</time>
      </trkpt>
      <trkpt lat="44.6939" lon="7.05535">
        <ele>2423.2</ele>
        <time>2026-08-31T09:33:10Z</time>
      </trkpt>
      <trkpt lat="44.69384" lon="7.05538">
        <ele>2423.3</ele>
        <time>2026-08-31T09:33:16Z</time>
      </trkpt>
      <trkpt lat="44.69379" lon="7.05542">
        <ele>2423.7</ele>
        <time>2026-08-31T09:33:21Z</time>
      </trkpt>
      <trkpt lat="44.69371" lon="7.05541">
        <ele>2422.7</ele>
        <time>2026-08-31T09:33:26Z</time>
      </trkpt>
      <trkpt lat="44.69363" lon="7.05544">
        <ele>2422.6</ele>
        <time>2026-08-31T09:33:32Z</time>
      </trkpt>
      <trkpt lat="44.69355" lon="7.05542">
        <ele>2421.3</ele>
        <time>2026-08-31T09:33:37Z</time>
      </trkpt>
      <trkpt lat="44.69351" lon="7.05542">
        <ele>2420.9</ele>
        <time>2026-08-31T09:33:42Z</time>
      </trkpt>
      <trkpt lat="44.69345" lon="7.05548">
        <ele>2421.6</ele>
        <time>2026-08-31T09:33:48Z</time>
      </trkpt>
      <trkpt lat="44.69339" lon="7.05551">
        <ele>2421.6</ele>
        <time>2026-08-31T09:33:53Z</time>
      </trkpt>
      <trkpt lat="44.69334" lon="7.05552">
        <ele>2421.3</ele>
        <time>2026-08-31T09:33:58Z</time>
      </trkpt>
      <trkpt lat="44.69326" lon="7.05556">
        <ele>2421.9</ele>
        <time>2026-08-31T09:34:04Z</time>
      </trkpt>
      <trkpt lat="44.69317" lon="7.05559">
        <ele>2422.1</ele>
        <time>2026-08-31T09:34:09Z</time>
      </trkpt>
      <trkpt lat="44.69309" lon="7.05563">
        <ele>2422.5</ele>
        <time>2026-08-31T09:34:14Z</time>
      </trkpt>
      <trkpt lat="44.69301" lon="7.05565">
        <ele>2422.4</ele>
        <time>2026-08-31T09:34:20Z</time>
      </trkpt>
      <trkpt lat="44.69295" lon="7.0557">
        <ele>2422.9</ele>
        <time>2026-08-31T09:34:25Z</time>
      </trkpt>
      <trkpt lat="44.69289" lon="7.05573">
        <ele>2422.9</ele>
        <time>2026-08-31T09:34:30Z</time>
      </trkpt>
      <trkpt lat="44.69282" lon="7.05577">
        <ele>2422.9</ele>
        <time>2026-08-31T09:34:36Z</time>
      </trkpt>
      <trkpt lat="44.69274" lon="7.0558">
        <ele>2422.7</ele>
        <time>2026-08-31T09:34:41Z</time>
      </trkpt>
      <trkpt lat="44.69268" lon="7.05584">
        <ele>2422.6</ele>
        <time>2026-08-31T09:34:46Z</time>
      </trkpt>
      <trkpt lat="44.69261" lon="7.05588">
        <ele>2422.3</ele>
        <time>2026-08-31T09:34:52Z</time>
      </trkpt>
      <trkpt lat="44.69257" lon="7.05591">
        <ele>2422.1</ele>
        <time>2026-08-31T09:34:57Z</time>
      </trkpt>
      <trkpt lat="44.69251" lon="7.05593">
        <ele>2421.7</ele>
        <time>2026-08-31T09:35:02Z</time>
      </trkpt>
      <trkpt lat="44.69244" lon="7.05597">
        <ele>2421.8</ele>
        <time>2026-08-31T09:35:08Z</time>
      </trkpt>
      <trkpt lat="44.69241" lon="7.05599">
        <ele>2421.9</ele>
        <time>2026-08-31T09:35:13Z</time>
      </trkpt>
      <trkpt lat="44.69235" lon="7.05601">
        <ele>2421.9</ele>
        <time>2026-08-31T09:35:18Z</time>
      </trkpt>
      <trkpt lat="44.69228" lon="7.05602">
        <ele>2421.9</ele>
        <time>2026-08-31T09:35:24Z</time>
      </trkpt>
      <trkpt lat="44.69222" lon="7.05603">
        <ele>2421.9</ele>
        <time>2026-08-31T09:35:29Z</time>
      </trkpt>
      <trkpt lat="44.69215" lon="7.05604">
        <ele>2421.9</ele>
        <time>2026-08-31T09:35:34Z</time>
      </trkpt>
      <trkpt lat="44.69209" lon="7.05606">
        <ele>2422</ele>
        <time>2026-08-31T09:35:40Z</time>
      </trkpt>
      <trkpt lat="44.69204" lon="7.05609">
        <ele>2422.2</ele>
        <time>2026-08-31T09:35:45Z</time>
      </trkpt>
      <trkpt lat="44.692" lon="7.05609">
        <ele>2422.1</ele>
        <time>2026-08-31T09:35:50Z</time>
      </trkpt>
      <trkpt lat="44.69194" lon="7.0561">
        <ele>2422.1</ele>
        <time>2026-08-31T09:35:56Z</time>
      </trkpt>
      <trkpt lat="44.69189" lon="7.0561">
        <ele>2422.1</ele>
        <time>2026-08-31T09:36:01Z</time>
      </trkpt>
      <trkpt lat="44.69183" lon="7.05615">
        <ele>2422.4</ele>
        <time>2026-08-31T09:36:06Z</time>
      </trkpt>
      <trkpt lat="44.69178" lon="7.05622">
        <ele>2422.9</ele>
        <time>2026-08-31T09:36:12Z</time>
      </trkpt>
      <trkpt lat="44.69173" lon="7.05625">
        <ele>2423</ele>
        <time>2026-08-31T09:36:17Z</time>
      </trkpt>
      <trkpt lat="44.69167" lon="7.05627">
        <ele>2423.1</ele>
        <time>2026-08-31T09:36:22Z</time>
      </trkpt>
      <trkpt lat="44.69163" lon="7.05631">
        <ele>2423.5</ele>
        <time>2026-08-31T09:36:28Z</time>
      </trkpt>
      <trkpt lat="44.69159" lon="7.05634">
        <ele>2423.8</ele>
        <time>2026-08-31T09:36:33Z</time>
      </trkpt>
      <trkpt lat="44.69153" lon="7.05635">
        <ele>2424</ele>
        <time>2026-08-31T09:36:38Z</time>
      </trkpt>
      <trkpt lat="44.69147" lon="7.05635">
        <ele>2424.1</ele>
        <time>2026-08-31T09:36:44Z</time>
      </trkpt>
      <trkpt lat="44.69143" lon="7.05637">
        <ele>2424.4</ele>
        <time>2026-08-31T09:36:49Z</time>
      </trkpt>
      <trkpt lat="44.69141" lon="7.05636">
        <ele>2424.3</ele>
        <time>2026-08-31T09:36:54Z</time>
      </trkpt>
      <trkpt lat="44.69139" lon="7.05642">
        <ele>2424.8</ele>
        <time>2026-08-31T09:37:00Z</time>
      </trkpt>
      <trkpt lat="44.69134" lon="7.05645">
        <ele>2425</ele>
        <time>2026-08-31T09:37:05Z</time>
      </trkpt>
      <trkpt lat="44.69133" lon="7.05647">
        <ele>2425.2</ele>
        <time>2026-08-31T09:37:10Z</time>
      </trkpt>
      <trkpt lat="44.69131" lon="7.05655">
        <ele>2425.7</ele>
        <time>2026-08-31T09:37:16Z</time>
      </trkpt>
      <trkpt lat="44.69128" lon="7.05661">
        <ele>2426.1</ele>
        <time>2026-08-31T09:37:21Z</time>
      </trkpt>
      <trkpt lat="44.69127" lon="7.05667">
        <ele>2426.5</ele>
        <time>2026-08-31T09:37:26Z</time>
      </trkpt>
      <trkpt lat="44.69123" lon="7.05671">
        <ele>2427.3</ele>
        <time>2026-08-31T09:37:32Z</time>
      </trkpt>
      <trkpt lat="44.69119" lon="7.05675">
        <ele>2428</ele>
        <time>2026-08-31T09:37:37Z</time>
      </trkpt>
      <trkpt lat="44.69116" lon="7.05675">
        <ele>2428.1</ele>
        <time>2026-08-31T09:37:42Z</time>
      </trkpt>
      <trkpt lat="44.69113" lon="7.0568">
        <ele>2429</ele>
        <time>2026-08-31T09:37:48Z</time>
      </trkpt>
      <trkpt lat="44.69112" lon="7.05682">
        <ele>2429.3</ele>
        <time>2026-08-31T09:37:53Z</time>
      </trkpt>
      <trkpt lat="44.69107" lon="7.05683">
        <ele>2429.5</ele>
        <time>2026-08-31T09:37:58Z</time>
      </trkpt>
      <trkpt lat="44.69103" lon="7.05684">
        <ele>2429.7</ele>
        <time>2026-08-31T09:38:04Z</time>
      </trkpt>
      <trkpt lat="44.69098" lon="7.05684">
        <ele>2429.7</ele>
        <time>2026-08-31T09:38:09Z</time>
      </trkpt>
      <trkpt lat="44.69096" lon="7.05685">
        <ele>2429.8</ele>
        <time>2026-08-31T09:38:14Z</time>
      </trkpt>
      <trkpt lat="44.69093" lon="7.05687">
        <ele>2430.2</ele>
        <time>2026-08-31T09:38:20Z</time>
      </trkpt>
      <trkpt lat="44.6909" lon="7.05687">
        <ele>2430.2</ele>
        <time>2026-08-31T09:38:25Z</time>
      </trkpt>
      <trkpt lat="44.69089" lon="7.05688">
        <ele>2430.3</ele>
        <time>2026-08-31T09:38:30Z</time>
      </trkpt>
      <trkpt lat="44.69089" lon="7.05689">
        <ele>2430.5</ele>
        <time>2026-08-31T09:38:36Z</time>
      </trkpt>
      <trkpt lat="44.69085" lon="7.0569">
        <ele>2430.6</ele>
        <time>2026-08-31T09:38:41Z</time>
      </trkpt>
      <trkpt lat="44.69083" lon="7.05691">
        <ele>2430.8</ele>
        <time>2026-08-31T09:38:46Z</time>
      </trkpt>
      <trkpt lat="44.69082" lon="7.0569">
        <ele>2430.8</ele>
        <time>2026-08-31T09:38:52Z</time>
      </trkpt>
      <trkpt lat="44.69077" lon="7.05691">
        <ele>2431.5</ele>
        <time>2026-08-31T09:38:57Z</time>
      </trkpt>
      <trkpt lat="44.69074" lon="7.05693">
        <ele>2432.1</ele>
        <time>2026-08-31T09:39:02Z</time>
      </trkpt>
      <trkpt lat="44.69069" lon="7.05697">
        <ele>2433.2</ele>
        <time>2026-08-31T09:39:08Z</time>
      </trkpt>
      <trkpt lat="44.69065" lon="7.05698">
        <ele>2433.8</ele>
        <time>2026-08-31T09:39:13Z</time>
      </trkpt>
      <trkpt lat="44.69062" lon="7.05701">
        <ele>2434.5</ele>
        <time>2026-08-31T09:39:18Z</time>
      </trkpt>
      <trkpt lat="44.69058" lon="7.05703">
        <ele>2435.1</ele>
        <time>2026-08-31T09:39:24Z</time>
      </trkpt>
      <trkpt lat="44.69057" lon="7.05704">
        <ele>2435.3</ele>
        <time>2026-08-31T09:39:29Z</time>
      </trkpt>
      <trkpt lat="44.69057" lon="7.05707">
        <ele>2435.7</ele>
        <time>2026-08-31T09:39:34Z</time>
      </trkpt>
      <trkpt lat="44.69056" lon="7.0571">
        <ele>2436.2</ele>
        <time>2026-08-31T09:39:40Z</time>
      </trkpt>
      <trkpt lat="44.69056" lon="7.05714">
        <ele>2436.6</ele>
        <time>2026-08-31T09:39:45Z</time>
      </trkpt>
      <trkpt lat="44.69053" lon="7.05717">
        <ele>2437.2</ele>
        <time>2026-08-31T09:39:50Z</time>
      </trkpt>
      <trkpt lat="44.6905" lon="7.0572">
        <ele>2437.8</ele>
        <time>2026-08-31T09:39:56Z</time>
      </trkpt>
      <trkpt lat="44.69046" lon="7.05723">
        <ele>2438.4</ele>
        <time>2026-08-31T09:40:01Z</time>
      </trkpt>
      <trkpt lat="44.69042" lon="7.05725">
        <ele>2438.9</ele>
        <time>2026-08-31T09:40:06Z</time>
      </trkpt>
      <trkpt lat="44.69037" lon="7.05728">
        <ele>2439.6</ele>
        <time>2026-08-31T09:40:12Z</time>
      </trkpt>
      <trkpt lat="44.69036" lon="7.05728">
        <ele>2439.6</ele>
        <time>2026-08-31T09:40:17Z</time>
      </trkpt>
      <trkpt lat="44.69036" lon="7.05728">
        <ele>2439.6</ele>
        <time>2026-08-31T09:40:22Z</time>
      </trkpt>
      <trkpt lat="44.69036" lon="7.05728">
        <ele>2439.6</ele>
        <time>2026-08-31T09:40:28Z</time>
      </trkpt>
      <trkpt lat="44.69036" lon="7.05728">
        <ele>2439.6</ele>
        <time>2026-08-31T09:40:33Z</time>
      </trkpt>
      <trkpt lat="44.69036" lon="7.05728">
        <ele>2439.6</ele>
        <time>2026-08-31T09:40:38Z</time>
      </trkpt>
      <trkpt lat="44.69034" lon="7.0574">
        <ele>2440.9</ele>
        <time>2026-08-31T09:40:44Z</time>
      </trkpt>
      <trkpt lat="44.69034" lon="7.0574">
        <ele>2440.9</ele>
        <time>2026-08-31T09:40:49Z</time>
      </trkpt>
      <trkpt lat="44.69034" lon="7.0574">
        <ele>2440.9</ele>
        <time>2026-08-31T09:40:54Z</time>
      </trkpt>
      <trkpt lat="44.69034" lon="7.0574">
        <ele>2440.9</ele>
        <time>2026-08-31T09:41:00Z</time>
      </trkpt>
      <trkpt lat="44.69034" lon="7.0574">
        <ele>2440.9</ele>
        <time>2026-08-31T09:41:05Z</time>
      </trkpt>
      <trkpt lat="44.69031" lon="7.05744">
        <ele>2441.4</ele>
        <time>2026-08-31T09:41:10Z</time>
      </trkpt>
      <trkpt lat="44.69031" lon="7.05748">
        <ele>2441.7</ele>
        <time>2026-08-31T09:41:16Z</time>
      </trkpt>
      <trkpt lat="44.69029" lon="7.0575">
        <ele>2442</ele>
        <time>2026-08-31T09:41:21Z</time>
      </trkpt>
      <trkpt lat="44.69029" lon="7.0575">
        <ele>2442</ele>
        <time>2026-08-31T09:41:26Z</time>
      </trkpt>
      <trkpt lat="44.69032" lon="7.05754">
        <ele>2442.3</ele>
        <time>2026-08-31T09:41:32Z</time>
      </trkpt>
      <trkpt lat="44.69032" lon="7.05759">
        <ele>2442.8</ele>
        <time>2026-08-31T09:41:37Z</time>
      </trkpt>
      <trkpt lat="44.69031" lon="7.05762">
        <ele>2443.1</ele>
        <time>2026-08-31T09:41:42Z</time>
      </trkpt>
      <trkpt lat="44.69032" lon="7.05767">
        <ele>2443.7</ele>
        <time>2026-08-31T09:41:48Z</time>
      </trkpt>
      <trkpt lat="44.6903" lon="7.05771">
        <ele>2444.1</ele>
        <time>2026-08-31T09:41:53Z</time>
      </trkpt>
      <trkpt lat="44.6903" lon="7.05775">
        <ele>2444.5</ele>
        <time>2026-08-31T09:41:58Z</time>
      </trkpt>
      <trkpt lat="44.69027" lon="7.05777">
        <ele>2444.7</ele>
        <time>2026-08-31T09:42:04Z</time>
      </trkpt>
      <trkpt lat="44.69025" lon="7.05778">
        <ele>2444.8</ele>
        <time>2026-08-31T09:42:09Z</time>
      </trkpt>
      <trkpt lat="44.69025" lon="7.05778">
        <ele>2444.8</ele>
        <time>2026-08-31T09:42:14Z</time>
      </trkpt>
      <trkpt lat="44.69024" lon="7.05784">
        <ele>2445.4</ele>
        <time>2026-08-31T09:42:20Z</time>
      </trkpt>
      <trkpt lat="44.69025" lon="7.05788">
        <ele>2445.7</ele>
        <time>2026-08-31T09:42:25Z</time>
      </trkpt>
      <trkpt lat="44.69025" lon="7.05792">
        <ele>2446.1</ele>
        <time>2026-08-31T09:42:30Z</time>
      </trkpt>
      <trkpt lat="44.69025" lon="7.05799">
        <ele>2446.8</ele>
        <time>2026-08-31T09:42:36Z</time>
      </trkpt>
      <trkpt lat="44.69025" lon="7.05805">
        <ele>2447.4</ele>
        <time>2026-08-31T09:42:41Z</time>
      </trkpt>
      <trkpt lat="44.69024" lon="7.05807">
        <ele>2447.5</ele>
        <time>2026-08-31T09:42:46Z</time>
      </trkpt>
      <trkpt lat="44.69022" lon="7.05808">
        <ele>2447.5</ele>
        <time>2026-08-31T09:42:52Z</time>
      </trkpt>
      <trkpt lat="44.69021" lon="7.05813">
        <ele>2447.9</ele>
        <time>2026-08-31T09:42:57Z</time>
      </trkpt>
      <trkpt lat="44.69021" lon="7.05819">
        <ele>2448.5</ele>
        <time>2026-08-31T09:43:02Z</time>
      </trkpt>
      <trkpt lat="44.69023" lon="7.05827">
        <ele>2449.3</ele>
        <time>2026-08-31T09:43:08Z</time>
      </trkpt>
      <trkpt lat="44.69024" lon="7.05833">
        <ele>2450</ele>
        <time>2026-08-31T09:43:13Z</time>
      </trkpt>
      <trkpt lat="44.69023" lon="7.05838">
        <ele>2450.3</ele>
        <time>2026-08-31T09:43:18Z</time>
      </trkpt>
      <trkpt lat="44.69022" lon="7.05843">
        <ele>2450.6</ele>
        <time>2026-08-31T09:43:24Z</time>
      </trkpt>
      <trkpt lat="44.69023" lon="7.05845">
        <ele>2450.8</ele>
        <time>2026-08-31T09:43:29Z</time>
      </trkpt>
      <trkpt lat="44.69023" lon="7.05845">
        <ele>2450.8</ele>
        <time>2026-08-31T09:43:34Z</time>
      </trkpt>
      <trkpt lat="44.69023" lon="7.05845">
        <ele>2450.8</ele>
        <time>2026-08-31T09:43:40Z</time>
      </trkpt>
      <trkpt lat="44.69023" lon="7.05845">
        <ele>2450.8</ele>
        <time>2026-08-31T09:43:45Z</time>
      </trkpt>
      <trkpt lat="44.69023" lon="7.05845">
        <ele>2450.8</ele>
        <time>2026-08-31T09:43:50Z</time>
      </trkpt>
      <trkpt lat="44.69023" lon="7.05845">
        <ele>2450.8</ele>
        <time>2026-08-31T09:43:56Z</time>
      </trkpt>
      <trkpt lat="44.69023" lon="7.05845">
        <ele>2450.8</ele>
        <time>2026-08-31T09:44:01Z</time>
      </trkpt>
      <trkpt lat="44.69023" lon="7.05845">
        <ele>2450.8</ele>
        <time>2026-08-31T09:44:06Z</time>
      </trkpt>
      <trkpt lat="44.69023" lon="7.05845">
        <ele>2450.8</ele>
        <time>2026-08-31T09:44:12Z</time>
      </trkpt>
      <trkpt lat="44.69023" lon="7.05845">
        <ele>2450.8</ele>
        <time>2026-08-31T09:44:17Z</time>
      </trkpt>
      <trkpt lat="44.69023" lon="7.05845">
        <ele>2450.8</ele>
        <time>2026-08-31T09:44:22Z</time>
      </trkpt>
      <trkpt lat="44.69023" lon="7.05845">
        <ele>2450.8</ele>
        <time>2026-08-31T09:44:28Z</time>
      </trkpt>
      <trkpt lat="44.69023" lon="7.05845">
        <ele>2450.8</ele>
        <time>2026-08-31T09:44:33Z</time>
      </trkpt>
      <trkpt lat="44.69023" lon="7.05845">
        <ele>2450.8</ele>
        <time>2026-08-31T09:44:38Z</time>
      </trkpt>
      <trkpt lat="44.69023" lon="7.05845">
        <ele>2450.8</ele>
        <time>2026-08-31T09:44:44Z</time>
      </trkpt>
      <trkpt lat="44.69023" lon="7.05845">
        <ele>2450.8</ele>
        <time>2026-08-31T09:44:49Z</time>
      </trkpt>
      <trkpt lat="44.69023" lon="7.05845">
        <ele>2450.8</ele>
        <time>2026-08-31T09:44:54Z</time>
      </trkpt>
      <trkpt lat="44.69023" lon="7.05845">
        <ele>2450.8</ele>
        <time>2026-08-31T09:45:00Z</time>
      </trkpt>
      <trkpt lat="44.69023" lon="7.05845">
        <ele>2450.8</ele>
        <time>2026-08-31T09:45:05Z</time>
      </trkpt>
      <trkpt lat="44.69023" lon="7.05845">
        <ele>2450.8</ele>
        <time>2026-08-31T09:45:10Z</time>
      </trkpt>
      <trkpt lat="44.69023" lon="7.05845">
        <ele>2450.8</ele>
        <time>2026-08-31T09:45:16Z</time>
      </trkpt>
      <trkpt lat="44.69023" lon="7.05845">
        <ele>2450.8</ele>
        <time>2026-08-31T09:45:21Z</time>
      </trkpt>
      <trkpt lat="44.69023" lon="7.05845">
        <ele>2450.8</ele>
        <time>2026-08-31T09:45:26Z</time>
      </trkpt>
      <trkpt lat="44.69023" lon="7.05845">
        <ele>2450.8</ele>
        <time>2026-08-31T09:45:32Z</time>
      </trkpt>
      <trkpt lat="44.69017" lon="7.0586">
        <ele>2451.5</ele>
        <time>2026-08-31T09:45:37Z</time>
      </trkpt>
      <trkpt lat="44.69017" lon="7.0586">
        <ele>2451.5</ele>
        <time>2026-08-31T09:45:42Z</time>
      </trkpt>
      <trkpt lat="44.69013" lon="7.0587">
        <ele>2452</ele>
        <time>2026-08-31T09:45:48Z</time>
      </trkpt>
      <trkpt lat="44.69011" lon="7.05879">
        <ele>2452.5</ele>
        <time>2026-08-31T09:45:53Z</time>
      </trkpt>
      <trkpt lat="44.69007" lon="7.05886">
        <ele>2452.9</ele>
        <time>2026-08-31T09:45:58Z</time>
      </trkpt>
      <trkpt lat="44.69001" lon="7.05894">
        <ele>2453.2</ele>
        <time>2026-08-31T09:46:04Z</time>
      </trkpt>
      <trkpt lat="44.68998" lon="7.05901">
        <ele>2453.7</ele>
        <time>2026-08-31T09:46:09Z</time>
      </trkpt>
      <trkpt lat="44.68993" lon="7.05906">
        <ele>2454.2</ele>
        <time>2026-08-31T09:46:14Z</time>
      </trkpt>
      <trkpt lat="44.68988" lon="7.05913">
        <ele>2454.7</ele>
        <time>2026-08-31T09:46:20Z</time>
      </trkpt>
      <trkpt lat="44.68985" lon="7.0592">
        <ele>2455.1</ele>
        <time>2026-08-31T09:46:25Z</time>
      </trkpt>
      <trkpt lat="44.6898" lon="7.05927">
        <ele>2455.5</ele>
        <time>2026-08-31T09:46:30Z</time>
      </trkpt>
      <trkpt lat="44.68975" lon="7.05935">
        <ele>2455.9</ele>
        <time>2026-08-31T09:46:36Z</time>
      </trkpt>
      <trkpt lat="44.68971" lon="7.05942">
        <ele>2456.3</ele>
        <time>2026-08-31T09:46:41Z</time>
      </trkpt>
      <trkpt lat="44.68968" lon="7.05948">
        <ele>2456.7</ele>
        <time>2026-08-31T09:46:46Z</time>
      </trkpt>
      <trkpt lat="44.68967" lon="7.05951">
        <ele>2456.9</ele>
        <time>2026-08-31T09:46:52Z</time>
      </trkpt>
      <trkpt lat="44.68966" lon="7.05951">
        <ele>2456.9</ele>
        <time>2026-08-31T09:46:57Z</time>
      </trkpt>
      <trkpt lat="44.68966" lon="7.05951">
        <ele>2456.9</ele>
        <time>2026-08-31T09:47:02Z</time>
      </trkpt>
      <trkpt lat="44.68966" lon="7.05951">
        <ele>2456.9</ele>
        <time>2026-08-31T09:47:08Z</time>
      </trkpt>
      <trkpt lat="44.68966" lon="7.05951">
        <ele>2456.9</ele>
        <time>2026-08-31T09:47:13Z</time>
      </trkpt>
      <trkpt lat="44.68966" lon="7.05951">
        <ele>2456.9</ele>
        <time>2026-08-31T09:47:18Z</time>
      </trkpt>
      <trkpt lat="44.68966" lon="7.05951">
        <ele>2456.9</ele>
        <time>2026-08-31T09:47:24Z</time>
      </trkpt>
      <trkpt lat="44.68966" lon="7.05951">
        <ele>2456.9</ele>
        <time>2026-08-31T09:47:29Z</time>
      </trkpt>
      <trkpt lat="44.68965" lon="7.05954">
        <ele>2457.1</ele>
        <time>2026-08-31T09:47:34Z</time>
      </trkpt>
      <trkpt lat="44.68961" lon="7.05958">
        <ele>2457.4</ele>
        <time>2026-08-31T09:47:40Z</time>
      </trkpt>
      <trkpt lat="44.6896" lon="7.05961">
        <ele>2457.6</ele>
        <time>2026-08-31T09:47:45Z</time>
      </trkpt>
      <trkpt lat="44.68956" lon="7.05964">
        <ele>2457.9</ele>
        <time>2026-08-31T09:47:50Z</time>
      </trkpt>
      <trkpt lat="44.68952" lon="7.0597">
        <ele>2458.4</ele>
        <time>2026-08-31T09:47:56Z</time>
      </trkpt>
      <trkpt lat="44.68945" lon="7.05974">
        <ele>2458.9</ele>
        <time>2026-08-31T09:48:01Z</time>
      </trkpt>
      <trkpt lat="44.68944" lon="7.05982">
        <ele>2459.5</ele>
        <time>2026-08-31T09:48:06Z</time>
      </trkpt>
      <trkpt lat="44.68945" lon="7.05992">
        <ele>2460.1</ele>
        <time>2026-08-31T09:48:12Z</time>
      </trkpt>
      <trkpt lat="44.68945" lon="7.05999">
        <ele>2460.6</ele>
        <time>2026-08-31T09:48:17Z</time>
      </trkpt>
      <trkpt lat="44.68943" lon="7.06004">
        <ele>2461.2</ele>
        <time>2026-08-31T09:48:22Z</time>
      </trkpt>
      <trkpt lat="44.68938" lon="7.0601">
        <ele>2462.1</ele>
        <time>2026-08-31T09:48:28Z</time>
      </trkpt>
      <trkpt lat="44.68936" lon="7.06011">
        <ele>2462.3</ele>
        <time>2026-08-31T09:48:33Z</time>
      </trkpt>
      <trkpt lat="44.68936" lon="7.06011">
        <ele>2462.3</ele>
        <time>2026-08-31T09:48:38Z</time>
      </trkpt>
      <trkpt lat="44.68936" lon="7.06011">
        <ele>2462.3</ele>
        <time>2026-08-31T09:48:44Z</time>
      </trkpt>
      <trkpt lat="44.68936" lon="7.06011">
        <ele>2462.3</ele>
        <time>2026-08-31T09:48:49Z</time>
      </trkpt>
      <trkpt lat="44.68936" lon="7.06011">
        <ele>2462.3</ele>
        <time>2026-08-31T09:48:54Z</time>
      </trkpt>
      <trkpt lat="44.68931" lon="7.06007">
        <ele>2462.1</ele>
        <time>2026-08-31T09:49:00Z</time>
      </trkpt>
      <trkpt lat="44.68928" lon="7.06012">
        <ele>2462.9</ele>
        <time>2026-08-31T09:49:05Z</time>
      </trkpt>
      <trkpt lat="44.68924" lon="7.06015">
        <ele>2463.5</ele>
        <time>2026-08-31T09:49:10Z</time>
      </trkpt>
      <trkpt lat="44.68921" lon="7.06019">
        <ele>2464.2</ele>
        <time>2026-08-31T09:49:16Z</time>
      </trkpt>
      <trkpt lat="44.68919" lon="7.06024">
        <ele>2465</ele>
        <time>2026-08-31T09:49:21Z</time>
      </trkpt>
      <trkpt lat="44.68917" lon="7.06028">
        <ele>2465.7</ele>
        <time>2026-08-31T09:49:26Z</time>
      </trkpt>
      <trkpt lat="44.68919" lon="7.0603">
        <ele>2465.8</ele>
        <time>2026-08-31T09:49:32Z</time>
      </trkpt>
      <trkpt lat="44.68919" lon="7.06031">
        <ele>2465.9</ele>
        <time>2026-08-31T09:49:37Z</time>
      </trkpt>
      <trkpt lat="44.68919" lon="7.06031">
        <ele>2465.9</ele>
        <time>2026-08-31T09:49:42Z</time>
      </trkpt>
      <trkpt lat="44.68915" lon="7.06039">
        <ele>2467.5</ele>
        <time>2026-08-31T09:49:48Z</time>
      </trkpt>
      <trkpt lat="44.68914" lon="7.06044">
        <ele>2468.3</ele>
        <time>2026-08-31T09:49:53Z</time>
      </trkpt>
      <trkpt lat="44.68912" lon="7.06049">
        <ele>2469.3</ele>
        <time>2026-08-31T09:49:58Z</time>
      </trkpt>
      <trkpt lat="44.68908" lon="7.06055">
        <ele>2470.9</ele>
        <time>2026-08-31T09:50:04Z</time>
      </trkpt>
      <trkpt lat="44.68906" lon="7.06061">
        <ele>2472</ele>
        <time>2026-08-31T09:50:09Z</time>
      </trkpt>
      <trkpt lat="44.68903" lon="7.06069">
        <ele>2473.5</ele>
        <time>2026-08-31T09:50:14Z</time>
      </trkpt>
      <trkpt lat="44.68899" lon="7.06076">
        <ele>2475.1</ele>
        <time>2026-08-31T09:50:20Z</time>
      </trkpt>
      <trkpt lat="44.68897" lon="7.0608">
        <ele>2475.9</ele>
        <time>2026-08-31T09:50:25Z</time>
      </trkpt>
      <trkpt lat="44.68892" lon="7.06085">
        <ele>2477.3</ele>
        <time>2026-08-31T09:50:30Z</time>
      </trkpt>
      <trkpt lat="44.68887" lon="7.0609">
        <ele>2478.4</ele>
        <time>2026-08-31T09:50:36Z</time>
      </trkpt>
      <trkpt lat="44.68885" lon="7.06093">
        <ele>2479</ele>
        <time>2026-08-31T09:50:41Z</time>
      </trkpt>
      <trkpt lat="44.68883" lon="7.06097">
        <ele>2479.6</ele>
        <time>2026-08-31T09:50:46Z</time>
      </trkpt>
      <trkpt lat="44.6888" lon="7.06101">
        <ele>2480.4</ele>
        <time>2026-08-31T09:50:52Z</time>
      </trkpt>
      <trkpt lat="44.68879" lon="7.06105">
        <ele>2480.9</ele>
        <time>2026-08-31T09:50:57Z</time>
      </trkpt>
      <trkpt lat="44.68876" lon="7.06108">
        <ele>2481.6</ele>
        <time>2026-08-31T09:51:02Z</time>
      </trkpt>
      <trkpt lat="44.68875" lon="7.06113">
        <ele>2482.1</ele>
        <time>2026-08-31T09:51:08Z</time>
      </trkpt>
      <trkpt lat="44.68873" lon="7.06117">
        <ele>2482.8</ele>
        <time>2026-08-31T09:51:13Z</time>
      </trkpt>
      <trkpt lat="44.68873" lon="7.06121">
        <ele>2483.1</ele>
        <time>2026-08-31T09:51:18Z</time>
      </trkpt>
      <trkpt lat="44.6887" lon="7.06127">
        <ele>2484</ele>
        <time>2026-08-31T09:51:24Z</time>
      </trkpt>
      <trkpt lat="44.68867" lon="7.06132">
        <ele>2485</ele>
        <time>2026-08-31T09:51:29Z</time>
      </trkpt>
      <trkpt lat="44.68865" lon="7.06135">
        <ele>2485.5</ele>
        <time>2026-08-31T09:51:34Z</time>
      </trkpt>
      <trkpt lat="44.68862" lon="7.06142">
        <ele>2486.6</ele>
        <time>2026-08-31T09:51:40Z</time>
      </trkpt>
      <trkpt lat="44.68859" lon="7.06145">
        <ele>2487.4</ele>
        <time>2026-08-31T09:51:45Z</time>
      </trkpt>
      <trkpt lat="44.68859" lon="7.06149">
        <ele>2487.7</ele>
        <time>2026-08-31T09:51:50Z</time>
      </trkpt>
      <trkpt lat="44.68855" lon="7.06153">
        <ele>2488.8</ele>
        <time>2026-08-31T09:51:56Z</time>
      </trkpt>
      <trkpt lat="44.68855" lon="7.06154">
        <ele>2488.9</ele>
        <time>2026-08-31T09:52:01Z</time>
      </trkpt>
      <trkpt lat="44.68853" lon="7.06156">
        <ele>2489.4</ele>
        <time>2026-08-31T09:52:06Z</time>
      </trkpt>
      <trkpt lat="44.68851" lon="7.06162">
        <ele>2490.2</ele>
        <time>2026-08-31T09:52:12Z</time>
      </trkpt>
      <trkpt lat="44.68849" lon="7.06165">
        <ele>2490.9</ele>
        <time>2026-08-31T09:52:17Z</time>
      </trkpt>
      <trkpt lat="44.68847" lon="7.06168">
        <ele>2491.6</ele>
        <time>2026-08-31T09:52:22Z</time>
      </trkpt>
      <trkpt lat="44.68844" lon="7.0617">
        <ele>2492.4</ele>
        <time>2026-08-31T09:52:28Z</time>
      </trkpt>
      <trkpt lat="44.6884" lon="7.06173">
        <ele>2493.6</ele>
        <time>2026-08-31T09:52:33Z</time>
      </trkpt>
      <trkpt lat="44.68837" lon="7.06176">
        <ele>2494.6</ele>
        <time>2026-08-31T09:52:38Z</time>
      </trkpt>
      <trkpt lat="44.68834" lon="7.06178">
        <ele>2495.5</ele>
        <time>2026-08-31T09:52:44Z</time>
      </trkpt>
      <trkpt lat="44.68832" lon="7.06179">
        <ele>2496.2</ele>
        <time>2026-08-31T09:52:49Z</time>
      </trkpt>
      <trkpt lat="44.6883" lon="7.06181">
        <ele>2497.2</ele>
        <time>2026-08-31T09:52:54Z</time>
      </trkpt>
      <trkpt lat="44.68829" lon="7.06178">
        <ele>2497.2</ele>
        <time>2026-08-31T09:53:00Z</time>
      </trkpt>
      <trkpt lat="44.68828" lon="7.06177">
        <ele>2497.4</ele>
        <time>2026-08-31T09:53:05Z</time>
      </trkpt>
      <trkpt lat="44.68826" lon="7.06178">
        <ele>2498.2</ele>
        <time>2026-08-31T09:53:10Z</time>
      </trkpt>
      <trkpt lat="44.68822" lon="7.0618">
        <ele>2499.9</ele>
        <time>2026-08-31T09:53:16Z</time>
      </trkpt>
      <trkpt lat="44.6882" lon="7.06183">
        <ele>2500.9</ele>
        <time>2026-08-31T09:53:21Z</time>
      </trkpt>
      <trkpt lat="44.68818" lon="7.06185">
        <ele>2501.9</ele>
        <time>2026-08-31T09:53:26Z</time>
      </trkpt>
      <trkpt lat="44.68816" lon="7.06187">
        <ele>2502.8</ele>
        <time>2026-08-31T09:53:32Z</time>
      </trkpt>
      <trkpt lat="44.68814" lon="7.06189">
        <ele>2503.7</ele>
        <time>2026-08-31T09:53:37Z</time>
      </trkpt>
      <trkpt lat="44.68812" lon="7.06188">
        <ele>2504.2</ele>
        <time>2026-08-31T09:53:42Z</time>
      </trkpt>
      <trkpt lat="44.68812" lon="7.06188">
        <ele>2504.2</ele>
        <time>2026-08-31T09:53:48Z</time>
      </trkpt>
      <trkpt lat="44.68812" lon="7.06188">
        <ele>2504.2</ele>
        <time>2026-08-31T09:53:53Z</time>
      </trkpt>
      <trkpt lat="44.68812" lon="7.06188">
        <ele>2504.2</ele>
        <time>2026-08-31T09:53:58Z</time>
      </trkpt>
      <trkpt lat="44.68812" lon="7.06188">
        <ele>2504.2</ele>
        <time>2026-08-31T09:54:04Z</time>
      </trkpt>
      <trkpt lat="44.68812" lon="7.06188">
        <ele>2504.2</ele>
        <time>2026-08-31T09:54:09Z</time>
      </trkpt>
      <trkpt lat="44.68812" lon="7.06188">
        <ele>2504.2</ele>
        <time>2026-08-31T09:54:14Z</time>
      </trkpt>
      <trkpt lat="44.68812" lon="7.06188">
        <ele>2504.2</ele>
        <time>2026-08-31T09:54:20Z</time>
      </trkpt>
      <trkpt lat="44.68812" lon="7.06188">
        <ele>2504.2</ele>
        <time>2026-08-31T09:54:25Z</time>
      </trkpt>
      <trkpt lat="44.68812" lon="7.06188">
        <ele>2504.2</ele>
        <time>2026-08-31T09:54:30Z</time>
      </trkpt>
      <trkpt lat="44.68812" lon="7.06188">
        <ele>2504.2</ele>
        <time>2026-08-31T09:54:36Z</time>
      </trkpt>
      <trkpt lat="44.68812" lon="7.06188">
        <ele>2504.2</ele>
        <time>2026-08-31T09:54:41Z</time>
      </trkpt>
      <trkpt lat="44.68812" lon="7.06188">
        <ele>2504.2</ele>
        <time>2026-08-31T09:54:46Z</time>
      </trkpt>
      <trkpt lat="44.68812" lon="7.06188">
        <ele>2504.2</ele>
        <time>2026-08-31T09:54:52Z</time>
      </trkpt>
      <trkpt lat="44.68812" lon="7.06188">
        <ele>2504.2</ele>
        <time>2026-08-31T09:54:57Z</time>
      </trkpt>
      <trkpt lat="44.68812" lon="7.06188">
        <ele>2504.2</ele>
        <time>2026-08-31T09:55:02Z</time>
      </trkpt>
      <trkpt lat="44.68812" lon="7.06188">
        <ele>2504.2</ele>
        <time>2026-08-31T09:55:08Z</time>
      </trkpt>
      <trkpt lat="44.68808" lon="7.06195">
        <ele>2506.3</ele>
        <time>2026-08-31T09:55:13Z</time>
      </trkpt>
      <trkpt lat="44.68805" lon="7.06198">
        <ele>2507.5</ele>
        <time>2026-08-31T09:55:18Z</time>
      </trkpt>
      <trkpt lat="44.68802" lon="7.06202">
        <ele>2508.8</ele>
        <time>2026-08-31T09:55:24Z</time>
      </trkpt>
      <trkpt lat="44.688" lon="7.06205">
        <ele>2509.7</ele>
        <time>2026-08-31T09:55:29Z</time>
      </trkpt>
      <trkpt lat="44.68797" lon="7.06209">
        <ele>2511</ele>
        <time>2026-08-31T09:55:34Z</time>
      </trkpt>
      <trkpt lat="44.68794" lon="7.06215">
        <ele>2512.3</ele>
        <time>2026-08-31T09:55:40Z</time>
      </trkpt>
      <trkpt lat="44.68794" lon="7.06218">
        <ele>2512.5</ele>
        <time>2026-08-31T09:55:45Z</time>
      </trkpt>
      <trkpt lat="44.68794" lon="7.06218">
        <ele>2512.5</ele>
        <time>2026-08-31T09:55:50Z</time>
      </trkpt>
      <trkpt lat="44.68794" lon="7.06218">
        <ele>2512.5</ele>
        <time>2026-08-31T09:55:56Z</time>
      </trkpt>
      <trkpt lat="44.68794" lon="7.06218">
        <ele>2512.5</ele>
        <time>2026-08-31T09:56:01Z</time>
      </trkpt>
      <trkpt lat="44.68794" lon="7.06218">
        <ele>2512.5</ele>
        <time>2026-08-31T09:56:06Z</time>
      </trkpt>
      <trkpt lat="44.68794" lon="7.0622">
        <ele>2512.7</ele>
        <time>2026-08-31T09:56:12Z</time>
      </trkpt>
      <trkpt lat="44.68795" lon="7.06224">
        <ele>2512.7</ele>
        <time>2026-08-31T09:56:17Z</time>
      </trkpt>
      <trkpt lat="44.68795" lon="7.06224">
        <ele>2512.7</ele>
        <time>2026-08-31T09:56:22Z</time>
      </trkpt>
      <trkpt lat="44.68795" lon="7.06224">
        <ele>2512.7</ele>
        <time>2026-08-31T09:56:28Z</time>
      </trkpt>
      <trkpt lat="44.68795" lon="7.06224">
        <ele>2512.7</ele>
        <time>2026-08-31T09:56:33Z</time>
      </trkpt>
      <trkpt lat="44.68796" lon="7.0623">
        <ele>2512.9</ele>
        <time>2026-08-31T09:56:38Z</time>
      </trkpt>
      <trkpt lat="44.68798" lon="7.06237">
        <ele>2513</ele>
        <time>2026-08-31T09:56:44Z</time>
      </trkpt>
      <trkpt lat="44.68795" lon="7.0624">
        <ele>2514</ele>
        <time>2026-08-31T09:56:49Z</time>
      </trkpt>
      <trkpt lat="44.68792" lon="7.06243">
        <ele>2514.9</ele>
        <time>2026-08-31T09:56:54Z</time>
      </trkpt>
      <trkpt lat="44.68789" lon="7.06249">
        <ele>2516</ele>
        <time>2026-08-31T09:57:00Z</time>
      </trkpt>
      <trkpt lat="44.68791" lon="7.06253">
        <ele>2515.7</ele>
        <time>2026-08-31T09:57:05Z</time>
      </trkpt>
      <trkpt lat="44.68792" lon="7.06257">
        <ele>2515.6</ele>
        <time>2026-08-31T09:57:10Z</time>
      </trkpt>
      <trkpt lat="44.68789" lon="7.06258">
        <ele>2516.2</ele>
        <time>2026-08-31T09:57:16Z</time>
      </trkpt>
      <trkpt lat="44.68786" lon="7.0626">
        <ele>2516.9</ele>
        <time>2026-08-31T09:57:21Z</time>
      </trkpt>
      <trkpt lat="44.68782" lon="7.06264">
        <ele>2517.9</ele>
        <time>2026-08-31T09:57:26Z</time>
      </trkpt>
      <trkpt lat="44.68782" lon="7.06268">
        <ele>2517.9</ele>
        <time>2026-08-31T09:57:32Z</time>
      </trkpt>
      <trkpt lat="44.68783" lon="7.06273">
        <ele>2517.7</ele>
        <time>2026-08-31T09:57:37Z</time>
      </trkpt>
      <trkpt lat="44.68784" lon="7.06279">
        <ele>2517.6</ele>
        <time>2026-08-31T09:57:42Z</time>
      </trkpt>
      <trkpt lat="44.68784" lon="7.06285">
        <ele>2517.7</ele>
        <time>2026-08-31T09:57:48Z</time>
      </trkpt>
      <trkpt lat="44.68783" lon="7.06289">
        <ele>2517.9</ele>
        <time>2026-08-31T09:57:53Z</time>
      </trkpt>
      <trkpt lat="44.68781" lon="7.06292">
        <ele>2518.4</ele>
        <time>2026-08-31T09:57:58Z</time>
      </trkpt>
      <trkpt lat="44.68778" lon="7.06295">
        <ele>2519</ele>
        <time>2026-08-31T09:58:04Z</time>
      </trkpt>
      <trkpt lat="44.68775" lon="7.06299">
        <ele>2519.6</ele>
        <time>2026-08-31T09:58:09Z</time>
      </trkpt>
      <trkpt lat="44.68774" lon="7.06305">
        <ele>2519.8</ele>
        <time>2026-08-31T09:58:14Z</time>
      </trkpt>
      <trkpt lat="44.68773" lon="7.0631">
        <ele>2520</ele>
        <time>2026-08-31T09:58:20Z</time>
      </trkpt>
      <trkpt lat="44.68772" lon="7.06314">
        <ele>2520.2</ele>
        <time>2026-08-31T09:58:25Z</time>
      </trkpt>
      <trkpt lat="44.68771" lon="7.06319">
        <ele>2520.4</ele>
        <time>2026-08-31T09:58:30Z</time>
      </trkpt>
      <trkpt lat="44.68769" lon="7.06323">
        <ele>2520.8</ele>
        <time>2026-08-31T09:58:36Z</time>
      </trkpt>
      <trkpt lat="44.68767" lon="7.06327">
        <ele>2521.1</ele>
        <time>2026-08-31T09:58:41Z</time>
      </trkpt>
      <trkpt lat="44.68764" lon="7.06333">
        <ele>2521.6</ele>
        <time>2026-08-31T09:58:46Z</time>
      </trkpt>
      <trkpt lat="44.68764" lon="7.06336">
        <ele>2521.6</ele>
        <time>2026-08-31T09:58:52Z</time>
      </trkpt>
      <trkpt lat="44.68763" lon="7.06338">
        <ele>2521.7</ele>
        <time>2026-08-31T09:58:57Z</time>
      </trkpt>
      <trkpt lat="44.68762" lon="7.06341">
        <ele>2521.8</ele>
        <time>2026-08-31T09:59:02Z</time>
      </trkpt>
      <trkpt lat="44.68761" lon="7.06346">
        <ele>2521.8</ele>
        <time>2026-08-31T09:59:08Z</time>
      </trkpt>
      <trkpt lat="44.68759" lon="7.06351">
        <ele>2522</ele>
        <time>2026-08-31T09:59:13Z</time>
      </trkpt>
      <trkpt lat="44.68758" lon="7.06355">
        <ele>2522</ele>
        <time>2026-08-31T09:59:18Z</time>
      </trkpt>
      <trkpt lat="44.68758" lon="7.06359">
        <ele>2521.9</ele>
        <time>2026-08-31T09:59:24Z</time>
      </trkpt>
      <trkpt lat="44.68757" lon="7.06363">
        <ele>2521.9</ele>
        <time>2026-08-31T09:59:29Z</time>
      </trkpt>
      <trkpt lat="44.68757" lon="7.06366">
        <ele>2521.8</ele>
        <time>2026-08-31T09:59:34Z</time>
      </trkpt>
      <trkpt lat="44.68755" lon="7.06372">
        <ele>2521.9</ele>
        <time>2026-08-31T09:59:40Z</time>
      </trkpt>
      <trkpt lat="44.68753" lon="7.06377">
        <ele>2522</ele>
        <time>2026-08-31T09:59:45Z</time>
      </trkpt>
      <trkpt lat="44.68751" lon="7.0638">
        <ele>2522.2</ele>
        <time>2026-08-31T09:59:50Z</time>
      </trkpt>
      <trkpt lat="44.68749" lon="7.06384">
        <ele>2522.5</ele>
        <time>2026-08-31T09:59:56Z</time>
      </trkpt>
      <trkpt lat="44.68747" lon="7.06389">
        <ele>2522.9</ele>
        <time>2026-08-31T10:00:01Z</time>
      </trkpt>
      <trkpt lat="44.68746" lon="7.06396">
        <ele>2522.8</ele>
        <time>2026-08-31T10:00:06Z</time>
      </trkpt>
      <trkpt lat="44.68745" lon="7.06402">
        <ele>2522.9</ele>
        <time>2026-08-31T10:00:12Z</time>
      </trkpt>
      <trkpt lat="44.68746" lon="7.06407">
        <ele>2522.4</ele>
        <time>2026-08-31T10:00:17Z</time>
      </trkpt>
      <trkpt lat="44.68746" lon="7.06413">
        <ele>2522.1</ele>
        <time>2026-08-31T10:00:22Z</time>
      </trkpt>
      <trkpt lat="44.68744" lon="7.06421">
        <ele>2522.3</ele>
        <time>2026-08-31T10:00:28Z</time>
      </trkpt>
      <trkpt lat="44.68744" lon="7.06428">
        <ele>2522.1</ele>
        <time>2026-08-31T10:00:33Z</time>
      </trkpt>
      <trkpt lat="44.68742" lon="7.06434">
        <ele>2522.4</ele>
        <time>2026-08-31T10:00:38Z</time>
      </trkpt>
      <trkpt lat="44.6874" lon="7.06441">
        <ele>2522.6</ele>
        <time>2026-08-31T10:00:44Z</time>
      </trkpt>
      <trkpt lat="44.68738" lon="7.06446">
        <ele>2522.9</ele>
        <time>2026-08-31T10:00:49Z</time>
      </trkpt>
      <trkpt lat="44.68735" lon="7.06449">
        <ele>2523.5</ele>
        <time>2026-08-31T10:00:54Z</time>
      </trkpt>
      <trkpt lat="44.68732" lon="7.06447">
        <ele>2524.2</ele>
        <time>2026-08-31T10:01:00Z</time>
      </trkpt>
      <trkpt lat="44.68732" lon="7.06447">
        <ele>2524.2</ele>
        <time>2026-08-31T10:01:05Z</time>
      </trkpt>
      <trkpt lat="44.68732" lon="7.06448">
        <ele>2524.2</ele>
        <time>2026-08-31T10:01:10Z</time>
      </trkpt>
      <trkpt lat="44.68732" lon="7.06454">
        <ele>2523.9</ele>
        <time>2026-08-31T10:01:16Z</time>
      </trkpt>
      <trkpt lat="44.68731" lon="7.06459">
        <ele>2524</ele>
        <time>2026-08-31T10:01:21Z</time>
      </trkpt>
      <trkpt lat="44.68728" lon="7.06462">
        <ele>2524.5</ele>
        <time>2026-08-31T10:01:26Z</time>
      </trkpt>
      <trkpt lat="44.68726" lon="7.06469">
        <ele>2524.6</ele>
        <time>2026-08-31T10:01:32Z</time>
      </trkpt>
      <trkpt lat="44.68725" lon="7.0647">
        <ele>2524.8</ele>
        <time>2026-08-31T10:01:37Z</time>
      </trkpt>
      <trkpt lat="44.68725" lon="7.0647">
        <ele>2524.8</ele>
        <time>2026-08-31T10:01:42Z</time>
      </trkpt>
      <trkpt lat="44.6872" lon="7.06468">
        <ele>2525.9</ele>
        <time>2026-08-31T10:01:48Z</time>
      </trkpt>
      <trkpt lat="44.68715" lon="7.06465">
        <ele>2527</ele>
        <time>2026-08-31T10:01:53Z</time>
      </trkpt>
      <trkpt lat="44.68711" lon="7.06463">
        <ele>2527.9</ele>
        <time>2026-08-31T10:01:58Z</time>
      </trkpt>
      <trkpt lat="44.68707" lon="7.0647">
        <ele>2528.4</ele>
        <time>2026-08-31T10:02:04Z</time>
      </trkpt>
      <trkpt lat="44.68703" lon="7.0647">
        <ele>2529.2</ele>
        <time>2026-08-31T10:02:09Z</time>
      </trkpt>
      <trkpt lat="44.68702" lon="7.06475">
        <ele>2529.1</ele>
        <time>2026-08-31T10:02:14Z</time>
      </trkpt>
      <trkpt lat="44.687" lon="7.06478">
        <ele>2529.3</ele>
        <time>2026-08-31T10:02:20Z</time>
      </trkpt>
      <trkpt lat="44.68699" lon="7.06477">
        <ele>2529.6</ele>
        <time>2026-08-31T10:02:25Z</time>
      </trkpt>
      <trkpt lat="44.68699" lon="7.06477">
        <ele>2529.6</ele>
        <time>2026-08-31T10:02:30Z</time>
      </trkpt>
      <trkpt lat="44.68699" lon="7.06477">
        <ele>2529.6</ele>
        <time>2026-08-31T10:02:36Z</time>
      </trkpt>
      <trkpt lat="44.68699" lon="7.06477">
        <ele>2529.6</ele>
        <time>2026-08-31T10:02:41Z</time>
      </trkpt>
      <trkpt lat="44.68694" lon="7.06475">
        <ele>2530.7</ele>
        <time>2026-08-31T10:02:46Z</time>
      </trkpt>
      <trkpt lat="44.68687" lon="7.06474">
        <ele>2532.1</ele>
        <time>2026-08-31T10:02:52Z</time>
      </trkpt>
      <trkpt lat="44.68682" lon="7.06478">
        <ele>2532.8</ele>
        <time>2026-08-31T10:02:57Z</time>
      </trkpt>
      <trkpt lat="44.68677" lon="7.06479">
        <ele>2533.7</ele>
        <time>2026-08-31T10:03:02Z</time>
      </trkpt>
      <trkpt lat="44.6867" lon="7.06474">
        <ele>2535.5</ele>
        <time>2026-08-31T10:03:08Z</time>
      </trkpt>
      <trkpt lat="44.68665" lon="7.0647">
        <ele>2537.5</ele>
        <time>2026-08-31T10:03:13Z</time>
      </trkpt>
      <trkpt lat="44.68661" lon="7.06473">
        <ele>2539.5</ele>
        <time>2026-08-31T10:03:18Z</time>
      </trkpt>
      <trkpt lat="44.68656" lon="7.06477">
        <ele>2542</ele>
        <time>2026-08-31T10:03:24Z</time>
      </trkpt>
      <trkpt lat="44.68654" lon="7.06479">
        <ele>2543</ele>
        <time>2026-08-31T10:03:29Z</time>
      </trkpt>
      <trkpt lat="44.68651" lon="7.0648">
        <ele>2544.6</ele>
        <time>2026-08-31T10:03:34Z</time>
      </trkpt>
      <trkpt lat="44.68646" lon="7.06476">
        <ele>2547.9</ele>
        <time>2026-08-31T10:03:40Z</time>
      </trkpt>
      <trkpt lat="44.68644" lon="7.06475">
        <ele>2549.2</ele>
        <time>2026-08-31T10:03:45Z</time>
      </trkpt>
      <trkpt lat="44.68644" lon="7.06475">
        <ele>2549.2</ele>
        <time>2026-08-31T10:03:50Z</time>
      </trkpt>
      <trkpt lat="44.68644" lon="7.06475">
        <ele>2549.2</ele>
        <time>2026-08-31T10:03:56Z</time>
      </trkpt>
      <trkpt lat="44.68644" lon="7.06475">
        <ele>2549.2</ele>
        <time>2026-08-31T10:04:01Z</time>
      </trkpt>
      <trkpt lat="44.68644" lon="7.06475">
        <ele>2549.2</ele>
        <time>2026-08-31T10:04:06Z</time>
      </trkpt>
      <trkpt lat="44.68644" lon="7.06475">
        <ele>2549.2</ele>
        <time>2026-08-31T10:04:12Z</time>
      </trkpt>
      <trkpt lat="44.68644" lon="7.06475">
        <ele>2549.2</ele>
        <time>2026-08-31T10:04:17Z</time>
      </trkpt>
      <trkpt lat="44.68643" lon="7.06476">
        <ele>2549.6</ele>
        <time>2026-08-31T10:04:22Z</time>
      </trkpt>
      <trkpt lat="44.68638" lon="7.06476">
        <ele>2552.5</ele>
        <time>2026-08-31T10:04:28Z</time>
      </trkpt>
      <trkpt lat="44.68632" lon="7.06474">
        <ele>2556.2</ele>
        <time>2026-08-31T10:04:33Z</time>
      </trkpt>
      <trkpt lat="44.68628" lon="7.06474">
        <ele>2558.5</ele>
        <time>2026-08-31T10:04:38Z</time>
      </trkpt>
      <trkpt lat="44.68623" lon="7.06475">
        <ele>2561.3</ele>
        <time>2026-08-31T10:04:44Z</time>
      </trkpt>
      <trkpt lat="44.68621" lon="7.06476">
        <ele>2562.3</ele>
        <time>2026-08-31T10:04:49Z</time>
      </trkpt>
      <trkpt lat="44.68621" lon="7.06483">
        <ele>2561.2</ele>
        <time>2026-08-31T10:04:54Z</time>
      </trkpt>
      <trkpt lat="44.68617" lon="7.06485">
        <ele>2563.2</ele>
        <time>2026-08-31T10:05:00Z</time>
      </trkpt>
      <trkpt lat="44.68614" lon="7.0649">
        <ele>2564</ele>
        <time>2026-08-31T10:05:05Z</time>
      </trkpt>
      <trkpt lat="44.68612" lon="7.06494">
        <ele>2564.5</ele>
        <time>2026-08-31T10:05:10Z</time>
      </trkpt>
      <trkpt lat="44.68607" lon="7.06496">
        <ele>2566.9</ele>
        <time>2026-08-31T10:05:16Z</time>
      </trkpt>
      <trkpt lat="44.68607" lon="7.06498">
        <ele>2566.6</ele>
        <time>2026-08-31T10:05:21Z</time>
      </trkpt>
      <trkpt lat="44.68607" lon="7.06499">
        <ele>2566.4</ele>
        <time>2026-08-31T10:05:26Z</time>
      </trkpt>
      <trkpt lat="44.68607" lon="7.06499">
        <ele>2566.4</ele>
        <time>2026-08-31T10:05:32Z</time>
      </trkpt>
      <trkpt lat="44.68607" lon="7.06499">
        <ele>2566.4</ele>
        <time>2026-08-31T10:05:37Z</time>
      </trkpt>
      <trkpt lat="44.68605" lon="7.06503">
        <ele>2567.1</ele>
        <time>2026-08-31T10:05:42Z</time>
      </trkpt>
      <trkpt lat="44.686" lon="7.06502">
        <ele>2569.9</ele>
        <time>2026-08-31T10:05:48Z</time>
      </trkpt>
      <trkpt lat="44.68597" lon="7.065">
        <ele>2571.6</ele>
        <time>2026-08-31T10:05:53Z</time>
      </trkpt>
      <trkpt lat="44.68595" lon="7.06499">
        <ele>2572.9</ele>
        <time>2026-08-31T10:05:58Z</time>
      </trkpt>
      <trkpt lat="44.68595" lon="7.06497">
        <ele>2573.3</ele>
        <time>2026-08-31T10:06:04Z</time>
      </trkpt>
      <trkpt lat="44.68594" lon="7.06496">
        <ele>2574</ele>
        <time>2026-08-31T10:06:09Z</time>
      </trkpt>
      <trkpt lat="44.68594" lon="7.06496">
        <ele>2574</ele>
        <time>2026-08-31T10:06:14Z</time>
      </trkpt>
      <trkpt lat="44.68594" lon="7.06496">
        <ele>2574</ele>
        <time>2026-08-31T10:06:20Z</time>
      </trkpt>
      <trkpt lat="44.68594" lon="7.06496">
        <ele>2574</ele>
        <time>2026-08-31T10:06:25Z</time>
      </trkpt>
      <trkpt lat="44.68594" lon="7.06496">
        <ele>2574</ele>
        <time>2026-08-31T10:06:30Z</time>
      </trkpt>
      <trkpt lat="44.68594" lon="7.06496">
        <ele>2574</ele>
        <time>2026-08-31T10:06:36Z</time>
      </trkpt>
      <trkpt lat="44.68594" lon="7.06496">
        <ele>2574</ele>
        <time>2026-08-31T10:06:41Z</time>
      </trkpt>
      <trkpt lat="44.68593" lon="7.06487">
        <ele>2576.3</ele>
        <time>2026-08-31T10:06:46Z</time>
      </trkpt>
      <trkpt lat="44.68592" lon="7.06483">
        <ele>2577.6</ele>
        <time>2026-08-31T10:06:52Z</time>
      </trkpt>
      <trkpt lat="44.68589" lon="7.0648">
        <ele>2579.9</ele>
        <time>2026-08-31T10:06:57Z</time>
      </trkpt>
      <trkpt lat="44.6859" lon="7.06475">
        <ele>2580.3</ele>
        <time>2026-08-31T10:07:02Z</time>
      </trkpt>
      <trkpt lat="44.6859" lon="7.06469">
        <ele>2581.4</ele>
        <time>2026-08-31T10:07:08Z</time>
      </trkpt>
      <trkpt lat="44.6859" lon="7.06464">
        <ele>2582.4</ele>
        <time>2026-08-31T10:07:13Z</time>
      </trkpt>
      <trkpt lat="44.68588" lon="7.0646">
        <ele>2584.4</ele>
        <time>2026-08-31T10:07:18Z</time>
      </trkpt>
      <trkpt lat="44.68586" lon="7.06455">
        <ele>2586.6</ele>
        <time>2026-08-31T10:07:24Z</time>
      </trkpt>
      <trkpt lat="44.68586" lon="7.06451">
        <ele>2587.4</ele>
        <time>2026-08-31T10:07:29Z</time>
      </trkpt>
      <trkpt lat="44.68587" lon="7.06451">
        <ele>2586.8</ele>
        <time>2026-08-31T10:07:34Z</time>
      </trkpt>
      <trkpt lat="44.68588" lon="7.06453">
        <ele>2585.8</ele>
        <time>2026-08-31T10:07:40Z</time>
      </trkpt>
      <trkpt lat="44.68588" lon="7.06453">
        <ele>2585.8</ele>
        <time>2026-08-31T10:07:45Z</time>
      </trkpt>
      <trkpt lat="44.68588" lon="7.06453">
        <ele>2585.8</ele>
        <time>2026-08-31T10:07:50Z</time>
      </trkpt>
      <trkpt lat="44.68587" lon="7.06449">
        <ele>2587.2</ele>
        <time>2026-08-31T10:07:56Z</time>
      </trkpt>
      <trkpt lat="44.68584" lon="7.06446">
        <ele>2589.6</ele>
        <time>2026-08-31T10:08:01Z</time>
      </trkpt>
      <trkpt lat="44.68584" lon="7.0644">
        <ele>2590.8</ele>
        <time>2026-08-31T10:08:06Z</time>
      </trkpt>
      <trkpt lat="44.68584" lon="7.06434">
        <ele>2592</ele>
        <time>2026-08-31T10:08:12Z</time>
      </trkpt>
      <trkpt lat="44.68583" lon="7.06429">
        <ele>2593.7</ele>
        <time>2026-08-31T10:08:17Z</time>
      </trkpt>
      <trkpt lat="44.68582" lon="7.06425">
        <ele>2595.2</ele>
        <time>2026-08-31T10:08:22Z</time>
      </trkpt>
      <trkpt lat="44.68581" lon="7.06421">
        <ele>2596.6</ele>
        <time>2026-08-31T10:08:28Z</time>
      </trkpt>
      <trkpt lat="44.6858" lon="7.06419">
        <ele>2597.7</ele>
        <time>2026-08-31T10:08:33Z</time>
      </trkpt>
      <trkpt lat="44.68579" lon="7.06416">
        <ele>2598.8</ele>
        <time>2026-08-31T10:08:38Z</time>
      </trkpt>
      <trkpt lat="44.68578" lon="7.06413">
        <ele>2599.7</ele>
        <time>2026-08-31T10:08:44Z</time>
      </trkpt>
      <trkpt lat="44.68579" lon="7.06408">
        <ele>2599.4</ele>
        <time>2026-08-31T10:08:49Z</time>
      </trkpt>
      <trkpt lat="44.6858" lon="7.06405">
        <ele>2599</ele>
        <time>2026-08-31T10:08:54Z</time>
      </trkpt>
      <trkpt lat="44.68581" lon="7.06402">
        <ele>2598.6</ele>
        <time>2026-08-31T10:09:00Z</time>
      </trkpt>
      <trkpt lat="44.68582" lon="7.06398">
        <ele>2598.2</ele>
        <time>2026-08-31T10:09:05Z</time>
      </trkpt>
      <trkpt lat="44.6858" lon="7.06396">
        <ele>2599.7</ele>
        <time>2026-08-31T10:09:10Z</time>
      </trkpt>
      <trkpt lat="44.68579" lon="7.06395">
        <ele>2600.4</ele>
        <time>2026-08-31T10:09:16Z</time>
      </trkpt>
      <trkpt lat="44.68579" lon="7.06395">
        <ele>2600.4</ele>
        <time>2026-08-31T10:09:21Z</time>
      </trkpt>
      <trkpt lat="44.68579" lon="7.06395">
        <ele>2600.4</ele>
        <time>2026-08-31T10:09:26Z</time>
      </trkpt>
      <trkpt lat="44.68579" lon="7.06395">
        <ele>2600.4</ele>
        <time>2026-08-31T10:09:32Z</time>
      </trkpt>
      <trkpt lat="44.68579" lon="7.06395">
        <ele>2600.4</ele>
        <time>2026-08-31T10:09:37Z</time>
      </trkpt>
      <trkpt lat="44.68579" lon="7.06395">
        <ele>2600.4</ele>
        <time>2026-08-31T10:09:42Z</time>
      </trkpt>
      <trkpt lat="44.6858" lon="7.06389">
        <ele>2600.2</ele>
        <time>2026-08-31T10:09:48Z</time>
      </trkpt>
      <trkpt lat="44.68582" lon="7.06385">
        <ele>2599.2</ele>
        <time>2026-08-31T10:09:53Z</time>
      </trkpt>
      <trkpt lat="44.68584" lon="7.06379">
        <ele>2598.3</ele>
        <time>2026-08-31T10:09:58Z</time>
      </trkpt>
      <trkpt lat="44.68584" lon="7.06373">
        <ele>2598.7</ele>
        <time>2026-08-31T10:10:04Z</time>
      </trkpt>
      <trkpt lat="44.68582" lon="7.0637">
        <ele>2600.3</ele>
        <time>2026-08-31T10:10:09Z</time>
      </trkpt>
      <trkpt lat="44.68583" lon="7.06366">
        <ele>2599.9</ele>
        <time>2026-08-31T10:10:14Z</time>
      </trkpt>
      <trkpt lat="44.68582" lon="7.06362">
        <ele>2600.8</ele>
        <time>2026-08-31T10:10:20Z</time>
      </trkpt>
      <trkpt lat="44.68582" lon="7.06358">
        <ele>2601.1</ele>
        <time>2026-08-31T10:10:25Z</time>
      </trkpt>
      <trkpt lat="44.68583" lon="7.06355">
        <ele>2600.7</ele>
        <time>2026-08-31T10:10:30Z</time>
      </trkpt>
      <trkpt lat="44.68582" lon="7.06353">
        <ele>2601.5</ele>
        <time>2026-08-31T10:10:36Z</time>
      </trkpt>
      <trkpt lat="44.68582" lon="7.06352">
        <ele>2601.6</ele>
        <time>2026-08-31T10:10:41Z</time>
      </trkpt>
      <trkpt lat="44.68582" lon="7.06352">
        <ele>2601.6</ele>
        <time>2026-08-31T10:10:46Z</time>
      </trkpt>
      <trkpt lat="44.68582" lon="7.06352">
        <ele>2601.6</ele>
        <time>2026-08-31T10:10:52Z</time>
      </trkpt>
      <trkpt lat="44.68582" lon="7.06345">
        <ele>2602.1</ele>
        <time>2026-08-31T10:10:57Z</time>
      </trkpt>
      <trkpt lat="44.68582" lon="7.06344">
        <ele>2602.1</ele>
        <time>2026-08-31T10:11:02Z</time>
      </trkpt>
      <trkpt lat="44.68582" lon="7.06344">
        <ele>2602.1</ele>
        <time>2026-08-31T10:11:08Z</time>
      </trkpt>
      <trkpt lat="44.68582" lon="7.06344">
        <ele>2602.1</ele>
        <time>2026-08-31T10:11:13Z</time>
      </trkpt>
      <trkpt lat="44.68582" lon="7.06344">
        <ele>2602.1</ele>
        <time>2026-08-31T10:11:18Z</time>
      </trkpt>
      <trkpt lat="44.68582" lon="7.06344">
        <ele>2602.1</ele>
        <time>2026-08-31T10:11:24Z</time>
      </trkpt>
      <trkpt lat="44.68582" lon="7.06335">
        <ele>2602.8</ele>
        <time>2026-08-31T10:11:29Z</time>
      </trkpt>
      <trkpt lat="44.68582" lon="7.06335">
        <ele>2602.8</ele>
        <time>2026-08-31T10:11:34Z</time>
      </trkpt>
      <trkpt lat="44.68582" lon="7.06335">
        <ele>2602.8</ele>
        <time>2026-08-31T10:11:40Z</time>
      </trkpt>
      <trkpt lat="44.68582" lon="7.06335">
        <ele>2602.8</ele>
        <time>2026-08-31T10:11:45Z</time>
      </trkpt>
      <trkpt lat="44.68582" lon="7.06335">
        <ele>2602.8</ele>
        <time>2026-08-31T10:11:50Z</time>
      </trkpt>
      <trkpt lat="44.68582" lon="7.06335">
        <ele>2602.8</ele>
        <time>2026-08-31T10:11:56Z</time>
      </trkpt>
      <trkpt lat="44.68582" lon="7.06335">
        <ele>2602.8</ele>
        <time>2026-08-31T10:12:01Z</time>
      </trkpt>
      <trkpt lat="44.68582" lon="7.06335">
        <ele>2602.8</ele>
        <time>2026-08-31T10:12:06Z</time>
      </trkpt>
      <trkpt lat="44.68582" lon="7.06335">
        <ele>2602.8</ele>
        <time>2026-08-31T10:12:12Z</time>
      </trkpt>
      <trkpt lat="44.68582" lon="7.06335">
        <ele>2602.8</ele>
        <time>2026-08-31T10:12:17Z</time>
      </trkpt>
      <trkpt lat="44.68582" lon="7.06335">
        <ele>2602.8</ele>
        <time>2026-08-31T10:12:22Z</time>
      </trkpt>
      <trkpt lat="44.68585" lon="7.06329">
        <ele>2601.8</ele>
        <time>2026-08-31T10:12:28Z</time>
      </trkpt>
      <trkpt lat="44.68585" lon="7.06323">
        <ele>2602.7</ele>
        <time>2026-08-31T10:12:33Z</time>
      </trkpt>
      <trkpt lat="44.68584" lon="7.06318">
        <ele>2604</ele>
        <time>2026-08-31T10:12:38Z</time>
      </trkpt>
      <trkpt lat="44.68583" lon="7.06315">
        <ele>2605.1</ele>
        <time>2026-08-31T10:12:44Z</time>
      </trkpt>
      <trkpt lat="44.68583" lon="7.06311">
        <ele>2605.7</ele>
        <time>2026-08-31T10:12:49Z</time>
      </trkpt>
      <trkpt lat="44.68582" lon="7.06307">
        <ele>2607.1</ele>
        <time>2026-08-31T10:12:54Z</time>
      </trkpt>
      <trkpt lat="44.68581" lon="7.06303">
        <ele>2608.4</ele>
        <time>2026-08-31T10:13:00Z</time>
      </trkpt>
      <trkpt lat="44.68581" lon="7.06303">
        <ele>2608.4</ele>
        <time>2026-08-31T10:13:05Z</time>
      </trkpt>
      <trkpt lat="44.68581" lon="7.06303">
        <ele>2608.4</ele>
        <time>2026-08-31T10:13:10Z</time>
      </trkpt>
      <trkpt lat="44.68581" lon="7.06303">
        <ele>2608.4</ele>
        <time>2026-08-31T10:13:16Z</time>
      </trkpt>
      <trkpt lat="44.68581" lon="7.06303">
        <ele>2608.4</ele>
        <time>2026-08-31T10:13:21Z</time>
      </trkpt>
      <trkpt lat="44.68581" lon="7.06303">
        <ele>2608.4</ele>
        <time>2026-08-31T10:13:26Z</time>
      </trkpt>
      <trkpt lat="44.68581" lon="7.06303">
        <ele>2608.4</ele>
        <time>2026-08-31T10:13:32Z</time>
      </trkpt>
      <trkpt lat="44.68581" lon="7.06303">
        <ele>2608.4</ele>
        <time>2026-08-31T10:13:37Z</time>
      </trkpt>
      <trkpt lat="44.68581" lon="7.06303">
        <ele>2608.4</ele>
        <time>2026-08-31T10:13:42Z</time>
      </trkpt>
      <trkpt lat="44.68581" lon="7.06303">
        <ele>2608.4</ele>
        <time>2026-08-31T10:13:48Z</time>
      </trkpt>
      <trkpt lat="44.68581" lon="7.06303">
        <ele>2608.4</ele>
        <time>2026-08-31T10:13:53Z</time>
      </trkpt>
      <trkpt lat="44.6858" lon="7.06294">
        <ele>2610.5</ele>
        <time>2026-08-31T10:13:58Z</time>
      </trkpt>
      <trkpt lat="44.68577" lon="7.06289">
        <ele>2613.5</ele>
        <time>2026-08-31T10:14:04Z</time>
      </trkpt>
      <trkpt lat="44.68575" lon="7.06285">
        <ele>2615.6</ele>
        <time>2026-08-31T10:14:09Z</time>
      </trkpt>
      <trkpt lat="44.68575" lon="7.06282">
        <ele>2616.1</ele>
        <time>2026-08-31T10:14:14Z</time>
      </trkpt>
      <trkpt lat="44.68577" lon="7.06276">
        <ele>2615.6</ele>
        <time>2026-08-31T10:14:20Z</time>
      </trkpt>
      <trkpt lat="44.68577" lon="7.06273">
        <ele>2616</ele>
        <time>2026-08-31T10:14:25Z</time>
      </trkpt>
      <trkpt lat="44.68576" lon="7.06269">
        <ele>2617.4</ele>
        <time>2026-08-31T10:14:30Z</time>
      </trkpt>
      <trkpt lat="44.68577" lon="7.06264">
        <ele>2617.5</ele>
        <time>2026-08-31T10:14:36Z</time>
      </trkpt>
      <trkpt lat="44.68576" lon="7.0626">
        <ele>2618.9</ele>
        <time>2026-08-31T10:14:41Z</time>
      </trkpt>
      <trkpt lat="44.68573" lon="7.06259">
        <ele>2621.2</ele>
        <time>2026-08-31T10:14:46Z</time>
      </trkpt>
      <trkpt lat="44.68572" lon="7.06258">
        <ele>2622.1</ele>
        <time>2026-08-31T10:14:52Z</time>
      </trkpt>
      <trkpt lat="44.68572" lon="7.06258">
        <ele>2622.1</ele>
        <time>2026-08-31T10:14:57Z</time>
      </trkpt>
      <trkpt lat="44.68573" lon="7.06251">
        <ele>2622.5</ele>
        <time>2026-08-31T10:15:02Z</time>
      </trkpt>
      <trkpt lat="44.68572" lon="7.06248">
        <ele>2624</ele>
        <time>2026-08-31T10:15:08Z</time>
      </trkpt>
      <trkpt lat="44.68574" lon="7.06246">
        <ele>2623</ele>
        <time>2026-08-31T10:15:13Z</time>
      </trkpt>
      <trkpt lat="44.68573" lon="7.06241">
        <ele>2625.2</ele>
        <time>2026-08-31T10:15:18Z</time>
      </trkpt>
      <trkpt lat="44.68571" lon="7.06235">
        <ele>2628.3</ele>
        <time>2026-08-31T10:15:24Z</time>
      </trkpt>
      <trkpt lat="44.6857" lon="7.06232">
        <ele>2629.9</ele>
        <time>2026-08-31T10:15:29Z</time>
      </trkpt>
      <trkpt lat="44.6857" lon="7.06232">
        <ele>2629.9</ele>
        <time>2026-08-31T10:15:34Z</time>
      </trkpt>
      <trkpt lat="44.6857" lon="7.06232">
        <ele>2629.9</ele>
        <time>2026-08-31T10:15:40Z</time>
      </trkpt>
      <trkpt lat="44.6857" lon="7.06232">
        <ele>2629.9</ele>
        <time>2026-08-31T10:15:45Z</time>
      </trkpt>
      <trkpt lat="44.6857" lon="7.06232">
        <ele>2629.9</ele>
        <time>2026-08-31T10:15:50Z</time>
      </trkpt>
      <trkpt lat="44.6857" lon="7.06232">
        <ele>2629.9</ele>
        <time>2026-08-31T10:15:56Z</time>
      </trkpt>
      <trkpt lat="44.6857" lon="7.06232">
        <ele>2629.9</ele>
        <time>2026-08-31T10:16:01Z</time>
      </trkpt>
      <trkpt lat="44.6857" lon="7.06232">
        <ele>2629.9</ele>
        <time>2026-08-31T10:16:06Z</time>
      </trkpt>
      <trkpt lat="44.6857" lon="7.06232">
        <ele>2629.9</ele>
        <time>2026-08-31T10:16:12Z</time>
      </trkpt>
      <trkpt lat="44.6857" lon="7.06232">
        <ele>2629.9</ele>
        <time>2026-08-31T10:16:17Z</time>
      </trkpt>
      <trkpt lat="44.68567" lon="7.06219">
        <ele>2635.9</ele>
        <time>2026-08-31T10:16:22Z</time>
      </trkpt>
      <trkpt lat="44.68568" lon="7.06213">
        <ele>2636.8</ele>
        <time>2026-08-31T10:16:28Z</time>
      </trkpt>
      <trkpt lat="44.68566" lon="7.06211">
        <ele>2639</ele>
        <time>2026-08-31T10:16:33Z</time>
      </trkpt>
      <trkpt lat="44.68566" lon="7.06211">
        <ele>2639</ele>
        <time>2026-08-31T10:16:38Z</time>
      </trkpt>
      <trkpt lat="44.68566" lon="7.06211">
        <ele>2639</ele>
        <time>2026-08-31T10:16:44Z</time>
      </trkpt>
      <trkpt lat="44.68566" lon="7.06211">
        <ele>2639</ele>
        <time>2026-08-31T10:16:49Z</time>
      </trkpt>
      <trkpt lat="44.68566" lon="7.06211">
        <ele>2639</ele>
        <time>2026-08-31T10:16:54Z</time>
      </trkpt>
      <trkpt lat="44.68567" lon="7.06204">
        <ele>2640.2</ele>
        <time>2026-08-31T10:17:00Z</time>
      </trkpt>
      <trkpt lat="44.68566" lon="7.06203">
        <ele>2641.2</ele>
        <time>2026-08-31T10:17:05Z</time>
      </trkpt>
      <trkpt lat="44.68566" lon="7.06203">
        <ele>2641.2</ele>
        <time>2026-08-31T10:17:10Z</time>
      </trkpt>
      <trkpt lat="44.68566" lon="7.06203">
        <ele>2641.2</ele>
        <time>2026-08-31T10:17:16Z</time>
      </trkpt>
      <trkpt lat="44.68566" lon="7.06203">
        <ele>2641.2</ele>
        <time>2026-08-31T10:17:21Z</time>
      </trkpt>
      <trkpt lat="44.68566" lon="7.06203">
        <ele>2641.2</ele>
        <time>2026-08-31T10:17:26Z</time>
      </trkpt>
      <trkpt lat="44.68566" lon="7.06203">
        <ele>2641.2</ele>
        <time>2026-08-31T10:17:32Z</time>
      </trkpt>
      <trkpt lat="44.68566" lon="7.06203">
        <ele>2641.2</ele>
        <time>2026-08-31T10:17:37Z</time>
      </trkpt>
      <trkpt lat="44.68566" lon="7.06203">
        <ele>2641.2</ele>
        <time>2026-08-31T10:17:42Z</time>
      </trkpt>
      <trkpt lat="44.68557" lon="7.06208">
        <ele>2647</ele>
        <time>2026-08-31T10:17:48Z</time>
      </trkpt>
      <trkpt lat="44.68557" lon="7.06208">
        <ele>2647</ele>
        <time>2026-08-31T10:17:53Z</time>
      </trkpt>
      <trkpt lat="44.68557" lon="7.06208">
        <ele>2647</ele>
        <time>2026-08-31T10:17:58Z</time>
      </trkpt>
      <trkpt lat="44.68557" lon="7.06208">
        <ele>2647</ele>
        <time>2026-08-31T10:18:04Z</time>
      </trkpt>
      <trkpt lat="44.68557" lon="7.06208">
        <ele>2647</ele>
        <time>2026-08-31T10:18:09Z</time>
      </trkpt>
      <trkpt lat="44.68557" lon="7.06208">
        <ele>2647</ele>
        <time>2026-08-31T10:18:14Z</time>
      </trkpt>
      <trkpt lat="44.68557" lon="7.06208">
        <ele>2647</ele>
        <time>2026-08-31T10:18:20Z</time>
      </trkpt>
      <trkpt lat="44.68557" lon="7.06208">
        <ele>2647</ele>
        <time>2026-08-31T10:18:25Z</time>
      </trkpt>
      <trkpt lat="44.68551" lon="7.06217">
        <ele>2649</ele>
        <time>2026-08-31T10:18:30Z</time>
      </trkpt>
      <trkpt lat="44.68551" lon="7.06217">
        <ele>2649</ele>
        <time>2026-08-31T10:18:36Z</time>
      </trkpt>
      <trkpt lat="44.68551" lon="7.06217">
        <ele>2649</ele>
        <time>2026-08-31T10:18:41Z</time>
      </trkpt>
      <trkpt lat="44.68551" lon="7.06217">
        <ele>2649</ele>
        <time>2026-08-31T10:18:46Z</time>
      </trkpt>
      <trkpt lat="44.68551" lon="7.06217">
        <ele>2649</ele>
        <time>2026-08-31T10:18:52Z</time>
      </trkpt>
      <trkpt lat="44.68551" lon="7.06217">
        <ele>2649</ele>
        <time>2026-08-31T10:18:57Z</time>
      </trkpt>
      <trkpt lat="44.68543" lon="7.06219">
        <ele>2654.6</ele>
        <time>2026-08-31T10:19:02Z</time>
      </trkpt>
      <trkpt lat="44.68542" lon="7.0622">
        <ele>2655.1</ele>
        <time>2026-08-31T10:19:08Z</time>
      </trkpt>
      <trkpt lat="44.68542" lon="7.0622">
        <ele>2655.1</ele>
        <time>2026-08-31T10:19:13Z</time>
      </trkpt>
      <trkpt lat="44.6854" lon="7.06225">
        <ele>2655.1</ele>
        <time>2026-08-31T10:19:18Z</time>
      </trkpt>
      <trkpt lat="44.68538" lon="7.06225">
        <ele>2656.6</ele>
        <time>2026-08-31T10:19:24Z</time>
      </trkpt>
      <trkpt lat="44.68538" lon="7.06227">
        <ele>2656</ele>
        <time>2026-08-31T10:19:29Z</time>
      </trkpt>
      <trkpt lat="44.68538" lon="7.06227">
        <ele>2656</ele>
        <time>2026-08-31T10:19:34Z</time>
      </trkpt>
      <trkpt lat="44.68538" lon="7.06227">
        <ele>2656</ele>
        <time>2026-08-31T10:19:40Z</time>
      </trkpt>
      <trkpt lat="44.68538" lon="7.06227">
        <ele>2656</ele>
        <time>2026-08-31T10:19:45Z</time>
      </trkpt>
      <trkpt lat="44.68538" lon="7.06227">
        <ele>2656</ele>
        <time>2026-08-31T10:19:50Z</time>
      </trkpt>
      <trkpt lat="44.68538" lon="7.06227">
        <ele>2656</ele>
        <time>2026-08-31T10:19:56Z</time>
      </trkpt>
      <trkpt lat="44.68538" lon="7.06227">
        <ele>2656</ele>
        <time>2026-08-31T10:20:01Z</time>
      </trkpt>
      <trkpt lat="44.68538" lon="7.06227">
        <ele>2656</ele>
        <time>2026-08-31T10:20:06Z</time>
      </trkpt>
      <trkpt lat="44.68538" lon="7.06227">
        <ele>2656</ele>
        <time>2026-08-31T10:20:12Z</time>
      </trkpt>
      <trkpt lat="44.68538" lon="7.06227">
        <ele>2656</ele>
        <time>2026-08-31T10:20:17Z</time>
      </trkpt>
      <trkpt lat="44.68538" lon="7.06227">
        <ele>2656</ele>
        <time>2026-08-31T10:20:22Z</time>
      </trkpt>
      <trkpt lat="44.68527" lon="7.06237">
        <ele>2661.2</ele>
        <time>2026-08-31T10:20:28Z</time>
      </trkpt>
      <trkpt lat="44.68525" lon="7.0624">
        <ele>2661.7</ele>
        <time>2026-08-31T10:20:33Z</time>
      </trkpt>
      <trkpt lat="44.68525" lon="7.06242">
        <ele>2661</ele>
        <time>2026-08-31T10:20:38Z</time>
      </trkpt>
      <trkpt lat="44.68524" lon="7.06243">
        <ele>2661.5</ele>
        <time>2026-08-31T10:20:44Z</time>
      </trkpt>
      <trkpt lat="44.68524" lon="7.06244">
        <ele>2661.1</ele>
        <time>2026-08-31T10:20:49Z</time>
      </trkpt>
      <trkpt lat="44.68521" lon="7.06247">
        <ele>2662.4</ele>
        <time>2026-08-31T10:20:54Z</time>
      </trkpt>
      <trkpt lat="44.68519" lon="7.06247">
        <ele>2663.9</ele>
        <time>2026-08-31T10:21:00Z</time>
      </trkpt>
      <trkpt lat="44.68518" lon="7.06246">
        <ele>2665</ele>
        <time>2026-08-31T10:21:05Z</time>
      </trkpt>
      <trkpt lat="44.68518" lon="7.06246">
        <ele>2665</ele>
        <time>2026-08-31T10:21:10Z</time>
      </trkpt>
      <trkpt lat="44.68518" lon="7.06246">
        <ele>2665</ele>
        <time>2026-08-31T10:21:16Z</time>
      </trkpt>
      <trkpt lat="44.68518" lon="7.06246">
        <ele>2665</ele>
        <time>2026-08-31T10:21:21Z</time>
      </trkpt>
      <trkpt lat="44.68518" lon="7.06246">
        <ele>2665</ele>
        <time>2026-08-31T10:21:26Z</time>
      </trkpt>
      <trkpt lat="44.68518" lon="7.06246">
        <ele>2665</ele>
        <time>2026-08-31T10:21:32Z</time>
      </trkpt>
      <trkpt lat="44.68514" lon="7.0625">
        <ele>2666.6</ele>
        <time>2026-08-31T10:21:37Z</time>
      </trkpt>
      <trkpt lat="44.68513" lon="7.0625">
        <ele>2667.3</ele>
        <time>2026-08-31T10:21:42Z</time>
      </trkpt>
      <trkpt lat="44.68513" lon="7.0625">
        <ele>2667.3</ele>
        <time>2026-08-31T10:21:48Z</time>
      </trkpt>
      <trkpt lat="44.68513" lon="7.0625">
        <ele>2667.3</ele>
        <time>2026-08-31T10:21:53Z</time>
      </trkpt>
      <trkpt lat="44.68513" lon="7.0625">
        <ele>2667.3</ele>
        <time>2026-08-31T10:21:58Z</time>
      </trkpt>
      <trkpt lat="44.68513" lon="7.0625">
        <ele>2667.3</ele>
        <time>2026-08-31T10:22:04Z</time>
      </trkpt>
      <trkpt lat="44.68513" lon="7.0625">
        <ele>2667.3</ele>
        <time>2026-08-31T10:22:09Z</time>
      </trkpt>
      <trkpt lat="44.68513" lon="7.0625">
        <ele>2667.3</ele>
        <time>2026-08-31T10:22:14Z</time>
      </trkpt>
      <trkpt lat="44.68513" lon="7.0625">
        <ele>2667.3</ele>
        <time>2026-08-31T10:22:20Z</time>
      </trkpt>
      <trkpt lat="44.68513" lon="7.0625">
        <ele>2667.3</ele>
        <time>2026-08-31T10:22:25Z</time>
      </trkpt>
      <trkpt lat="44.68513" lon="7.0625">
        <ele>2667.3</ele>
        <time>2026-08-31T10:22:30Z</time>
      </trkpt>
      <trkpt lat="44.68513" lon="7.0625">
        <ele>2667.3</ele>
        <time>2026-08-31T10:22:36Z</time>
      </trkpt>
      <trkpt lat="44.68513" lon="7.0625">
        <ele>2667.3</ele>
        <time>2026-08-31T10:22:41Z</time>
      </trkpt>
      <trkpt lat="44.68513" lon="7.0625">
        <ele>2667.3</ele>
        <time>2026-08-31T10:22:46Z</time>
      </trkpt>
      <trkpt lat="44.68513" lon="7.0625">
        <ele>2667.3</ele>
        <time>2026-08-31T10:22:52Z</time>
      </trkpt>
      <trkpt lat="44.68513" lon="7.0625">
        <ele>2667.3</ele>
        <time>2026-08-31T10:22:57Z</time>
      </trkpt>
      <trkpt lat="44.68512" lon="7.06235">
        <ele>2673.3</ele>
        <time>2026-08-31T10:23:02Z</time>
      </trkpt>
      <trkpt lat="44.68512" lon="7.0623">
        <ele>2675</ele>
        <time>2026-08-31T10:23:08Z</time>
      </trkpt>
      <trkpt lat="44.68511" lon="7.06226">
        <ele>2677.2</ele>
        <time>2026-08-31T10:23:13Z</time>
      </trkpt>
      <trkpt lat="44.68512" lon="7.06222">
        <ele>2677.8</ele>
        <time>2026-08-31T10:23:18Z</time>
      </trkpt>
      <trkpt lat="44.6851" lon="7.06218">
        <ele>2680.7</ele>
        <time>2026-08-31T10:23:24Z</time>
      </trkpt>
      <trkpt lat="44.6851" lon="7.06215">
        <ele>2681.8</ele>
        <time>2026-08-31T10:23:29Z</time>
      </trkpt>
      <trkpt lat="44.68509" lon="7.06214">
        <ele>2682.9</ele>
        <time>2026-08-31T10:23:34Z</time>
      </trkpt>
      <trkpt lat="44.68509" lon="7.0621">
        <ele>2684.3</ele>
        <time>2026-08-31T10:23:40Z</time>
      </trkpt>
      <trkpt lat="44.6851" lon="7.06206">
        <ele>2684.9</ele>
        <time>2026-08-31T10:23:45Z</time>
      </trkpt>
      <trkpt lat="44.68511" lon="7.06203">
        <ele>2685.1</ele>
        <time>2026-08-31T10:23:50Z</time>
      </trkpt>
      <trkpt lat="44.68514" lon="7.06202">
        <ele>2683.1</ele>
        <time>2026-08-31T10:23:56Z</time>
      </trkpt>
      <trkpt lat="44.68515" lon="7.06199">
        <ele>2683.3</ele>
        <time>2026-08-31T10:24:01Z</time>
      </trkpt>
      <trkpt lat="44.68515" lon="7.06196">
        <ele>2684.3</ele>
        <time>2026-08-31T10:24:06Z</time>
      </trkpt>
      <trkpt lat="44.68514" lon="7.06193">
        <ele>2686.2</ele>
        <time>2026-08-31T10:24:12Z</time>
      </trkpt>
      <trkpt lat="44.68514" lon="7.0619">
        <ele>2687.2</ele>
        <time>2026-08-31T10:24:17Z</time>
      </trkpt>
      <trkpt lat="44.68514" lon="7.06189">
        <ele>2687.6</ele>
        <time>2026-08-31T10:24:22Z</time>
      </trkpt>
      <trkpt lat="44.68514" lon="7.06189">
        <ele>2687.6</ele>
        <time>2026-08-31T10:24:28Z</time>
      </trkpt>
      <trkpt lat="44.68514" lon="7.06189">
        <ele>2687.6</ele>
        <time>2026-08-31T10:24:33Z</time>
      </trkpt>
      <trkpt lat="44.68514" lon="7.06189">
        <ele>2687.6</ele>
        <time>2026-08-31T10:24:38Z</time>
      </trkpt>
      <trkpt lat="44.68511" lon="7.06184">
        <ele>2691.7</ele>
        <time>2026-08-31T10:24:44Z</time>
      </trkpt>
      <trkpt lat="44.68511" lon="7.0618">
        <ele>2693.1</ele>
        <time>2026-08-31T10:24:49Z</time>
      </trkpt>
      <trkpt lat="44.68511" lon="7.06179">
        <ele>2693.5</ele>
        <time>2026-08-31T10:24:54Z</time>
      </trkpt>
      <trkpt lat="44.6851" lon="7.06175">
        <ele>2695.7</ele>
        <time>2026-08-31T10:25:00Z</time>
      </trkpt>
      <trkpt lat="44.68512" lon="7.06172">
        <ele>2695.1</ele>
        <time>2026-08-31T10:25:05Z</time>
      </trkpt>
      <trkpt lat="44.68512" lon="7.0617">
        <ele>2695.8</ele>
        <time>2026-08-31T10:25:10Z</time>
      </trkpt>
      <trkpt lat="44.68512" lon="7.0617">
        <ele>2695.8</ele>
        <time>2026-08-31T10:25:16Z</time>
      </trkpt>
      <trkpt lat="44.68508" lon="7.06166">
        <ele>2700.6</ele>
        <time>2026-08-31T10:25:21Z</time>
      </trkpt>
      <trkpt lat="44.68507" lon="7.06165">
        <ele>2701.9</ele>
        <time>2026-08-31T10:25:26Z</time>
      </trkpt>
      <trkpt lat="44.68508" lon="7.06161">
        <ele>2702.8</ele>
        <time>2026-08-31T10:25:32Z</time>
      </trkpt>
      <trkpt lat="44.68507" lon="7.06159">
        <ele>2704.6</ele>
        <time>2026-08-31T10:25:37Z</time>
      </trkpt>
      <trkpt lat="44.68507" lon="7.06159">
        <ele>2704.6</ele>
        <time>2026-08-31T10:25:42Z</time>
      </trkpt>
      <trkpt lat="44.68507" lon="7.06159">
        <ele>2704.6</ele>
        <time>2026-08-31T10:25:48Z</time>
      </trkpt>
      <trkpt lat="44.68507" lon="7.06159">
        <ele>2704.6</ele>
        <time>2026-08-31T10:25:53Z</time>
      </trkpt>
      <trkpt lat="44.68507" lon="7.06159">
        <ele>2704.6</ele>
        <time>2026-08-31T10:25:58Z</time>
      </trkpt>
      <trkpt lat="44.68507" lon="7.06159">
        <ele>2704.6</ele>
        <time>2026-08-31T10:26:04Z</time>
      </trkpt>
      <trkpt lat="44.68507" lon="7.06159">
        <ele>2704.6</ele>
        <time>2026-08-31T10:26:09Z</time>
      </trkpt>
      <trkpt lat="44.68507" lon="7.06159">
        <ele>2704.6</ele>
        <time>2026-08-31T10:26:14Z</time>
      </trkpt>
      <trkpt lat="44.68507" lon="7.06159">
        <ele>2704.6</ele>
        <time>2026-08-31T10:26:20Z</time>
      </trkpt>
      <trkpt lat="44.68507" lon="7.06159">
        <ele>2704.6</ele>
        <time>2026-08-31T10:26:25Z</time>
      </trkpt>
      <trkpt lat="44.68507" lon="7.06159">
        <ele>2704.6</ele>
        <time>2026-08-31T10:26:30Z</time>
      </trkpt>
      <trkpt lat="44.68507" lon="7.06159">
        <ele>2704.6</ele>
        <time>2026-08-31T10:26:36Z</time>
      </trkpt>
      <trkpt lat="44.68507" lon="7.06159">
        <ele>2704.6</ele>
        <time>2026-08-31T10:26:41Z</time>
      </trkpt>
      <trkpt lat="44.68507" lon="7.06159">
        <ele>2704.6</ele>
        <time>2026-08-31T10:26:46Z</time>
      </trkpt>
      <trkpt lat="44.68507" lon="7.06159">
        <ele>2704.6</ele>
        <time>2026-08-31T10:26:52Z</time>
      </trkpt>
      <trkpt lat="44.68507" lon="7.06159">
        <ele>2704.6</ele>
        <time>2026-08-31T10:26:57Z</time>
      </trkpt>
      <trkpt lat="44.68507" lon="7.06159">
        <ele>2704.6</ele>
        <time>2026-08-31T10:27:02Z</time>
      </trkpt>
      <trkpt lat="44.68507" lon="7.06159">
        <ele>2704.6</ele>
        <time>2026-08-31T10:27:08Z</time>
      </trkpt>
      <trkpt lat="44.68507" lon="7.06159">
        <ele>2704.6</ele>
        <time>2026-08-31T10:27:13Z</time>
      </trkpt>
      <trkpt lat="44.68507" lon="7.06159">
        <ele>2704.6</ele>
        <time>2026-08-31T10:27:18Z</time>
      </trkpt>
      <trkpt lat="44.68507" lon="7.06159">
        <ele>2704.6</ele>
        <time>2026-08-31T10:27:24Z</time>
      </trkpt>
      <trkpt lat="44.68507" lon="7.06159">
        <ele>2704.6</ele>
        <time>2026-08-31T10:27:29Z</time>
      </trkpt>
      <trkpt lat="44.68507" lon="7.06159">
        <ele>2704.6</ele>
        <time>2026-08-31T10:27:34Z</time>
      </trkpt>
      <trkpt lat="44.68507" lon="7.06159">
        <ele>2704.6</ele>
        <time>2026-08-31T10:27:40Z</time>
      </trkpt>
      <trkpt lat="44.685" lon="7.06166">
        <ele>2707.3</ele>
        <time>2026-08-31T10:27:45Z</time>
      </trkpt>
      <trkpt lat="44.685" lon="7.06166">
        <ele>2707.3</ele>
        <time>2026-08-31T10:27:50Z</time>
      </trkpt>
      <trkpt lat="44.685" lon="7.06166">
        <ele>2707.3</ele>
        <time>2026-08-31T10:27:56Z</time>
      </trkpt>
      <trkpt lat="44.685" lon="7.06166">
        <ele>2707.3</ele>
        <time>2026-08-31T10:28:01Z</time>
      </trkpt>
      <trkpt lat="44.685" lon="7.06166">
        <ele>2707.3</ele>
        <time>2026-08-31T10:28:06Z</time>
      </trkpt>
      <trkpt lat="44.685" lon="7.06166">
        <ele>2707.3</ele>
        <time>2026-08-31T10:28:12Z</time>
      </trkpt>
      <trkpt lat="44.685" lon="7.06166">
        <ele>2707.3</ele>
        <time>2026-08-31T10:28:17Z</time>
      </trkpt>
      <trkpt lat="44.685" lon="7.06166">
        <ele>2707.3</ele>
        <time>2026-08-31T10:28:22Z</time>
      </trkpt>
      <trkpt lat="44.685" lon="7.06166">
        <ele>2707.3</ele>
        <time>2026-08-31T10:28:28Z</time>
      </trkpt>
      <trkpt lat="44.685" lon="7.06166">
        <ele>2707.3</ele>
        <time>2026-08-31T10:28:33Z</time>
      </trkpt>
      <trkpt lat="44.685" lon="7.06166">
        <ele>2707.3</ele>
        <time>2026-08-31T10:28:38Z</time>
      </trkpt>
      <trkpt lat="44.685" lon="7.06166">
        <ele>2707.3</ele>
        <time>2026-08-31T10:28:44Z</time>
      </trkpt>
      <trkpt lat="44.685" lon="7.06166">
        <ele>2707.3</ele>
        <time>2026-08-31T10:28:49Z</time>
      </trkpt>
      <trkpt lat="44.685" lon="7.06166">
        <ele>2707.3</ele>
        <time>2026-08-31T10:28:54Z</time>
      </trkpt>
      <trkpt lat="44.685" lon="7.06166">
        <ele>2707.3</ele>
        <time>2026-08-31T10:29:00Z</time>
      </trkpt>
      <trkpt lat="44.685" lon="7.06166">
        <ele>2707.3</ele>
        <time>2026-08-31T10:29:05Z</time>
      </trkpt>
      <trkpt lat="44.68491" lon="7.06173">
        <ele>2715.1</ele>
        <time>2026-08-31T10:29:10Z</time>
      </trkpt>
      <trkpt lat="44.68491" lon="7.06173">
        <ele>2715.1</ele>
        <time>2026-08-31T10:29:16Z</time>
      </trkpt>
      <trkpt lat="44.68491" lon="7.06173">
        <ele>2715.1</ele>
        <time>2026-08-31T10:29:21Z</time>
      </trkpt>
      <trkpt lat="44.68484" lon="7.06176">
        <ele>2721.8</ele>
        <time>2026-08-31T10:29:26Z</time>
      </trkpt>
      <trkpt lat="44.68482" lon="7.06177">
        <ele>2723.6</ele>
        <time>2026-08-31T10:29:32Z</time>
      </trkpt>
      <trkpt lat="44.6848" lon="7.06178">
        <ele>2725.5</ele>
        <time>2026-08-31T10:29:37Z</time>
      </trkpt>
      <trkpt lat="44.68479" lon="7.06178">
        <ele>2726.6</ele>
        <time>2026-08-31T10:29:42Z</time>
      </trkpt>
      <trkpt lat="44.68479" lon="7.06178">
        <ele>2726.6</ele>
        <time>2026-08-31T10:29:48Z</time>
      </trkpt>
      <trkpt lat="44.68479" lon="7.06178">
        <ele>2726.6</ele>
        <time>2026-08-31T10:29:53Z</time>
      </trkpt>
      <trkpt lat="44.68479" lon="7.06178">
        <ele>2726.6</ele>
        <time>2026-08-31T10:29:58Z</time>
      </trkpt>
      <trkpt lat="44.68479" lon="7.06178">
        <ele>2726.6</ele>
        <time>2026-08-31T10:30:04Z</time>
      </trkpt>
      <trkpt lat="44.68479" lon="7.06178">
        <ele>2726.6</ele>
        <time>2026-08-31T10:30:09Z</time>
      </trkpt>
      <trkpt lat="44.68474" lon="7.06181">
        <ele>2730.8</ele>
        <time>2026-08-31T10:30:14Z</time>
      </trkpt>
      <trkpt lat="44.68471" lon="7.06184">
        <ele>2732.7</ele>
        <time>2026-08-31T10:30:20Z</time>
      </trkpt>
      <trkpt lat="44.68467" lon="7.06185">
        <ele>2736.6</ele>
        <time>2026-08-31T10:30:25Z</time>
      </trkpt>
      <trkpt lat="44.68465" lon="7.06186">
        <ele>2738.3</ele>
        <time>2026-08-31T10:30:30Z</time>
      </trkpt>
      <trkpt lat="44.68463" lon="7.06185">
        <ele>2741</ele>
        <time>2026-08-31T10:30:36Z</time>
      </trkpt>
      <trkpt lat="44.68462" lon="7.06185">
        <ele>2742.1</ele>
        <time>2026-08-31T10:30:41Z</time>
      </trkpt>
      <trkpt lat="44.6846" lon="7.06187">
        <ele>2743.2</ele>
        <time>2026-08-31T10:30:46Z</time>
      </trkpt>
      <trkpt lat="44.68457" lon="7.0619">
        <ele>2744.8</ele>
        <time>2026-08-31T10:30:52Z</time>
      </trkpt>
      <trkpt lat="44.68457" lon="7.0619">
        <ele>2744.8</ele>
        <time>2026-08-31T10:30:57Z</time>
      </trkpt>
      <trkpt lat="44.68457" lon="7.0619">
        <ele>2744.8</ele>
        <time>2026-08-31T10:31:02Z</time>
      </trkpt>
      <trkpt lat="44.68457" lon="7.0619">
        <ele>2744.8</ele>
        <time>2026-08-31T10:31:08Z</time>
      </trkpt>
      <trkpt lat="44.68457" lon="7.0619">
        <ele>2744.8</ele>
        <time>2026-08-31T10:31:13Z</time>
      </trkpt>
      <trkpt lat="44.68457" lon="7.0619">
        <ele>2744.8</ele>
        <time>2026-08-31T10:31:18Z</time>
      </trkpt>
      <trkpt lat="44.68457" lon="7.0619">
        <ele>2744.8</ele>
        <time>2026-08-31T10:31:24Z</time>
      </trkpt>
      <trkpt lat="44.68457" lon="7.0619">
        <ele>2744.8</ele>
        <time>2026-08-31T10:31:29Z</time>
      </trkpt>
      <trkpt lat="44.68457" lon="7.0619">
        <ele>2744.8</ele>
        <time>2026-08-31T10:31:34Z</time>
      </trkpt>
      <trkpt lat="44.68457" lon="7.0619">
        <ele>2744.8</ele>
        <time>2026-08-31T10:31:40Z</time>
      </trkpt>
      <trkpt lat="44.68457" lon="7.0619">
        <ele>2744.8</ele>
        <time>2026-08-31T10:31:45Z</time>
      </trkpt>
      <trkpt lat="44.68457" lon="7.0619">
        <ele>2744.8</ele>
        <time>2026-08-31T10:31:50Z</time>
      </trkpt>
      <trkpt lat="44.68457" lon="7.0619">
        <ele>2744.8</ele>
        <time>2026-08-31T10:31:56Z</time>
      </trkpt>
      <trkpt lat="44.68457" lon="7.0619">
        <ele>2744.8</ele>
        <time>2026-08-31T10:32:01Z</time>
      </trkpt>
      <trkpt lat="44.68457" lon="7.0619">
        <ele>2744.8</ele>
        <time>2026-08-31T10:32:06Z</time>
      </trkpt>
      <trkpt lat="44.68457" lon="7.0619">
        <ele>2744.8</ele>
        <time>2026-08-31T10:32:12Z</time>
      </trkpt>
      <trkpt lat="44.68457" lon="7.0619">
        <ele>2744.8</ele>
        <time>2026-08-31T10:32:17Z</time>
      </trkpt>
      <trkpt lat="44.68457" lon="7.0619">
        <ele>2744.8</ele>
        <time>2026-08-31T10:32:22Z</time>
      </trkpt>
      <trkpt lat="44.68457" lon="7.0619">
        <ele>2744.8</ele>
        <time>2026-08-31T10:32:28Z</time>
      </trkpt>
      <trkpt lat="44.68457" lon="7.0619">
        <ele>2744.8</ele>
        <time>2026-08-31T10:32:33Z</time>
      </trkpt>
      <trkpt lat="44.68457" lon="7.0619">
        <ele>2744.8</ele>
        <time>2026-08-31T10:32:38Z</time>
      </trkpt>
      <trkpt lat="44.68457" lon="7.0619">
        <ele>2744.8</ele>
        <time>2026-08-31T10:32:44Z</time>
      </trkpt>
      <trkpt lat="44.6845" lon="7.06193">
        <ele>2750.6</ele>
        <time>2026-08-31T10:32:49Z</time>
      </trkpt>
      <trkpt lat="44.68449" lon="7.06193">
        <ele>2751.7</ele>
        <time>2026-08-31T10:32:54Z</time>
      </trkpt>
      <trkpt lat="44.68449" lon="7.06193">
        <ele>2751.7</ele>
        <time>2026-08-31T10:33:00Z</time>
      </trkpt>
      <trkpt lat="44.68447" lon="7.06195">
        <ele>2752.6</ele>
        <time>2026-08-31T10:33:05Z</time>
      </trkpt>
      <trkpt lat="44.68446" lon="7.06196">
        <ele>2753.1</ele>
        <time>2026-08-31T10:33:10Z</time>
      </trkpt>
      <trkpt lat="44.68446" lon="7.06203">
        <ele>2748.9</ele>
        <time>2026-08-31T10:33:16Z</time>
      </trkpt>
      <trkpt lat="44.68445" lon="7.06206">
        <ele>2748.2</ele>
        <time>2026-08-31T10:33:21Z</time>
      </trkpt>
      <trkpt lat="44.68443" lon="7.0621">
        <ele>2747.8</ele>
        <time>2026-08-31T10:33:26Z</time>
      </trkpt>
      <trkpt lat="44.68441" lon="7.06213">
        <ele>2747.9</ele>
        <time>2026-08-31T10:33:32Z</time>
      </trkpt>
      <trkpt lat="44.6844" lon="7.06215">
        <ele>2747.6</ele>
        <time>2026-08-31T10:33:37Z</time>
      </trkpt>
      <trkpt lat="44.6844" lon="7.06215">
        <ele>2747.6</ele>
        <time>2026-08-31T10:33:42Z</time>
      </trkpt>
      <trkpt lat="44.6844" lon="7.06215">
        <ele>2747.6</ele>
        <time>2026-08-31T10:33:48Z</time>
      </trkpt>
      <trkpt lat="44.6844" lon="7.06215">
        <ele>2747.6</ele>
        <time>2026-08-31T10:33:53Z</time>
      </trkpt>
      <trkpt lat="44.6844" lon="7.06215">
        <ele>2747.6</ele>
        <time>2026-08-31T10:33:58Z</time>
      </trkpt>
      <trkpt lat="44.6844" lon="7.06215">
        <ele>2747.6</ele>
        <time>2026-08-31T10:34:04Z</time>
      </trkpt>
      <trkpt lat="44.68439" lon="7.06224">
        <ele>2743</ele>
        <time>2026-08-31T10:34:09Z</time>
      </trkpt>
      <trkpt lat="44.68437" lon="7.06224">
        <ele>2744.8</ele>
        <time>2026-08-31T10:34:14Z</time>
      </trkpt>
      <trkpt lat="44.68435" lon="7.06228">
        <ele>2744.1</ele>
        <time>2026-08-31T10:34:20Z</time>
      </trkpt>
      <trkpt lat="44.68434" lon="7.06229">
        <ele>2744.4</ele>
        <time>2026-08-31T10:34:25Z</time>
      </trkpt>
      <trkpt lat="44.68434" lon="7.0623">
        <ele>2743.8</ele>
        <time>2026-08-31T10:34:30Z</time>
      </trkpt>
      <trkpt lat="44.68434" lon="7.0623">
        <ele>2743.8</ele>
        <time>2026-08-31T10:34:36Z</time>
      </trkpt>
      <trkpt lat="44.68434" lon="7.0623">
        <ele>2743.8</ele>
        <time>2026-08-31T10:34:41Z</time>
      </trkpt>
      <trkpt lat="44.68434" lon="7.0623">
        <ele>2743.8</ele>
        <time>2026-08-31T10:34:46Z</time>
      </trkpt>
      <trkpt lat="44.68434" lon="7.0623">
        <ele>2743.8</ele>
        <time>2026-08-31T10:34:52Z</time>
      </trkpt>
      <trkpt lat="44.68434" lon="7.0623">
        <ele>2743.8</ele>
        <time>2026-08-31T10:34:57Z</time>
      </trkpt>
      <trkpt lat="44.68434" lon="7.0623">
        <ele>2743.8</ele>
        <time>2026-08-31T10:35:02Z</time>
      </trkpt>
      <trkpt lat="44.68434" lon="7.0623">
        <ele>2743.8</ele>
        <time>2026-08-31T10:35:08Z</time>
      </trkpt>
      <trkpt lat="44.68434" lon="7.0623">
        <ele>2743.8</ele>
        <time>2026-08-31T10:35:13Z</time>
      </trkpt>
      <trkpt lat="44.68434" lon="7.0623">
        <ele>2743.8</ele>
        <time>2026-08-31T10:35:18Z</time>
      </trkpt>
      <trkpt lat="44.68434" lon="7.0623">
        <ele>2743.8</ele>
        <time>2026-08-31T10:35:24Z</time>
      </trkpt>
      <trkpt lat="44.68434" lon="7.0623">
        <ele>2743.8</ele>
        <time>2026-08-31T10:35:29Z</time>
      </trkpt>
      <trkpt lat="44.68431" lon="7.06234">
        <ele>2743.8</ele>
        <time>2026-08-31T10:35:34Z</time>
      </trkpt>
      <trkpt lat="44.68431" lon="7.06235">
        <ele>2743.2</ele>
        <time>2026-08-31T10:35:40Z</time>
      </trkpt>
      <trkpt lat="44.68431" lon="7.06236">
        <ele>2742.5</ele>
        <time>2026-08-31T10:35:45Z</time>
      </trkpt>
      <trkpt lat="44.68431" lon="7.06236">
        <ele>2742.5</ele>
        <time>2026-08-31T10:35:50Z</time>
      </trkpt>
      <trkpt lat="44.68431" lon="7.06236">
        <ele>2742.5</ele>
        <time>2026-08-31T10:35:56Z</time>
      </trkpt>
      <trkpt lat="44.68431" lon="7.06236">
        <ele>2742.5</ele>
        <time>2026-08-31T10:36:01Z</time>
      </trkpt>
      <trkpt lat="44.68431" lon="7.06236">
        <ele>2742.5</ele>
        <time>2026-08-31T10:36:06Z</time>
      </trkpt>
      <trkpt lat="44.68431" lon="7.06236">
        <ele>2742.5</ele>
        <time>2026-08-31T10:36:12Z</time>
      </trkpt>
      <trkpt lat="44.68431" lon="7.06236">
        <ele>2742.5</ele>
        <time>2026-08-31T10:36:17Z</time>
      </trkpt>
      <trkpt lat="44.68431" lon="7.06236">
        <ele>2742.5</ele>
        <time>2026-08-31T10:36:22Z</time>
      </trkpt>
      <trkpt lat="44.6843" lon="7.0624">
        <ele>2740.7</ele>
        <time>2026-08-31T10:36:28Z</time>
      </trkpt>
      <trkpt lat="44.6843" lon="7.06246">
        <ele>2736.8</ele>
        <time>2026-08-31T10:36:33Z</time>
      </trkpt>
      <trkpt lat="44.68429" lon="7.06252">
        <ele>2734.3</ele>
        <time>2026-08-31T10:36:38Z</time>
      </trkpt>
      <trkpt lat="44.68427" lon="7.06257">
        <ele>2734.3</ele>
        <time>2026-08-31T10:36:44Z</time>
      </trkpt>
      <trkpt lat="44.68426" lon="7.06257">
        <ele>2735.1</ele>
        <time>2026-08-31T10:36:49Z</time>
      </trkpt>
      <trkpt lat="44.68425" lon="7.06258">
        <ele>2735.6</ele>
        <time>2026-08-31T10:36:54Z</time>
      </trkpt>
      <trkpt lat="44.68425" lon="7.06258">
        <ele>2735.6</ele>
        <time>2026-08-31T10:37:00Z</time>
      </trkpt>
      <trkpt lat="44.68425" lon="7.06258">
        <ele>2735.6</ele>
        <time>2026-08-31T10:37:05Z</time>
      </trkpt>
      <trkpt lat="44.68425" lon="7.06258">
        <ele>2735.6</ele>
        <time>2026-08-31T10:37:10Z</time>
      </trkpt>
      <trkpt lat="44.68425" lon="7.06258">
        <ele>2735.6</ele>
        <time>2026-08-31T10:37:16Z</time>
      </trkpt>
      <trkpt lat="44.68425" lon="7.06258">
        <ele>2735.6</ele>
        <time>2026-08-31T10:37:21Z</time>
      </trkpt>
      <trkpt lat="44.68425" lon="7.06258">
        <ele>2735.6</ele>
        <time>2026-08-31T10:37:26Z</time>
      </trkpt>
      <trkpt lat="44.68425" lon="7.06258">
        <ele>2735.6</ele>
        <time>2026-08-31T10:37:32Z</time>
      </trkpt>
      <trkpt lat="44.68425" lon="7.06258">
        <ele>2735.6</ele>
        <time>2026-08-31T10:37:37Z</time>
      </trkpt>
      <trkpt lat="44.68425" lon="7.06258">
        <ele>2735.6</ele>
        <time>2026-08-31T10:37:42Z</time>
      </trkpt>
      <trkpt lat="44.68415" lon="7.06263">
        <ele>2742.7</ele>
        <time>2026-08-31T10:37:48Z</time>
      </trkpt>
      <trkpt lat="44.68415" lon="7.06263">
        <ele>2742.7</ele>
        <time>2026-08-31T10:37:53Z</time>
      </trkpt>
      <trkpt lat="44.68415" lon="7.06263">
        <ele>2742.7</ele>
        <time>2026-08-31T10:37:58Z</time>
      </trkpt>
      <trkpt lat="44.68415" lon="7.06263">
        <ele>2742.7</ele>
        <time>2026-08-31T10:38:04Z</time>
      </trkpt>
      <trkpt lat="44.68415" lon="7.06263">
        <ele>2742.7</ele>
        <time>2026-08-31T10:38:09Z</time>
      </trkpt>
      <trkpt lat="44.68415" lon="7.06263">
        <ele>2742.7</ele>
        <time>2026-08-31T10:38:14Z</time>
      </trkpt>
      <trkpt lat="44.68415" lon="7.06263">
        <ele>2742.7</ele>
        <time>2026-08-31T10:38:20Z</time>
      </trkpt>
      <trkpt lat="44.68415" lon="7.06263">
        <ele>2742.7</ele>
        <time>2026-08-31T10:38:25Z</time>
      </trkpt>
      <trkpt lat="44.68415" lon="7.06263">
        <ele>2742.7</ele>
        <time>2026-08-31T10:38:30Z</time>
      </trkpt>
      <trkpt lat="44.68415" lon="7.06263">
        <ele>2742.7</ele>
        <time>2026-08-31T10:38:36Z</time>
      </trkpt>
      <trkpt lat="44.68415" lon="7.06263">
        <ele>2742.7</ele>
        <time>2026-08-31T10:38:41Z</time>
      </trkpt>
      <trkpt lat="44.68408" lon="7.0627">
        <ele>2748.5</ele>
        <time>2026-08-31T10:38:46Z</time>
      </trkpt>
      <trkpt lat="44.68405" lon="7.0627">
        <ele>2752.1</ele>
        <time>2026-08-31T10:38:52Z</time>
      </trkpt>
      <trkpt lat="44.68403" lon="7.06271">
        <ele>2754</ele>
        <time>2026-08-31T10:38:57Z</time>
      </trkpt>
      <trkpt lat="44.68403" lon="7.06271">
        <ele>2754</ele>
        <time>2026-08-31T10:39:02Z</time>
      </trkpt>
      <trkpt lat="44.68403" lon="7.06271">
        <ele>2754</ele>
        <time>2026-08-31T10:39:08Z</time>
      </trkpt>
      <trkpt lat="44.68403" lon="7.06271">
        <ele>2754</ele>
        <time>2026-08-31T10:39:13Z</time>
      </trkpt>
      <trkpt lat="44.68403" lon="7.06271">
        <ele>2754</ele>
        <time>2026-08-31T10:39:18Z</time>
      </trkpt>
      <trkpt lat="44.68403" lon="7.06271">
        <ele>2754</ele>
        <time>2026-08-31T10:39:24Z</time>
      </trkpt>
      <trkpt lat="44.68403" lon="7.06271">
        <ele>2754</ele>
        <time>2026-08-31T10:39:29Z</time>
      </trkpt>
      <trkpt lat="44.68403" lon="7.06271">
        <ele>2754</ele>
        <time>2026-08-31T10:39:34Z</time>
      </trkpt>
      <trkpt lat="44.68403" lon="7.06271">
        <ele>2754</ele>
        <time>2026-08-31T10:39:40Z</time>
      </trkpt>
      <trkpt lat="44.68403" lon="7.06271">
        <ele>2754</ele>
        <time>2026-08-31T10:39:45Z</time>
      </trkpt>
      <trkpt lat="44.68403" lon="7.06271">
        <ele>2754</ele>
        <time>2026-08-31T10:39:50Z</time>
      </trkpt>
      <trkpt lat="44.68393" lon="7.06274">
        <ele>2764.2</ele>
        <time>2026-08-31T10:39:56Z</time>
      </trkpt>
      <trkpt lat="44.68393" lon="7.06274">
        <ele>2764.2</ele>
        <time>2026-08-31T10:40:01Z</time>
      </trkpt>
      <trkpt lat="44.68393" lon="7.06274">
        <ele>2764.2</ele>
        <time>2026-08-31T10:40:06Z</time>
      </trkpt>
      <trkpt lat="44.68393" lon="7.06274">
        <ele>2764.2</ele>
        <time>2026-08-31T10:40:12Z</time>
      </trkpt>
      <trkpt lat="44.68393" lon="7.06274">
        <ele>2764.2</ele>
        <time>2026-08-31T10:40:17Z</time>
      </trkpt>
      <trkpt lat="44.68393" lon="7.06274">
        <ele>2764.2</ele>
        <time>2026-08-31T10:40:22Z</time>
      </trkpt>
      <trkpt lat="44.68393" lon="7.06274">
        <ele>2764.2</ele>
        <time>2026-08-31T10:40:28Z</time>
      </trkpt>
      <trkpt lat="44.6839" lon="7.06286">
        <ele>2761.2</ele>
        <time>2026-08-31T10:40:33Z</time>
      </trkpt>
      <trkpt lat="44.6839" lon="7.06287">
        <ele>2760.7</ele>
        <time>2026-08-31T10:40:38Z</time>
      </trkpt>
      <trkpt lat="44.6839" lon="7.06287">
        <ele>2760.7</ele>
        <time>2026-08-31T10:40:44Z</time>
      </trkpt>
      <trkpt lat="44.68389" lon="7.06291">
        <ele>2759.6</ele>
        <time>2026-08-31T10:40:49Z</time>
      </trkpt>
      <trkpt lat="44.68389" lon="7.06291">
        <ele>2759.6</ele>
        <time>2026-08-31T10:40:54Z</time>
      </trkpt>
      <trkpt lat="44.68389" lon="7.06291">
        <ele>2759.6</ele>
        <time>2026-08-31T10:41:00Z</time>
      </trkpt>
      <trkpt lat="44.68389" lon="7.06291">
        <ele>2759.6</ele>
        <time>2026-08-31T10:41:05Z</time>
      </trkpt>
      <trkpt lat="44.68389" lon="7.06291">
        <ele>2759.6</ele>
        <time>2026-08-31T10:41:10Z</time>
      </trkpt>
      <trkpt lat="44.68389" lon="7.06291">
        <ele>2759.6</ele>
        <time>2026-08-31T10:41:16Z</time>
      </trkpt>
      <trkpt lat="44.68389" lon="7.06291">
        <ele>2759.6</ele>
        <time>2026-08-31T10:41:21Z</time>
      </trkpt>
      <trkpt lat="44.68389" lon="7.06291">
        <ele>2759.6</ele>
        <time>2026-08-31T10:41:26Z</time>
      </trkpt>
      <trkpt lat="44.68389" lon="7.06291">
        <ele>2759.6</ele>
        <time>2026-08-31T10:41:32Z</time>
      </trkpt>
      <trkpt lat="44.68384" lon="7.06301">
        <ele>2758.9</ele>
        <time>2026-08-31T10:41:37Z</time>
      </trkpt>
      <trkpt lat="44.68384" lon="7.06301">
        <ele>2758.9</ele>
        <time>2026-08-31T10:41:42Z</time>
      </trkpt>
      <trkpt lat="44.68384" lon="7.06301">
        <ele>2758.9</ele>
        <time>2026-08-31T10:41:48Z</time>
      </trkpt>
      <trkpt lat="44.68384" lon="7.06301">
        <ele>2758.9</ele>
        <time>2026-08-31T10:41:53Z</time>
      </trkpt>
      <trkpt lat="44.68384" lon="7.06301">
        <ele>2758.9</ele>
        <time>2026-08-31T10:41:58Z</time>
      </trkpt>
      <trkpt lat="44.68379" lon="7.06308">
        <ele>2759.3</ele>
        <time>2026-08-31T10:42:04Z</time>
      </trkpt>
      <trkpt lat="44.68377" lon="7.06311">
        <ele>2759.2</ele>
        <time>2026-08-31T10:42:09Z</time>
      </trkpt>
      <trkpt lat="44.68376" lon="7.06312">
        <ele>2759.5</ele>
        <time>2026-08-31T10:42:14Z</time>
      </trkpt>
      <trkpt lat="44.68377" lon="7.06313">
        <ele>2758</ele>
        <time>2026-08-31T10:42:20Z</time>
      </trkpt>
      <trkpt lat="44.68374" lon="7.06315">
        <ele>2759.2</ele>
        <time>2026-08-31T10:42:25Z</time>
      </trkpt>
      <trkpt lat="44.68372" lon="7.06319">
        <ele>2758.2</ele>
        <time>2026-08-31T10:42:30Z</time>
      </trkpt>
      <trkpt lat="44.68372" lon="7.06323">
        <ele>2755.6</ele>
        <time>2026-08-31T10:42:36Z</time>
      </trkpt>
      <trkpt lat="44.68372" lon="7.06328">
        <ele>2752.2</ele>
        <time>2026-08-31T10:42:41Z</time>
      </trkpt>
      <trkpt lat="44.6837" lon="7.06333">
        <ele>2750.3</ele>
        <time>2026-08-31T10:42:46Z</time>
      </trkpt>
      <trkpt lat="44.68371" lon="7.0634">
        <ele>2748.2</ele>
        <time>2026-08-31T10:42:52Z</time>
      </trkpt>
      <trkpt lat="44.68372" lon="7.06347">
        <ele>2746.4</ele>
        <time>2026-08-31T10:42:57Z</time>
      </trkpt>
      <trkpt lat="44.68372" lon="7.06351">
        <ele>2745.7</ele>
        <time>2026-08-31T10:43:02Z</time>
      </trkpt>
      <trkpt lat="44.6837" lon="7.06355">
        <ele>2746.4</ele>
        <time>2026-08-31T10:43:08Z</time>
      </trkpt>
      <trkpt lat="44.6837" lon="7.06355">
        <ele>2746.4</ele>
        <time>2026-08-31T10:43:13Z</time>
      </trkpt>
      <trkpt lat="44.6837" lon="7.06355">
        <ele>2746.4</ele>
        <time>2026-08-31T10:43:18Z</time>
      </trkpt>
      <trkpt lat="44.6837" lon="7.06355">
        <ele>2746.4</ele>
        <time>2026-08-31T10:43:24Z</time>
      </trkpt>
      <trkpt lat="44.6837" lon="7.06355">
        <ele>2746.4</ele>
        <time>2026-08-31T10:43:29Z</time>
      </trkpt>
      <trkpt lat="44.6837" lon="7.06355">
        <ele>2746.4</ele>
        <time>2026-08-31T10:43:34Z</time>
      </trkpt>
      <trkpt lat="44.6837" lon="7.06355">
        <ele>2746.4</ele>
        <time>2026-08-31T10:43:40Z</time>
      </trkpt>
      <trkpt lat="44.68368" lon="7.06369">
        <ele>2745.4</ele>
        <time>2026-08-31T10:43:45Z</time>
      </trkpt>
      <trkpt lat="44.68367" lon="7.06369">
        <ele>2746</ele>
        <time>2026-08-31T10:43:50Z</time>
      </trkpt>
      <trkpt lat="44.68367" lon="7.06369">
        <ele>2746</ele>
        <time>2026-08-31T10:43:56Z</time>
      </trkpt>
      <trkpt lat="44.68367" lon="7.06369">
        <ele>2746</ele>
        <time>2026-08-31T10:44:01Z</time>
      </trkpt>
      <trkpt lat="44.68367" lon="7.06369">
        <ele>2746</ele>
        <time>2026-08-31T10:44:06Z</time>
      </trkpt>
      <trkpt lat="44.68367" lon="7.06369">
        <ele>2746</ele>
        <time>2026-08-31T10:44:12Z</time>
      </trkpt>
      <trkpt lat="44.68367" lon="7.06369">
        <ele>2746</ele>
        <time>2026-08-31T10:44:17Z</time>
      </trkpt>
      <trkpt lat="44.68367" lon="7.06369">
        <ele>2746</ele>
        <time>2026-08-31T10:44:22Z</time>
      </trkpt>
      <trkpt lat="44.68367" lon="7.06369">
        <ele>2746</ele>
        <time>2026-08-31T10:44:28Z</time>
      </trkpt>
      <trkpt lat="44.68367" lon="7.06369">
        <ele>2746</ele>
        <time>2026-08-31T10:44:33Z</time>
      </trkpt>
      <trkpt lat="44.68367" lon="7.06369">
        <ele>2746</ele>
        <time>2026-08-31T10:44:38Z</time>
      </trkpt>
      <trkpt lat="44.68367" lon="7.06369">
        <ele>2746</ele>
        <time>2026-08-31T10:44:44Z</time>
      </trkpt>
      <trkpt lat="44.68367" lon="7.06369">
        <ele>2746</ele>
        <time>2026-08-31T10:44:49Z</time>
      </trkpt>
      <trkpt lat="44.68367" lon="7.06369">
        <ele>2746</ele>
        <time>2026-08-31T10:44:54Z</time>
      </trkpt>
      <trkpt lat="44.68364" lon="7.06376">
        <ele>2746.8</ele>
        <time>2026-08-31T10:45:00Z</time>
      </trkpt>
      <trkpt lat="44.68363" lon="7.0638">
        <ele>2746.7</ele>
        <time>2026-08-31T10:45:05Z</time>
      </trkpt>
      <trkpt lat="44.68363" lon="7.06385">
        <ele>2745.8</ele>
        <time>2026-08-31T10:45:10Z</time>
      </trkpt>
      <trkpt lat="44.68363" lon="7.06391">
        <ele>2744.8</ele>
        <time>2026-08-31T10:45:16Z</time>
      </trkpt>
      <trkpt lat="44.68364" lon="7.06394">
        <ele>2743.6</ele>
        <time>2026-08-31T10:45:21Z</time>
      </trkpt>
      <trkpt lat="44.68364" lon="7.06396">
        <ele>2743.2</ele>
        <time>2026-08-31T10:45:26Z</time>
      </trkpt>
      <trkpt lat="44.68362" lon="7.06401">
        <ele>2743.6</ele>
        <time>2026-08-31T10:45:32Z</time>
      </trkpt>
      <trkpt lat="44.68359" lon="7.06405">
        <ele>2744.7</ele>
        <time>2026-08-31T10:45:37Z</time>
      </trkpt>
      <trkpt lat="44.68356" lon="7.06408">
        <ele>2746</ele>
        <time>2026-08-31T10:45:42Z</time>
      </trkpt>
      <trkpt lat="44.68355" lon="7.06411">
        <ele>2746.1</ele>
        <time>2026-08-31T10:45:48Z</time>
      </trkpt>
      <trkpt lat="44.68355" lon="7.06413">
        <ele>2745.7</ele>
        <time>2026-08-31T10:45:53Z</time>
      </trkpt>
      <trkpt lat="44.68354" lon="7.06414">
        <ele>2746.1</ele>
        <time>2026-08-31T10:45:58Z</time>
      </trkpt>
      <trkpt lat="44.68351" lon="7.06415">
        <ele>2747.7</ele>
        <time>2026-08-31T10:46:04Z</time>
      </trkpt>
      <trkpt lat="44.68351" lon="7.06415">
        <ele>2747.7</ele>
        <time>2026-08-31T10:46:09Z</time>
      </trkpt>
      <trkpt lat="44.68351" lon="7.06415">
        <ele>2747.7</ele>
        <time>2026-08-31T10:46:14Z</time>
      </trkpt>
      <trkpt lat="44.68351" lon="7.06415">
        <ele>2747.7</ele>
        <time>2026-08-31T10:46:20Z</time>
      </trkpt>
      <trkpt lat="44.68351" lon="7.06415">
        <ele>2747.7</ele>
        <time>2026-08-31T10:46:25Z</time>
      </trkpt>
      <trkpt lat="44.68351" lon="7.06415">
        <ele>2747.7</ele>
        <time>2026-08-31T10:46:30Z</time>
      </trkpt>
      <trkpt lat="44.68346" lon="7.06425">
        <ele>2749.3</ele>
        <time>2026-08-31T10:46:36Z</time>
      </trkpt>
      <trkpt lat="44.68346" lon="7.06429">
        <ele>2748.8</ele>
        <time>2026-08-31T10:46:41Z</time>
      </trkpt>
      <trkpt lat="44.68346" lon="7.0643">
        <ele>2748.7</ele>
        <time>2026-08-31T10:46:46Z</time>
      </trkpt>
      <trkpt lat="44.68346" lon="7.0643">
        <ele>2748.7</ele>
        <time>2026-08-31T10:46:52Z</time>
      </trkpt>
      <trkpt lat="44.68346" lon="7.0643">
        <ele>2748.7</ele>
        <time>2026-08-31T10:46:57Z</time>
      </trkpt>
      <trkpt lat="44.68346" lon="7.0643">
        <ele>2748.7</ele>
        <time>2026-08-31T10:47:02Z</time>
      </trkpt>
      <trkpt lat="44.68346" lon="7.06436">
        <ele>2747.9</ele>
        <time>2026-08-31T10:47:08Z</time>
      </trkpt>
      <trkpt lat="44.68343" lon="7.06437">
        <ele>2749.6</ele>
        <time>2026-08-31T10:47:13Z</time>
      </trkpt>
      <trkpt lat="44.68341" lon="7.0644">
        <ele>2750.4</ele>
        <time>2026-08-31T10:47:18Z</time>
      </trkpt>
      <trkpt lat="44.68338" lon="7.06443">
        <ele>2751.8</ele>
        <time>2026-08-31T10:47:24Z</time>
      </trkpt>
      <trkpt lat="44.68335" lon="7.06446">
        <ele>2753.1</ele>
        <time>2026-08-31T10:47:29Z</time>
      </trkpt>
      <trkpt lat="44.68333" lon="7.0645">
        <ele>2753.8</ele>
        <time>2026-08-31T10:47:34Z</time>
      </trkpt>
      <trkpt lat="44.68331" lon="7.06453">
        <ele>2754.8</ele>
        <time>2026-08-31T10:47:40Z</time>
      </trkpt>
      <trkpt lat="44.6833" lon="7.06458">
        <ele>2754.8</ele>
        <time>2026-08-31T10:47:45Z</time>
      </trkpt>
      <trkpt lat="44.68328" lon="7.06463">
        <ele>2755.5</ele>
        <time>2026-08-31T10:47:50Z</time>
      </trkpt>
      <trkpt lat="44.68327" lon="7.0647">
        <ele>2755.2</ele>
        <time>2026-08-31T10:47:56Z</time>
      </trkpt>
      <trkpt lat="44.68325" lon="7.06474">
        <ele>2755.9</ele>
        <time>2026-08-31T10:48:01Z</time>
      </trkpt>
      <trkpt lat="44.68324" lon="7.06477">
        <ele>2756.1</ele>
        <time>2026-08-31T10:48:06Z</time>
      </trkpt>
      <trkpt lat="44.68322" lon="7.0648">
        <ele>2756.9</ele>
        <time>2026-08-31T10:48:12Z</time>
      </trkpt>
      <trkpt lat="44.6832" lon="7.06482">
        <ele>2757.9</ele>
        <time>2026-08-31T10:48:17Z</time>
      </trkpt>
      <trkpt lat="44.68317" lon="7.06485">
        <ele>2759.3</ele>
        <time>2026-08-31T10:48:22Z</time>
      </trkpt>
      <trkpt lat="44.68316" lon="7.06491">
        <ele>2758.9</ele>
        <time>2026-08-31T10:48:28Z</time>
      </trkpt>
      <trkpt lat="44.68315" lon="7.06494">
        <ele>2759</ele>
        <time>2026-08-31T10:48:33Z</time>
      </trkpt>
      <trkpt lat="44.68317" lon="7.06495">
        <ele>2757.6</ele>
        <time>2026-08-31T10:48:38Z</time>
      </trkpt>
      <trkpt lat="44.68317" lon="7.06495">
        <ele>2757.6</ele>
        <time>2026-08-31T10:48:44Z</time>
      </trkpt>
      <trkpt lat="44.68318" lon="7.06501">
        <ele>2756.1</ele>
        <time>2026-08-31T10:48:49Z</time>
      </trkpt>
      <trkpt lat="44.68317" lon="7.06506">
        <ele>2756</ele>
        <time>2026-08-31T10:48:54Z</time>
      </trkpt>
      <trkpt lat="44.6832" lon="7.0651">
        <ele>2753.7</ele>
        <time>2026-08-31T10:49:00Z</time>
      </trkpt>
      <trkpt lat="44.6832" lon="7.06513">
        <ele>2753.3</ele>
        <time>2026-08-31T10:49:05Z</time>
      </trkpt>
      <trkpt lat="44.6832" lon="7.06516">
        <ele>2752.9</ele>
        <time>2026-08-31T10:49:10Z</time>
      </trkpt>
      <trkpt lat="44.68326" lon="7.06517">
        <ele>2749.3</ele>
        <time>2026-08-31T10:49:16Z</time>
      </trkpt>
      <trkpt lat="44.68328" lon="7.0652">
        <ele>2747.8</ele>
        <time>2026-08-31T10:49:21Z</time>
      </trkpt>
      <trkpt lat="44.6833" lon="7.06524">
        <ele>2746.3</ele>
        <time>2026-08-31T10:49:26Z</time>
      </trkpt>
      <trkpt lat="44.68331" lon="7.06529">
        <ele>2745.1</ele>
        <time>2026-08-31T10:49:32Z</time>
      </trkpt>
      <trkpt lat="44.68332" lon="7.06532">
        <ele>2744.3</ele>
        <time>2026-08-31T10:49:37Z</time>
      </trkpt>
      <trkpt lat="44.68332" lon="7.06535">
        <ele>2743.9</ele>
        <time>2026-08-31T10:49:42Z</time>
      </trkpt>
      <trkpt lat="44.68331" lon="7.06538">
        <ele>2744.1</ele>
        <time>2026-08-31T10:49:48Z</time>
      </trkpt>
      <trkpt lat="44.68331" lon="7.06543">
        <ele>2743.6</ele>
        <time>2026-08-31T10:49:53Z</time>
      </trkpt>
      <trkpt lat="44.6833" lon="7.06547">
        <ele>2743.6</ele>
        <time>2026-08-31T10:49:58Z</time>
      </trkpt>
      <trkpt lat="44.68327" lon="7.06552">
        <ele>2744.6</ele>
        <time>2026-08-31T10:50:04Z</time>
      </trkpt>
      <trkpt lat="44.68326" lon="7.06555">
        <ele>2744.7</ele>
        <time>2026-08-31T10:50:09Z</time>
      </trkpt>
      <trkpt lat="44.68324" lon="7.06557">
        <ele>2745.4</ele>
        <time>2026-08-31T10:50:14Z</time>
      </trkpt>
      <trkpt lat="44.68325" lon="7.06558">
        <ele>2744.8</ele>
        <time>2026-08-31T10:50:20Z</time>
      </trkpt>
      <trkpt lat="44.68325" lon="7.06558">
        <ele>2744.8</ele>
        <time>2026-08-31T10:50:25Z</time>
      </trkpt>
      <trkpt lat="44.68325" lon="7.06558">
        <ele>2744.8</ele>
        <time>2026-08-31T10:50:30Z</time>
      </trkpt>
      <trkpt lat="44.68325" lon="7.06558">
        <ele>2744.8</ele>
        <time>2026-08-31T10:50:36Z</time>
      </trkpt>
      <trkpt lat="44.68325" lon="7.06558">
        <ele>2744.8</ele>
        <time>2026-08-31T10:50:41Z</time>
      </trkpt>
      <trkpt lat="44.68325" lon="7.06558">
        <ele>2744.8</ele>
        <time>2026-08-31T10:50:46Z</time>
      </trkpt>
      <trkpt lat="44.68325" lon="7.06558">
        <ele>2744.8</ele>
        <time>2026-08-31T10:50:52Z</time>
      </trkpt>
      <trkpt lat="44.68325" lon="7.06558">
        <ele>2744.8</ele>
        <time>2026-08-31T10:50:57Z</time>
      </trkpt>
      <trkpt lat="44.68316" lon="7.06559">
        <ele>2749.1</ele>
        <time>2026-08-31T10:51:02Z</time>
      </trkpt>
      <trkpt lat="44.68316" lon="7.06559">
        <ele>2749.1</ele>
        <time>2026-08-31T10:51:08Z</time>
      </trkpt>
      <trkpt lat="44.68316" lon="7.06559">
        <ele>2749.1</ele>
        <time>2026-08-31T10:51:13Z</time>
      </trkpt>
      <trkpt lat="44.68316" lon="7.06559">
        <ele>2749.1</ele>
        <time>2026-08-31T10:51:18Z</time>
      </trkpt>
      <trkpt lat="44.68316" lon="7.06559">
        <ele>2749.1</ele>
        <time>2026-08-31T10:51:24Z</time>
      </trkpt>
      <trkpt lat="44.68316" lon="7.06559">
        <ele>2749.1</ele>
        <time>2026-08-31T10:51:29Z</time>
      </trkpt>
      <trkpt lat="44.68316" lon="7.06559">
        <ele>2749.1</ele>
        <time>2026-08-31T10:51:34Z</time>
      </trkpt>
      <trkpt lat="44.68316" lon="7.06559">
        <ele>2749.1</ele>
        <time>2026-08-31T10:51:40Z</time>
      </trkpt>
      <trkpt lat="44.68316" lon="7.06559">
        <ele>2749.1</ele>
        <time>2026-08-31T10:51:45Z</time>
      </trkpt>
      <trkpt lat="44.68316" lon="7.06559">
        <ele>2749.1</ele>
        <time>2026-08-31T10:51:50Z</time>
      </trkpt>
      <trkpt lat="44.68312" lon="7.0657">
        <ele>2749.4</ele>
        <time>2026-08-31T10:51:56Z</time>
      </trkpt>
      <trkpt lat="44.68312" lon="7.06573">
        <ele>2749</ele>
        <time>2026-08-31T10:52:01Z</time>
      </trkpt>
      <trkpt lat="44.68312" lon="7.06575">
        <ele>2748.7</ele>
        <time>2026-08-31T10:52:06Z</time>
      </trkpt>
      <trkpt lat="44.68312" lon="7.06576">
        <ele>2748.6</ele>
        <time>2026-08-31T10:52:12Z</time>
      </trkpt>
      <trkpt lat="44.68312" lon="7.06576">
        <ele>2748.6</ele>
        <time>2026-08-31T10:52:17Z</time>
      </trkpt>
      <trkpt lat="44.68312" lon="7.06576">
        <ele>2748.6</ele>
        <time>2026-08-31T10:52:22Z</time>
      </trkpt>
      <trkpt lat="44.6831" lon="7.06574">
        <ele>2749.8</ele>
        <time>2026-08-31T10:52:28Z</time>
      </trkpt>
      <trkpt lat="44.68306" lon="7.06572">
        <ele>2751.9</ele>
        <time>2026-08-31T10:52:33Z</time>
      </trkpt>
      <trkpt lat="44.68302" lon="7.06571">
        <ele>2754</ele>
        <time>2026-08-31T10:52:38Z</time>
      </trkpt>
      <trkpt lat="44.68299" lon="7.06573">
        <ele>2755</ele>
        <time>2026-08-31T10:52:44Z</time>
      </trkpt>
      <trkpt lat="44.68298" lon="7.06574">
        <ele>2755.3</ele>
        <time>2026-08-31T10:52:49Z</time>
      </trkpt>
      <trkpt lat="44.68298" lon="7.06574">
        <ele>2755.3</ele>
        <time>2026-08-31T10:52:54Z</time>
      </trkpt>
      <trkpt lat="44.68298" lon="7.06574">
        <ele>2755.3</ele>
        <time>2026-08-31T10:53:00Z</time>
      </trkpt>
      <trkpt lat="44.68298" lon="7.06574">
        <ele>2755.3</ele>
        <time>2026-08-31T10:53:05Z</time>
      </trkpt>
      <trkpt lat="44.68298" lon="7.06574">
        <ele>2755.3</ele>
        <time>2026-08-31T10:53:10Z</time>
      </trkpt>
      <trkpt lat="44.68298" lon="7.06574">
        <ele>2755.3</ele>
        <time>2026-08-31T10:53:16Z</time>
      </trkpt>
      <trkpt lat="44.68298" lon="7.06574">
        <ele>2755.3</ele>
        <time>2026-08-31T10:53:21Z</time>
      </trkpt>
      <trkpt lat="44.68298" lon="7.06574">
        <ele>2755.3</ele>
        <time>2026-08-31T10:53:26Z</time>
      </trkpt>
      <trkpt lat="44.68298" lon="7.06574">
        <ele>2755.3</ele>
        <time>2026-08-31T10:53:32Z</time>
      </trkpt>
      <trkpt lat="44.68298" lon="7.06574">
        <ele>2755.3</ele>
        <time>2026-08-31T10:53:37Z</time>
      </trkpt>
      <trkpt lat="44.68298" lon="7.06574">
        <ele>2755.3</ele>
        <time>2026-08-31T10:53:42Z</time>
      </trkpt>
      <trkpt lat="44.68298" lon="7.06574">
        <ele>2755.3</ele>
        <time>2026-08-31T10:53:48Z</time>
      </trkpt>
      <trkpt lat="44.68298" lon="7.06574">
        <ele>2755.3</ele>
        <time>2026-08-31T10:53:53Z</time>
      </trkpt>
      <trkpt lat="44.68298" lon="7.06574">
        <ele>2755.3</ele>
        <time>2026-08-31T10:53:58Z</time>
      </trkpt>
      <trkpt lat="44.68298" lon="7.06574">
        <ele>2755.3</ele>
        <time>2026-08-31T10:54:04Z</time>
      </trkpt>
      <trkpt lat="44.68298" lon="7.06574">
        <ele>2755.3</ele>
        <time>2026-08-31T10:54:09Z</time>
      </trkpt>
      <trkpt lat="44.68289" lon="7.06568">
        <ele>2760.6</ele>
        <time>2026-08-31T10:54:14Z</time>
      </trkpt>
      <trkpt lat="44.68289" lon="7.06568">
        <ele>2760.6</ele>
        <time>2026-08-31T10:54:20Z</time>
      </trkpt>
      <trkpt lat="44.68289" lon="7.06568">
        <ele>2760.6</ele>
        <time>2026-08-31T10:54:25Z</time>
      </trkpt>
      <trkpt lat="44.68282" lon="7.06568">
        <ele>2763.9</ele>
        <time>2026-08-31T10:54:30Z</time>
      </trkpt>
      <trkpt lat="44.68278" lon="7.06567">
        <ele>2766</ele>
        <time>2026-08-31T10:54:36Z</time>
      </trkpt>
      <trkpt lat="44.68277" lon="7.06569">
        <ele>2766.1</ele>
        <time>2026-08-31T10:54:41Z</time>
      </trkpt>
      <trkpt lat="44.68277" lon="7.06569">
        <ele>2766.1</ele>
        <time>2026-08-31T10:54:46Z</time>
      </trkpt>
      <trkpt lat="44.68277" lon="7.06569">
        <ele>2766.1</ele>
        <time>2026-08-31T10:54:52Z</time>
      </trkpt>
      <trkpt lat="44.68277" lon="7.06569">
        <ele>2766.1</ele>
        <time>2026-08-31T10:54:57Z</time>
      </trkpt>
      <trkpt lat="44.68277" lon="7.06569">
        <ele>2766.1</ele>
        <time>2026-08-31T10:55:02Z</time>
      </trkpt>
      <trkpt lat="44.68277" lon="7.06569">
        <ele>2766.1</ele>
        <time>2026-08-31T10:55:08Z</time>
      </trkpt>
      <trkpt lat="44.68269" lon="7.06567">
        <ele>2770.3</ele>
        <time>2026-08-31T10:55:13Z</time>
      </trkpt>
      <trkpt lat="44.68268" lon="7.06566">
        <ele>2771</ele>
        <time>2026-08-31T10:55:18Z</time>
      </trkpt>
      <trkpt lat="44.68268" lon="7.06566">
        <ele>2771</ele>
        <time>2026-08-31T10:55:24Z</time>
      </trkpt>
      <trkpt lat="44.68268" lon="7.06566">
        <ele>2771</ele>
        <time>2026-08-31T10:55:29Z</time>
      </trkpt>
      <trkpt lat="44.68268" lon="7.06566">
        <ele>2771</ele>
        <time>2026-08-31T10:55:34Z</time>
      </trkpt>
      <trkpt lat="44.68268" lon="7.06566">
        <ele>2771</ele>
        <time>2026-08-31T10:55:40Z</time>
      </trkpt>
      <trkpt lat="44.68268" lon="7.06566">
        <ele>2771</ele>
        <time>2026-08-31T10:55:45Z</time>
      </trkpt>
      <trkpt lat="44.68268" lon="7.06566">
        <ele>2771</ele>
        <time>2026-08-31T10:55:50Z</time>
      </trkpt>
      <trkpt lat="44.68268" lon="7.06566">
        <ele>2771</ele>
        <time>2026-08-31T10:55:56Z</time>
      </trkpt>
      <trkpt lat="44.68258" lon="7.06565">
        <ele>2776</ele>
        <time>2026-08-31T10:56:01Z</time>
      </trkpt>
      <trkpt lat="44.68256" lon="7.06567">
        <ele>2776.5</ele>
        <time>2026-08-31T10:56:06Z</time>
      </trkpt>
      <trkpt lat="44.68254" lon="7.06568">
        <ele>2777.2</ele>
        <time>2026-08-31T10:56:12Z</time>
      </trkpt>
      <trkpt lat="44.68254" lon="7.06568">
        <ele>2777.2</ele>
        <time>2026-08-31T10:56:17Z</time>
      </trkpt>
      <trkpt lat="44.68254" lon="7.06568">
        <ele>2777.2</ele>
        <time>2026-08-31T10:56:22Z</time>
      </trkpt>
      <trkpt lat="44.68254" lon="7.06568">
        <ele>2777.2</ele>
        <time>2026-08-31T10:56:28Z</time>
      </trkpt>
      <trkpt lat="44.68254" lon="7.06568">
        <ele>2777.2</ele>
        <time>2026-08-31T10:56:33Z</time>
      </trkpt>
      <trkpt lat="44.68254" lon="7.06568">
        <ele>2777.2</ele>
        <time>2026-08-31T10:56:38Z</time>
      </trkpt>
      <trkpt lat="44.68252" lon="7.06575">
        <ele>2776.3</ele>
        <time>2026-08-31T10:56:44Z</time>
      </trkpt>
      <trkpt lat="44.6825" lon="7.06577">
        <ele>2776.7</ele>
        <time>2026-08-31T10:56:49Z</time>
      </trkpt>
      <trkpt lat="44.6825" lon="7.06577">
        <ele>2776.7</ele>
        <time>2026-08-31T10:56:54Z</time>
      </trkpt>
      <trkpt lat="44.6825" lon="7.06577">
        <ele>2776.7</ele>
        <time>2026-08-31T10:57:00Z</time>
      </trkpt>
      <trkpt lat="44.68247" lon="7.06582">
        <ele>2778.2</ele>
        <time>2026-08-31T10:57:05Z</time>
      </trkpt>
      <trkpt lat="44.68246" lon="7.06584">
        <ele>2778.8</ele>
        <time>2026-08-31T10:57:10Z</time>
      </trkpt>
      <trkpt lat="44.68244" lon="7.06587">
        <ele>2780.5</ele>
        <time>2026-08-31T10:57:16Z</time>
      </trkpt>
      <trkpt lat="44.68243" lon="7.06589">
        <ele>2781.3</ele>
        <time>2026-08-31T10:57:21Z</time>
      </trkpt>
      <trkpt lat="44.68243" lon="7.06592">
        <ele>2781.1</ele>
        <time>2026-08-31T10:57:26Z</time>
      </trkpt>
      <trkpt lat="44.68242" lon="7.06593">
        <ele>2782</ele>
        <time>2026-08-31T10:57:32Z</time>
      </trkpt>
      <trkpt lat="44.68242" lon="7.06593">
        <ele>2782</ele>
        <time>2026-08-31T10:57:37Z</time>
      </trkpt>
      <trkpt lat="44.68239" lon="7.06596">
        <ele>2784.6</ele>
        <time>2026-08-31T10:57:42Z</time>
      </trkpt>
      <trkpt lat="44.68239" lon="7.06596">
        <ele>2784.6</ele>
        <time>2026-08-31T10:57:48Z</time>
      </trkpt>
      <trkpt lat="44.68239" lon="7.06596">
        <ele>2784.6</ele>
        <time>2026-08-31T10:57:53Z</time>
      </trkpt>
      <trkpt lat="44.68239" lon="7.06596">
        <ele>2784.6</ele>
        <time>2026-08-31T10:57:58Z</time>
      </trkpt>
      <trkpt lat="44.68239" lon="7.06596">
        <ele>2784.6</ele>
        <time>2026-08-31T10:58:04Z</time>
      </trkpt>
      <trkpt lat="44.68239" lon="7.06596">
        <ele>2784.6</ele>
        <time>2026-08-31T10:58:09Z</time>
      </trkpt>
      <trkpt lat="44.68239" lon="7.06596">
        <ele>2784.6</ele>
        <time>2026-08-31T10:58:14Z</time>
      </trkpt>
      <trkpt lat="44.68239" lon="7.06596">
        <ele>2784.6</ele>
        <time>2026-08-31T10:58:20Z</time>
      </trkpt>
      <trkpt lat="44.68239" lon="7.06596">
        <ele>2784.6</ele>
        <time>2026-08-31T10:58:25Z</time>
      </trkpt>
      <trkpt lat="44.68239" lon="7.06596">
        <ele>2784.6</ele>
        <time>2026-08-31T10:58:30Z</time>
      </trkpt>
      <trkpt lat="44.68239" lon="7.06596">
        <ele>2784.6</ele>
        <time>2026-08-31T10:58:36Z</time>
      </trkpt>
      <trkpt lat="44.68239" lon="7.06596">
        <ele>2784.6</ele>
        <time>2026-08-31T10:58:41Z</time>
      </trkpt>
      <trkpt lat="44.68239" lon="7.06596">
        <ele>2784.6</ele>
        <time>2026-08-31T10:58:46Z</time>
      </trkpt>
      <trkpt lat="44.68239" lon="7.06596">
        <ele>2784.6</ele>
        <time>2026-08-31T10:58:52Z</time>
      </trkpt>
      <trkpt lat="44.68239" lon="7.06596">
        <ele>2784.6</ele>
        <time>2026-08-31T10:58:57Z</time>
      </trkpt>
      <trkpt lat="44.68239" lon="7.06596">
        <ele>2784.6</ele>
        <time>2026-08-31T10:59:02Z</time>
      </trkpt>
      <trkpt lat="44.68233" lon="7.06606">
        <ele>2789.3</ele>
        <time>2026-08-31T10:59:08Z</time>
      </trkpt>
      <trkpt lat="44.68233" lon="7.06606">
        <ele>2789.3</ele>
        <time>2026-08-31T10:59:13Z</time>
      </trkpt>
      <trkpt lat="44.68233" lon="7.06606">
        <ele>2789.3</ele>
        <time>2026-08-31T10:59:18Z</time>
      </trkpt>
      <trkpt lat="44.68233" lon="7.06606">
        <ele>2789.3</ele>
        <time>2026-08-31T10:59:24Z</time>
      </trkpt>
      <trkpt lat="44.68233" lon="7.06606">
        <ele>2789.3</ele>
        <time>2026-08-31T10:59:29Z</time>
      </trkpt>
      <trkpt lat="44.68233" lon="7.06606">
        <ele>2789.3</ele>
        <time>2026-08-31T10:59:34Z</time>
      </trkpt>
      <trkpt lat="44.68233" lon="7.06606">
        <ele>2789.3</ele>
        <time>2026-08-31T10:59:40Z</time>
      </trkpt>
      <trkpt lat="44.68233" lon="7.06606">
        <ele>2789.3</ele>
        <time>2026-08-31T10:59:45Z</time>
      </trkpt>
      <trkpt lat="44.68233" lon="7.06606">
        <ele>2789.3</ele>
        <time>2026-08-31T10:59:50Z</time>
      </trkpt>
      <trkpt lat="44.68233" lon="7.06606">
        <ele>2789.3</ele>
        <time>2026-08-31T10:59:56Z</time>
      </trkpt>
      <trkpt lat="44.68233" lon="7.06606">
        <ele>2789.3</ele>
        <time>2026-08-31T11:00:01Z</time>
      </trkpt>
      <trkpt lat="44.68228" lon="7.06618">
        <ele>2792.7</ele>
        <time>2026-08-31T11:00:06Z</time>
      </trkpt>
      <trkpt lat="44.68228" lon="7.06618">
        <ele>2792.7</ele>
        <time>2026-08-31T11:00:12Z</time>
      </trkpt>
      <trkpt lat="44.68228" lon="7.06618">
        <ele>2792.7</ele>
        <time>2026-08-31T11:00:17Z</time>
      </trkpt>
      <trkpt lat="44.68228" lon="7.06618">
        <ele>2792.7</ele>
        <time>2026-08-31T11:00:22Z</time>
      </trkpt>
      <trkpt lat="44.68228" lon="7.06618">
        <ele>2792.7</ele>
        <time>2026-08-31T11:00:28Z</time>
      </trkpt>
      <trkpt lat="44.68228" lon="7.06618">
        <ele>2792.7</ele>
        <time>2026-08-31T11:00:33Z</time>
      </trkpt>
      <trkpt lat="44.68228" lon="7.06618">
        <ele>2792.7</ele>
        <time>2026-08-31T11:00:38Z</time>
      </trkpt>
      <trkpt lat="44.68228" lon="7.06618">
        <ele>2792.7</ele>
        <time>2026-08-31T11:00:44Z</time>
      </trkpt>
      <trkpt lat="44.68228" lon="7.06618">
        <ele>2792.7</ele>
        <time>2026-08-31T11:00:49Z</time>
      </trkpt>
      <trkpt lat="44.68228" lon="7.06618">
        <ele>2792.7</ele>
        <time>2026-08-31T11:00:54Z</time>
      </trkpt>
      <trkpt lat="44.68228" lon="7.06618">
        <ele>2792.7</ele>
        <time>2026-08-31T11:01:00Z</time>
      </trkpt>
      <trkpt lat="44.68228" lon="7.06618">
        <ele>2792.7</ele>
        <time>2026-08-31T11:01:05Z</time>
      </trkpt>
      <trkpt lat="44.68228" lon="7.06618">
        <ele>2792.7</ele>
        <time>2026-08-31T11:01:10Z</time>
      </trkpt>
      <trkpt lat="44.6822" lon="7.06624">
        <ele>2799.3</ele>
        <time>2026-08-31T11:01:16Z</time>
      </trkpt>
      <trkpt lat="44.6822" lon="7.06625">
        <ele>2799.1</ele>
        <time>2026-08-31T11:01:21Z</time>
      </trkpt>
      <trkpt lat="44.6822" lon="7.06625">
        <ele>2799.1</ele>
        <time>2026-08-31T11:01:26Z</time>
      </trkpt>
      <trkpt lat="44.6822" lon="7.06625">
        <ele>2799.1</ele>
        <time>2026-08-31T11:01:32Z</time>
      </trkpt>
      <trkpt lat="44.6822" lon="7.06631">
        <ele>2798.5</ele>
        <time>2026-08-31T11:01:37Z</time>
      </trkpt>
      <trkpt lat="44.6822" lon="7.06633">
        <ele>2798.2</ele>
        <time>2026-08-31T11:01:42Z</time>
      </trkpt>
      <trkpt lat="44.68221" lon="7.06634">
        <ele>2797.3</ele>
        <time>2026-08-31T11:01:48Z</time>
      </trkpt>
      <trkpt lat="44.68221" lon="7.06634">
        <ele>2797.3</ele>
        <time>2026-08-31T11:01:53Z</time>
      </trkpt>
      <trkpt lat="44.68221" lon="7.06634">
        <ele>2797.3</ele>
        <time>2026-08-31T11:01:58Z</time>
      </trkpt>
      <trkpt lat="44.68221" lon="7.06634">
        <ele>2797.3</ele>
        <time>2026-08-31T11:02:04Z</time>
      </trkpt>
      <trkpt lat="44.68221" lon="7.06634">
        <ele>2797.3</ele>
        <time>2026-08-31T11:02:09Z</time>
      </trkpt>
      <trkpt lat="44.68221" lon="7.06634">
        <ele>2797.3</ele>
        <time>2026-08-31T11:02:14Z</time>
      </trkpt>
      <trkpt lat="44.68221" lon="7.06634">
        <ele>2797.3</ele>
        <time>2026-08-31T11:02:20Z</time>
      </trkpt>
      <trkpt lat="44.68221" lon="7.06634">
        <ele>2797.3</ele>
        <time>2026-08-31T11:02:25Z</time>
      </trkpt>
      <trkpt lat="44.68221" lon="7.06634">
        <ele>2797.3</ele>
        <time>2026-08-31T11:02:30Z</time>
      </trkpt>
      <trkpt lat="44.68221" lon="7.06634">
        <ele>2797.3</ele>
        <time>2026-08-31T11:02:36Z</time>
      </trkpt>
      <trkpt lat="44.68221" lon="7.06634">
        <ele>2797.3</ele>
        <time>2026-08-31T11:02:41Z</time>
      </trkpt>
      <trkpt lat="44.68221" lon="7.06634">
        <ele>2797.3</ele>
        <time>2026-08-31T11:02:46Z</time>
      </trkpt>
      <trkpt lat="44.68221" lon="7.06634">
        <ele>2797.3</ele>
        <time>2026-08-31T11:02:52Z</time>
      </trkpt>
      <trkpt lat="44.68221" lon="7.06634">
        <ele>2797.3</ele>
        <time>2026-08-31T11:02:57Z</time>
      </trkpt>
      <trkpt lat="44.68221" lon="7.06634">
        <ele>2797.3</ele>
        <time>2026-08-31T11:03:02Z</time>
      </trkpt>
      <trkpt lat="44.68221" lon="7.06634">
        <ele>2797.3</ele>
        <time>2026-08-31T11:03:08Z</time>
      </trkpt>
      <trkpt lat="44.68221" lon="7.06634">
        <ele>2797.3</ele>
        <time>2026-08-31T11:03:13Z</time>
      </trkpt>
      <trkpt lat="44.68221" lon="7.06634">
        <ele>2797.3</ele>
        <time>2026-08-31T11:03:18Z</time>
      </trkpt>
      <trkpt lat="44.68221" lon="7.06634">
        <ele>2797.3</ele>
        <time>2026-08-31T11:03:24Z</time>
      </trkpt>
      <trkpt lat="44.68221" lon="7.06634">
        <ele>2797.3</ele>
        <time>2026-08-31T11:03:29Z</time>
      </trkpt>
      <trkpt lat="44.68221" lon="7.06634">
        <ele>2797.3</ele>
        <time>2026-08-31T11:03:34Z</time>
      </trkpt>
      <trkpt lat="44.68221" lon="7.06634">
        <ele>2797.3</ele>
        <time>2026-08-31T11:03:40Z</time>
      </trkpt>
      <trkpt lat="44.68221" lon="7.06634">
        <ele>2797.3</ele>
        <time>2026-08-31T11:03:45Z</time>
      </trkpt>
      <trkpt lat="44.68219" lon="7.06647">
        <ele>2797.5</ele>
        <time>2026-08-31T11:03:50Z</time>
      </trkpt>
      <trkpt lat="44.68219" lon="7.06647">
        <ele>2797.5</ele>
        <time>2026-08-31T11:03:56Z</time>
      </trkpt>
      <trkpt lat="44.68219" lon="7.06647">
        <ele>2797.5</ele>
        <time>2026-08-31T11:04:01Z</time>
      </trkpt>
      <trkpt lat="44.68219" lon="7.06647">
        <ele>2797.5</ele>
        <time>2026-08-31T11:04:06Z</time>
      </trkpt>
      <trkpt lat="44.68219" lon="7.06647">
        <ele>2797.5</ele>
        <time>2026-08-31T11:04:12Z</time>
      </trkpt>
      <trkpt lat="44.68219" lon="7.06647">
        <ele>2797.5</ele>
        <time>2026-08-31T11:04:17Z</time>
      </trkpt>
      <trkpt lat="44.68219" lon="7.06647">
        <ele>2797.5</ele>
        <time>2026-08-31T11:04:22Z</time>
      </trkpt>
      <trkpt lat="44.68219" lon="7.06647">
        <ele>2797.5</ele>
        <time>2026-08-31T11:04:28Z</time>
      </trkpt>
      <trkpt lat="44.68219" lon="7.06647">
        <ele>2797.5</ele>
        <time>2026-08-31T11:04:33Z</time>
      </trkpt>
      <trkpt lat="44.68219" lon="7.06647">
        <ele>2797.5</ele>
        <time>2026-08-31T11:04:38Z</time>
      </trkpt>
      <trkpt lat="44.68219" lon="7.06647">
        <ele>2797.5</ele>
        <time>2026-08-31T11:04:44Z</time>
      </trkpt>
      <trkpt lat="44.68219" lon="7.06647">
        <ele>2797.5</ele>
        <time>2026-08-31T11:04:49Z</time>
      </trkpt>
      <trkpt lat="44.68213" lon="7.06658">
        <ele>2801.3</ele>
        <time>2026-08-31T11:04:54Z</time>
      </trkpt>
      <trkpt lat="44.68213" lon="7.06659">
        <ele>2801.1</ele>
        <time>2026-08-31T11:05:00Z</time>
      </trkpt>
      <trkpt lat="44.68213" lon="7.06659">
        <ele>2801.1</ele>
        <time>2026-08-31T11:05:05Z</time>
      </trkpt>
      <trkpt lat="44.68213" lon="7.06659">
        <ele>2801.1</ele>
        <time>2026-08-31T11:05:10Z</time>
      </trkpt>
      <trkpt lat="44.68213" lon="7.06659">
        <ele>2801.1</ele>
        <time>2026-08-31T11:05:16Z</time>
      </trkpt>
      <trkpt lat="44.68213" lon="7.06659">
        <ele>2801.1</ele>
        <time>2026-08-31T11:05:21Z</time>
      </trkpt>
      <trkpt lat="44.68213" lon="7.06659">
        <ele>2801.1</ele>
        <time>2026-08-31T11:05:26Z</time>
      </trkpt>
      <trkpt lat="44.68213" lon="7.06659">
        <ele>2801.1</ele>
        <time>2026-08-31T11:05:32Z</time>
      </trkpt>
      <trkpt lat="44.68213" lon="7.06659">
        <ele>2801.1</ele>
        <time>2026-08-31T11:05:37Z</time>
      </trkpt>
      <trkpt lat="44.68213" lon="7.06659">
        <ele>2801.1</ele>
        <time>2026-08-31T11:05:42Z</time>
      </trkpt>
      <trkpt lat="44.68213" lon="7.06659">
        <ele>2801.1</ele>
        <time>2026-08-31T11:05:48Z</time>
      </trkpt>
      <trkpt lat="44.68213" lon="7.06659">
        <ele>2801.1</ele>
        <time>2026-08-31T11:05:53Z</time>
      </trkpt>
      <trkpt lat="44.68213" lon="7.06659">
        <ele>2801.1</ele>
        <time>2026-08-31T11:05:58Z</time>
      </trkpt>
      <trkpt lat="44.68213" lon="7.06659">
        <ele>2801.1</ele>
        <time>2026-08-31T11:06:04Z</time>
      </trkpt>
      <trkpt lat="44.68213" lon="7.06659">
        <ele>2801.1</ele>
        <time>2026-08-31T11:06:09Z</time>
      </trkpt>
      <trkpt lat="44.68213" lon="7.06659">
        <ele>2801.1</ele>
        <time>2026-08-31T11:06:14Z</time>
      </trkpt>
      <trkpt lat="44.68213" lon="7.06659">
        <ele>2801.1</ele>
        <time>2026-08-31T11:06:20Z</time>
      </trkpt>
      <trkpt lat="44.68213" lon="7.06659">
        <ele>2801.1</ele>
        <time>2026-08-31T11:06:25Z</time>
      </trkpt>
      <trkpt lat="44.68213" lon="7.06659">
        <ele>2801.1</ele>
        <time>2026-08-31T11:06:30Z</time>
      </trkpt>
      <trkpt lat="44.68206" lon="7.0667">
        <ele>2805.6</ele>
        <time>2026-08-31T11:06:36Z</time>
      </trkpt>
      <trkpt lat="44.68203" lon="7.06671">
        <ele>2807.9</ele>
        <time>2026-08-31T11:06:41Z</time>
      </trkpt>
      <trkpt lat="44.68201" lon="7.06672">
        <ele>2809.4</ele>
        <time>2026-08-31T11:06:46Z</time>
      </trkpt>
      <trkpt lat="44.68202" lon="7.06672">
        <ele>2808.6</ele>
        <time>2026-08-31T11:06:52Z</time>
      </trkpt>
      <trkpt lat="44.68202" lon="7.06672">
        <ele>2808.6</ele>
        <time>2026-08-31T11:06:57Z</time>
      </trkpt>
      <trkpt lat="44.68202" lon="7.06672">
        <ele>2808.6</ele>
        <time>2026-08-31T11:07:02Z</time>
      </trkpt>
      <trkpt lat="44.68202" lon="7.06672">
        <ele>2808.6</ele>
        <time>2026-08-31T11:07:08Z</time>
      </trkpt>
      <trkpt lat="44.68202" lon="7.06672">
        <ele>2808.6</ele>
        <time>2026-08-31T11:07:13Z</time>
      </trkpt>
      <trkpt lat="44.68202" lon="7.06672">
        <ele>2808.6</ele>
        <time>2026-08-31T11:07:18Z</time>
      </trkpt>
      <trkpt lat="44.68202" lon="7.06672">
        <ele>2808.6</ele>
        <time>2026-08-31T11:07:24Z</time>
      </trkpt>
      <trkpt lat="44.68202" lon="7.06672">
        <ele>2808.6</ele>
        <time>2026-08-31T11:07:29Z</time>
      </trkpt>
      <trkpt lat="44.68208" lon="7.0668">
        <ele>2803</ele>
        <time>2026-08-31T11:07:34Z</time>
      </trkpt>
      <trkpt lat="44.68207" lon="7.06683">
        <ele>2803.5</ele>
        <time>2026-08-31T11:07:40Z</time>
      </trkpt>
      <trkpt lat="44.68205" lon="7.06687">
        <ele>2804.7</ele>
        <time>2026-08-31T11:07:45Z</time>
      </trkpt>
      <trkpt lat="44.68205" lon="7.06694">
        <ele>2804</ele>
        <time>2026-08-31T11:07:50Z</time>
      </trkpt>
      <trkpt lat="44.68205" lon="7.067">
        <ele>2803.5</ele>
        <time>2026-08-31T11:07:56Z</time>
      </trkpt>
      <trkpt lat="44.68203" lon="7.06701">
        <ele>2805</ele>
        <time>2026-08-31T11:08:01Z</time>
      </trkpt>
      <trkpt lat="44.68203" lon="7.06701">
        <ele>2805</ele>
        <time>2026-08-31T11:08:06Z</time>
      </trkpt>
      <trkpt lat="44.68203" lon="7.06701">
        <ele>2805</ele>
        <time>2026-08-31T11:08:12Z</time>
      </trkpt>
      <trkpt lat="44.68203" lon="7.06701">
        <ele>2805</ele>
        <time>2026-08-31T11:08:17Z</time>
      </trkpt>
      <trkpt lat="44.68204" lon="7.06705">
        <ele>2803.8</ele>
        <time>2026-08-31T11:08:22Z</time>
      </trkpt>
      <trkpt lat="44.68201" lon="7.06707">
        <ele>2805.9</ele>
        <time>2026-08-31T11:08:28Z</time>
      </trkpt>
      <trkpt lat="44.68198" lon="7.06711">
        <ele>2807.9</ele>
        <time>2026-08-31T11:08:33Z</time>
      </trkpt>
      <trkpt lat="44.68197" lon="7.06714">
        <ele>2808.4</ele>
        <time>2026-08-31T11:08:38Z</time>
      </trkpt>
      <trkpt lat="44.68195" lon="7.06715">
        <ele>2809.9</ele>
        <time>2026-08-31T11:08:44Z</time>
      </trkpt>
      <trkpt lat="44.68192" lon="7.06718">
        <ele>2811.9</ele>
        <time>2026-08-31T11:08:49Z</time>
      </trkpt>
      <trkpt lat="44.68189" lon="7.06721">
        <ele>2814</ele>
        <time>2026-08-31T11:08:54Z</time>
      </trkpt>
      <trkpt lat="44.68185" lon="7.06723">
        <ele>2816.9</ele>
        <time>2026-08-31T11:09:00Z</time>
      </trkpt>
      <trkpt lat="44.68182" lon="7.06722">
        <ele>2819.3</ele>
        <time>2026-08-31T11:09:05Z</time>
      </trkpt>
      <trkpt lat="44.68179" lon="7.06725">
        <ele>2821.4</ele>
        <time>2026-08-31T11:09:10Z</time>
      </trkpt>
      <trkpt lat="44.68178" lon="7.06729">
        <ele>2821.7</ele>
        <time>2026-08-31T11:09:16Z</time>
      </trkpt>
      <trkpt lat="44.68178" lon="7.06733">
        <ele>2821.2</ele>
        <time>2026-08-31T11:09:21Z</time>
      </trkpt>
      <trkpt lat="44.68178" lon="7.06736">
        <ele>2820.9</ele>
        <time>2026-08-31T11:09:26Z</time>
      </trkpt>
      <trkpt lat="44.68178" lon="7.0674">
        <ele>2820.4</ele>
        <time>2026-08-31T11:09:32Z</time>
      </trkpt>
      <trkpt lat="44.68176" lon="7.06741">
        <ele>2821.9</ele>
        <time>2026-08-31T11:09:37Z</time>
      </trkpt>
      <trkpt lat="44.68176" lon="7.06742">
        <ele>2821.7</ele>
        <time>2026-08-31T11:09:42Z</time>
      </trkpt>
      <trkpt lat="44.68173" lon="7.06745">
        <ele>2823.7</ele>
        <time>2026-08-31T11:09:48Z</time>
      </trkpt>
      <trkpt lat="44.68173" lon="7.06745">
        <ele>2823.7</ele>
        <time>2026-08-31T11:09:53Z</time>
      </trkpt>
      <trkpt lat="44.68173" lon="7.06745">
        <ele>2823.7</ele>
        <time>2026-08-31T11:09:58Z</time>
      </trkpt>
      <trkpt lat="44.68173" lon="7.06745">
        <ele>2823.7</ele>
        <time>2026-08-31T11:10:04Z</time>
      </trkpt>
      <trkpt lat="44.68173" lon="7.06745">
        <ele>2823.7</ele>
        <time>2026-08-31T11:10:09Z</time>
      </trkpt>
      <trkpt lat="44.68166" lon="7.06756">
        <ele>2826.6</ele>
        <time>2026-08-31T11:10:14Z</time>
      </trkpt>
      <trkpt lat="44.68165" lon="7.0676">
        <ele>2826</ele>
        <time>2026-08-31T11:10:20Z</time>
      </trkpt>
      <trkpt lat="44.68166" lon="7.06762">
        <ele>2824.7</ele>
        <time>2026-08-31T11:10:25Z</time>
      </trkpt>
      <trkpt lat="44.68166" lon="7.06764">
        <ele>2824.1</ele>
        <time>2026-08-31T11:10:30Z</time>
      </trkpt>
      <trkpt lat="44.68166" lon="7.06764">
        <ele>2824.1</ele>
        <time>2026-08-31T11:10:36Z</time>
      </trkpt>
      <trkpt lat="44.68166" lon="7.06764">
        <ele>2824.1</ele>
        <time>2026-08-31T11:10:41Z</time>
      </trkpt>
      <trkpt lat="44.68166" lon="7.06764">
        <ele>2824.1</ele>
        <time>2026-08-31T11:10:46Z</time>
      </trkpt>
      <trkpt lat="44.68162" lon="7.06774">
        <ele>2823.8</ele>
        <time>2026-08-31T11:10:52Z</time>
      </trkpt>
      <trkpt lat="44.68162" lon="7.06777">
        <ele>2822.9</ele>
        <time>2026-08-31T11:10:57Z</time>
      </trkpt>
      <trkpt lat="44.68162" lon="7.06777">
        <ele>2822.9</ele>
        <time>2026-08-31T11:11:02Z</time>
      </trkpt>
      <trkpt lat="44.68162" lon="7.06777">
        <ele>2822.9</ele>
        <time>2026-08-31T11:11:08Z</time>
      </trkpt>
      <trkpt lat="44.68162" lon="7.06777">
        <ele>2822.9</ele>
        <time>2026-08-31T11:11:13Z</time>
      </trkpt>
      <trkpt lat="44.68162" lon="7.06777">
        <ele>2822.9</ele>
        <time>2026-08-31T11:11:18Z</time>
      </trkpt>
      <trkpt lat="44.68162" lon="7.06777">
        <ele>2822.9</ele>
        <time>2026-08-31T11:11:24Z</time>
      </trkpt>
      <trkpt lat="44.68162" lon="7.06777">
        <ele>2822.9</ele>
        <time>2026-08-31T11:11:29Z</time>
      </trkpt>
      <trkpt lat="44.68162" lon="7.06777">
        <ele>2822.9</ele>
        <time>2026-08-31T11:11:34Z</time>
      </trkpt>
      <trkpt lat="44.68162" lon="7.06777">
        <ele>2822.9</ele>
        <time>2026-08-31T11:11:40Z</time>
      </trkpt>
      <trkpt lat="44.68162" lon="7.06777">
        <ele>2822.9</ele>
        <time>2026-08-31T11:11:45Z</time>
      </trkpt>
      <trkpt lat="44.68162" lon="7.06777">
        <ele>2822.9</ele>
        <time>2026-08-31T11:11:50Z</time>
      </trkpt>
      <trkpt lat="44.68162" lon="7.06777">
        <ele>2822.9</ele>
        <time>2026-08-31T11:11:56Z</time>
      </trkpt>
      <trkpt lat="44.6815" lon="7.0678">
        <ele>2830.7</ele>
        <time>2026-08-31T11:12:01Z</time>
      </trkpt>
      <trkpt lat="44.68148" lon="7.06785">
        <ele>2830.8</ele>
        <time>2026-08-31T11:12:06Z</time>
      </trkpt>
      <trkpt lat="44.68147" lon="7.0679">
        <ele>2830.1</ele>
        <time>2026-08-31T11:12:12Z</time>
      </trkpt>
      <trkpt lat="44.68146" lon="7.06793">
        <ele>2830</ele>
        <time>2026-08-31T11:12:17Z</time>
      </trkpt>
      <trkpt lat="44.68144" lon="7.06796">
        <ele>2830.7</ele>
        <time>2026-08-31T11:12:22Z</time>
      </trkpt>
      <trkpt lat="44.68142" lon="7.068">
        <ele>2831.1</ele>
        <time>2026-08-31T11:12:28Z</time>
      </trkpt>
      <trkpt lat="44.68141" lon="7.06804">
        <ele>2830.8</ele>
        <time>2026-08-31T11:12:33Z</time>
      </trkpt>
      <trkpt lat="44.68141" lon="7.06807">
        <ele>2830</ele>
        <time>2026-08-31T11:12:38Z</time>
      </trkpt>
      <trkpt lat="44.68139" lon="7.0681">
        <ele>2830.7</ele>
        <time>2026-08-31T11:12:44Z</time>
      </trkpt>
      <trkpt lat="44.6814" lon="7.06815">
        <ele>2828.6</ele>
        <time>2026-08-31T11:12:49Z</time>
      </trkpt>
      <trkpt lat="44.68138" lon="7.06818">
        <ele>2829.4</ele>
        <time>2026-08-31T11:12:54Z</time>
      </trkpt>
      <trkpt lat="44.68134" lon="7.06822">
        <ele>2831.6</ele>
        <time>2026-08-31T11:13:00Z</time>
      </trkpt>
      <trkpt lat="44.68133" lon="7.06825">
        <ele>2831.6</ele>
        <time>2026-08-31T11:13:05Z</time>
      </trkpt>
      <trkpt lat="44.68131" lon="7.06826">
        <ele>2832.9</ele>
        <time>2026-08-31T11:13:10Z</time>
      </trkpt>
      <trkpt lat="44.6813" lon="7.06829">
        <ele>2833</ele>
        <time>2026-08-31T11:13:16Z</time>
      </trkpt>
      <trkpt lat="44.68129" lon="7.0683">
        <ele>2833.6</ele>
        <time>2026-08-31T11:13:21Z</time>
      </trkpt>
      <trkpt lat="44.68129" lon="7.0683">
        <ele>2833.6</ele>
        <time>2026-08-31T11:13:26Z</time>
      </trkpt>
      <trkpt lat="44.68129" lon="7.0683">
        <ele>2833.6</ele>
        <time>2026-08-31T11:13:32Z</time>
      </trkpt>
      <trkpt lat="44.68129" lon="7.0683">
        <ele>2833.6</ele>
        <time>2026-08-31T11:13:37Z</time>
      </trkpt>
      <trkpt lat="44.68129" lon="7.0683">
        <ele>2833.6</ele>
        <time>2026-08-31T11:13:42Z</time>
      </trkpt>
      <trkpt lat="44.68129" lon="7.0683">
        <ele>2833.6</ele>
        <time>2026-08-31T11:13:48Z</time>
      </trkpt>
      <trkpt lat="44.68128" lon="7.06835">
        <ele>2833.3</ele>
        <time>2026-08-31T11:13:53Z</time>
      </trkpt>
      <trkpt lat="44.68129" lon="7.06836">
        <ele>2832.4</ele>
        <time>2026-08-31T11:13:58Z</time>
      </trkpt>
      <trkpt lat="44.68129" lon="7.06836">
        <ele>2832.4</ele>
        <time>2026-08-31T11:14:04Z</time>
      </trkpt>
      <trkpt lat="44.68129" lon="7.06836">
        <ele>2832.4</ele>
        <time>2026-08-31T11:14:09Z</time>
      </trkpt>
      <trkpt lat="44.68129" lon="7.06836">
        <ele>2832.4</ele>
        <time>2026-08-31T11:14:14Z</time>
      </trkpt>
      <trkpt lat="44.68124" lon="7.06844">
        <ele>2835.3</ele>
        <time>2026-08-31T11:14:20Z</time>
      </trkpt>
      <trkpt lat="44.68124" lon="7.06844">
        <ele>2835.3</ele>
        <time>2026-08-31T11:14:25Z</time>
      </trkpt>
      <trkpt lat="44.68124" lon="7.06844">
        <ele>2835.3</ele>
        <time>2026-08-31T11:14:30Z</time>
      </trkpt>
      <trkpt lat="44.68124" lon="7.06844">
        <ele>2835.3</ele>
        <time>2026-08-31T11:14:36Z</time>
      </trkpt>
      <trkpt lat="44.68124" lon="7.06844">
        <ele>2835.3</ele>
        <time>2026-08-31T11:14:41Z</time>
      </trkpt>
      <trkpt lat="44.68124" lon="7.06844">
        <ele>2835.3</ele>
        <time>2026-08-31T11:14:46Z</time>
      </trkpt>
      <trkpt lat="44.68124" lon="7.06844">
        <ele>2835.3</ele>
        <time>2026-08-31T11:14:52Z</time>
      </trkpt>
      <trkpt lat="44.68124" lon="7.06844">
        <ele>2835.3</ele>
        <time>2026-08-31T11:14:57Z</time>
      </trkpt>
      <trkpt lat="44.68124" lon="7.06844">
        <ele>2835.3</ele>
        <time>2026-08-31T11:15:02Z</time>
      </trkpt>
      <trkpt lat="44.68124" lon="7.06844">
        <ele>2835.3</ele>
        <time>2026-08-31T11:15:08Z</time>
      </trkpt>
      <trkpt lat="44.68124" lon="7.06844">
        <ele>2835.3</ele>
        <time>2026-08-31T11:15:13Z</time>
      </trkpt>
      <trkpt lat="44.68124" lon="7.06844">
        <ele>2835.3</ele>
        <time>2026-08-31T11:15:18Z</time>
      </trkpt>
      <trkpt lat="44.68124" lon="7.06844">
        <ele>2835.3</ele>
        <time>2026-08-31T11:15:24Z</time>
      </trkpt>
      <trkpt lat="44.68124" lon="7.06844">
        <ele>2835.3</ele>
        <time>2026-08-31T11:15:29Z</time>
      </trkpt>
      <trkpt lat="44.68124" lon="7.06844">
        <ele>2835.3</ele>
        <time>2026-08-31T11:15:34Z</time>
      </trkpt>
      <trkpt lat="44.68118" lon="7.06854">
        <ele>2838.3</ele>
        <time>2026-08-31T11:15:40Z</time>
      </trkpt>
      <trkpt lat="44.68118" lon="7.06858">
        <ele>2837.6</ele>
        <time>2026-08-31T11:15:45Z</time>
      </trkpt>
      <trkpt lat="44.68118" lon="7.06859">
        <ele>2837.4</ele>
        <time>2026-08-31T11:15:50Z</time>
      </trkpt>
      <trkpt lat="44.68118" lon="7.06859">
        <ele>2837.4</ele>
        <time>2026-08-31T11:15:56Z</time>
      </trkpt>
      <trkpt lat="44.68118" lon="7.06859">
        <ele>2837.4</ele>
        <time>2026-08-31T11:16:01Z</time>
      </trkpt>
      <trkpt lat="44.68118" lon="7.06859">
        <ele>2837.4</ele>
        <time>2026-08-31T11:16:06Z</time>
      </trkpt>
      <trkpt lat="44.68112" lon="7.06871">
        <ele>2839.4</ele>
        <time>2026-08-31T11:16:12Z</time>
      </trkpt>
      <trkpt lat="44.6811" lon="7.06873">
        <ele>2840.3</ele>
        <time>2026-08-31T11:16:17Z</time>
      </trkpt>
      <trkpt lat="44.68108" lon="7.06875">
        <ele>2841.2</ele>
        <time>2026-08-31T11:16:22Z</time>
      </trkpt>
      <trkpt lat="44.68107" lon="7.06877">
        <ele>2841.4</ele>
        <time>2026-08-31T11:16:28Z</time>
      </trkpt>
      <trkpt lat="44.68107" lon="7.06877">
        <ele>2841.4</ele>
        <time>2026-08-31T11:16:33Z</time>
      </trkpt>
      <trkpt lat="44.68107" lon="7.06877">
        <ele>2841.4</ele>
        <time>2026-08-31T11:16:38Z</time>
      </trkpt>
      <trkpt lat="44.68107" lon="7.06877">
        <ele>2841.4</ele>
        <time>2026-08-31T11:16:44Z</time>
      </trkpt>
      <trkpt lat="44.68105" lon="7.0688">
        <ele>2842</ele>
        <time>2026-08-31T11:16:49Z</time>
      </trkpt>
      <trkpt lat="44.68103" lon="7.06885">
        <ele>2842.1</ele>
        <time>2026-08-31T11:16:54Z</time>
      </trkpt>
      <trkpt lat="44.68102" lon="7.06891">
        <ele>2841.3</ele>
        <time>2026-08-31T11:17:00Z</time>
      </trkpt>
      <trkpt lat="44.68102" lon="7.06893">
        <ele>2840.8</ele>
        <time>2026-08-31T11:17:05Z</time>
      </trkpt>
      <trkpt lat="44.68102" lon="7.06893">
        <ele>2840.8</ele>
        <time>2026-08-31T11:17:10Z</time>
      </trkpt>
      <trkpt lat="44.68102" lon="7.06893">
        <ele>2840.8</ele>
        <time>2026-08-31T11:17:16Z</time>
      </trkpt>
      <trkpt lat="44.68102" lon="7.06893">
        <ele>2840.8</ele>
        <time>2026-08-31T11:17:21Z</time>
      </trkpt>
      <trkpt lat="44.68102" lon="7.06893">
        <ele>2840.8</ele>
        <time>2026-08-31T11:17:26Z</time>
      </trkpt>
      <trkpt lat="44.68102" lon="7.06893">
        <ele>2840.8</ele>
        <time>2026-08-31T11:17:32Z</time>
      </trkpt>
      <trkpt lat="44.68102" lon="7.06893">
        <ele>2840.8</ele>
        <time>2026-08-31T11:17:37Z</time>
      </trkpt>
      <trkpt lat="44.68102" lon="7.06893">
        <ele>2840.8</ele>
        <time>2026-08-31T11:17:42Z</time>
      </trkpt>
      <trkpt lat="44.68102" lon="7.06893">
        <ele>2840.8</ele>
        <time>2026-08-31T11:17:48Z</time>
      </trkpt>
      <trkpt lat="44.68102" lon="7.06893">
        <ele>2840.8</ele>
        <time>2026-08-31T11:17:53Z</time>
      </trkpt>
      <trkpt lat="44.68102" lon="7.06893">
        <ele>2840.8</ele>
        <time>2026-08-31T11:17:58Z</time>
      </trkpt>
      <trkpt lat="44.68102" lon="7.06893">
        <ele>2840.8</ele>
        <time>2026-08-31T11:18:04Z</time>
      </trkpt>
      <trkpt lat="44.68102" lon="7.06893">
        <ele>2840.8</ele>
        <time>2026-08-31T11:18:09Z</time>
      </trkpt>
      <trkpt lat="44.68102" lon="7.06893">
        <ele>2840.8</ele>
        <time>2026-08-31T11:18:14Z</time>
      </trkpt>
      <trkpt lat="44.68097" lon="7.06904">
        <ele>2840.8</ele>
        <time>2026-08-31T11:18:20Z</time>
      </trkpt>
      <trkpt lat="44.68097" lon="7.06904">
        <ele>2840.8</ele>
        <time>2026-08-31T11:18:25Z</time>
      </trkpt>
      <trkpt lat="44.68097" lon="7.06904">
        <ele>2840.8</ele>
        <time>2026-08-31T11:18:30Z</time>
      </trkpt>
      <trkpt lat="44.68097" lon="7.06904">
        <ele>2840.8</ele>
        <time>2026-08-31T11:18:36Z</time>
      </trkpt>
      <trkpt lat="44.68097" lon="7.06904">
        <ele>2840.8</ele>
        <time>2026-08-31T11:18:41Z</time>
      </trkpt>
      <trkpt lat="44.68097" lon="7.06904">
        <ele>2840.8</ele>
        <time>2026-08-31T11:18:46Z</time>
      </trkpt>
      <trkpt lat="44.68097" lon="7.06904">
        <ele>2840.8</ele>
        <time>2026-08-31T11:18:52Z</time>
      </trkpt>
      <trkpt lat="44.68097" lon="7.06904">
        <ele>2840.8</ele>
        <time>2026-08-31T11:18:57Z</time>
      </trkpt>
      <trkpt lat="44.68095" lon="7.06907">
        <ele>2841.1</ele>
        <time>2026-08-31T11:19:02Z</time>
      </trkpt>
      <trkpt lat="44.68094" lon="7.06911">
        <ele>2840.5</ele>
        <time>2026-08-31T11:19:08Z</time>
      </trkpt>
      <trkpt lat="44.68093" lon="7.06913">
        <ele>2840.5</ele>
        <time>2026-08-31T11:19:13Z</time>
      </trkpt>
      <trkpt lat="44.68091" lon="7.06915">
        <ele>2840.9</ele>
        <time>2026-08-31T11:19:18Z</time>
      </trkpt>
      <trkpt lat="44.6809" lon="7.06918">
        <ele>2840.7</ele>
        <time>2026-08-31T11:19:24Z</time>
      </trkpt>
      <trkpt lat="44.68089" lon="7.06921">
        <ele>2840.9</ele>
        <time>2026-08-31T11:19:29Z</time>
      </trkpt>
      <trkpt lat="44.68089" lon="7.06921">
        <ele>2840.9</ele>
        <time>2026-08-31T11:19:34Z</time>
      </trkpt>
      <trkpt lat="44.68089" lon="7.06921">
        <ele>2840.9</ele>
        <time>2026-08-31T11:19:40Z</time>
      </trkpt>
      <trkpt lat="44.68089" lon="7.06921">
        <ele>2840.9</ele>
        <time>2026-08-31T11:19:45Z</time>
      </trkpt>
      <trkpt lat="44.68089" lon="7.06921">
        <ele>2840.9</ele>
        <time>2026-08-31T11:19:50Z</time>
      </trkpt>
      <trkpt lat="44.68089" lon="7.06921">
        <ele>2840.9</ele>
        <time>2026-08-31T11:19:56Z</time>
      </trkpt>
      <trkpt lat="44.68089" lon="7.06921">
        <ele>2840.9</ele>
        <time>2026-08-31T11:20:01Z</time>
      </trkpt>
      <trkpt lat="44.68089" lon="7.06921">
        <ele>2840.9</ele>
        <time>2026-08-31T11:20:06Z</time>
      </trkpt>
      <trkpt lat="44.68089" lon="7.06921">
        <ele>2840.9</ele>
        <time>2026-08-31T11:20:12Z</time>
      </trkpt>
      <trkpt lat="44.68089" lon="7.06921">
        <ele>2840.9</ele>
        <time>2026-08-31T11:20:17Z</time>
      </trkpt>
      <trkpt lat="44.68089" lon="7.06921">
        <ele>2840.9</ele>
        <time>2026-08-31T11:20:22Z</time>
      </trkpt>
      <trkpt lat="44.68089" lon="7.06921">
        <ele>2840.9</ele>
        <time>2026-08-31T11:20:28Z</time>
      </trkpt>
      <trkpt lat="44.68089" lon="7.06921">
        <ele>2840.9</ele>
        <time>2026-08-31T11:20:33Z</time>
      </trkpt>
      <trkpt lat="44.68089" lon="7.06921">
        <ele>2840.9</ele>
        <time>2026-08-31T11:20:38Z</time>
      </trkpt>
      <trkpt lat="44.68089" lon="7.06921">
        <ele>2840.9</ele>
        <time>2026-08-31T11:20:44Z</time>
      </trkpt>
      <trkpt lat="44.68089" lon="7.06921">
        <ele>2840.9</ele>
        <time>2026-08-31T11:20:49Z</time>
      </trkpt>
      <trkpt lat="44.6808" lon="7.06926">
        <ele>2842.3</ele>
        <time>2026-08-31T11:20:54Z</time>
      </trkpt>
      <trkpt lat="44.6808" lon="7.06926">
        <ele>2842.3</ele>
        <time>2026-08-31T11:21:00Z</time>
      </trkpt>
      <trkpt lat="44.6808" lon="7.06926">
        <ele>2842.3</ele>
        <time>2026-08-31T11:21:05Z</time>
      </trkpt>
      <trkpt lat="44.6808" lon="7.06926">
        <ele>2842.3</ele>
        <time>2026-08-31T11:21:10Z</time>
      </trkpt>
      <trkpt lat="44.6808" lon="7.06926">
        <ele>2842.3</ele>
        <time>2026-08-31T11:21:16Z</time>
      </trkpt>
      <trkpt lat="44.6808" lon="7.06926">
        <ele>2842.3</ele>
        <time>2026-08-31T11:21:21Z</time>
      </trkpt>
      <trkpt lat="44.6808" lon="7.06926">
        <ele>2842.3</ele>
        <time>2026-08-31T11:21:26Z</time>
      </trkpt>
      <trkpt lat="44.68074" lon="7.06935">
        <ele>2840.3</ele>
        <time>2026-08-31T11:21:32Z</time>
      </trkpt>
      <trkpt lat="44.68074" lon="7.06935">
        <ele>2840.3</ele>
        <time>2026-08-31T11:21:37Z</time>
      </trkpt>
      <trkpt lat="44.68074" lon="7.06935">
        <ele>2840.3</ele>
        <time>2026-08-31T11:21:42Z</time>
      </trkpt>
      <trkpt lat="44.68073" lon="7.06939">
        <ele>2839.7</ele>
        <time>2026-08-31T11:21:48Z</time>
      </trkpt>
      <trkpt lat="44.68073" lon="7.06939">
        <ele>2839.7</ele>
        <time>2026-08-31T11:21:53Z</time>
      </trkpt>
      <trkpt lat="44.68073" lon="7.06939">
        <ele>2839.7</ele>
        <time>2026-08-31T11:21:58Z</time>
      </trkpt>
      <trkpt lat="44.68073" lon="7.06939">
        <ele>2839.7</ele>
        <time>2026-08-31T11:22:04Z</time>
      </trkpt>
      <trkpt lat="44.6807" lon="7.06944">
        <ele>2838.8</ele>
        <time>2026-08-31T11:22:09Z</time>
      </trkpt>
      <trkpt lat="44.68069" lon="7.06944">
        <ele>2838.7</ele>
        <time>2026-08-31T11:22:14Z</time>
      </trkpt>
      <trkpt lat="44.68069" lon="7.06944">
        <ele>2838.7</ele>
        <time>2026-08-31T11:22:20Z</time>
      </trkpt>
      <trkpt lat="44.68069" lon="7.06944">
        <ele>2838.7</ele>
        <time>2026-08-31T11:22:25Z</time>
      </trkpt>
      <trkpt lat="44.68069" lon="7.06944">
        <ele>2838.7</ele>
        <time>2026-08-31T11:22:30Z</time>
      </trkpt>
      <trkpt lat="44.68069" lon="7.06944">
        <ele>2838.7</ele>
        <time>2026-08-31T11:22:36Z</time>
      </trkpt>
      <trkpt lat="44.68064" lon="7.06949">
        <ele>2837.6</ele>
        <time>2026-08-31T11:22:41Z</time>
      </trkpt>
      <trkpt lat="44.68064" lon="7.06949">
        <ele>2837.6</ele>
        <time>2026-08-31T11:22:46Z</time>
      </trkpt>
      <trkpt lat="44.68064" lon="7.06949">
        <ele>2837.6</ele>
        <time>2026-08-31T11:22:52Z</time>
      </trkpt>
      <trkpt lat="44.6806" lon="7.06953">
        <ele>2836.7</ele>
        <time>2026-08-31T11:22:57Z</time>
      </trkpt>
      <trkpt lat="44.68059" lon="7.06954">
        <ele>2836.6</ele>
        <time>2026-08-31T11:23:02Z</time>
      </trkpt>
      <trkpt lat="44.68056" lon="7.06956">
        <ele>2836.1</ele>
        <time>2026-08-31T11:23:08Z</time>
      </trkpt>
      <trkpt lat="44.68054" lon="7.06956">
        <ele>2835.9</ele>
        <time>2026-08-31T11:23:13Z</time>
      </trkpt>
      <trkpt lat="44.68054" lon="7.06955">
        <ele>2836</ele>
        <time>2026-08-31T11:23:18Z</time>
      </trkpt>
      <trkpt lat="44.68051" lon="7.06957">
        <ele>2835.5</ele>
        <time>2026-08-31T11:23:24Z</time>
      </trkpt>
      <trkpt lat="44.68049" lon="7.0696">
        <ele>2835.1</ele>
        <time>2026-08-31T11:23:29Z</time>
      </trkpt>
      <trkpt lat="44.68047" lon="7.06962">
        <ele>2834.8</ele>
        <time>2026-08-31T11:23:34Z</time>
      </trkpt>
      <trkpt lat="44.68045" lon="7.06966">
        <ele>2834.3</ele>
        <time>2026-08-31T11:23:40Z</time>
      </trkpt>
      <trkpt lat="44.68043" lon="7.0697">
        <ele>2833.9</ele>
        <time>2026-08-31T11:23:45Z</time>
      </trkpt>
      <trkpt lat="44.6804" lon="7.06973">
        <ele>2833.5</ele>
        <time>2026-08-31T11:23:50Z</time>
      </trkpt>
      <trkpt lat="44.68036" lon="7.06974">
        <ele>2833.2</ele>
        <time>2026-08-31T11:23:56Z</time>
      </trkpt>
      <trkpt lat="44.68034" lon="7.06974">
        <ele>2833</ele>
        <time>2026-08-31T11:24:01Z</time>
      </trkpt>
      <trkpt lat="44.68034" lon="7.06973">
        <ele>2833.1</ele>
        <time>2026-08-31T11:24:06Z</time>
      </trkpt>
      <trkpt lat="44.68034" lon="7.06973">
        <ele>2833.1</ele>
        <time>2026-08-31T11:24:12Z</time>
      </trkpt>
      <trkpt lat="44.68034" lon="7.06973">
        <ele>2833.1</ele>
        <time>2026-08-31T11:24:17Z</time>
      </trkpt>
      <trkpt lat="44.68034" lon="7.06973">
        <ele>2833.1</ele>
        <time>2026-08-31T11:24:22Z</time>
      </trkpt>
      <trkpt lat="44.68034" lon="7.06973">
        <ele>2833.1</ele>
        <time>2026-08-31T11:24:28Z</time>
      </trkpt>
      <trkpt lat="44.68028" lon="7.06976">
        <ele>2832.5</ele>
        <time>2026-08-31T11:24:33Z</time>
      </trkpt>
      <trkpt lat="44.68025" lon="7.06977">
        <ele>2832.3</ele>
        <time>2026-08-31T11:24:38Z</time>
      </trkpt>
      <trkpt lat="44.68023" lon="7.06981">
        <ele>2832.1</ele>
        <time>2026-08-31T11:24:44Z</time>
      </trkpt>
      <trkpt lat="44.68022" lon="7.06985">
        <ele>2831.9</ele>
        <time>2026-08-31T11:24:49Z</time>
      </trkpt>
      <trkpt lat="44.68022" lon="7.06991">
        <ele>2831.8</ele>
        <time>2026-08-31T11:24:54Z</time>
      </trkpt>
      <trkpt lat="44.68021" lon="7.06996">
        <ele>2831.6</ele>
        <time>2026-08-31T11:25:00Z</time>
      </trkpt>
      <trkpt lat="44.68018" lon="7.06995">
        <ele>2831.5</ele>
        <time>2026-08-31T11:25:05Z</time>
      </trkpt>
      <trkpt lat="44.68016" lon="7.06996">
        <ele>2831.4</ele>
        <time>2026-08-31T11:25:10Z</time>
      </trkpt>
      <trkpt lat="44.68013" lon="7.06998">
        <ele>2831.3</ele>
        <time>2026-08-31T11:25:16Z</time>
      </trkpt>
      <trkpt lat="44.68013" lon="7.06998">
        <ele>2831.3</ele>
        <time>2026-08-31T11:25:21Z</time>
      </trkpt>
      <trkpt lat="44.68013" lon="7.06998">
        <ele>2831.3</ele>
        <time>2026-08-31T11:25:26Z</time>
      </trkpt>
      <trkpt lat="44.68013" lon="7.06998">
        <ele>2831.3</ele>
        <time>2026-08-31T11:25:32Z</time>
      </trkpt>
      <trkpt lat="44.6801" lon="7.07003">
        <ele>2831.5</ele>
        <time>2026-08-31T11:25:37Z</time>
      </trkpt>
      <trkpt lat="44.68008" lon="7.07003">
        <ele>2831.5</ele>
        <time>2026-08-31T11:25:42Z</time>
      </trkpt>
      <trkpt lat="44.68004" lon="7.07004">
        <ele>2831.5</ele>
        <time>2026-08-31T11:25:48Z</time>
      </trkpt>
      <trkpt lat="44.68001" lon="7.07008">
        <ele>2831.9</ele>
        <time>2026-08-31T11:25:53Z</time>
      </trkpt>
      <trkpt lat="44.67996" lon="7.0701">
        <ele>2830.9</ele>
        <time>2026-08-31T11:25:58Z</time>
      </trkpt>
      <trkpt lat="44.67991" lon="7.0701">
        <ele>2829.5</ele>
        <time>2026-08-31T11:26:04Z</time>
      </trkpt>
      <trkpt lat="44.67988" lon="7.07013">
        <ele>2829.1</ele>
        <time>2026-08-31T11:26:09Z</time>
      </trkpt>
      <trkpt lat="44.67985" lon="7.07016">
        <ele>2828.6</ele>
        <time>2026-08-31T11:26:14Z</time>
      </trkpt>
      <trkpt lat="44.67983" lon="7.0702">
        <ele>2828.6</ele>
        <time>2026-08-31T11:26:20Z</time>
      </trkpt>
      <trkpt lat="44.6798" lon="7.0702">
        <ele>2827.8</ele>
        <time>2026-08-31T11:26:25Z</time>
      </trkpt>
      <trkpt lat="44.67977" lon="7.07021">
        <ele>2827.1</ele>
        <time>2026-08-31T11:26:30Z</time>
      </trkpt>
      <trkpt lat="44.67977" lon="7.07022">
        <ele>2827.3</ele>
        <time>2026-08-31T11:26:36Z</time>
      </trkpt>
      <trkpt lat="44.67977" lon="7.07022">
        <ele>2827.3</ele>
        <time>2026-08-31T11:26:41Z</time>
      </trkpt>
      <trkpt lat="44.67977" lon="7.07022">
        <ele>2827.3</ele>
        <time>2026-08-31T11:26:46Z</time>
      </trkpt>
      <trkpt lat="44.67977" lon="7.07022">
        <ele>2827.3</ele>
        <time>2026-08-31T11:26:52Z</time>
      </trkpt>
      <trkpt lat="44.67977" lon="7.07022">
        <ele>2827.3</ele>
        <time>2026-08-31T11:26:57Z</time>
      </trkpt>
      <trkpt lat="44.67977" lon="7.07022">
        <ele>2827.3</ele>
        <time>2026-08-31T11:27:02Z</time>
      </trkpt>
      <trkpt lat="44.67977" lon="7.07022">
        <ele>2827.3</ele>
        <time>2026-08-31T11:27:08Z</time>
      </trkpt>
      <trkpt lat="44.67977" lon="7.07022">
        <ele>2827.3</ele>
        <time>2026-08-31T11:27:13Z</time>
      </trkpt>
      <trkpt lat="44.67977" lon="7.07022">
        <ele>2827.3</ele>
        <time>2026-08-31T11:27:18Z</time>
      </trkpt>
      <trkpt lat="44.67977" lon="7.07022">
        <ele>2827.3</ele>
        <time>2026-08-31T11:27:24Z</time>
      </trkpt>
      <trkpt lat="44.67977" lon="7.07022">
        <ele>2827.3</ele>
        <time>2026-08-31T11:27:29Z</time>
      </trkpt>
      <trkpt lat="44.67977" lon="7.07022">
        <ele>2827.3</ele>
        <time>2026-08-31T11:27:34Z</time>
      </trkpt>
      <trkpt lat="44.67977" lon="7.07022">
        <ele>2827.3</ele>
        <time>2026-08-31T11:27:40Z</time>
      </trkpt>
      <trkpt lat="44.67977" lon="7.07022">
        <ele>2827.3</ele>
        <time>2026-08-31T11:27:45Z</time>
      </trkpt>
      <trkpt lat="44.67977" lon="7.07022">
        <ele>2827.3</ele>
        <time>2026-08-31T11:27:50Z</time>
      </trkpt>
      <trkpt lat="44.67977" lon="7.07022">
        <ele>2827.3</ele>
        <time>2026-08-31T11:27:56Z</time>
      </trkpt>
      <trkpt lat="44.67973" lon="7.07021">
        <ele>2826.1</ele>
        <time>2026-08-31T11:28:01Z</time>
      </trkpt>
      <trkpt lat="44.67973" lon="7.07021">
        <ele>2826.1</ele>
        <time>2026-08-31T11:28:06Z</time>
      </trkpt>
      <trkpt lat="44.67973" lon="7.07021">
        <ele>2826.1</ele>
        <time>2026-08-31T11:28:12Z</time>
      </trkpt>
      <trkpt lat="44.67973" lon="7.07021">
        <ele>2826.1</ele>
        <time>2026-08-31T11:28:17Z</time>
      </trkpt>
      <trkpt lat="44.67973" lon="7.07021">
        <ele>2826.1</ele>
        <time>2026-08-31T11:28:22Z</time>
      </trkpt>
      <trkpt lat="44.67973" lon="7.07021">
        <ele>2826.1</ele>
        <time>2026-08-31T11:28:28Z</time>
      </trkpt>
      <trkpt lat="44.67973" lon="7.07021">
        <ele>2826.1</ele>
        <time>2026-08-31T11:28:33Z</time>
      </trkpt>
      <trkpt lat="44.67973" lon="7.07021">
        <ele>2826.1</ele>
        <time>2026-08-31T11:28:38Z</time>
      </trkpt>
      <trkpt lat="44.67973" lon="7.07021">
        <ele>2826.1</ele>
        <time>2026-08-31T11:28:44Z</time>
      </trkpt>
      <trkpt lat="44.67973" lon="7.07021">
        <ele>2826.1</ele>
        <time>2026-08-31T11:28:49Z</time>
      </trkpt>
      <trkpt lat="44.67973" lon="7.07021">
        <ele>2826.1</ele>
        <time>2026-08-31T11:28:54Z</time>
      </trkpt>
      <trkpt lat="44.67973" lon="7.07021">
        <ele>2826.1</ele>
        <time>2026-08-31T11:29:00Z</time>
      </trkpt>
      <trkpt lat="44.67973" lon="7.07021">
        <ele>2826.1</ele>
        <time>2026-08-31T11:29:05Z</time>
      </trkpt>
      <trkpt lat="44.67973" lon="7.07021">
        <ele>2826.1</ele>
        <time>2026-08-31T11:29:10Z</time>
      </trkpt>
      <trkpt lat="44.67973" lon="7.07021">
        <ele>2826.1</ele>
        <time>2026-08-31T11:29:16Z</time>
      </trkpt>
      <trkpt lat="44.67973" lon="7.07021">
        <ele>2826.1</ele>
        <time>2026-08-31T11:29:21Z</time>
      </trkpt>
      <trkpt lat="44.67973" lon="7.07021">
        <ele>2826.1</ele>
        <time>2026-08-31T11:29:26Z</time>
      </trkpt>
      <trkpt lat="44.67973" lon="7.07021">
        <ele>2826.1</ele>
        <time>2026-08-31T11:29:32Z</time>
      </trkpt>
      <trkpt lat="44.67973" lon="7.07021">
        <ele>2826.1</ele>
        <time>2026-08-31T11:29:37Z</time>
      </trkpt>
      <trkpt lat="44.67973" lon="7.07021">
        <ele>2826.1</ele>
        <time>2026-08-31T11:29:42Z</time>
      </trkpt>
      <trkpt lat="44.67973" lon="7.07021">
        <ele>2826.1</ele>
        <time>2026-08-31T11:29:48Z</time>
      </trkpt>
      <trkpt lat="44.67973" lon="7.07021">
        <ele>2826.1</ele>
        <time>2026-08-31T11:29:53Z</time>
      </trkpt>
      <trkpt lat="44.67973" lon="7.07021">
        <ele>2826.1</ele>
        <time>2026-08-31T11:29:58Z</time>
      </trkpt>
      <trkpt lat="44.67973" lon="7.07021">
        <ele>2826.1</ele>
        <time>2026-08-31T11:30:04Z</time>
      </trkpt>
      <trkpt lat="44.67973" lon="7.07021">
        <ele>2826.1</ele>
        <time>2026-08-31T11:30:09Z</time>
      </trkpt>
      <trkpt lat="44.67973" lon="7.07021">
        <ele>2826.1</ele>
        <time>2026-08-31T11:30:14Z</time>
      </trkpt>
      <trkpt lat="44.67973" lon="7.07021">
        <ele>2826.1</ele>
        <time>2026-08-31T11:30:20Z</time>
      </trkpt>
      <trkpt lat="44.67973" lon="7.07021">
        <ele>2826.1</ele>
        <time>2026-08-31T11:30:25Z</time>
      </trkpt>
      <trkpt lat="44.67973" lon="7.07021">
        <ele>2826.1</ele>
        <time>2026-08-31T11:30:30Z</time>
      </trkpt>
      <trkpt lat="44.67973" lon="7.07021">
        <ele>2826.1</ele>
        <time>2026-08-31T11:30:36Z</time>
      </trkpt>
      <trkpt lat="44.67973" lon="7.07021">
        <ele>2826.1</ele>
        <time>2026-08-31T11:30:41Z</time>
      </trkpt>
      <trkpt lat="44.67973" lon="7.07021">
        <ele>2826.1</ele>
        <time>2026-08-31T11:30:46Z</time>
      </trkpt>
      <trkpt lat="44.67973" lon="7.07021">
        <ele>2826.1</ele>
        <time>2026-08-31T11:30:52Z</time>
      </trkpt>
      <trkpt lat="44.67973" lon="7.07021">
        <ele>2826.1</ele>
        <time>2026-08-31T11:30:57Z</time>
      </trkpt>
      <trkpt lat="44.67973" lon="7.07021">
        <ele>2826.1</ele>
        <time>2026-08-31T11:31:02Z</time>
      </trkpt>
      <trkpt lat="44.67973" lon="7.07021">
        <ele>2826.1</ele>
        <time>2026-08-31T11:31:08Z</time>
      </trkpt>
      <trkpt lat="44.67973" lon="7.07021">
        <ele>2826.1</ele>
        <time>2026-08-31T11:31:13Z</time>
      </trkpt>
      <trkpt lat="44.67973" lon="7.07021">
        <ele>2826.1</ele>
        <time>2026-08-31T11:31:18Z</time>
      </trkpt>
      <trkpt lat="44.67973" lon="7.07021">
        <ele>2826.1</ele>
        <time>2026-08-31T11:31:24Z</time>
      </trkpt>
      <trkpt lat="44.67973" lon="7.07021">
        <ele>2826.1</ele>
        <time>2026-08-31T11:31:29Z</time>
      </trkpt>
      <trkpt lat="44.67973" lon="7.07021">
        <ele>2826.1</ele>
        <time>2026-08-31T11:31:34Z</time>
      </trkpt>
      <trkpt lat="44.67973" lon="7.07021">
        <ele>2826.1</ele>
        <time>2026-08-31T11:31:40Z</time>
      </trkpt>
      <trkpt lat="44.67973" lon="7.07021">
        <ele>2826.1</ele>
        <time>2026-08-31T11:31:45Z</time>
      </trkpt>
      <trkpt lat="44.67973" lon="7.07021">
        <ele>2826.1</ele>
        <time>2026-08-31T11:31:50Z</time>
      </trkpt>
      <trkpt lat="44.67973" lon="7.07021">
        <ele>2826.1</ele>
        <time>2026-08-31T11:31:56Z</time>
      </trkpt>
      <trkpt lat="44.67973" lon="7.07021">
        <ele>2826.1</ele>
        <time>2026-08-31T11:32:01Z</time>
      </trkpt>
      <trkpt lat="44.67973" lon="7.07021">
        <ele>2826.1</ele>
        <time>2026-08-31T11:32:06Z</time>
      </trkpt>
      <trkpt lat="44.67973" lon="7.07021">
        <ele>2826.1</ele>
        <time>2026-08-31T11:32:12Z</time>
      </trkpt>
      <trkpt lat="44.67973" lon="7.07021">
        <ele>2826.1</ele>
        <time>2026-08-31T11:32:17Z</time>
      </trkpt>
      <trkpt lat="44.67973" lon="7.07021">
        <ele>2826.1</ele>
        <time>2026-08-31T11:32:22Z</time>
      </trkpt>
      <trkpt lat="44.67973" lon="7.07021">
        <ele>2826.1</ele>
        <time>2026-08-31T11:32:28Z</time>
      </trkpt>
      <trkpt lat="44.67973" lon="7.07021">
        <ele>2826.1</ele>
        <time>2026-08-31T11:32:33Z</time>
      </trkpt>
      <trkpt lat="44.67973" lon="7.07021">
        <ele>2826.1</ele>
        <time>2026-08-31T11:32:38Z</time>
      </trkpt>
      <trkpt lat="44.67973" lon="7.07021">
        <ele>2826.1</ele>
        <time>2026-08-31T11:32:44Z</time>
      </trkpt>
      <trkpt lat="44.67973" lon="7.07021">
        <ele>2826.1</ele>
        <time>2026-08-31T11:32:49Z</time>
      </trkpt>
      <trkpt lat="44.67973" lon="7.07021">
        <ele>2826.1</ele>
        <time>2026-08-31T11:32:54Z</time>
      </trkpt>
      <trkpt lat="44.67973" lon="7.07021">
        <ele>2826.1</ele>
        <time>2026-08-31T11:33:00Z</time>
      </trkpt>
      <trkpt lat="44.67973" lon="7.07021">
        <ele>2826.1</ele>
        <time>2026-08-31T11:33:05Z</time>
      </trkpt>
      <trkpt lat="44.67973" lon="7.07021">
        <ele>2826.1</ele>
        <time>2026-08-31T11:33:10Z</time>
      </trkpt>
      <trkpt lat="44.67973" lon="7.07021">
        <ele>2826.1</ele>
        <time>2026-08-31T11:33:16Z</time>
      </trkpt>
      <trkpt lat="44.67973" lon="7.07021">
        <ele>2826.1</ele>
        <time>2026-08-31T11:33:21Z</time>
      </trkpt>
      <trkpt lat="44.67973" lon="7.07021">
        <ele>2826.1</ele>
        <time>2026-08-31T11:33:26Z</time>
      </trkpt>
      <trkpt lat="44.67973" lon="7.07021">
        <ele>2826.1</ele>
        <time>2026-08-31T11:33:32Z</time>
      </trkpt>
      <trkpt lat="44.67973" lon="7.07021">
        <ele>2826.1</ele>
        <time>2026-08-31T11:33:37Z</time>
      </trkpt>
      <trkpt lat="44.67973" lon="7.07021">
        <ele>2826.1</ele>
        <time>2026-08-31T11:33:42Z</time>
      </trkpt>
      <trkpt lat="44.67973" lon="7.07021">
        <ele>2826.1</ele>
        <time>2026-08-31T11:33:48Z</time>
      </trkpt>
      <trkpt lat="44.67973" lon="7.07021">
        <ele>2826.1</ele>
        <time>2026-08-31T11:33:53Z</time>
      </trkpt>
      <trkpt lat="44.67973" lon="7.07021">
        <ele>2826.1</ele>
        <time>2026-08-31T11:33:58Z</time>
      </trkpt>
      <trkpt lat="44.67973" lon="7.07021">
        <ele>2826.1</ele>
        <time>2026-08-31T11:34:04Z</time>
      </trkpt>
      <trkpt lat="44.67973" lon="7.07021">
        <ele>2826.1</ele>
        <time>2026-08-31T11:34:09Z</time>
      </trkpt>
      <trkpt lat="44.67973" lon="7.07021">
        <ele>2826.1</ele>
        <time>2026-08-31T11:34:14Z</time>
      </trkpt>
      <trkpt lat="44.67973" lon="7.07021">
        <ele>2826.1</ele>
        <time>2026-08-31T11:34:20Z</time>
      </trkpt>
      <trkpt lat="44.67973" lon="7.07021">
        <ele>2826.1</ele>
        <time>2026-08-31T11:34:25Z</time>
      </trkpt>
      <trkpt lat="44.67973" lon="7.07021">
        <ele>2826.1</ele>
        <time>2026-08-31T11:34:30Z</time>
      </trkpt>
      <trkpt lat="44.67973" lon="7.07021">
        <ele>2826.1</ele>
        <time>2026-08-31T11:34:36Z</time>
      </trkpt>
      <trkpt lat="44.67973" lon="7.07021">
        <ele>2826.1</ele>
        <time>2026-08-31T11:34:41Z</time>
      </trkpt>
      <trkpt lat="44.67973" lon="7.07021">
        <ele>2826.1</ele>
        <time>2026-08-31T11:34:46Z</time>
      </trkpt>
      <trkpt lat="44.67966" lon="7.07009">
        <ele>2822.3</ele>
        <time>2026-08-31T11:34:52Z</time>
      </trkpt>
      <trkpt lat="44.67962" lon="7.07006">
        <ele>2820.6</ele>
        <time>2026-08-31T11:34:57Z</time>
      </trkpt>
      <trkpt lat="44.67956" lon="7.07006">
        <ele>2818.9</ele>
        <time>2026-08-31T11:35:02Z</time>
      </trkpt>
      <trkpt lat="44.67954" lon="7.07">
        <ele>2817.2</ele>
        <time>2026-08-31T11:35:08Z</time>
      </trkpt>
      <trkpt lat="44.67952" lon="7.06993">
        <ele>2815.8</ele>
        <time>2026-08-31T11:35:13Z</time>
      </trkpt>
      <trkpt lat="44.67949" lon="7.06985">
        <ele>2813.9</ele>
        <time>2026-08-31T11:35:18Z</time>
      </trkpt>
      <trkpt lat="44.67947" lon="7.06979">
        <ele>2812.4</ele>
        <time>2026-08-31T11:35:24Z</time>
      </trkpt>
      <trkpt lat="44.67943" lon="7.06974">
        <ele>2810.4</ele>
        <time>2026-08-31T11:35:29Z</time>
      </trkpt>
      <trkpt lat="44.67939" lon="7.06969">
        <ele>2808.2</ele>
        <time>2026-08-31T11:35:34Z</time>
      </trkpt>
      <trkpt lat="44.67935" lon="7.06964">
        <ele>2806</ele>
        <time>2026-08-31T11:35:40Z</time>
      </trkpt>
      <trkpt lat="44.6793" lon="7.06961">
        <ele>2803.6</ele>
        <time>2026-08-31T11:35:45Z</time>
      </trkpt>
      <trkpt lat="44.67928" lon="7.06955">
        <ele>2801.9</ele>
        <time>2026-08-31T11:35:50Z</time>
      </trkpt>
      <trkpt lat="44.67925" lon="7.06949">
        <ele>2799.6</ele>
        <time>2026-08-31T11:35:56Z</time>
      </trkpt>
      <trkpt lat="44.67924" lon="7.06946">
        <ele>2798.7</ele>
        <time>2026-08-31T11:36:01Z</time>
      </trkpt>
      <trkpt lat="44.67924" lon="7.06945">
        <ele>2798.5</ele>
        <time>2026-08-31T11:36:06Z</time>
      </trkpt>
      <trkpt lat="44.67923" lon="7.06945">
        <ele>2798.1</ele>
        <time>2026-08-31T11:36:12Z</time>
      </trkpt>
      <trkpt lat="44.67923" lon="7.06945">
        <ele>2798.1</ele>
        <time>2026-08-31T11:36:17Z</time>
      </trkpt>
      <trkpt lat="44.67923" lon="7.06945">
        <ele>2798.1</ele>
        <time>2026-08-31T11:36:22Z</time>
      </trkpt>
      <trkpt lat="44.67923" lon="7.06945">
        <ele>2798.1</ele>
        <time>2026-08-31T11:36:28Z</time>
      </trkpt>
      <trkpt lat="44.67922" lon="7.0694">
        <ele>2796.8</ele>
        <time>2026-08-31T11:36:33Z</time>
      </trkpt>
      <trkpt lat="44.67919" lon="7.06933">
        <ele>2794.2</ele>
        <time>2026-08-31T11:36:38Z</time>
      </trkpt>
      <trkpt lat="44.67914" lon="7.06928">
        <ele>2791.5</ele>
        <time>2026-08-31T11:36:44Z</time>
      </trkpt>
      <trkpt lat="44.67913" lon="7.06927">
        <ele>2791</ele>
        <time>2026-08-31T11:36:49Z</time>
      </trkpt>
      <trkpt lat="44.67913" lon="7.06926">
        <ele>2790.8</ele>
        <time>2026-08-31T11:36:54Z</time>
      </trkpt>
      <trkpt lat="44.67913" lon="7.06926">
        <ele>2790.8</ele>
        <time>2026-08-31T11:37:00Z</time>
      </trkpt>
      <trkpt lat="44.67913" lon="7.06926">
        <ele>2790.8</ele>
        <time>2026-08-31T11:37:05Z</time>
      </trkpt>
      <trkpt lat="44.67913" lon="7.06926">
        <ele>2790.8</ele>
        <time>2026-08-31T11:37:10Z</time>
      </trkpt>
      <trkpt lat="44.67913" lon="7.06926">
        <ele>2790.8</ele>
        <time>2026-08-31T11:37:16Z</time>
      </trkpt>
      <trkpt lat="44.67913" lon="7.06926">
        <ele>2790.8</ele>
        <time>2026-08-31T11:37:21Z</time>
      </trkpt>
      <trkpt lat="44.67913" lon="7.06926">
        <ele>2790.8</ele>
        <time>2026-08-31T11:37:26Z</time>
      </trkpt>
      <trkpt lat="44.67913" lon="7.06926">
        <ele>2790.8</ele>
        <time>2026-08-31T11:37:32Z</time>
      </trkpt>
      <trkpt lat="44.67913" lon="7.06926">
        <ele>2790.8</ele>
        <time>2026-08-31T11:37:37Z</time>
      </trkpt>
      <trkpt lat="44.67909" lon="7.06915">
        <ele>2788.3</ele>
        <time>2026-08-31T11:37:42Z</time>
      </trkpt>
      <trkpt lat="44.67909" lon="7.06915">
        <ele>2788.3</ele>
        <time>2026-08-31T11:37:48Z</time>
      </trkpt>
      <trkpt lat="44.6791" lon="7.06911">
        <ele>2789.1</ele>
        <time>2026-08-31T11:37:53Z</time>
      </trkpt>
      <trkpt lat="44.67909" lon="7.06906">
        <ele>2789.5</ele>
        <time>2026-08-31T11:37:58Z</time>
      </trkpt>
      <trkpt lat="44.67906" lon="7.06901">
        <ele>2789.4</ele>
        <time>2026-08-31T11:38:04Z</time>
      </trkpt>
      <trkpt lat="44.67906" lon="7.069">
        <ele>2789.6</ele>
        <time>2026-08-31T11:38:09Z</time>
      </trkpt>
      <trkpt lat="44.67905" lon="7.069">
        <ele>2789.3</ele>
        <time>2026-08-31T11:38:14Z</time>
      </trkpt>
      <trkpt lat="44.67901" lon="7.06895">
        <ele>2789</ele>
        <time>2026-08-31T11:38:20Z</time>
      </trkpt>
      <trkpt lat="44.679" lon="7.06894">
        <ele>2788.9</ele>
        <time>2026-08-31T11:38:25Z</time>
      </trkpt>
      <trkpt lat="44.67899" lon="7.06894">
        <ele>2788.7</ele>
        <time>2026-08-31T11:38:30Z</time>
      </trkpt>
      <trkpt lat="44.67898" lon="7.06892">
        <ele>2788.7</ele>
        <time>2026-08-31T11:38:36Z</time>
      </trkpt>
      <trkpt lat="44.67898" lon="7.06889">
        <ele>2789.1</ele>
        <time>2026-08-31T11:38:41Z</time>
      </trkpt>
      <trkpt lat="44.67895" lon="7.06886">
        <ele>2788.8</ele>
        <time>2026-08-31T11:38:46Z</time>
      </trkpt>
      <trkpt lat="44.67894" lon="7.06883">
        <ele>2789</ele>
        <time>2026-08-31T11:38:52Z</time>
      </trkpt>
      <trkpt lat="44.67894" lon="7.06883">
        <ele>2789</ele>
        <time>2026-08-31T11:38:57Z</time>
      </trkpt>
      <trkpt lat="44.67893" lon="7.06877">
        <ele>2789.5</ele>
        <time>2026-08-31T11:39:02Z</time>
      </trkpt>
      <trkpt lat="44.6789" lon="7.06871">
        <ele>2789.7</ele>
        <time>2026-08-31T11:39:08Z</time>
      </trkpt>
      <trkpt lat="44.67888" lon="7.06869">
        <ele>2789.5</ele>
        <time>2026-08-31T11:39:13Z</time>
      </trkpt>
      <trkpt lat="44.67885" lon="7.06866">
        <ele>2789.2</ele>
        <time>2026-08-31T11:39:18Z</time>
      </trkpt>
      <trkpt lat="44.67884" lon="7.06866">
        <ele>2788.9</ele>
        <time>2026-08-31T11:39:24Z</time>
      </trkpt>
      <trkpt lat="44.67883" lon="7.06862">
        <ele>2789.3</ele>
        <time>2026-08-31T11:39:29Z</time>
      </trkpt>
      <trkpt lat="44.6788" lon="7.06859">
        <ele>2789</ele>
        <time>2026-08-31T11:39:34Z</time>
      </trkpt>
      <trkpt lat="44.67879" lon="7.06854">
        <ele>2789.5</ele>
        <time>2026-08-31T11:39:40Z</time>
      </trkpt>
      <trkpt lat="44.67876" lon="7.06851">
        <ele>2789.2</ele>
        <time>2026-08-31T11:39:45Z</time>
      </trkpt>
      <trkpt lat="44.67874" lon="7.06849">
        <ele>2789</ele>
        <time>2026-08-31T11:39:50Z</time>
      </trkpt>
      <trkpt lat="44.67873" lon="7.06846">
        <ele>2789.2</ele>
        <time>2026-08-31T11:39:56Z</time>
      </trkpt>
      <trkpt lat="44.67873" lon="7.06846">
        <ele>2789.2</ele>
        <time>2026-08-31T11:40:01Z</time>
      </trkpt>
      <trkpt lat="44.6787" lon="7.06844">
        <ele>2788.8</ele>
        <time>2026-08-31T11:40:06Z</time>
      </trkpt>
      <trkpt lat="44.67869" lon="7.06838">
        <ele>2789.5</ele>
        <time>2026-08-31T11:40:12Z</time>
      </trkpt>
      <trkpt lat="44.67867" lon="7.06835">
        <ele>2789.4</ele>
        <time>2026-08-31T11:40:17Z</time>
      </trkpt>
      <trkpt lat="44.67864" lon="7.06835">
        <ele>2788.7</ele>
        <time>2026-08-31T11:40:22Z</time>
      </trkpt>
      <trkpt lat="44.67859" lon="7.06836">
        <ele>2787.5</ele>
        <time>2026-08-31T11:40:28Z</time>
      </trkpt>
      <trkpt lat="44.67859" lon="7.06834">
        <ele>2787.8</ele>
        <time>2026-08-31T11:40:33Z</time>
      </trkpt>
      <trkpt lat="44.67859" lon="7.06834">
        <ele>2787.8</ele>
        <time>2026-08-31T11:40:38Z</time>
      </trkpt>
      <trkpt lat="44.67859" lon="7.06834">
        <ele>2787.8</ele>
        <time>2026-08-31T11:40:44Z</time>
      </trkpt>
      <trkpt lat="44.67859" lon="7.06834">
        <ele>2787.8</ele>
        <time>2026-08-31T11:40:49Z</time>
      </trkpt>
      <trkpt lat="44.67859" lon="7.06834">
        <ele>2787.8</ele>
        <time>2026-08-31T11:40:54Z</time>
      </trkpt>
      <trkpt lat="44.67859" lon="7.06834">
        <ele>2787.8</ele>
        <time>2026-08-31T11:41:00Z</time>
      </trkpt>
      <trkpt lat="44.67855" lon="7.06831">
        <ele>2787.1</ele>
        <time>2026-08-31T11:41:05Z</time>
      </trkpt>
      <trkpt lat="44.67852" lon="7.06831">
        <ele>2786.4</ele>
        <time>2026-08-31T11:41:10Z</time>
      </trkpt>
      <trkpt lat="44.67848" lon="7.06832">
        <ele>2785.4</ele>
        <time>2026-08-31T11:41:16Z</time>
      </trkpt>
      <trkpt lat="44.67846" lon="7.06831">
        <ele>2785</ele>
        <time>2026-08-31T11:41:21Z</time>
      </trkpt>
      <trkpt lat="44.67842" lon="7.0683">
        <ele>2784.1</ele>
        <time>2026-08-31T11:41:26Z</time>
      </trkpt>
      <trkpt lat="44.67838" lon="7.06829">
        <ele>2783.3</ele>
        <time>2026-08-31T11:41:32Z</time>
      </trkpt>
      <trkpt lat="44.67832" lon="7.06829">
        <ele>2781.9</ele>
        <time>2026-08-31T11:41:37Z</time>
      </trkpt>
      <trkpt lat="44.67825" lon="7.06831">
        <ele>2780</ele>
        <time>2026-08-31T11:41:42Z</time>
      </trkpt>
      <trkpt lat="44.6782" lon="7.0683">
        <ele>2778.9</ele>
        <time>2026-08-31T11:41:48Z</time>
      </trkpt>
      <trkpt lat="44.67814" lon="7.0683">
        <ele>2777.4</ele>
        <time>2026-08-31T11:41:53Z</time>
      </trkpt>
      <trkpt lat="44.67811" lon="7.06829">
        <ele>2776.7</ele>
        <time>2026-08-31T11:41:58Z</time>
      </trkpt>
      <trkpt lat="44.67806" lon="7.06827">
        <ele>2775.6</ele>
        <time>2026-08-31T11:42:04Z</time>
      </trkpt>
      <trkpt lat="44.67799" lon="7.06828">
        <ele>2773.8</ele>
        <time>2026-08-31T11:42:09Z</time>
      </trkpt>
      <trkpt lat="44.67793" lon="7.06827">
        <ele>2772.4</ele>
        <time>2026-08-31T11:42:14Z</time>
      </trkpt>
      <trkpt lat="44.67788" lon="7.06827">
        <ele>2771.2</ele>
        <time>2026-08-31T11:42:20Z</time>
      </trkpt>
      <trkpt lat="44.67783" lon="7.06829">
        <ele>2769.8</ele>
        <time>2026-08-31T11:42:25Z</time>
      </trkpt>
      <trkpt lat="44.67776" lon="7.06828">
        <ele>2768.2</ele>
        <time>2026-08-31T11:42:30Z</time>
      </trkpt>
      <trkpt lat="44.67771" lon="7.06825">
        <ele>2767.3</ele>
        <time>2026-08-31T11:42:36Z</time>
      </trkpt>
      <trkpt lat="44.67767" lon="7.06822">
        <ele>2766.7</ele>
        <time>2026-08-31T11:42:41Z</time>
      </trkpt>
      <trkpt lat="44.67762" lon="7.06818">
        <ele>2766</ele>
        <time>2026-08-31T11:42:46Z</time>
      </trkpt>
      <trkpt lat="44.67759" lon="7.06816">
        <ele>2765.6</ele>
        <time>2026-08-31T11:42:52Z</time>
      </trkpt>
      <trkpt lat="44.67757" lon="7.06816">
        <ele>2765.1</ele>
        <time>2026-08-31T11:42:57Z</time>
      </trkpt>
      <trkpt lat="44.67757" lon="7.06816">
        <ele>2765.1</ele>
        <time>2026-08-31T11:43:02Z</time>
      </trkpt>
      <trkpt lat="44.67753" lon="7.06819">
        <ele>2763.8</ele>
        <time>2026-08-31T11:43:08Z</time>
      </trkpt>
      <trkpt lat="44.67753" lon="7.06819">
        <ele>2763.8</ele>
        <time>2026-08-31T11:43:13Z</time>
      </trkpt>
      <trkpt lat="44.67753" lon="7.06819">
        <ele>2763.8</ele>
        <time>2026-08-31T11:43:18Z</time>
      </trkpt>
      <trkpt lat="44.67753" lon="7.06819">
        <ele>2763.8</ele>
        <time>2026-08-31T11:43:24Z</time>
      </trkpt>
      <trkpt lat="44.67753" lon="7.06819">
        <ele>2763.8</ele>
        <time>2026-08-31T11:43:29Z</time>
      </trkpt>
      <trkpt lat="44.67753" lon="7.06819">
        <ele>2763.8</ele>
        <time>2026-08-31T11:43:34Z</time>
      </trkpt>
      <trkpt lat="44.67753" lon="7.06819">
        <ele>2763.8</ele>
        <time>2026-08-31T11:43:40Z</time>
      </trkpt>
      <trkpt lat="44.67753" lon="7.06819">
        <ele>2763.8</ele>
        <time>2026-08-31T11:43:45Z</time>
      </trkpt>
      <trkpt lat="44.67749" lon="7.06818">
        <ele>2762.9</ele>
        <time>2026-08-31T11:43:50Z</time>
      </trkpt>
      <trkpt lat="44.67746" lon="7.06817">
        <ele>2762</ele>
        <time>2026-08-31T11:43:56Z</time>
      </trkpt>
      <trkpt lat="44.6774" lon="7.06817">
        <ele>2760</ele>
        <time>2026-08-31T11:44:01Z</time>
      </trkpt>
      <trkpt lat="44.67737" lon="7.06818">
        <ele>2758.9</ele>
        <time>2026-08-31T11:44:06Z</time>
      </trkpt>
      <trkpt lat="44.67732" lon="7.06819">
        <ele>2757</ele>
        <time>2026-08-31T11:44:12Z</time>
      </trkpt>
      <trkpt lat="44.67728" lon="7.06819">
        <ele>2755.7</ele>
        <time>2026-08-31T11:44:17Z</time>
      </trkpt>
      <trkpt lat="44.67724" lon="7.06819">
        <ele>2754.3</ele>
        <time>2026-08-31T11:44:22Z</time>
      </trkpt>
      <trkpt lat="44.6772" lon="7.06818">
        <ele>2753.2</ele>
        <time>2026-08-31T11:44:28Z</time>
      </trkpt>
      <trkpt lat="44.67718" lon="7.06818">
        <ele>2752.5</ele>
        <time>2026-08-31T11:44:33Z</time>
      </trkpt>
      <trkpt lat="44.67713" lon="7.06819">
        <ele>2750.7</ele>
        <time>2026-08-31T11:44:38Z</time>
      </trkpt>
      <trkpt lat="44.67709" lon="7.06817">
        <ele>2749.7</ele>
        <time>2026-08-31T11:44:44Z</time>
      </trkpt>
      <trkpt lat="44.67705" lon="7.06817">
        <ele>2748.4</ele>
        <time>2026-08-31T11:44:49Z</time>
      </trkpt>
      <trkpt lat="44.67703" lon="7.06817">
        <ele>2747.8</ele>
        <time>2026-08-31T11:44:54Z</time>
      </trkpt>
      <trkpt lat="44.67701" lon="7.06815">
        <ele>2747.6</ele>
        <time>2026-08-31T11:45:00Z</time>
      </trkpt>
      <trkpt lat="44.67696" lon="7.06819">
        <ele>2745</ele>
        <time>2026-08-31T11:45:05Z</time>
      </trkpt>
      <trkpt lat="44.67693" lon="7.0682">
        <ele>2743.7</ele>
        <time>2026-08-31T11:45:10Z</time>
      </trkpt>
      <trkpt lat="44.6769" lon="7.06821">
        <ele>2742.5</ele>
        <time>2026-08-31T11:45:16Z</time>
      </trkpt>
      <trkpt lat="44.67688" lon="7.06821">
        <ele>2741.8</ele>
        <time>2026-08-31T11:45:21Z</time>
      </trkpt>
      <trkpt lat="44.67684" lon="7.06819">
        <ele>2740.9</ele>
        <time>2026-08-31T11:45:26Z</time>
      </trkpt>
      <trkpt lat="44.67679" lon="7.06822">
        <ele>2738.5</ele>
        <time>2026-08-31T11:45:32Z</time>
      </trkpt>
      <trkpt lat="44.67675" lon="7.06824">
        <ele>2736.6</ele>
        <time>2026-08-31T11:45:37Z</time>
      </trkpt>
      <trkpt lat="44.67671" lon="7.06826">
        <ele>2734.6</ele>
        <time>2026-08-31T11:45:42Z</time>
      </trkpt>
      <trkpt lat="44.67666" lon="7.06828">
        <ele>2732.3</ele>
        <time>2026-08-31T11:45:48Z</time>
      </trkpt>
      <trkpt lat="44.67664" lon="7.06829">
        <ele>2731.4</ele>
        <time>2026-08-31T11:45:53Z</time>
      </trkpt>
      <trkpt lat="44.67659" lon="7.0683">
        <ele>2729.5</ele>
        <time>2026-08-31T11:45:58Z</time>
      </trkpt>
      <trkpt lat="44.67654" lon="7.06829">
        <ele>2728.2</ele>
        <time>2026-08-31T11:46:04Z</time>
      </trkpt>
      <trkpt lat="44.67652" lon="7.06837">
        <ele>2726</ele>
        <time>2026-08-31T11:46:09Z</time>
      </trkpt>
      <trkpt lat="44.67656" lon="7.06845">
        <ele>2726.3</ele>
        <time>2026-08-31T11:46:14Z</time>
      </trkpt>
      <trkpt lat="44.6766" lon="7.06845">
        <ele>2727.5</ele>
        <time>2026-08-31T11:46:20Z</time>
      </trkpt>
      <trkpt lat="44.6766" lon="7.06845">
        <ele>2727.5</ele>
        <time>2026-08-31T11:46:25Z</time>
      </trkpt>
      <trkpt lat="44.6766" lon="7.06845">
        <ele>2727.5</ele>
        <time>2026-08-31T11:46:30Z</time>
      </trkpt>
      <trkpt lat="44.67661" lon="7.0685">
        <ele>2727.1</ele>
        <time>2026-08-31T11:46:36Z</time>
      </trkpt>
      <trkpt lat="44.67664" lon="7.06853">
        <ele>2727.5</ele>
        <time>2026-08-31T11:46:41Z</time>
      </trkpt>
      <trkpt lat="44.67667" lon="7.06851">
        <ele>2728.6</ele>
        <time>2026-08-31T11:46:46Z</time>
      </trkpt>
      <trkpt lat="44.67671" lon="7.06846">
        <ele>2730.7</ele>
        <time>2026-08-31T11:46:52Z</time>
      </trkpt>
      <trkpt lat="44.67674" lon="7.06848">
        <ele>2731.5</ele>
        <time>2026-08-31T11:46:57Z</time>
      </trkpt>
      <trkpt lat="44.67677" lon="7.06852">
        <ele>2731.9</ele>
        <time>2026-08-31T11:47:02Z</time>
      </trkpt>
      <trkpt lat="44.67681" lon="7.06854">
        <ele>2733</ele>
        <time>2026-08-31T11:47:08Z</time>
      </trkpt>
      <trkpt lat="44.67682" lon="7.06857">
        <ele>2732.9</ele>
        <time>2026-08-31T11:47:13Z</time>
      </trkpt>
      <trkpt lat="44.67682" lon="7.06857">
        <ele>2732.9</ele>
        <time>2026-08-31T11:47:18Z</time>
      </trkpt>
      <trkpt lat="44.67682" lon="7.06857">
        <ele>2732.9</ele>
        <time>2026-08-31T11:47:24Z</time>
      </trkpt>
      <trkpt lat="44.67682" lon="7.06857">
        <ele>2732.9</ele>
        <time>2026-08-31T11:47:29Z</time>
      </trkpt>
      <trkpt lat="44.67682" lon="7.06857">
        <ele>2732.9</ele>
        <time>2026-08-31T11:47:34Z</time>
      </trkpt>
      <trkpt lat="44.67682" lon="7.06857">
        <ele>2732.9</ele>
        <time>2026-08-31T11:47:40Z</time>
      </trkpt>
      <trkpt lat="44.67682" lon="7.06857">
        <ele>2732.9</ele>
        <time>2026-08-31T11:47:45Z</time>
      </trkpt>
      <trkpt lat="44.67675" lon="7.06856">
        <ele>2730.6</ele>
        <time>2026-08-31T11:47:50Z</time>
      </trkpt>
      <trkpt lat="44.67675" lon="7.06856">
        <ele>2730.6</ele>
        <time>2026-08-31T11:47:56Z</time>
      </trkpt>
      <trkpt lat="44.67675" lon="7.06856">
        <ele>2730.6</ele>
        <time>2026-08-31T11:48:01Z</time>
      </trkpt>
      <trkpt lat="44.67675" lon="7.06856">
        <ele>2730.6</ele>
        <time>2026-08-31T11:48:06Z</time>
      </trkpt>
      <trkpt lat="44.67672" lon="7.06857">
        <ele>2729.4</ele>
        <time>2026-08-31T11:48:12Z</time>
      </trkpt>
      <trkpt lat="44.67667" lon="7.06859">
        <ele>2727.4</ele>
        <time>2026-08-31T11:48:17Z</time>
      </trkpt>
      <trkpt lat="44.67663" lon="7.06861">
        <ele>2726.1</ele>
        <time>2026-08-31T11:48:22Z</time>
      </trkpt>
      <trkpt lat="44.67657" lon="7.06863">
        <ele>2724.5</ele>
        <time>2026-08-31T11:48:28Z</time>
      </trkpt>
      <trkpt lat="44.67653" lon="7.06862">
        <ele>2723.7</ele>
        <time>2026-08-31T11:48:33Z</time>
      </trkpt>
      <trkpt lat="44.67649" lon="7.06862">
        <ele>2722.7</ele>
        <time>2026-08-31T11:48:38Z</time>
      </trkpt>
      <trkpt lat="44.67644" lon="7.06859">
        <ele>2721.8</ele>
        <time>2026-08-31T11:48:44Z</time>
      </trkpt>
      <trkpt lat="44.67638" lon="7.0686">
        <ele>2720.3</ele>
        <time>2026-08-31T11:48:49Z</time>
      </trkpt>
      <trkpt lat="44.67633" lon="7.0686">
        <ele>2719.1</ele>
        <time>2026-08-31T11:48:54Z</time>
      </trkpt>
      <trkpt lat="44.67629" lon="7.06861">
        <ele>2718.1</ele>
        <time>2026-08-31T11:49:00Z</time>
      </trkpt>
      <trkpt lat="44.67627" lon="7.0686">
        <ele>2717.7</ele>
        <time>2026-08-31T11:49:05Z</time>
      </trkpt>
      <trkpt lat="44.67624" lon="7.06858">
        <ele>2717</ele>
        <time>2026-08-31T11:49:10Z</time>
      </trkpt>
      <trkpt lat="44.67621" lon="7.06857">
        <ele>2716.3</ele>
        <time>2026-08-31T11:49:16Z</time>
      </trkpt>
      <trkpt lat="44.67621" lon="7.06857">
        <ele>2716.3</ele>
        <time>2026-08-31T11:49:21Z</time>
      </trkpt>
      <trkpt lat="44.67621" lon="7.06857">
        <ele>2716.3</ele>
        <time>2026-08-31T11:49:26Z</time>
      </trkpt>
      <trkpt lat="44.67621" lon="7.06857">
        <ele>2716.3</ele>
        <time>2026-08-31T11:49:32Z</time>
      </trkpt>
      <trkpt lat="44.67621" lon="7.06857">
        <ele>2716.3</ele>
        <time>2026-08-31T11:49:37Z</time>
      </trkpt>
      <trkpt lat="44.67621" lon="7.06857">
        <ele>2716.3</ele>
        <time>2026-08-31T11:49:42Z</time>
      </trkpt>
      <trkpt lat="44.67621" lon="7.06857">
        <ele>2716.3</ele>
        <time>2026-08-31T11:49:48Z</time>
      </trkpt>
      <trkpt lat="44.67618" lon="7.0685">
        <ele>2715.6</ele>
        <time>2026-08-31T11:49:53Z</time>
      </trkpt>
      <trkpt lat="44.67616" lon="7.06851">
        <ele>2715.1</ele>
        <time>2026-08-31T11:49:58Z</time>
      </trkpt>
      <trkpt lat="44.67609" lon="7.06852">
        <ele>2713.3</ele>
        <time>2026-08-31T11:50:04Z</time>
      </trkpt>
      <trkpt lat="44.67605" lon="7.06849">
        <ele>2712.1</ele>
        <time>2026-08-31T11:50:09Z</time>
      </trkpt>
      <trkpt lat="44.67601" lon="7.06844">
        <ele>2710.9</ele>
        <time>2026-08-31T11:50:14Z</time>
      </trkpt>
      <trkpt lat="44.67596" lon="7.06839">
        <ele>2709.2</ele>
        <time>2026-08-31T11:50:20Z</time>
      </trkpt>
      <trkpt lat="44.67591" lon="7.06836">
        <ele>2707.6</ele>
        <time>2026-08-31T11:50:25Z</time>
      </trkpt>
      <trkpt lat="44.6759" lon="7.06829">
        <ele>2707.7</ele>
        <time>2026-08-31T11:50:30Z</time>
      </trkpt>
      <trkpt lat="44.67589" lon="7.06823">
        <ele>2708.2</ele>
        <time>2026-08-31T11:50:36Z</time>
      </trkpt>
      <trkpt lat="44.67587" lon="7.06819">
        <ele>2708.1</ele>
        <time>2026-08-31T11:50:41Z</time>
      </trkpt>
      <trkpt lat="44.67584" lon="7.06817">
        <ele>2707.4</ele>
        <time>2026-08-31T11:50:46Z</time>
      </trkpt>
      <trkpt lat="44.67581" lon="7.06813">
        <ele>2707.1</ele>
        <time>2026-08-31T11:50:52Z</time>
      </trkpt>
      <trkpt lat="44.67577" lon="7.06813">
        <ele>2706</ele>
        <time>2026-08-31T11:50:57Z</time>
      </trkpt>
      <trkpt lat="44.67573" lon="7.06812">
        <ele>2705</ele>
        <time>2026-08-31T11:51:02Z</time>
      </trkpt>
      <trkpt lat="44.67569" lon="7.0681">
        <ele>2704</ele>
        <time>2026-08-31T11:51:08Z</time>
      </trkpt>
      <trkpt lat="44.67566" lon="7.06811">
        <ele>2703.1</ele>
        <time>2026-08-31T11:51:13Z</time>
      </trkpt>
      <trkpt lat="44.67562" lon="7.06805">
        <ele>2702.4</ele>
        <time>2026-08-31T11:51:18Z</time>
      </trkpt>
      <trkpt lat="44.67557" lon="7.068">
        <ele>2701.1</ele>
        <time>2026-08-31T11:51:24Z</time>
      </trkpt>
      <trkpt lat="44.67551" lon="7.06797">
        <ele>2699.3</ele>
        <time>2026-08-31T11:51:29Z</time>
      </trkpt>
      <trkpt lat="44.67548" lon="7.06791">
        <ele>2698.4</ele>
        <time>2026-08-31T11:51:34Z</time>
      </trkpt>
      <trkpt lat="44.67548" lon="7.06791">
        <ele>2698.4</ele>
        <time>2026-08-31T11:51:40Z</time>
      </trkpt>
      <trkpt lat="44.67548" lon="7.06791">
        <ele>2698.4</ele>
        <time>2026-08-31T11:51:45Z</time>
      </trkpt>
      <trkpt lat="44.67548" lon="7.06791">
        <ele>2698.4</ele>
        <time>2026-08-31T11:51:50Z</time>
      </trkpt>
      <trkpt lat="44.67542" lon="7.0679">
        <ele>2696.4</ele>
        <time>2026-08-31T11:51:56Z</time>
      </trkpt>
      <trkpt lat="44.67539" lon="7.06787">
        <ele>2695.3</ele>
        <time>2026-08-31T11:52:01Z</time>
      </trkpt>
      <trkpt lat="44.67538" lon="7.06787">
        <ele>2694.9</ele>
        <time>2026-08-31T11:52:06Z</time>
      </trkpt>
      <trkpt lat="44.67537" lon="7.06788">
        <ele>2694.6</ele>
        <time>2026-08-31T11:52:12Z</time>
      </trkpt>
      <trkpt lat="44.67537" lon="7.06788">
        <ele>2694.6</ele>
        <time>2026-08-31T11:52:17Z</time>
      </trkpt>
      <trkpt lat="44.67535" lon="7.06795">
        <ele>2694.1</ele>
        <time>2026-08-31T11:52:22Z</time>
      </trkpt>
      <trkpt lat="44.67532" lon="7.06792">
        <ele>2693</ele>
        <time>2026-08-31T11:52:28Z</time>
      </trkpt>
      <trkpt lat="44.67528" lon="7.06787">
        <ele>2691.3</ele>
        <time>2026-08-31T11:52:33Z</time>
      </trkpt>
      <trkpt lat="44.67525" lon="7.06782">
        <ele>2690</ele>
        <time>2026-08-31T11:52:38Z</time>
      </trkpt>
      <trkpt lat="44.67523" lon="7.06776">
        <ele>2688.8</ele>
        <time>2026-08-31T11:52:44Z</time>
      </trkpt>
      <trkpt lat="44.67521" lon="7.0677">
        <ele>2687.6</ele>
        <time>2026-08-31T11:52:49Z</time>
      </trkpt>
      <trkpt lat="44.6752" lon="7.06765">
        <ele>2686.8</ele>
        <time>2026-08-31T11:52:54Z</time>
      </trkpt>
      <trkpt lat="44.67519" lon="7.06763">
        <ele>2686.2</ele>
        <time>2026-08-31T11:53:00Z</time>
      </trkpt>
      <trkpt lat="44.67516" lon="7.06764">
        <ele>2685</ele>
        <time>2026-08-31T11:53:05Z</time>
      </trkpt>
      <trkpt lat="44.67513" lon="7.06762">
        <ele>2683.5</ele>
        <time>2026-08-31T11:53:10Z</time>
      </trkpt>
      <trkpt lat="44.6751" lon="7.06758">
        <ele>2681.7</ele>
        <time>2026-08-31T11:53:16Z</time>
      </trkpt>
      <trkpt lat="44.67506" lon="7.06755">
        <ele>2679.5</ele>
        <time>2026-08-31T11:53:21Z</time>
      </trkpt>
      <trkpt lat="44.67503" lon="7.06753">
        <ele>2677.8</ele>
        <time>2026-08-31T11:53:26Z</time>
      </trkpt>
      <trkpt lat="44.67502" lon="7.06751">
        <ele>2677.1</ele>
        <time>2026-08-31T11:53:32Z</time>
      </trkpt>
      <trkpt lat="44.67502" lon="7.06751">
        <ele>2677.1</ele>
        <time>2026-08-31T11:53:37Z</time>
      </trkpt>
      <trkpt lat="44.67502" lon="7.06751">
        <ele>2677.1</ele>
        <time>2026-08-31T11:53:42Z</time>
      </trkpt>
      <trkpt lat="44.67502" lon="7.06751">
        <ele>2677.1</ele>
        <time>2026-08-31T11:53:48Z</time>
      </trkpt>
      <trkpt lat="44.67502" lon="7.06751">
        <ele>2677.1</ele>
        <time>2026-08-31T11:53:53Z</time>
      </trkpt>
      <trkpt lat="44.67502" lon="7.06751">
        <ele>2677.1</ele>
        <time>2026-08-31T11:53:58Z</time>
      </trkpt>
      <trkpt lat="44.67495" lon="7.0675">
        <ele>2674.5</ele>
        <time>2026-08-31T11:54:04Z</time>
      </trkpt>
      <trkpt lat="44.67494" lon="7.06745">
        <ele>2675.4</ele>
        <time>2026-08-31T11:54:09Z</time>
      </trkpt>
      <trkpt lat="44.67493" lon="7.06743">
        <ele>2675.6</ele>
        <time>2026-08-31T11:54:14Z</time>
      </trkpt>
      <trkpt lat="44.67491" lon="7.0674">
        <ele>2675.6</ele>
        <time>2026-08-31T11:54:20Z</time>
      </trkpt>
      <trkpt lat="44.6749" lon="7.06736">
        <ele>2676.1</ele>
        <time>2026-08-31T11:54:25Z</time>
      </trkpt>
      <trkpt lat="44.67487" lon="7.06734">
        <ele>2675.4</ele>
        <time>2026-08-31T11:54:30Z</time>
      </trkpt>
      <trkpt lat="44.67484" lon="7.06729">
        <ele>2675.2</ele>
        <time>2026-08-31T11:54:36Z</time>
      </trkpt>
      <trkpt lat="44.67479" lon="7.06733">
        <ele>2672.4</ele>
        <time>2026-08-31T11:54:41Z</time>
      </trkpt>
      <trkpt lat="44.67483" lon="7.06739">
        <ele>2672.9</ele>
        <time>2026-08-31T11:54:46Z</time>
      </trkpt>
      <trkpt lat="44.67486" lon="7.0675">
        <ele>2671.8</ele>
        <time>2026-08-31T11:54:52Z</time>
      </trkpt>
      <trkpt lat="44.6749" lon="7.0676">
        <ele>2674.5</ele>
        <time>2026-08-31T11:54:57Z</time>
      </trkpt>
      <trkpt lat="44.67492" lon="7.06767">
        <ele>2676.1</ele>
        <time>2026-08-31T11:55:02Z</time>
      </trkpt>
      <trkpt lat="44.67493" lon="7.06778">
        <ele>2678</ele>
        <time>2026-08-31T11:55:08Z</time>
      </trkpt>
      <trkpt lat="44.67494" lon="7.06781">
        <ele>2678.7</ele>
        <time>2026-08-31T11:55:13Z</time>
      </trkpt>
      <trkpt lat="44.67492" lon="7.06779">
        <ele>2677.8</ele>
        <time>2026-08-31T11:55:18Z</time>
      </trkpt>
      <trkpt lat="44.67488" lon="7.06773">
        <ele>2675.8</ele>
        <time>2026-08-31T11:55:24Z</time>
      </trkpt>
      <trkpt lat="44.67484" lon="7.06769">
        <ele>2674</ele>
        <time>2026-08-31T11:55:29Z</time>
      </trkpt>
      <trkpt lat="44.67482" lon="7.06766">
        <ele>2673</ele>
        <time>2026-08-31T11:55:34Z</time>
      </trkpt>
      <trkpt lat="44.6748" lon="7.06765">
        <ele>2672.2</ele>
        <time>2026-08-31T11:55:40Z</time>
      </trkpt>
      <trkpt lat="44.67478" lon="7.06765">
        <ele>2671.7</ele>
        <time>2026-08-31T11:55:45Z</time>
      </trkpt>
      <trkpt lat="44.67476" lon="7.06762">
        <ele>2670.6</ele>
        <time>2026-08-31T11:55:50Z</time>
      </trkpt>
      <trkpt lat="44.67473" lon="7.06758">
        <ele>2669.1</ele>
        <time>2026-08-31T11:55:56Z</time>
      </trkpt>
      <trkpt lat="44.67471" lon="7.06755">
        <ele>2668.1</ele>
        <time>2026-08-31T11:56:01Z</time>
      </trkpt>
      <trkpt lat="44.67469" lon="7.06751">
        <ele>2666.9</ele>
        <time>2026-08-31T11:56:06Z</time>
      </trkpt>
      <trkpt lat="44.67467" lon="7.06747">
        <ele>2666.4</ele>
        <time>2026-08-31T11:56:12Z</time>
      </trkpt>
      <trkpt lat="44.67466" lon="7.06742">
        <ele>2666.5</ele>
        <time>2026-08-31T11:56:17Z</time>
      </trkpt>
      <trkpt lat="44.67464" lon="7.06739">
        <ele>2666.1</ele>
        <time>2026-08-31T11:56:22Z</time>
      </trkpt>
      <trkpt lat="44.67464" lon="7.06737">
        <ele>2666.2</ele>
        <time>2026-08-31T11:56:28Z</time>
      </trkpt>
      <trkpt lat="44.67461" lon="7.06734">
        <ele>2665.3</ele>
        <time>2026-08-31T11:56:33Z</time>
      </trkpt>
      <trkpt lat="44.67456" lon="7.06733">
        <ele>2663.4</ele>
        <time>2026-08-31T11:56:38Z</time>
      </trkpt>
      <trkpt lat="44.67453" lon="7.0673">
        <ele>2662.3</ele>
        <time>2026-08-31T11:56:44Z</time>
      </trkpt>
      <trkpt lat="44.6745" lon="7.06726">
        <ele>2661.1</ele>
        <time>2026-08-31T11:56:49Z</time>
      </trkpt>
      <trkpt lat="44.67448" lon="7.06726">
        <ele>2660.2</ele>
        <time>2026-08-31T11:56:54Z</time>
      </trkpt>
      <trkpt lat="44.67445" lon="7.06719">
        <ele>2658.7</ele>
        <time>2026-08-31T11:57:00Z</time>
      </trkpt>
      <trkpt lat="44.67442" lon="7.06716">
        <ele>2657.2</ele>
        <time>2026-08-31T11:57:05Z</time>
      </trkpt>
      <trkpt lat="44.67438" lon="7.06714">
        <ele>2655.1</ele>
        <time>2026-08-31T11:57:10Z</time>
      </trkpt>
      <trkpt lat="44.67437" lon="7.06709">
        <ele>2654.3</ele>
        <time>2026-08-31T11:57:16Z</time>
      </trkpt>
      <trkpt lat="44.67434" lon="7.06706">
        <ele>2652.5</ele>
        <time>2026-08-31T11:57:21Z</time>
      </trkpt>
      <trkpt lat="44.67432" lon="7.06704">
        <ele>2651.2</ele>
        <time>2026-08-31T11:57:26Z</time>
      </trkpt>
      <trkpt lat="44.67429" lon="7.06702">
        <ele>2649.3</ele>
        <time>2026-08-31T11:57:32Z</time>
      </trkpt>
      <trkpt lat="44.67427" lon="7.06698">
        <ele>2647.7</ele>
        <time>2026-08-31T11:57:37Z</time>
      </trkpt>
      <trkpt lat="44.67424" lon="7.06695">
        <ele>2645.5</ele>
        <time>2026-08-31T11:57:42Z</time>
      </trkpt>
      <trkpt lat="44.67421" lon="7.06694">
        <ele>2643.5</ele>
        <time>2026-08-31T11:57:48Z</time>
      </trkpt>
      <trkpt lat="44.67419" lon="7.06694">
        <ele>2642.3</ele>
        <time>2026-08-31T11:57:53Z</time>
      </trkpt>
      <trkpt lat="44.67416" lon="7.06695">
        <ele>2640.6</ele>
        <time>2026-08-31T11:57:58Z</time>
      </trkpt>
      <trkpt lat="44.67412" lon="7.06693">
        <ele>2637.5</ele>
        <time>2026-08-31T11:58:04Z</time>
      </trkpt>
      <trkpt lat="44.67408" lon="7.06691">
        <ele>2634.3</ele>
        <time>2026-08-31T11:58:09Z</time>
      </trkpt>
      <trkpt lat="44.67406" lon="7.06688">
        <ele>2632.4</ele>
        <time>2026-08-31T11:58:14Z</time>
      </trkpt>
      <trkpt lat="44.67403" lon="7.06687">
        <ele>2630.2</ele>
        <time>2026-08-31T11:58:20Z</time>
      </trkpt>
      <trkpt lat="44.67399" lon="7.06686">
        <ele>2627.3</ele>
        <time>2026-08-31T11:58:25Z</time>
      </trkpt>
      <trkpt lat="44.67396" lon="7.06685">
        <ele>2625</ele>
        <time>2026-08-31T11:58:30Z</time>
      </trkpt>
      <trkpt lat="44.67392" lon="7.06684">
        <ele>2622.1</ele>
        <time>2026-08-31T11:58:36Z</time>
      </trkpt>
      <trkpt lat="44.67391" lon="7.06681">
        <ele>2621</ele>
        <time>2026-08-31T11:58:41Z</time>
      </trkpt>
      <trkpt lat="44.67392" lon="7.06681">
        <ele>2621.6</ele>
        <time>2026-08-31T11:58:46Z</time>
      </trkpt>
      <trkpt lat="44.67392" lon="7.06681">
        <ele>2621.6</ele>
        <time>2026-08-31T11:58:52Z</time>
      </trkpt>
      <trkpt lat="44.67392" lon="7.06681">
        <ele>2621.6</ele>
        <time>2026-08-31T11:58:57Z</time>
      </trkpt>
      <trkpt lat="44.67392" lon="7.06681">
        <ele>2621.6</ele>
        <time>2026-08-31T11:59:02Z</time>
      </trkpt>
      <trkpt lat="44.67392" lon="7.06681">
        <ele>2621.6</ele>
        <time>2026-08-31T11:59:08Z</time>
      </trkpt>
      <trkpt lat="44.67392" lon="7.06681">
        <ele>2621.6</ele>
        <time>2026-08-31T11:59:13Z</time>
      </trkpt>
      <trkpt lat="44.67392" lon="7.06681">
        <ele>2621.6</ele>
        <time>2026-08-31T11:59:18Z</time>
      </trkpt>
      <trkpt lat="44.67392" lon="7.06681">
        <ele>2621.6</ele>
        <time>2026-08-31T11:59:24Z</time>
      </trkpt>
      <trkpt lat="44.67392" lon="7.06681">
        <ele>2621.6</ele>
        <time>2026-08-31T11:59:29Z</time>
      </trkpt>
      <trkpt lat="44.67386" lon="7.06675">
        <ele>2616.6</ele>
        <time>2026-08-31T11:59:34Z</time>
      </trkpt>
      <trkpt lat="44.67383" lon="7.06673">
        <ele>2614.3</ele>
        <time>2026-08-31T11:59:40Z</time>
      </trkpt>
      <trkpt lat="44.6738" lon="7.06674">
        <ele>2612.4</ele>
        <time>2026-08-31T11:59:45Z</time>
      </trkpt>
      <trkpt lat="44.67374" lon="7.06675">
        <ele>2608.5</ele>
        <time>2026-08-31T11:59:50Z</time>
      </trkpt>
      <trkpt lat="44.67374" lon="7.06675">
        <ele>2608.5</ele>
        <time>2026-08-31T11:59:56Z</time>
      </trkpt>
      <trkpt lat="44.67374" lon="7.06675">
        <ele>2608.5</ele>
        <time>2026-08-31T12:00:01Z</time>
      </trkpt>
      <trkpt lat="44.67374" lon="7.06675">
        <ele>2608.5</ele>
        <time>2026-08-31T12:00:06Z</time>
      </trkpt>
      <trkpt lat="44.67374" lon="7.06675">
        <ele>2608.5</ele>
        <time>2026-08-31T12:00:12Z</time>
      </trkpt>
      <trkpt lat="44.67374" lon="7.06675">
        <ele>2608.5</ele>
        <time>2026-08-31T12:00:17Z</time>
      </trkpt>
      <trkpt lat="44.67374" lon="7.06675">
        <ele>2608.5</ele>
        <time>2026-08-31T12:00:22Z</time>
      </trkpt>
      <trkpt lat="44.67374" lon="7.06675">
        <ele>2608.5</ele>
        <time>2026-08-31T12:00:28Z</time>
      </trkpt>
      <trkpt lat="44.67374" lon="7.06675">
        <ele>2608.5</ele>
        <time>2026-08-31T12:00:33Z</time>
      </trkpt>
      <trkpt lat="44.67374" lon="7.06675">
        <ele>2608.5</ele>
        <time>2026-08-31T12:00:38Z</time>
      </trkpt>
      <trkpt lat="44.67364" lon="7.06678">
        <ele>2602</ele>
        <time>2026-08-31T12:00:44Z</time>
      </trkpt>
      <trkpt lat="44.67361" lon="7.06676">
        <ele>2599.7</ele>
        <time>2026-08-31T12:00:49Z</time>
      </trkpt>
      <trkpt lat="44.6736" lon="7.06672">
        <ele>2598.6</ele>
        <time>2026-08-31T12:00:54Z</time>
      </trkpt>
      <trkpt lat="44.67359" lon="7.06669">
        <ele>2597.5</ele>
        <time>2026-08-31T12:01:00Z</time>
      </trkpt>
      <trkpt lat="44.67356" lon="7.06668">
        <ele>2595.4</ele>
        <time>2026-08-31T12:01:05Z</time>
      </trkpt>
      <trkpt lat="44.67353" lon="7.06668">
        <ele>2593.4</ele>
        <time>2026-08-31T12:01:10Z</time>
      </trkpt>
      <trkpt lat="44.67351" lon="7.06667">
        <ele>2591.9</ele>
        <time>2026-08-31T12:01:16Z</time>
      </trkpt>
      <trkpt lat="44.67351" lon="7.06664">
        <ele>2592.4</ele>
        <time>2026-08-31T12:01:21Z</time>
      </trkpt>
      <trkpt lat="44.67349" lon="7.06662">
        <ele>2591.5</ele>
        <time>2026-08-31T12:01:26Z</time>
      </trkpt>
      <trkpt lat="44.67348" lon="7.06657">
        <ele>2591.8</ele>
        <time>2026-08-31T12:01:32Z</time>
      </trkpt>
      <trkpt lat="44.67345" lon="7.06656">
        <ele>2589.9</ele>
        <time>2026-08-31T12:01:37Z</time>
      </trkpt>
      <trkpt lat="44.67343" lon="7.06652">
        <ele>2589.3</ele>
        <time>2026-08-31T12:01:42Z</time>
      </trkpt>
      <trkpt lat="44.6734" lon="7.06648">
        <ele>2587.9</ele>
        <time>2026-08-31T12:01:48Z</time>
      </trkpt>
      <trkpt lat="44.67339" lon="7.06647">
        <ele>2587.4</ele>
        <time>2026-08-31T12:01:53Z</time>
      </trkpt>
      <trkpt lat="44.67338" lon="7.06644">
        <ele>2587.2</ele>
        <time>2026-08-31T12:01:58Z</time>
      </trkpt>
      <trkpt lat="44.67336" lon="7.06644">
        <ele>2585.7</ele>
        <time>2026-08-31T12:02:04Z</time>
      </trkpt>
      <trkpt lat="44.67332" lon="7.06644">
        <ele>2583</ele>
        <time>2026-08-31T12:02:09Z</time>
      </trkpt>
      <trkpt lat="44.6733" lon="7.06647">
        <ele>2581.3</ele>
        <time>2026-08-31T12:02:14Z</time>
      </trkpt>
      <trkpt lat="44.6733" lon="7.06647">
        <ele>2581.3</ele>
        <time>2026-08-31T12:02:20Z</time>
      </trkpt>
      <trkpt lat="44.6733" lon="7.06647">
        <ele>2581.3</ele>
        <time>2026-08-31T12:02:25Z</time>
      </trkpt>
      <trkpt lat="44.6733" lon="7.06647">
        <ele>2581.3</ele>
        <time>2026-08-31T12:02:30Z</time>
      </trkpt>
      <trkpt lat="44.6733" lon="7.06647">
        <ele>2581.3</ele>
        <time>2026-08-31T12:02:36Z</time>
      </trkpt>
      <trkpt lat="44.6733" lon="7.06647">
        <ele>2581.3</ele>
        <time>2026-08-31T12:02:41Z</time>
      </trkpt>
      <trkpt lat="44.6733" lon="7.06647">
        <ele>2581.3</ele>
        <time>2026-08-31T12:02:46Z</time>
      </trkpt>
      <trkpt lat="44.6733" lon="7.06647">
        <ele>2581.3</ele>
        <time>2026-08-31T12:02:52Z</time>
      </trkpt>
      <trkpt lat="44.6733" lon="7.06647">
        <ele>2581.3</ele>
        <time>2026-08-31T12:02:57Z</time>
      </trkpt>
      <trkpt lat="44.6733" lon="7.06647">
        <ele>2581.3</ele>
        <time>2026-08-31T12:03:02Z</time>
      </trkpt>
      <trkpt lat="44.6733" lon="7.06647">
        <ele>2581.3</ele>
        <time>2026-08-31T12:03:08Z</time>
      </trkpt>
      <trkpt lat="44.6733" lon="7.06647">
        <ele>2581.3</ele>
        <time>2026-08-31T12:03:13Z</time>
      </trkpt>
      <trkpt lat="44.6733" lon="7.06647">
        <ele>2581.3</ele>
        <time>2026-08-31T12:03:18Z</time>
      </trkpt>
      <trkpt lat="44.6733" lon="7.06647">
        <ele>2581.3</ele>
        <time>2026-08-31T12:03:24Z</time>
      </trkpt>
      <trkpt lat="44.6733" lon="7.06647">
        <ele>2581.3</ele>
        <time>2026-08-31T12:03:29Z</time>
      </trkpt>
      <trkpt lat="44.6733" lon="7.06647">
        <ele>2581.3</ele>
        <time>2026-08-31T12:03:34Z</time>
      </trkpt>
      <trkpt lat="44.6733" lon="7.06647">
        <ele>2581.3</ele>
        <time>2026-08-31T12:03:40Z</time>
      </trkpt>
      <trkpt lat="44.6733" lon="7.06647">
        <ele>2581.3</ele>
        <time>2026-08-31T12:03:45Z</time>
      </trkpt>
      <trkpt lat="44.67332" lon="7.0666">
        <ele>2580.3</ele>
        <time>2026-08-31T12:03:50Z</time>
      </trkpt>
      <trkpt lat="44.67332" lon="7.0666">
        <ele>2580.3</ele>
        <time>2026-08-31T12:03:56Z</time>
      </trkpt>
      <trkpt lat="44.67332" lon="7.0666">
        <ele>2580.3</ele>
        <time>2026-08-31T12:04:01Z</time>
      </trkpt>
      <trkpt lat="44.67332" lon="7.0666">
        <ele>2580.3</ele>
        <time>2026-08-31T12:04:06Z</time>
      </trkpt>
      <trkpt lat="44.67332" lon="7.0666">
        <ele>2580.3</ele>
        <time>2026-08-31T12:04:12Z</time>
      </trkpt>
      <trkpt lat="44.67332" lon="7.0666">
        <ele>2580.3</ele>
        <time>2026-08-31T12:04:17Z</time>
      </trkpt>
      <trkpt lat="44.67332" lon="7.0666">
        <ele>2580.3</ele>
        <time>2026-08-31T12:04:22Z</time>
      </trkpt>
      <trkpt lat="44.67332" lon="7.0666">
        <ele>2580.3</ele>
        <time>2026-08-31T12:04:28Z</time>
      </trkpt>
      <trkpt lat="44.67323" lon="7.0665">
        <ele>2576.7</ele>
        <time>2026-08-31T12:04:33Z</time>
      </trkpt>
      <trkpt lat="44.67323" lon="7.0665">
        <ele>2576.7</ele>
        <time>2026-08-31T12:04:38Z</time>
      </trkpt>
      <trkpt lat="44.67318" lon="7.06648">
        <ele>2574.1</ele>
        <time>2026-08-31T12:04:44Z</time>
      </trkpt>
      <trkpt lat="44.67318" lon="7.06648">
        <ele>2574.1</ele>
        <time>2026-08-31T12:04:49Z</time>
      </trkpt>
      <trkpt lat="44.67318" lon="7.06648">
        <ele>2574.1</ele>
        <time>2026-08-31T12:04:54Z</time>
      </trkpt>
      <trkpt lat="44.67318" lon="7.06648">
        <ele>2574.1</ele>
        <time>2026-08-31T12:05:00Z</time>
      </trkpt>
      <trkpt lat="44.67315" lon="7.0664">
        <ele>2573.8</ele>
        <time>2026-08-31T12:05:05Z</time>
      </trkpt>
      <trkpt lat="44.67312" lon="7.06641">
        <ele>2571.8</ele>
        <time>2026-08-31T12:05:10Z</time>
      </trkpt>
      <trkpt lat="44.67312" lon="7.06641">
        <ele>2571.8</ele>
        <time>2026-08-31T12:05:16Z</time>
      </trkpt>
      <trkpt lat="44.67312" lon="7.06641">
        <ele>2571.8</ele>
        <time>2026-08-31T12:05:21Z</time>
      </trkpt>
      <trkpt lat="44.67312" lon="7.06641">
        <ele>2571.8</ele>
        <time>2026-08-31T12:05:26Z</time>
      </trkpt>
      <trkpt lat="44.67312" lon="7.06641">
        <ele>2571.8</ele>
        <time>2026-08-31T12:05:32Z</time>
      </trkpt>
      <trkpt lat="44.67312" lon="7.06641">
        <ele>2571.8</ele>
        <time>2026-08-31T12:05:37Z</time>
      </trkpt>
      <trkpt lat="44.67312" lon="7.06641">
        <ele>2571.8</ele>
        <time>2026-08-31T12:05:42Z</time>
      </trkpt>
      <trkpt lat="44.67312" lon="7.06641">
        <ele>2571.8</ele>
        <time>2026-08-31T12:05:48Z</time>
      </trkpt>
      <trkpt lat="44.67312" lon="7.06641">
        <ele>2571.8</ele>
        <time>2026-08-31T12:05:53Z</time>
      </trkpt>
      <trkpt lat="44.67312" lon="7.06641">
        <ele>2571.8</ele>
        <time>2026-08-31T12:05:58Z</time>
      </trkpt>
      <trkpt lat="44.67312" lon="7.06641">
        <ele>2571.8</ele>
        <time>2026-08-31T12:06:04Z</time>
      </trkpt>
      <trkpt lat="44.67312" lon="7.06641">
        <ele>2571.8</ele>
        <time>2026-08-31T12:06:09Z</time>
      </trkpt>
      <trkpt lat="44.67312" lon="7.06641">
        <ele>2571.8</ele>
        <time>2026-08-31T12:06:14Z</time>
      </trkpt>
      <trkpt lat="44.67312" lon="7.06641">
        <ele>2571.8</ele>
        <time>2026-08-31T12:06:20Z</time>
      </trkpt>
      <trkpt lat="44.67311" lon="7.0665">
        <ele>2569.6</ele>
        <time>2026-08-31T12:06:25Z</time>
      </trkpt>
      <trkpt lat="44.67313" lon="7.06656">
        <ele>2569.7</ele>
        <time>2026-08-31T12:06:30Z</time>
      </trkpt>
      <trkpt lat="44.67314" lon="7.06669">
        <ele>2568.4</ele>
        <time>2026-08-31T12:06:36Z</time>
      </trkpt>
      <trkpt lat="44.67312" lon="7.06669">
        <ele>2567.2</ele>
        <time>2026-08-31T12:06:41Z</time>
      </trkpt>
      <trkpt lat="44.67309" lon="7.06662">
        <ele>2566.2</ele>
        <time>2026-08-31T12:06:46Z</time>
      </trkpt>
      <trkpt lat="44.67308" lon="7.06655">
        <ele>2566.9</ele>
        <time>2026-08-31T12:06:52Z</time>
      </trkpt>
      <trkpt lat="44.67305" lon="7.06652">
        <ele>2565.7</ele>
        <time>2026-08-31T12:06:57Z</time>
      </trkpt>
      <trkpt lat="44.67301" lon="7.06648">
        <ele>2564.1</ele>
        <time>2026-08-31T12:07:02Z</time>
      </trkpt>
      <trkpt lat="44.67298" lon="7.06644">
        <ele>2563.1</ele>
        <time>2026-08-31T12:07:08Z</time>
      </trkpt>
      <trkpt lat="44.67298" lon="7.06644">
        <ele>2563.1</ele>
        <time>2026-08-31T12:07:13Z</time>
      </trkpt>
      <trkpt lat="44.67298" lon="7.06644">
        <ele>2563.1</ele>
        <time>2026-08-31T12:07:18Z</time>
      </trkpt>
      <trkpt lat="44.67298" lon="7.06644">
        <ele>2563.1</ele>
        <time>2026-08-31T12:07:24Z</time>
      </trkpt>
      <trkpt lat="44.67298" lon="7.06644">
        <ele>2563.1</ele>
        <time>2026-08-31T12:07:29Z</time>
      </trkpt>
      <trkpt lat="44.67296" lon="7.06654">
        <ele>2560</ele>
        <time>2026-08-31T12:07:34Z</time>
      </trkpt>
      <trkpt lat="44.67294" lon="7.06657">
        <ele>2558.2</ele>
        <time>2026-08-31T12:07:40Z</time>
      </trkpt>
      <trkpt lat="44.67293" lon="7.06657">
        <ele>2557.6</ele>
        <time>2026-08-31T12:07:45Z</time>
      </trkpt>
      <trkpt lat="44.67291" lon="7.06654">
        <ele>2557</ele>
        <time>2026-08-31T12:07:50Z</time>
      </trkpt>
      <trkpt lat="44.67291" lon="7.0665">
        <ele>2557.8</ele>
        <time>2026-08-31T12:07:56Z</time>
      </trkpt>
      <trkpt lat="44.67288" lon="7.06646">
        <ele>2556.8</ele>
        <time>2026-08-31T12:08:01Z</time>
      </trkpt>
      <trkpt lat="44.67286" lon="7.06644">
        <ele>2556</ele>
        <time>2026-08-31T12:08:06Z</time>
      </trkpt>
      <trkpt lat="44.67286" lon="7.06641">
        <ele>2556.6</ele>
        <time>2026-08-31T12:08:12Z</time>
      </trkpt>
      <trkpt lat="44.67288" lon="7.06635">
        <ele>2558.9</ele>
        <time>2026-08-31T12:08:17Z</time>
      </trkpt>
      <trkpt lat="44.67285" lon="7.06631">
        <ele>2558</ele>
        <time>2026-08-31T12:08:22Z</time>
      </trkpt>
      <trkpt lat="44.67283" lon="7.06626">
        <ele>2557.8</ele>
        <time>2026-08-31T12:08:28Z</time>
      </trkpt>
      <trkpt lat="44.67283" lon="7.06622">
        <ele>2558.6</ele>
        <time>2026-08-31T12:08:33Z</time>
      </trkpt>
      <trkpt lat="44.67282" lon="7.06616">
        <ele>2559.2</ele>
        <time>2026-08-31T12:08:38Z</time>
      </trkpt>
      <trkpt lat="44.67282" lon="7.06609">
        <ele>2560.6</ele>
        <time>2026-08-31T12:08:44Z</time>
      </trkpt>
      <trkpt lat="44.67279" lon="7.0661">
        <ele>2558.7</ele>
        <time>2026-08-31T12:08:49Z</time>
      </trkpt>
      <trkpt lat="44.67278" lon="7.06617">
        <ele>2556.7</ele>
        <time>2026-08-31T12:08:54Z</time>
      </trkpt>
      <trkpt lat="44.67278" lon="7.06624">
        <ele>2555.3</ele>
        <time>2026-08-31T12:09:00Z</time>
      </trkpt>
      <trkpt lat="44.67276" lon="7.06628">
        <ele>2553.4</ele>
        <time>2026-08-31T12:09:05Z</time>
      </trkpt>
      <trkpt lat="44.67278" lon="7.06629">
        <ele>2554.3</ele>
        <time>2026-08-31T12:09:10Z</time>
      </trkpt>
      <trkpt lat="44.67279" lon="7.06636">
        <ele>2553.5</ele>
        <time>2026-08-31T12:09:16Z</time>
      </trkpt>
      <trkpt lat="44.67276" lon="7.06643">
        <ele>2550.4</ele>
        <time>2026-08-31T12:09:21Z</time>
      </trkpt>
      <trkpt lat="44.67273" lon="7.06646">
        <ele>2548</ele>
        <time>2026-08-31T12:09:26Z</time>
      </trkpt>
      <trkpt lat="44.67271" lon="7.06649">
        <ele>2546.2</ele>
        <time>2026-08-31T12:09:32Z</time>
      </trkpt>
      <trkpt lat="44.67271" lon="7.06653">
        <ele>2545.4</ele>
        <time>2026-08-31T12:09:37Z</time>
      </trkpt>
      <trkpt lat="44.67272" lon="7.06658">
        <ele>2545</ele>
        <time>2026-08-31T12:09:42Z</time>
      </trkpt>
      <trkpt lat="44.6727" lon="7.06663">
        <ele>2542.7</ele>
        <time>2026-08-31T12:09:48Z</time>
      </trkpt>
      <trkpt lat="44.67269" lon="7.06661">
        <ele>2542.6</ele>
        <time>2026-08-31T12:09:53Z</time>
      </trkpt>
      <trkpt lat="44.67267" lon="7.06656">
        <ele>2542.4</ele>
        <time>2026-08-31T12:09:58Z</time>
      </trkpt>
      <trkpt lat="44.67266" lon="7.06649">
        <ele>2543.3</ele>
        <time>2026-08-31T12:10:04Z</time>
      </trkpt>
      <trkpt lat="44.67264" lon="7.06644">
        <ele>2543.1</ele>
        <time>2026-08-31T12:10:09Z</time>
      </trkpt>
      <trkpt lat="44.67265" lon="7.0664">
        <ele>2544.5</ele>
        <time>2026-08-31T12:10:14Z</time>
      </trkpt>
      <trkpt lat="44.67265" lon="7.06641">
        <ele>2544.3</ele>
        <time>2026-08-31T12:10:20Z</time>
      </trkpt>
      <trkpt lat="44.67265" lon="7.06641">
        <ele>2544.3</ele>
        <time>2026-08-31T12:10:25Z</time>
      </trkpt>
      <trkpt lat="44.67265" lon="7.06641">
        <ele>2544.3</ele>
        <time>2026-08-31T12:10:30Z</time>
      </trkpt>
      <trkpt lat="44.6725" lon="7.0664">
        <ele>2535.8</ele>
        <time>2026-08-31T12:10:36Z</time>
      </trkpt>
      <trkpt lat="44.67254" lon="7.06644">
        <ele>2537.2</ele>
        <time>2026-08-31T12:10:41Z</time>
      </trkpt>
      <trkpt lat="44.6726" lon="7.06649">
        <ele>2539.7</ele>
        <time>2026-08-31T12:10:46Z</time>
      </trkpt>
      <trkpt lat="44.67263" lon="7.06649">
        <ele>2541.5</ele>
        <time>2026-08-31T12:10:52Z</time>
      </trkpt>
      <trkpt lat="44.67263" lon="7.06645">
        <ele>2542.3</ele>
        <time>2026-08-31T12:10:57Z</time>
      </trkpt>
      <trkpt lat="44.67264" lon="7.06639">
        <ele>2544.2</ele>
        <time>2026-08-31T12:11:02Z</time>
      </trkpt>
      <trkpt lat="44.67264" lon="7.06637">
        <ele>2544.6</ele>
        <time>2026-08-31T12:11:08Z</time>
      </trkpt>
      <trkpt lat="44.67265" lon="7.06633">
        <ele>2546</ele>
        <time>2026-08-31T12:11:13Z</time>
      </trkpt>
      <trkpt lat="44.67265" lon="7.06629">
        <ele>2546.8</ele>
        <time>2026-08-31T12:11:18Z</time>
      </trkpt>
      <trkpt lat="44.67263" lon="7.06626">
        <ele>2546.3</ele>
        <time>2026-08-31T12:11:24Z</time>
      </trkpt>
      <trkpt lat="44.67262" lon="7.06623">
        <ele>2546.3</ele>
        <time>2026-08-31T12:11:29Z</time>
      </trkpt>
      <trkpt lat="44.67261" lon="7.0662">
        <ele>2546.4</ele>
        <time>2026-08-31T12:11:34Z</time>
      </trkpt>
      <trkpt lat="44.67255" lon="7.0662">
        <ele>2542.9</ele>
        <time>2026-08-31T12:11:40Z</time>
      </trkpt>
      <trkpt lat="44.67254" lon="7.06623">
        <ele>2541.7</ele>
        <time>2026-08-31T12:11:45Z</time>
      </trkpt>
      <trkpt lat="44.67255" lon="7.06626">
        <ele>2541.7</ele>
        <time>2026-08-31T12:11:50Z</time>
      </trkpt>
      <trkpt lat="44.67255" lon="7.06629">
        <ele>2541</ele>
        <time>2026-08-31T12:11:56Z</time>
      </trkpt>
      <trkpt lat="44.67255" lon="7.06629">
        <ele>2541</ele>
        <time>2026-08-31T12:12:01Z</time>
      </trkpt>
      <trkpt lat="44.67255" lon="7.06629">
        <ele>2541</ele>
        <time>2026-08-31T12:12:06Z</time>
      </trkpt>
      <trkpt lat="44.6725" lon="7.06633">
        <ele>2537.3</ele>
        <time>2026-08-31T12:12:12Z</time>
      </trkpt>
      <trkpt lat="44.6725" lon="7.06633">
        <ele>2537.3</ele>
        <time>2026-08-31T12:12:17Z</time>
      </trkpt>
      <trkpt lat="44.6725" lon="7.06633">
        <ele>2537.3</ele>
        <time>2026-08-31T12:12:22Z</time>
      </trkpt>
      <trkpt lat="44.6725" lon="7.06633">
        <ele>2537.3</ele>
        <time>2026-08-31T12:12:28Z</time>
      </trkpt>
      <trkpt lat="44.6725" lon="7.06633">
        <ele>2537.3</ele>
        <time>2026-08-31T12:12:33Z</time>
      </trkpt>
      <trkpt lat="44.6725" lon="7.06633">
        <ele>2537.3</ele>
        <time>2026-08-31T12:12:38Z</time>
      </trkpt>
      <trkpt lat="44.6725" lon="7.06633">
        <ele>2537.3</ele>
        <time>2026-08-31T12:12:44Z</time>
      </trkpt>
      <trkpt lat="44.6725" lon="7.06633">
        <ele>2537.3</ele>
        <time>2026-08-31T12:12:49Z</time>
      </trkpt>
      <trkpt lat="44.6725" lon="7.06633">
        <ele>2537.3</ele>
        <time>2026-08-31T12:12:54Z</time>
      </trkpt>
      <trkpt lat="44.6725" lon="7.06633">
        <ele>2537.3</ele>
        <time>2026-08-31T12:13:00Z</time>
      </trkpt>
      <trkpt lat="44.6725" lon="7.06633">
        <ele>2537.3</ele>
        <time>2026-08-31T12:13:05Z</time>
      </trkpt>
      <trkpt lat="44.6725" lon="7.06633">
        <ele>2537.3</ele>
        <time>2026-08-31T12:13:10Z</time>
      </trkpt>
      <trkpt lat="44.6725" lon="7.06633">
        <ele>2537.3</ele>
        <time>2026-08-31T12:13:16Z</time>
      </trkpt>
      <trkpt lat="44.6725" lon="7.06633">
        <ele>2537.3</ele>
        <time>2026-08-31T12:13:21Z</time>
      </trkpt>
      <trkpt lat="44.6725" lon="7.06633">
        <ele>2537.3</ele>
        <time>2026-08-31T12:13:26Z</time>
      </trkpt>
      <trkpt lat="44.67242" lon="7.06626">
        <ele>2535.2</ele>
        <time>2026-08-31T12:13:32Z</time>
      </trkpt>
      <trkpt lat="44.67242" lon="7.06626">
        <ele>2535.2</ele>
        <time>2026-08-31T12:13:37Z</time>
      </trkpt>
      <trkpt lat="44.67242" lon="7.06626">
        <ele>2535.2</ele>
        <time>2026-08-31T12:13:42Z</time>
      </trkpt>
      <trkpt lat="44.67242" lon="7.06626">
        <ele>2535.2</ele>
        <time>2026-08-31T12:13:48Z</time>
      </trkpt>
      <trkpt lat="44.67234" lon="7.06625">
        <ele>2531.9</ele>
        <time>2026-08-31T12:13:53Z</time>
      </trkpt>
      <trkpt lat="44.67232" lon="7.06623">
        <ele>2531.5</ele>
        <time>2026-08-31T12:13:58Z</time>
      </trkpt>
      <trkpt lat="44.67229" lon="7.06617">
        <ele>2531.6</ele>
        <time>2026-08-31T12:14:04Z</time>
      </trkpt>
      <trkpt lat="44.67228" lon="7.06614">
        <ele>2532</ele>
        <time>2026-08-31T12:14:09Z</time>
      </trkpt>
      <trkpt lat="44.67225" lon="7.06612">
        <ele>2531.2</ele>
        <time>2026-08-31T12:14:14Z</time>
      </trkpt>
      <trkpt lat="44.67221" lon="7.06607">
        <ele>2530.8</ele>
        <time>2026-08-31T12:14:20Z</time>
      </trkpt>
      <trkpt lat="44.67218" lon="7.06607">
        <ele>2529.5</ele>
        <time>2026-08-31T12:14:25Z</time>
      </trkpt>
      <trkpt lat="44.67215" lon="7.06606">
        <ele>2528.5</ele>
        <time>2026-08-31T12:14:30Z</time>
      </trkpt>
      <trkpt lat="44.67213" lon="7.06604">
        <ele>2528.2</ele>
        <time>2026-08-31T12:14:36Z</time>
      </trkpt>
      <trkpt lat="44.67213" lon="7.066">
        <ele>2529.3</ele>
        <time>2026-08-31T12:14:41Z</time>
      </trkpt>
      <trkpt lat="44.67211" lon="7.06598">
        <ele>2529</ele>
        <time>2026-08-31T12:14:46Z</time>
      </trkpt>
      <trkpt lat="44.6721" lon="7.06601">
        <ele>2527.8</ele>
        <time>2026-08-31T12:14:52Z</time>
      </trkpt>
      <trkpt lat="44.67209" lon="7.06602">
        <ele>2527.1</ele>
        <time>2026-08-31T12:14:57Z</time>
      </trkpt>
      <trkpt lat="44.67205" lon="7.06604">
        <ele>2524.9</ele>
        <time>2026-08-31T12:15:02Z</time>
      </trkpt>
      <trkpt lat="44.672" lon="7.06604">
        <ele>2522.8</ele>
        <time>2026-08-31T12:15:08Z</time>
      </trkpt>
      <trkpt lat="44.67199" lon="7.06601">
        <ele>2523.3</ele>
        <time>2026-08-31T12:15:13Z</time>
      </trkpt>
      <trkpt lat="44.67197" lon="7.066">
        <ele>2522.8</ele>
        <time>2026-08-31T12:15:18Z</time>
      </trkpt>
      <trkpt lat="44.67195" lon="7.06603">
        <ele>2521.1</ele>
        <time>2026-08-31T12:15:24Z</time>
      </trkpt>
      <trkpt lat="44.67191" lon="7.06607">
        <ele>2518.2</ele>
        <time>2026-08-31T12:15:29Z</time>
      </trkpt>
      <trkpt lat="44.67188" lon="7.06606">
        <ele>2517.3</ele>
        <time>2026-08-31T12:15:34Z</time>
      </trkpt>
      <trkpt lat="44.6719" lon="7.06601">
        <ele>2519.6</ele>
        <time>2026-08-31T12:15:40Z</time>
      </trkpt>
      <trkpt lat="44.67192" lon="7.06596">
        <ele>2521.9</ele>
        <time>2026-08-31T12:15:45Z</time>
      </trkpt>
      <trkpt lat="44.67189" lon="7.06593">
        <ele>2521.6</ele>
        <time>2026-08-31T12:15:50Z</time>
      </trkpt>
      <trkpt lat="44.67187" lon="7.06592">
        <ele>2521.1</ele>
        <time>2026-08-31T12:15:56Z</time>
      </trkpt>
      <trkpt lat="44.67183" lon="7.0659">
        <ele>2520.2</ele>
        <time>2026-08-31T12:16:01Z</time>
      </trkpt>
      <trkpt lat="44.6718" lon="7.06588">
        <ele>2519.6</ele>
        <time>2026-08-31T12:16:06Z</time>
      </trkpt>
      <trkpt lat="44.67175" lon="7.06586">
        <ele>2518.3</ele>
        <time>2026-08-31T12:16:12Z</time>
      </trkpt>
      <trkpt lat="44.67173" lon="7.06578">
        <ele>2519.6</ele>
        <time>2026-08-31T12:16:17Z</time>
      </trkpt>
      <trkpt lat="44.67174" lon="7.0657">
        <ele>2521.8</ele>
        <time>2026-08-31T12:16:22Z</time>
      </trkpt>
      <trkpt lat="44.67173" lon="7.06566">
        <ele>2522.3</ele>
        <time>2026-08-31T12:16:28Z</time>
      </trkpt>
      <trkpt lat="44.67172" lon="7.0656">
        <ele>2523.2</ele>
        <time>2026-08-31T12:16:33Z</time>
      </trkpt>
      <trkpt lat="44.67169" lon="7.06553">
        <ele>2523.5</ele>
        <time>2026-08-31T12:16:38Z</time>
      </trkpt>
      <trkpt lat="44.67168" lon="7.06543">
        <ele>2525.3</ele>
        <time>2026-08-31T12:16:44Z</time>
      </trkpt>
      <trkpt lat="44.67166" lon="7.06537">
        <ele>2525.7</ele>
        <time>2026-08-31T12:16:49Z</time>
      </trkpt>
      <trkpt lat="44.67164" lon="7.06531">
        <ele>2526.2</ele>
        <time>2026-08-31T12:16:54Z</time>
      </trkpt>
      <trkpt lat="44.6716" lon="7.06529">
        <ele>2524.9</ele>
        <time>2026-08-31T12:17:00Z</time>
      </trkpt>
      <trkpt lat="44.6716" lon="7.06529">
        <ele>2524.9</ele>
        <time>2026-08-31T12:17:05Z</time>
      </trkpt>
      <trkpt lat="44.6716" lon="7.06529">
        <ele>2524.9</ele>
        <time>2026-08-31T12:17:10Z</time>
      </trkpt>
      <trkpt lat="44.6716" lon="7.06529">
        <ele>2524.9</ele>
        <time>2026-08-31T12:17:16Z</time>
      </trkpt>
      <trkpt lat="44.6716" lon="7.06529">
        <ele>2524.9</ele>
        <time>2026-08-31T12:17:21Z</time>
      </trkpt>
      <trkpt lat="44.67156" lon="7.06523">
        <ele>2524.5</ele>
        <time>2026-08-31T12:17:26Z</time>
      </trkpt>
      <trkpt lat="44.67152" lon="7.06517">
        <ele>2524.1</ele>
        <time>2026-08-31T12:17:32Z</time>
      </trkpt>
      <trkpt lat="44.67148" lon="7.06512">
        <ele>2523.5</ele>
        <time>2026-08-31T12:17:37Z</time>
      </trkpt>
      <trkpt lat="44.67144" lon="7.06514">
        <ele>2521.4</ele>
        <time>2026-08-31T12:17:42Z</time>
      </trkpt>
      <trkpt lat="44.67137" lon="7.06511">
        <ele>2519.1</ele>
        <time>2026-08-31T12:17:48Z</time>
      </trkpt>
      <trkpt lat="44.67135" lon="7.0651">
        <ele>2518.4</ele>
        <time>2026-08-31T12:17:53Z</time>
      </trkpt>
      <trkpt lat="44.67135" lon="7.0651">
        <ele>2518.4</ele>
        <time>2026-08-31T12:17:58Z</time>
      </trkpt>
      <trkpt lat="44.67135" lon="7.06508">
        <ele>2518.9</ele>
        <time>2026-08-31T12:18:04Z</time>
      </trkpt>
      <trkpt lat="44.67132" lon="7.06502">
        <ele>2519</ele>
        <time>2026-08-31T12:18:09Z</time>
      </trkpt>
      <trkpt lat="44.6713" lon="7.06499">
        <ele>2519.1</ele>
        <time>2026-08-31T12:18:14Z</time>
      </trkpt>
      <trkpt lat="44.67129" lon="7.065">
        <ele>2518.2</ele>
        <time>2026-08-31T12:18:20Z</time>
      </trkpt>
      <trkpt lat="44.67129" lon="7.065">
        <ele>2518.2</ele>
        <time>2026-08-31T12:18:25Z</time>
      </trkpt>
      <trkpt lat="44.67129" lon="7.06499">
        <ele>2518.7</ele>
        <time>2026-08-31T12:18:30Z</time>
      </trkpt>
      <trkpt lat="44.67126" lon="7.06498">
        <ele>2517.9</ele>
        <time>2026-08-31T12:18:36Z</time>
      </trkpt>
      <trkpt lat="44.67121" lon="7.06496">
        <ele>2516.8</ele>
        <time>2026-08-31T12:18:41Z</time>
      </trkpt>
      <trkpt lat="44.67116" lon="7.06493">
        <ele>2516.3</ele>
        <time>2026-08-31T12:18:46Z</time>
      </trkpt>
      <trkpt lat="44.67111" lon="7.06486">
        <ele>2518</ele>
        <time>2026-08-31T12:18:52Z</time>
      </trkpt>
      <trkpt lat="44.67106" lon="7.06484">
        <ele>2517.1</ele>
        <time>2026-08-31T12:18:57Z</time>
      </trkpt>
      <trkpt lat="44.671" lon="7.06482">
        <ele>2515.9</ele>
        <time>2026-08-31T12:19:02Z</time>
      </trkpt>
      <trkpt lat="44.67093" lon="7.06478">
        <ele>2515.5</ele>
        <time>2026-08-31T12:19:08Z</time>
      </trkpt>
      <trkpt lat="44.67087" lon="7.06477">
        <ele>2513.9</ele>
        <time>2026-08-31T12:19:13Z</time>
      </trkpt>
      <trkpt lat="44.67083" lon="7.06471">
        <ele>2515.9</ele>
        <time>2026-08-31T12:19:18Z</time>
      </trkpt>
      <trkpt lat="44.67077" lon="7.06469">
        <ele>2514.1</ele>
        <time>2026-08-31T12:19:24Z</time>
      </trkpt>
      <trkpt lat="44.67074" lon="7.06469">
        <ele>2512.7</ele>
        <time>2026-08-31T12:19:29Z</time>
      </trkpt>
      <trkpt lat="44.6707" lon="7.0647">
        <ele>2510.1</ele>
        <time>2026-08-31T12:19:34Z</time>
      </trkpt>
      <trkpt lat="44.67063" lon="7.06473">
        <ele>2504.9</ele>
        <time>2026-08-31T12:19:40Z</time>
      </trkpt>
      <trkpt lat="44.67059" lon="7.06473">
        <ele>2502.9</ele>
        <time>2026-08-31T12:19:45Z</time>
      </trkpt>
      <trkpt lat="44.67052" lon="7.06474">
        <ele>2498.8</ele>
        <time>2026-08-31T12:19:50Z</time>
      </trkpt>
      <trkpt lat="44.67046" lon="7.06477">
        <ele>2494</ele>
        <time>2026-08-31T12:19:56Z</time>
      </trkpt>
      <trkpt lat="44.67043" lon="7.06477">
        <ele>2492.5</ele>
        <time>2026-08-31T12:20:01Z</time>
      </trkpt>
      <trkpt lat="44.6704" lon="7.06476">
        <ele>2491.7</ele>
        <time>2026-08-31T12:20:06Z</time>
      </trkpt>
      <trkpt lat="44.67036" lon="7.06475">
        <ele>2490.3</ele>
        <time>2026-08-31T12:20:12Z</time>
      </trkpt>
      <trkpt lat="44.67034" lon="7.06475">
        <ele>2489.3</ele>
        <time>2026-08-31T12:20:17Z</time>
      </trkpt>
      <trkpt lat="44.67033" lon="7.06472">
        <ele>2490.7</ele>
        <time>2026-08-31T12:20:22Z</time>
      </trkpt>
      <trkpt lat="44.67031" lon="7.06471">
        <ele>2490.4</ele>
        <time>2026-08-31T12:20:28Z</time>
      </trkpt>
      <trkpt lat="44.67029" lon="7.06468">
        <ele>2491.3</ele>
        <time>2026-08-31T12:20:33Z</time>
      </trkpt>
      <trkpt lat="44.67028" lon="7.06466">
        <ele>2492.1</ele>
        <time>2026-08-31T12:20:38Z</time>
      </trkpt>
      <trkpt lat="44.67027" lon="7.06466">
        <ele>2491.6</ele>
        <time>2026-08-31T12:20:44Z</time>
      </trkpt>
      <trkpt lat="44.67027" lon="7.06466">
        <ele>2491.6</ele>
        <time>2026-08-31T12:20:49Z</time>
      </trkpt>
      <trkpt lat="44.67027" lon="7.06466">
        <ele>2491.6</ele>
        <time>2026-08-31T12:20:54Z</time>
      </trkpt>
      <trkpt lat="44.67027" lon="7.06466">
        <ele>2491.6</ele>
        <time>2026-08-31T12:21:00Z</time>
      </trkpt>
      <trkpt lat="44.67027" lon="7.06466">
        <ele>2491.6</ele>
        <time>2026-08-31T12:21:05Z</time>
      </trkpt>
      <trkpt lat="44.67025" lon="7.0646">
        <ele>2494.4</ele>
        <time>2026-08-31T12:21:10Z</time>
      </trkpt>
      <trkpt lat="44.67025" lon="7.0646">
        <ele>2494.4</ele>
        <time>2026-08-31T12:21:16Z</time>
      </trkpt>
      <trkpt lat="44.67021" lon="7.06456">
        <ele>2495.1</ele>
        <time>2026-08-31T12:21:21Z</time>
      </trkpt>
      <trkpt lat="44.67019" lon="7.06453">
        <ele>2496.1</ele>
        <time>2026-08-31T12:21:26Z</time>
      </trkpt>
      <trkpt lat="44.67013" lon="7.06452">
        <ele>2493.8</ele>
        <time>2026-08-31T12:21:32Z</time>
      </trkpt>
      <trkpt lat="44.67009" lon="7.0645">
        <ele>2493.3</ele>
        <time>2026-08-31T12:21:37Z</time>
      </trkpt>
      <trkpt lat="44.67005" lon="7.06449">
        <ele>2492</ele>
        <time>2026-08-31T12:21:42Z</time>
      </trkpt>
      <trkpt lat="44.66999" lon="7.06447">
        <ele>2490.6</ele>
        <time>2026-08-31T12:21:48Z</time>
      </trkpt>
      <trkpt lat="44.66997" lon="7.06444">
        <ele>2491.7</ele>
        <time>2026-08-31T12:21:53Z</time>
      </trkpt>
      <trkpt lat="44.66994" lon="7.06445">
        <ele>2489.9</ele>
        <time>2026-08-31T12:21:58Z</time>
      </trkpt>
      <trkpt lat="44.66992" lon="7.06445">
        <ele>2489.1</ele>
        <time>2026-08-31T12:22:04Z</time>
      </trkpt>
      <trkpt lat="44.6699" lon="7.06441">
        <ele>2490.7</ele>
        <time>2026-08-31T12:22:09Z</time>
      </trkpt>
      <trkpt lat="44.66987" lon="7.0644">
        <ele>2490.1</ele>
        <time>2026-08-31T12:22:14Z</time>
      </trkpt>
      <trkpt lat="44.66983" lon="7.06441">
        <ele>2487.8</ele>
        <time>2026-08-31T12:22:20Z</time>
      </trkpt>
      <trkpt lat="44.66979" lon="7.06441">
        <ele>2486.1</ele>
        <time>2026-08-31T12:22:25Z</time>
      </trkpt>
      <trkpt lat="44.66975" lon="7.06437">
        <ele>2486.7</ele>
        <time>2026-08-31T12:22:30Z</time>
      </trkpt>
      <trkpt lat="44.66969" lon="7.06435">
        <ele>2485.2</ele>
        <time>2026-08-31T12:22:36Z</time>
      </trkpt>
      <trkpt lat="44.66967" lon="7.06434">
        <ele>2484.9</ele>
        <time>2026-08-31T12:22:41Z</time>
      </trkpt>
      <trkpt lat="44.66963" lon="7.06432">
        <ele>2484.2</ele>
        <time>2026-08-31T12:22:46Z</time>
      </trkpt>
      <trkpt lat="44.66958" lon="7.06426">
        <ele>2485</ele>
        <time>2026-08-31T12:22:52Z</time>
      </trkpt>
      <trkpt lat="44.66953" lon="7.06425">
        <ele>2483.2</ele>
        <time>2026-08-31T12:22:57Z</time>
      </trkpt>
      <trkpt lat="44.6695" lon="7.06424">
        <ele>2482.2</ele>
        <time>2026-08-31T12:23:02Z</time>
      </trkpt>
      <trkpt lat="44.66946" lon="7.06423">
        <ele>2480.8</ele>
        <time>2026-08-31T12:23:08Z</time>
      </trkpt>
      <trkpt lat="44.66942" lon="7.06421">
        <ele>2479.8</ele>
        <time>2026-08-31T12:23:13Z</time>
      </trkpt>
      <trkpt lat="44.66939" lon="7.0642">
        <ele>2478.8</ele>
        <time>2026-08-31T12:23:18Z</time>
      </trkpt>
      <trkpt lat="44.66937" lon="7.06418">
        <ele>2478.7</ele>
        <time>2026-08-31T12:23:24Z</time>
      </trkpt>
      <trkpt lat="44.66937" lon="7.06418">
        <ele>2478.7</ele>
        <time>2026-08-31T12:23:29Z</time>
      </trkpt>
      <trkpt lat="44.66937" lon="7.06418">
        <ele>2478.7</ele>
        <time>2026-08-31T12:23:34Z</time>
      </trkpt>
      <trkpt lat="44.66937" lon="7.06418">
        <ele>2478.7</ele>
        <time>2026-08-31T12:23:40Z</time>
      </trkpt>
      <trkpt lat="44.66934" lon="7.06419">
        <ele>2476.7</ele>
        <time>2026-08-31T12:23:45Z</time>
      </trkpt>
      <trkpt lat="44.66931" lon="7.06416">
        <ele>2476.7</ele>
        <time>2026-08-31T12:23:50Z</time>
      </trkpt>
      <trkpt lat="44.66928" lon="7.06415">
        <ele>2475.9</ele>
        <time>2026-08-31T12:23:56Z</time>
      </trkpt>
      <trkpt lat="44.66928" lon="7.06411">
        <ele>2478.9</ele>
        <time>2026-08-31T12:24:01Z</time>
      </trkpt>
      <trkpt lat="44.66927" lon="7.06408">
        <ele>2480.7</ele>
        <time>2026-08-31T12:24:06Z</time>
      </trkpt>
      <trkpt lat="44.66921" lon="7.06407">
        <ele>2478.6</ele>
        <time>2026-08-31T12:24:12Z</time>
      </trkpt>
      <trkpt lat="44.66913" lon="7.0641">
        <ele>2472.8</ele>
        <time>2026-08-31T12:24:17Z</time>
      </trkpt>
      <trkpt lat="44.66905" lon="7.06413">
        <ele>2467.5</ele>
        <time>2026-08-31T12:24:22Z</time>
      </trkpt>
      <trkpt lat="44.66897" lon="7.06413">
        <ele>2464.4</ele>
        <time>2026-08-31T12:24:28Z</time>
      </trkpt>
      <trkpt lat="44.66892" lon="7.06413">
        <ele>2462.5</ele>
        <time>2026-08-31T12:24:33Z</time>
      </trkpt>
      <trkpt lat="44.66887" lon="7.06414">
        <ele>2459.9</ele>
        <time>2026-08-31T12:24:38Z</time>
      </trkpt>
      <trkpt lat="44.6688" lon="7.06415">
        <ele>2456.6</ele>
        <time>2026-08-31T12:24:44Z</time>
      </trkpt>
      <trkpt lat="44.66876" lon="7.06415">
        <ele>2455.1</ele>
        <time>2026-08-31T12:24:49Z</time>
      </trkpt>
      <trkpt lat="44.66872" lon="7.06414">
        <ele>2454.3</ele>
        <time>2026-08-31T12:24:54Z</time>
      </trkpt>
      <trkpt lat="44.66868" lon="7.06413">
        <ele>2453.5</ele>
        <time>2026-08-31T12:25:00Z</time>
      </trkpt>
      <trkpt lat="44.66862" lon="7.06412">
        <ele>2451.9</ele>
        <time>2026-08-31T12:25:05Z</time>
      </trkpt>
      <trkpt lat="44.66857" lon="7.06411">
        <ele>2450.7</ele>
        <time>2026-08-31T12:25:10Z</time>
      </trkpt>
      <trkpt lat="44.6685" lon="7.06409">
        <ele>2449.4</ele>
        <time>2026-08-31T12:25:16Z</time>
      </trkpt>
      <trkpt lat="44.66845" lon="7.0641">
        <ele>2446.8</ele>
        <time>2026-08-31T12:25:21Z</time>
      </trkpt>
      <trkpt lat="44.66843" lon="7.06411">
        <ele>2445.4</ele>
        <time>2026-08-31T12:25:26Z</time>
      </trkpt>
      <trkpt lat="44.6684" lon="7.06413">
        <ele>2442.9</ele>
        <time>2026-08-31T12:25:32Z</time>
      </trkpt>
      <trkpt lat="44.66834" lon="7.06413">
        <ele>2440.6</ele>
        <time>2026-08-31T12:25:37Z</time>
      </trkpt>
      <trkpt lat="44.66828" lon="7.06412">
        <ele>2441.9</ele>
        <time>2026-08-31T12:25:42Z</time>
      </trkpt>
      <trkpt lat="44.66823" lon="7.06408">
        <ele>2445.1</ele>
        <time>2026-08-31T12:25:48Z</time>
      </trkpt>
      <trkpt lat="44.66818" lon="7.06406">
        <ele>2447</ele>
        <time>2026-08-31T12:25:53Z</time>
      </trkpt>
      <trkpt lat="44.66818" lon="7.06403">
        <ele>2448.7</ele>
        <time>2026-08-31T12:25:58Z</time>
      </trkpt>
      <trkpt lat="44.66817" lon="7.06402">
        <ele>2449.4</ele>
        <time>2026-08-31T12:26:04Z</time>
      </trkpt>
      <trkpt lat="44.66814" lon="7.06402">
        <ele>2449.8</ele>
        <time>2026-08-31T12:26:09Z</time>
      </trkpt>
      <trkpt lat="44.66814" lon="7.06402">
        <ele>2449.8</ele>
        <time>2026-08-31T12:26:14Z</time>
      </trkpt>
      <trkpt lat="44.66814" lon="7.06402">
        <ele>2449.8</ele>
        <time>2026-08-31T12:26:20Z</time>
      </trkpt>
      <trkpt lat="44.66814" lon="7.06402">
        <ele>2449.8</ele>
        <time>2026-08-31T12:26:25Z</time>
      </trkpt>
      <trkpt lat="44.66807" lon="7.06408">
        <ele>2447.5</ele>
        <time>2026-08-31T12:26:30Z</time>
      </trkpt>
      <trkpt lat="44.66801" lon="7.06404">
        <ele>2450.4</ele>
        <time>2026-08-31T12:26:36Z</time>
      </trkpt>
      <trkpt lat="44.66801" lon="7.06404">
        <ele>2450.4</ele>
        <time>2026-08-31T12:26:41Z</time>
      </trkpt>
      <trkpt lat="44.66801" lon="7.06404">
        <ele>2450.4</ele>
        <time>2026-08-31T12:26:46Z</time>
      </trkpt>
      <trkpt lat="44.66798" lon="7.06406">
        <ele>2449.8</ele>
        <time>2026-08-31T12:26:52Z</time>
      </trkpt>
      <trkpt lat="44.66795" lon="7.06402">
        <ele>2452</ele>
        <time>2026-08-31T12:26:57Z</time>
      </trkpt>
      <trkpt lat="44.66792" lon="7.06404">
        <ele>2451.5</ele>
        <time>2026-08-31T12:27:02Z</time>
      </trkpt>
      <trkpt lat="44.66787" lon="7.06401">
        <ele>2453.4</ele>
        <time>2026-08-31T12:27:08Z</time>
      </trkpt>
      <trkpt lat="44.66782" lon="7.06402">
        <ele>2453.6</ele>
        <time>2026-08-31T12:27:13Z</time>
      </trkpt>
      <trkpt lat="44.66778" lon="7.06398">
        <ele>2455.5</ele>
        <time>2026-08-31T12:27:18Z</time>
      </trkpt>
      <trkpt lat="44.66771" lon="7.06399">
        <ele>2455.9</ele>
        <time>2026-08-31T12:27:24Z</time>
      </trkpt>
      <trkpt lat="44.66766" lon="7.06399">
        <ele>2456.4</ele>
        <time>2026-08-31T12:27:29Z</time>
      </trkpt>
      <trkpt lat="44.66761" lon="7.06399">
        <ele>2456.9</ele>
        <time>2026-08-31T12:27:34Z</time>
      </trkpt>
      <trkpt lat="44.66756" lon="7.06399">
        <ele>2457.4</ele>
        <time>2026-08-31T12:27:40Z</time>
      </trkpt>
      <trkpt lat="44.66754" lon="7.064">
        <ele>2457.4</ele>
        <time>2026-08-31T12:27:45Z</time>
      </trkpt>
      <trkpt lat="44.66751" lon="7.06399">
        <ele>2457.9</ele>
        <time>2026-08-31T12:27:50Z</time>
      </trkpt>
      <trkpt lat="44.66743" lon="7.06402">
        <ele>2455.6</ele>
        <time>2026-08-31T12:27:56Z</time>
      </trkpt>
      <trkpt lat="44.66739" lon="7.06403">
        <ele>2454.5</ele>
        <time>2026-08-31T12:28:01Z</time>
      </trkpt>
      <trkpt lat="44.66733" lon="7.06401">
        <ele>2453.4</ele>
        <time>2026-08-31T12:28:06Z</time>
      </trkpt>
      <trkpt lat="44.66728" lon="7.06401">
        <ele>2452.2</ele>
        <time>2026-08-31T12:28:12Z</time>
      </trkpt>
      <trkpt lat="44.66728" lon="7.06401">
        <ele>2452.2</ele>
        <time>2026-08-31T12:28:17Z</time>
      </trkpt>
      <trkpt lat="44.66728" lon="7.06401">
        <ele>2452.2</ele>
        <time>2026-08-31T12:28:22Z</time>
      </trkpt>
      <trkpt lat="44.66728" lon="7.06401">
        <ele>2452.2</ele>
        <time>2026-08-31T12:28:28Z</time>
      </trkpt>
      <trkpt lat="44.66725" lon="7.06406">
        <ele>2450.7</ele>
        <time>2026-08-31T12:28:33Z</time>
      </trkpt>
      <trkpt lat="44.66723" lon="7.06404">
        <ele>2450.5</ele>
        <time>2026-08-31T12:28:38Z</time>
      </trkpt>
      <trkpt lat="44.66717" lon="7.06401">
        <ele>2449.4</ele>
        <time>2026-08-31T12:28:44Z</time>
      </trkpt>
      <trkpt lat="44.66714" lon="7.06401">
        <ele>2448.7</ele>
        <time>2026-08-31T12:28:49Z</time>
      </trkpt>
      <trkpt lat="44.6671" lon="7.06403">
        <ele>2447.5</ele>
        <time>2026-08-31T12:28:54Z</time>
      </trkpt>
      <trkpt lat="44.66706" lon="7.064">
        <ele>2446.8</ele>
        <time>2026-08-31T12:29:00Z</time>
      </trkpt>
      <trkpt lat="44.66702" lon="7.06402">
        <ele>2445.7</ele>
        <time>2026-08-31T12:29:05Z</time>
      </trkpt>
      <trkpt lat="44.66699" lon="7.06403">
        <ele>2444.9</ele>
        <time>2026-08-31T12:29:10Z</time>
      </trkpt>
      <trkpt lat="44.66693" lon="7.06404">
        <ele>2443.4</ele>
        <time>2026-08-31T12:29:16Z</time>
      </trkpt>
      <trkpt lat="44.66689" lon="7.06405">
        <ele>2442.5</ele>
        <time>2026-08-31T12:29:21Z</time>
      </trkpt>
      <trkpt lat="44.66688" lon="7.06404">
        <ele>2442.3</ele>
        <time>2026-08-31T12:29:26Z</time>
      </trkpt>
      <trkpt lat="44.66685" lon="7.06405">
        <ele>2441.6</ele>
        <time>2026-08-31T12:29:32Z</time>
      </trkpt>
      <trkpt lat="44.66683" lon="7.06406">
        <ele>2441.1</ele>
        <time>2026-08-31T12:29:37Z</time>
      </trkpt>
      <trkpt lat="44.6668" lon="7.06408">
        <ele>2440.4</ele>
        <time>2026-08-31T12:29:42Z</time>
      </trkpt>
      <trkpt lat="44.66675" lon="7.06407">
        <ele>2439.3</ele>
        <time>2026-08-31T12:29:48Z</time>
      </trkpt>
      <trkpt lat="44.66668" lon="7.06404">
        <ele>2437.6</ele>
        <time>2026-08-31T12:29:53Z</time>
      </trkpt>
      <trkpt lat="44.66664" lon="7.06401">
        <ele>2436.5</ele>
        <time>2026-08-31T12:29:58Z</time>
      </trkpt>
      <trkpt lat="44.66663" lon="7.06397">
        <ele>2436</ele>
        <time>2026-08-31T12:30:04Z</time>
      </trkpt>
      <trkpt lat="44.66663" lon="7.06396">
        <ele>2436</ele>
        <time>2026-08-31T12:30:09Z</time>
      </trkpt>
      <trkpt lat="44.6666" lon="7.06399">
        <ele>2435.6</ele>
        <time>2026-08-31T12:30:14Z</time>
      </trkpt>
      <trkpt lat="44.66659" lon="7.06406">
        <ele>2435.9</ele>
        <time>2026-08-31T12:30:20Z</time>
      </trkpt>
      <trkpt lat="44.6666" lon="7.06411">
        <ele>2436.4</ele>
        <time>2026-08-31T12:30:25Z</time>
      </trkpt>
      <trkpt lat="44.6666" lon="7.06412">
        <ele>2436.5</ele>
        <time>2026-08-31T12:30:30Z</time>
      </trkpt>
      <trkpt lat="44.6666" lon="7.06412">
        <ele>2436.5</ele>
        <time>2026-08-31T12:30:36Z</time>
      </trkpt>
      <trkpt lat="44.66654" lon="7.06419">
        <ele>2435.7</ele>
        <time>2026-08-31T12:30:41Z</time>
      </trkpt>
      <trkpt lat="44.66649" lon="7.06425">
        <ele>2434.8</ele>
        <time>2026-08-31T12:30:46Z</time>
      </trkpt>
      <trkpt lat="44.6665" lon="7.06428">
        <ele>2435</ele>
        <time>2026-08-31T12:30:52Z</time>
      </trkpt>
      <trkpt lat="44.66651" lon="7.06431">
        <ele>2435.2</ele>
        <time>2026-08-31T12:30:57Z</time>
      </trkpt>
      <trkpt lat="44.6665" lon="7.06437">
        <ele>2435</ele>
        <time>2026-08-31T12:31:02Z</time>
      </trkpt>
      <trkpt lat="44.6665" lon="7.06438">
        <ele>2435</ele>
        <time>2026-08-31T12:31:08Z</time>
      </trkpt>
      <trkpt lat="44.66648" lon="7.06439">
        <ele>2434.7</ele>
        <time>2026-08-31T12:31:13Z</time>
      </trkpt>
      <trkpt lat="44.66648" lon="7.06439">
        <ele>2434.7</ele>
        <time>2026-08-31T12:31:18Z</time>
      </trkpt>
      <trkpt lat="44.66644" lon="7.06447">
        <ele>2434.2</ele>
        <time>2026-08-31T12:31:24Z</time>
      </trkpt>
      <trkpt lat="44.66641" lon="7.06448">
        <ele>2433.8</ele>
        <time>2026-08-31T12:31:29Z</time>
      </trkpt>
      <trkpt lat="44.66641" lon="7.0645">
        <ele>2433.8</ele>
        <time>2026-08-31T12:31:34Z</time>
      </trkpt>
      <trkpt lat="44.66641" lon="7.0645">
        <ele>2433.8</ele>
        <time>2026-08-31T12:31:40Z</time>
      </trkpt>
      <trkpt lat="44.66641" lon="7.0645">
        <ele>2433.8</ele>
        <time>2026-08-31T12:31:45Z</time>
      </trkpt>
      <trkpt lat="44.66641" lon="7.0645">
        <ele>2433.8</ele>
        <time>2026-08-31T12:31:50Z</time>
      </trkpt>
      <trkpt lat="44.66641" lon="7.0645">
        <ele>2433.8</ele>
        <time>2026-08-31T12:31:56Z</time>
      </trkpt>
      <trkpt lat="44.66641" lon="7.0645">
        <ele>2433.8</ele>
        <time>2026-08-31T12:32:01Z</time>
      </trkpt>
      <trkpt lat="44.6663" lon="7.06451">
        <ele>2432.4</ele>
        <time>2026-08-31T12:32:06Z</time>
      </trkpt>
      <trkpt lat="44.66625" lon="7.06443">
        <ele>2431.4</ele>
        <time>2026-08-31T12:32:12Z</time>
      </trkpt>
      <trkpt lat="44.66623" lon="7.06436">
        <ele>2430.9</ele>
        <time>2026-08-31T12:32:17Z</time>
      </trkpt>
      <trkpt lat="44.6662" lon="7.0643">
        <ele>2430.2</ele>
        <time>2026-08-31T12:32:22Z</time>
      </trkpt>
      <trkpt lat="44.66618" lon="7.06422">
        <ele>2429.5</ele>
        <time>2026-08-31T12:32:28Z</time>
      </trkpt>
      <trkpt lat="44.66612" lon="7.06418">
        <ele>2428.2</ele>
        <time>2026-08-31T12:32:33Z</time>
      </trkpt>
      <trkpt lat="44.6661" lon="7.06416">
        <ele>2427.7</ele>
        <time>2026-08-31T12:32:38Z</time>
      </trkpt>
      <trkpt lat="44.66605" lon="7.06418">
        <ele>2427</ele>
        <time>2026-08-31T12:32:44Z</time>
      </trkpt>
      <trkpt lat="44.66599" lon="7.06423">
        <ele>2426.3</ele>
        <time>2026-08-31T12:32:49Z</time>
      </trkpt>
      <trkpt lat="44.66594" lon="7.06427">
        <ele>2425.8</ele>
        <time>2026-08-31T12:32:54Z</time>
      </trkpt>
      <trkpt lat="44.66588" lon="7.06428">
        <ele>2424.9</ele>
        <time>2026-08-31T12:33:00Z</time>
      </trkpt>
      <trkpt lat="44.66582" lon="7.0643">
        <ele>2424.2</ele>
        <time>2026-08-31T12:33:05Z</time>
      </trkpt>
      <trkpt lat="44.66578" lon="7.06432">
        <ele>2424.1</ele>
        <time>2026-08-31T12:33:10Z</time>
      </trkpt>
      <trkpt lat="44.66571" lon="7.06434">
        <ele>2423.8</ele>
        <time>2026-08-31T12:33:16Z</time>
      </trkpt>
      <trkpt lat="44.66569" lon="7.06436">
        <ele>2423.8</ele>
        <time>2026-08-31T12:33:21Z</time>
      </trkpt>
      <trkpt lat="44.66566" lon="7.06439">
        <ele>2423.9</ele>
        <time>2026-08-31T12:33:26Z</time>
      </trkpt>
      <trkpt lat="44.66565" lon="7.06441">
        <ele>2424.1</ele>
        <time>2026-08-31T12:33:32Z</time>
      </trkpt>
      <trkpt lat="44.66565" lon="7.06441">
        <ele>2424.1</ele>
        <time>2026-08-31T12:33:37Z</time>
      </trkpt>
      <trkpt lat="44.66565" lon="7.06441">
        <ele>2424.1</ele>
        <time>2026-08-31T12:33:42Z</time>
      </trkpt>
      <trkpt lat="44.66565" lon="7.06441">
        <ele>2424.1</ele>
        <time>2026-08-31T12:33:48Z</time>
      </trkpt>
      <trkpt lat="44.66565" lon="7.06441">
        <ele>2424.1</ele>
        <time>2026-08-31T12:33:53Z</time>
      </trkpt>
      <trkpt lat="44.66565" lon="7.06441">
        <ele>2424.1</ele>
        <time>2026-08-31T12:33:58Z</time>
      </trkpt>
      <trkpt lat="44.66565" lon="7.06441">
        <ele>2424.1</ele>
        <time>2026-08-31T12:34:04Z</time>
      </trkpt>
      <trkpt lat="44.66565" lon="7.06441">
        <ele>2424.1</ele>
        <time>2026-08-31T12:34:09Z</time>
      </trkpt>
      <trkpt lat="44.66565" lon="7.06441">
        <ele>2424.1</ele>
        <time>2026-08-31T12:34:14Z</time>
      </trkpt>
      <trkpt lat="44.66565" lon="7.06441">
        <ele>2424.1</ele>
        <time>2026-08-31T12:34:20Z</time>
      </trkpt>
      <trkpt lat="44.66565" lon="7.06441">
        <ele>2424.1</ele>
        <time>2026-08-31T12:34:25Z</time>
      </trkpt>
      <trkpt lat="44.66588" lon="7.06432">
        <ele>2425.2</ele>
        <time>2026-09-01T05:27:47Z</time>
      </trkpt>
      <trkpt lat="44.66585" lon="7.06433">
        <ele>2424.8</ele>
        <time>2026-09-01T05:27:53Z</time>
      </trkpt>
      <trkpt lat="44.66584" lon="7.06432">
        <ele>2424.6</ele>
        <time>2026-09-01T05:27:58Z</time>
      </trkpt>
      <trkpt lat="44.66584" lon="7.06432">
        <ele>2424.6</ele>
        <time>2026-09-01T05:28:03Z</time>
      </trkpt>
      <trkpt lat="44.66584" lon="7.06432">
        <ele>2424.6</ele>
        <time>2026-09-01T05:28:09Z</time>
      </trkpt>
      <trkpt lat="44.66589" lon="7.06433">
        <ele>2425.5</ele>
        <time>2026-09-01T05:28:14Z</time>
      </trkpt>
      <trkpt lat="44.66595" lon="7.06425">
        <ele>2425.8</ele>
        <time>2026-09-01T05:28:19Z</time>
      </trkpt>
      <trkpt lat="44.66598" lon="7.06419">
        <ele>2425.8</ele>
        <time>2026-09-01T05:28:25Z</time>
      </trkpt>
      <trkpt lat="44.66608" lon="7.06413">
        <ele>2426.9</ele>
        <time>2026-09-01T05:28:30Z</time>
      </trkpt>
      <trkpt lat="44.66612" lon="7.06414">
        <ele>2427.8</ele>
        <time>2026-09-01T05:28:35Z</time>
      </trkpt>
      <trkpt lat="44.66612" lon="7.06413">
        <ele>2427.6</ele>
        <time>2026-09-01T05:28:41Z</time>
      </trkpt>
      <trkpt lat="44.66613" lon="7.06409">
        <ele>2427.2</ele>
        <time>2026-09-01T05:28:46Z</time>
      </trkpt>
      <trkpt lat="44.66613" lon="7.06407">
        <ele>2426.9</ele>
        <time>2026-09-01T05:28:51Z</time>
      </trkpt>
      <trkpt lat="44.66613" lon="7.064">
        <ele>2425.9</ele>
        <time>2026-09-01T05:28:57Z</time>
      </trkpt>
      <trkpt lat="44.66614" lon="7.06397">
        <ele>2425.7</ele>
        <time>2026-09-01T05:29:02Z</time>
      </trkpt>
      <trkpt lat="44.66614" lon="7.06393">
        <ele>2425.1</ele>
        <time>2026-09-01T05:29:07Z</time>
      </trkpt>
      <trkpt lat="44.66613" lon="7.06391">
        <ele>2424.6</ele>
        <time>2026-09-01T05:29:13Z</time>
      </trkpt>
      <trkpt lat="44.66611" lon="7.06391">
        <ele>2424.2</ele>
        <time>2026-09-01T05:29:18Z</time>
      </trkpt>
      <trkpt lat="44.6661" lon="7.06391">
        <ele>2424</ele>
        <time>2026-09-01T05:29:23Z</time>
      </trkpt>
      <trkpt lat="44.6661" lon="7.06391">
        <ele>2424</ele>
        <time>2026-09-01T05:29:29Z</time>
      </trkpt>
      <trkpt lat="44.6661" lon="7.06391">
        <ele>2424</ele>
        <time>2026-09-01T05:29:34Z</time>
      </trkpt>
      <trkpt lat="44.66601" lon="7.0639">
        <ele>2421.8</ele>
        <time>2026-09-01T05:29:39Z</time>
      </trkpt>
      <trkpt lat="44.666" lon="7.06385">
        <ele>2420.8</ele>
        <time>2026-09-01T05:29:45Z</time>
      </trkpt>
      <trkpt lat="44.666" lon="7.06379">
        <ele>2419.8</ele>
        <time>2026-09-01T05:29:50Z</time>
      </trkpt>
      <trkpt lat="44.666" lon="7.06377">
        <ele>2419.4</ele>
        <time>2026-09-01T05:29:55Z</time>
      </trkpt>
      <trkpt lat="44.666" lon="7.06376">
        <ele>2419.3</ele>
        <time>2026-09-01T05:30:01Z</time>
      </trkpt>
      <trkpt lat="44.666" lon="7.06376">
        <ele>2419.3</ele>
        <time>2026-09-01T05:30:06Z</time>
      </trkpt>
      <trkpt lat="44.666" lon="7.06376">
        <ele>2419.3</ele>
        <time>2026-09-01T05:30:11Z</time>
      </trkpt>
      <trkpt lat="44.666" lon="7.06376">
        <ele>2419.3</ele>
        <time>2026-09-01T05:30:17Z</time>
      </trkpt>
      <trkpt lat="44.666" lon="7.06376">
        <ele>2419.3</ele>
        <time>2026-09-01T05:30:22Z</time>
      </trkpt>
      <trkpt lat="44.666" lon="7.06376">
        <ele>2419.3</ele>
        <time>2026-09-01T05:30:27Z</time>
      </trkpt>
      <trkpt lat="44.666" lon="7.06376">
        <ele>2419.3</ele>
        <time>2026-09-01T05:30:33Z</time>
      </trkpt>
      <trkpt lat="44.666" lon="7.06376">
        <ele>2419.3</ele>
        <time>2026-09-01T05:30:38Z</time>
      </trkpt>
      <trkpt lat="44.666" lon="7.06376">
        <ele>2419.3</ele>
        <time>2026-09-01T05:30:43Z</time>
      </trkpt>
      <trkpt lat="44.666" lon="7.06376">
        <ele>2419.3</ele>
        <time>2026-09-01T05:30:49Z</time>
      </trkpt>
      <trkpt lat="44.666" lon="7.06376">
        <ele>2419.3</ele>
        <time>2026-09-01T05:30:54Z</time>
      </trkpt>
      <trkpt lat="44.666" lon="7.06376">
        <ele>2419.3</ele>
        <time>2026-09-01T05:30:59Z</time>
      </trkpt>
      <trkpt lat="44.666" lon="7.06376">
        <ele>2419.3</ele>
        <time>2026-09-01T05:31:05Z</time>
      </trkpt>
      <trkpt lat="44.66602" lon="7.06374">
        <ele>2419.4</ele>
        <time>2026-09-01T05:31:10Z</time>
      </trkpt>
      <trkpt lat="44.66602" lon="7.06369">
        <ele>2418.6</ele>
        <time>2026-09-01T05:31:15Z</time>
      </trkpt>
      <trkpt lat="44.66601" lon="7.06361">
        <ele>2417</ele>
        <time>2026-09-01T05:31:21Z</time>
      </trkpt>
      <trkpt lat="44.66601" lon="7.06355">
        <ele>2416.1</ele>
        <time>2026-09-01T05:31:26Z</time>
      </trkpt>
      <trkpt lat="44.666" lon="7.06351">
        <ele>2415.1</ele>
        <time>2026-09-01T05:31:31Z</time>
      </trkpt>
      <trkpt lat="44.66599" lon="7.06348">
        <ele>2414.3</ele>
        <time>2026-09-01T05:31:37Z</time>
      </trkpt>
      <trkpt lat="44.66597" lon="7.06346">
        <ele>2413.4</ele>
        <time>2026-09-01T05:31:42Z</time>
      </trkpt>
      <trkpt lat="44.66597" lon="7.06346">
        <ele>2413.4</ele>
        <time>2026-09-01T05:31:47Z</time>
      </trkpt>
      <trkpt lat="44.66597" lon="7.06346">
        <ele>2413.4</ele>
        <time>2026-09-01T05:31:53Z</time>
      </trkpt>
      <trkpt lat="44.66597" lon="7.06346">
        <ele>2413.4</ele>
        <time>2026-09-01T05:31:58Z</time>
      </trkpt>
      <trkpt lat="44.66597" lon="7.06346">
        <ele>2413.4</ele>
        <time>2026-09-01T05:32:03Z</time>
      </trkpt>
      <trkpt lat="44.66597" lon="7.06346">
        <ele>2413.4</ele>
        <time>2026-09-01T05:32:09Z</time>
      </trkpt>
      <trkpt lat="44.66597" lon="7.06346">
        <ele>2413.4</ele>
        <time>2026-09-01T05:32:14Z</time>
      </trkpt>
      <trkpt lat="44.66597" lon="7.06346">
        <ele>2413.4</ele>
        <time>2026-09-01T05:32:19Z</time>
      </trkpt>
      <trkpt lat="44.66597" lon="7.06346">
        <ele>2413.4</ele>
        <time>2026-09-01T05:32:25Z</time>
      </trkpt>
      <trkpt lat="44.66597" lon="7.06346">
        <ele>2413.4</ele>
        <time>2026-09-01T05:32:30Z</time>
      </trkpt>
      <trkpt lat="44.66597" lon="7.06346">
        <ele>2413.4</ele>
        <time>2026-09-01T05:32:35Z</time>
      </trkpt>
      <trkpt lat="44.66597" lon="7.06346">
        <ele>2413.4</ele>
        <time>2026-09-01T05:32:41Z</time>
      </trkpt>
      <trkpt lat="44.66597" lon="7.06346">
        <ele>2413.4</ele>
        <time>2026-09-01T05:32:46Z</time>
      </trkpt>
      <trkpt lat="44.66597" lon="7.06346">
        <ele>2413.4</ele>
        <time>2026-09-01T05:32:51Z</time>
      </trkpt>
      <trkpt lat="44.66597" lon="7.06346">
        <ele>2413.4</ele>
        <time>2026-09-01T05:32:57Z</time>
      </trkpt>
      <trkpt lat="44.66597" lon="7.06346">
        <ele>2413.4</ele>
        <time>2026-09-01T05:33:02Z</time>
      </trkpt>
      <trkpt lat="44.66597" lon="7.06346">
        <ele>2413.4</ele>
        <time>2026-09-01T05:33:07Z</time>
      </trkpt>
      <trkpt lat="44.66597" lon="7.06346">
        <ele>2413.4</ele>
        <time>2026-09-01T05:33:13Z</time>
      </trkpt>
      <trkpt lat="44.66597" lon="7.06346">
        <ele>2413.4</ele>
        <time>2026-09-01T05:33:18Z</time>
      </trkpt>
      <trkpt lat="44.66597" lon="7.06346">
        <ele>2413.4</ele>
        <time>2026-09-01T05:33:23Z</time>
      </trkpt>
      <trkpt lat="44.66597" lon="7.06346">
        <ele>2413.4</ele>
        <time>2026-09-01T05:33:29Z</time>
      </trkpt>
      <trkpt lat="44.66595" lon="7.06344">
        <ele>2412.5</ele>
        <time>2026-09-01T05:33:34Z</time>
      </trkpt>
      <trkpt lat="44.66591" lon="7.06335">
        <ele>2409.7</ele>
        <time>2026-09-01T05:33:39Z</time>
      </trkpt>
      <trkpt lat="44.66587" lon="7.06323">
        <ele>2407.7</ele>
        <time>2026-09-01T05:33:45Z</time>
      </trkpt>
      <trkpt lat="44.66585" lon="7.06316">
        <ele>2406.6</ele>
        <time>2026-09-01T05:33:50Z</time>
      </trkpt>
      <trkpt lat="44.6658" lon="7.0631">
        <ele>2404.9</ele>
        <time>2026-09-01T05:33:55Z</time>
      </trkpt>
      <trkpt lat="44.66579" lon="7.06308">
        <ele>2404.5</ele>
        <time>2026-09-01T05:34:01Z</time>
      </trkpt>
      <trkpt lat="44.66579" lon="7.06308">
        <ele>2404.5</ele>
        <time>2026-09-01T05:34:06Z</time>
      </trkpt>
      <trkpt lat="44.66576" lon="7.06301">
        <ele>2403.4</ele>
        <time>2026-09-01T05:34:11Z</time>
      </trkpt>
      <trkpt lat="44.66572" lon="7.06292">
        <ele>2401.9</ele>
        <time>2026-09-01T05:34:17Z</time>
      </trkpt>
      <trkpt lat="44.66568" lon="7.06286">
        <ele>2400.5</ele>
        <time>2026-09-01T05:34:22Z</time>
      </trkpt>
      <trkpt lat="44.66563" lon="7.06278">
        <ele>2398.6</ele>
        <time>2026-09-01T05:34:27Z</time>
      </trkpt>
      <trkpt lat="44.66559" lon="7.06269">
        <ele>2396.9</ele>
        <time>2026-09-01T05:34:33Z</time>
      </trkpt>
      <trkpt lat="44.66556" lon="7.06263">
        <ele>2395.6</ele>
        <time>2026-09-01T05:34:38Z</time>
      </trkpt>
      <trkpt lat="44.66553" lon="7.06258">
        <ele>2394.4</ele>
        <time>2026-09-01T05:34:43Z</time>
      </trkpt>
      <trkpt lat="44.66552" lon="7.06258">
        <ele>2394.1</ele>
        <time>2026-09-01T05:34:49Z</time>
      </trkpt>
      <trkpt lat="44.66552" lon="7.06256">
        <ele>2393.9</ele>
        <time>2026-09-01T05:34:54Z</time>
      </trkpt>
      <trkpt lat="44.66547" lon="7.0625">
        <ele>2392</ele>
        <time>2026-09-01T05:34:59Z</time>
      </trkpt>
      <trkpt lat="44.66542" lon="7.0624">
        <ele>2392.5</ele>
        <time>2026-09-01T05:35:05Z</time>
      </trkpt>
      <trkpt lat="44.6654" lon="7.06232">
        <ele>2393.3</ele>
        <time>2026-09-01T05:35:10Z</time>
      </trkpt>
      <trkpt lat="44.66537" lon="7.06229">
        <ele>2393</ele>
        <time>2026-09-01T05:35:15Z</time>
      </trkpt>
      <trkpt lat="44.66534" lon="7.06226">
        <ele>2392.6</ele>
        <time>2026-09-01T05:35:21Z</time>
      </trkpt>
      <trkpt lat="44.66531" lon="7.06223">
        <ele>2392.1</ele>
        <time>2026-09-01T05:35:26Z</time>
      </trkpt>
      <trkpt lat="44.66528" lon="7.06217">
        <ele>2392.2</ele>
        <time>2026-09-01T05:35:31Z</time>
      </trkpt>
      <trkpt lat="44.66525" lon="7.06207">
        <ele>2392.8</ele>
        <time>2026-09-01T05:35:37Z</time>
      </trkpt>
      <trkpt lat="44.66519" lon="7.06204">
        <ele>2391.1</ele>
        <time>2026-09-01T05:35:42Z</time>
      </trkpt>
      <trkpt lat="44.66517" lon="7.06196">
        <ele>2391.6</ele>
        <time>2026-09-01T05:35:47Z</time>
      </trkpt>
      <trkpt lat="44.66515" lon="7.06189">
        <ele>2391.9</ele>
        <time>2026-09-01T05:35:53Z</time>
      </trkpt>
      <trkpt lat="44.66511" lon="7.06184">
        <ele>2391.1</ele>
        <time>2026-09-01T05:35:58Z</time>
      </trkpt>
      <trkpt lat="44.66506" lon="7.06184">
        <ele>2389.2</ele>
        <time>2026-09-01T05:36:03Z</time>
      </trkpt>
      <trkpt lat="44.665" lon="7.06182">
        <ele>2387.2</ele>
        <time>2026-09-01T05:36:09Z</time>
      </trkpt>
      <trkpt lat="44.66498" lon="7.06179">
        <ele>2386.8</ele>
        <time>2026-09-01T05:36:14Z</time>
      </trkpt>
      <trkpt lat="44.66498" lon="7.06179">
        <ele>2386.8</ele>
        <time>2026-09-01T05:36:19Z</time>
      </trkpt>
      <trkpt lat="44.66498" lon="7.06179">
        <ele>2386.8</ele>
        <time>2026-09-01T05:36:25Z</time>
      </trkpt>
      <trkpt lat="44.66499" lon="7.06166">
        <ele>2388.8</ele>
        <time>2026-09-01T05:36:30Z</time>
      </trkpt>
      <trkpt lat="44.665" lon="7.06161">
        <ele>2390.4</ele>
        <time>2026-09-01T05:36:35Z</time>
      </trkpt>
      <trkpt lat="44.66501" lon="7.0616">
        <ele>2391</ele>
        <time>2026-09-01T05:36:41Z</time>
      </trkpt>
      <trkpt lat="44.66501" lon="7.0616">
        <ele>2391</ele>
        <time>2026-09-01T05:36:46Z</time>
      </trkpt>
      <trkpt lat="44.66501" lon="7.0616">
        <ele>2391</ele>
        <time>2026-09-01T05:36:51Z</time>
      </trkpt>
      <trkpt lat="44.665" lon="7.06152">
        <ele>2392.5</ele>
        <time>2026-09-01T05:36:57Z</time>
      </trkpt>
      <trkpt lat="44.66498" lon="7.06148">
        <ele>2392.7</ele>
        <time>2026-09-01T05:37:02Z</time>
      </trkpt>
      <trkpt lat="44.66497" lon="7.06149">
        <ele>2392.1</ele>
        <time>2026-09-01T05:37:07Z</time>
      </trkpt>
      <trkpt lat="44.66497" lon="7.06149">
        <ele>2392.1</ele>
        <time>2026-09-01T05:37:13Z</time>
      </trkpt>
      <trkpt lat="44.66497" lon="7.06149">
        <ele>2392.1</ele>
        <time>2026-09-01T05:37:18Z</time>
      </trkpt>
      <trkpt lat="44.66497" lon="7.06149">
        <ele>2392.1</ele>
        <time>2026-09-01T05:37:23Z</time>
      </trkpt>
      <trkpt lat="44.66497" lon="7.06149">
        <ele>2392.1</ele>
        <time>2026-09-01T05:37:29Z</time>
      </trkpt>
      <trkpt lat="44.66497" lon="7.06149">
        <ele>2392.1</ele>
        <time>2026-09-01T05:37:34Z</time>
      </trkpt>
      <trkpt lat="44.66488" lon="7.06135">
        <ele>2392</ele>
        <time>2026-09-01T05:37:39Z</time>
      </trkpt>
      <trkpt lat="44.66484" lon="7.06128">
        <ele>2392.1</ele>
        <time>2026-09-01T05:37:45Z</time>
      </trkpt>
      <trkpt lat="44.66478" lon="7.06121">
        <ele>2391.3</ele>
        <time>2026-09-01T05:37:50Z</time>
      </trkpt>
      <trkpt lat="44.66472" lon="7.06119">
        <ele>2389.4</ele>
        <time>2026-09-01T05:37:55Z</time>
      </trkpt>
      <trkpt lat="44.6647" lon="7.06117">
        <ele>2389.1</ele>
        <time>2026-09-01T05:38:01Z</time>
      </trkpt>
      <trkpt lat="44.66469" lon="7.06116">
        <ele>2388.9</ele>
        <time>2026-09-01T05:38:06Z</time>
      </trkpt>
      <trkpt lat="44.66469" lon="7.06116">
        <ele>2388.9</ele>
        <time>2026-09-01T05:38:11Z</time>
      </trkpt>
      <trkpt lat="44.66461" lon="7.06111">
        <ele>2386.9</ele>
        <time>2026-09-01T05:38:17Z</time>
      </trkpt>
      <trkpt lat="44.66457" lon="7.0611">
        <ele>2385.6</ele>
        <time>2026-09-01T05:38:22Z</time>
      </trkpt>
      <trkpt lat="44.6645" lon="7.06109">
        <ele>2383</ele>
        <time>2026-09-01T05:38:27Z</time>
      </trkpt>
      <trkpt lat="44.66443" lon="7.06107">
        <ele>2380.6</ele>
        <time>2026-09-01T05:38:33Z</time>
      </trkpt>
      <trkpt lat="44.66436" lon="7.06105">
        <ele>2378.3</ele>
        <time>2026-09-01T05:38:38Z</time>
      </trkpt>
      <trkpt lat="44.6643" lon="7.06099">
        <ele>2377.2</ele>
        <time>2026-09-01T05:38:43Z</time>
      </trkpt>
      <trkpt lat="44.66423" lon="7.06095">
        <ele>2375.2</ele>
        <time>2026-09-01T05:38:49Z</time>
      </trkpt>
      <trkpt lat="44.66419" lon="7.0609">
        <ele>2374.6</ele>
        <time>2026-09-01T05:38:54Z</time>
      </trkpt>
      <trkpt lat="44.66417" lon="7.06087">
        <ele>2374.4</ele>
        <time>2026-09-01T05:38:59Z</time>
      </trkpt>
      <trkpt lat="44.66417" lon="7.06087">
        <ele>2374.4</ele>
        <time>2026-09-01T05:39:05Z</time>
      </trkpt>
      <trkpt lat="44.66416" lon="7.06089">
        <ele>2373.7</ele>
        <time>2026-09-01T05:39:10Z</time>
      </trkpt>
      <trkpt lat="44.66416" lon="7.06089">
        <ele>2373.7</ele>
        <time>2026-09-01T05:39:15Z</time>
      </trkpt>
      <trkpt lat="44.66416" lon="7.06089">
        <ele>2373.7</ele>
        <time>2026-09-01T05:39:21Z</time>
      </trkpt>
      <trkpt lat="44.66416" lon="7.06089">
        <ele>2373.7</ele>
        <time>2026-09-01T05:39:26Z</time>
      </trkpt>
      <trkpt lat="44.66416" lon="7.06089">
        <ele>2373.7</ele>
        <time>2026-09-01T05:39:31Z</time>
      </trkpt>
      <trkpt lat="44.66412" lon="7.06087">
        <ele>2373.5</ele>
        <time>2026-09-01T05:39:37Z</time>
      </trkpt>
      <trkpt lat="44.66411" lon="7.06084">
        <ele>2373.9</ele>
        <time>2026-09-01T05:39:42Z</time>
      </trkpt>
      <trkpt lat="44.66408" lon="7.06082">
        <ele>2374</ele>
        <time>2026-09-01T05:39:47Z</time>
      </trkpt>
      <trkpt lat="44.66407" lon="7.06079">
        <ele>2374.8</ele>
        <time>2026-09-01T05:39:53Z</time>
      </trkpt>
      <trkpt lat="44.66404" lon="7.06076">
        <ele>2375.3</ele>
        <time>2026-09-01T05:39:58Z</time>
      </trkpt>
      <trkpt lat="44.664" lon="7.06072">
        <ele>2376</ele>
        <time>2026-09-01T05:40:03Z</time>
      </trkpt>
      <trkpt lat="44.66394" lon="7.06068">
        <ele>2376.2</ele>
        <time>2026-09-01T05:40:09Z</time>
      </trkpt>
      <trkpt lat="44.6639" lon="7.06063">
        <ele>2377</ele>
        <time>2026-09-01T05:40:14Z</time>
      </trkpt>
      <trkpt lat="44.66385" lon="7.0606">
        <ele>2377.1</ele>
        <time>2026-09-01T05:40:19Z</time>
      </trkpt>
      <trkpt lat="44.6638" lon="7.06055">
        <ele>2377.7</ele>
        <time>2026-09-01T05:40:25Z</time>
      </trkpt>
      <trkpt lat="44.66375" lon="7.06052">
        <ele>2377.6</ele>
        <time>2026-09-01T05:40:30Z</time>
      </trkpt>
      <trkpt lat="44.66371" lon="7.06049">
        <ele>2377.7</ele>
        <time>2026-09-01T05:40:35Z</time>
      </trkpt>
      <trkpt lat="44.66365" lon="7.06043">
        <ele>2378.3</ele>
        <time>2026-09-01T05:40:41Z</time>
      </trkpt>
      <trkpt lat="44.6636" lon="7.06037">
        <ele>2379</ele>
        <time>2026-09-01T05:40:46Z</time>
      </trkpt>
      <trkpt lat="44.66355" lon="7.06035">
        <ele>2378.5</ele>
        <time>2026-09-01T05:40:51Z</time>
      </trkpt>
      <trkpt lat="44.66347" lon="7.06031">
        <ele>2377.8</ele>
        <time>2026-09-01T05:40:57Z</time>
      </trkpt>
      <trkpt lat="44.66341" lon="7.06026">
        <ele>2377.9</ele>
        <time>2026-09-01T05:41:02Z</time>
      </trkpt>
      <trkpt lat="44.66337" lon="7.06023">
        <ele>2377.8</ele>
        <time>2026-09-01T05:41:07Z</time>
      </trkpt>
      <trkpt lat="44.66342" lon="7.06027">
        <ele>2377.8</ele>
        <time>2026-09-01T05:41:13Z</time>
      </trkpt>
      <trkpt lat="44.66346" lon="7.06035">
        <ele>2376.5</ele>
        <time>2026-09-01T05:41:18Z</time>
      </trkpt>
      <trkpt lat="44.66351" lon="7.06041">
        <ele>2375.9</ele>
        <time>2026-09-01T05:41:23Z</time>
      </trkpt>
      <trkpt lat="44.66351" lon="7.06041">
        <ele>2375.9</ele>
        <time>2026-09-01T05:41:29Z</time>
      </trkpt>
      <trkpt lat="44.66347" lon="7.06043">
        <ele>2374.5</ele>
        <time>2026-09-01T05:41:34Z</time>
      </trkpt>
      <trkpt lat="44.66347" lon="7.06045">
        <ele>2373.9</ele>
        <time>2026-09-01T05:41:39Z</time>
      </trkpt>
      <trkpt lat="44.66351" lon="7.06051">
        <ele>2373.1</ele>
        <time>2026-09-01T05:41:45Z</time>
      </trkpt>
      <trkpt lat="44.66355" lon="7.06061">
        <ele>2371</ele>
        <time>2026-09-01T05:41:50Z</time>
      </trkpt>
      <trkpt lat="44.66351" lon="7.06068">
        <ele>2368.3</ele>
        <time>2026-09-01T05:41:55Z</time>
      </trkpt>
      <trkpt lat="44.66346" lon="7.06066">
        <ele>2367.9</ele>
        <time>2026-09-01T05:42:01Z</time>
      </trkpt>
      <trkpt lat="44.66342" lon="7.06065">
        <ele>2367.5</ele>
        <time>2026-09-01T05:42:06Z</time>
      </trkpt>
      <trkpt lat="44.66336" lon="7.06063">
        <ele>2366.9</ele>
        <time>2026-09-01T05:42:11Z</time>
      </trkpt>
      <trkpt lat="44.66334" lon="7.06062">
        <ele>2366.8</ele>
        <time>2026-09-01T05:42:17Z</time>
      </trkpt>
      <trkpt lat="44.66332" lon="7.06061">
        <ele>2366.7</ele>
        <time>2026-09-01T05:42:22Z</time>
      </trkpt>
      <trkpt lat="44.66327" lon="7.06061">
        <ele>2365.8</ele>
        <time>2026-09-01T05:42:27Z</time>
      </trkpt>
      <trkpt lat="44.66322" lon="7.06056">
        <ele>2366.3</ele>
        <time>2026-09-01T05:42:33Z</time>
      </trkpt>
      <trkpt lat="44.66318" lon="7.06054">
        <ele>2366.2</ele>
        <time>2026-09-01T05:42:38Z</time>
      </trkpt>
      <trkpt lat="44.66313" lon="7.06053">
        <ele>2365.6</ele>
        <time>2026-09-01T05:42:43Z</time>
      </trkpt>
      <trkpt lat="44.66307" lon="7.06052">
        <ele>2364.8</ele>
        <time>2026-09-01T05:42:49Z</time>
      </trkpt>
      <trkpt lat="44.66307" lon="7.06052">
        <ele>2364.8</ele>
        <time>2026-09-01T05:42:54Z</time>
      </trkpt>
      <trkpt lat="44.66304" lon="7.06054">
        <ele>2363.8</ele>
        <time>2026-09-01T05:42:59Z</time>
      </trkpt>
      <trkpt lat="44.66297" lon="7.06054">
        <ele>2362.6</ele>
        <time>2026-09-01T05:43:05Z</time>
      </trkpt>
      <trkpt lat="44.66293" lon="7.06055">
        <ele>2361.7</ele>
        <time>2026-09-01T05:43:10Z</time>
      </trkpt>
      <trkpt lat="44.66293" lon="7.06055">
        <ele>2361.7</ele>
        <time>2026-09-01T05:43:15Z</time>
      </trkpt>
      <trkpt lat="44.66293" lon="7.06055">
        <ele>2361.7</ele>
        <time>2026-09-01T05:43:21Z</time>
      </trkpt>
      <trkpt lat="44.66293" lon="7.06055">
        <ele>2361.7</ele>
        <time>2026-09-01T05:43:26Z</time>
      </trkpt>
      <trkpt lat="44.66293" lon="7.06055">
        <ele>2361.7</ele>
        <time>2026-09-01T05:43:31Z</time>
      </trkpt>
      <trkpt lat="44.66293" lon="7.06055">
        <ele>2361.7</ele>
        <time>2026-09-01T05:43:37Z</time>
      </trkpt>
      <trkpt lat="44.66293" lon="7.06055">
        <ele>2361.7</ele>
        <time>2026-09-01T05:43:42Z</time>
      </trkpt>
      <trkpt lat="44.66286" lon="7.0606">
        <ele>2359.2</ele>
        <time>2026-09-01T05:43:47Z</time>
      </trkpt>
      <trkpt lat="44.66281" lon="7.06063">
        <ele>2357.6</ele>
        <time>2026-09-01T05:43:53Z</time>
      </trkpt>
      <trkpt lat="44.66277" lon="7.06068">
        <ele>2355.6</ele>
        <time>2026-09-01T05:43:58Z</time>
      </trkpt>
      <trkpt lat="44.66272" lon="7.06071">
        <ele>2354</ele>
        <time>2026-09-01T05:44:03Z</time>
      </trkpt>
      <trkpt lat="44.66267" lon="7.06074">
        <ele>2352.3</ele>
        <time>2026-09-01T05:44:09Z</time>
      </trkpt>
      <trkpt lat="44.66262" lon="7.0608">
        <ele>2349.9</ele>
        <time>2026-09-01T05:44:14Z</time>
      </trkpt>
      <trkpt lat="44.66257" lon="7.06086">
        <ele>2347.6</ele>
        <time>2026-09-01T05:44:19Z</time>
      </trkpt>
      <trkpt lat="44.66251" lon="7.06092">
        <ele>2345.3</ele>
        <time>2026-09-01T05:44:25Z</time>
      </trkpt>
      <trkpt lat="44.66247" lon="7.06097">
        <ele>2343.6</ele>
        <time>2026-09-01T05:44:30Z</time>
      </trkpt>
      <trkpt lat="44.66242" lon="7.06101">
        <ele>2342</ele>
        <time>2026-09-01T05:44:35Z</time>
      </trkpt>
      <trkpt lat="44.66238" lon="7.06106">
        <ele>2340.4</ele>
        <time>2026-09-01T05:44:41Z</time>
      </trkpt>
      <trkpt lat="44.66231" lon="7.06111">
        <ele>2338.4</ele>
        <time>2026-09-01T05:44:46Z</time>
      </trkpt>
      <trkpt lat="44.66226" lon="7.06107">
        <ele>2338.5</ele>
        <time>2026-09-01T05:44:51Z</time>
      </trkpt>
      <trkpt lat="44.66218" lon="7.06106">
        <ele>2337.5</ele>
        <time>2026-09-01T05:44:57Z</time>
      </trkpt>
      <trkpt lat="44.66214" lon="7.06103">
        <ele>2337.5</ele>
        <time>2026-09-01T05:45:02Z</time>
      </trkpt>
      <trkpt lat="44.66207" lon="7.06101">
        <ele>2336.9</ele>
        <time>2026-09-01T05:45:07Z</time>
      </trkpt>
      <trkpt lat="44.66199" lon="7.06097">
        <ele>2336.5</ele>
        <time>2026-09-01T05:45:13Z</time>
      </trkpt>
      <trkpt lat="44.66192" lon="7.06094">
        <ele>2336</ele>
        <time>2026-09-01T05:45:18Z</time>
      </trkpt>
      <trkpt lat="44.66185" lon="7.06093">
        <ele>2335.1</ele>
        <time>2026-09-01T05:45:23Z</time>
      </trkpt>
      <trkpt lat="44.66178" lon="7.06093">
        <ele>2334.1</ele>
        <time>2026-09-01T05:45:29Z</time>
      </trkpt>
      <trkpt lat="44.66171" lon="7.06095">
        <ele>2332.7</ele>
        <time>2026-09-01T05:45:34Z</time>
      </trkpt>
      <trkpt lat="44.66166" lon="7.06094">
        <ele>2332.1</ele>
        <time>2026-09-01T05:45:39Z</time>
      </trkpt>
      <trkpt lat="44.66159" lon="7.06092">
        <ele>2330.7</ele>
        <time>2026-09-01T05:45:45Z</time>
      </trkpt>
      <trkpt lat="44.66154" lon="7.06092">
        <ele>2329.5</ele>
        <time>2026-09-01T05:45:50Z</time>
      </trkpt>
      <trkpt lat="44.66154" lon="7.06092">
        <ele>2329.5</ele>
        <time>2026-09-01T05:45:55Z</time>
      </trkpt>
      <trkpt lat="44.66151" lon="7.06097">
        <ele>2328</ele>
        <time>2026-09-01T05:46:01Z</time>
      </trkpt>
      <trkpt lat="44.66145" lon="7.06095">
        <ele>2326.9</ele>
        <time>2026-09-01T05:46:06Z</time>
      </trkpt>
      <trkpt lat="44.66141" lon="7.06091">
        <ele>2326.6</ele>
        <time>2026-09-01T05:46:11Z</time>
      </trkpt>
      <trkpt lat="44.66133" lon="7.06086">
        <ele>2325.5</ele>
        <time>2026-09-01T05:46:17Z</time>
      </trkpt>
      <trkpt lat="44.66126" lon="7.06083">
        <ele>2324.3</ele>
        <time>2026-09-01T05:46:22Z</time>
      </trkpt>
      <trkpt lat="44.6612" lon="7.06081">
        <ele>2323.3</ele>
        <time>2026-09-01T05:46:27Z</time>
      </trkpt>
      <trkpt lat="44.66113" lon="7.06078">
        <ele>2322.1</ele>
        <time>2026-09-01T05:46:33Z</time>
      </trkpt>
      <trkpt lat="44.6611" lon="7.06071">
        <ele>2322.8</ele>
        <time>2026-09-01T05:46:38Z</time>
      </trkpt>
      <trkpt lat="44.66103" lon="7.06069">
        <ele>2321.4</ele>
        <time>2026-09-01T05:46:43Z</time>
      </trkpt>
      <trkpt lat="44.66095" lon="7.06065">
        <ele>2320.2</ele>
        <time>2026-09-01T05:46:49Z</time>
      </trkpt>
      <trkpt lat="44.66089" lon="7.0606">
        <ele>2319.6</ele>
        <time>2026-09-01T05:46:54Z</time>
      </trkpt>
      <trkpt lat="44.66085" lon="7.06054">
        <ele>2319.7</ele>
        <time>2026-09-01T05:46:59Z</time>
      </trkpt>
      <trkpt lat="44.66079" lon="7.06052">
        <ele>2318.1</ele>
        <time>2026-09-01T05:47:05Z</time>
      </trkpt>
      <trkpt lat="44.66072" lon="7.06054">
        <ele>2315.3</ele>
        <time>2026-09-01T05:47:10Z</time>
      </trkpt>
      <trkpt lat="44.66066" lon="7.06056">
        <ele>2312.9</ele>
        <time>2026-09-01T05:47:15Z</time>
      </trkpt>
      <trkpt lat="44.66057" lon="7.06051">
        <ele>2310.7</ele>
        <time>2026-09-01T05:47:21Z</time>
      </trkpt>
      <trkpt lat="44.66049" lon="7.06046">
        <ele>2308.8</ele>
        <time>2026-09-01T05:47:26Z</time>
      </trkpt>
      <trkpt lat="44.66042" lon="7.06045">
        <ele>2306.5</ele>
        <time>2026-09-01T05:47:31Z</time>
      </trkpt>
      <trkpt lat="44.66036" lon="7.06046">
        <ele>2304.2</ele>
        <time>2026-09-01T05:47:37Z</time>
      </trkpt>
      <trkpt lat="44.66028" lon="7.06048">
        <ele>2301.1</ele>
        <time>2026-09-01T05:47:42Z</time>
      </trkpt>
      <trkpt lat="44.66023" lon="7.06051">
        <ele>2298.8</ele>
        <time>2026-09-01T05:47:47Z</time>
      </trkpt>
      <trkpt lat="44.66018" lon="7.06055">
        <ele>2296.4</ele>
        <time>2026-09-01T05:47:53Z</time>
      </trkpt>
      <trkpt lat="44.66013" lon="7.06057">
        <ele>2294.3</ele>
        <time>2026-09-01T05:47:58Z</time>
      </trkpt>
      <trkpt lat="44.66007" lon="7.06052">
        <ele>2293.1</ele>
        <time>2026-09-01T05:48:03Z</time>
      </trkpt>
      <trkpt lat="44.66001" lon="7.0605">
        <ele>2291.3</ele>
        <time>2026-09-01T05:48:09Z</time>
      </trkpt>
      <trkpt lat="44.65996" lon="7.06048">
        <ele>2289.9</ele>
        <time>2026-09-01T05:48:14Z</time>
      </trkpt>
      <trkpt lat="44.65991" lon="7.06048">
        <ele>2288</ele>
        <time>2026-09-01T05:48:19Z</time>
      </trkpt>
      <trkpt lat="44.65985" lon="7.06046">
        <ele>2286.1</ele>
        <time>2026-09-01T05:48:25Z</time>
      </trkpt>
      <trkpt lat="44.65981" lon="7.06043">
        <ele>2285.3</ele>
        <time>2026-09-01T05:48:30Z</time>
      </trkpt>
      <trkpt lat="44.65976" lon="7.06039">
        <ele>2284.3</ele>
        <time>2026-09-01T05:48:35Z</time>
      </trkpt>
      <trkpt lat="44.65971" lon="7.06032">
        <ele>2284.1</ele>
        <time>2026-09-01T05:48:41Z</time>
      </trkpt>
      <trkpt lat="44.65968" lon="7.06023">
        <ele>2285.1</ele>
        <time>2026-09-01T05:48:46Z</time>
      </trkpt>
      <trkpt lat="44.65964" lon="7.06016">
        <ele>2285.4</ele>
        <time>2026-09-01T05:48:51Z</time>
      </trkpt>
      <trkpt lat="44.6596" lon="7.06017">
        <ele>2283.9</ele>
        <time>2026-09-01T05:48:57Z</time>
      </trkpt>
      <trkpt lat="44.65962" lon="7.06025">
        <ele>2282.6</ele>
        <time>2026-09-01T05:49:02Z</time>
      </trkpt>
      <trkpt lat="44.65963" lon="7.0603">
        <ele>2281.7</ele>
        <time>2026-09-01T05:49:07Z</time>
      </trkpt>
      <trkpt lat="44.65955" lon="7.06034">
        <ele>2278</ele>
        <time>2026-09-01T05:49:13Z</time>
      </trkpt>
      <trkpt lat="44.65953" lon="7.06033">
        <ele>2277.5</ele>
        <time>2026-09-01T05:49:18Z</time>
      </trkpt>
      <trkpt lat="44.6595" lon="7.06032">
        <ele>2276.7</ele>
        <time>2026-09-01T05:49:23Z</time>
      </trkpt>
      <trkpt lat="44.65948" lon="7.0603">
        <ele>2276.5</ele>
        <time>2026-09-01T05:49:29Z</time>
      </trkpt>
      <trkpt lat="44.65949" lon="7.06022">
        <ele>2279</ele>
        <time>2026-09-01T05:49:34Z</time>
      </trkpt>
      <trkpt lat="44.65948" lon="7.0602">
        <ele>2279.2</ele>
        <time>2026-09-01T05:49:39Z</time>
      </trkpt>
      <trkpt lat="44.65943" lon="7.06017">
        <ele>2278.3</ele>
        <time>2026-09-01T05:49:45Z</time>
      </trkpt>
      <trkpt lat="44.65938" lon="7.06011">
        <ele>2278.3</ele>
        <time>2026-09-01T05:49:50Z</time>
      </trkpt>
      <trkpt lat="44.65933" lon="7.06008">
        <ele>2277.6</ele>
        <time>2026-09-01T05:49:55Z</time>
      </trkpt>
      <trkpt lat="44.65933" lon="7.06011">
        <ele>2276.8</ele>
        <time>2026-09-01T05:50:01Z</time>
      </trkpt>
      <trkpt lat="44.65935" lon="7.0602">
        <ele>2274.8</ele>
        <time>2026-09-01T05:50:06Z</time>
      </trkpt>
      <trkpt lat="44.65934" lon="7.06028">
        <ele>2272.2</ele>
        <time>2026-09-01T05:50:11Z</time>
      </trkpt>
      <trkpt lat="44.65928" lon="7.06021">
        <ele>2272.2</ele>
        <time>2026-09-01T05:50:17Z</time>
      </trkpt>
      <trkpt lat="44.65923" lon="7.0602">
        <ele>2270.9</ele>
        <time>2026-09-01T05:50:22Z</time>
      </trkpt>
      <trkpt lat="44.65917" lon="7.06018">
        <ele>2269.5</ele>
        <time>2026-09-01T05:50:27Z</time>
      </trkpt>
      <trkpt lat="44.6591" lon="7.06016">
        <ele>2268.1</ele>
        <time>2026-09-01T05:50:33Z</time>
      </trkpt>
      <trkpt lat="44.65905" lon="7.06016">
        <ele>2266.6</ele>
        <time>2026-09-01T05:50:38Z</time>
      </trkpt>
      <trkpt lat="44.65903" lon="7.06017">
        <ele>2265.7</ele>
        <time>2026-09-01T05:50:43Z</time>
      </trkpt>
      <trkpt lat="44.6591" lon="7.06027">
        <ele>2264.7</ele>
        <time>2026-09-01T05:50:49Z</time>
      </trkpt>
      <trkpt lat="44.65918" lon="7.06033">
        <ele>2265.2</ele>
        <time>2026-09-01T05:50:54Z</time>
      </trkpt>
      <trkpt lat="44.6591" lon="7.0603">
        <ele>2263.8</ele>
        <time>2026-09-01T05:50:59Z</time>
      </trkpt>
      <trkpt lat="44.65901" lon="7.06034">
        <ele>2260</ele>
        <time>2026-09-01T05:51:05Z</time>
      </trkpt>
      <trkpt lat="44.65899" lon="7.06034">
        <ele>2259.4</ele>
        <time>2026-09-01T05:51:10Z</time>
      </trkpt>
      <trkpt lat="44.65896" lon="7.06034">
        <ele>2258.6</ele>
        <time>2026-09-01T05:51:15Z</time>
      </trkpt>
      <trkpt lat="44.65891" lon="7.06036">
        <ele>2256.6</ele>
        <time>2026-09-01T05:51:21Z</time>
      </trkpt>
      <trkpt lat="44.65887" lon="7.06032">
        <ele>2256.7</ele>
        <time>2026-09-01T05:51:26Z</time>
      </trkpt>
      <trkpt lat="44.6588" lon="7.06035">
        <ele>2253.8</ele>
        <time>2026-09-01T05:51:31Z</time>
      </trkpt>
      <trkpt lat="44.65876" lon="7.06032">
        <ele>2253.6</ele>
        <time>2026-09-01T05:51:37Z</time>
      </trkpt>
      <trkpt lat="44.65873" lon="7.06032">
        <ele>2252.7</ele>
        <time>2026-09-01T05:51:42Z</time>
      </trkpt>
      <trkpt lat="44.65869" lon="7.06031">
        <ele>2251.9</ele>
        <time>2026-09-01T05:51:47Z</time>
      </trkpt>
      <trkpt lat="44.65865" lon="7.06027">
        <ele>2251.9</ele>
        <time>2026-09-01T05:51:53Z</time>
      </trkpt>
      <trkpt lat="44.65862" lon="7.06025">
        <ele>2251.6</ele>
        <time>2026-09-01T05:51:58Z</time>
      </trkpt>
      <trkpt lat="44.65858" lon="7.06024">
        <ele>2250.7</ele>
        <time>2026-09-01T05:52:03Z</time>
      </trkpt>
      <trkpt lat="44.65852" lon="7.06022">
        <ele>2249.6</ele>
        <time>2026-09-01T05:52:09Z</time>
      </trkpt>
      <trkpt lat="44.65848" lon="7.06019">
        <ele>2249.2</ele>
        <time>2026-09-01T05:52:14Z</time>
      </trkpt>
      <trkpt lat="44.65844" lon="7.06018">
        <ele>2248.3</ele>
        <time>2026-09-01T05:52:19Z</time>
      </trkpt>
      <trkpt lat="44.65835" lon="7.06018">
        <ele>2245.7</ele>
        <time>2026-09-01T05:52:25Z</time>
      </trkpt>
      <trkpt lat="44.65829" lon="7.0602">
        <ele>2243.5</ele>
        <time>2026-09-01T05:52:30Z</time>
      </trkpt>
      <trkpt lat="44.65827" lon="7.06019">
        <ele>2243.1</ele>
        <time>2026-09-01T05:52:35Z</time>
      </trkpt>
      <trkpt lat="44.65822" lon="7.06023">
        <ele>2240.6</ele>
        <time>2026-09-01T05:52:41Z</time>
      </trkpt>
      <trkpt lat="44.6582" lon="7.06018">
        <ele>2241.4</ele>
        <time>2026-09-01T05:52:46Z</time>
      </trkpt>
      <trkpt lat="44.65815" lon="7.06019">
        <ele>2239.6</ele>
        <time>2026-09-01T05:52:51Z</time>
      </trkpt>
      <trkpt lat="44.6581" lon="7.06021">
        <ele>2237.7</ele>
        <time>2026-09-01T05:52:57Z</time>
      </trkpt>
      <trkpt lat="44.65808" lon="7.06024">
        <ele>2236.3</ele>
        <time>2026-09-01T05:53:02Z</time>
      </trkpt>
      <trkpt lat="44.65804" lon="7.06028">
        <ele>2234.2</ele>
        <time>2026-09-01T05:53:07Z</time>
      </trkpt>
      <trkpt lat="44.65797" lon="7.06031">
        <ele>2231.4</ele>
        <time>2026-09-01T05:53:13Z</time>
      </trkpt>
      <trkpt lat="44.65792" lon="7.06032">
        <ele>2229.7</ele>
        <time>2026-09-01T05:53:18Z</time>
      </trkpt>
      <trkpt lat="44.65787" lon="7.06034">
        <ele>2227.8</ele>
        <time>2026-09-01T05:53:23Z</time>
      </trkpt>
      <trkpt lat="44.65782" lon="7.06035">
        <ele>2226.1</ele>
        <time>2026-09-01T05:53:29Z</time>
      </trkpt>
      <trkpt lat="44.65777" lon="7.06034">
        <ele>2225</ele>
        <time>2026-09-01T05:53:34Z</time>
      </trkpt>
      <trkpt lat="44.65772" lon="7.06032">
        <ele>2224</ele>
        <time>2026-09-01T05:53:39Z</time>
      </trkpt>
      <trkpt lat="44.65767" lon="7.06033">
        <ele>2222.3</ele>
        <time>2026-09-01T05:53:45Z</time>
      </trkpt>
      <trkpt lat="44.65765" lon="7.06036">
        <ele>2221.1</ele>
        <time>2026-09-01T05:53:50Z</time>
      </trkpt>
      <trkpt lat="44.65758" lon="7.06041">
        <ele>2217.9</ele>
        <time>2026-09-01T05:53:55Z</time>
      </trkpt>
      <trkpt lat="44.65753" lon="7.0604">
        <ele>2216.7</ele>
        <time>2026-09-01T05:54:01Z</time>
      </trkpt>
      <trkpt lat="44.6575" lon="7.06041">
        <ele>2215.7</ele>
        <time>2026-09-01T05:54:06Z</time>
      </trkpt>
      <trkpt lat="44.65748" lon="7.06041">
        <ele>2215.1</ele>
        <time>2026-09-01T05:54:11Z</time>
      </trkpt>
      <trkpt lat="44.65748" lon="7.06039">
        <ele>2215.6</ele>
        <time>2026-09-01T05:54:17Z</time>
      </trkpt>
      <trkpt lat="44.65744" lon="7.06035">
        <ele>2215.5</ele>
        <time>2026-09-01T05:54:22Z</time>
      </trkpt>
      <trkpt lat="44.6574" lon="7.06031">
        <ele>2215.4</ele>
        <time>2026-09-01T05:54:27Z</time>
      </trkpt>
      <trkpt lat="44.65735" lon="7.06024">
        <ele>2215.7</ele>
        <time>2026-09-01T05:54:33Z</time>
      </trkpt>
      <trkpt lat="44.6573" lon="7.0602">
        <ele>2215.3</ele>
        <time>2026-09-01T05:54:38Z</time>
      </trkpt>
      <trkpt lat="44.65724" lon="7.06016">
        <ele>2214.6</ele>
        <time>2026-09-01T05:54:43Z</time>
      </trkpt>
      <trkpt lat="44.65718" lon="7.06013">
        <ele>2213.7</ele>
        <time>2026-09-01T05:54:49Z</time>
      </trkpt>
      <trkpt lat="44.6571" lon="7.06013">
        <ele>2211.6</ele>
        <time>2026-09-01T05:54:54Z</time>
      </trkpt>
      <trkpt lat="44.65702" lon="7.06011">
        <ele>2210</ele>
        <time>2026-09-01T05:54:59Z</time>
      </trkpt>
      <trkpt lat="44.65694" lon="7.06012">
        <ele>2207.7</ele>
        <time>2026-09-01T05:55:05Z</time>
      </trkpt>
      <trkpt lat="44.65687" lon="7.06012">
        <ele>2205.8</ele>
        <time>2026-09-01T05:55:10Z</time>
      </trkpt>
      <trkpt lat="44.65678" lon="7.06009">
        <ele>2204.1</ele>
        <time>2026-09-01T05:55:15Z</time>
      </trkpt>
      <trkpt lat="44.6567" lon="7.06007">
        <ele>2202.4</ele>
        <time>2026-09-01T05:55:21Z</time>
      </trkpt>
      <trkpt lat="44.65664" lon="7.06004">
        <ele>2201.5</ele>
        <time>2026-09-01T05:55:26Z</time>
      </trkpt>
      <trkpt lat="44.6566" lon="7.05996">
        <ele>2202.3</ele>
        <time>2026-09-01T05:55:31Z</time>
      </trkpt>
      <trkpt lat="44.65656" lon="7.05987">
        <ele>2203.6</ele>
        <time>2026-09-01T05:55:37Z</time>
      </trkpt>
      <trkpt lat="44.65648" lon="7.05984">
        <ele>2202.3</ele>
        <time>2026-09-01T05:55:42Z</time>
      </trkpt>
      <trkpt lat="44.65645" lon="7.05978">
        <ele>2203.1</ele>
        <time>2026-09-01T05:55:47Z</time>
      </trkpt>
      <trkpt lat="44.65636" lon="7.05974">
        <ele>2201.7</ele>
        <time>2026-09-01T05:55:53Z</time>
      </trkpt>
      <trkpt lat="44.65629" lon="7.05973">
        <ele>2200.1</ele>
        <time>2026-09-01T05:55:58Z</time>
      </trkpt>
      <trkpt lat="44.65621" lon="7.05972">
        <ele>2198.1</ele>
        <time>2026-09-01T05:56:03Z</time>
      </trkpt>
      <trkpt lat="44.65612" lon="7.05968">
        <ele>2196.7</ele>
        <time>2026-09-01T05:56:09Z</time>
      </trkpt>
      <trkpt lat="44.65605" lon="7.05967">
        <ele>2195.1</ele>
        <time>2026-09-01T05:56:14Z</time>
      </trkpt>
      <trkpt lat="44.65599" lon="7.05966">
        <ele>2193.7</ele>
        <time>2026-09-01T05:56:19Z</time>
      </trkpt>
      <trkpt lat="44.65591" lon="7.05963">
        <ele>2192.3</ele>
        <time>2026-09-01T05:56:25Z</time>
      </trkpt>
      <trkpt lat="44.6559" lon="7.05967">
        <ele>2190.9</ele>
        <time>2026-09-01T05:56:30Z</time>
      </trkpt>
      <trkpt lat="44.65598" lon="7.05974">
        <ele>2191.2</ele>
        <time>2026-09-01T05:56:35Z</time>
      </trkpt>
      <trkpt lat="44.65604" lon="7.05986">
        <ele>2189.6</ele>
        <time>2026-09-01T05:56:41Z</time>
      </trkpt>
      <trkpt lat="44.65611" lon="7.05993">
        <ele>2189.6</ele>
        <time>2026-09-01T05:56:46Z</time>
      </trkpt>
      <trkpt lat="44.65616" lon="7.06">
        <ele>2189</ele>
        <time>2026-09-01T05:56:51Z</time>
      </trkpt>
      <trkpt lat="44.65615" lon="7.06008">
        <ele>2187.7</ele>
        <time>2026-09-01T05:56:57Z</time>
      </trkpt>
      <trkpt lat="44.65607" lon="7.06005">
        <ele>2185.9</ele>
        <time>2026-09-01T05:57:02Z</time>
      </trkpt>
      <trkpt lat="44.656" lon="7.06003">
        <ele>2184.3</ele>
        <time>2026-09-01T05:57:07Z</time>
      </trkpt>
      <trkpt lat="44.65591" lon="7.05999">
        <ele>2182.4</ele>
        <time>2026-09-01T05:57:13Z</time>
      </trkpt>
      <trkpt lat="44.65583" lon="7.05998">
        <ele>2180.5</ele>
        <time>2026-09-01T05:57:18Z</time>
      </trkpt>
      <trkpt lat="44.65574" lon="7.05998">
        <ele>2179.2</ele>
        <time>2026-09-01T05:57:23Z</time>
      </trkpt>
      <trkpt lat="44.65566" lon="7.05999">
        <ele>2177.8</ele>
        <time>2026-09-01T05:57:29Z</time>
      </trkpt>
      <trkpt lat="44.6556" lon="7.05996">
        <ele>2177.7</ele>
        <time>2026-09-01T05:57:34Z</time>
      </trkpt>
      <trkpt lat="44.65554" lon="7.05994">
        <ele>2177.3</ele>
        <time>2026-09-01T05:57:39Z</time>
      </trkpt>
      <trkpt lat="44.65547" lon="7.05993">
        <ele>2176.5</ele>
        <time>2026-09-01T05:57:45Z</time>
      </trkpt>
      <trkpt lat="44.65542" lon="7.05993">
        <ele>2175.7</ele>
        <time>2026-09-01T05:57:50Z</time>
      </trkpt>
      <trkpt lat="44.65537" lon="7.05989">
        <ele>2175.9</ele>
        <time>2026-09-01T05:57:55Z</time>
      </trkpt>
      <trkpt lat="44.65529" lon="7.05989">
        <ele>2174.7</ele>
        <time>2026-09-01T05:58:01Z</time>
      </trkpt>
      <trkpt lat="44.65522" lon="7.05988">
        <ele>2173.8</ele>
        <time>2026-09-01T05:58:06Z</time>
      </trkpt>
      <trkpt lat="44.65518" lon="7.05989">
        <ele>2173</ele>
        <time>2026-09-01T05:58:11Z</time>
      </trkpt>
      <trkpt lat="44.65511" lon="7.05989">
        <ele>2171.9</ele>
        <time>2026-09-01T05:58:17Z</time>
      </trkpt>
      <trkpt lat="44.65506" lon="7.05985">
        <ele>2172</ele>
        <time>2026-09-01T05:58:22Z</time>
      </trkpt>
      <trkpt lat="44.655" lon="7.05987">
        <ele>2170.7</ele>
        <time>2026-09-01T05:58:27Z</time>
      </trkpt>
      <trkpt lat="44.65493" lon="7.05985">
        <ele>2170.1</ele>
        <time>2026-09-01T05:58:33Z</time>
      </trkpt>
      <trkpt lat="44.6549" lon="7.05982">
        <ele>2170.3</ele>
        <time>2026-09-01T05:58:38Z</time>
      </trkpt>
      <trkpt lat="44.65486" lon="7.05984">
        <ele>2169.4</ele>
        <time>2026-09-01T05:58:43Z</time>
      </trkpt>
      <trkpt lat="44.65478" lon="7.05985">
        <ele>2168.1</ele>
        <time>2026-09-01T05:58:49Z</time>
      </trkpt>
      <trkpt lat="44.65471" lon="7.05987">
        <ele>2166.7</ele>
        <time>2026-09-01T05:58:54Z</time>
      </trkpt>
      <trkpt lat="44.65463" lon="7.0599">
        <ele>2164.9</ele>
        <time>2026-09-01T05:58:59Z</time>
      </trkpt>
      <trkpt lat="44.65458" lon="7.05994">
        <ele>2163.3</ele>
        <time>2026-09-01T05:59:05Z</time>
      </trkpt>
      <trkpt lat="44.65452" lon="7.06">
        <ele>2161.1</ele>
        <time>2026-09-01T05:59:10Z</time>
      </trkpt>
      <trkpt lat="44.65447" lon="7.06002">
        <ele>2160.2</ele>
        <time>2026-09-01T05:59:15Z</time>
      </trkpt>
      <trkpt lat="44.65441" lon="7.06005">
        <ele>2159.1</ele>
        <time>2026-09-01T05:59:21Z</time>
      </trkpt>
      <trkpt lat="44.65436" lon="7.06004">
        <ele>2158.5</ele>
        <time>2026-09-01T05:59:26Z</time>
      </trkpt>
      <trkpt lat="44.65433" lon="7.06003">
        <ele>2158.1</ele>
        <time>2026-09-01T05:59:31Z</time>
      </trkpt>
      <trkpt lat="44.65428" lon="7.06011">
        <ele>2156.7</ele>
        <time>2026-09-01T05:59:37Z</time>
      </trkpt>
      <trkpt lat="44.65423" lon="7.06014">
        <ele>2155.7</ele>
        <time>2026-09-01T05:59:42Z</time>
      </trkpt>
      <trkpt lat="44.65416" lon="7.06014">
        <ele>2154.8</ele>
        <time>2026-09-01T05:59:47Z</time>
      </trkpt>
      <trkpt lat="44.6541" lon="7.06014">
        <ele>2154.2</ele>
        <time>2026-09-01T05:59:53Z</time>
      </trkpt>
      <trkpt lat="44.65405" lon="7.06018">
        <ele>2153.3</ele>
        <time>2026-09-01T05:59:58Z</time>
      </trkpt>
      <trkpt lat="44.654" lon="7.06018">
        <ele>2152.9</ele>
        <time>2026-09-01T06:00:03Z</time>
      </trkpt>
      <trkpt lat="44.65394" lon="7.06017">
        <ele>2152.3</ele>
        <time>2026-09-01T06:00:09Z</time>
      </trkpt>
      <trkpt lat="44.65389" lon="7.06017">
        <ele>2151.9</ele>
        <time>2026-09-01T06:00:14Z</time>
      </trkpt>
      <trkpt lat="44.65382" lon="7.06019">
        <ele>2151</ele>
        <time>2026-09-01T06:00:19Z</time>
      </trkpt>
      <trkpt lat="44.65376" lon="7.06021">
        <ele>2150.3</ele>
        <time>2026-09-01T06:00:25Z</time>
      </trkpt>
      <trkpt lat="44.65369" lon="7.06021">
        <ele>2149.7</ele>
        <time>2026-09-01T06:00:30Z</time>
      </trkpt>
      <trkpt lat="44.65361" lon="7.06019">
        <ele>2149</ele>
        <time>2026-09-01T06:00:35Z</time>
      </trkpt>
      <trkpt lat="44.65354" lon="7.06016">
        <ele>2148.5</ele>
        <time>2026-09-01T06:00:41Z</time>
      </trkpt>
      <trkpt lat="44.65347" lon="7.06016">
        <ele>2147.8</ele>
        <time>2026-09-01T06:00:46Z</time>
      </trkpt>
      <trkpt lat="44.6534" lon="7.06016">
        <ele>2147.1</ele>
        <time>2026-09-01T06:00:51Z</time>
      </trkpt>
      <trkpt lat="44.65334" lon="7.06015">
        <ele>2146.5</ele>
        <time>2026-09-01T06:00:57Z</time>
      </trkpt>
      <trkpt lat="44.65329" lon="7.06013">
        <ele>2146.3</ele>
        <time>2026-09-01T06:01:02Z</time>
      </trkpt>
      <trkpt lat="44.65323" lon="7.06014">
        <ele>2145.9</ele>
        <time>2026-09-01T06:01:07Z</time>
      </trkpt>
      <trkpt lat="44.65315" lon="7.06015">
        <ele>2145.4</ele>
        <time>2026-09-01T06:01:13Z</time>
      </trkpt>
      <trkpt lat="44.65307" lon="7.06013">
        <ele>2145</ele>
        <time>2026-09-01T06:01:18Z</time>
      </trkpt>
      <trkpt lat="44.65301" lon="7.06011">
        <ele>2144.6</ele>
        <time>2026-09-01T06:01:23Z</time>
      </trkpt>
      <trkpt lat="44.65293" lon="7.06011">
        <ele>2144.1</ele>
        <time>2026-09-01T06:01:29Z</time>
      </trkpt>
      <trkpt lat="44.65286" lon="7.06015">
        <ele>2143.8</ele>
        <time>2026-09-01T06:01:34Z</time>
      </trkpt>
      <trkpt lat="44.65279" lon="7.06019">
        <ele>2143.4</ele>
        <time>2026-09-01T06:01:39Z</time>
      </trkpt>
      <trkpt lat="44.6527" lon="7.06017">
        <ele>2142.9</ele>
        <time>2026-09-01T06:01:45Z</time>
      </trkpt>
      <trkpt lat="44.65263" lon="7.06017">
        <ele>2142.5</ele>
        <time>2026-09-01T06:01:50Z</time>
      </trkpt>
      <trkpt lat="44.65255" lon="7.06016">
        <ele>2142</ele>
        <time>2026-09-01T06:01:55Z</time>
      </trkpt>
      <trkpt lat="44.65246" lon="7.06013">
        <ele>2141.4</ele>
        <time>2026-09-01T06:02:01Z</time>
      </trkpt>
      <trkpt lat="44.6524" lon="7.06012">
        <ele>2141.1</ele>
        <time>2026-09-01T06:02:06Z</time>
      </trkpt>
      <trkpt lat="44.65237" lon="7.06012">
        <ele>2140.9</ele>
        <time>2026-09-01T06:02:11Z</time>
      </trkpt>
      <trkpt lat="44.6523" lon="7.06013">
        <ele>2140.6</ele>
        <time>2026-09-01T06:02:17Z</time>
      </trkpt>
      <trkpt lat="44.65224" lon="7.06014">
        <ele>2140.4</ele>
        <time>2026-09-01T06:02:22Z</time>
      </trkpt>
      <trkpt lat="44.65216" lon="7.06012">
        <ele>2139.9</ele>
        <time>2026-09-01T06:02:27Z</time>
      </trkpt>
      <trkpt lat="44.65212" lon="7.06008">
        <ele>2139.5</ele>
        <time>2026-09-01T06:02:33Z</time>
      </trkpt>
      <trkpt lat="44.65209" lon="7.06007">
        <ele>2139.3</ele>
        <time>2026-09-01T06:02:38Z</time>
      </trkpt>
      <trkpt lat="44.65202" lon="7.06007">
        <ele>2139</ele>
        <time>2026-09-01T06:02:43Z</time>
      </trkpt>
      <trkpt lat="44.65195" lon="7.06005">
        <ele>2138.6</ele>
        <time>2026-09-01T06:02:49Z</time>
      </trkpt>
      <trkpt lat="44.65188" lon="7.06002">
        <ele>2138.1</ele>
        <time>2026-09-01T06:02:54Z</time>
      </trkpt>
      <trkpt lat="44.65181" lon="7.06002">
        <ele>2137.8</ele>
        <time>2026-09-01T06:02:59Z</time>
      </trkpt>
      <trkpt lat="44.65172" lon="7.06004">
        <ele>2137.4</ele>
        <time>2026-09-01T06:03:05Z</time>
      </trkpt>
      <trkpt lat="44.65166" lon="7.06003">
        <ele>2137.1</ele>
        <time>2026-09-01T06:03:10Z</time>
      </trkpt>
      <trkpt lat="44.65159" lon="7.06004">
        <ele>2137</ele>
        <time>2026-09-01T06:03:15Z</time>
      </trkpt>
      <trkpt lat="44.65152" lon="7.06004">
        <ele>2136.9</ele>
        <time>2026-09-01T06:03:21Z</time>
      </trkpt>
      <trkpt lat="44.65145" lon="7.06002">
        <ele>2136.8</ele>
        <time>2026-09-01T06:03:26Z</time>
      </trkpt>
      <trkpt lat="44.65139" lon="7.06001">
        <ele>2136.7</ele>
        <time>2026-09-01T06:03:31Z</time>
      </trkpt>
      <trkpt lat="44.65129" lon="7.06003">
        <ele>2136.5</ele>
        <time>2026-09-01T06:03:37Z</time>
      </trkpt>
      <trkpt lat="44.65122" lon="7.06005">
        <ele>2136.4</ele>
        <time>2026-09-01T06:03:42Z</time>
      </trkpt>
      <trkpt lat="44.65114" lon="7.06006">
        <ele>2136.2</ele>
        <time>2026-09-01T06:03:47Z</time>
      </trkpt>
      <trkpt lat="44.65106" lon="7.06007">
        <ele>2136</ele>
        <time>2026-09-01T06:03:53Z</time>
      </trkpt>
      <trkpt lat="44.65101" lon="7.06011">
        <ele>2135.8</ele>
        <time>2026-09-01T06:03:58Z</time>
      </trkpt>
      <trkpt lat="44.65095" lon="7.06013">
        <ele>2135.5</ele>
        <time>2026-09-01T06:04:03Z</time>
      </trkpt>
      <trkpt lat="44.65086" lon="7.06012">
        <ele>2135.3</ele>
        <time>2026-09-01T06:04:09Z</time>
      </trkpt>
      <trkpt lat="44.65078" lon="7.06009">
        <ele>2135.6</ele>
        <time>2026-09-01T06:04:14Z</time>
      </trkpt>
      <trkpt lat="44.65071" lon="7.06009">
        <ele>2135.8</ele>
        <time>2026-09-01T06:04:19Z</time>
      </trkpt>
      <trkpt lat="44.65063" lon="7.06013">
        <ele>2135.7</ele>
        <time>2026-09-01T06:04:25Z</time>
      </trkpt>
      <trkpt lat="44.65056" lon="7.06015">
        <ele>2135.7</ele>
        <time>2026-09-01T06:04:30Z</time>
      </trkpt>
      <trkpt lat="44.65049" lon="7.06018">
        <ele>2135.5</ele>
        <time>2026-09-01T06:04:35Z</time>
      </trkpt>
      <trkpt lat="44.65039" lon="7.06021">
        <ele>2135.4</ele>
        <time>2026-09-01T06:04:41Z</time>
      </trkpt>
      <trkpt lat="44.65031" lon="7.06021">
        <ele>2135.5</ele>
        <time>2026-09-01T06:04:46Z</time>
      </trkpt>
      <trkpt lat="44.65024" lon="7.06024">
        <ele>2135.3</ele>
        <time>2026-09-01T06:04:51Z</time>
      </trkpt>
      <trkpt lat="44.65017" lon="7.06028">
        <ele>2134.8</ele>
        <time>2026-09-01T06:04:57Z</time>
      </trkpt>
      <trkpt lat="44.65009" lon="7.0603">
        <ele>2134.6</ele>
        <time>2026-09-01T06:05:02Z</time>
      </trkpt>
      <trkpt lat="44.65001" lon="7.06035">
        <ele>2134</ele>
        <time>2026-09-01T06:05:07Z</time>
      </trkpt>
      <trkpt lat="44.64993" lon="7.06038">
        <ele>2133.9</ele>
        <time>2026-09-01T06:05:13Z</time>
      </trkpt>
      <trkpt lat="44.64985" lon="7.06041">
        <ele>2133.9</ele>
        <time>2026-09-01T06:05:18Z</time>
      </trkpt>
      <trkpt lat="44.64977" lon="7.06043">
        <ele>2134.1</ele>
        <time>2026-09-01T06:05:23Z</time>
      </trkpt>
      <trkpt lat="44.64969" lon="7.06045">
        <ele>2134.3</ele>
        <time>2026-09-01T06:05:29Z</time>
      </trkpt>
      <trkpt lat="44.64961" lon="7.06046">
        <ele>2134.6</ele>
        <time>2026-09-01T06:05:34Z</time>
      </trkpt>
      <trkpt lat="44.64952" lon="7.06049">
        <ele>2134.8</ele>
        <time>2026-09-01T06:05:39Z</time>
      </trkpt>
      <trkpt lat="44.64946" lon="7.06055">
        <ele>2134.5</ele>
        <time>2026-09-01T06:05:45Z</time>
      </trkpt>
      <trkpt lat="44.64946" lon="7.06055">
        <ele>2134.5</ele>
        <time>2026-09-01T06:05:50Z</time>
      </trkpt>
      <trkpt lat="44.64946" lon="7.06055">
        <ele>2134.5</ele>
        <time>2026-09-01T06:05:55Z</time>
      </trkpt>
      <trkpt lat="44.64946" lon="7.06055">
        <ele>2134.5</ele>
        <time>2026-09-01T06:06:01Z</time>
      </trkpt>
      <trkpt lat="44.64946" lon="7.06055">
        <ele>2134.5</ele>
        <time>2026-09-01T06:06:06Z</time>
      </trkpt>
      <trkpt lat="44.64947" lon="7.06062">
        <ele>2133.7</ele>
        <time>2026-09-01T06:06:11Z</time>
      </trkpt>
      <trkpt lat="44.64936" lon="7.06068">
        <ele>2133.9</ele>
        <time>2026-09-01T06:06:17Z</time>
      </trkpt>
      <trkpt lat="44.64927" lon="7.06071">
        <ele>2134.3</ele>
        <time>2026-09-01T06:06:22Z</time>
      </trkpt>
      <trkpt lat="44.64919" lon="7.06079">
        <ele>2134.2</ele>
        <time>2026-09-01T06:06:27Z</time>
      </trkpt>
      <trkpt lat="44.64911" lon="7.06082">
        <ele>2133.6</ele>
        <time>2026-09-01T06:06:33Z</time>
      </trkpt>
      <trkpt lat="44.64902" lon="7.06084">
        <ele>2132.6</ele>
        <time>2026-09-01T06:06:38Z</time>
      </trkpt>
      <trkpt lat="44.64895" lon="7.06086">
        <ele>2132.1</ele>
        <time>2026-09-01T06:06:43Z</time>
      </trkpt>
      <trkpt lat="44.64884" lon="7.06089">
        <ele>2131.2</ele>
        <time>2026-09-01T06:06:49Z</time>
      </trkpt>
      <trkpt lat="44.64878" lon="7.06092">
        <ele>2130.9</ele>
        <time>2026-09-01T06:06:54Z</time>
      </trkpt>
      <trkpt lat="44.64872" lon="7.06096">
        <ele>2130.6</ele>
        <time>2026-09-01T06:06:59Z</time>
      </trkpt>
      <trkpt lat="44.64862" lon="7.06099">
        <ele>2129.8</ele>
        <time>2026-09-01T06:07:05Z</time>
      </trkpt>
      <trkpt lat="44.64854" lon="7.06103">
        <ele>2129.3</ele>
        <time>2026-09-01T06:07:10Z</time>
      </trkpt>
      <trkpt lat="44.64848" lon="7.06108">
        <ele>2129.1</ele>
        <time>2026-09-01T06:07:15Z</time>
      </trkpt>
      <trkpt lat="44.64841" lon="7.06106">
        <ele>2128.3</ele>
        <time>2026-09-01T06:07:21Z</time>
      </trkpt>
      <trkpt lat="44.64835" lon="7.06109">
        <ele>2128</ele>
        <time>2026-09-01T06:07:26Z</time>
      </trkpt>
      <trkpt lat="44.64829" lon="7.0611">
        <ele>2127.3</ele>
        <time>2026-09-01T06:07:31Z</time>
      </trkpt>
      <trkpt lat="44.6482" lon="7.06109">
        <ele>2125.9</ele>
        <time>2026-09-01T06:07:37Z</time>
      </trkpt>
      <trkpt lat="44.64812" lon="7.06109">
        <ele>2124.8</ele>
        <time>2026-09-01T06:07:42Z</time>
      </trkpt>
      <trkpt lat="44.64806" lon="7.06109">
        <ele>2123.9</ele>
        <time>2026-09-01T06:07:47Z</time>
      </trkpt>
      <trkpt lat="44.64798" lon="7.0611">
        <ele>2122.7</ele>
        <time>2026-09-01T06:07:53Z</time>
      </trkpt>
      <trkpt lat="44.64793" lon="7.06103">
        <ele>2121.9</ele>
        <time>2026-09-01T06:07:58Z</time>
      </trkpt>
      <trkpt lat="44.64786" lon="7.06103">
        <ele>2121</ele>
        <time>2026-09-01T06:08:03Z</time>
      </trkpt>
      <trkpt lat="44.64778" lon="7.06105">
        <ele>2119.9</ele>
        <time>2026-09-01T06:08:09Z</time>
      </trkpt>
      <trkpt lat="44.64772" lon="7.06103">
        <ele>2119.1</ele>
        <time>2026-09-01T06:08:14Z</time>
      </trkpt>
      <trkpt lat="44.64765" lon="7.06104">
        <ele>2118.1</ele>
        <time>2026-09-01T06:08:19Z</time>
      </trkpt>
      <trkpt lat="44.64756" lon="7.06108">
        <ele>2116.7</ele>
        <time>2026-09-01T06:08:25Z</time>
      </trkpt>
      <trkpt lat="44.64749" lon="7.06112">
        <ele>2115.5</ele>
        <time>2026-09-01T06:08:30Z</time>
      </trkpt>
      <trkpt lat="44.64744" lon="7.06116">
        <ele>2114.6</ele>
        <time>2026-09-01T06:08:35Z</time>
      </trkpt>
      <trkpt lat="44.64735" lon="7.06118">
        <ele>2113.3</ele>
        <time>2026-09-01T06:08:41Z</time>
      </trkpt>
      <trkpt lat="44.64728" lon="7.06118">
        <ele>2112.3</ele>
        <time>2026-09-01T06:08:46Z</time>
      </trkpt>
      <trkpt lat="44.64721" lon="7.06119">
        <ele>2111.4</ele>
        <time>2026-09-01T06:08:51Z</time>
      </trkpt>
      <trkpt lat="44.64713" lon="7.06118">
        <ele>2110.3</ele>
        <time>2026-09-01T06:08:57Z</time>
      </trkpt>
      <trkpt lat="44.64707" lon="7.06116">
        <ele>2109.5</ele>
        <time>2026-09-01T06:09:02Z</time>
      </trkpt>
      <trkpt lat="44.64702" lon="7.06116">
        <ele>2108.8</ele>
        <time>2026-09-01T06:09:07Z</time>
      </trkpt>
      <trkpt lat="44.64695" lon="7.06116">
        <ele>2107.9</ele>
        <time>2026-09-01T06:09:13Z</time>
      </trkpt>
      <trkpt lat="44.64687" lon="7.06114">
        <ele>2106.8</ele>
        <time>2026-09-01T06:09:18Z</time>
      </trkpt>
      <trkpt lat="44.64681" lon="7.06114">
        <ele>2106</ele>
        <time>2026-09-01T06:09:23Z</time>
      </trkpt>
      <trkpt lat="44.64681" lon="7.06114">
        <ele>2106</ele>
        <time>2026-09-01T06:09:29Z</time>
      </trkpt>
      <trkpt lat="44.64681" lon="7.06116">
        <ele>2106</ele>
        <time>2026-09-01T06:09:34Z</time>
      </trkpt>
      <trkpt lat="44.64675" lon="7.06118">
        <ele>2105.1</ele>
        <time>2026-09-01T06:09:39Z</time>
      </trkpt>
      <trkpt lat="44.64667" lon="7.06118">
        <ele>2104</ele>
        <time>2026-09-01T06:09:45Z</time>
      </trkpt>
      <trkpt lat="44.64665" lon="7.06116">
        <ele>2103.7</ele>
        <time>2026-09-01T06:09:50Z</time>
      </trkpt>
      <trkpt lat="44.64665" lon="7.06116">
        <ele>2103.7</ele>
        <time>2026-09-01T06:09:55Z</time>
      </trkpt>
      <trkpt lat="44.6466" lon="7.06117">
        <ele>2102.6</ele>
        <time>2026-09-01T06:10:01Z</time>
      </trkpt>
      <trkpt lat="44.64654" lon="7.06118">
        <ele>2101.4</ele>
        <time>2026-09-01T06:10:06Z</time>
      </trkpt>
      <trkpt lat="44.64647" lon="7.06124">
        <ele>2100.1</ele>
        <time>2026-09-01T06:10:11Z</time>
      </trkpt>
      <trkpt lat="44.64637" lon="7.06121">
        <ele>2098</ele>
        <time>2026-09-01T06:10:17Z</time>
      </trkpt>
      <trkpt lat="44.64631" lon="7.06117">
        <ele>2096.6</ele>
        <time>2026-09-01T06:10:22Z</time>
      </trkpt>
      <trkpt lat="44.64625" lon="7.06113">
        <ele>2095.1</ele>
        <time>2026-09-01T06:10:27Z</time>
      </trkpt>
      <trkpt lat="44.64619" lon="7.06105">
        <ele>2093.3</ele>
        <time>2026-09-01T06:10:33Z</time>
      </trkpt>
      <trkpt lat="44.64616" lon="7.061">
        <ele>2092.3</ele>
        <time>2026-09-01T06:10:38Z</time>
      </trkpt>
      <trkpt lat="44.6461" lon="7.06093">
        <ele>2090.4</ele>
        <time>2026-09-01T06:10:43Z</time>
      </trkpt>
      <trkpt lat="44.64602" lon="7.06087">
        <ele>2088</ele>
        <time>2026-09-01T06:10:49Z</time>
      </trkpt>
      <trkpt lat="44.64597" lon="7.06082">
        <ele>2086.7</ele>
        <time>2026-09-01T06:10:54Z</time>
      </trkpt>
      <trkpt lat="44.64592" lon="7.06079">
        <ele>2086</ele>
        <time>2026-09-01T06:10:59Z</time>
      </trkpt>
      <trkpt lat="44.64584" lon="7.0608">
        <ele>2083.8</ele>
        <time>2026-09-01T06:11:05Z</time>
      </trkpt>
      <trkpt lat="44.64578" lon="7.06087">
        <ele>2082.1</ele>
        <time>2026-09-01T06:11:10Z</time>
      </trkpt>
      <trkpt lat="44.64571" lon="7.06089">
        <ele>2080.7</ele>
        <time>2026-09-01T06:11:15Z</time>
      </trkpt>
      <trkpt lat="44.64562" lon="7.0609">
        <ele>2078.7</ele>
        <time>2026-09-01T06:11:21Z</time>
      </trkpt>
      <trkpt lat="44.64555" lon="7.06095">
        <ele>2077.6</ele>
        <time>2026-09-01T06:11:26Z</time>
      </trkpt>
      <trkpt lat="44.64547" lon="7.06097">
        <ele>2076</ele>
        <time>2026-09-01T06:11:31Z</time>
      </trkpt>
      <trkpt lat="44.64536" lon="7.061">
        <ele>2073.8</ele>
        <time>2026-09-01T06:11:37Z</time>
      </trkpt>
      <trkpt lat="44.64531" lon="7.06101">
        <ele>2072.7</ele>
        <time>2026-09-01T06:11:42Z</time>
      </trkpt>
      <trkpt lat="44.64525" lon="7.06099">
        <ele>2071.1</ele>
        <time>2026-09-01T06:11:47Z</time>
      </trkpt>
      <trkpt lat="44.64516" lon="7.06103">
        <ele>2069.5</ele>
        <time>2026-09-01T06:11:53Z</time>
      </trkpt>
      <trkpt lat="44.64511" lon="7.06104">
        <ele>2068.5</ele>
        <time>2026-09-01T06:11:58Z</time>
      </trkpt>
      <trkpt lat="44.64505" lon="7.06103">
        <ele>2067</ele>
        <time>2026-09-01T06:12:03Z</time>
      </trkpt>
      <trkpt lat="44.645" lon="7.06098">
        <ele>2065.1</ele>
        <time>2026-09-01T06:12:09Z</time>
      </trkpt>
      <trkpt lat="44.64496" lon="7.06093">
        <ele>2063.7</ele>
        <time>2026-09-01T06:12:14Z</time>
      </trkpt>
      <trkpt lat="44.64491" lon="7.06095">
        <ele>2063.2</ele>
        <time>2026-09-01T06:12:19Z</time>
      </trkpt>
      <trkpt lat="44.64484" lon="7.061">
        <ele>2062.7</ele>
        <time>2026-09-01T06:12:25Z</time>
      </trkpt>
      <trkpt lat="44.6448" lon="7.06097">
        <ele>2061.7</ele>
        <time>2026-09-01T06:12:30Z</time>
      </trkpt>
      <trkpt lat="44.64481" lon="7.06089">
        <ele>2060.8</ele>
        <time>2026-09-01T06:12:35Z</time>
      </trkpt>
      <trkpt lat="44.64478" lon="7.06085">
        <ele>2059.8</ele>
        <time>2026-09-01T06:12:41Z</time>
      </trkpt>
      <trkpt lat="44.64475" lon="7.06086">
        <ele>2059.4</ele>
        <time>2026-09-01T06:12:46Z</time>
      </trkpt>
      <trkpt lat="44.64472" lon="7.06083">
        <ele>2058.7</ele>
        <time>2026-09-01T06:12:51Z</time>
      </trkpt>
      <trkpt lat="44.64467" lon="7.0608">
        <ele>2058.5</ele>
        <time>2026-09-01T06:12:57Z</time>
      </trkpt>
      <trkpt lat="44.64465" lon="7.06075">
        <ele>2059.3</ele>
        <time>2026-09-01T06:13:02Z</time>
      </trkpt>
      <trkpt lat="44.64464" lon="7.06071">
        <ele>2060</ele>
        <time>2026-09-01T06:13:07Z</time>
      </trkpt>
      <trkpt lat="44.64461" lon="7.06066">
        <ele>2060.6</ele>
        <time>2026-09-01T06:13:13Z</time>
      </trkpt>
      <trkpt lat="44.64456" lon="7.06065">
        <ele>2060.1</ele>
        <time>2026-09-01T06:13:18Z</time>
      </trkpt>
      <trkpt lat="44.6445" lon="7.06061">
        <ele>2060.2</ele>
        <time>2026-09-01T06:13:23Z</time>
      </trkpt>
      <trkpt lat="44.64442" lon="7.06062">
        <ele>2059</ele>
        <time>2026-09-01T06:13:29Z</time>
      </trkpt>
      <trkpt lat="44.64435" lon="7.0606">
        <ele>2058.5</ele>
        <time>2026-09-01T06:13:34Z</time>
      </trkpt>
      <trkpt lat="44.64429" lon="7.0606">
        <ele>2057.8</ele>
        <time>2026-09-01T06:13:39Z</time>
      </trkpt>
      <trkpt lat="44.64425" lon="7.06054">
        <ele>2058.8</ele>
        <time>2026-09-01T06:13:45Z</time>
      </trkpt>
      <trkpt lat="44.64422" lon="7.06051">
        <ele>2059.2</ele>
        <time>2026-09-01T06:13:50Z</time>
      </trkpt>
      <trkpt lat="44.64418" lon="7.06049">
        <ele>2059.2</ele>
        <time>2026-09-01T06:13:55Z</time>
      </trkpt>
      <trkpt lat="44.64412" lon="7.06046">
        <ele>2059.9</ele>
        <time>2026-09-01T06:14:01Z</time>
      </trkpt>
      <trkpt lat="44.64409" lon="7.06041">
        <ele>2061.2</ele>
        <time>2026-09-01T06:14:06Z</time>
      </trkpt>
      <trkpt lat="44.64404" lon="7.06039">
        <ele>2061.8</ele>
        <time>2026-09-01T06:14:11Z</time>
      </trkpt>
      <trkpt lat="44.64396" lon="7.06035">
        <ele>2063</ele>
        <time>2026-09-01T06:14:17Z</time>
      </trkpt>
      <trkpt lat="44.6439" lon="7.06033">
        <ele>2063.6</ele>
        <time>2026-09-01T06:14:22Z</time>
      </trkpt>
      <trkpt lat="44.64384" lon="7.06034">
        <ele>2063.4</ele>
        <time>2026-09-01T06:14:27Z</time>
      </trkpt>
      <trkpt lat="44.64375" lon="7.06038">
        <ele>2062.3</ele>
        <time>2026-09-01T06:14:33Z</time>
      </trkpt>
      <trkpt lat="44.6437" lon="7.06036">
        <ele>2063</ele>
        <time>2026-09-01T06:14:38Z</time>
      </trkpt>
      <trkpt lat="44.64364" lon="7.06038">
        <ele>2062.4</ele>
        <time>2026-09-01T06:14:43Z</time>
      </trkpt>
      <trkpt lat="44.64355" lon="7.06042">
        <ele>2061.3</ele>
        <time>2026-09-01T06:14:49Z</time>
      </trkpt>
      <trkpt lat="44.64347" lon="7.06043">
        <ele>2061</ele>
        <time>2026-09-01T06:14:54Z</time>
      </trkpt>
      <trkpt lat="44.64341" lon="7.06045">
        <ele>2060.4</ele>
        <time>2026-09-01T06:14:59Z</time>
      </trkpt>
      <trkpt lat="44.64333" lon="7.06047">
        <ele>2059.8</ele>
        <time>2026-09-01T06:15:05Z</time>
      </trkpt>
      <trkpt lat="44.64329" lon="7.0605">
        <ele>2058.8</ele>
        <time>2026-09-01T06:15:10Z</time>
      </trkpt>
      <trkpt lat="44.64322" lon="7.06052">
        <ele>2058.1</ele>
        <time>2026-09-01T06:15:15Z</time>
      </trkpt>
      <trkpt lat="44.64313" lon="7.06051">
        <ele>2058.5</ele>
        <time>2026-09-01T06:15:21Z</time>
      </trkpt>
      <trkpt lat="44.64307" lon="7.06051">
        <ele>2058.5</ele>
        <time>2026-09-01T06:15:26Z</time>
      </trkpt>
      <trkpt lat="44.643" lon="7.06049">
        <ele>2059.3</ele>
        <time>2026-09-01T06:15:31Z</time>
      </trkpt>
      <trkpt lat="44.64295" lon="7.06049">
        <ele>2059.3</ele>
        <time>2026-09-01T06:15:37Z</time>
      </trkpt>
      <trkpt lat="44.64289" lon="7.06054">
        <ele>2057.3</ele>
        <time>2026-09-01T06:15:42Z</time>
      </trkpt>
      <trkpt lat="44.64284" lon="7.06061">
        <ele>2054.3</ele>
        <time>2026-09-01T06:15:47Z</time>
      </trkpt>
      <trkpt lat="44.6428" lon="7.06068">
        <ele>2051.3</ele>
        <time>2026-09-01T06:15:53Z</time>
      </trkpt>
      <trkpt lat="44.64278" lon="7.06076">
        <ele>2047.8</ele>
        <time>2026-09-01T06:15:58Z</time>
      </trkpt>
      <trkpt lat="44.64272" lon="7.06082">
        <ele>2044.9</ele>
        <time>2026-09-01T06:16:03Z</time>
      </trkpt>
      <trkpt lat="44.64266" lon="7.0609">
        <ele>2043.3</ele>
        <time>2026-09-01T06:16:09Z</time>
      </trkpt>
      <trkpt lat="44.64261" lon="7.06098">
        <ele>2042.2</ele>
        <time>2026-09-01T06:16:14Z</time>
      </trkpt>
      <trkpt lat="44.64254" lon="7.061">
        <ele>2041.5</ele>
        <time>2026-09-01T06:16:19Z</time>
      </trkpt>
      <trkpt lat="44.64249" lon="7.06109">
        <ele>2040.2</ele>
        <time>2026-09-01T06:16:25Z</time>
      </trkpt>
      <trkpt lat="44.64245" lon="7.06119">
        <ele>2038.8</ele>
        <time>2026-09-01T06:16:30Z</time>
      </trkpt>
      <trkpt lat="44.64239" lon="7.06124">
        <ele>2037.9</ele>
        <time>2026-09-01T06:16:35Z</time>
      </trkpt>
      <trkpt lat="44.6423" lon="7.06126">
        <ele>2037.1</ele>
        <time>2026-09-01T06:16:41Z</time>
      </trkpt>
      <trkpt lat="44.64223" lon="7.06128">
        <ele>2036.4</ele>
        <time>2026-09-01T06:16:46Z</time>
      </trkpt>
      <trkpt lat="44.64217" lon="7.06133">
        <ele>2035.5</ele>
        <time>2026-09-01T06:16:51Z</time>
      </trkpt>
      <trkpt lat="44.64212" lon="7.06141">
        <ele>2034.4</ele>
        <time>2026-09-01T06:16:57Z</time>
      </trkpt>
      <trkpt lat="44.64208" lon="7.06146">
        <ele>2033.6</ele>
        <time>2026-09-01T06:17:02Z</time>
      </trkpt>
      <trkpt lat="44.64202" lon="7.06146">
        <ele>2033.2</ele>
        <time>2026-09-01T06:17:07Z</time>
      </trkpt>
      <trkpt lat="44.642" lon="7.06153">
        <ele>2032.4</ele>
        <time>2026-09-01T06:17:13Z</time>
      </trkpt>
      <trkpt lat="44.642" lon="7.06162">
        <ele>2031.5</ele>
        <time>2026-09-01T06:17:18Z</time>
      </trkpt>
      <trkpt lat="44.64199" lon="7.0617">
        <ele>2031.4</ele>
        <time>2026-09-01T06:17:23Z</time>
      </trkpt>
      <trkpt lat="44.64192" lon="7.06173">
        <ele>2031.3</ele>
        <time>2026-09-01T06:17:29Z</time>
      </trkpt>
      <trkpt lat="44.64186" lon="7.06173">
        <ele>2030.9</ele>
        <time>2026-09-01T06:17:34Z</time>
      </trkpt>
      <trkpt lat="44.6418" lon="7.06169">
        <ele>2030</ele>
        <time>2026-09-01T06:17:39Z</time>
      </trkpt>
      <trkpt lat="44.64174" lon="7.06165">
        <ele>2029.6</ele>
        <time>2026-09-01T06:17:45Z</time>
      </trkpt>
      <trkpt lat="44.64168" lon="7.06165">
        <ele>2029.2</ele>
        <time>2026-09-01T06:17:50Z</time>
      </trkpt>
      <trkpt lat="44.64162" lon="7.06168">
        <ele>2028.6</ele>
        <time>2026-09-01T06:17:55Z</time>
      </trkpt>
      <trkpt lat="44.64156" lon="7.06169">
        <ele>2028</ele>
        <time>2026-09-01T06:18:01Z</time>
      </trkpt>
      <trkpt lat="44.64149" lon="7.06167">
        <ele>2027.1</ele>
        <time>2026-09-01T06:18:06Z</time>
      </trkpt>
      <trkpt lat="44.64141" lon="7.0617">
        <ele>2026.5</ele>
        <time>2026-09-01T06:18:11Z</time>
      </trkpt>
      <trkpt lat="44.64133" lon="7.06174">
        <ele>2026</ele>
        <time>2026-09-01T06:18:17Z</time>
      </trkpt>
      <trkpt lat="44.64126" lon="7.06177">
        <ele>2025.5</ele>
        <time>2026-09-01T06:18:22Z</time>
      </trkpt>
      <trkpt lat="44.64124" lon="7.06182">
        <ele>2025.7</ele>
        <time>2026-09-01T06:18:27Z</time>
      </trkpt>
      <trkpt lat="44.64119" lon="7.06188">
        <ele>2025.6</ele>
        <time>2026-09-01T06:18:33Z</time>
      </trkpt>
      <trkpt lat="44.64112" lon="7.06195">
        <ele>2025.5</ele>
        <time>2026-09-01T06:18:38Z</time>
      </trkpt>
      <trkpt lat="44.64107" lon="7.06201">
        <ele>2025.4</ele>
        <time>2026-09-01T06:18:43Z</time>
      </trkpt>
      <trkpt lat="44.64104" lon="7.06203">
        <ele>2025.3</ele>
        <time>2026-09-01T06:18:49Z</time>
      </trkpt>
      <trkpt lat="44.641" lon="7.06205">
        <ele>2025</ele>
        <time>2026-09-01T06:18:54Z</time>
      </trkpt>
      <trkpt lat="44.64094" lon="7.06205">
        <ele>2024.4</ele>
        <time>2026-09-01T06:18:59Z</time>
      </trkpt>
      <trkpt lat="44.64085" lon="7.06206">
        <ele>2023.5</ele>
        <time>2026-09-01T06:19:05Z</time>
      </trkpt>
      <trkpt lat="44.6408" lon="7.06204">
        <ele>2022.9</ele>
        <time>2026-09-01T06:19:10Z</time>
      </trkpt>
      <trkpt lat="44.64073" lon="7.06203">
        <ele>2022.4</ele>
        <time>2026-09-01T06:19:15Z</time>
      </trkpt>
      <trkpt lat="44.64069" lon="7.06201">
        <ele>2022</ele>
        <time>2026-09-01T06:19:21Z</time>
      </trkpt>
      <trkpt lat="44.64063" lon="7.06198">
        <ele>2021.3</ele>
        <time>2026-09-01T06:19:26Z</time>
      </trkpt>
      <trkpt lat="44.6406" lon="7.06193">
        <ele>2020.6</ele>
        <time>2026-09-01T06:19:31Z</time>
      </trkpt>
      <trkpt lat="44.64054" lon="7.06187">
        <ele>2019.5</ele>
        <time>2026-09-01T06:19:37Z</time>
      </trkpt>
      <trkpt lat="44.64051" lon="7.06181">
        <ele>2018.6</ele>
        <time>2026-09-01T06:19:42Z</time>
      </trkpt>
      <trkpt lat="44.64047" lon="7.06172">
        <ele>2017.2</ele>
        <time>2026-09-01T06:19:47Z</time>
      </trkpt>
      <trkpt lat="44.64043" lon="7.06171">
        <ele>2016.7</ele>
        <time>2026-09-01T06:19:53Z</time>
      </trkpt>
      <trkpt lat="44.64035" lon="7.06169">
        <ele>2015.7</ele>
        <time>2026-09-01T06:19:58Z</time>
      </trkpt>
      <trkpt lat="44.64029" lon="7.06161">
        <ele>2014.6</ele>
        <time>2026-09-01T06:20:03Z</time>
      </trkpt>
      <trkpt lat="44.64022" lon="7.06157">
        <ele>2013.6</ele>
        <time>2026-09-01T06:20:09Z</time>
      </trkpt>
      <trkpt lat="44.64018" lon="7.06157">
        <ele>2013.2</ele>
        <time>2026-09-01T06:20:14Z</time>
      </trkpt>
      <trkpt lat="44.64013" lon="7.06157">
        <ele>2012.6</ele>
        <time>2026-09-01T06:20:19Z</time>
      </trkpt>
      <trkpt lat="44.64004" lon="7.06155">
        <ele>2011.4</ele>
        <time>2026-09-01T06:20:25Z</time>
      </trkpt>
      <trkpt lat="44.63997" lon="7.06151">
        <ele>2010.1</ele>
        <time>2026-09-01T06:20:30Z</time>
      </trkpt>
      <trkpt lat="44.6399" lon="7.06146">
        <ele>2008.7</ele>
        <time>2026-09-01T06:20:35Z</time>
      </trkpt>
      <trkpt lat="44.63982" lon="7.06141">
        <ele>2007.3</ele>
        <time>2026-09-01T06:20:41Z</time>
      </trkpt>
      <trkpt lat="44.63978" lon="7.06141">
        <ele>2006.8</ele>
        <time>2026-09-01T06:20:46Z</time>
      </trkpt>
      <trkpt lat="44.6397" lon="7.06143">
        <ele>2005.9</ele>
        <time>2026-09-01T06:20:51Z</time>
      </trkpt>
      <trkpt lat="44.63964" lon="7.06144">
        <ele>2005.2</ele>
        <time>2026-09-01T06:20:57Z</time>
      </trkpt>
      <trkpt lat="44.6396" lon="7.06146">
        <ele>2004.7</ele>
        <time>2026-09-01T06:21:02Z</time>
      </trkpt>
      <trkpt lat="44.6396" lon="7.06146">
        <ele>2004.7</ele>
        <time>2026-09-01T06:21:07Z</time>
      </trkpt>
      <trkpt lat="44.6396" lon="7.06146">
        <ele>2004.7</ele>
        <time>2026-09-01T06:21:13Z</time>
      </trkpt>
      <trkpt lat="44.6396" lon="7.06146">
        <ele>2004.7</ele>
        <time>2026-09-01T06:21:18Z</time>
      </trkpt>
      <trkpt lat="44.6396" lon="7.06146">
        <ele>2004.7</ele>
        <time>2026-09-01T06:21:23Z</time>
      </trkpt>
      <trkpt lat="44.6396" lon="7.06146">
        <ele>2004.7</ele>
        <time>2026-09-01T06:21:29Z</time>
      </trkpt>
      <trkpt lat="44.6396" lon="7.06146">
        <ele>2004.7</ele>
        <time>2026-09-01T06:21:34Z</time>
      </trkpt>
      <trkpt lat="44.6396" lon="7.06146">
        <ele>2004.7</ele>
        <time>2026-09-01T06:21:39Z</time>
      </trkpt>
      <trkpt lat="44.6396" lon="7.06146">
        <ele>2004.7</ele>
        <time>2026-09-01T06:21:45Z</time>
      </trkpt>
      <trkpt lat="44.6396" lon="7.06146">
        <ele>2004.7</ele>
        <time>2026-09-01T06:21:50Z</time>
      </trkpt>
      <trkpt lat="44.6396" lon="7.06146">
        <ele>2004.7</ele>
        <time>2026-09-01T06:21:55Z</time>
      </trkpt>
      <trkpt lat="44.63958" lon="7.06145">
        <ele>2004.4</ele>
        <time>2026-09-01T06:22:01Z</time>
      </trkpt>
      <trkpt lat="44.63958" lon="7.06145">
        <ele>2004.4</ele>
        <time>2026-09-01T06:22:06Z</time>
      </trkpt>
      <trkpt lat="44.63958" lon="7.06145">
        <ele>2004.4</ele>
        <time>2026-09-01T06:22:11Z</time>
      </trkpt>
      <trkpt lat="44.63958" lon="7.06145">
        <ele>2004.4</ele>
        <time>2026-09-01T06:22:17Z</time>
      </trkpt>
      <trkpt lat="44.63958" lon="7.06145">
        <ele>2004.4</ele>
        <time>2026-09-01T06:22:22Z</time>
      </trkpt>
      <trkpt lat="44.63952" lon="7.06149">
        <ele>2003.7</ele>
        <time>2026-09-01T06:22:27Z</time>
      </trkpt>
      <trkpt lat="44.63946" lon="7.06148">
        <ele>2002.9</ele>
        <time>2026-09-01T06:22:33Z</time>
      </trkpt>
      <trkpt lat="44.63942" lon="7.06139">
        <ele>2002.4</ele>
        <time>2026-09-01T06:22:38Z</time>
      </trkpt>
      <trkpt lat="44.63951" lon="7.06138">
        <ele>2003.4</ele>
        <time>2026-09-01T06:22:43Z</time>
      </trkpt>
      <trkpt lat="44.63951" lon="7.06131">
        <ele>2003.4</ele>
        <time>2026-09-01T06:22:49Z</time>
      </trkpt>
      <trkpt lat="44.63948" lon="7.0613">
        <ele>2003</ele>
        <time>2026-09-01T06:22:54Z</time>
      </trkpt>
      <trkpt lat="44.63943" lon="7.06127">
        <ele>2002.5</ele>
        <time>2026-09-01T06:22:59Z</time>
      </trkpt>
      <trkpt lat="44.63937" lon="7.06127">
        <ele>2001.9</ele>
        <time>2026-09-01T06:23:05Z</time>
      </trkpt>
      <trkpt lat="44.63932" lon="7.06136">
        <ele>2001.2</ele>
        <time>2026-09-01T06:23:10Z</time>
      </trkpt>
      <trkpt lat="44.63927" lon="7.06133">
        <ele>2000.8</ele>
        <time>2026-09-01T06:23:15Z</time>
      </trkpt>
      <trkpt lat="44.63925" lon="7.06134">
        <ele>2000.5</ele>
        <time>2026-09-01T06:23:21Z</time>
      </trkpt>
      <trkpt lat="44.63923" lon="7.06135">
        <ele>2000.2</ele>
        <time>2026-09-01T06:23:26Z</time>
      </trkpt>
      <trkpt lat="44.63915" lon="7.06135">
        <ele>1999.3</ele>
        <time>2026-09-01T06:23:31Z</time>
      </trkpt>
      <trkpt lat="44.63908" lon="7.06138">
        <ele>1998</ele>
        <time>2026-09-01T06:23:37Z</time>
      </trkpt>
      <trkpt lat="44.63901" lon="7.06142">
        <ele>1996.5</ele>
        <time>2026-09-01T06:23:42Z</time>
      </trkpt>
      <trkpt lat="44.63895" lon="7.06146">
        <ele>1995.2</ele>
        <time>2026-09-01T06:23:47Z</time>
      </trkpt>
      <trkpt lat="44.63886" lon="7.06151">
        <ele>1993.2</ele>
        <time>2026-09-01T06:23:53Z</time>
      </trkpt>
      <trkpt lat="44.63882" lon="7.06156">
        <ele>1992</ele>
        <time>2026-09-01T06:23:58Z</time>
      </trkpt>
      <trkpt lat="44.6388" lon="7.06161">
        <ele>1991.1</ele>
        <time>2026-09-01T06:24:03Z</time>
      </trkpt>
      <trkpt lat="44.63874" lon="7.06162">
        <ele>1989.8</ele>
        <time>2026-09-01T06:24:09Z</time>
      </trkpt>
      <trkpt lat="44.63871" lon="7.06156">
        <ele>1989.9</ele>
        <time>2026-09-01T06:24:14Z</time>
      </trkpt>
      <trkpt lat="44.63873" lon="7.06149">
        <ele>1991.1</ele>
        <time>2026-09-01T06:24:19Z</time>
      </trkpt>
      <trkpt lat="44.63869" lon="7.06144">
        <ele>1990.9</ele>
        <time>2026-09-01T06:24:25Z</time>
      </trkpt>
      <trkpt lat="44.63865" lon="7.06141">
        <ele>1990.6</ele>
        <time>2026-09-01T06:24:30Z</time>
      </trkpt>
      <trkpt lat="44.63862" lon="7.06138">
        <ele>1990.5</ele>
        <time>2026-09-01T06:24:35Z</time>
      </trkpt>
      <trkpt lat="44.63851" lon="7.06137">
        <ele>1988.8</ele>
        <time>2026-09-01T06:24:41Z</time>
      </trkpt>
      <trkpt lat="44.63845" lon="7.06141">
        <ele>1987.3</ele>
        <time>2026-09-01T06:24:46Z</time>
      </trkpt>
      <trkpt lat="44.63839" lon="7.06141">
        <ele>1986.3</ele>
        <time>2026-09-01T06:24:51Z</time>
      </trkpt>
      <trkpt lat="44.63832" lon="7.06143">
        <ele>1984.7</ele>
        <time>2026-09-01T06:24:57Z</time>
      </trkpt>
      <trkpt lat="44.63826" lon="7.06147">
        <ele>1983</ele>
        <time>2026-09-01T06:25:02Z</time>
      </trkpt>
      <trkpt lat="44.63822" lon="7.0615">
        <ele>1981.7</ele>
        <time>2026-09-01T06:25:07Z</time>
      </trkpt>
      <trkpt lat="44.63818" lon="7.06155">
        <ele>1980</ele>
        <time>2026-09-01T06:25:13Z</time>
      </trkpt>
      <trkpt lat="44.63817" lon="7.06159">
        <ele>1979</ele>
        <time>2026-09-01T06:25:18Z</time>
      </trkpt>
      <trkpt lat="44.63812" lon="7.06158">
        <ele>1978.2</ele>
        <time>2026-09-01T06:25:23Z</time>
      </trkpt>
      <trkpt lat="44.63808" lon="7.0615">
        <ele>1979.1</ele>
        <time>2026-09-01T06:25:29Z</time>
      </trkpt>
      <trkpt lat="44.63802" lon="7.06149">
        <ele>1978.2</ele>
        <time>2026-09-01T06:25:34Z</time>
      </trkpt>
      <trkpt lat="44.63796" lon="7.06152">
        <ele>1976.4</ele>
        <time>2026-09-01T06:25:39Z</time>
      </trkpt>
      <trkpt lat="44.63786" lon="7.06157">
        <ele>1973.3</ele>
        <time>2026-09-01T06:25:45Z</time>
      </trkpt>
      <trkpt lat="44.63779" lon="7.06163">
        <ele>1970.3</ele>
        <time>2026-09-01T06:25:50Z</time>
      </trkpt>
      <trkpt lat="44.63775" lon="7.06169">
        <ele>1968.3</ele>
        <time>2026-09-01T06:25:55Z</time>
      </trkpt>
      <trkpt lat="44.63766" lon="7.06176">
        <ele>1966.1</ele>
        <time>2026-09-01T06:26:01Z</time>
      </trkpt>
      <trkpt lat="44.63759" lon="7.06178">
        <ele>1964.3</ele>
        <time>2026-09-01T06:26:06Z</time>
      </trkpt>
      <trkpt lat="44.63755" lon="7.0618">
        <ele>1963.3</ele>
        <time>2026-09-01T06:26:11Z</time>
      </trkpt>
      <trkpt lat="44.63751" lon="7.0618">
        <ele>1962.3</ele>
        <time>2026-09-01T06:26:17Z</time>
      </trkpt>
      <trkpt lat="44.63747" lon="7.06182">
        <ele>1961.4</ele>
        <time>2026-09-01T06:26:22Z</time>
      </trkpt>
      <trkpt lat="44.63743" lon="7.06182">
        <ele>1960.8</ele>
        <time>2026-09-01T06:26:27Z</time>
      </trkpt>
      <trkpt lat="44.63741" lon="7.06178">
        <ele>1960.8</ele>
        <time>2026-09-01T06:26:33Z</time>
      </trkpt>
      <trkpt lat="44.63735" lon="7.0618">
        <ele>1959.6</ele>
        <time>2026-09-01T06:26:38Z</time>
      </trkpt>
      <trkpt lat="44.63731" lon="7.06182">
        <ele>1958.8</ele>
        <time>2026-09-01T06:26:43Z</time>
      </trkpt>
      <trkpt lat="44.63729" lon="7.06185">
        <ele>1958.2</ele>
        <time>2026-09-01T06:26:49Z</time>
      </trkpt>
      <trkpt lat="44.63727" lon="7.06187">
        <ele>1957.7</ele>
        <time>2026-09-01T06:26:54Z</time>
      </trkpt>
      <trkpt lat="44.63724" lon="7.06186">
        <ele>1957.3</ele>
        <time>2026-09-01T06:26:59Z</time>
      </trkpt>
      <trkpt lat="44.63718" lon="7.06187">
        <ele>1956.2</ele>
        <time>2026-09-01T06:27:05Z</time>
      </trkpt>
      <trkpt lat="44.63715" lon="7.0619">
        <ele>1955.3</ele>
        <time>2026-09-01T06:27:10Z</time>
      </trkpt>
      <trkpt lat="44.63712" lon="7.06193">
        <ele>1954.5</ele>
        <time>2026-09-01T06:27:15Z</time>
      </trkpt>
      <trkpt lat="44.63711" lon="7.06192">
        <ele>1954.4</ele>
        <time>2026-09-01T06:27:21Z</time>
      </trkpt>
      <trkpt lat="44.63709" lon="7.06195">
        <ele>1953.7</ele>
        <time>2026-09-01T06:27:26Z</time>
      </trkpt>
      <trkpt lat="44.63707" lon="7.06195">
        <ele>1953.4</ele>
        <time>2026-09-01T06:27:31Z</time>
      </trkpt>
      <trkpt lat="44.63699" lon="7.06195">
        <ele>1952</ele>
        <time>2026-09-01T06:27:37Z</time>
      </trkpt>
      <trkpt lat="44.63696" lon="7.06191">
        <ele>1952</ele>
        <time>2026-09-01T06:27:42Z</time>
      </trkpt>
      <trkpt lat="44.63696" lon="7.06186">
        <ele>1952.6</ele>
        <time>2026-09-01T06:27:47Z</time>
      </trkpt>
      <trkpt lat="44.63699" lon="7.0618">
        <ele>1953.9</ele>
        <time>2026-09-01T06:27:53Z</time>
      </trkpt>
      <trkpt lat="44.63695" lon="7.06172">
        <ele>1954.4</ele>
        <time>2026-09-01T06:27:58Z</time>
      </trkpt>
      <trkpt lat="44.63687" lon="7.06171">
        <ele>1953.3</ele>
        <time>2026-09-01T06:28:03Z</time>
      </trkpt>
      <trkpt lat="44.63685" lon="7.06176">
        <ele>1952.3</ele>
        <time>2026-09-01T06:28:09Z</time>
      </trkpt>
      <trkpt lat="44.63682" lon="7.06181">
        <ele>1951.1</ele>
        <time>2026-09-01T06:28:14Z</time>
      </trkpt>
      <trkpt lat="44.63679" lon="7.06182">
        <ele>1950.4</ele>
        <time>2026-09-01T06:28:19Z</time>
      </trkpt>
      <trkpt lat="44.63676" lon="7.06175">
        <ele>1951</ele>
        <time>2026-09-01T06:28:25Z</time>
      </trkpt>
      <trkpt lat="44.63671" lon="7.0617">
        <ele>1951.1</ele>
        <time>2026-09-01T06:28:30Z</time>
      </trkpt>
      <trkpt lat="44.63667" lon="7.06168">
        <ele>1950.8</ele>
        <time>2026-09-01T06:28:35Z</time>
      </trkpt>
      <trkpt lat="44.63662" lon="7.06166">
        <ele>1951</ele>
        <time>2026-09-01T06:28:41Z</time>
      </trkpt>
      <trkpt lat="44.63658" lon="7.06167">
        <ele>1950.5</ele>
        <time>2026-09-01T06:28:46Z</time>
      </trkpt>
      <trkpt lat="44.63655" lon="7.06175">
        <ele>1949</ele>
        <time>2026-09-01T06:28:51Z</time>
      </trkpt>
      <trkpt lat="44.6365" lon="7.06181">
        <ele>1947.7</ele>
        <time>2026-09-01T06:28:57Z</time>
      </trkpt>
      <trkpt lat="44.63646" lon="7.06187">
        <ele>1946.5</ele>
        <time>2026-09-01T06:29:02Z</time>
      </trkpt>
      <trkpt lat="44.63641" lon="7.06189">
        <ele>1945.9</ele>
        <time>2026-09-01T06:29:07Z</time>
      </trkpt>
      <trkpt lat="44.63636" lon="7.06185">
        <ele>1946.3</ele>
        <time>2026-09-01T06:29:13Z</time>
      </trkpt>
      <trkpt lat="44.63633" lon="7.06188">
        <ele>1945.6</ele>
        <time>2026-09-01T06:29:18Z</time>
      </trkpt>
      <trkpt lat="44.63629" lon="7.06193">
        <ele>1944.5</ele>
        <time>2026-09-01T06:29:23Z</time>
      </trkpt>
      <trkpt lat="44.63627" lon="7.06197">
        <ele>1943.7</ele>
        <time>2026-09-01T06:29:29Z</time>
      </trkpt>
      <trkpt lat="44.63625" lon="7.06201">
        <ele>1942.8</ele>
        <time>2026-09-01T06:29:34Z</time>
      </trkpt>
      <trkpt lat="44.63619" lon="7.06206">
        <ele>1941.6</ele>
        <time>2026-09-01T06:29:39Z</time>
      </trkpt>
      <trkpt lat="44.63614" lon="7.06212">
        <ele>1940.2</ele>
        <time>2026-09-01T06:29:45Z</time>
      </trkpt>
      <trkpt lat="44.63609" lon="7.06213">
        <ele>1939.7</ele>
        <time>2026-09-01T06:29:50Z</time>
      </trkpt>
      <trkpt lat="44.63605" lon="7.06218">
        <ele>1938.5</ele>
        <time>2026-09-01T06:29:55Z</time>
      </trkpt>
      <trkpt lat="44.63599" lon="7.06221">
        <ele>1937.6</ele>
        <time>2026-09-01T06:30:01Z</time>
      </trkpt>
      <trkpt lat="44.63594" lon="7.06224">
        <ele>1936.7</ele>
        <time>2026-09-01T06:30:06Z</time>
      </trkpt>
      <trkpt lat="44.63588" lon="7.06228">
        <ele>1935.5</ele>
        <time>2026-09-01T06:30:11Z</time>
      </trkpt>
      <trkpt lat="44.63582" lon="7.06223">
        <ele>1936.1</ele>
        <time>2026-09-01T06:30:17Z</time>
      </trkpt>
      <trkpt lat="44.63576" lon="7.06221">
        <ele>1936.3</ele>
        <time>2026-09-01T06:30:22Z</time>
      </trkpt>
      <trkpt lat="44.6357" lon="7.06218">
        <ele>1936.5</ele>
        <time>2026-09-01T06:30:27Z</time>
      </trkpt>
      <trkpt lat="44.63562" lon="7.06219">
        <ele>1935.9</ele>
        <time>2026-09-01T06:30:33Z</time>
      </trkpt>
      <trkpt lat="44.63561" lon="7.06219">
        <ele>1935.9</ele>
        <time>2026-09-01T06:30:38Z</time>
      </trkpt>
      <trkpt lat="44.63554" lon="7.06217">
        <ele>1935.7</ele>
        <time>2026-09-01T06:30:43Z</time>
      </trkpt>
      <trkpt lat="44.63548" lon="7.06219">
        <ele>1935.2</ele>
        <time>2026-09-01T06:30:49Z</time>
      </trkpt>
      <trkpt lat="44.63542" lon="7.06222">
        <ele>1934.7</ele>
        <time>2026-09-01T06:30:54Z</time>
      </trkpt>
      <trkpt lat="44.63536" lon="7.06225">
        <ele>1934.3</ele>
        <time>2026-09-01T06:30:59Z</time>
      </trkpt>
      <trkpt lat="44.63526" lon="7.06225">
        <ele>1933.9</ele>
        <time>2026-09-01T06:31:05Z</time>
      </trkpt>
      <trkpt lat="44.6352" lon="7.06221">
        <ele>1933.8</ele>
        <time>2026-09-01T06:31:10Z</time>
      </trkpt>
      <trkpt lat="44.63513" lon="7.06221">
        <ele>1933.5</ele>
        <time>2026-09-01T06:31:15Z</time>
      </trkpt>
      <trkpt lat="44.63504" lon="7.06221">
        <ele>1933.1</ele>
        <time>2026-09-01T06:31:21Z</time>
      </trkpt>
      <trkpt lat="44.63498" lon="7.06217">
        <ele>1932.9</ele>
        <time>2026-09-01T06:31:26Z</time>
      </trkpt>
      <trkpt lat="44.63491" lon="7.06215">
        <ele>1933.1</ele>
        <time>2026-09-01T06:31:31Z</time>
      </trkpt>
      <trkpt lat="44.63484" lon="7.06215">
        <ele>1933.3</ele>
        <time>2026-09-01T06:31:37Z</time>
      </trkpt>
      <trkpt lat="44.63479" lon="7.06213">
        <ele>1933.4</ele>
        <time>2026-09-01T06:31:42Z</time>
      </trkpt>
      <trkpt lat="44.63474" lon="7.06211">
        <ele>1933.4</ele>
        <time>2026-09-01T06:31:47Z</time>
      </trkpt>
      <trkpt lat="44.6347" lon="7.06207">
        <ele>1933.1</ele>
        <time>2026-09-01T06:31:53Z</time>
      </trkpt>
      <trkpt lat="44.63463" lon="7.06206">
        <ele>1933.1</ele>
        <time>2026-09-01T06:31:58Z</time>
      </trkpt>
      <trkpt lat="44.63457" lon="7.062">
        <ele>1932.5</ele>
        <time>2026-09-01T06:32:03Z</time>
      </trkpt>
      <trkpt lat="44.63449" lon="7.06195">
        <ele>1931.9</ele>
        <time>2026-09-01T06:32:09Z</time>
      </trkpt>
      <trkpt lat="44.63442" lon="7.0619">
        <ele>1931.1</ele>
        <time>2026-09-01T06:32:14Z</time>
      </trkpt>
      <trkpt lat="44.63433" lon="7.06185">
        <ele>1930.1</ele>
        <time>2026-09-01T06:32:19Z</time>
      </trkpt>
      <trkpt lat="44.63432" lon="7.06184">
        <ele>1929.9</ele>
        <time>2026-09-01T06:32:25Z</time>
      </trkpt>
      <trkpt lat="44.6343" lon="7.06185">
        <ele>1930</ele>
        <time>2026-09-01T06:32:30Z</time>
      </trkpt>
      <trkpt lat="44.63424" lon="7.06177">
        <ele>1928.4</ele>
        <time>2026-09-01T06:32:35Z</time>
      </trkpt>
      <trkpt lat="44.63416" lon="7.06167">
        <ele>1926.1</ele>
        <time>2026-09-01T06:32:41Z</time>
      </trkpt>
      <trkpt lat="44.6341" lon="7.06162">
        <ele>1927.3</ele>
        <time>2026-09-01T06:32:46Z</time>
      </trkpt>
      <trkpt lat="44.63405" lon="7.06154">
        <ele>1929.8</ele>
        <time>2026-09-01T06:32:51Z</time>
      </trkpt>
      <trkpt lat="44.63397" lon="7.06147">
        <ele>1932.1</ele>
        <time>2026-09-01T06:32:57Z</time>
      </trkpt>
      <trkpt lat="44.63391" lon="7.06147">
        <ele>1932.3</ele>
        <time>2026-09-01T06:33:02Z</time>
      </trkpt>
      <trkpt lat="44.63387" lon="7.06148">
        <ele>1932.1</ele>
        <time>2026-09-01T06:33:07Z</time>
      </trkpt>
      <trkpt lat="44.63387" lon="7.06148">
        <ele>1932.1</ele>
        <time>2026-09-01T06:33:13Z</time>
      </trkpt>
      <trkpt lat="44.63387" lon="7.06148">
        <ele>1932.1</ele>
        <time>2026-09-01T06:33:18Z</time>
      </trkpt>
      <trkpt lat="44.63387" lon="7.06148">
        <ele>1932.1</ele>
        <time>2026-09-01T06:33:23Z</time>
      </trkpt>
      <trkpt lat="44.63387" lon="7.06148">
        <ele>1932.1</ele>
        <time>2026-09-01T06:33:29Z</time>
      </trkpt>
      <trkpt lat="44.63379" lon="7.06147">
        <ele>1932.7</ele>
        <time>2026-09-01T06:33:34Z</time>
      </trkpt>
      <trkpt lat="44.63372" lon="7.06146">
        <ele>1933.3</ele>
        <time>2026-09-01T06:33:39Z</time>
      </trkpt>
      <trkpt lat="44.63362" lon="7.06147">
        <ele>1933.3</ele>
        <time>2026-09-01T06:33:45Z</time>
      </trkpt>
      <trkpt lat="44.63351" lon="7.06148">
        <ele>1933.3</ele>
        <time>2026-09-01T06:33:50Z</time>
      </trkpt>
      <trkpt lat="44.63344" lon="7.06148">
        <ele>1933.5</ele>
        <time>2026-09-01T06:33:55Z</time>
      </trkpt>
      <trkpt lat="44.63338" lon="7.06148">
        <ele>1933.7</ele>
        <time>2026-09-01T06:34:01Z</time>
      </trkpt>
      <trkpt lat="44.63331" lon="7.06148">
        <ele>1934.1</ele>
        <time>2026-09-01T06:34:06Z</time>
      </trkpt>
      <trkpt lat="44.63325" lon="7.06151">
        <ele>1933.6</ele>
        <time>2026-09-01T06:34:11Z</time>
      </trkpt>
      <trkpt lat="44.63317" lon="7.06152">
        <ele>1934.1</ele>
        <time>2026-09-01T06:34:17Z</time>
      </trkpt>
      <trkpt lat="44.63312" lon="7.06157">
        <ele>1932.7</ele>
        <time>2026-09-01T06:34:22Z</time>
      </trkpt>
      <trkpt lat="44.63307" lon="7.06162">
        <ele>1931.3</ele>
        <time>2026-09-01T06:34:27Z</time>
      </trkpt>
      <trkpt lat="44.63302" lon="7.06167">
        <ele>1930.1</ele>
        <time>2026-09-01T06:34:33Z</time>
      </trkpt>
      <trkpt lat="44.63295" lon="7.0617">
        <ele>1930.9</ele>
        <time>2026-09-01T06:34:38Z</time>
      </trkpt>
      <trkpt lat="44.63288" lon="7.06174">
        <ele>1931.4</ele>
        <time>2026-09-01T06:34:43Z</time>
      </trkpt>
      <trkpt lat="44.63279" lon="7.06178">
        <ele>1932.1</ele>
        <time>2026-09-01T06:34:49Z</time>
      </trkpt>
      <trkpt lat="44.63272" lon="7.0618">
        <ele>1932.6</ele>
        <time>2026-09-01T06:34:54Z</time>
      </trkpt>
      <trkpt lat="44.63265" lon="7.0618">
        <ele>1933.4</ele>
        <time>2026-09-01T06:34:59Z</time>
      </trkpt>
      <trkpt lat="44.63256" lon="7.06181">
        <ele>1934.2</ele>
        <time>2026-09-01T06:35:05Z</time>
      </trkpt>
      <trkpt lat="44.63251" lon="7.06178">
        <ele>1935.1</ele>
        <time>2026-09-01T06:35:10Z</time>
      </trkpt>
      <trkpt lat="44.63245" lon="7.06177">
        <ele>1934.4</ele>
        <time>2026-09-01T06:35:15Z</time>
      </trkpt>
      <trkpt lat="44.63239" lon="7.06177">
        <ele>1933.2</ele>
        <time>2026-09-01T06:35:21Z</time>
      </trkpt>
      <trkpt lat="44.63233" lon="7.06177">
        <ele>1931.9</ele>
        <time>2026-09-01T06:35:26Z</time>
      </trkpt>
      <trkpt lat="44.63229" lon="7.06178">
        <ele>1931</ele>
        <time>2026-09-01T06:35:31Z</time>
      </trkpt>
      <trkpt lat="44.63223" lon="7.06178">
        <ele>1929.8</ele>
        <time>2026-09-01T06:35:37Z</time>
      </trkpt>
      <trkpt lat="44.63216" lon="7.06178">
        <ele>1928.4</ele>
        <time>2026-09-01T06:35:42Z</time>
      </trkpt>
      <trkpt lat="44.63211" lon="7.06181">
        <ele>1926.9</ele>
        <time>2026-09-01T06:35:47Z</time>
      </trkpt>
      <trkpt lat="44.63205" lon="7.06184">
        <ele>1925.2</ele>
        <time>2026-09-01T06:35:53Z</time>
      </trkpt>
      <trkpt lat="44.63198" lon="7.06188">
        <ele>1923.2</ele>
        <time>2026-09-01T06:35:58Z</time>
      </trkpt>
      <trkpt lat="44.63193" lon="7.06191">
        <ele>1921.8</ele>
        <time>2026-09-01T06:36:03Z</time>
      </trkpt>
      <trkpt lat="44.63186" lon="7.06192">
        <ele>1920.2</ele>
        <time>2026-09-01T06:36:09Z</time>
      </trkpt>
      <trkpt lat="44.63181" lon="7.06196">
        <ele>1918.6</ele>
        <time>2026-09-01T06:36:14Z</time>
      </trkpt>
      <trkpt lat="44.6318" lon="7.06195">
        <ele>1918.6</ele>
        <time>2026-09-01T06:36:19Z</time>
      </trkpt>
      <trkpt lat="44.63179" lon="7.06194">
        <ele>1918.5</ele>
        <time>2026-09-01T06:36:25Z</time>
      </trkpt>
      <trkpt lat="44.63179" lon="7.06194">
        <ele>1918.5</ele>
        <time>2026-09-01T06:36:30Z</time>
      </trkpt>
      <trkpt lat="44.63175" lon="7.06203">
        <ele>1916.4</ele>
        <time>2026-09-01T06:36:35Z</time>
      </trkpt>
      <trkpt lat="44.63171" lon="7.06203">
        <ele>1915.6</ele>
        <time>2026-09-01T06:36:41Z</time>
      </trkpt>
      <trkpt lat="44.63169" lon="7.06207">
        <ele>1914.7</ele>
        <time>2026-09-01T06:36:46Z</time>
      </trkpt>
      <trkpt lat="44.63169" lon="7.06207">
        <ele>1914.7</ele>
        <time>2026-09-01T06:36:51Z</time>
      </trkpt>
      <trkpt lat="44.63169" lon="7.06207">
        <ele>1914.7</ele>
        <time>2026-09-01T06:36:57Z</time>
      </trkpt>
      <trkpt lat="44.63169" lon="7.06207">
        <ele>1914.7</ele>
        <time>2026-09-01T06:37:02Z</time>
      </trkpt>
      <trkpt lat="44.63169" lon="7.06207">
        <ele>1914.7</ele>
        <time>2026-09-01T06:37:07Z</time>
      </trkpt>
      <trkpt lat="44.63169" lon="7.06207">
        <ele>1914.7</ele>
        <time>2026-09-01T06:37:13Z</time>
      </trkpt>
      <trkpt lat="44.63178" lon="7.06209">
        <ele>1916.1</ele>
        <time>2026-09-01T06:37:18Z</time>
      </trkpt>
      <trkpt lat="44.63182" lon="7.06207">
        <ele>1917.2</ele>
        <time>2026-09-01T06:37:23Z</time>
      </trkpt>
      <trkpt lat="44.63188" lon="7.06209">
        <ele>1918.1</ele>
        <time>2026-09-01T06:37:29Z</time>
      </trkpt>
      <trkpt lat="44.63191" lon="7.06207">
        <ele>1919</ele>
        <time>2026-09-01T06:37:34Z</time>
      </trkpt>
      <trkpt lat="44.63197" lon="7.06205">
        <ele>1920.5</ele>
        <time>2026-09-01T06:37:39Z</time>
      </trkpt>
      <trkpt lat="44.63204" lon="7.06203">
        <ele>1922.2</ele>
        <time>2026-09-01T06:37:45Z</time>
      </trkpt>
      <trkpt lat="44.63209" lon="7.06202">
        <ele>1923.3</ele>
        <time>2026-09-01T06:37:50Z</time>
      </trkpt>
      <trkpt lat="44.63213" lon="7.06205">
        <ele>1923.7</ele>
        <time>2026-09-01T06:37:55Z</time>
      </trkpt>
      <trkpt lat="44.63215" lon="7.06205">
        <ele>1924.1</ele>
        <time>2026-09-01T06:38:01Z</time>
      </trkpt>
      <trkpt lat="44.63216" lon="7.0621">
        <ele>1923.5</ele>
        <time>2026-09-01T06:38:06Z</time>
      </trkpt>
      <trkpt lat="44.63217" lon="7.06215">
        <ele>1923</ele>
        <time>2026-09-01T06:38:11Z</time>
      </trkpt>
      <trkpt lat="44.63211" lon="7.06217">
        <ele>1921.5</ele>
        <time>2026-09-01T06:38:17Z</time>
      </trkpt>
      <trkpt lat="44.63206" lon="7.06219">
        <ele>1920.2</ele>
        <time>2026-09-01T06:38:22Z</time>
      </trkpt>
      <trkpt lat="44.63203" lon="7.06223">
        <ele>1919</ele>
        <time>2026-09-01T06:38:27Z</time>
      </trkpt>
      <trkpt lat="44.63201" lon="7.06231">
        <ele>1917.4</ele>
        <time>2026-09-01T06:38:33Z</time>
      </trkpt>
      <trkpt lat="44.63203" lon="7.06236">
        <ele>1917.1</ele>
        <time>2026-09-01T06:38:38Z</time>
      </trkpt>
      <trkpt lat="44.63208" lon="7.0624">
        <ele>1917.4</ele>
        <time>2026-09-01T06:38:43Z</time>
      </trkpt>
      <trkpt lat="44.63211" lon="7.06243">
        <ele>1917.6</ele>
        <time>2026-09-01T06:38:49Z</time>
      </trkpt>
      <trkpt lat="44.63211" lon="7.06243">
        <ele>1917.6</ele>
        <time>2026-09-01T06:38:54Z</time>
      </trkpt>
      <trkpt lat="44.63211" lon="7.06243">
        <ele>1917.6</ele>
        <time>2026-09-01T06:38:59Z</time>
      </trkpt>
      <trkpt lat="44.63211" lon="7.06243">
        <ele>1917.6</ele>
        <time>2026-09-01T06:39:05Z</time>
      </trkpt>
      <trkpt lat="44.63211" lon="7.06243">
        <ele>1917.6</ele>
        <time>2026-09-01T06:39:10Z</time>
      </trkpt>
      <trkpt lat="44.63211" lon="7.06243">
        <ele>1917.6</ele>
        <time>2026-09-01T06:39:15Z</time>
      </trkpt>
      <trkpt lat="44.63205" lon="7.06241">
        <ele>1916.7</ele>
        <time>2026-09-01T06:39:21Z</time>
      </trkpt>
      <trkpt lat="44.632" lon="7.06241">
        <ele>1915.7</ele>
        <time>2026-09-01T06:39:26Z</time>
      </trkpt>
      <trkpt lat="44.63194" lon="7.06242">
        <ele>1914.4</ele>
        <time>2026-09-01T06:39:31Z</time>
      </trkpt>
      <trkpt lat="44.63187" lon="7.06244">
        <ele>1912.8</ele>
        <time>2026-09-01T06:39:37Z</time>
      </trkpt>
      <trkpt lat="44.63183" lon="7.06242">
        <ele>1912.3</ele>
        <time>2026-09-01T06:39:42Z</time>
      </trkpt>
      <trkpt lat="44.63178" lon="7.06239">
        <ele>1911.8</ele>
        <time>2026-09-01T06:39:47Z</time>
      </trkpt>
      <trkpt lat="44.63172" lon="7.06236">
        <ele>1911.1</ele>
        <time>2026-09-01T06:39:53Z</time>
      </trkpt>
      <trkpt lat="44.63167" lon="7.06239">
        <ele>1909.6</ele>
        <time>2026-09-01T06:39:58Z</time>
      </trkpt>
      <trkpt lat="44.63161" lon="7.0624">
        <ele>1908.4</ele>
        <time>2026-09-01T06:40:03Z</time>
      </trkpt>
      <trkpt lat="44.63156" lon="7.06243">
        <ele>1907</ele>
        <time>2026-09-01T06:40:09Z</time>
      </trkpt>
      <trkpt lat="44.63154" lon="7.06249">
        <ele>1905.7</ele>
        <time>2026-09-01T06:40:14Z</time>
      </trkpt>
      <trkpt lat="44.63147" lon="7.0625">
        <ele>1904.2</ele>
        <time>2026-09-01T06:40:19Z</time>
      </trkpt>
      <trkpt lat="44.63141" lon="7.06255">
        <ele>1904.1</ele>
        <time>2026-09-01T06:40:25Z</time>
      </trkpt>
      <trkpt lat="44.63136" lon="7.06261">
        <ele>1904.2</ele>
        <time>2026-09-01T06:40:30Z</time>
      </trkpt>
      <trkpt lat="44.63132" lon="7.06267">
        <ele>1904.5</ele>
        <time>2026-09-01T06:40:35Z</time>
      </trkpt>
      <trkpt lat="44.63131" lon="7.0627">
        <ele>1904.9</ele>
        <time>2026-09-01T06:40:41Z</time>
      </trkpt>
      <trkpt lat="44.63131" lon="7.0627">
        <ele>1904.9</ele>
        <time>2026-09-01T06:40:46Z</time>
      </trkpt>
      <trkpt lat="44.63131" lon="7.0627">
        <ele>1904.9</ele>
        <time>2026-09-01T06:40:51Z</time>
      </trkpt>
      <trkpt lat="44.63136" lon="7.06269">
        <ele>1905.8</ele>
        <time>2026-09-01T06:40:57Z</time>
      </trkpt>
      <trkpt lat="44.63142" lon="7.06266">
        <ele>1906.5</ele>
        <time>2026-09-01T06:41:02Z</time>
      </trkpt>
      <trkpt lat="44.63148" lon="7.06261">
        <ele>1906.7</ele>
        <time>2026-09-01T06:41:07Z</time>
      </trkpt>
      <trkpt lat="44.63154" lon="7.06259">
        <ele>1907.5</ele>
        <time>2026-09-01T06:41:13Z</time>
      </trkpt>
      <trkpt lat="44.63157" lon="7.06253">
        <ele>1906.8</ele>
        <time>2026-09-01T06:41:18Z</time>
      </trkpt>
      <trkpt lat="44.63159" lon="7.06253">
        <ele>1907.2</ele>
        <time>2026-09-01T06:41:23Z</time>
      </trkpt>
      <trkpt lat="44.63169" lon="7.06252">
        <ele>1908.9</ele>
        <time>2026-09-01T06:41:29Z</time>
      </trkpt>
      <trkpt lat="44.63171" lon="7.06244">
        <ele>1909.7</ele>
        <time>2026-09-01T06:41:34Z</time>
      </trkpt>
      <trkpt lat="44.63176" lon="7.06241">
        <ele>1911.1</ele>
        <time>2026-09-01T06:41:39Z</time>
      </trkpt>
      <trkpt lat="44.63181" lon="7.06239">
        <ele>1912.4</ele>
        <time>2026-09-01T06:41:45Z</time>
      </trkpt>
      <trkpt lat="44.63186" lon="7.06243">
        <ele>1912.7</ele>
        <time>2026-09-01T06:41:50Z</time>
      </trkpt>
      <trkpt lat="44.63189" lon="7.06242">
        <ele>1913.5</ele>
        <time>2026-09-01T06:41:55Z</time>
      </trkpt>
      <trkpt lat="44.63195" lon="7.06244">
        <ele>1914.3</ele>
        <time>2026-09-01T06:42:01Z</time>
      </trkpt>
      <trkpt lat="44.63201" lon="7.06246">
        <ele>1915.2</ele>
        <time>2026-09-01T06:42:06Z</time>
      </trkpt>
      <trkpt lat="44.63207" lon="7.06248">
        <ele>1916</ele>
        <time>2026-09-01T06:42:11Z</time>
      </trkpt>
      <trkpt lat="44.63214" lon="7.0625">
        <ele>1917.1</ele>
        <time>2026-09-01T06:42:17Z</time>
      </trkpt>
      <trkpt lat="44.63217" lon="7.06247">
        <ele>1918.1</ele>
        <time>2026-09-01T06:42:22Z</time>
      </trkpt>
      <trkpt lat="44.63221" lon="7.06245">
        <ele>1919.2</ele>
        <time>2026-09-01T06:42:27Z</time>
      </trkpt>
      <trkpt lat="44.63225" lon="7.06248">
        <ele>1919.5</ele>
        <time>2026-09-01T06:42:33Z</time>
      </trkpt>
      <trkpt lat="44.63227" lon="7.06249">
        <ele>1919.7</ele>
        <time>2026-09-01T06:42:38Z</time>
      </trkpt>
      <trkpt lat="44.63229" lon="7.06252">
        <ele>1920.5</ele>
        <time>2026-09-01T06:42:43Z</time>
      </trkpt>
      <trkpt lat="44.6323" lon="7.06256">
        <ele>1921.7</ele>
        <time>2026-09-01T06:42:49Z</time>
      </trkpt>
      <trkpt lat="44.63228" lon="7.06258">
        <ele>1921.8</ele>
        <time>2026-09-01T06:42:54Z</time>
      </trkpt>
      <trkpt lat="44.63226" lon="7.0626">
        <ele>1921.9</ele>
        <time>2026-09-01T06:42:59Z</time>
      </trkpt>
      <trkpt lat="44.63223" lon="7.06258">
        <ele>1920.8</ele>
        <time>2026-09-01T06:43:05Z</time>
      </trkpt>
      <trkpt lat="44.63219" lon="7.06257">
        <ele>1919.8</ele>
        <time>2026-09-01T06:43:10Z</time>
      </trkpt>
      <trkpt lat="44.63214" lon="7.06256">
        <ele>1918.6</ele>
        <time>2026-09-01T06:43:15Z</time>
      </trkpt>
      <trkpt lat="44.63209" lon="7.06253">
        <ele>1916.9</ele>
        <time>2026-09-01T06:43:21Z</time>
      </trkpt>
      <trkpt lat="44.63206" lon="7.06251">
        <ele>1915.8</ele>
        <time>2026-09-01T06:43:26Z</time>
      </trkpt>
      <trkpt lat="44.63206" lon="7.06254">
        <ele>1916.5</ele>
        <time>2026-09-01T06:43:31Z</time>
      </trkpt>
      <trkpt lat="44.63207" lon="7.06262">
        <ele>1918.7</ele>
        <time>2026-09-01T06:43:37Z</time>
      </trkpt>
      <trkpt lat="44.63208" lon="7.06266">
        <ele>1919.9</ele>
        <time>2026-09-01T06:43:42Z</time>
      </trkpt>
      <trkpt lat="44.6321" lon="7.0627">
        <ele>1921.3</ele>
        <time>2026-09-01T06:43:47Z</time>
      </trkpt>
      <trkpt lat="44.63211" lon="7.06275">
        <ele>1922.7</ele>
        <time>2026-09-01T06:43:53Z</time>
      </trkpt>
      <trkpt lat="44.63211" lon="7.06276">
        <ele>1922.9</ele>
        <time>2026-09-01T06:43:58Z</time>
      </trkpt>
      <trkpt lat="44.63209" lon="7.06279">
        <ele>1923.3</ele>
        <time>2026-09-01T06:44:03Z</time>
      </trkpt>
      <trkpt lat="44.63209" lon="7.06279">
        <ele>1923.3</ele>
        <time>2026-09-01T06:44:09Z</time>
      </trkpt>
      <trkpt lat="44.63209" lon="7.06279">
        <ele>1923.3</ele>
        <time>2026-09-01T06:44:14Z</time>
      </trkpt>
      <trkpt lat="44.63209" lon="7.06279">
        <ele>1923.3</ele>
        <time>2026-09-01T06:44:19Z</time>
      </trkpt>
      <trkpt lat="44.63209" lon="7.06279">
        <ele>1923.3</ele>
        <time>2026-09-01T06:44:25Z</time>
      </trkpt>
      <trkpt lat="44.63209" lon="7.06279">
        <ele>1923.3</ele>
        <time>2026-09-01T06:44:30Z</time>
      </trkpt>
      <trkpt lat="44.63209" lon="7.06279">
        <ele>1923.3</ele>
        <time>2026-09-01T06:44:35Z</time>
      </trkpt>
      <trkpt lat="44.63209" lon="7.06279">
        <ele>1923.3</ele>
        <time>2026-09-01T06:44:41Z</time>
      </trkpt>
      <trkpt lat="44.63209" lon="7.06279">
        <ele>1923.3</ele>
        <time>2026-09-01T06:44:46Z</time>
      </trkpt>
      <trkpt lat="44.63209" lon="7.06279">
        <ele>1923.3</ele>
        <time>2026-09-01T06:44:51Z</time>
      </trkpt>
      <trkpt lat="44.63209" lon="7.06279">
        <ele>1923.3</ele>
        <time>2026-09-01T06:44:57Z</time>
      </trkpt>
      <trkpt lat="44.63209" lon="7.06279">
        <ele>1923.3</ele>
        <time>2026-09-01T06:45:02Z</time>
      </trkpt>
      <trkpt lat="44.63209" lon="7.06279">
        <ele>1923.3</ele>
        <time>2026-09-01T06:45:07Z</time>
      </trkpt>
      <trkpt lat="44.63209" lon="7.06279">
        <ele>1923.3</ele>
        <time>2026-09-01T06:45:13Z</time>
      </trkpt>
      <trkpt lat="44.63209" lon="7.0628">
        <ele>1923.5</ele>
        <time>2026-09-01T06:45:18Z</time>
      </trkpt>
      <trkpt lat="44.63211" lon="7.0628">
        <ele>1923.9</ele>
        <time>2026-09-01T06:45:23Z</time>
      </trkpt>
      <trkpt lat="44.63211" lon="7.0628">
        <ele>1923.9</ele>
        <time>2026-09-01T06:45:29Z</time>
      </trkpt>
      <trkpt lat="44.63211" lon="7.0628">
        <ele>1923.9</ele>
        <time>2026-09-01T06:45:34Z</time>
      </trkpt>
      <trkpt lat="44.63211" lon="7.0628">
        <ele>1923.9</ele>
        <time>2026-09-01T06:45:39Z</time>
      </trkpt>
      <trkpt lat="44.63211" lon="7.0628">
        <ele>1923.9</ele>
        <time>2026-09-01T06:45:45Z</time>
      </trkpt>
      <trkpt lat="44.63211" lon="7.0628">
        <ele>1923.9</ele>
        <time>2026-09-01T06:45:50Z</time>
      </trkpt>
      <trkpt lat="44.63211" lon="7.0628">
        <ele>1923.9</ele>
        <time>2026-09-01T06:45:55Z</time>
      </trkpt>
      <trkpt lat="44.63211" lon="7.0628">
        <ele>1923.9</ele>
        <time>2026-09-01T06:46:01Z</time>
      </trkpt>
      <trkpt lat="44.63211" lon="7.0628">
        <ele>1923.9</ele>
        <time>2026-09-01T06:46:06Z</time>
      </trkpt>
      <trkpt lat="44.63211" lon="7.0628">
        <ele>1923.9</ele>
        <time>2026-09-01T06:46:11Z</time>
      </trkpt>
      <trkpt lat="44.63211" lon="7.0628">
        <ele>1923.9</ele>
        <time>2026-09-01T06:46:17Z</time>
      </trkpt>
      <trkpt lat="44.63211" lon="7.0628">
        <ele>1923.9</ele>
        <time>2026-09-01T06:46:22Z</time>
      </trkpt>
      <trkpt lat="44.63211" lon="7.0628">
        <ele>1923.9</ele>
        <time>2026-09-01T06:46:27Z</time>
      </trkpt>
      <trkpt lat="44.63211" lon="7.0628">
        <ele>1923.9</ele>
        <time>2026-09-01T06:46:33Z</time>
      </trkpt>
      <trkpt lat="44.63219" lon="7.06289">
        <ele>1927.8</ele>
        <time>2026-09-01T06:46:38Z</time>
      </trkpt>
      <trkpt lat="44.6322" lon="7.06293">
        <ele>1929</ele>
        <time>2026-09-01T06:46:43Z</time>
      </trkpt>
      <trkpt lat="44.6322" lon="7.06296">
        <ele>1929.8</ele>
        <time>2026-09-01T06:46:49Z</time>
      </trkpt>
      <trkpt lat="44.63222" lon="7.06298">
        <ele>1930.7</ele>
        <time>2026-09-01T06:46:54Z</time>
      </trkpt>
      <trkpt lat="44.63226" lon="7.06299">
        <ele>1931.8</ele>
        <time>2026-09-01T06:46:59Z</time>
      </trkpt>
      <trkpt lat="44.63228" lon="7.06302">
        <ele>1933</ele>
        <time>2026-09-01T06:47:05Z</time>
      </trkpt>
      <trkpt lat="44.63228" lon="7.06302">
        <ele>1933</ele>
        <time>2026-09-01T06:47:10Z</time>
      </trkpt>
      <trkpt lat="44.63228" lon="7.06302">
        <ele>1933</ele>
        <time>2026-09-01T06:47:15Z</time>
      </trkpt>
      <trkpt lat="44.63228" lon="7.06302">
        <ele>1933</ele>
        <time>2026-09-01T06:47:21Z</time>
      </trkpt>
      <trkpt lat="44.63234" lon="7.06311">
        <ele>1936.6</ele>
        <time>2026-09-01T06:47:26Z</time>
      </trkpt>
      <trkpt lat="44.63234" lon="7.06311">
        <ele>1936.6</ele>
        <time>2026-09-01T06:47:31Z</time>
      </trkpt>
      <trkpt lat="44.63234" lon="7.06311">
        <ele>1936.6</ele>
        <time>2026-09-01T06:47:37Z</time>
      </trkpt>
      <trkpt lat="44.63242" lon="7.06313">
        <ele>1938.9</ele>
        <time>2026-09-01T06:47:42Z</time>
      </trkpt>
      <trkpt lat="44.63244" lon="7.06314">
        <ele>1939.6</ele>
        <time>2026-09-01T06:47:47Z</time>
      </trkpt>
      <trkpt lat="44.63245" lon="7.06314">
        <ele>1939.8</ele>
        <time>2026-09-01T06:47:53Z</time>
      </trkpt>
      <trkpt lat="44.63245" lon="7.06314">
        <ele>1939.8</ele>
        <time>2026-09-01T06:47:58Z</time>
      </trkpt>
      <trkpt lat="44.63245" lon="7.06314">
        <ele>1939.8</ele>
        <time>2026-09-01T06:48:03Z</time>
      </trkpt>
      <trkpt lat="44.63245" lon="7.06314">
        <ele>1939.8</ele>
        <time>2026-09-01T06:48:09Z</time>
      </trkpt>
      <trkpt lat="44.63245" lon="7.06314">
        <ele>1939.8</ele>
        <time>2026-09-01T06:48:14Z</time>
      </trkpt>
      <trkpt lat="44.63245" lon="7.06314">
        <ele>1939.8</ele>
        <time>2026-09-01T06:48:19Z</time>
      </trkpt>
      <trkpt lat="44.63245" lon="7.06314">
        <ele>1939.8</ele>
        <time>2026-09-01T06:48:25Z</time>
      </trkpt>
      <trkpt lat="44.63251" lon="7.06314">
        <ele>1941</ele>
        <time>2026-09-01T06:48:30Z</time>
      </trkpt>
      <trkpt lat="44.63254" lon="7.06316">
        <ele>1942</ele>
        <time>2026-09-01T06:48:35Z</time>
      </trkpt>
      <trkpt lat="44.63256" lon="7.06317">
        <ele>1942.6</ele>
        <time>2026-09-01T06:48:41Z</time>
      </trkpt>
      <trkpt lat="44.63261" lon="7.06317">
        <ele>1943.4</ele>
        <time>2026-09-01T06:48:46Z</time>
      </trkpt>
      <trkpt lat="44.63261" lon="7.06317">
        <ele>1943.4</ele>
        <time>2026-09-01T06:48:51Z</time>
      </trkpt>
      <trkpt lat="44.63261" lon="7.06317">
        <ele>1943.4</ele>
        <time>2026-09-01T06:48:57Z</time>
      </trkpt>
      <trkpt lat="44.63261" lon="7.06317">
        <ele>1943.4</ele>
        <time>2026-09-01T06:49:02Z</time>
      </trkpt>
      <trkpt lat="44.63261" lon="7.06317">
        <ele>1943.4</ele>
        <time>2026-09-01T06:49:07Z</time>
      </trkpt>
      <trkpt lat="44.63261" lon="7.06317">
        <ele>1943.4</ele>
        <time>2026-09-01T06:49:13Z</time>
      </trkpt>
      <trkpt lat="44.63261" lon="7.06317">
        <ele>1943.4</ele>
        <time>2026-09-01T06:49:18Z</time>
      </trkpt>
      <trkpt lat="44.63261" lon="7.06317">
        <ele>1943.4</ele>
        <time>2026-09-01T06:49:23Z</time>
      </trkpt>
      <trkpt lat="44.63261" lon="7.06317">
        <ele>1943.4</ele>
        <time>2026-09-01T06:49:29Z</time>
      </trkpt>
      <trkpt lat="44.63261" lon="7.06317">
        <ele>1943.4</ele>
        <time>2026-09-01T06:49:34Z</time>
      </trkpt>
      <trkpt lat="44.63256" lon="7.06329">
        <ele>1945.9</ele>
        <time>2026-09-01T06:49:39Z</time>
      </trkpt>
      <trkpt lat="44.63256" lon="7.06329">
        <ele>1945.9</ele>
        <time>2026-09-01T06:49:45Z</time>
      </trkpt>
      <trkpt lat="44.63256" lon="7.06329">
        <ele>1945.9</ele>
        <time>2026-09-01T06:49:50Z</time>
      </trkpt>
      <trkpt lat="44.63251" lon="7.06334">
        <ele>1946.4</ele>
        <time>2026-09-01T06:49:55Z</time>
      </trkpt>
      <trkpt lat="44.63249" lon="7.06339">
        <ele>1947.7</ele>
        <time>2026-09-01T06:50:01Z</time>
      </trkpt>
      <trkpt lat="44.63246" lon="7.06342">
        <ele>1948.1</ele>
        <time>2026-09-01T06:50:06Z</time>
      </trkpt>
      <trkpt lat="44.63244" lon="7.06344">
        <ele>1948.3</ele>
        <time>2026-09-01T06:50:11Z</time>
      </trkpt>
      <trkpt lat="44.63242" lon="7.06343">
        <ele>1947.5</ele>
        <time>2026-09-01T06:50:17Z</time>
      </trkpt>
      <trkpt lat="44.6324" lon="7.06345">
        <ele>1947.7</ele>
        <time>2026-09-01T06:50:22Z</time>
      </trkpt>
      <trkpt lat="44.6324" lon="7.06345">
        <ele>1947.7</ele>
        <time>2026-09-01T06:50:27Z</time>
      </trkpt>
      <trkpt lat="44.6324" lon="7.06345">
        <ele>1947.7</ele>
        <time>2026-09-01T06:50:33Z</time>
      </trkpt>
      <trkpt lat="44.6324" lon="7.06345">
        <ele>1947.7</ele>
        <time>2026-09-01T06:50:38Z</time>
      </trkpt>
      <trkpt lat="44.63233" lon="7.06357">
        <ele>1950.1</ele>
        <time>2026-09-01T06:50:43Z</time>
      </trkpt>
      <trkpt lat="44.6323" lon="7.06357">
        <ele>1949.3</ele>
        <time>2026-09-01T06:50:49Z</time>
      </trkpt>
      <trkpt lat="44.63227" lon="7.06356">
        <ele>1948.3</ele>
        <time>2026-09-01T06:50:54Z</time>
      </trkpt>
      <trkpt lat="44.63224" lon="7.06356">
        <ele>1947.5</ele>
        <time>2026-09-01T06:50:59Z</time>
      </trkpt>
      <trkpt lat="44.63221" lon="7.06356">
        <ele>1946.8</ele>
        <time>2026-09-01T06:51:05Z</time>
      </trkpt>
      <trkpt lat="44.63219" lon="7.06363">
        <ele>1948.6</ele>
        <time>2026-09-01T06:51:10Z</time>
      </trkpt>
      <trkpt lat="44.63219" lon="7.06368">
        <ele>1950.2</ele>
        <time>2026-09-01T06:51:15Z</time>
      </trkpt>
      <trkpt lat="44.63216" lon="7.06376">
        <ele>1952.1</ele>
        <time>2026-09-01T06:51:21Z</time>
      </trkpt>
      <trkpt lat="44.63214" lon="7.06378">
        <ele>1952.2</ele>
        <time>2026-09-01T06:51:26Z</time>
      </trkpt>
      <trkpt lat="44.6321" lon="7.06382">
        <ele>1952.4</ele>
        <time>2026-09-01T06:51:31Z</time>
      </trkpt>
      <trkpt lat="44.63205" lon="7.06387">
        <ele>1952.7</ele>
        <time>2026-09-01T06:51:37Z</time>
      </trkpt>
      <trkpt lat="44.63202" lon="7.06388">
        <ele>1952.2</ele>
        <time>2026-09-01T06:51:42Z</time>
      </trkpt>
      <trkpt lat="44.63201" lon="7.0639">
        <ele>1952.5</ele>
        <time>2026-09-01T06:51:47Z</time>
      </trkpt>
      <trkpt lat="44.63198" lon="7.06392">
        <ele>1952.4</ele>
        <time>2026-09-01T06:51:53Z</time>
      </trkpt>
      <trkpt lat="44.63195" lon="7.06393">
        <ele>1951.9</ele>
        <time>2026-09-01T06:51:58Z</time>
      </trkpt>
      <trkpt lat="44.63191" lon="7.06396">
        <ele>1951.7</ele>
        <time>2026-09-01T06:52:03Z</time>
      </trkpt>
      <trkpt lat="44.63188" lon="7.06399">
        <ele>1951.8</ele>
        <time>2026-09-01T06:52:09Z</time>
      </trkpt>
      <trkpt lat="44.63187" lon="7.06403">
        <ele>1952.7</ele>
        <time>2026-09-01T06:52:14Z</time>
      </trkpt>
      <trkpt lat="44.63186" lon="7.06409">
        <ele>1954.3</ele>
        <time>2026-09-01T06:52:19Z</time>
      </trkpt>
      <trkpt lat="44.63184" lon="7.06415">
        <ele>1955.5</ele>
        <time>2026-09-01T06:52:25Z</time>
      </trkpt>
      <trkpt lat="44.63181" lon="7.06417">
        <ele>1955.2</ele>
        <time>2026-09-01T06:52:30Z</time>
      </trkpt>
      <trkpt lat="44.6318" lon="7.06419">
        <ele>1955.5</ele>
        <time>2026-09-01T06:52:35Z</time>
      </trkpt>
      <trkpt lat="44.63178" lon="7.06422">
        <ele>1955.8</ele>
        <time>2026-09-01T06:52:41Z</time>
      </trkpt>
      <trkpt lat="44.63176" lon="7.06424">
        <ele>1955.8</ele>
        <time>2026-09-01T06:52:46Z</time>
      </trkpt>
      <trkpt lat="44.63175" lon="7.06428">
        <ele>1956.6</ele>
        <time>2026-09-01T06:52:51Z</time>
      </trkpt>
      <trkpt lat="44.63174" lon="7.06432">
        <ele>1957.5</ele>
        <time>2026-09-01T06:52:57Z</time>
      </trkpt>
      <trkpt lat="44.63174" lon="7.06436">
        <ele>1958.6</ele>
        <time>2026-09-01T06:53:02Z</time>
      </trkpt>
      <trkpt lat="44.63174" lon="7.06439">
        <ele>1959.5</ele>
        <time>2026-09-01T06:53:07Z</time>
      </trkpt>
      <trkpt lat="44.63173" lon="7.06444">
        <ele>1960.7</ele>
        <time>2026-09-01T06:53:13Z</time>
      </trkpt>
      <trkpt lat="44.63173" lon="7.06449">
        <ele>1962.1</ele>
        <time>2026-09-01T06:53:18Z</time>
      </trkpt>
      <trkpt lat="44.63173" lon="7.06454">
        <ele>1963.6</ele>
        <time>2026-09-01T06:53:23Z</time>
      </trkpt>
      <trkpt lat="44.63174" lon="7.06456">
        <ele>1964.4</ele>
        <time>2026-09-01T06:53:29Z</time>
      </trkpt>
      <trkpt lat="44.63175" lon="7.06458">
        <ele>1965.2</ele>
        <time>2026-09-01T06:53:34Z</time>
      </trkpt>
      <trkpt lat="44.63174" lon="7.06462">
        <ele>1966.1</ele>
        <time>2026-09-01T06:53:39Z</time>
      </trkpt>
      <trkpt lat="44.63172" lon="7.06468">
        <ele>1967.4</ele>
        <time>2026-09-01T06:53:45Z</time>
      </trkpt>
      <trkpt lat="44.6317" lon="7.06471">
        <ele>1967.9</ele>
        <time>2026-09-01T06:53:50Z</time>
      </trkpt>
      <trkpt lat="44.63168" lon="7.06475">
        <ele>1968.7</ele>
        <time>2026-09-01T06:53:55Z</time>
      </trkpt>
      <trkpt lat="44.63165" lon="7.06478">
        <ele>1969</ele>
        <time>2026-09-01T06:54:01Z</time>
      </trkpt>
      <trkpt lat="44.63161" lon="7.06481">
        <ele>1969.1</ele>
        <time>2026-09-01T06:54:06Z</time>
      </trkpt>
      <trkpt lat="44.63159" lon="7.06485">
        <ele>1969.9</ele>
        <time>2026-09-01T06:54:11Z</time>
      </trkpt>
      <trkpt lat="44.63155" lon="7.06489">
        <ele>1970.3</ele>
        <time>2026-09-01T06:54:17Z</time>
      </trkpt>
      <trkpt lat="44.63154" lon="7.06495">
        <ele>1972</ele>
        <time>2026-09-01T06:54:22Z</time>
      </trkpt>
      <trkpt lat="44.63154" lon="7.065">
        <ele>1973.6</ele>
        <time>2026-09-01T06:54:27Z</time>
      </trkpt>
      <trkpt lat="44.63152" lon="7.06504">
        <ele>1974.4</ele>
        <time>2026-09-01T06:54:33Z</time>
      </trkpt>
      <trkpt lat="44.63152" lon="7.06506">
        <ele>1975</ele>
        <time>2026-09-01T06:54:38Z</time>
      </trkpt>
      <trkpt lat="44.63151" lon="7.06507">
        <ele>1975.1</ele>
        <time>2026-09-01T06:54:43Z</time>
      </trkpt>
      <trkpt lat="44.63149" lon="7.06513">
        <ele>1976.5</ele>
        <time>2026-09-01T06:54:49Z</time>
      </trkpt>
      <trkpt lat="44.63149" lon="7.06515">
        <ele>1977.1</ele>
        <time>2026-09-01T06:54:54Z</time>
      </trkpt>
      <trkpt lat="44.63147" lon="7.06521">
        <ele>1978.6</ele>
        <time>2026-09-01T06:54:59Z</time>
      </trkpt>
      <trkpt lat="44.63144" lon="7.06525">
        <ele>1979.3</ele>
        <time>2026-09-01T06:55:05Z</time>
      </trkpt>
      <trkpt lat="44.6314" lon="7.06529">
        <ele>1979.9</ele>
        <time>2026-09-01T06:55:10Z</time>
      </trkpt>
      <trkpt lat="44.63139" lon="7.06531">
        <ele>1980.4</ele>
        <time>2026-09-01T06:55:15Z</time>
      </trkpt>
      <trkpt lat="44.63135" lon="7.06536">
        <ele>1981.3</ele>
        <time>2026-09-01T06:55:21Z</time>
      </trkpt>
      <trkpt lat="44.63133" lon="7.0654">
        <ele>1982.3</ele>
        <time>2026-09-01T06:55:26Z</time>
      </trkpt>
      <trkpt lat="44.6313" lon="7.06542">
        <ele>1982.5</ele>
        <time>2026-09-01T06:55:31Z</time>
      </trkpt>
      <trkpt lat="44.63125" lon="7.06543">
        <ele>1982.2</ele>
        <time>2026-09-01T06:55:37Z</time>
      </trkpt>
      <trkpt lat="44.63119" lon="7.06543">
        <ele>1981.4</ele>
        <time>2026-09-01T06:55:42Z</time>
      </trkpt>
      <trkpt lat="44.63114" lon="7.06545">
        <ele>1981.4</ele>
        <time>2026-09-01T06:55:47Z</time>
      </trkpt>
      <trkpt lat="44.63111" lon="7.06546">
        <ele>1981.3</ele>
        <time>2026-09-01T06:55:53Z</time>
      </trkpt>
      <trkpt lat="44.63108" lon="7.06543">
        <ele>1979.9</ele>
        <time>2026-09-01T06:55:58Z</time>
      </trkpt>
      <trkpt lat="44.63103" lon="7.06545">
        <ele>1979.9</ele>
        <time>2026-09-01T06:56:03Z</time>
      </trkpt>
      <trkpt lat="44.63098" lon="7.06549">
        <ele>1980.7</ele>
        <time>2026-09-01T06:56:09Z</time>
      </trkpt>
      <trkpt lat="44.63094" lon="7.06553">
        <ele>1981.7</ele>
        <time>2026-09-01T06:56:14Z</time>
      </trkpt>
      <trkpt lat="44.63089" lon="7.0656">
        <ele>1983.7</ele>
        <time>2026-09-01T06:56:19Z</time>
      </trkpt>
      <trkpt lat="44.63084" lon="7.06563">
        <ele>1984.3</ele>
        <time>2026-09-01T06:56:25Z</time>
      </trkpt>
      <trkpt lat="44.63077" lon="7.0656">
        <ele>1982.7</ele>
        <time>2026-09-01T06:56:30Z</time>
      </trkpt>
      <trkpt lat="44.63073" lon="7.06561">
        <ele>1982.8</ele>
        <time>2026-09-01T06:56:35Z</time>
      </trkpt>
      <trkpt lat="44.63069" lon="7.06562">
        <ele>1983</ele>
        <time>2026-09-01T06:56:41Z</time>
      </trkpt>
      <trkpt lat="44.63065" lon="7.06565">
        <ele>1983.8</ele>
        <time>2026-09-01T06:56:46Z</time>
      </trkpt>
      <trkpt lat="44.63062" lon="7.0657">
        <ele>1985.5</ele>
        <time>2026-09-01T06:56:51Z</time>
      </trkpt>
      <trkpt lat="44.63057" lon="7.06572">
        <ele>1985.9</ele>
        <time>2026-09-01T06:56:57Z</time>
      </trkpt>
      <trkpt lat="44.63053" lon="7.06576">
        <ele>1987.1</ele>
        <time>2026-09-01T06:57:02Z</time>
      </trkpt>
      <trkpt lat="44.6305" lon="7.06581">
        <ele>1988.7</ele>
        <time>2026-09-01T06:57:07Z</time>
      </trkpt>
      <trkpt lat="44.63045" lon="7.06585">
        <ele>1989.9</ele>
        <time>2026-09-01T06:57:13Z</time>
      </trkpt>
      <trkpt lat="44.63039" lon="7.06585">
        <ele>1989.5</ele>
        <time>2026-09-01T06:57:18Z</time>
      </trkpt>
      <trkpt lat="44.63035" lon="7.06588">
        <ele>1990.4</ele>
        <time>2026-09-01T06:57:23Z</time>
      </trkpt>
      <trkpt lat="44.63031" lon="7.06591">
        <ele>1991.3</ele>
        <time>2026-09-01T06:57:29Z</time>
      </trkpt>
      <trkpt lat="44.63026" lon="7.06591">
        <ele>1990.9</ele>
        <time>2026-09-01T06:57:34Z</time>
      </trkpt>
      <trkpt lat="44.63021" lon="7.06595">
        <ele>1992</ele>
        <time>2026-09-01T06:57:39Z</time>
      </trkpt>
      <trkpt lat="44.63014" lon="7.066">
        <ele>1993.4</ele>
        <time>2026-09-01T06:57:45Z</time>
      </trkpt>
      <trkpt lat="44.63009" lon="7.06602">
        <ele>1993.7</ele>
        <time>2026-09-01T06:57:50Z</time>
      </trkpt>
      <trkpt lat="44.63003" lon="7.06606">
        <ele>1994.7</ele>
        <time>2026-09-01T06:57:55Z</time>
      </trkpt>
      <trkpt lat="44.62996" lon="7.06609">
        <ele>1995.3</ele>
        <time>2026-09-01T06:58:01Z</time>
      </trkpt>
      <trkpt lat="44.62991" lon="7.06613">
        <ele>1996.5</ele>
        <time>2026-09-01T06:58:06Z</time>
      </trkpt>
      <trkpt lat="44.62986" lon="7.06613">
        <ele>1996.3</ele>
        <time>2026-09-01T06:58:11Z</time>
      </trkpt>
      <trkpt lat="44.62978" lon="7.06615">
        <ele>1996.6</ele>
        <time>2026-09-01T06:58:17Z</time>
      </trkpt>
      <trkpt lat="44.62974" lon="7.06619">
        <ele>1997.8</ele>
        <time>2026-09-01T06:58:22Z</time>
      </trkpt>
      <trkpt lat="44.62969" lon="7.06617">
        <ele>1996.8</ele>
        <time>2026-09-01T06:58:27Z</time>
      </trkpt>
      <trkpt lat="44.62965" lon="7.06614">
        <ele>1995.5</ele>
        <time>2026-09-01T06:58:33Z</time>
      </trkpt>
      <trkpt lat="44.62962" lon="7.06612">
        <ele>1994.5</ele>
        <time>2026-09-01T06:58:38Z</time>
      </trkpt>
      <trkpt lat="44.62959" lon="7.06609">
        <ele>1993.2</ele>
        <time>2026-09-01T06:58:43Z</time>
      </trkpt>
      <trkpt lat="44.62954" lon="7.06611">
        <ele>1993.7</ele>
        <time>2026-09-01T06:58:49Z</time>
      </trkpt>
      <trkpt lat="44.62948" lon="7.06609">
        <ele>1992.6</ele>
        <time>2026-09-01T06:58:54Z</time>
      </trkpt>
      <trkpt lat="44.62941" lon="7.06609">
        <ele>1992.2</ele>
        <time>2026-09-01T06:58:59Z</time>
      </trkpt>
      <trkpt lat="44.62936" lon="7.0661">
        <ele>1992.3</ele>
        <time>2026-09-01T06:59:05Z</time>
      </trkpt>
      <trkpt lat="44.6293" lon="7.0661">
        <ele>1992</ele>
        <time>2026-09-01T06:59:10Z</time>
      </trkpt>
      <trkpt lat="44.62923" lon="7.06614">
        <ele>1993.1</ele>
        <time>2026-09-01T06:59:15Z</time>
      </trkpt>
      <trkpt lat="44.62919" lon="7.0662">
        <ele>1995.2</ele>
        <time>2026-09-01T06:59:21Z</time>
      </trkpt>
      <trkpt lat="44.62915" lon="7.06625">
        <ele>1996.9</ele>
        <time>2026-09-01T06:59:26Z</time>
      </trkpt>
      <trkpt lat="44.62913" lon="7.06628">
        <ele>1997.9</ele>
        <time>2026-09-01T06:59:31Z</time>
      </trkpt>
      <trkpt lat="44.62907" lon="7.06623">
        <ele>1995.6</ele>
        <time>2026-09-01T06:59:37Z</time>
      </trkpt>
      <trkpt lat="44.62903" lon="7.06623">
        <ele>1995.3</ele>
        <time>2026-09-01T06:59:42Z</time>
      </trkpt>
      <trkpt lat="44.62901" lon="7.06625">
        <ele>1995.9</ele>
        <time>2026-09-01T06:59:47Z</time>
      </trkpt>
      <trkpt lat="44.62899" lon="7.0663">
        <ele>1997.6</ele>
        <time>2026-09-01T06:59:53Z</time>
      </trkpt>
      <trkpt lat="44.62897" lon="7.06633">
        <ele>1998.5</ele>
        <time>2026-09-01T06:59:58Z</time>
      </trkpt>
      <trkpt lat="44.62892" lon="7.06634">
        <ele>1998.5</ele>
        <time>2026-09-01T07:00:03Z</time>
      </trkpt>
      <trkpt lat="44.62886" lon="7.06636">
        <ele>1998.7</ele>
        <time>2026-09-01T07:00:09Z</time>
      </trkpt>
      <trkpt lat="44.62881" lon="7.06637">
        <ele>1998.7</ele>
        <time>2026-09-01T07:00:14Z</time>
      </trkpt>
      <trkpt lat="44.62876" lon="7.06636">
        <ele>1997.9</ele>
        <time>2026-09-01T07:00:19Z</time>
      </trkpt>
      <trkpt lat="44.6287" lon="7.06633">
        <ele>1996.4</ele>
        <time>2026-09-01T07:00:25Z</time>
      </trkpt>
      <trkpt lat="44.62865" lon="7.06632">
        <ele>1995.7</ele>
        <time>2026-09-01T07:00:30Z</time>
      </trkpt>
      <trkpt lat="44.62861" lon="7.06631">
        <ele>1995</ele>
        <time>2026-09-01T07:00:35Z</time>
      </trkpt>
      <trkpt lat="44.62856" lon="7.06629">
        <ele>1994</ele>
        <time>2026-09-01T07:00:41Z</time>
      </trkpt>
      <trkpt lat="44.62852" lon="7.0663">
        <ele>1994</ele>
        <time>2026-09-01T07:00:46Z</time>
      </trkpt>
      <trkpt lat="44.62849" lon="7.06631">
        <ele>1994.1</ele>
        <time>2026-09-01T07:00:51Z</time>
      </trkpt>
      <trkpt lat="44.62848" lon="7.06635">
        <ele>1995.3</ele>
        <time>2026-09-01T07:00:57Z</time>
      </trkpt>
      <trkpt lat="44.62848" lon="7.06636">
        <ele>1995.6</ele>
        <time>2026-09-01T07:01:02Z</time>
      </trkpt>
      <trkpt lat="44.62848" lon="7.06636">
        <ele>1995.6</ele>
        <time>2026-09-01T07:01:07Z</time>
      </trkpt>
      <trkpt lat="44.62848" lon="7.06636">
        <ele>1995.6</ele>
        <time>2026-09-01T07:01:13Z</time>
      </trkpt>
      <trkpt lat="44.62848" lon="7.06636">
        <ele>1995.6</ele>
        <time>2026-09-01T07:01:18Z</time>
      </trkpt>
      <trkpt lat="44.62841" lon="7.06639">
        <ele>1996</ele>
        <time>2026-09-01T07:01:23Z</time>
      </trkpt>
      <trkpt lat="44.62838" lon="7.06641">
        <ele>1996.4</ele>
        <time>2026-09-01T07:01:29Z</time>
      </trkpt>
      <trkpt lat="44.62835" lon="7.06644">
        <ele>1997.1</ele>
        <time>2026-09-01T07:01:34Z</time>
      </trkpt>
      <trkpt lat="44.62833" lon="7.06643">
        <ele>1996.5</ele>
        <time>2026-09-01T07:01:39Z</time>
      </trkpt>
      <trkpt lat="44.6283" lon="7.06644">
        <ele>1996.1</ele>
        <time>2026-09-01T07:01:45Z</time>
      </trkpt>
      <trkpt lat="44.62829" lon="7.06646">
        <ele>1996.4</ele>
        <time>2026-09-01T07:01:50Z</time>
      </trkpt>
      <trkpt lat="44.62829" lon="7.06651">
        <ele>1998</ele>
        <time>2026-09-01T07:01:55Z</time>
      </trkpt>
      <trkpt lat="44.62828" lon="7.06652">
        <ele>1998</ele>
        <time>2026-09-01T07:02:01Z</time>
      </trkpt>
      <trkpt lat="44.62828" lon="7.06652">
        <ele>1998</ele>
        <time>2026-09-01T07:02:06Z</time>
      </trkpt>
      <trkpt lat="44.62828" lon="7.06652">
        <ele>1998</ele>
        <time>2026-09-01T07:02:11Z</time>
      </trkpt>
      <trkpt lat="44.62828" lon="7.06652">
        <ele>1998</ele>
        <time>2026-09-01T07:02:17Z</time>
      </trkpt>
      <trkpt lat="44.62828" lon="7.06652">
        <ele>1998</ele>
        <time>2026-09-01T07:02:22Z</time>
      </trkpt>
      <trkpt lat="44.62818" lon="7.06655">
        <ele>1996.4</ele>
        <time>2026-09-01T07:02:27Z</time>
      </trkpt>
      <trkpt lat="44.62817" lon="7.06657">
        <ele>1996.7</ele>
        <time>2026-09-01T07:02:33Z</time>
      </trkpt>
      <trkpt lat="44.62817" lon="7.06657">
        <ele>1996.7</ele>
        <time>2026-09-01T07:02:38Z</time>
      </trkpt>
      <trkpt lat="44.62817" lon="7.06657">
        <ele>1996.7</ele>
        <time>2026-09-01T07:02:43Z</time>
      </trkpt>
      <trkpt lat="44.62817" lon="7.06657">
        <ele>1996.7</ele>
        <time>2026-09-01T07:02:49Z</time>
      </trkpt>
      <trkpt lat="44.62817" lon="7.06657">
        <ele>1996.7</ele>
        <time>2026-09-01T07:02:54Z</time>
      </trkpt>
      <trkpt lat="44.6281" lon="7.06668">
        <ele>1998.1</ele>
        <time>2026-09-01T07:02:59Z</time>
      </trkpt>
      <trkpt lat="44.6281" lon="7.06672">
        <ele>1998.9</ele>
        <time>2026-09-01T07:03:05Z</time>
      </trkpt>
      <trkpt lat="44.6281" lon="7.06672">
        <ele>1998.9</ele>
        <time>2026-09-01T07:03:10Z</time>
      </trkpt>
      <trkpt lat="44.6281" lon="7.06672">
        <ele>1998.9</ele>
        <time>2026-09-01T07:03:15Z</time>
      </trkpt>
      <trkpt lat="44.62809" lon="7.06679">
        <ele>1999.9</ele>
        <time>2026-09-01T07:03:21Z</time>
      </trkpt>
      <trkpt lat="44.62807" lon="7.06682">
        <ele>2000</ele>
        <time>2026-09-01T07:03:26Z</time>
      </trkpt>
      <trkpt lat="44.62805" lon="7.06686">
        <ele>2000.2</ele>
        <time>2026-09-01T07:03:31Z</time>
      </trkpt>
      <trkpt lat="44.62803" lon="7.06689">
        <ele>2000.3</ele>
        <time>2026-09-01T07:03:37Z</time>
      </trkpt>
      <trkpt lat="44.62801" lon="7.0669">
        <ele>2000</ele>
        <time>2026-09-01T07:03:42Z</time>
      </trkpt>
      <trkpt lat="44.62799" lon="7.06696">
        <ele>2000.7</ele>
        <time>2026-09-01T07:03:47Z</time>
      </trkpt>
      <trkpt lat="44.62796" lon="7.06703">
        <ele>2001.3</ele>
        <time>2026-09-01T07:03:53Z</time>
      </trkpt>
      <trkpt lat="44.62794" lon="7.06706">
        <ele>2001.4</ele>
        <time>2026-09-01T07:03:58Z</time>
      </trkpt>
      <trkpt lat="44.62793" lon="7.06712">
        <ele>2002.3</ele>
        <time>2026-09-01T07:04:03Z</time>
      </trkpt>
      <trkpt lat="44.62792" lon="7.0672">
        <ele>2003.6</ele>
        <time>2026-09-01T07:04:09Z</time>
      </trkpt>
      <trkpt lat="44.62792" lon="7.06724">
        <ele>2004.4</ele>
        <time>2026-09-01T07:04:14Z</time>
      </trkpt>
      <trkpt lat="44.62792" lon="7.06727">
        <ele>2005</ele>
        <time>2026-09-01T07:04:19Z</time>
      </trkpt>
      <trkpt lat="44.62793" lon="7.06728">
        <ele>2005.5</ele>
        <time>2026-09-01T07:04:25Z</time>
      </trkpt>
      <trkpt lat="44.62793" lon="7.06728">
        <ele>2005.5</ele>
        <time>2026-09-01T07:04:30Z</time>
      </trkpt>
      <trkpt lat="44.62796" lon="7.06735">
        <ele>2007.5</ele>
        <time>2026-09-01T07:04:35Z</time>
      </trkpt>
      <trkpt lat="44.62792" lon="7.06745">
        <ele>2008.6</ele>
        <time>2026-09-01T07:04:41Z</time>
      </trkpt>
      <trkpt lat="44.62791" lon="7.06753">
        <ele>2009.9</ele>
        <time>2026-09-01T07:04:46Z</time>
      </trkpt>
      <trkpt lat="44.62791" lon="7.06759">
        <ele>2011.1</ele>
        <time>2026-09-01T07:04:51Z</time>
      </trkpt>
      <trkpt lat="44.6279" lon="7.06761">
        <ele>2011.3</ele>
        <time>2026-09-01T07:04:57Z</time>
      </trkpt>
      <trkpt lat="44.6279" lon="7.06762">
        <ele>2011.5</ele>
        <time>2026-09-01T07:05:02Z</time>
      </trkpt>
      <trkpt lat="44.62789" lon="7.06768">
        <ele>2012.5</ele>
        <time>2026-09-01T07:05:07Z</time>
      </trkpt>
      <trkpt lat="44.6279" lon="7.06776">
        <ele>2014.3</ele>
        <time>2026-09-01T07:05:13Z</time>
      </trkpt>
      <trkpt lat="44.62791" lon="7.06784">
        <ele>2016.1</ele>
        <time>2026-09-01T07:05:18Z</time>
      </trkpt>
      <trkpt lat="44.6279" lon="7.06788">
        <ele>2016.7</ele>
        <time>2026-09-01T07:05:23Z</time>
      </trkpt>
      <trkpt lat="44.6279" lon="7.06788">
        <ele>2016.7</ele>
        <time>2026-09-01T07:05:29Z</time>
      </trkpt>
      <trkpt lat="44.6279" lon="7.06788">
        <ele>2016.7</ele>
        <time>2026-09-01T07:05:34Z</time>
      </trkpt>
      <trkpt lat="44.6279" lon="7.06788">
        <ele>2016.7</ele>
        <time>2026-09-01T07:05:39Z</time>
      </trkpt>
      <trkpt lat="44.62788" lon="7.0679">
        <ele>2016.8</ele>
        <time>2026-09-01T07:05:45Z</time>
      </trkpt>
      <trkpt lat="44.62786" lon="7.06798">
        <ele>2018.1</ele>
        <time>2026-09-01T07:05:50Z</time>
      </trkpt>
      <trkpt lat="44.62784" lon="7.06804">
        <ele>2019.1</ele>
        <time>2026-09-01T07:05:55Z</time>
      </trkpt>
      <trkpt lat="44.62785" lon="7.06812">
        <ele>2020.9</ele>
        <time>2026-09-01T07:06:01Z</time>
      </trkpt>
      <trkpt lat="44.62784" lon="7.06818">
        <ele>2022</ele>
        <time>2026-09-01T07:06:06Z</time>
      </trkpt>
      <trkpt lat="44.62781" lon="7.06825">
        <ele>2023.2</ele>
        <time>2026-09-01T07:06:11Z</time>
      </trkpt>
      <trkpt lat="44.62779" lon="7.06828">
        <ele>2023.6</ele>
        <time>2026-09-01T07:06:17Z</time>
      </trkpt>
      <trkpt lat="44.62779" lon="7.0683">
        <ele>2024.1</ele>
        <time>2026-09-01T07:06:22Z</time>
      </trkpt>
      <trkpt lat="44.6278" lon="7.06831">
        <ele>2024.4</ele>
        <time>2026-09-01T07:06:27Z</time>
      </trkpt>
      <trkpt lat="44.6278" lon="7.06831">
        <ele>2024.4</ele>
        <time>2026-09-01T07:06:33Z</time>
      </trkpt>
      <trkpt lat="44.6278" lon="7.06831">
        <ele>2024.4</ele>
        <time>2026-09-01T07:06:38Z</time>
      </trkpt>
      <trkpt lat="44.6278" lon="7.06831">
        <ele>2024.4</ele>
        <time>2026-09-01T07:06:43Z</time>
      </trkpt>
      <trkpt lat="44.62787" lon="7.06833">
        <ele>2025.5</ele>
        <time>2026-09-01T07:06:49Z</time>
      </trkpt>
      <trkpt lat="44.6279" lon="7.06836">
        <ele>2026.6</ele>
        <time>2026-09-01T07:06:54Z</time>
      </trkpt>
      <trkpt lat="44.62791" lon="7.06839">
        <ele>2027.6</ele>
        <time>2026-09-01T07:06:59Z</time>
      </trkpt>
      <trkpt lat="44.62791" lon="7.06841">
        <ele>2028.2</ele>
        <time>2026-09-01T07:07:05Z</time>
      </trkpt>
      <trkpt lat="44.62791" lon="7.06841">
        <ele>2028.2</ele>
        <time>2026-09-01T07:07:10Z</time>
      </trkpt>
      <trkpt lat="44.62791" lon="7.06841">
        <ele>2028.2</ele>
        <time>2026-09-01T07:07:15Z</time>
      </trkpt>
      <trkpt lat="44.62791" lon="7.06841">
        <ele>2028.2</ele>
        <time>2026-09-01T07:07:21Z</time>
      </trkpt>
      <trkpt lat="44.62791" lon="7.06841">
        <ele>2028.2</ele>
        <time>2026-09-01T07:07:26Z</time>
      </trkpt>
      <trkpt lat="44.62794" lon="7.06849">
        <ele>2030.8</ele>
        <time>2026-09-01T07:07:31Z</time>
      </trkpt>
      <trkpt lat="44.62795" lon="7.06853">
        <ele>2032</ele>
        <time>2026-09-01T07:07:37Z</time>
      </trkpt>
      <trkpt lat="44.62797" lon="7.06852">
        <ele>2031.9</ele>
        <time>2026-09-01T07:07:42Z</time>
      </trkpt>
      <trkpt lat="44.62797" lon="7.06852">
        <ele>2031.9</ele>
        <time>2026-09-01T07:07:47Z</time>
      </trkpt>
      <trkpt lat="44.62797" lon="7.06852">
        <ele>2031.9</ele>
        <time>2026-09-01T07:07:53Z</time>
      </trkpt>
      <trkpt lat="44.62797" lon="7.06852">
        <ele>2031.9</ele>
        <time>2026-09-01T07:07:58Z</time>
      </trkpt>
      <trkpt lat="44.62805" lon="7.06855">
        <ele>2033.4</ele>
        <time>2026-09-01T07:08:03Z</time>
      </trkpt>
      <trkpt lat="44.62808" lon="7.06853">
        <ele>2033</ele>
        <time>2026-09-01T07:08:09Z</time>
      </trkpt>
      <trkpt lat="44.6281" lon="7.06855">
        <ele>2033.7</ele>
        <time>2026-09-01T07:08:14Z</time>
      </trkpt>
      <trkpt lat="44.62812" lon="7.06856">
        <ele>2034.2</ele>
        <time>2026-09-01T07:08:19Z</time>
      </trkpt>
      <trkpt lat="44.62811" lon="7.06857">
        <ele>2034.4</ele>
        <time>2026-09-01T07:08:25Z</time>
      </trkpt>
      <trkpt lat="44.62811" lon="7.06857">
        <ele>2034.4</ele>
        <time>2026-09-01T07:08:30Z</time>
      </trkpt>
      <trkpt lat="44.62808" lon="7.06866">
        <ele>2036.6</ele>
        <time>2026-09-01T07:08:35Z</time>
      </trkpt>
      <trkpt lat="44.62808" lon="7.06866">
        <ele>2036.6</ele>
        <time>2026-09-01T07:08:41Z</time>
      </trkpt>
      <trkpt lat="44.62808" lon="7.06866">
        <ele>2036.6</ele>
        <time>2026-09-01T07:08:46Z</time>
      </trkpt>
      <trkpt lat="44.62808" lon="7.06866">
        <ele>2036.6</ele>
        <time>2026-09-01T07:08:51Z</time>
      </trkpt>
      <trkpt lat="44.62808" lon="7.06866">
        <ele>2036.6</ele>
        <time>2026-09-01T07:08:57Z</time>
      </trkpt>
      <trkpt lat="44.62808" lon="7.06866">
        <ele>2036.6</ele>
        <time>2026-09-01T07:09:02Z</time>
      </trkpt>
      <trkpt lat="44.62809" lon="7.06879">
        <ele>2040.3</ele>
        <time>2026-09-01T07:09:07Z</time>
      </trkpt>
      <trkpt lat="44.62808" lon="7.06884">
        <ele>2041.6</ele>
        <time>2026-09-01T07:09:13Z</time>
      </trkpt>
      <trkpt lat="44.62804" lon="7.06888">
        <ele>2042.6</ele>
        <time>2026-09-01T07:09:18Z</time>
      </trkpt>
      <trkpt lat="44.62801" lon="7.06893">
        <ele>2043.9</ele>
        <time>2026-09-01T07:09:23Z</time>
      </trkpt>
      <trkpt lat="44.62797" lon="7.06896">
        <ele>2044.6</ele>
        <time>2026-09-01T07:09:29Z</time>
      </trkpt>
      <trkpt lat="44.62794" lon="7.06897">
        <ele>2044.8</ele>
        <time>2026-09-01T07:09:34Z</time>
      </trkpt>
      <trkpt lat="44.62792" lon="7.069">
        <ele>2045.6</ele>
        <time>2026-09-01T07:09:39Z</time>
      </trkpt>
      <trkpt lat="44.62791" lon="7.06903">
        <ele>2046.5</ele>
        <time>2026-09-01T07:09:45Z</time>
      </trkpt>
      <trkpt lat="44.62789" lon="7.06905">
        <ele>2047</ele>
        <time>2026-09-01T07:09:50Z</time>
      </trkpt>
      <trkpt lat="44.6279" lon="7.06908">
        <ele>2047.9</ele>
        <time>2026-09-01T07:09:55Z</time>
      </trkpt>
      <trkpt lat="44.62793" lon="7.0691">
        <ele>2048.6</ele>
        <time>2026-09-01T07:10:01Z</time>
      </trkpt>
      <trkpt lat="44.62795" lon="7.06914">
        <ele>2049.8</ele>
        <time>2026-09-01T07:10:06Z</time>
      </trkpt>
      <trkpt lat="44.62794" lon="7.06917">
        <ele>2050.7</ele>
        <time>2026-09-01T07:10:11Z</time>
      </trkpt>
      <trkpt lat="44.62793" lon="7.06924">
        <ele>2053.4</ele>
        <time>2026-09-01T07:10:17Z</time>
      </trkpt>
      <trkpt lat="44.62795" lon="7.06927">
        <ele>2054.6</ele>
        <time>2026-09-01T07:10:22Z</time>
      </trkpt>
      <trkpt lat="44.62797" lon="7.06929">
        <ele>2055.4</ele>
        <time>2026-09-01T07:10:27Z</time>
      </trkpt>
      <trkpt lat="44.62797" lon="7.06931">
        <ele>2056.2</ele>
        <time>2026-09-01T07:10:33Z</time>
      </trkpt>
      <trkpt lat="44.62797" lon="7.06931">
        <ele>2056.2</ele>
        <time>2026-09-01T07:10:38Z</time>
      </trkpt>
      <trkpt lat="44.62797" lon="7.06931">
        <ele>2056.2</ele>
        <time>2026-09-01T07:10:43Z</time>
      </trkpt>
      <trkpt lat="44.62797" lon="7.06931">
        <ele>2056.2</ele>
        <time>2026-09-01T07:10:49Z</time>
      </trkpt>
      <trkpt lat="44.62797" lon="7.06931">
        <ele>2056.2</ele>
        <time>2026-09-01T07:10:54Z</time>
      </trkpt>
      <trkpt lat="44.62797" lon="7.06931">
        <ele>2056.2</ele>
        <time>2026-09-01T07:10:59Z</time>
      </trkpt>
      <trkpt lat="44.62806" lon="7.06939">
        <ele>2059.5</ele>
        <time>2026-09-01T07:11:05Z</time>
      </trkpt>
      <trkpt lat="44.62807" lon="7.06942">
        <ele>2060.7</ele>
        <time>2026-09-01T07:11:10Z</time>
      </trkpt>
      <trkpt lat="44.62806" lon="7.06945">
        <ele>2061.9</ele>
        <time>2026-09-01T07:11:15Z</time>
      </trkpt>
      <trkpt lat="44.62806" lon="7.06945">
        <ele>2061.9</ele>
        <time>2026-09-01T07:11:21Z</time>
      </trkpt>
      <trkpt lat="44.62806" lon="7.06945">
        <ele>2061.9</ele>
        <time>2026-09-01T07:11:26Z</time>
      </trkpt>
      <trkpt lat="44.62806" lon="7.06945">
        <ele>2061.9</ele>
        <time>2026-09-01T07:11:31Z</time>
      </trkpt>
      <trkpt lat="44.62806" lon="7.06945">
        <ele>2061.9</ele>
        <time>2026-09-01T07:11:37Z</time>
      </trkpt>
      <trkpt lat="44.62806" lon="7.06945">
        <ele>2061.9</ele>
        <time>2026-09-01T07:11:42Z</time>
      </trkpt>
      <trkpt lat="44.62806" lon="7.06945">
        <ele>2061.9</ele>
        <time>2026-09-01T07:11:47Z</time>
      </trkpt>
      <trkpt lat="44.62806" lon="7.06945">
        <ele>2061.9</ele>
        <time>2026-09-01T07:11:53Z</time>
      </trkpt>
      <trkpt lat="44.62806" lon="7.06945">
        <ele>2061.9</ele>
        <time>2026-09-01T07:11:58Z</time>
      </trkpt>
      <trkpt lat="44.62806" lon="7.06945">
        <ele>2061.9</ele>
        <time>2026-09-01T07:12:03Z</time>
      </trkpt>
      <trkpt lat="44.62806" lon="7.06945">
        <ele>2061.9</ele>
        <time>2026-09-01T07:12:09Z</time>
      </trkpt>
      <trkpt lat="44.62817" lon="7.06956">
        <ele>2066.4</ele>
        <time>2026-09-01T07:12:14Z</time>
      </trkpt>
      <trkpt lat="44.6282" lon="7.06955">
        <ele>2066</ele>
        <time>2026-09-01T07:12:19Z</time>
      </trkpt>
      <trkpt lat="44.62823" lon="7.06951">
        <ele>2064.5</ele>
        <time>2026-09-01T07:12:25Z</time>
      </trkpt>
      <trkpt lat="44.62826" lon="7.06952">
        <ele>2064.9</ele>
        <time>2026-09-01T07:12:30Z</time>
      </trkpt>
      <trkpt lat="44.62828" lon="7.0695">
        <ele>2064.1</ele>
        <time>2026-09-01T07:12:35Z</time>
      </trkpt>
      <trkpt lat="44.6283" lon="7.06947">
        <ele>2063</ele>
        <time>2026-09-01T07:12:41Z</time>
      </trkpt>
      <trkpt lat="44.6283" lon="7.0695">
        <ele>2064.2</ele>
        <time>2026-09-01T07:12:46Z</time>
      </trkpt>
      <trkpt lat="44.62828" lon="7.06957">
        <ele>2066.9</ele>
        <time>2026-09-01T07:12:51Z</time>
      </trkpt>
      <trkpt lat="44.62827" lon="7.06963">
        <ele>2069.3</ele>
        <time>2026-09-01T07:12:57Z</time>
      </trkpt>
      <trkpt lat="44.62828" lon="7.06967">
        <ele>2070.9</ele>
        <time>2026-09-01T07:13:02Z</time>
      </trkpt>
      <trkpt lat="44.62828" lon="7.06967">
        <ele>2070.9</ele>
        <time>2026-09-01T07:13:07Z</time>
      </trkpt>
      <trkpt lat="44.62828" lon="7.06967">
        <ele>2070.9</ele>
        <time>2026-09-01T07:13:13Z</time>
      </trkpt>
      <trkpt lat="44.62828" lon="7.06967">
        <ele>2070.9</ele>
        <time>2026-09-01T07:13:18Z</time>
      </trkpt>
      <trkpt lat="44.62828" lon="7.06967">
        <ele>2070.9</ele>
        <time>2026-09-01T07:13:23Z</time>
      </trkpt>
      <trkpt lat="44.62828" lon="7.06967">
        <ele>2070.9</ele>
        <time>2026-09-01T07:13:29Z</time>
      </trkpt>
      <trkpt lat="44.62828" lon="7.06967">
        <ele>2070.9</ele>
        <time>2026-09-01T07:13:34Z</time>
      </trkpt>
      <trkpt lat="44.62828" lon="7.06967">
        <ele>2070.9</ele>
        <time>2026-09-01T07:13:39Z</time>
      </trkpt>
      <trkpt lat="44.62828" lon="7.06967">
        <ele>2070.9</ele>
        <time>2026-09-01T07:13:45Z</time>
      </trkpt>
      <trkpt lat="44.62828" lon="7.06967">
        <ele>2070.9</ele>
        <time>2026-09-01T07:13:50Z</time>
      </trkpt>
      <trkpt lat="44.62828" lon="7.06967">
        <ele>2070.9</ele>
        <time>2026-09-01T07:13:55Z</time>
      </trkpt>
      <trkpt lat="44.62828" lon="7.06967">
        <ele>2070.9</ele>
        <time>2026-09-01T07:14:01Z</time>
      </trkpt>
      <trkpt lat="44.62827" lon="7.06983">
        <ele>2077.2</ele>
        <time>2026-09-01T07:14:06Z</time>
      </trkpt>
      <trkpt lat="44.62827" lon="7.06983">
        <ele>2077.2</ele>
        <time>2026-09-01T07:14:11Z</time>
      </trkpt>
      <trkpt lat="44.62827" lon="7.06983">
        <ele>2077.2</ele>
        <time>2026-09-01T07:14:17Z</time>
      </trkpt>
      <trkpt lat="44.62827" lon="7.06983">
        <ele>2077.2</ele>
        <time>2026-09-01T07:14:22Z</time>
      </trkpt>
      <trkpt lat="44.62827" lon="7.06983">
        <ele>2077.2</ele>
        <time>2026-09-01T07:14:27Z</time>
      </trkpt>
      <trkpt lat="44.62827" lon="7.06983">
        <ele>2077.2</ele>
        <time>2026-09-01T07:14:33Z</time>
      </trkpt>
      <trkpt lat="44.62827" lon="7.06983">
        <ele>2077.2</ele>
        <time>2026-09-01T07:14:38Z</time>
      </trkpt>
      <trkpt lat="44.62827" lon="7.06983">
        <ele>2077.2</ele>
        <time>2026-09-01T07:14:43Z</time>
      </trkpt>
      <trkpt lat="44.62825" lon="7.06992">
        <ele>2080.7</ele>
        <time>2026-09-01T07:14:49Z</time>
      </trkpt>
      <trkpt lat="44.62824" lon="7.06992">
        <ele>2080.7</ele>
        <time>2026-09-01T07:14:54Z</time>
      </trkpt>
      <trkpt lat="44.62824" lon="7.06994">
        <ele>2081.5</ele>
        <time>2026-09-01T07:14:59Z</time>
      </trkpt>
      <trkpt lat="44.62828" lon="7.06996">
        <ele>2082.4</ele>
        <time>2026-09-01T07:15:05Z</time>
      </trkpt>
      <trkpt lat="44.62831" lon="7.06996">
        <ele>2082.4</ele>
        <time>2026-09-01T07:15:10Z</time>
      </trkpt>
      <trkpt lat="44.62833" lon="7.06996">
        <ele>2082.4</ele>
        <time>2026-09-01T07:15:15Z</time>
      </trkpt>
      <trkpt lat="44.62833" lon="7.06997">
        <ele>2082.8</ele>
        <time>2026-09-01T07:15:21Z</time>
      </trkpt>
      <trkpt lat="44.62838" lon="7.06998">
        <ele>2083.2</ele>
        <time>2026-09-01T07:15:26Z</time>
      </trkpt>
      <trkpt lat="44.6284" lon="7.07">
        <ele>2084</ele>
        <time>2026-09-01T07:15:31Z</time>
      </trkpt>
      <trkpt lat="44.6284" lon="7.07">
        <ele>2084</ele>
        <time>2026-09-01T07:15:37Z</time>
      </trkpt>
      <trkpt lat="44.6284" lon="7.07">
        <ele>2084</ele>
        <time>2026-09-01T07:15:42Z</time>
      </trkpt>
      <trkpt lat="44.6284" lon="7.07">
        <ele>2084</ele>
        <time>2026-09-01T07:15:47Z</time>
      </trkpt>
      <trkpt lat="44.6284" lon="7.07">
        <ele>2084</ele>
        <time>2026-09-01T07:15:53Z</time>
      </trkpt>
      <trkpt lat="44.6284" lon="7.07">
        <ele>2084</ele>
        <time>2026-09-01T07:15:58Z</time>
      </trkpt>
      <trkpt lat="44.6284" lon="7.07">
        <ele>2084</ele>
        <time>2026-09-01T07:16:03Z</time>
      </trkpt>
      <trkpt lat="44.6284" lon="7.07">
        <ele>2084</ele>
        <time>2026-09-01T07:16:09Z</time>
      </trkpt>
      <trkpt lat="44.6284" lon="7.07">
        <ele>2084</ele>
        <time>2026-09-01T07:16:14Z</time>
      </trkpt>
      <trkpt lat="44.62842" lon="7.07012">
        <ele>2087.3</ele>
        <time>2026-09-01T07:16:19Z</time>
      </trkpt>
      <trkpt lat="44.62846" lon="7.07013">
        <ele>2087.6</ele>
        <time>2026-09-01T07:16:25Z</time>
      </trkpt>
      <trkpt lat="44.6285" lon="7.07011">
        <ele>2087.1</ele>
        <time>2026-09-01T07:16:30Z</time>
      </trkpt>
      <trkpt lat="44.62853" lon="7.07007">
        <ele>2086</ele>
        <time>2026-09-01T07:16:35Z</time>
      </trkpt>
      <trkpt lat="44.62855" lon="7.07009">
        <ele>2086.6</ele>
        <time>2026-09-01T07:16:41Z</time>
      </trkpt>
      <trkpt lat="44.62855" lon="7.0701">
        <ele>2086.9</ele>
        <time>2026-09-01T07:16:46Z</time>
      </trkpt>
      <trkpt lat="44.62855" lon="7.0701">
        <ele>2086.9</ele>
        <time>2026-09-01T07:16:51Z</time>
      </trkpt>
      <trkpt lat="44.62855" lon="7.0701">
        <ele>2086.9</ele>
        <time>2026-09-01T07:16:57Z</time>
      </trkpt>
      <trkpt lat="44.62855" lon="7.0701">
        <ele>2086.9</ele>
        <time>2026-09-01T07:17:02Z</time>
      </trkpt>
      <trkpt lat="44.62855" lon="7.0701">
        <ele>2086.9</ele>
        <time>2026-09-01T07:17:07Z</time>
      </trkpt>
      <trkpt lat="44.62847" lon="7.07013">
        <ele>2087.7</ele>
        <time>2026-09-01T07:17:13Z</time>
      </trkpt>
      <trkpt lat="44.62847" lon="7.07013">
        <ele>2087.7</ele>
        <time>2026-09-01T07:17:18Z</time>
      </trkpt>
      <trkpt lat="44.62843" lon="7.0702">
        <ele>2089.5</ele>
        <time>2026-09-01T07:17:23Z</time>
      </trkpt>
      <trkpt lat="44.62841" lon="7.07021">
        <ele>2089.8</ele>
        <time>2026-09-01T07:17:29Z</time>
      </trkpt>
      <trkpt lat="44.62841" lon="7.07021">
        <ele>2089.8</ele>
        <time>2026-09-01T07:17:34Z</time>
      </trkpt>
      <trkpt lat="44.62838" lon="7.07026">
        <ele>2091</ele>
        <time>2026-09-01T07:17:39Z</time>
      </trkpt>
      <trkpt lat="44.62836" lon="7.07029">
        <ele>2091.8</ele>
        <time>2026-09-01T07:17:45Z</time>
      </trkpt>
      <trkpt lat="44.62836" lon="7.07029">
        <ele>2091.8</ele>
        <time>2026-09-01T07:17:50Z</time>
      </trkpt>
      <trkpt lat="44.62836" lon="7.07029">
        <ele>2091.8</ele>
        <time>2026-09-01T07:17:55Z</time>
      </trkpt>
      <trkpt lat="44.62836" lon="7.07029">
        <ele>2091.8</ele>
        <time>2026-09-01T07:18:01Z</time>
      </trkpt>
      <trkpt lat="44.62843" lon="7.07034">
        <ele>2093.4</ele>
        <time>2026-09-01T07:18:06Z</time>
      </trkpt>
      <trkpt lat="44.62844" lon="7.07034">
        <ele>2093.4</ele>
        <time>2026-09-01T07:18:11Z</time>
      </trkpt>
      <trkpt lat="44.62844" lon="7.07034">
        <ele>2093.4</ele>
        <time>2026-09-01T07:18:17Z</time>
      </trkpt>
      <trkpt lat="44.62844" lon="7.07034">
        <ele>2093.4</ele>
        <time>2026-09-01T07:18:22Z</time>
      </trkpt>
      <trkpt lat="44.62844" lon="7.07034">
        <ele>2093.4</ele>
        <time>2026-09-01T07:18:27Z</time>
      </trkpt>
      <trkpt lat="44.62844" lon="7.07034">
        <ele>2093.4</ele>
        <time>2026-09-01T07:18:33Z</time>
      </trkpt>
      <trkpt lat="44.62844" lon="7.07034">
        <ele>2093.4</ele>
        <time>2026-09-01T07:18:38Z</time>
      </trkpt>
      <trkpt lat="44.62852" lon="7.0704">
        <ele>2095.5</ele>
        <time>2026-09-01T07:18:43Z</time>
      </trkpt>
      <trkpt lat="44.62852" lon="7.07039">
        <ele>2095.2</ele>
        <time>2026-09-01T07:18:49Z</time>
      </trkpt>
      <trkpt lat="44.62852" lon="7.07039">
        <ele>2095.2</ele>
        <time>2026-09-01T07:18:54Z</time>
      </trkpt>
      <trkpt lat="44.62852" lon="7.07039">
        <ele>2095.2</ele>
        <time>2026-09-01T07:18:59Z</time>
      </trkpt>
      <trkpt lat="44.62852" lon="7.07039">
        <ele>2095.2</ele>
        <time>2026-09-01T07:19:05Z</time>
      </trkpt>
      <trkpt lat="44.62852" lon="7.07039">
        <ele>2095.2</ele>
        <time>2026-09-01T07:19:10Z</time>
      </trkpt>
      <trkpt lat="44.62852" lon="7.07039">
        <ele>2095.2</ele>
        <time>2026-09-01T07:19:15Z</time>
      </trkpt>
      <trkpt lat="44.62859" lon="7.07031">
        <ele>2093.2</ele>
        <time>2026-09-01T07:19:21Z</time>
      </trkpt>
      <trkpt lat="44.62861" lon="7.07032">
        <ele>2093.6</ele>
        <time>2026-09-01T07:19:26Z</time>
      </trkpt>
      <trkpt lat="44.62862" lon="7.07033">
        <ele>2093.9</ele>
        <time>2026-09-01T07:19:31Z</time>
      </trkpt>
      <trkpt lat="44.62862" lon="7.07033">
        <ele>2093.9</ele>
        <time>2026-09-01T07:19:37Z</time>
      </trkpt>
      <trkpt lat="44.62862" lon="7.07033">
        <ele>2093.9</ele>
        <time>2026-09-01T07:19:42Z</time>
      </trkpt>
      <trkpt lat="44.62862" lon="7.07033">
        <ele>2093.9</ele>
        <time>2026-09-01T07:19:47Z</time>
      </trkpt>
      <trkpt lat="44.62862" lon="7.07033">
        <ele>2093.9</ele>
        <time>2026-09-01T07:19:53Z</time>
      </trkpt>
      <trkpt lat="44.62862" lon="7.07033">
        <ele>2093.9</ele>
        <time>2026-09-01T07:19:58Z</time>
      </trkpt>
      <trkpt lat="44.62862" lon="7.07033">
        <ele>2093.9</ele>
        <time>2026-09-01T07:20:03Z</time>
      </trkpt>
      <trkpt lat="44.62862" lon="7.07033">
        <ele>2093.9</ele>
        <time>2026-09-01T07:20:09Z</time>
      </trkpt>
      <trkpt lat="44.62862" lon="7.07033">
        <ele>2093.9</ele>
        <time>2026-09-01T07:20:14Z</time>
      </trkpt>
      <trkpt lat="44.62862" lon="7.07033">
        <ele>2093.9</ele>
        <time>2026-09-01T07:20:19Z</time>
      </trkpt>
      <trkpt lat="44.62862" lon="7.07033">
        <ele>2093.9</ele>
        <time>2026-09-01T07:20:25Z</time>
      </trkpt>
      <trkpt lat="44.62862" lon="7.07033">
        <ele>2093.9</ele>
        <time>2026-09-01T07:20:30Z</time>
      </trkpt>
      <trkpt lat="44.6287" lon="7.07036">
        <ele>2095.2</ele>
        <time>2026-09-01T07:20:35Z</time>
      </trkpt>
      <trkpt lat="44.62871" lon="7.07036">
        <ele>2095.3</ele>
        <time>2026-09-01T07:20:41Z</time>
      </trkpt>
      <trkpt lat="44.62871" lon="7.07036">
        <ele>2095.3</ele>
        <time>2026-09-01T07:20:46Z</time>
      </trkpt>
      <trkpt lat="44.62871" lon="7.07036">
        <ele>2095.3</ele>
        <time>2026-09-01T07:20:51Z</time>
      </trkpt>
      <trkpt lat="44.62878" lon="7.07039">
        <ele>2096.6</ele>
        <time>2026-09-01T07:20:57Z</time>
      </trkpt>
      <trkpt lat="44.62878" lon="7.07042">
        <ele>2097.5</ele>
        <time>2026-09-01T07:21:02Z</time>
      </trkpt>
      <trkpt lat="44.62878" lon="7.07043">
        <ele>2097.8</ele>
        <time>2026-09-01T07:21:07Z</time>
      </trkpt>
      <trkpt lat="44.62878" lon="7.07043">
        <ele>2097.8</ele>
        <time>2026-09-01T07:21:13Z</time>
      </trkpt>
      <trkpt lat="44.62878" lon="7.07043">
        <ele>2097.8</ele>
        <time>2026-09-01T07:21:18Z</time>
      </trkpt>
      <trkpt lat="44.62873" lon="7.07041">
        <ele>2096.9</ele>
        <time>2026-09-01T07:21:23Z</time>
      </trkpt>
      <trkpt lat="44.6287" lon="7.07044">
        <ele>2097.7</ele>
        <time>2026-09-01T07:21:29Z</time>
      </trkpt>
      <trkpt lat="44.62868" lon="7.07045">
        <ele>2097.9</ele>
        <time>2026-09-01T07:21:34Z</time>
      </trkpt>
      <trkpt lat="44.62866" lon="7.07049">
        <ele>2099</ele>
        <time>2026-09-01T07:21:39Z</time>
      </trkpt>
      <trkpt lat="44.62866" lon="7.07052">
        <ele>2099.9</ele>
        <time>2026-09-01T07:21:45Z</time>
      </trkpt>
      <trkpt lat="44.62866" lon="7.07052">
        <ele>2099.9</ele>
        <time>2026-09-01T07:21:50Z</time>
      </trkpt>
      <trkpt lat="44.62866" lon="7.07052">
        <ele>2099.9</ele>
        <time>2026-09-01T07:21:55Z</time>
      </trkpt>
      <trkpt lat="44.62866" lon="7.07052">
        <ele>2099.9</ele>
        <time>2026-09-01T07:22:01Z</time>
      </trkpt>
      <trkpt lat="44.62866" lon="7.07052">
        <ele>2099.9</ele>
        <time>2026-09-01T07:22:06Z</time>
      </trkpt>
      <trkpt lat="44.62866" lon="7.07052">
        <ele>2099.9</ele>
        <time>2026-09-01T07:22:11Z</time>
      </trkpt>
      <trkpt lat="44.62858" lon="7.0706">
        <ele>2101.8</ele>
        <time>2026-09-01T07:22:17Z</time>
      </trkpt>
      <trkpt lat="44.62858" lon="7.0706">
        <ele>2101.8</ele>
        <time>2026-09-01T07:22:22Z</time>
      </trkpt>
      <trkpt lat="44.62858" lon="7.0706">
        <ele>2101.8</ele>
        <time>2026-09-01T07:22:27Z</time>
      </trkpt>
      <trkpt lat="44.62858" lon="7.0706">
        <ele>2101.8</ele>
        <time>2026-09-01T07:22:33Z</time>
      </trkpt>
      <trkpt lat="44.62858" lon="7.0706">
        <ele>2101.8</ele>
        <time>2026-09-01T07:22:38Z</time>
      </trkpt>
      <trkpt lat="44.62865" lon="7.07061">
        <ele>2102.6</ele>
        <time>2026-09-01T07:22:43Z</time>
      </trkpt>
      <trkpt lat="44.62866" lon="7.0706">
        <ele>2102.4</ele>
        <time>2026-09-01T07:22:49Z</time>
      </trkpt>
      <trkpt lat="44.6287" lon="7.07054">
        <ele>2100.8</ele>
        <time>2026-09-01T07:22:54Z</time>
      </trkpt>
      <trkpt lat="44.62873" lon="7.07052">
        <ele>2100.4</ele>
        <time>2026-09-01T07:22:59Z</time>
      </trkpt>
      <trkpt lat="44.62876" lon="7.07051">
        <ele>2100.3</ele>
        <time>2026-09-01T07:23:05Z</time>
      </trkpt>
      <trkpt lat="44.62878" lon="7.07052">
        <ele>2100.7</ele>
        <time>2026-09-01T07:23:10Z</time>
      </trkpt>
      <trkpt lat="44.62878" lon="7.07052">
        <ele>2100.7</ele>
        <time>2026-09-01T07:23:15Z</time>
      </trkpt>
      <trkpt lat="44.62878" lon="7.07052">
        <ele>2100.7</ele>
        <time>2026-09-01T07:23:21Z</time>
      </trkpt>
      <trkpt lat="44.62878" lon="7.07052">
        <ele>2100.7</ele>
        <time>2026-09-01T07:23:26Z</time>
      </trkpt>
      <trkpt lat="44.62878" lon="7.07052">
        <ele>2100.7</ele>
        <time>2026-09-01T07:23:31Z</time>
      </trkpt>
      <trkpt lat="44.62878" lon="7.07052">
        <ele>2100.7</ele>
        <time>2026-09-01T07:23:37Z</time>
      </trkpt>
      <trkpt lat="44.62879" lon="7.07065">
        <ele>2105</ele>
        <time>2026-09-01T07:23:42Z</time>
      </trkpt>
      <trkpt lat="44.62877" lon="7.07067">
        <ele>2105.5</ele>
        <time>2026-09-01T07:23:47Z</time>
      </trkpt>
      <trkpt lat="44.62877" lon="7.07071">
        <ele>2106.8</ele>
        <time>2026-09-01T07:23:53Z</time>
      </trkpt>
      <trkpt lat="44.62877" lon="7.07071">
        <ele>2106.8</ele>
        <time>2026-09-01T07:23:58Z</time>
      </trkpt>
      <trkpt lat="44.62877" lon="7.07071">
        <ele>2106.8</ele>
        <time>2026-09-01T07:24:03Z</time>
      </trkpt>
      <trkpt lat="44.62877" lon="7.07071">
        <ele>2106.8</ele>
        <time>2026-09-01T07:24:09Z</time>
      </trkpt>
      <trkpt lat="44.62874" lon="7.07076">
        <ele>2108.1</ele>
        <time>2026-09-01T07:24:14Z</time>
      </trkpt>
      <trkpt lat="44.62873" lon="7.07076">
        <ele>2108</ele>
        <time>2026-09-01T07:24:19Z</time>
      </trkpt>
      <trkpt lat="44.62873" lon="7.07076">
        <ele>2108</ele>
        <time>2026-09-01T07:24:25Z</time>
      </trkpt>
      <trkpt lat="44.62873" lon="7.07076">
        <ele>2108</ele>
        <time>2026-09-01T07:24:30Z</time>
      </trkpt>
      <trkpt lat="44.62873" lon="7.07076">
        <ele>2108</ele>
        <time>2026-09-01T07:24:35Z</time>
      </trkpt>
      <trkpt lat="44.62873" lon="7.07076">
        <ele>2108</ele>
        <time>2026-09-01T07:24:41Z</time>
      </trkpt>
      <trkpt lat="44.62873" lon="7.07076">
        <ele>2108</ele>
        <time>2026-09-01T07:24:46Z</time>
      </trkpt>
      <trkpt lat="44.62872" lon="7.07089">
        <ele>2111.1</ele>
        <time>2026-09-01T07:24:51Z</time>
      </trkpt>
      <trkpt lat="44.62872" lon="7.0709">
        <ele>2111.2</ele>
        <time>2026-09-01T07:24:57Z</time>
      </trkpt>
      <trkpt lat="44.62872" lon="7.0709">
        <ele>2111.2</ele>
        <time>2026-09-01T07:25:02Z</time>
      </trkpt>
      <trkpt lat="44.62872" lon="7.0709">
        <ele>2111.2</ele>
        <time>2026-09-01T07:25:07Z</time>
      </trkpt>
      <trkpt lat="44.62872" lon="7.0709">
        <ele>2111.2</ele>
        <time>2026-09-01T07:25:13Z</time>
      </trkpt>
      <trkpt lat="44.62872" lon="7.0709">
        <ele>2111.2</ele>
        <time>2026-09-01T07:25:18Z</time>
      </trkpt>
      <trkpt lat="44.62872" lon="7.0709">
        <ele>2111.2</ele>
        <time>2026-09-01T07:25:23Z</time>
      </trkpt>
      <trkpt lat="44.6287" lon="7.071">
        <ele>2112.7</ele>
        <time>2026-09-01T07:25:29Z</time>
      </trkpt>
      <trkpt lat="44.62871" lon="7.07103">
        <ele>2113.2</ele>
        <time>2026-09-01T07:25:34Z</time>
      </trkpt>
      <trkpt lat="44.62871" lon="7.07104">
        <ele>2113.4</ele>
        <time>2026-09-01T07:25:39Z</time>
      </trkpt>
      <trkpt lat="44.62871" lon="7.07104">
        <ele>2113.4</ele>
        <time>2026-09-01T07:25:45Z</time>
      </trkpt>
      <trkpt lat="44.62873" lon="7.07114">
        <ele>2115.1</ele>
        <time>2026-09-01T07:25:50Z</time>
      </trkpt>
      <trkpt lat="44.62876" lon="7.07118">
        <ele>2116</ele>
        <time>2026-09-01T07:25:55Z</time>
      </trkpt>
      <trkpt lat="44.6288" lon="7.07123">
        <ele>2117</ele>
        <time>2026-09-01T07:26:01Z</time>
      </trkpt>
      <trkpt lat="44.62884" lon="7.07131">
        <ele>2118.4</ele>
        <time>2026-09-01T07:26:06Z</time>
      </trkpt>
      <trkpt lat="44.62886" lon="7.07133">
        <ele>2118.8</ele>
        <time>2026-09-01T07:26:11Z</time>
      </trkpt>
      <trkpt lat="44.62889" lon="7.07131">
        <ele>2118.7</ele>
        <time>2026-09-01T07:26:17Z</time>
      </trkpt>
      <trkpt lat="44.62889" lon="7.07131">
        <ele>2118.7</ele>
        <time>2026-09-01T07:26:22Z</time>
      </trkpt>
      <trkpt lat="44.62889" lon="7.07138">
        <ele>2119.7</ele>
        <time>2026-09-01T07:26:27Z</time>
      </trkpt>
      <trkpt lat="44.62889" lon="7.07138">
        <ele>2119.7</ele>
        <time>2026-09-01T07:26:33Z</time>
      </trkpt>
      <trkpt lat="44.62889" lon="7.07138">
        <ele>2119.7</ele>
        <time>2026-09-01T07:26:38Z</time>
      </trkpt>
      <trkpt lat="44.62889" lon="7.07138">
        <ele>2119.7</ele>
        <time>2026-09-01T07:26:43Z</time>
      </trkpt>
      <trkpt lat="44.62897" lon="7.07144">
        <ele>2120.8</ele>
        <time>2026-09-01T07:26:49Z</time>
      </trkpt>
      <trkpt lat="44.62901" lon="7.07151">
        <ele>2121.8</ele>
        <time>2026-09-01T07:26:54Z</time>
      </trkpt>
      <trkpt lat="44.62904" lon="7.07157">
        <ele>2122.7</ele>
        <time>2026-09-01T07:26:59Z</time>
      </trkpt>
      <trkpt lat="44.62906" lon="7.0716">
        <ele>2123.1</ele>
        <time>2026-09-01T07:27:05Z</time>
      </trkpt>
      <trkpt lat="44.62908" lon="7.07162">
        <ele>2123.3</ele>
        <time>2026-09-01T07:27:10Z</time>
      </trkpt>
      <trkpt lat="44.6291" lon="7.07162">
        <ele>2123.4</ele>
        <time>2026-09-01T07:27:15Z</time>
      </trkpt>
      <trkpt lat="44.62911" lon="7.07165">
        <ele>2123.7</ele>
        <time>2026-09-01T07:27:21Z</time>
      </trkpt>
      <trkpt lat="44.62911" lon="7.07165">
        <ele>2123.7</ele>
        <time>2026-09-01T07:27:26Z</time>
      </trkpt>
      <trkpt lat="44.62911" lon="7.07165">
        <ele>2123.7</ele>
        <time>2026-09-01T07:27:31Z</time>
      </trkpt>
      <trkpt lat="44.62911" lon="7.07165">
        <ele>2123.7</ele>
        <time>2026-09-01T07:27:37Z</time>
      </trkpt>
      <trkpt lat="44.62911" lon="7.07165">
        <ele>2123.7</ele>
        <time>2026-09-01T07:27:42Z</time>
      </trkpt>
      <trkpt lat="44.62911" lon="7.07165">
        <ele>2123.7</ele>
        <time>2026-09-01T07:27:47Z</time>
      </trkpt>
      <trkpt lat="44.62911" lon="7.07165">
        <ele>2123.7</ele>
        <time>2026-09-01T07:27:53Z</time>
      </trkpt>
      <trkpt lat="44.62911" lon="7.07165">
        <ele>2123.7</ele>
        <time>2026-09-01T07:27:58Z</time>
      </trkpt>
      <trkpt lat="44.62911" lon="7.07165">
        <ele>2123.7</ele>
        <time>2026-09-01T07:28:03Z</time>
      </trkpt>
      <trkpt lat="44.62911" lon="7.07165">
        <ele>2123.7</ele>
        <time>2026-09-01T07:28:09Z</time>
      </trkpt>
      <trkpt lat="44.6291" lon="7.07167">
        <ele>2124</ele>
        <time>2026-09-01T07:28:14Z</time>
      </trkpt>
      <trkpt lat="44.62914" lon="7.07166">
        <ele>2123.9</ele>
        <time>2026-09-01T07:28:19Z</time>
      </trkpt>
      <trkpt lat="44.62919" lon="7.07165">
        <ele>2124.2</ele>
        <time>2026-09-01T07:28:25Z</time>
      </trkpt>
      <trkpt lat="44.62922" lon="7.07162">
        <ele>2124.3</ele>
        <time>2026-09-01T07:28:30Z</time>
      </trkpt>
      <trkpt lat="44.62925" lon="7.07162">
        <ele>2124.8</ele>
        <time>2026-09-01T07:28:35Z</time>
      </trkpt>
      <trkpt lat="44.6293" lon="7.07161">
        <ele>2125.5</ele>
        <time>2026-09-01T07:28:41Z</time>
      </trkpt>
      <trkpt lat="44.62932" lon="7.07164">
        <ele>2126.1</ele>
        <time>2026-09-01T07:28:46Z</time>
      </trkpt>
      <trkpt lat="44.62933" lon="7.07166">
        <ele>2126.5</ele>
        <time>2026-09-01T07:28:51Z</time>
      </trkpt>
      <trkpt lat="44.62933" lon="7.07169">
        <ele>2127</ele>
        <time>2026-09-01T07:28:57Z</time>
      </trkpt>
      <trkpt lat="44.62933" lon="7.07169">
        <ele>2127</ele>
        <time>2026-09-01T07:29:02Z</time>
      </trkpt>
      <trkpt lat="44.62939" lon="7.07172">
        <ele>2128.4</ele>
        <time>2026-09-01T07:29:07Z</time>
      </trkpt>
      <trkpt lat="44.62943" lon="7.07175">
        <ele>2129.6</ele>
        <time>2026-09-01T07:29:13Z</time>
      </trkpt>
      <trkpt lat="44.62946" lon="7.07176">
        <ele>2130.3</ele>
        <time>2026-09-01T07:29:18Z</time>
      </trkpt>
      <trkpt lat="44.62948" lon="7.07178">
        <ele>2130.9</ele>
        <time>2026-09-01T07:29:23Z</time>
      </trkpt>
      <trkpt lat="44.62951" lon="7.07179">
        <ele>2131.6</ele>
        <time>2026-09-01T07:29:29Z</time>
      </trkpt>
      <trkpt lat="44.62953" lon="7.07179">
        <ele>2131.9</ele>
        <time>2026-09-01T07:29:34Z</time>
      </trkpt>
      <trkpt lat="44.62956" lon="7.07178">
        <ele>2132.2</ele>
        <time>2026-09-01T07:29:39Z</time>
      </trkpt>
      <trkpt lat="44.62956" lon="7.07178">
        <ele>2132.2</ele>
        <time>2026-09-01T07:29:45Z</time>
      </trkpt>
      <trkpt lat="44.62956" lon="7.07178">
        <ele>2132.2</ele>
        <time>2026-09-01T07:29:50Z</time>
      </trkpt>
      <trkpt lat="44.62956" lon="7.07178">
        <ele>2132.2</ele>
        <time>2026-09-01T07:29:55Z</time>
      </trkpt>
      <trkpt lat="44.62956" lon="7.07178">
        <ele>2132.2</ele>
        <time>2026-09-01T07:30:01Z</time>
      </trkpt>
      <trkpt lat="44.62956" lon="7.07178">
        <ele>2132.2</ele>
        <time>2026-09-01T07:30:06Z</time>
      </trkpt>
      <trkpt lat="44.62956" lon="7.07178">
        <ele>2132.2</ele>
        <time>2026-09-01T07:30:11Z</time>
      </trkpt>
      <trkpt lat="44.62956" lon="7.07178">
        <ele>2132.2</ele>
        <time>2026-09-01T07:30:17Z</time>
      </trkpt>
      <trkpt lat="44.62965" lon="7.07178">
        <ele>2133.6</ele>
        <time>2026-09-01T07:30:22Z</time>
      </trkpt>
      <trkpt lat="44.62966" lon="7.07178">
        <ele>2133.7</ele>
        <time>2026-09-01T07:30:27Z</time>
      </trkpt>
      <trkpt lat="44.62966" lon="7.07178">
        <ele>2133.7</ele>
        <time>2026-09-01T07:30:33Z</time>
      </trkpt>
      <trkpt lat="44.62966" lon="7.07178">
        <ele>2133.7</ele>
        <time>2026-09-01T07:30:38Z</time>
      </trkpt>
      <trkpt lat="44.62966" lon="7.07178">
        <ele>2133.7</ele>
        <time>2026-09-01T07:30:43Z</time>
      </trkpt>
      <trkpt lat="44.62966" lon="7.07178">
        <ele>2133.7</ele>
        <time>2026-09-01T07:30:49Z</time>
      </trkpt>
      <trkpt lat="44.62966" lon="7.07178">
        <ele>2133.7</ele>
        <time>2026-09-01T07:30:54Z</time>
      </trkpt>
      <trkpt lat="44.62966" lon="7.07178">
        <ele>2133.7</ele>
        <time>2026-09-01T07:30:59Z</time>
      </trkpt>
      <trkpt lat="44.62976" lon="7.07183">
        <ele>2136.2</ele>
        <time>2026-09-01T07:31:05Z</time>
      </trkpt>
      <trkpt lat="44.62976" lon="7.07183">
        <ele>2136.2</ele>
        <time>2026-09-01T07:31:10Z</time>
      </trkpt>
      <trkpt lat="44.62981" lon="7.0718">
        <ele>2136.4</ele>
        <time>2026-09-01T07:31:15Z</time>
      </trkpt>
      <trkpt lat="44.62982" lon="7.0718">
        <ele>2136.6</ele>
        <time>2026-09-01T07:31:21Z</time>
      </trkpt>
      <trkpt lat="44.62983" lon="7.0718">
        <ele>2136.7</ele>
        <time>2026-09-01T07:31:26Z</time>
      </trkpt>
      <trkpt lat="44.62983" lon="7.0718">
        <ele>2136.7</ele>
        <time>2026-09-01T07:31:31Z</time>
      </trkpt>
      <trkpt lat="44.62983" lon="7.0718">
        <ele>2136.7</ele>
        <time>2026-09-01T07:31:37Z</time>
      </trkpt>
      <trkpt lat="44.62983" lon="7.0718">
        <ele>2136.7</ele>
        <time>2026-09-01T07:31:42Z</time>
      </trkpt>
      <trkpt lat="44.62983" lon="7.0718">
        <ele>2136.7</ele>
        <time>2026-09-01T07:31:47Z</time>
      </trkpt>
      <trkpt lat="44.62993" lon="7.07178">
        <ele>2137.9</ele>
        <time>2026-09-01T07:31:53Z</time>
      </trkpt>
      <trkpt lat="44.62993" lon="7.07178">
        <ele>2137.9</ele>
        <time>2026-09-01T07:31:58Z</time>
      </trkpt>
      <trkpt lat="44.62993" lon="7.07178">
        <ele>2137.9</ele>
        <time>2026-09-01T07:32:03Z</time>
      </trkpt>
      <trkpt lat="44.62996" lon="7.0717">
        <ele>2137</ele>
        <time>2026-09-01T07:32:09Z</time>
      </trkpt>
      <trkpt lat="44.62996" lon="7.0717">
        <ele>2137</ele>
        <time>2026-09-01T07:32:14Z</time>
      </trkpt>
      <trkpt lat="44.62996" lon="7.0717">
        <ele>2137</ele>
        <time>2026-09-01T07:32:19Z</time>
      </trkpt>
      <trkpt lat="44.62996" lon="7.0717">
        <ele>2137</ele>
        <time>2026-09-01T07:32:25Z</time>
      </trkpt>
      <trkpt lat="44.62996" lon="7.0717">
        <ele>2137</ele>
        <time>2026-09-01T07:32:30Z</time>
      </trkpt>
      <trkpt lat="44.62996" lon="7.0717">
        <ele>2137</ele>
        <time>2026-09-01T07:32:35Z</time>
      </trkpt>
      <trkpt lat="44.62996" lon="7.0717">
        <ele>2137</ele>
        <time>2026-09-01T07:32:41Z</time>
      </trkpt>
      <trkpt lat="44.62996" lon="7.0717">
        <ele>2137</ele>
        <time>2026-09-01T07:32:46Z</time>
      </trkpt>
      <trkpt lat="44.62996" lon="7.0717">
        <ele>2137</ele>
        <time>2026-09-01T07:32:51Z</time>
      </trkpt>
      <trkpt lat="44.62996" lon="7.0717">
        <ele>2137</ele>
        <time>2026-09-01T07:32:57Z</time>
      </trkpt>
      <trkpt lat="44.62996" lon="7.0717">
        <ele>2137</ele>
        <time>2026-09-01T07:33:02Z</time>
      </trkpt>
      <trkpt lat="44.62996" lon="7.0717">
        <ele>2137</ele>
        <time>2026-09-01T07:33:07Z</time>
      </trkpt>
      <trkpt lat="44.62996" lon="7.0717">
        <ele>2137</ele>
        <time>2026-09-01T07:33:13Z</time>
      </trkpt>
      <trkpt lat="44.62996" lon="7.0717">
        <ele>2137</ele>
        <time>2026-09-01T07:33:18Z</time>
      </trkpt>
      <trkpt lat="44.63" lon="7.07163">
        <ele>2136.8</ele>
        <time>2026-09-01T07:33:23Z</time>
      </trkpt>
      <trkpt lat="44.63003" lon="7.07162">
        <ele>2137.5</ele>
        <time>2026-09-01T07:33:29Z</time>
      </trkpt>
      <trkpt lat="44.63004" lon="7.07163">
        <ele>2137.7</ele>
        <time>2026-09-01T07:33:34Z</time>
      </trkpt>
      <trkpt lat="44.63006" lon="7.07169">
        <ele>2138.8</ele>
        <time>2026-09-01T07:33:39Z</time>
      </trkpt>
      <trkpt lat="44.63003" lon="7.07173">
        <ele>2138.8</ele>
        <time>2026-09-01T07:33:45Z</time>
      </trkpt>
      <trkpt lat="44.63003" lon="7.07177">
        <ele>2139.6</ele>
        <time>2026-09-01T07:33:50Z</time>
      </trkpt>
      <trkpt lat="44.63004" lon="7.0718">
        <ele>2140.3</ele>
        <time>2026-09-01T07:33:55Z</time>
      </trkpt>
      <trkpt lat="44.63006" lon="7.07179">
        <ele>2140.6</ele>
        <time>2026-09-01T07:34:01Z</time>
      </trkpt>
      <trkpt lat="44.63008" lon="7.07177">
        <ele>2140.7</ele>
        <time>2026-09-01T07:34:06Z</time>
      </trkpt>
      <trkpt lat="44.6301" lon="7.07174">
        <ele>2140.6</ele>
        <time>2026-09-01T07:34:11Z</time>
      </trkpt>
      <trkpt lat="44.6301" lon="7.07174">
        <ele>2140.6</ele>
        <time>2026-09-01T07:34:17Z</time>
      </trkpt>
      <trkpt lat="44.6301" lon="7.07174">
        <ele>2140.6</ele>
        <time>2026-09-01T07:34:22Z</time>
      </trkpt>
      <trkpt lat="44.6301" lon="7.07174">
        <ele>2140.6</ele>
        <time>2026-09-01T07:34:27Z</time>
      </trkpt>
      <trkpt lat="44.6301" lon="7.07174">
        <ele>2140.6</ele>
        <time>2026-09-01T07:34:33Z</time>
      </trkpt>
      <trkpt lat="44.6301" lon="7.07174">
        <ele>2140.6</ele>
        <time>2026-09-01T07:34:38Z</time>
      </trkpt>
      <trkpt lat="44.6301" lon="7.07174">
        <ele>2140.6</ele>
        <time>2026-09-01T07:34:43Z</time>
      </trkpt>
      <trkpt lat="44.63018" lon="7.07176">
        <ele>2142.8</ele>
        <time>2026-09-01T07:34:49Z</time>
      </trkpt>
      <trkpt lat="44.63019" lon="7.07175">
        <ele>2142.9</ele>
        <time>2026-09-01T07:34:54Z</time>
      </trkpt>
      <trkpt lat="44.6302" lon="7.07175">
        <ele>2143.1</ele>
        <time>2026-09-01T07:34:59Z</time>
      </trkpt>
      <trkpt lat="44.6302" lon="7.07175">
        <ele>2143.1</ele>
        <time>2026-09-01T07:35:05Z</time>
      </trkpt>
      <trkpt lat="44.6302" lon="7.07175">
        <ele>2143.1</ele>
        <time>2026-09-01T07:35:10Z</time>
      </trkpt>
      <trkpt lat="44.6302" lon="7.07175">
        <ele>2143.1</ele>
        <time>2026-09-01T07:35:15Z</time>
      </trkpt>
      <trkpt lat="44.6302" lon="7.07175">
        <ele>2143.1</ele>
        <time>2026-09-01T07:35:21Z</time>
      </trkpt>
      <trkpt lat="44.6302" lon="7.07175">
        <ele>2143.1</ele>
        <time>2026-09-01T07:35:26Z</time>
      </trkpt>
      <trkpt lat="44.6302" lon="7.07175">
        <ele>2143.1</ele>
        <time>2026-09-01T07:35:31Z</time>
      </trkpt>
      <trkpt lat="44.6302" lon="7.07175">
        <ele>2143.1</ele>
        <time>2026-09-01T07:35:37Z</time>
      </trkpt>
      <trkpt lat="44.6302" lon="7.07175">
        <ele>2143.1</ele>
        <time>2026-09-01T07:35:42Z</time>
      </trkpt>
      <trkpt lat="44.63024" lon="7.07187">
        <ele>2146.3</ele>
        <time>2026-09-01T07:35:47Z</time>
      </trkpt>
      <trkpt lat="44.63026" lon="7.07185">
        <ele>2146.4</ele>
        <time>2026-09-01T07:35:53Z</time>
      </trkpt>
      <trkpt lat="44.63029" lon="7.07183">
        <ele>2146.7</ele>
        <time>2026-09-01T07:35:58Z</time>
      </trkpt>
      <trkpt lat="44.63029" lon="7.07182">
        <ele>2146.5</ele>
        <time>2026-09-01T07:36:03Z</time>
      </trkpt>
      <trkpt lat="44.63029" lon="7.07182">
        <ele>2146.5</ele>
        <time>2026-09-01T07:36:09Z</time>
      </trkpt>
      <trkpt lat="44.63029" lon="7.07182">
        <ele>2146.5</ele>
        <time>2026-09-01T07:36:14Z</time>
      </trkpt>
      <trkpt lat="44.63029" lon="7.07182">
        <ele>2146.5</ele>
        <time>2026-09-01T07:36:19Z</time>
      </trkpt>
      <trkpt lat="44.63023" lon="7.07189">
        <ele>2146.4</ele>
        <time>2026-09-01T07:36:25Z</time>
      </trkpt>
      <trkpt lat="44.63023" lon="7.07189">
        <ele>2146.4</ele>
        <time>2026-09-01T07:36:30Z</time>
      </trkpt>
      <trkpt lat="44.63024" lon="7.07196">
        <ele>2148</ele>
        <time>2026-09-01T07:36:35Z</time>
      </trkpt>
      <trkpt lat="44.63024" lon="7.07197">
        <ele>2148.1</ele>
        <time>2026-09-01T07:36:41Z</time>
      </trkpt>
      <trkpt lat="44.63025" lon="7.072">
        <ele>2148.9</ele>
        <time>2026-09-01T07:36:46Z</time>
      </trkpt>
      <trkpt lat="44.63025" lon="7.072">
        <ele>2148.9</ele>
        <time>2026-09-01T07:36:51Z</time>
      </trkpt>
      <trkpt lat="44.63025" lon="7.072">
        <ele>2148.9</ele>
        <time>2026-09-01T07:36:57Z</time>
      </trkpt>
      <trkpt lat="44.63025" lon="7.072">
        <ele>2148.9</ele>
        <time>2026-09-01T07:37:02Z</time>
      </trkpt>
      <trkpt lat="44.63029" lon="7.07203">
        <ele>2150.5</ele>
        <time>2026-09-01T07:37:07Z</time>
      </trkpt>
      <trkpt lat="44.63029" lon="7.07204">
        <ele>2150.6</ele>
        <time>2026-09-01T07:37:13Z</time>
      </trkpt>
      <trkpt lat="44.63033" lon="7.07206">
        <ele>2152</ele>
        <time>2026-09-01T07:37:18Z</time>
      </trkpt>
      <trkpt lat="44.63034" lon="7.07207">
        <ele>2152.4</ele>
        <time>2026-09-01T07:37:23Z</time>
      </trkpt>
      <trkpt lat="44.63034" lon="7.07207">
        <ele>2152.4</ele>
        <time>2026-09-01T07:37:29Z</time>
      </trkpt>
      <trkpt lat="44.63034" lon="7.07207">
        <ele>2152.4</ele>
        <time>2026-09-01T07:37:34Z</time>
      </trkpt>
      <trkpt lat="44.63034" lon="7.07207">
        <ele>2152.4</ele>
        <time>2026-09-01T07:37:39Z</time>
      </trkpt>
      <trkpt lat="44.63043" lon="7.07211">
        <ele>2155.3</ele>
        <time>2026-09-01T07:37:45Z</time>
      </trkpt>
      <trkpt lat="44.63043" lon="7.07212">
        <ele>2155.5</ele>
        <time>2026-09-01T07:37:50Z</time>
      </trkpt>
      <trkpt lat="44.63044" lon="7.07217">
        <ele>2156.7</ele>
        <time>2026-09-01T07:37:55Z</time>
      </trkpt>
      <trkpt lat="44.63044" lon="7.07218">
        <ele>2156.9</ele>
        <time>2026-09-01T07:38:01Z</time>
      </trkpt>
      <trkpt lat="44.63043" lon="7.07223">
        <ele>2157.6</ele>
        <time>2026-09-01T07:38:06Z</time>
      </trkpt>
      <trkpt lat="44.63043" lon="7.07223">
        <ele>2157.6</ele>
        <time>2026-09-01T07:38:11Z</time>
      </trkpt>
      <trkpt lat="44.63043" lon="7.07223">
        <ele>2157.6</ele>
        <time>2026-09-01T07:38:17Z</time>
      </trkpt>
      <trkpt lat="44.63043" lon="7.07223">
        <ele>2157.6</ele>
        <time>2026-09-01T07:38:22Z</time>
      </trkpt>
      <trkpt lat="44.63043" lon="7.07223">
        <ele>2157.6</ele>
        <time>2026-09-01T07:38:27Z</time>
      </trkpt>
      <trkpt lat="44.63043" lon="7.07223">
        <ele>2157.6</ele>
        <time>2026-09-01T07:38:33Z</time>
      </trkpt>
      <trkpt lat="44.63046" lon="7.0723">
        <ele>2159.7</ele>
        <time>2026-09-01T07:38:38Z</time>
      </trkpt>
      <trkpt lat="44.63046" lon="7.0723">
        <ele>2159.7</ele>
        <time>2026-09-01T07:38:43Z</time>
      </trkpt>
      <trkpt lat="44.63046" lon="7.0723">
        <ele>2159.7</ele>
        <time>2026-09-01T07:38:49Z</time>
      </trkpt>
      <trkpt lat="44.63046" lon="7.0723">
        <ele>2159.7</ele>
        <time>2026-09-01T07:38:54Z</time>
      </trkpt>
      <trkpt lat="44.63046" lon="7.0723">
        <ele>2159.7</ele>
        <time>2026-09-01T07:38:59Z</time>
      </trkpt>
      <trkpt lat="44.63046" lon="7.0723">
        <ele>2159.7</ele>
        <time>2026-09-01T07:39:05Z</time>
      </trkpt>
      <trkpt lat="44.63046" lon="7.0723">
        <ele>2159.7</ele>
        <time>2026-09-01T07:39:10Z</time>
      </trkpt>
      <trkpt lat="44.63046" lon="7.0723">
        <ele>2159.7</ele>
        <time>2026-09-01T07:39:15Z</time>
      </trkpt>
      <trkpt lat="44.63046" lon="7.0723">
        <ele>2159.7</ele>
        <time>2026-09-01T07:39:21Z</time>
      </trkpt>
      <trkpt lat="44.63046" lon="7.0723">
        <ele>2159.7</ele>
        <time>2026-09-01T07:39:26Z</time>
      </trkpt>
      <trkpt lat="44.63046" lon="7.0723">
        <ele>2159.7</ele>
        <time>2026-09-01T07:39:31Z</time>
      </trkpt>
      <trkpt lat="44.63046" lon="7.0723">
        <ele>2159.7</ele>
        <time>2026-09-01T07:39:37Z</time>
      </trkpt>
      <trkpt lat="44.63046" lon="7.0723">
        <ele>2159.7</ele>
        <time>2026-09-01T07:39:42Z</time>
      </trkpt>
      <trkpt lat="44.63046" lon="7.0723">
        <ele>2159.7</ele>
        <time>2026-09-01T07:39:47Z</time>
      </trkpt>
      <trkpt lat="44.63053" lon="7.07245">
        <ele>2164.4</ele>
        <time>2026-09-01T07:39:53Z</time>
      </trkpt>
      <trkpt lat="44.63053" lon="7.07245">
        <ele>2164.4</ele>
        <time>2026-09-01T07:39:58Z</time>
      </trkpt>
      <trkpt lat="44.63048" lon="7.0725">
        <ele>2164.1</ele>
        <time>2026-09-01T07:40:03Z</time>
      </trkpt>
      <trkpt lat="44.63046" lon="7.07253">
        <ele>2164.5</ele>
        <time>2026-09-01T07:40:09Z</time>
      </trkpt>
      <trkpt lat="44.63049" lon="7.07256">
        <ele>2166.2</ele>
        <time>2026-09-01T07:40:14Z</time>
      </trkpt>
      <trkpt lat="44.63051" lon="7.07257">
        <ele>2167</ele>
        <time>2026-09-01T07:40:19Z</time>
      </trkpt>
      <trkpt lat="44.63055" lon="7.07256">
        <ele>2167.7</ele>
        <time>2026-09-01T07:40:25Z</time>
      </trkpt>
      <trkpt lat="44.63057" lon="7.07259">
        <ele>2169.1</ele>
        <time>2026-09-01T07:40:30Z</time>
      </trkpt>
      <trkpt lat="44.63059" lon="7.07262">
        <ele>2170.5</ele>
        <time>2026-09-01T07:40:35Z</time>
      </trkpt>
      <trkpt lat="44.6306" lon="7.07267">
        <ele>2172.3</ele>
        <time>2026-09-01T07:40:41Z</time>
      </trkpt>
      <trkpt lat="44.63058" lon="7.0727">
        <ele>2172.7</ele>
        <time>2026-09-01T07:40:46Z</time>
      </trkpt>
      <trkpt lat="44.63057" lon="7.07273">
        <ele>2173.4</ele>
        <time>2026-09-01T07:40:51Z</time>
      </trkpt>
      <trkpt lat="44.63057" lon="7.07273">
        <ele>2173.4</ele>
        <time>2026-09-01T07:40:57Z</time>
      </trkpt>
      <trkpt lat="44.63057" lon="7.07273">
        <ele>2173.4</ele>
        <time>2026-09-01T07:41:02Z</time>
      </trkpt>
      <trkpt lat="44.63057" lon="7.07273">
        <ele>2173.4</ele>
        <time>2026-09-01T07:41:07Z</time>
      </trkpt>
      <trkpt lat="44.63057" lon="7.07273">
        <ele>2173.4</ele>
        <time>2026-09-01T07:41:13Z</time>
      </trkpt>
      <trkpt lat="44.63057" lon="7.07273">
        <ele>2173.4</ele>
        <time>2026-09-01T07:41:18Z</time>
      </trkpt>
      <trkpt lat="44.63057" lon="7.07273">
        <ele>2173.4</ele>
        <time>2026-09-01T07:41:23Z</time>
      </trkpt>
      <trkpt lat="44.63057" lon="7.07273">
        <ele>2173.4</ele>
        <time>2026-09-01T07:41:29Z</time>
      </trkpt>
      <trkpt lat="44.63057" lon="7.07273">
        <ele>2173.4</ele>
        <time>2026-09-01T07:41:34Z</time>
      </trkpt>
      <trkpt lat="44.63063" lon="7.07283">
        <ele>2177.9</ele>
        <time>2026-09-01T07:41:39Z</time>
      </trkpt>
      <trkpt lat="44.63062" lon="7.07285">
        <ele>2178.2</ele>
        <time>2026-09-01T07:41:45Z</time>
      </trkpt>
      <trkpt lat="44.63062" lon="7.07285">
        <ele>2178.2</ele>
        <time>2026-09-01T07:41:50Z</time>
      </trkpt>
      <trkpt lat="44.63062" lon="7.07285">
        <ele>2178.2</ele>
        <time>2026-09-01T07:41:55Z</time>
      </trkpt>
      <trkpt lat="44.63069" lon="7.07287">
        <ele>2180.4</ele>
        <time>2026-09-01T07:42:01Z</time>
      </trkpt>
      <trkpt lat="44.63071" lon="7.07285">
        <ele>2180.3</ele>
        <time>2026-09-01T07:42:06Z</time>
      </trkpt>
      <trkpt lat="44.63074" lon="7.07285">
        <ele>2181</ele>
        <time>2026-09-01T07:42:11Z</time>
      </trkpt>
      <trkpt lat="44.63071" lon="7.07287">
        <ele>2180.9</ele>
        <time>2026-09-01T07:42:17Z</time>
      </trkpt>
      <trkpt lat="44.63068" lon="7.07291">
        <ele>2181.4</ele>
        <time>2026-09-01T07:42:22Z</time>
      </trkpt>
      <trkpt lat="44.63066" lon="7.07294">
        <ele>2181.9</ele>
        <time>2026-09-01T07:42:27Z</time>
      </trkpt>
      <trkpt lat="44.63066" lon="7.07293">
        <ele>2181.6</ele>
        <time>2026-09-01T07:42:33Z</time>
      </trkpt>
      <trkpt lat="44.63066" lon="7.07293">
        <ele>2181.6</ele>
        <time>2026-09-01T07:42:38Z</time>
      </trkpt>
      <trkpt lat="44.63066" lon="7.07293">
        <ele>2181.6</ele>
        <time>2026-09-01T07:42:43Z</time>
      </trkpt>
      <trkpt lat="44.63062" lon="7.07299">
        <ele>2182.5</ele>
        <time>2026-09-01T07:42:49Z</time>
      </trkpt>
      <trkpt lat="44.63064" lon="7.07301">
        <ele>2183.5</ele>
        <time>2026-09-01T07:42:54Z</time>
      </trkpt>
      <trkpt lat="44.63068" lon="7.07302">
        <ele>2184.7</ele>
        <time>2026-09-01T07:42:59Z</time>
      </trkpt>
      <trkpt lat="44.63068" lon="7.07304">
        <ele>2185.3</ele>
        <time>2026-09-01T07:43:05Z</time>
      </trkpt>
      <trkpt lat="44.63072" lon="7.07306">
        <ele>2186.7</ele>
        <time>2026-09-01T07:43:10Z</time>
      </trkpt>
      <trkpt lat="44.63075" lon="7.07307">
        <ele>2187.7</ele>
        <time>2026-09-01T07:43:15Z</time>
      </trkpt>
      <trkpt lat="44.63074" lon="7.0731">
        <ele>2188.3</ele>
        <time>2026-09-01T07:43:21Z</time>
      </trkpt>
      <trkpt lat="44.63071" lon="7.07311">
        <ele>2188</ele>
        <time>2026-09-01T07:43:26Z</time>
      </trkpt>
      <trkpt lat="44.63069" lon="7.07313">
        <ele>2188.2</ele>
        <time>2026-09-01T07:43:31Z</time>
      </trkpt>
      <trkpt lat="44.63068" lon="7.07314">
        <ele>2188.3</ele>
        <time>2026-09-01T07:43:37Z</time>
      </trkpt>
      <trkpt lat="44.63066" lon="7.07317">
        <ele>2188.8</ele>
        <time>2026-09-01T07:43:42Z</time>
      </trkpt>
      <trkpt lat="44.63066" lon="7.07319">
        <ele>2189.4</ele>
        <time>2026-09-01T07:43:47Z</time>
      </trkpt>
      <trkpt lat="44.63066" lon="7.07319">
        <ele>2189.4</ele>
        <time>2026-09-01T07:43:53Z</time>
      </trkpt>
      <trkpt lat="44.63062" lon="7.07319">
        <ele>2188.6</ele>
        <time>2026-09-01T07:43:58Z</time>
      </trkpt>
      <trkpt lat="44.6306" lon="7.07319">
        <ele>2188.2</ele>
        <time>2026-09-01T07:44:03Z</time>
      </trkpt>
      <trkpt lat="44.6306" lon="7.07319">
        <ele>2188.2</ele>
        <time>2026-09-01T07:44:09Z</time>
      </trkpt>
      <trkpt lat="44.6306" lon="7.07319">
        <ele>2188.2</ele>
        <time>2026-09-01T07:44:14Z</time>
      </trkpt>
      <trkpt lat="44.6306" lon="7.07319">
        <ele>2188.2</ele>
        <time>2026-09-01T07:44:19Z</time>
      </trkpt>
      <trkpt lat="44.6306" lon="7.07319">
        <ele>2188.2</ele>
        <time>2026-09-01T07:44:25Z</time>
      </trkpt>
      <trkpt lat="44.63065" lon="7.0733">
        <ele>2192.5</ele>
        <time>2026-09-01T07:44:30Z</time>
      </trkpt>
      <trkpt lat="44.63065" lon="7.0733">
        <ele>2192.5</ele>
        <time>2026-09-01T07:44:35Z</time>
      </trkpt>
      <trkpt lat="44.63065" lon="7.0733">
        <ele>2192.5</ele>
        <time>2026-09-01T07:44:41Z</time>
      </trkpt>
      <trkpt lat="44.63065" lon="7.0733">
        <ele>2192.5</ele>
        <time>2026-09-01T07:44:46Z</time>
      </trkpt>
      <trkpt lat="44.63065" lon="7.0733">
        <ele>2192.5</ele>
        <time>2026-09-01T07:44:51Z</time>
      </trkpt>
      <trkpt lat="44.63065" lon="7.0733">
        <ele>2192.5</ele>
        <time>2026-09-01T07:44:57Z</time>
      </trkpt>
      <trkpt lat="44.63065" lon="7.0733">
        <ele>2192.5</ele>
        <time>2026-09-01T07:45:02Z</time>
      </trkpt>
      <trkpt lat="44.63061" lon="7.07344">
        <ele>2194.9</ele>
        <time>2026-09-01T07:45:07Z</time>
      </trkpt>
      <trkpt lat="44.6306" lon="7.07349">
        <ele>2195.7</ele>
        <time>2026-09-01T07:45:13Z</time>
      </trkpt>
      <trkpt lat="44.6306" lon="7.07353">
        <ele>2196.5</ele>
        <time>2026-09-01T07:45:18Z</time>
      </trkpt>
      <trkpt lat="44.63061" lon="7.07357">
        <ele>2197.5</ele>
        <time>2026-09-01T07:45:23Z</time>
      </trkpt>
      <trkpt lat="44.63064" lon="7.07361">
        <ele>2198.9</ele>
        <time>2026-09-01T07:45:29Z</time>
      </trkpt>
      <trkpt lat="44.63065" lon="7.07364">
        <ele>2199.7</ele>
        <time>2026-09-01T07:45:34Z</time>
      </trkpt>
      <trkpt lat="44.63065" lon="7.07366">
        <ele>2200.1</ele>
        <time>2026-09-01T07:45:39Z</time>
      </trkpt>
      <trkpt lat="44.63066" lon="7.07367">
        <ele>2200.5</ele>
        <time>2026-09-01T07:45:45Z</time>
      </trkpt>
      <trkpt lat="44.63066" lon="7.07367">
        <ele>2200.5</ele>
        <time>2026-09-01T07:45:50Z</time>
      </trkpt>
      <trkpt lat="44.63066" lon="7.07367">
        <ele>2200.5</ele>
        <time>2026-09-01T07:45:55Z</time>
      </trkpt>
      <trkpt lat="44.63071" lon="7.07376">
        <ele>2203.3</ele>
        <time>2026-09-01T07:46:01Z</time>
      </trkpt>
      <trkpt lat="44.63073" lon="7.07379">
        <ele>2204.3</ele>
        <time>2026-09-01T07:46:06Z</time>
      </trkpt>
      <trkpt lat="44.63074" lon="7.07384">
        <ele>2205.5</ele>
        <time>2026-09-01T07:46:11Z</time>
      </trkpt>
      <trkpt lat="44.63075" lon="7.07388">
        <ele>2206.6</ele>
        <time>2026-09-01T07:46:17Z</time>
      </trkpt>
      <trkpt lat="44.63076" lon="7.07391">
        <ele>2207.4</ele>
        <time>2026-09-01T07:46:22Z</time>
      </trkpt>
      <trkpt lat="44.63076" lon="7.07395">
        <ele>2208.2</ele>
        <time>2026-09-01T07:46:27Z</time>
      </trkpt>
      <trkpt lat="44.63079" lon="7.07398">
        <ele>2209.4</ele>
        <time>2026-09-01T07:46:33Z</time>
      </trkpt>
      <trkpt lat="44.63081" lon="7.07399">
        <ele>2209.9</ele>
        <time>2026-09-01T07:46:38Z</time>
      </trkpt>
      <trkpt lat="44.63083" lon="7.07401">
        <ele>2210.7</ele>
        <time>2026-09-01T07:46:43Z</time>
      </trkpt>
      <trkpt lat="44.63085" lon="7.07403">
        <ele>2211.7</ele>
        <time>2026-09-01T07:46:49Z</time>
      </trkpt>
      <trkpt lat="44.63085" lon="7.07403">
        <ele>2211.7</ele>
        <time>2026-09-01T07:46:54Z</time>
      </trkpt>
      <trkpt lat="44.63085" lon="7.07403">
        <ele>2211.7</ele>
        <time>2026-09-01T07:46:59Z</time>
      </trkpt>
      <trkpt lat="44.63085" lon="7.07403">
        <ele>2211.7</ele>
        <time>2026-09-01T07:47:05Z</time>
      </trkpt>
      <trkpt lat="44.63085" lon="7.07403">
        <ele>2211.7</ele>
        <time>2026-09-01T07:47:10Z</time>
      </trkpt>
      <trkpt lat="44.63085" lon="7.07403">
        <ele>2211.7</ele>
        <time>2026-09-01T07:47:15Z</time>
      </trkpt>
      <trkpt lat="44.63085" lon="7.07403">
        <ele>2211.7</ele>
        <time>2026-09-01T07:47:21Z</time>
      </trkpt>
      <trkpt lat="44.63085" lon="7.07403">
        <ele>2211.7</ele>
        <time>2026-09-01T07:47:26Z</time>
      </trkpt>
      <trkpt lat="44.63091" lon="7.07408">
        <ele>2214.3</ele>
        <time>2026-09-01T07:47:31Z</time>
      </trkpt>
      <trkpt lat="44.63094" lon="7.07405">
        <ele>2214.5</ele>
        <time>2026-09-01T07:47:37Z</time>
      </trkpt>
      <trkpt lat="44.63098" lon="7.07404">
        <ele>2215.4</ele>
        <time>2026-09-01T07:47:42Z</time>
      </trkpt>
      <trkpt lat="44.63101" lon="7.07407">
        <ele>2216.8</ele>
        <time>2026-09-01T07:47:47Z</time>
      </trkpt>
      <trkpt lat="44.63103" lon="7.0741">
        <ele>2217.9</ele>
        <time>2026-09-01T07:47:53Z</time>
      </trkpt>
      <trkpt lat="44.63103" lon="7.07412">
        <ele>2218.3</ele>
        <time>2026-09-01T07:47:58Z</time>
      </trkpt>
      <trkpt lat="44.63103" lon="7.07414">
        <ele>2218.7</ele>
        <time>2026-09-01T07:48:03Z</time>
      </trkpt>
      <trkpt lat="44.63103" lon="7.07416">
        <ele>2219.1</ele>
        <time>2026-09-01T07:48:09Z</time>
      </trkpt>
      <trkpt lat="44.63106" lon="7.0742">
        <ele>2220.4</ele>
        <time>2026-09-01T07:48:14Z</time>
      </trkpt>
      <trkpt lat="44.63106" lon="7.07423">
        <ele>2220.8</ele>
        <time>2026-09-01T07:48:19Z</time>
      </trkpt>
      <trkpt lat="44.63106" lon="7.07424">
        <ele>2221</ele>
        <time>2026-09-01T07:48:25Z</time>
      </trkpt>
      <trkpt lat="44.63107" lon="7.07428">
        <ele>2221.8</ele>
        <time>2026-09-01T07:48:30Z</time>
      </trkpt>
      <trkpt lat="44.63106" lon="7.07431">
        <ele>2221.9</ele>
        <time>2026-09-01T07:48:35Z</time>
      </trkpt>
      <trkpt lat="44.63106" lon="7.07435">
        <ele>2222.5</ele>
        <time>2026-09-01T07:48:41Z</time>
      </trkpt>
      <trkpt lat="44.63106" lon="7.07435">
        <ele>2222.5</ele>
        <time>2026-09-01T07:48:46Z</time>
      </trkpt>
      <trkpt lat="44.63106" lon="7.07435">
        <ele>2222.5</ele>
        <time>2026-09-01T07:48:51Z</time>
      </trkpt>
      <trkpt lat="44.63106" lon="7.07435">
        <ele>2222.5</ele>
        <time>2026-09-01T07:48:57Z</time>
      </trkpt>
      <trkpt lat="44.63106" lon="7.07435">
        <ele>2222.5</ele>
        <time>2026-09-01T07:49:02Z</time>
      </trkpt>
      <trkpt lat="44.63106" lon="7.07435">
        <ele>2222.5</ele>
        <time>2026-09-01T07:49:07Z</time>
      </trkpt>
      <trkpt lat="44.63106" lon="7.07435">
        <ele>2222.5</ele>
        <time>2026-09-01T07:49:13Z</time>
      </trkpt>
      <trkpt lat="44.63106" lon="7.07435">
        <ele>2222.5</ele>
        <time>2026-09-01T07:49:18Z</time>
      </trkpt>
      <trkpt lat="44.63106" lon="7.07435">
        <ele>2222.5</ele>
        <time>2026-09-01T07:49:23Z</time>
      </trkpt>
      <trkpt lat="44.63106" lon="7.07435">
        <ele>2222.5</ele>
        <time>2026-09-01T07:49:29Z</time>
      </trkpt>
      <trkpt lat="44.63106" lon="7.07435">
        <ele>2222.5</ele>
        <time>2026-09-01T07:49:34Z</time>
      </trkpt>
      <trkpt lat="44.63109" lon="7.07447">
        <ele>2225</ele>
        <time>2026-09-01T07:49:39Z</time>
      </trkpt>
      <trkpt lat="44.63108" lon="7.07449">
        <ele>2225</ele>
        <time>2026-09-01T07:49:45Z</time>
      </trkpt>
      <trkpt lat="44.63108" lon="7.0745">
        <ele>2225.1</ele>
        <time>2026-09-01T07:49:50Z</time>
      </trkpt>
      <trkpt lat="44.63108" lon="7.0745">
        <ele>2225.1</ele>
        <time>2026-09-01T07:49:55Z</time>
      </trkpt>
      <trkpt lat="44.63108" lon="7.0745">
        <ele>2225.1</ele>
        <time>2026-09-01T07:50:01Z</time>
      </trkpt>
      <trkpt lat="44.63108" lon="7.0745">
        <ele>2225.1</ele>
        <time>2026-09-01T07:50:06Z</time>
      </trkpt>
      <trkpt lat="44.63108" lon="7.0745">
        <ele>2225.1</ele>
        <time>2026-09-01T07:50:11Z</time>
      </trkpt>
      <trkpt lat="44.63115" lon="7.07459">
        <ele>2228.4</ele>
        <time>2026-09-01T07:50:17Z</time>
      </trkpt>
      <trkpt lat="44.63115" lon="7.07459">
        <ele>2228.4</ele>
        <time>2026-09-01T07:50:22Z</time>
      </trkpt>
      <trkpt lat="44.63115" lon="7.07459">
        <ele>2228.4</ele>
        <time>2026-09-01T07:50:27Z</time>
      </trkpt>
      <trkpt lat="44.63121" lon="7.07457">
        <ele>2229.9</ele>
        <time>2026-09-01T07:50:33Z</time>
      </trkpt>
      <trkpt lat="44.63122" lon="7.07456">
        <ele>2230</ele>
        <time>2026-09-01T07:50:38Z</time>
      </trkpt>
      <trkpt lat="44.63122" lon="7.07456">
        <ele>2230</ele>
        <time>2026-09-01T07:50:43Z</time>
      </trkpt>
      <trkpt lat="44.63124" lon="7.07462">
        <ele>2231.5</ele>
        <time>2026-09-01T07:50:49Z</time>
      </trkpt>
      <trkpt lat="44.63124" lon="7.07462">
        <ele>2231.5</ele>
        <time>2026-09-01T07:50:54Z</time>
      </trkpt>
      <trkpt lat="44.63118" lon="7.07468">
        <ele>2230.6</ele>
        <time>2026-09-01T07:50:59Z</time>
      </trkpt>
      <trkpt lat="44.63116" lon="7.07471">
        <ele>2230.4</ele>
        <time>2026-09-01T07:51:05Z</time>
      </trkpt>
      <trkpt lat="44.63112" lon="7.07473">
        <ele>2229.5</ele>
        <time>2026-09-01T07:51:10Z</time>
      </trkpt>
      <trkpt lat="44.63109" lon="7.07476">
        <ele>2229</ele>
        <time>2026-09-01T07:51:15Z</time>
      </trkpt>
      <trkpt lat="44.63107" lon="7.0748">
        <ele>2228.9</ele>
        <time>2026-09-01T07:51:21Z</time>
      </trkpt>
      <trkpt lat="44.63109" lon="7.07483">
        <ele>2230</ele>
        <time>2026-09-01T07:51:26Z</time>
      </trkpt>
      <trkpt lat="44.63111" lon="7.07485">
        <ele>2230.9</ele>
        <time>2026-09-01T07:51:31Z</time>
      </trkpt>
      <trkpt lat="44.63111" lon="7.07485">
        <ele>2230.9</ele>
        <time>2026-09-01T07:51:37Z</time>
      </trkpt>
      <trkpt lat="44.63111" lon="7.07485">
        <ele>2230.9</ele>
        <time>2026-09-01T07:51:42Z</time>
      </trkpt>
      <trkpt lat="44.63111" lon="7.07485">
        <ele>2230.9</ele>
        <time>2026-09-01T07:51:47Z</time>
      </trkpt>
      <trkpt lat="44.63118" lon="7.07487">
        <ele>2233.3</ele>
        <time>2026-09-01T07:51:53Z</time>
      </trkpt>
      <trkpt lat="44.63119" lon="7.07487">
        <ele>2233.7</ele>
        <time>2026-09-01T07:51:58Z</time>
      </trkpt>
      <trkpt lat="44.63119" lon="7.07487">
        <ele>2233.7</ele>
        <time>2026-09-01T07:52:03Z</time>
      </trkpt>
      <trkpt lat="44.63122" lon="7.07488">
        <ele>2234.8</ele>
        <time>2026-09-01T07:52:09Z</time>
      </trkpt>
      <trkpt lat="44.63122" lon="7.07488">
        <ele>2234.8</ele>
        <time>2026-09-01T07:52:14Z</time>
      </trkpt>
      <trkpt lat="44.63122" lon="7.07488">
        <ele>2234.8</ele>
        <time>2026-09-01T07:52:19Z</time>
      </trkpt>
      <trkpt lat="44.63122" lon="7.07488">
        <ele>2234.8</ele>
        <time>2026-09-01T07:52:25Z</time>
      </trkpt>
      <trkpt lat="44.63122" lon="7.07488">
        <ele>2234.8</ele>
        <time>2026-09-01T07:52:30Z</time>
      </trkpt>
      <trkpt lat="44.63122" lon="7.07488">
        <ele>2234.8</ele>
        <time>2026-09-01T07:52:35Z</time>
      </trkpt>
      <trkpt lat="44.63122" lon="7.07488">
        <ele>2234.8</ele>
        <time>2026-09-01T07:52:41Z</time>
      </trkpt>
      <trkpt lat="44.63122" lon="7.07488">
        <ele>2234.8</ele>
        <time>2026-09-01T07:52:46Z</time>
      </trkpt>
      <trkpt lat="44.63122" lon="7.07488">
        <ele>2234.8</ele>
        <time>2026-09-01T07:52:51Z</time>
      </trkpt>
      <trkpt lat="44.63122" lon="7.07488">
        <ele>2234.8</ele>
        <time>2026-09-01T07:52:57Z</time>
      </trkpt>
      <trkpt lat="44.63122" lon="7.07488">
        <ele>2234.8</ele>
        <time>2026-09-01T07:53:02Z</time>
      </trkpt>
      <trkpt lat="44.63122" lon="7.07488">
        <ele>2234.8</ele>
        <time>2026-09-01T07:53:07Z</time>
      </trkpt>
      <trkpt lat="44.63122" lon="7.07488">
        <ele>2234.8</ele>
        <time>2026-09-01T07:53:13Z</time>
      </trkpt>
      <trkpt lat="44.63122" lon="7.07488">
        <ele>2234.8</ele>
        <time>2026-09-01T07:53:18Z</time>
      </trkpt>
      <trkpt lat="44.63122" lon="7.07488">
        <ele>2234.8</ele>
        <time>2026-09-01T07:53:23Z</time>
      </trkpt>
      <trkpt lat="44.63122" lon="7.07488">
        <ele>2234.8</ele>
        <time>2026-09-01T07:53:29Z</time>
      </trkpt>
      <trkpt lat="44.63113" lon="7.07496">
        <ele>2233</ele>
        <time>2026-09-01T07:53:34Z</time>
      </trkpt>
      <trkpt lat="44.63113" lon="7.075">
        <ele>2233.6</ele>
        <time>2026-09-01T07:53:39Z</time>
      </trkpt>
      <trkpt lat="44.63111" lon="7.07506">
        <ele>2233.5</ele>
        <time>2026-09-01T07:53:45Z</time>
      </trkpt>
      <trkpt lat="44.63111" lon="7.07507">
        <ele>2233.6</ele>
        <time>2026-09-01T07:53:50Z</time>
      </trkpt>
      <trkpt lat="44.63111" lon="7.07507">
        <ele>2233.6</ele>
        <time>2026-09-01T07:53:55Z</time>
      </trkpt>
      <trkpt lat="44.63111" lon="7.07507">
        <ele>2233.6</ele>
        <time>2026-09-01T07:54:01Z</time>
      </trkpt>
      <trkpt lat="44.63111" lon="7.07507">
        <ele>2233.6</ele>
        <time>2026-09-01T07:54:06Z</time>
      </trkpt>
      <trkpt lat="44.63111" lon="7.07507">
        <ele>2233.6</ele>
        <time>2026-09-01T07:54:11Z</time>
      </trkpt>
      <trkpt lat="44.63111" lon="7.07507">
        <ele>2233.6</ele>
        <time>2026-09-01T07:54:17Z</time>
      </trkpt>
      <trkpt lat="44.63111" lon="7.07507">
        <ele>2233.6</ele>
        <time>2026-09-01T07:54:22Z</time>
      </trkpt>
      <trkpt lat="44.63111" lon="7.07507">
        <ele>2233.6</ele>
        <time>2026-09-01T07:54:27Z</time>
      </trkpt>
      <trkpt lat="44.63111" lon="7.07507">
        <ele>2233.6</ele>
        <time>2026-09-01T07:54:33Z</time>
      </trkpt>
      <trkpt lat="44.63111" lon="7.07507">
        <ele>2233.6</ele>
        <time>2026-09-01T07:54:38Z</time>
      </trkpt>
      <trkpt lat="44.63111" lon="7.07507">
        <ele>2233.6</ele>
        <time>2026-09-01T07:54:43Z</time>
      </trkpt>
      <trkpt lat="44.63111" lon="7.07507">
        <ele>2233.6</ele>
        <time>2026-09-01T07:54:49Z</time>
      </trkpt>
      <trkpt lat="44.63111" lon="7.07507">
        <ele>2233.6</ele>
        <time>2026-09-01T07:54:54Z</time>
      </trkpt>
      <trkpt lat="44.63111" lon="7.07507">
        <ele>2233.6</ele>
        <time>2026-09-01T07:54:59Z</time>
      </trkpt>
      <trkpt lat="44.63111" lon="7.07507">
        <ele>2233.6</ele>
        <time>2026-09-01T07:55:05Z</time>
      </trkpt>
      <trkpt lat="44.63111" lon="7.07507">
        <ele>2233.6</ele>
        <time>2026-09-01T07:55:10Z</time>
      </trkpt>
      <trkpt lat="44.63119" lon="7.07518">
        <ele>2237.2</ele>
        <time>2026-09-01T07:55:15Z</time>
      </trkpt>
      <trkpt lat="44.63124" lon="7.07522">
        <ele>2239.3</ele>
        <time>2026-09-01T07:55:21Z</time>
      </trkpt>
      <trkpt lat="44.63126" lon="7.07524">
        <ele>2240.1</ele>
        <time>2026-09-01T07:55:26Z</time>
      </trkpt>
      <trkpt lat="44.63125" lon="7.07525">
        <ele>2239.9</ele>
        <time>2026-09-01T07:55:31Z</time>
      </trkpt>
      <trkpt lat="44.63123" lon="7.07528">
        <ele>2239.5</ele>
        <time>2026-09-01T07:55:37Z</time>
      </trkpt>
      <trkpt lat="44.63122" lon="7.07529">
        <ele>2239.2</ele>
        <time>2026-09-01T07:55:42Z</time>
      </trkpt>
      <trkpt lat="44.63121" lon="7.07536">
        <ele>2239.5</ele>
        <time>2026-09-01T07:55:47Z</time>
      </trkpt>
      <trkpt lat="44.63121" lon="7.07539">
        <ele>2239.8</ele>
        <time>2026-09-01T07:55:53Z</time>
      </trkpt>
      <trkpt lat="44.63122" lon="7.07543">
        <ele>2240.5</ele>
        <time>2026-09-01T07:55:58Z</time>
      </trkpt>
      <trkpt lat="44.63122" lon="7.07544">
        <ele>2240.6</ele>
        <time>2026-09-01T07:56:03Z</time>
      </trkpt>
      <trkpt lat="44.63122" lon="7.07552">
        <ele>2241.4</ele>
        <time>2026-09-01T07:56:09Z</time>
      </trkpt>
      <trkpt lat="44.63122" lon="7.07552">
        <ele>2241.4</ele>
        <time>2026-09-01T07:56:14Z</time>
      </trkpt>
      <trkpt lat="44.63122" lon="7.07552">
        <ele>2241.4</ele>
        <time>2026-09-01T07:56:19Z</time>
      </trkpt>
      <trkpt lat="44.63122" lon="7.07552">
        <ele>2241.4</ele>
        <time>2026-09-01T07:56:25Z</time>
      </trkpt>
      <trkpt lat="44.63122" lon="7.07552">
        <ele>2241.4</ele>
        <time>2026-09-01T07:56:30Z</time>
      </trkpt>
      <trkpt lat="44.63122" lon="7.07552">
        <ele>2241.4</ele>
        <time>2026-09-01T07:56:35Z</time>
      </trkpt>
      <trkpt lat="44.63122" lon="7.07552">
        <ele>2241.4</ele>
        <time>2026-09-01T07:56:41Z</time>
      </trkpt>
      <trkpt lat="44.63122" lon="7.07552">
        <ele>2241.4</ele>
        <time>2026-09-01T07:56:46Z</time>
      </trkpt>
      <trkpt lat="44.63122" lon="7.07552">
        <ele>2241.4</ele>
        <time>2026-09-01T07:56:51Z</time>
      </trkpt>
      <trkpt lat="44.63122" lon="7.07552">
        <ele>2241.4</ele>
        <time>2026-09-01T07:56:57Z</time>
      </trkpt>
      <trkpt lat="44.63122" lon="7.07552">
        <ele>2241.4</ele>
        <time>2026-09-01T07:57:02Z</time>
      </trkpt>
      <trkpt lat="44.63122" lon="7.07552">
        <ele>2241.4</ele>
        <time>2026-09-01T07:57:07Z</time>
      </trkpt>
      <trkpt lat="44.63122" lon="7.07552">
        <ele>2241.4</ele>
        <time>2026-09-01T07:57:13Z</time>
      </trkpt>
      <trkpt lat="44.63122" lon="7.07552">
        <ele>2241.4</ele>
        <time>2026-09-01T07:57:18Z</time>
      </trkpt>
      <trkpt lat="44.63122" lon="7.07552">
        <ele>2241.4</ele>
        <time>2026-09-01T07:57:23Z</time>
      </trkpt>
      <trkpt lat="44.63122" lon="7.07552">
        <ele>2241.4</ele>
        <time>2026-09-01T07:57:29Z</time>
      </trkpt>
      <trkpt lat="44.63122" lon="7.07552">
        <ele>2241.4</ele>
        <time>2026-09-01T07:57:34Z</time>
      </trkpt>
      <trkpt lat="44.63122" lon="7.07552">
        <ele>2241.4</ele>
        <time>2026-09-01T07:57:39Z</time>
      </trkpt>
      <trkpt lat="44.63132" lon="7.07562">
        <ele>2246.1</ele>
        <time>2026-09-01T07:57:45Z</time>
      </trkpt>
      <trkpt lat="44.63133" lon="7.07565">
        <ele>2246.8</ele>
        <time>2026-09-01T07:57:50Z</time>
      </trkpt>
      <trkpt lat="44.63133" lon="7.07568">
        <ele>2247.1</ele>
        <time>2026-09-01T07:57:55Z</time>
      </trkpt>
      <trkpt lat="44.63132" lon="7.0757">
        <ele>2246.9</ele>
        <time>2026-09-01T07:58:01Z</time>
      </trkpt>
      <trkpt lat="44.63134" lon="7.07574">
        <ele>2248.1</ele>
        <time>2026-09-01T07:58:06Z</time>
      </trkpt>
      <trkpt lat="44.63135" lon="7.07574">
        <ele>2248.5</ele>
        <time>2026-09-01T07:58:11Z</time>
      </trkpt>
      <trkpt lat="44.63135" lon="7.07574">
        <ele>2248.5</ele>
        <time>2026-09-01T07:58:17Z</time>
      </trkpt>
      <trkpt lat="44.63135" lon="7.07574">
        <ele>2248.5</ele>
        <time>2026-09-01T07:58:22Z</time>
      </trkpt>
      <trkpt lat="44.63135" lon="7.07574">
        <ele>2248.5</ele>
        <time>2026-09-01T07:58:27Z</time>
      </trkpt>
      <trkpt lat="44.63135" lon="7.07574">
        <ele>2248.5</ele>
        <time>2026-09-01T07:58:33Z</time>
      </trkpt>
      <trkpt lat="44.63144" lon="7.07582">
        <ele>2252.9</ele>
        <time>2026-09-01T07:58:38Z</time>
      </trkpt>
      <trkpt lat="44.63144" lon="7.07582">
        <ele>2252.9</ele>
        <time>2026-09-01T07:58:43Z</time>
      </trkpt>
      <trkpt lat="44.63144" lon="7.07582">
        <ele>2252.9</ele>
        <time>2026-09-01T07:58:49Z</time>
      </trkpt>
      <trkpt lat="44.63144" lon="7.07582">
        <ele>2252.9</ele>
        <time>2026-09-01T07:58:54Z</time>
      </trkpt>
      <trkpt lat="44.63144" lon="7.07582">
        <ele>2252.9</ele>
        <time>2026-09-01T07:58:59Z</time>
      </trkpt>
      <trkpt lat="44.63147" lon="7.07593">
        <ele>2255.5</ele>
        <time>2026-09-01T07:59:05Z</time>
      </trkpt>
      <trkpt lat="44.63147" lon="7.07593">
        <ele>2255.5</ele>
        <time>2026-09-01T07:59:10Z</time>
      </trkpt>
      <trkpt lat="44.63147" lon="7.07593">
        <ele>2255.5</ele>
        <time>2026-09-01T07:59:15Z</time>
      </trkpt>
      <trkpt lat="44.63147" lon="7.07593">
        <ele>2255.5</ele>
        <time>2026-09-01T07:59:21Z</time>
      </trkpt>
      <trkpt lat="44.63147" lon="7.07593">
        <ele>2255.5</ele>
        <time>2026-09-01T07:59:26Z</time>
      </trkpt>
      <trkpt lat="44.63147" lon="7.07601">
        <ele>2256.5</ele>
        <time>2026-09-01T07:59:31Z</time>
      </trkpt>
      <trkpt lat="44.63148" lon="7.07602">
        <ele>2257.1</ele>
        <time>2026-09-01T07:59:37Z</time>
      </trkpt>
      <trkpt lat="44.63148" lon="7.07602">
        <ele>2257.1</ele>
        <time>2026-09-01T07:59:42Z</time>
      </trkpt>
      <trkpt lat="44.63148" lon="7.07602">
        <ele>2257.1</ele>
        <time>2026-09-01T07:59:47Z</time>
      </trkpt>
      <trkpt lat="44.63148" lon="7.07602">
        <ele>2257.1</ele>
        <time>2026-09-01T07:59:53Z</time>
      </trkpt>
      <trkpt lat="44.63148" lon="7.07602">
        <ele>2257.1</ele>
        <time>2026-09-01T07:59:58Z</time>
      </trkpt>
      <trkpt lat="44.63148" lon="7.07602">
        <ele>2257.1</ele>
        <time>2026-09-01T08:00:03Z</time>
      </trkpt>
      <trkpt lat="44.63149" lon="7.07616">
        <ele>2259.3</ele>
        <time>2026-09-01T08:00:09Z</time>
      </trkpt>
      <trkpt lat="44.63147" lon="7.07619">
        <ele>2258.9</ele>
        <time>2026-09-01T08:00:14Z</time>
      </trkpt>
      <trkpt lat="44.63146" lon="7.07624">
        <ele>2259.2</ele>
        <time>2026-09-01T08:00:19Z</time>
      </trkpt>
      <trkpt lat="44.63147" lon="7.07629">
        <ele>2260.2</ele>
        <time>2026-09-01T08:00:25Z</time>
      </trkpt>
      <trkpt lat="44.63145" lon="7.07631">
        <ele>2259.7</ele>
        <time>2026-09-01T08:00:30Z</time>
      </trkpt>
      <trkpt lat="44.63145" lon="7.07634">
        <ele>2260.1</ele>
        <time>2026-09-01T08:00:35Z</time>
      </trkpt>
      <trkpt lat="44.63144" lon="7.07637">
        <ele>2260.1</ele>
        <time>2026-09-01T08:00:41Z</time>
      </trkpt>
      <trkpt lat="44.63144" lon="7.0764">
        <ele>2260.5</ele>
        <time>2026-09-01T08:00:46Z</time>
      </trkpt>
      <trkpt lat="44.63144" lon="7.07642">
        <ele>2260.8</ele>
        <time>2026-09-01T08:00:51Z</time>
      </trkpt>
      <trkpt lat="44.63147" lon="7.07648">
        <ele>2262.7</ele>
        <time>2026-09-01T08:00:57Z</time>
      </trkpt>
      <trkpt lat="44.63146" lon="7.07651">
        <ele>2262.7</ele>
        <time>2026-09-01T08:01:02Z</time>
      </trkpt>
      <trkpt lat="44.63145" lon="7.07654">
        <ele>2262.7</ele>
        <time>2026-09-01T08:01:07Z</time>
      </trkpt>
      <trkpt lat="44.63145" lon="7.07654">
        <ele>2262.7</ele>
        <time>2026-09-01T08:01:13Z</time>
      </trkpt>
      <trkpt lat="44.63145" lon="7.07654">
        <ele>2262.7</ele>
        <time>2026-09-01T08:01:18Z</time>
      </trkpt>
      <trkpt lat="44.63145" lon="7.07654">
        <ele>2262.7</ele>
        <time>2026-09-01T08:01:23Z</time>
      </trkpt>
      <trkpt lat="44.63145" lon="7.07654">
        <ele>2262.7</ele>
        <time>2026-09-01T08:01:29Z</time>
      </trkpt>
      <trkpt lat="44.63145" lon="7.07654">
        <ele>2262.7</ele>
        <time>2026-09-01T08:01:34Z</time>
      </trkpt>
      <trkpt lat="44.63145" lon="7.07654">
        <ele>2262.7</ele>
        <time>2026-09-01T08:01:39Z</time>
      </trkpt>
      <trkpt lat="44.63145" lon="7.07654">
        <ele>2262.7</ele>
        <time>2026-09-01T08:01:45Z</time>
      </trkpt>
      <trkpt lat="44.63145" lon="7.07654">
        <ele>2262.7</ele>
        <time>2026-09-01T08:01:50Z</time>
      </trkpt>
      <trkpt lat="44.63145" lon="7.07654">
        <ele>2262.7</ele>
        <time>2026-09-01T08:01:55Z</time>
      </trkpt>
      <trkpt lat="44.63145" lon="7.07654">
        <ele>2262.7</ele>
        <time>2026-09-01T08:02:01Z</time>
      </trkpt>
      <trkpt lat="44.63145" lon="7.07654">
        <ele>2262.7</ele>
        <time>2026-09-01T08:02:06Z</time>
      </trkpt>
      <trkpt lat="44.63145" lon="7.07654">
        <ele>2262.7</ele>
        <time>2026-09-01T08:02:11Z</time>
      </trkpt>
      <trkpt lat="44.63143" lon="7.07662">
        <ele>2263</ele>
        <time>2026-09-01T08:02:17Z</time>
      </trkpt>
      <trkpt lat="44.63143" lon="7.07662">
        <ele>2263</ele>
        <time>2026-09-01T08:02:22Z</time>
      </trkpt>
      <trkpt lat="44.63143" lon="7.07662">
        <ele>2263</ele>
        <time>2026-09-01T08:02:27Z</time>
      </trkpt>
      <trkpt lat="44.63143" lon="7.07662">
        <ele>2263</ele>
        <time>2026-09-01T08:02:33Z</time>
      </trkpt>
      <trkpt lat="44.63143" lon="7.07662">
        <ele>2263</ele>
        <time>2026-09-01T08:02:38Z</time>
      </trkpt>
      <trkpt lat="44.63143" lon="7.07662">
        <ele>2263</ele>
        <time>2026-09-01T08:02:43Z</time>
      </trkpt>
      <trkpt lat="44.63143" lon="7.07662">
        <ele>2263</ele>
        <time>2026-09-01T08:02:49Z</time>
      </trkpt>
      <trkpt lat="44.63141" lon="7.07668">
        <ele>2263</ele>
        <time>2026-09-01T08:02:54Z</time>
      </trkpt>
      <trkpt lat="44.6314" lon="7.07673">
        <ele>2263.2</ele>
        <time>2026-09-01T08:02:59Z</time>
      </trkpt>
      <trkpt lat="44.63141" lon="7.07678">
        <ele>2264.2</ele>
        <time>2026-09-01T08:03:05Z</time>
      </trkpt>
      <trkpt lat="44.63141" lon="7.07679">
        <ele>2264.3</ele>
        <time>2026-09-01T08:03:10Z</time>
      </trkpt>
      <trkpt lat="44.63142" lon="7.07679">
        <ele>2264.7</ele>
        <time>2026-09-01T08:03:15Z</time>
      </trkpt>
      <trkpt lat="44.63141" lon="7.07682">
        <ele>2264.7</ele>
        <time>2026-09-01T08:03:21Z</time>
      </trkpt>
      <trkpt lat="44.63141" lon="7.07682">
        <ele>2264.7</ele>
        <time>2026-09-01T08:03:26Z</time>
      </trkpt>
      <trkpt lat="44.63141" lon="7.07682">
        <ele>2264.7</ele>
        <time>2026-09-01T08:03:31Z</time>
      </trkpt>
      <trkpt lat="44.63143" lon="7.07684">
        <ele>2265.6</ele>
        <time>2026-09-01T08:03:37Z</time>
      </trkpt>
      <trkpt lat="44.63144" lon="7.07688">
        <ele>2266.4</ele>
        <time>2026-09-01T08:03:42Z</time>
      </trkpt>
      <trkpt lat="44.63144" lon="7.07694">
        <ele>2267.1</ele>
        <time>2026-09-01T08:03:47Z</time>
      </trkpt>
      <trkpt lat="44.63143" lon="7.07701">
        <ele>2267.6</ele>
        <time>2026-09-01T08:03:53Z</time>
      </trkpt>
      <trkpt lat="44.63142" lon="7.07707">
        <ele>2267.9</ele>
        <time>2026-09-01T08:03:58Z</time>
      </trkpt>
      <trkpt lat="44.63143" lon="7.07711">
        <ele>2268.7</ele>
        <time>2026-09-01T08:04:03Z</time>
      </trkpt>
      <trkpt lat="44.63145" lon="7.07716">
        <ele>2269.8</ele>
        <time>2026-09-01T08:04:09Z</time>
      </trkpt>
      <trkpt lat="44.63146" lon="7.07722">
        <ele>2270.8</ele>
        <time>2026-09-01T08:04:14Z</time>
      </trkpt>
      <trkpt lat="44.63146" lon="7.07728">
        <ele>2271.4</ele>
        <time>2026-09-01T08:04:19Z</time>
      </trkpt>
      <trkpt lat="44.63146" lon="7.07736">
        <ele>2272.3</ele>
        <time>2026-09-01T08:04:25Z</time>
      </trkpt>
      <trkpt lat="44.63146" lon="7.07742">
        <ele>2272.9</ele>
        <time>2026-09-01T08:04:30Z</time>
      </trkpt>
      <trkpt lat="44.63147" lon="7.07747">
        <ele>2273.7</ele>
        <time>2026-09-01T08:04:35Z</time>
      </trkpt>
      <trkpt lat="44.63149" lon="7.07752">
        <ele>2274.7</ele>
        <time>2026-09-01T08:04:41Z</time>
      </trkpt>
      <trkpt lat="44.6315" lon="7.07758">
        <ele>2275.9</ele>
        <time>2026-09-01T08:04:46Z</time>
      </trkpt>
      <trkpt lat="44.63152" lon="7.07763">
        <ele>2277.1</ele>
        <time>2026-09-01T08:04:51Z</time>
      </trkpt>
      <trkpt lat="44.63154" lon="7.07764">
        <ele>2277.6</ele>
        <time>2026-09-01T08:04:57Z</time>
      </trkpt>
      <trkpt lat="44.63155" lon="7.07768">
        <ele>2278.4</ele>
        <time>2026-09-01T08:05:02Z</time>
      </trkpt>
      <trkpt lat="44.63156" lon="7.07774">
        <ele>2279.4</ele>
        <time>2026-09-01T08:05:07Z</time>
      </trkpt>
      <trkpt lat="44.63157" lon="7.0778">
        <ele>2280.4</ele>
        <time>2026-09-01T08:05:13Z</time>
      </trkpt>
      <trkpt lat="44.63157" lon="7.07786">
        <ele>2281.3</ele>
        <time>2026-09-01T08:05:18Z</time>
      </trkpt>
      <trkpt lat="44.63157" lon="7.07791">
        <ele>2282</ele>
        <time>2026-09-01T08:05:23Z</time>
      </trkpt>
      <trkpt lat="44.63158" lon="7.07796">
        <ele>2282.8</ele>
        <time>2026-09-01T08:05:29Z</time>
      </trkpt>
      <trkpt lat="44.63158" lon="7.07797">
        <ele>2283</ele>
        <time>2026-09-01T08:05:34Z</time>
      </trkpt>
      <trkpt lat="44.63159" lon="7.078">
        <ele>2283.5</ele>
        <time>2026-09-01T08:05:39Z</time>
      </trkpt>
      <trkpt lat="44.6316" lon="7.07801">
        <ele>2283.7</ele>
        <time>2026-09-01T08:05:45Z</time>
      </trkpt>
      <trkpt lat="44.6316" lon="7.07801">
        <ele>2283.7</ele>
        <time>2026-09-01T08:05:50Z</time>
      </trkpt>
      <trkpt lat="44.6316" lon="7.07801">
        <ele>2283.7</ele>
        <time>2026-09-01T08:05:55Z</time>
      </trkpt>
      <trkpt lat="44.6316" lon="7.07801">
        <ele>2283.7</ele>
        <time>2026-09-01T08:06:01Z</time>
      </trkpt>
      <trkpt lat="44.6316" lon="7.07808">
        <ele>2284.7</ele>
        <time>2026-09-01T08:06:06Z</time>
      </trkpt>
      <trkpt lat="44.63162" lon="7.07813">
        <ele>2285.4</ele>
        <time>2026-09-01T08:06:11Z</time>
      </trkpt>
      <trkpt lat="44.63164" lon="7.07819">
        <ele>2286.2</ele>
        <time>2026-09-01T08:06:17Z</time>
      </trkpt>
      <trkpt lat="44.63165" lon="7.07825">
        <ele>2287</ele>
        <time>2026-09-01T08:06:22Z</time>
      </trkpt>
      <trkpt lat="44.63167" lon="7.07833">
        <ele>2288</ele>
        <time>2026-09-01T08:06:27Z</time>
      </trkpt>
      <trkpt lat="44.63169" lon="7.07841">
        <ele>2290.6</ele>
        <time>2026-09-01T08:06:33Z</time>
      </trkpt>
      <trkpt lat="44.63168" lon="7.07845">
        <ele>2291.4</ele>
        <time>2026-09-01T08:06:38Z</time>
      </trkpt>
      <trkpt lat="44.63168" lon="7.07845">
        <ele>2291.4</ele>
        <time>2026-09-01T08:06:43Z</time>
      </trkpt>
      <trkpt lat="44.63168" lon="7.07845">
        <ele>2291.4</ele>
        <time>2026-09-01T08:06:49Z</time>
      </trkpt>
      <trkpt lat="44.63168" lon="7.07845">
        <ele>2291.4</ele>
        <time>2026-09-01T08:06:54Z</time>
      </trkpt>
      <trkpt lat="44.63168" lon="7.07845">
        <ele>2291.4</ele>
        <time>2026-09-01T08:06:59Z</time>
      </trkpt>
      <trkpt lat="44.63169" lon="7.07849">
        <ele>2292.6</ele>
        <time>2026-09-01T08:07:05Z</time>
      </trkpt>
      <trkpt lat="44.63172" lon="7.07856">
        <ele>2295</ele>
        <time>2026-09-01T08:07:10Z</time>
      </trkpt>
      <trkpt lat="44.63174" lon="7.07858">
        <ele>2295.8</ele>
        <time>2026-09-01T08:07:15Z</time>
      </trkpt>
      <trkpt lat="44.63176" lon="7.07864">
        <ele>2297.6</ele>
        <time>2026-09-01T08:07:21Z</time>
      </trkpt>
      <trkpt lat="44.63179" lon="7.07871">
        <ele>2299.7</ele>
        <time>2026-09-01T08:07:26Z</time>
      </trkpt>
      <trkpt lat="44.6318" lon="7.07877">
        <ele>2301.2</ele>
        <time>2026-09-01T08:07:31Z</time>
      </trkpt>
      <trkpt lat="44.63182" lon="7.0788">
        <ele>2302.1</ele>
        <time>2026-09-01T08:07:37Z</time>
      </trkpt>
      <trkpt lat="44.63182" lon="7.0788">
        <ele>2302.1</ele>
        <time>2026-09-01T08:07:42Z</time>
      </trkpt>
      <trkpt lat="44.63182" lon="7.0788">
        <ele>2302.1</ele>
        <time>2026-09-01T08:07:47Z</time>
      </trkpt>
      <trkpt lat="44.63182" lon="7.0788">
        <ele>2302.1</ele>
        <time>2026-09-01T08:07:53Z</time>
      </trkpt>
      <trkpt lat="44.63182" lon="7.07882">
        <ele>2302.6</ele>
        <time>2026-09-01T08:07:58Z</time>
      </trkpt>
      <trkpt lat="44.63183" lon="7.07889">
        <ele>2304.2</ele>
        <time>2026-09-01T08:08:03Z</time>
      </trkpt>
      <trkpt lat="44.63186" lon="7.07896">
        <ele>2305.9</ele>
        <time>2026-09-01T08:08:09Z</time>
      </trkpt>
      <trkpt lat="44.63188" lon="7.07902">
        <ele>2307.3</ele>
        <time>2026-09-01T08:08:14Z</time>
      </trkpt>
      <trkpt lat="44.6319" lon="7.07908">
        <ele>2308.6</ele>
        <time>2026-09-01T08:08:19Z</time>
      </trkpt>
      <trkpt lat="44.63191" lon="7.07916">
        <ele>2310.2</ele>
        <time>2026-09-01T08:08:25Z</time>
      </trkpt>
      <trkpt lat="44.63192" lon="7.07922">
        <ele>2311.4</ele>
        <time>2026-09-01T08:08:30Z</time>
      </trkpt>
      <trkpt lat="44.63192" lon="7.07928">
        <ele>2312.7</ele>
        <time>2026-09-01T08:08:35Z</time>
      </trkpt>
      <trkpt lat="44.63195" lon="7.07932">
        <ele>2313.5</ele>
        <time>2026-09-01T08:08:41Z</time>
      </trkpt>
      <trkpt lat="44.63199" lon="7.07936">
        <ele>2314.2</ele>
        <time>2026-09-01T08:08:46Z</time>
      </trkpt>
      <trkpt lat="44.63203" lon="7.0794">
        <ele>2314.9</ele>
        <time>2026-09-01T08:08:51Z</time>
      </trkpt>
      <trkpt lat="44.63207" lon="7.07944">
        <ele>2315.5</ele>
        <time>2026-09-01T08:08:57Z</time>
      </trkpt>
      <trkpt lat="44.63209" lon="7.07949">
        <ele>2316.3</ele>
        <time>2026-09-01T08:09:02Z</time>
      </trkpt>
      <trkpt lat="44.6321" lon="7.07953">
        <ele>2317</ele>
        <time>2026-09-01T08:09:07Z</time>
      </trkpt>
      <trkpt lat="44.63213" lon="7.07955">
        <ele>2317.1</ele>
        <time>2026-09-01T08:09:13Z</time>
      </trkpt>
      <trkpt lat="44.63217" lon="7.07953">
        <ele>2316.6</ele>
        <time>2026-09-01T08:09:18Z</time>
      </trkpt>
      <trkpt lat="44.63218" lon="7.0795">
        <ele>2316.1</ele>
        <time>2026-09-01T08:09:23Z</time>
      </trkpt>
      <trkpt lat="44.63218" lon="7.0795">
        <ele>2316.1</ele>
        <time>2026-09-01T08:09:29Z</time>
      </trkpt>
      <trkpt lat="44.63218" lon="7.0795">
        <ele>2316.1</ele>
        <time>2026-09-01T08:09:34Z</time>
      </trkpt>
      <trkpt lat="44.63218" lon="7.0795">
        <ele>2316.1</ele>
        <time>2026-09-01T08:09:39Z</time>
      </trkpt>
      <trkpt lat="44.63218" lon="7.0795">
        <ele>2316.1</ele>
        <time>2026-09-01T08:09:45Z</time>
      </trkpt>
      <trkpt lat="44.63218" lon="7.0795">
        <ele>2316.1</ele>
        <time>2026-09-01T08:09:50Z</time>
      </trkpt>
      <trkpt lat="44.63218" lon="7.0795">
        <ele>2316.1</ele>
        <time>2026-09-01T08:09:55Z</time>
      </trkpt>
      <trkpt lat="44.63218" lon="7.0795">
        <ele>2316.1</ele>
        <time>2026-09-01T08:10:01Z</time>
      </trkpt>
      <trkpt lat="44.63218" lon="7.0795">
        <ele>2316.1</ele>
        <time>2026-09-01T08:10:06Z</time>
      </trkpt>
      <trkpt lat="44.63218" lon="7.0795">
        <ele>2316.1</ele>
        <time>2026-09-01T08:10:11Z</time>
      </trkpt>
      <trkpt lat="44.63218" lon="7.0795">
        <ele>2316.1</ele>
        <time>2026-09-01T08:10:17Z</time>
      </trkpt>
      <trkpt lat="44.63218" lon="7.0795">
        <ele>2316.1</ele>
        <time>2026-09-01T08:10:22Z</time>
      </trkpt>
      <trkpt lat="44.63218" lon="7.0795">
        <ele>2316.1</ele>
        <time>2026-09-01T08:10:27Z</time>
      </trkpt>
      <trkpt lat="44.63218" lon="7.0795">
        <ele>2316.1</ele>
        <time>2026-09-01T08:10:33Z</time>
      </trkpt>
      <trkpt lat="44.63218" lon="7.0795">
        <ele>2316.1</ele>
        <time>2026-09-01T08:10:38Z</time>
      </trkpt>
      <trkpt lat="44.63218" lon="7.0795">
        <ele>2316.1</ele>
        <time>2026-09-01T08:10:43Z</time>
      </trkpt>
      <trkpt lat="44.63216" lon="7.0796">
        <ele>2317.8</ele>
        <time>2026-09-01T08:10:49Z</time>
      </trkpt>
      <trkpt lat="44.63219" lon="7.07962">
        <ele>2318</ele>
        <time>2026-09-01T08:10:54Z</time>
      </trkpt>
      <trkpt lat="44.63222" lon="7.07962">
        <ele>2317.8</ele>
        <time>2026-09-01T08:10:59Z</time>
      </trkpt>
      <trkpt lat="44.63228" lon="7.07958">
        <ele>2316.8</ele>
        <time>2026-09-01T08:11:05Z</time>
      </trkpt>
      <trkpt lat="44.63231" lon="7.07959">
        <ele>2316.7</ele>
        <time>2026-09-01T08:11:10Z</time>
      </trkpt>
      <trkpt lat="44.63234" lon="7.07961">
        <ele>2316.8</ele>
        <time>2026-09-01T08:11:15Z</time>
      </trkpt>
      <trkpt lat="44.63236" lon="7.07965">
        <ele>2317.2</ele>
        <time>2026-09-01T08:11:21Z</time>
      </trkpt>
      <trkpt lat="44.63237" lon="7.07969">
        <ele>2317.7</ele>
        <time>2026-09-01T08:11:26Z</time>
      </trkpt>
      <trkpt lat="44.6324" lon="7.0797">
        <ele>2317.6</ele>
        <time>2026-09-01T08:11:31Z</time>
      </trkpt>
      <trkpt lat="44.6324" lon="7.07972">
        <ele>2317.8</ele>
        <time>2026-09-01T08:11:37Z</time>
      </trkpt>
      <trkpt lat="44.63239" lon="7.07977">
        <ele>2318.5</ele>
        <time>2026-09-01T08:11:42Z</time>
      </trkpt>
      <trkpt lat="44.63243" lon="7.07978">
        <ele>2318.3</ele>
        <time>2026-09-01T08:11:47Z</time>
      </trkpt>
      <trkpt lat="44.63246" lon="7.07984">
        <ele>2318.7</ele>
        <time>2026-09-01T08:11:53Z</time>
      </trkpt>
      <trkpt lat="44.63248" lon="7.07985">
        <ele>2318.6</ele>
        <time>2026-09-01T08:11:58Z</time>
      </trkpt>
      <trkpt lat="44.6325" lon="7.07989">
        <ele>2318.8</ele>
        <time>2026-09-01T08:12:03Z</time>
      </trkpt>
      <trkpt lat="44.63254" lon="7.0799">
        <ele>2319.7</ele>
        <time>2026-09-01T08:12:09Z</time>
      </trkpt>
      <trkpt lat="44.63255" lon="7.0799">
        <ele>2319.9</ele>
        <time>2026-09-01T08:12:14Z</time>
      </trkpt>
      <trkpt lat="44.63255" lon="7.0799">
        <ele>2319.9</ele>
        <time>2026-09-01T08:12:19Z</time>
      </trkpt>
      <trkpt lat="44.63255" lon="7.0799">
        <ele>2319.9</ele>
        <time>2026-09-01T08:12:25Z</time>
      </trkpt>
      <trkpt lat="44.63255" lon="7.0799">
        <ele>2319.9</ele>
        <time>2026-09-01T08:12:30Z</time>
      </trkpt>
      <trkpt lat="44.63255" lon="7.0799">
        <ele>2319.9</ele>
        <time>2026-09-01T08:12:35Z</time>
      </trkpt>
      <trkpt lat="44.63255" lon="7.0799">
        <ele>2319.9</ele>
        <time>2026-09-01T08:12:41Z</time>
      </trkpt>
      <trkpt lat="44.63255" lon="7.0799">
        <ele>2319.9</ele>
        <time>2026-09-01T08:12:46Z</time>
      </trkpt>
      <trkpt lat="44.63263" lon="7.07997">
        <ele>2322.1</ele>
        <time>2026-09-01T08:12:51Z</time>
      </trkpt>
      <trkpt lat="44.63265" lon="7.07997">
        <ele>2322.4</ele>
        <time>2026-09-01T08:12:57Z</time>
      </trkpt>
      <trkpt lat="44.63265" lon="7.07997">
        <ele>2322.4</ele>
        <time>2026-09-01T08:13:02Z</time>
      </trkpt>
      <trkpt lat="44.63265" lon="7.07997">
        <ele>2322.4</ele>
        <time>2026-09-01T08:13:07Z</time>
      </trkpt>
      <trkpt lat="44.63265" lon="7.07997">
        <ele>2322.4</ele>
        <time>2026-09-01T08:13:13Z</time>
      </trkpt>
      <trkpt lat="44.63265" lon="7.07997">
        <ele>2322.4</ele>
        <time>2026-09-01T08:13:18Z</time>
      </trkpt>
      <trkpt lat="44.63265" lon="7.07997">
        <ele>2322.4</ele>
        <time>2026-09-01T08:13:23Z</time>
      </trkpt>
      <trkpt lat="44.63265" lon="7.07997">
        <ele>2322.4</ele>
        <time>2026-09-01T08:13:29Z</time>
      </trkpt>
      <trkpt lat="44.63265" lon="7.07997">
        <ele>2322.4</ele>
        <time>2026-09-01T08:13:34Z</time>
      </trkpt>
      <trkpt lat="44.63265" lon="7.07997">
        <ele>2322.4</ele>
        <time>2026-09-01T08:13:39Z</time>
      </trkpt>
      <trkpt lat="44.63265" lon="7.07997">
        <ele>2322.4</ele>
        <time>2026-09-01T08:13:45Z</time>
      </trkpt>
      <trkpt lat="44.63265" lon="7.07997">
        <ele>2322.4</ele>
        <time>2026-09-01T08:13:50Z</time>
      </trkpt>
      <trkpt lat="44.63265" lon="7.07997">
        <ele>2322.4</ele>
        <time>2026-09-01T08:13:55Z</time>
      </trkpt>
      <trkpt lat="44.63265" lon="7.07997">
        <ele>2322.4</ele>
        <time>2026-09-01T08:14:01Z</time>
      </trkpt>
      <trkpt lat="44.63265" lon="7.07997">
        <ele>2322.4</ele>
        <time>2026-09-01T08:14:06Z</time>
      </trkpt>
      <trkpt lat="44.63265" lon="7.07997">
        <ele>2322.4</ele>
        <time>2026-09-01T08:14:11Z</time>
      </trkpt>
      <trkpt lat="44.63265" lon="7.07997">
        <ele>2322.4</ele>
        <time>2026-09-01T08:14:17Z</time>
      </trkpt>
      <trkpt lat="44.63265" lon="7.07997">
        <ele>2322.4</ele>
        <time>2026-09-01T08:14:22Z</time>
      </trkpt>
      <trkpt lat="44.63265" lon="7.07997">
        <ele>2322.4</ele>
        <time>2026-09-01T08:14:27Z</time>
      </trkpt>
      <trkpt lat="44.63265" lon="7.07997">
        <ele>2322.4</ele>
        <time>2026-09-01T08:14:33Z</time>
      </trkpt>
      <trkpt lat="44.63265" lon="7.07997">
        <ele>2322.4</ele>
        <time>2026-09-01T08:14:38Z</time>
      </trkpt>
      <trkpt lat="44.63265" lon="7.07997">
        <ele>2322.4</ele>
        <time>2026-09-01T08:14:43Z</time>
      </trkpt>
      <trkpt lat="44.63265" lon="7.07997">
        <ele>2322.4</ele>
        <time>2026-09-01T08:14:49Z</time>
      </trkpt>
      <trkpt lat="44.63266" lon="7.08003">
        <ele>2323.3</ele>
        <time>2026-09-01T08:14:54Z</time>
      </trkpt>
      <trkpt lat="44.63268" lon="7.08005">
        <ele>2324</ele>
        <time>2026-09-01T08:14:59Z</time>
      </trkpt>
      <trkpt lat="44.63269" lon="7.08008">
        <ele>2324.6</ele>
        <time>2026-09-01T08:15:05Z</time>
      </trkpt>
      <trkpt lat="44.63272" lon="7.08011">
        <ele>2325.5</ele>
        <time>2026-09-01T08:15:10Z</time>
      </trkpt>
      <trkpt lat="44.63274" lon="7.08016">
        <ele>2326.5</ele>
        <time>2026-09-01T08:15:15Z</time>
      </trkpt>
      <trkpt lat="44.63275" lon="7.08023">
        <ele>2327.7</ele>
        <time>2026-09-01T08:15:21Z</time>
      </trkpt>
      <trkpt lat="44.63276" lon="7.08027">
        <ele>2328.4</ele>
        <time>2026-09-01T08:15:26Z</time>
      </trkpt>
      <trkpt lat="44.63274" lon="7.08031">
        <ele>2328.6</ele>
        <time>2026-09-01T08:15:31Z</time>
      </trkpt>
      <trkpt lat="44.63275" lon="7.08033">
        <ele>2329.1</ele>
        <time>2026-09-01T08:15:37Z</time>
      </trkpt>
      <trkpt lat="44.63278" lon="7.08034">
        <ele>2329.7</ele>
        <time>2026-09-01T08:15:42Z</time>
      </trkpt>
      <trkpt lat="44.6328" lon="7.08035">
        <ele>2330.1</ele>
        <time>2026-09-01T08:15:47Z</time>
      </trkpt>
      <trkpt lat="44.6328" lon="7.08035">
        <ele>2330.1</ele>
        <time>2026-09-01T08:15:53Z</time>
      </trkpt>
      <trkpt lat="44.6328" lon="7.08035">
        <ele>2330.1</ele>
        <time>2026-09-01T08:15:58Z</time>
      </trkpt>
      <trkpt lat="44.6328" lon="7.08035">
        <ele>2330.1</ele>
        <time>2026-09-01T08:16:03Z</time>
      </trkpt>
      <trkpt lat="44.6328" lon="7.08035">
        <ele>2330.1</ele>
        <time>2026-09-01T08:16:09Z</time>
      </trkpt>
      <trkpt lat="44.6328" lon="7.08035">
        <ele>2330.1</ele>
        <time>2026-09-01T08:16:14Z</time>
      </trkpt>
      <trkpt lat="44.6328" lon="7.08035">
        <ele>2330.1</ele>
        <time>2026-09-01T08:16:19Z</time>
      </trkpt>
      <trkpt lat="44.6328" lon="7.08035">
        <ele>2330.1</ele>
        <time>2026-09-01T08:16:25Z</time>
      </trkpt>
      <trkpt lat="44.6328" lon="7.08035">
        <ele>2330.1</ele>
        <time>2026-09-01T08:16:30Z</time>
      </trkpt>
      <trkpt lat="44.6328" lon="7.08035">
        <ele>2330.1</ele>
        <time>2026-09-01T08:16:35Z</time>
      </trkpt>
      <trkpt lat="44.6328" lon="7.08041">
        <ele>2330.9</ele>
        <time>2026-09-01T08:16:41Z</time>
      </trkpt>
      <trkpt lat="44.63282" lon="7.08044">
        <ele>2331.6</ele>
        <time>2026-09-01T08:16:46Z</time>
      </trkpt>
      <trkpt lat="44.63283" lon="7.08046">
        <ele>2332</ele>
        <time>2026-09-01T08:16:51Z</time>
      </trkpt>
      <trkpt lat="44.63284" lon="7.08048">
        <ele>2332.4</ele>
        <time>2026-09-01T08:16:57Z</time>
      </trkpt>
      <trkpt lat="44.63284" lon="7.08048">
        <ele>2332.4</ele>
        <time>2026-09-01T08:17:02Z</time>
      </trkpt>
      <trkpt lat="44.63284" lon="7.08048">
        <ele>2332.4</ele>
        <time>2026-09-01T08:17:07Z</time>
      </trkpt>
      <trkpt lat="44.63284" lon="7.08048">
        <ele>2332.4</ele>
        <time>2026-09-01T08:17:13Z</time>
      </trkpt>
      <trkpt lat="44.63284" lon="7.08048">
        <ele>2332.4</ele>
        <time>2026-09-01T08:17:18Z</time>
      </trkpt>
      <trkpt lat="44.63291" lon="7.08054">
        <ele>2334.2</ele>
        <time>2026-09-01T08:17:23Z</time>
      </trkpt>
      <trkpt lat="44.63292" lon="7.08054">
        <ele>2334.4</ele>
        <time>2026-09-01T08:17:29Z</time>
      </trkpt>
      <trkpt lat="44.63292" lon="7.08054">
        <ele>2334.4</ele>
        <time>2026-09-01T08:17:34Z</time>
      </trkpt>
      <trkpt lat="44.63292" lon="7.08054">
        <ele>2334.4</ele>
        <time>2026-09-01T08:17:39Z</time>
      </trkpt>
      <trkpt lat="44.63296" lon="7.08059">
        <ele>2335.5</ele>
        <time>2026-09-01T08:17:45Z</time>
      </trkpt>
      <trkpt lat="44.63298" lon="7.08061">
        <ele>2336</ele>
        <time>2026-09-01T08:17:50Z</time>
      </trkpt>
      <trkpt lat="44.63298" lon="7.08063">
        <ele>2336.3</ele>
        <time>2026-09-01T08:17:55Z</time>
      </trkpt>
      <trkpt lat="44.63298" lon="7.08063">
        <ele>2336.3</ele>
        <time>2026-09-01T08:18:01Z</time>
      </trkpt>
      <trkpt lat="44.63298" lon="7.08063">
        <ele>2336.3</ele>
        <time>2026-09-01T08:18:06Z</time>
      </trkpt>
      <trkpt lat="44.63298" lon="7.08063">
        <ele>2336.3</ele>
        <time>2026-09-01T08:18:11Z</time>
      </trkpt>
      <trkpt lat="44.63298" lon="7.08063">
        <ele>2336.3</ele>
        <time>2026-09-01T08:18:17Z</time>
      </trkpt>
      <trkpt lat="44.63298" lon="7.08063">
        <ele>2336.3</ele>
        <time>2026-09-01T08:18:22Z</time>
      </trkpt>
      <trkpt lat="44.63302" lon="7.08072">
        <ele>2337.9</ele>
        <time>2026-09-01T08:18:27Z</time>
      </trkpt>
      <trkpt lat="44.63305" lon="7.08072">
        <ele>2338.3</ele>
        <time>2026-09-01T08:18:33Z</time>
      </trkpt>
      <trkpt lat="44.63308" lon="7.08073">
        <ele>2338.8</ele>
        <time>2026-09-01T08:18:38Z</time>
      </trkpt>
      <trkpt lat="44.6331" lon="7.08076">
        <ele>2339.4</ele>
        <time>2026-09-01T08:18:43Z</time>
      </trkpt>
      <trkpt lat="44.63312" lon="7.0808">
        <ele>2340.1</ele>
        <time>2026-09-01T08:18:49Z</time>
      </trkpt>
      <trkpt lat="44.63314" lon="7.08083">
        <ele>2340.6</ele>
        <time>2026-09-01T08:18:54Z</time>
      </trkpt>
      <trkpt lat="44.63316" lon="7.08085">
        <ele>2341.2</ele>
        <time>2026-09-01T08:18:59Z</time>
      </trkpt>
      <trkpt lat="44.63318" lon="7.08084">
        <ele>2341.3</ele>
        <time>2026-09-01T08:19:05Z</time>
      </trkpt>
      <trkpt lat="44.63318" lon="7.08084">
        <ele>2341.3</ele>
        <time>2026-09-01T08:19:10Z</time>
      </trkpt>
      <trkpt lat="44.63318" lon="7.08084">
        <ele>2341.3</ele>
        <time>2026-09-01T08:19:15Z</time>
      </trkpt>
      <trkpt lat="44.63318" lon="7.08084">
        <ele>2341.3</ele>
        <time>2026-09-01T08:19:21Z</time>
      </trkpt>
      <trkpt lat="44.63318" lon="7.08084">
        <ele>2341.3</ele>
        <time>2026-09-01T08:19:26Z</time>
      </trkpt>
      <trkpt lat="44.63318" lon="7.08084">
        <ele>2341.3</ele>
        <time>2026-09-01T08:19:31Z</time>
      </trkpt>
      <trkpt lat="44.63318" lon="7.08084">
        <ele>2341.3</ele>
        <time>2026-09-01T08:19:37Z</time>
      </trkpt>
      <trkpt lat="44.63319" lon="7.08092">
        <ele>2342.9</ele>
        <time>2026-09-01T08:19:42Z</time>
      </trkpt>
      <trkpt lat="44.63322" lon="7.08093">
        <ele>2343.4</ele>
        <time>2026-09-01T08:19:47Z</time>
      </trkpt>
      <trkpt lat="44.63324" lon="7.08095">
        <ele>2344</ele>
        <time>2026-09-01T08:19:53Z</time>
      </trkpt>
      <trkpt lat="44.63324" lon="7.08096">
        <ele>2344.1</ele>
        <time>2026-09-01T08:19:58Z</time>
      </trkpt>
      <trkpt lat="44.63324" lon="7.08096">
        <ele>2344.1</ele>
        <time>2026-09-01T08:20:03Z</time>
      </trkpt>
      <trkpt lat="44.63324" lon="7.08096">
        <ele>2344.1</ele>
        <time>2026-09-01T08:20:09Z</time>
      </trkpt>
      <trkpt lat="44.63324" lon="7.08096">
        <ele>2344.1</ele>
        <time>2026-09-01T08:20:14Z</time>
      </trkpt>
      <trkpt lat="44.63324" lon="7.08096">
        <ele>2344.1</ele>
        <time>2026-09-01T08:20:19Z</time>
      </trkpt>
      <trkpt lat="44.63324" lon="7.08096">
        <ele>2344.1</ele>
        <time>2026-09-01T08:20:25Z</time>
      </trkpt>
      <trkpt lat="44.63329" lon="7.08101">
        <ele>2345.5</ele>
        <time>2026-09-01T08:20:30Z</time>
      </trkpt>
      <trkpt lat="44.6333" lon="7.08104">
        <ele>2346.2</ele>
        <time>2026-09-01T08:20:35Z</time>
      </trkpt>
      <trkpt lat="44.63331" lon="7.08109">
        <ele>2347.1</ele>
        <time>2026-09-01T08:20:41Z</time>
      </trkpt>
      <trkpt lat="44.63332" lon="7.08111">
        <ele>2347.5</ele>
        <time>2026-09-01T08:20:46Z</time>
      </trkpt>
      <trkpt lat="44.63332" lon="7.08114">
        <ele>2348</ele>
        <time>2026-09-01T08:20:51Z</time>
      </trkpt>
      <trkpt lat="44.63332" lon="7.08114">
        <ele>2348</ele>
        <time>2026-09-01T08:20:57Z</time>
      </trkpt>
      <trkpt lat="44.63332" lon="7.08114">
        <ele>2348</ele>
        <time>2026-09-01T08:21:02Z</time>
      </trkpt>
      <trkpt lat="44.63332" lon="7.08114">
        <ele>2348</ele>
        <time>2026-09-01T08:21:07Z</time>
      </trkpt>
      <trkpt lat="44.63332" lon="7.08114">
        <ele>2348</ele>
        <time>2026-09-01T08:21:13Z</time>
      </trkpt>
      <trkpt lat="44.63332" lon="7.08114">
        <ele>2348</ele>
        <time>2026-09-01T08:21:18Z</time>
      </trkpt>
      <trkpt lat="44.63332" lon="7.08114">
        <ele>2348</ele>
        <time>2026-09-01T08:21:23Z</time>
      </trkpt>
      <trkpt lat="44.63334" lon="7.08126">
        <ele>2350.3</ele>
        <time>2026-09-01T08:21:29Z</time>
      </trkpt>
      <trkpt lat="44.63336" lon="7.0813">
        <ele>2351.3</ele>
        <time>2026-09-01T08:21:34Z</time>
      </trkpt>
      <trkpt lat="44.63336" lon="7.08133">
        <ele>2351.8</ele>
        <time>2026-09-01T08:21:39Z</time>
      </trkpt>
      <trkpt lat="44.63337" lon="7.08137">
        <ele>2352.6</ele>
        <time>2026-09-01T08:21:45Z</time>
      </trkpt>
      <trkpt lat="44.63337" lon="7.08141">
        <ele>2353.3</ele>
        <time>2026-09-01T08:21:50Z</time>
      </trkpt>
      <trkpt lat="44.63337" lon="7.08147">
        <ele>2354.2</ele>
        <time>2026-09-01T08:21:55Z</time>
      </trkpt>
      <trkpt lat="44.63337" lon="7.08155">
        <ele>2355.5</ele>
        <time>2026-09-01T08:22:01Z</time>
      </trkpt>
      <trkpt lat="44.63335" lon="7.08159">
        <ele>2355.9</ele>
        <time>2026-09-01T08:22:06Z</time>
      </trkpt>
      <trkpt lat="44.63334" lon="7.08162">
        <ele>2356.3</ele>
        <time>2026-09-01T08:22:11Z</time>
      </trkpt>
      <trkpt lat="44.63333" lon="7.08167">
        <ele>2357.1</ele>
        <time>2026-09-01T08:22:17Z</time>
      </trkpt>
      <trkpt lat="44.63332" lon="7.08174">
        <ele>2358.4</ele>
        <time>2026-09-01T08:22:22Z</time>
      </trkpt>
      <trkpt lat="44.6333" lon="7.0818">
        <ele>2359.5</ele>
        <time>2026-09-01T08:22:27Z</time>
      </trkpt>
      <trkpt lat="44.63331" lon="7.08185">
        <ele>2360.5</ele>
        <time>2026-09-01T08:22:33Z</time>
      </trkpt>
      <trkpt lat="44.63334" lon="7.08186">
        <ele>2360.8</ele>
        <time>2026-09-01T08:22:38Z</time>
      </trkpt>
      <trkpt lat="44.63337" lon="7.08186">
        <ele>2361</ele>
        <time>2026-09-01T08:22:43Z</time>
      </trkpt>
      <trkpt lat="44.63342" lon="7.08184">
        <ele>2361.1</ele>
        <time>2026-09-01T08:22:49Z</time>
      </trkpt>
      <trkpt lat="44.63346" lon="7.08186">
        <ele>2361.8</ele>
        <time>2026-09-01T08:22:54Z</time>
      </trkpt>
      <trkpt lat="44.63349" lon="7.08187">
        <ele>2362.3</ele>
        <time>2026-09-01T08:22:59Z</time>
      </trkpt>
      <trkpt lat="44.63353" lon="7.0819">
        <ele>2363.1</ele>
        <time>2026-09-01T08:23:05Z</time>
      </trkpt>
      <trkpt lat="44.63355" lon="7.08195">
        <ele>2364.1</ele>
        <time>2026-09-01T08:23:10Z</time>
      </trkpt>
      <trkpt lat="44.63356" lon="7.08202">
        <ele>2365.2</ele>
        <time>2026-09-01T08:23:15Z</time>
      </trkpt>
      <trkpt lat="44.63357" lon="7.08208">
        <ele>2366.2</ele>
        <time>2026-09-01T08:23:21Z</time>
      </trkpt>
      <trkpt lat="44.63358" lon="7.08213">
        <ele>2367</ele>
        <time>2026-09-01T08:23:26Z</time>
      </trkpt>
      <trkpt lat="44.63361" lon="7.08219">
        <ele>2368.1</ele>
        <time>2026-09-01T08:23:31Z</time>
      </trkpt>
      <trkpt lat="44.63364" lon="7.08226">
        <ele>2369.2</ele>
        <time>2026-09-01T08:23:37Z</time>
      </trkpt>
      <trkpt lat="44.63364" lon="7.08228">
        <ele>2369.5</ele>
        <time>2026-09-01T08:23:42Z</time>
      </trkpt>
      <trkpt lat="44.63362" lon="7.08231">
        <ele>2369.9</ele>
        <time>2026-09-01T08:23:47Z</time>
      </trkpt>
      <trkpt lat="44.63363" lon="7.08239">
        <ele>2371</ele>
        <time>2026-09-01T08:23:53Z</time>
      </trkpt>
      <trkpt lat="44.63366" lon="7.08246">
        <ele>2372</ele>
        <time>2026-09-01T08:23:58Z</time>
      </trkpt>
      <trkpt lat="44.6337" lon="7.08251">
        <ele>2372.7</ele>
        <time>2026-09-01T08:24:03Z</time>
      </trkpt>
      <trkpt lat="44.63376" lon="7.08251">
        <ele>2372.6</ele>
        <time>2026-09-01T08:24:09Z</time>
      </trkpt>
      <trkpt lat="44.63378" lon="7.08255">
        <ele>2373.2</ele>
        <time>2026-09-01T08:24:14Z</time>
      </trkpt>
      <trkpt lat="44.63379" lon="7.08262">
        <ele>2374.1</ele>
        <time>2026-09-01T08:24:19Z</time>
      </trkpt>
      <trkpt lat="44.6338" lon="7.08264">
        <ele>2374.4</ele>
        <time>2026-09-01T08:24:25Z</time>
      </trkpt>
      <trkpt lat="44.63382" lon="7.08267">
        <ele>2374.7</ele>
        <time>2026-09-01T08:24:30Z</time>
      </trkpt>
      <trkpt lat="44.63381" lon="7.08274">
        <ele>2375.7</ele>
        <time>2026-09-01T08:24:35Z</time>
      </trkpt>
      <trkpt lat="44.63381" lon="7.0828">
        <ele>2376.5</ele>
        <time>2026-09-01T08:24:41Z</time>
      </trkpt>
      <trkpt lat="44.63381" lon="7.0828">
        <ele>2376.5</ele>
        <time>2026-09-01T08:24:46Z</time>
      </trkpt>
      <trkpt lat="44.63381" lon="7.0828">
        <ele>2376.5</ele>
        <time>2026-09-01T08:24:51Z</time>
      </trkpt>
      <trkpt lat="44.63381" lon="7.0828">
        <ele>2376.5</ele>
        <time>2026-09-01T08:24:57Z</time>
      </trkpt>
      <trkpt lat="44.63381" lon="7.0828">
        <ele>2376.5</ele>
        <time>2026-09-01T08:25:02Z</time>
      </trkpt>
      <trkpt lat="44.63381" lon="7.0828">
        <ele>2376.5</ele>
        <time>2026-09-01T08:25:07Z</time>
      </trkpt>
      <trkpt lat="44.63381" lon="7.0828">
        <ele>2376.5</ele>
        <time>2026-09-01T08:25:13Z</time>
      </trkpt>
      <trkpt lat="44.63381" lon="7.0828">
        <ele>2376.5</ele>
        <time>2026-09-01T08:25:18Z</time>
      </trkpt>
      <trkpt lat="44.63381" lon="7.0828">
        <ele>2376.5</ele>
        <time>2026-09-01T08:25:23Z</time>
      </trkpt>
      <trkpt lat="44.63381" lon="7.0828">
        <ele>2376.5</ele>
        <time>2026-09-01T08:25:29Z</time>
      </trkpt>
      <trkpt lat="44.63381" lon="7.0828">
        <ele>2376.5</ele>
        <time>2026-09-01T08:25:34Z</time>
      </trkpt>
      <trkpt lat="44.63381" lon="7.0828">
        <ele>2376.5</ele>
        <time>2026-09-01T08:25:39Z</time>
      </trkpt>
      <trkpt lat="44.63381" lon="7.0828">
        <ele>2376.5</ele>
        <time>2026-09-01T08:25:45Z</time>
      </trkpt>
      <trkpt lat="44.63381" lon="7.0828">
        <ele>2376.5</ele>
        <time>2026-09-01T08:25:50Z</time>
      </trkpt>
      <trkpt lat="44.63381" lon="7.0828">
        <ele>2376.5</ele>
        <time>2026-09-01T08:25:55Z</time>
      </trkpt>
      <trkpt lat="44.63381" lon="7.0828">
        <ele>2376.5</ele>
        <time>2026-09-01T08:26:01Z</time>
      </trkpt>
      <trkpt lat="44.63381" lon="7.0828">
        <ele>2376.5</ele>
        <time>2026-09-01T08:26:06Z</time>
      </trkpt>
      <trkpt lat="44.63381" lon="7.0828">
        <ele>2376.5</ele>
        <time>2026-09-01T08:26:11Z</time>
      </trkpt>
      <trkpt lat="44.63381" lon="7.0828">
        <ele>2376.5</ele>
        <time>2026-09-01T08:26:17Z</time>
      </trkpt>
      <trkpt lat="44.63381" lon="7.0828">
        <ele>2376.5</ele>
        <time>2026-09-01T08:26:22Z</time>
      </trkpt>
      <trkpt lat="44.63381" lon="7.0828">
        <ele>2376.5</ele>
        <time>2026-09-01T08:26:27Z</time>
      </trkpt>
      <trkpt lat="44.63381" lon="7.0828">
        <ele>2376.5</ele>
        <time>2026-09-01T08:26:33Z</time>
      </trkpt>
      <trkpt lat="44.63381" lon="7.0828">
        <ele>2376.5</ele>
        <time>2026-09-01T08:26:38Z</time>
      </trkpt>
      <trkpt lat="44.63381" lon="7.0828">
        <ele>2376.5</ele>
        <time>2026-09-01T08:26:43Z</time>
      </trkpt>
      <trkpt lat="44.63385" lon="7.08287">
        <ele>2377.3</ele>
        <time>2026-09-01T08:26:49Z</time>
      </trkpt>
      <trkpt lat="44.63385" lon="7.08289">
        <ele>2377.5</ele>
        <time>2026-09-01T08:26:54Z</time>
      </trkpt>
      <trkpt lat="44.63385" lon="7.08291">
        <ele>2377.8</ele>
        <time>2026-09-01T08:26:59Z</time>
      </trkpt>
      <trkpt lat="44.63385" lon="7.08292">
        <ele>2377.9</ele>
        <time>2026-09-01T08:27:05Z</time>
      </trkpt>
      <trkpt lat="44.63385" lon="7.08292">
        <ele>2377.9</ele>
        <time>2026-09-01T08:27:10Z</time>
      </trkpt>
      <trkpt lat="44.63385" lon="7.08292">
        <ele>2377.9</ele>
        <time>2026-09-01T08:27:15Z</time>
      </trkpt>
      <trkpt lat="44.63385" lon="7.08292">
        <ele>2377.9</ele>
        <time>2026-09-01T08:27:21Z</time>
      </trkpt>
      <trkpt lat="44.63392" lon="7.08302">
        <ele>2378.8</ele>
        <time>2026-09-01T08:27:26Z</time>
      </trkpt>
      <trkpt lat="44.63389" lon="7.08305">
        <ele>2379.4</ele>
        <time>2026-09-01T08:27:31Z</time>
      </trkpt>
      <trkpt lat="44.63388" lon="7.08305">
        <ele>2379.4</ele>
        <time>2026-09-01T08:27:37Z</time>
      </trkpt>
      <trkpt lat="44.63388" lon="7.08305">
        <ele>2379.4</ele>
        <time>2026-09-01T08:27:42Z</time>
      </trkpt>
      <trkpt lat="44.63388" lon="7.08312">
        <ele>2380.3</ele>
        <time>2026-09-01T08:27:47Z</time>
      </trkpt>
      <trkpt lat="44.6339" lon="7.08316">
        <ele>2380.7</ele>
        <time>2026-09-01T08:27:53Z</time>
      </trkpt>
      <trkpt lat="44.63391" lon="7.08321">
        <ele>2381.2</ele>
        <time>2026-09-01T08:27:58Z</time>
      </trkpt>
      <trkpt lat="44.63392" lon="7.08325">
        <ele>2381.6</ele>
        <time>2026-09-01T08:28:03Z</time>
      </trkpt>
      <trkpt lat="44.63394" lon="7.08328">
        <ele>2381.8</ele>
        <time>2026-09-01T08:28:09Z</time>
      </trkpt>
      <trkpt lat="44.63396" lon="7.08331">
        <ele>2382</ele>
        <time>2026-09-01T08:28:14Z</time>
      </trkpt>
      <trkpt lat="44.63394" lon="7.08332">
        <ele>2382.3</ele>
        <time>2026-09-01T08:28:19Z</time>
      </trkpt>
      <trkpt lat="44.63394" lon="7.08332">
        <ele>2382.3</ele>
        <time>2026-09-01T08:28:25Z</time>
      </trkpt>
      <trkpt lat="44.63394" lon="7.08332">
        <ele>2382.3</ele>
        <time>2026-09-01T08:28:30Z</time>
      </trkpt>
      <trkpt lat="44.63393" lon="7.0834">
        <ele>2383.7</ele>
        <time>2026-09-01T08:28:35Z</time>
      </trkpt>
      <trkpt lat="44.63392" lon="7.08343">
        <ele>2384.3</ele>
        <time>2026-09-01T08:28:41Z</time>
      </trkpt>
      <trkpt lat="44.63392" lon="7.08347">
        <ele>2385</ele>
        <time>2026-09-01T08:28:46Z</time>
      </trkpt>
      <trkpt lat="44.63392" lon="7.0835">
        <ele>2385.5</ele>
        <time>2026-09-01T08:28:51Z</time>
      </trkpt>
      <trkpt lat="44.63392" lon="7.0835">
        <ele>2385.5</ele>
        <time>2026-09-01T08:28:57Z</time>
      </trkpt>
      <trkpt lat="44.63392" lon="7.0835">
        <ele>2385.5</ele>
        <time>2026-09-01T08:29:02Z</time>
      </trkpt>
      <trkpt lat="44.63392" lon="7.0835">
        <ele>2385.5</ele>
        <time>2026-09-01T08:29:07Z</time>
      </trkpt>
      <trkpt lat="44.63392" lon="7.0835">
        <ele>2385.5</ele>
        <time>2026-09-01T08:29:13Z</time>
      </trkpt>
      <trkpt lat="44.63392" lon="7.0835">
        <ele>2385.5</ele>
        <time>2026-09-01T08:29:18Z</time>
      </trkpt>
      <trkpt lat="44.63392" lon="7.0835">
        <ele>2385.5</ele>
        <time>2026-09-01T08:29:23Z</time>
      </trkpt>
      <trkpt lat="44.63392" lon="7.0835">
        <ele>2385.5</ele>
        <time>2026-09-01T08:29:29Z</time>
      </trkpt>
      <trkpt lat="44.63392" lon="7.0835">
        <ele>2385.5</ele>
        <time>2026-09-01T08:29:34Z</time>
      </trkpt>
      <trkpt lat="44.63392" lon="7.0835">
        <ele>2385.5</ele>
        <time>2026-09-01T08:29:39Z</time>
      </trkpt>
      <trkpt lat="44.63392" lon="7.0835">
        <ele>2385.5</ele>
        <time>2026-09-01T08:29:45Z</time>
      </trkpt>
      <trkpt lat="44.63392" lon="7.0835">
        <ele>2385.5</ele>
        <time>2026-09-01T08:29:50Z</time>
      </trkpt>
      <trkpt lat="44.63392" lon="7.0835">
        <ele>2385.5</ele>
        <time>2026-09-01T08:29:55Z</time>
      </trkpt>
      <trkpt lat="44.63392" lon="7.0835">
        <ele>2385.5</ele>
        <time>2026-09-01T08:30:01Z</time>
      </trkpt>
      <trkpt lat="44.63392" lon="7.0835">
        <ele>2385.5</ele>
        <time>2026-09-01T08:30:06Z</time>
      </trkpt>
      <trkpt lat="44.63392" lon="7.0835">
        <ele>2385.5</ele>
        <time>2026-09-01T08:30:11Z</time>
      </trkpt>
      <trkpt lat="44.63392" lon="7.0835">
        <ele>2385.5</ele>
        <time>2026-09-01T08:30:17Z</time>
      </trkpt>
      <trkpt lat="44.63392" lon="7.0835">
        <ele>2385.5</ele>
        <time>2026-09-01T08:30:22Z</time>
      </trkpt>
      <trkpt lat="44.63392" lon="7.0835">
        <ele>2385.5</ele>
        <time>2026-09-01T08:30:27Z</time>
      </trkpt>
      <trkpt lat="44.63392" lon="7.0835">
        <ele>2385.5</ele>
        <time>2026-09-01T08:30:33Z</time>
      </trkpt>
      <trkpt lat="44.63392" lon="7.0835">
        <ele>2385.5</ele>
        <time>2026-09-01T08:30:38Z</time>
      </trkpt>
      <trkpt lat="44.63392" lon="7.0835">
        <ele>2385.5</ele>
        <time>2026-09-01T08:30:43Z</time>
      </trkpt>
      <trkpt lat="44.63392" lon="7.0835">
        <ele>2385.5</ele>
        <time>2026-09-01T08:30:49Z</time>
      </trkpt>
      <trkpt lat="44.63392" lon="7.0835">
        <ele>2385.5</ele>
        <time>2026-09-01T08:30:54Z</time>
      </trkpt>
      <trkpt lat="44.63392" lon="7.0835">
        <ele>2385.5</ele>
        <time>2026-09-01T08:30:59Z</time>
      </trkpt>
      <trkpt lat="44.63392" lon="7.0835">
        <ele>2385.5</ele>
        <time>2026-09-01T08:31:05Z</time>
      </trkpt>
      <trkpt lat="44.63392" lon="7.0835">
        <ele>2385.5</ele>
        <time>2026-09-01T08:31:10Z</time>
      </trkpt>
      <trkpt lat="44.63392" lon="7.0835">
        <ele>2385.5</ele>
        <time>2026-09-01T08:31:15Z</time>
      </trkpt>
      <trkpt lat="44.63392" lon="7.0835">
        <ele>2385.5</ele>
        <time>2026-09-01T08:31:21Z</time>
      </trkpt>
      <trkpt lat="44.63392" lon="7.0835">
        <ele>2385.5</ele>
        <time>2026-09-01T08:31:26Z</time>
      </trkpt>
      <trkpt lat="44.63392" lon="7.0835">
        <ele>2385.5</ele>
        <time>2026-09-01T08:31:31Z</time>
      </trkpt>
      <trkpt lat="44.63392" lon="7.0835">
        <ele>2385.5</ele>
        <time>2026-09-01T08:31:37Z</time>
      </trkpt>
      <trkpt lat="44.63392" lon="7.0835">
        <ele>2385.5</ele>
        <time>2026-09-01T08:31:42Z</time>
      </trkpt>
      <trkpt lat="44.63392" lon="7.0835">
        <ele>2385.5</ele>
        <time>2026-09-01T08:31:47Z</time>
      </trkpt>
      <trkpt lat="44.63392" lon="7.0835">
        <ele>2385.5</ele>
        <time>2026-09-01T08:31:53Z</time>
      </trkpt>
      <trkpt lat="44.63392" lon="7.0835">
        <ele>2385.5</ele>
        <time>2026-09-01T08:31:58Z</time>
      </trkpt>
      <trkpt lat="44.63392" lon="7.0835">
        <ele>2385.5</ele>
        <time>2026-09-01T08:32:03Z</time>
      </trkpt>
      <trkpt lat="44.63392" lon="7.0835">
        <ele>2385.5</ele>
        <time>2026-09-01T08:32:09Z</time>
      </trkpt>
      <trkpt lat="44.63392" lon="7.0835">
        <ele>2385.5</ele>
        <time>2026-09-01T08:32:14Z</time>
      </trkpt>
      <trkpt lat="44.63392" lon="7.0835">
        <ele>2385.5</ele>
        <time>2026-09-01T08:32:19Z</time>
      </trkpt>
      <trkpt lat="44.63392" lon="7.0835">
        <ele>2385.5</ele>
        <time>2026-09-01T08:32:25Z</time>
      </trkpt>
      <trkpt lat="44.63392" lon="7.0835">
        <ele>2385.5</ele>
        <time>2026-09-01T08:32:30Z</time>
      </trkpt>
      <trkpt lat="44.63392" lon="7.0835">
        <ele>2385.5</ele>
        <time>2026-09-01T08:32:35Z</time>
      </trkpt>
      <trkpt lat="44.63392" lon="7.0835">
        <ele>2385.5</ele>
        <time>2026-09-01T08:32:41Z</time>
      </trkpt>
      <trkpt lat="44.63392" lon="7.0835">
        <ele>2385.5</ele>
        <time>2026-09-01T08:32:46Z</time>
      </trkpt>
      <trkpt lat="44.63392" lon="7.0835">
        <ele>2385.5</ele>
        <time>2026-09-01T08:32:51Z</time>
      </trkpt>
      <trkpt lat="44.63392" lon="7.0835">
        <ele>2385.5</ele>
        <time>2026-09-01T08:32:57Z</time>
      </trkpt>
      <trkpt lat="44.63392" lon="7.0835">
        <ele>2385.5</ele>
        <time>2026-09-01T08:33:02Z</time>
      </trkpt>
      <trkpt lat="44.63392" lon="7.0835">
        <ele>2385.5</ele>
        <time>2026-09-01T08:33:07Z</time>
      </trkpt>
      <trkpt lat="44.63392" lon="7.0835">
        <ele>2385.5</ele>
        <time>2026-09-01T08:33:13Z</time>
      </trkpt>
      <trkpt lat="44.63392" lon="7.0835">
        <ele>2385.5</ele>
        <time>2026-09-01T08:33:18Z</time>
      </trkpt>
      <trkpt lat="44.63392" lon="7.0835">
        <ele>2385.5</ele>
        <time>2026-09-01T08:33:23Z</time>
      </trkpt>
      <trkpt lat="44.63392" lon="7.0835">
        <ele>2385.5</ele>
        <time>2026-09-01T08:33:29Z</time>
      </trkpt>
      <trkpt lat="44.63392" lon="7.0835">
        <ele>2385.5</ele>
        <time>2026-09-01T08:33:34Z</time>
      </trkpt>
      <trkpt lat="44.63392" lon="7.0835">
        <ele>2385.5</ele>
        <time>2026-09-01T08:33:39Z</time>
      </trkpt>
      <trkpt lat="44.63392" lon="7.0835">
        <ele>2385.5</ele>
        <time>2026-09-01T08:33:45Z</time>
      </trkpt>
      <trkpt lat="44.63392" lon="7.0835">
        <ele>2385.5</ele>
        <time>2026-09-01T08:33:50Z</time>
      </trkpt>
      <trkpt lat="44.63392" lon="7.0835">
        <ele>2385.5</ele>
        <time>2026-09-01T08:33:55Z</time>
      </trkpt>
      <trkpt lat="44.63392" lon="7.0835">
        <ele>2385.5</ele>
        <time>2026-09-01T08:34:01Z</time>
      </trkpt>
      <trkpt lat="44.63392" lon="7.0835">
        <ele>2385.5</ele>
        <time>2026-09-01T08:34:06Z</time>
      </trkpt>
      <trkpt lat="44.63392" lon="7.0835">
        <ele>2385.5</ele>
        <time>2026-09-01T08:34:11Z</time>
      </trkpt>
      <trkpt lat="44.63392" lon="7.0835">
        <ele>2385.5</ele>
        <time>2026-09-01T08:34:17Z</time>
      </trkpt>
      <trkpt lat="44.63392" lon="7.0835">
        <ele>2385.5</ele>
        <time>2026-09-01T08:34:22Z</time>
      </trkpt>
      <trkpt lat="44.63392" lon="7.0835">
        <ele>2385.5</ele>
        <time>2026-09-01T08:34:27Z</time>
      </trkpt>
      <trkpt lat="44.63392" lon="7.0835">
        <ele>2385.5</ele>
        <time>2026-09-01T08:34:33Z</time>
      </trkpt>
      <trkpt lat="44.63392" lon="7.0835">
        <ele>2385.5</ele>
        <time>2026-09-01T08:34:38Z</time>
      </trkpt>
      <trkpt lat="44.63392" lon="7.0835">
        <ele>2385.5</ele>
        <time>2026-09-01T08:34:43Z</time>
      </trkpt>
      <trkpt lat="44.63392" lon="7.0835">
        <ele>2385.5</ele>
        <time>2026-09-01T08:34:49Z</time>
      </trkpt>
      <trkpt lat="44.63392" lon="7.0835">
        <ele>2385.5</ele>
        <time>2026-09-01T08:34:54Z</time>
      </trkpt>
      <trkpt lat="44.63392" lon="7.0835">
        <ele>2385.5</ele>
        <time>2026-09-01T08:34:59Z</time>
      </trkpt>
      <trkpt lat="44.63392" lon="7.0835">
        <ele>2385.5</ele>
        <time>2026-09-01T08:35:05Z</time>
      </trkpt>
      <trkpt lat="44.63392" lon="7.0835">
        <ele>2385.5</ele>
        <time>2026-09-01T08:35:10Z</time>
      </trkpt>
      <trkpt lat="44.63392" lon="7.0835">
        <ele>2385.5</ele>
        <time>2026-09-01T08:35:15Z</time>
      </trkpt>
      <trkpt lat="44.63389" lon="7.08365">
        <ele>2388.3</ele>
        <time>2026-09-01T08:35:21Z</time>
      </trkpt>
      <trkpt lat="44.63389" lon="7.08365">
        <ele>2388.3</ele>
        <time>2026-09-01T08:35:26Z</time>
      </trkpt>
      <trkpt lat="44.63389" lon="7.08365">
        <ele>2388.3</ele>
        <time>2026-09-01T08:35:31Z</time>
      </trkpt>
      <trkpt lat="44.63389" lon="7.08365">
        <ele>2388.3</ele>
        <time>2026-09-01T08:35:37Z</time>
      </trkpt>
      <trkpt lat="44.63389" lon="7.08365">
        <ele>2388.3</ele>
        <time>2026-09-01T08:35:42Z</time>
      </trkpt>
      <trkpt lat="44.63397" lon="7.08369">
        <ele>2388.1</ele>
        <time>2026-09-01T08:35:47Z</time>
      </trkpt>
      <trkpt lat="44.63399" lon="7.08371">
        <ele>2388.2</ele>
        <time>2026-09-01T08:35:53Z</time>
      </trkpt>
      <trkpt lat="44.634" lon="7.08372">
        <ele>2388.3</ele>
        <time>2026-09-01T08:35:58Z</time>
      </trkpt>
      <trkpt lat="44.634" lon="7.08372">
        <ele>2388.3</ele>
        <time>2026-09-01T08:36:03Z</time>
      </trkpt>
      <trkpt lat="44.634" lon="7.08372">
        <ele>2388.3</ele>
        <time>2026-09-01T08:36:09Z</time>
      </trkpt>
      <trkpt lat="44.634" lon="7.08372">
        <ele>2388.3</ele>
        <time>2026-09-01T08:36:14Z</time>
      </trkpt>
      <trkpt lat="44.634" lon="7.08372">
        <ele>2388.3</ele>
        <time>2026-09-01T08:36:19Z</time>
      </trkpt>
      <trkpt lat="44.634" lon="7.08372">
        <ele>2388.3</ele>
        <time>2026-09-01T08:36:25Z</time>
      </trkpt>
      <trkpt lat="44.634" lon="7.08372">
        <ele>2388.3</ele>
        <time>2026-09-01T08:36:30Z</time>
      </trkpt>
      <trkpt lat="44.634" lon="7.08372">
        <ele>2388.3</ele>
        <time>2026-09-01T08:36:35Z</time>
      </trkpt>
      <trkpt lat="44.634" lon="7.08372">
        <ele>2388.3</ele>
        <time>2026-09-01T08:36:41Z</time>
      </trkpt>
      <trkpt lat="44.63408" lon="7.08381">
        <ele>2388.9</ele>
        <time>2026-09-01T08:36:46Z</time>
      </trkpt>
      <trkpt lat="44.63408" lon="7.08381">
        <ele>2388.9</ele>
        <time>2026-09-01T08:36:51Z</time>
      </trkpt>
      <trkpt lat="44.63408" lon="7.08381">
        <ele>2388.9</ele>
        <time>2026-09-01T08:36:57Z</time>
      </trkpt>
      <trkpt lat="44.63406" lon="7.0839">
        <ele>2390.7</ele>
        <time>2026-09-01T08:37:02Z</time>
      </trkpt>
      <trkpt lat="44.63406" lon="7.08392">
        <ele>2391</ele>
        <time>2026-09-01T08:37:07Z</time>
      </trkpt>
      <trkpt lat="44.63406" lon="7.08392">
        <ele>2391</ele>
        <time>2026-09-01T08:37:13Z</time>
      </trkpt>
      <trkpt lat="44.63406" lon="7.08392">
        <ele>2391</ele>
        <time>2026-09-01T08:37:18Z</time>
      </trkpt>
      <trkpt lat="44.6341" lon="7.08389">
        <ele>2390.1</ele>
        <time>2026-09-01T08:37:23Z</time>
      </trkpt>
      <trkpt lat="44.63411" lon="7.08388">
        <ele>2389.8</ele>
        <time>2026-09-01T08:37:29Z</time>
      </trkpt>
      <trkpt lat="44.63411" lon="7.08388">
        <ele>2389.8</ele>
        <time>2026-09-01T08:37:34Z</time>
      </trkpt>
      <trkpt lat="44.63411" lon="7.08388">
        <ele>2389.8</ele>
        <time>2026-09-01T08:37:39Z</time>
      </trkpt>
      <trkpt lat="44.63411" lon="7.08388">
        <ele>2389.8</ele>
        <time>2026-09-01T08:37:45Z</time>
      </trkpt>
      <trkpt lat="44.63411" lon="7.08388">
        <ele>2389.8</ele>
        <time>2026-09-01T08:37:50Z</time>
      </trkpt>
      <trkpt lat="44.63411" lon="7.08388">
        <ele>2389.8</ele>
        <time>2026-09-01T08:37:55Z</time>
      </trkpt>
      <trkpt lat="44.63411" lon="7.08388">
        <ele>2389.8</ele>
        <time>2026-09-01T08:38:01Z</time>
      </trkpt>
      <trkpt lat="44.63419" lon="7.08394">
        <ele>2390.6</ele>
        <time>2026-09-01T08:38:06Z</time>
      </trkpt>
      <trkpt lat="44.63419" lon="7.08394">
        <ele>2390.6</ele>
        <time>2026-09-01T08:38:11Z</time>
      </trkpt>
      <trkpt lat="44.63419" lon="7.08394">
        <ele>2390.6</ele>
        <time>2026-09-01T08:38:17Z</time>
      </trkpt>
      <trkpt lat="44.63419" lon="7.08394">
        <ele>2390.6</ele>
        <time>2026-09-01T08:38:22Z</time>
      </trkpt>
      <trkpt lat="44.63421" lon="7.08398">
        <ele>2391.6</ele>
        <time>2026-09-01T08:38:27Z</time>
      </trkpt>
      <trkpt lat="44.63421" lon="7.08401">
        <ele>2392.1</ele>
        <time>2026-09-01T08:38:33Z</time>
      </trkpt>
      <trkpt lat="44.63421" lon="7.08401">
        <ele>2392.1</ele>
        <time>2026-09-01T08:38:38Z</time>
      </trkpt>
      <trkpt lat="44.63421" lon="7.08401">
        <ele>2392.1</ele>
        <time>2026-09-01T08:38:43Z</time>
      </trkpt>
      <trkpt lat="44.63421" lon="7.08401">
        <ele>2392.1</ele>
        <time>2026-09-01T08:38:49Z</time>
      </trkpt>
      <trkpt lat="44.63421" lon="7.08401">
        <ele>2392.1</ele>
        <time>2026-09-01T08:38:54Z</time>
      </trkpt>
      <trkpt lat="44.63424" lon="7.08404">
        <ele>2393.1</ele>
        <time>2026-09-01T08:38:59Z</time>
      </trkpt>
      <trkpt lat="44.63428" lon="7.08404">
        <ele>2393.7</ele>
        <time>2026-09-01T08:39:05Z</time>
      </trkpt>
      <trkpt lat="44.63429" lon="7.08402">
        <ele>2393.6</ele>
        <time>2026-09-01T08:39:10Z</time>
      </trkpt>
      <trkpt lat="44.63431" lon="7.08404">
        <ele>2394.2</ele>
        <time>2026-09-01T08:39:15Z</time>
      </trkpt>
      <trkpt lat="44.63431" lon="7.08404">
        <ele>2394.2</ele>
        <time>2026-09-01T08:39:21Z</time>
      </trkpt>
      <trkpt lat="44.63431" lon="7.08404">
        <ele>2394.2</ele>
        <time>2026-09-01T08:39:26Z</time>
      </trkpt>
      <trkpt lat="44.63431" lon="7.08404">
        <ele>2394.2</ele>
        <time>2026-09-01T08:39:31Z</time>
      </trkpt>
      <trkpt lat="44.63431" lon="7.08404">
        <ele>2394.2</ele>
        <time>2026-09-01T08:39:37Z</time>
      </trkpt>
      <trkpt lat="44.63431" lon="7.08404">
        <ele>2394.2</ele>
        <time>2026-09-01T08:39:42Z</time>
      </trkpt>
      <trkpt lat="44.63431" lon="7.08404">
        <ele>2394.2</ele>
        <time>2026-09-01T08:39:47Z</time>
      </trkpt>
      <trkpt lat="44.63431" lon="7.08404">
        <ele>2394.2</ele>
        <time>2026-09-01T08:39:53Z</time>
      </trkpt>
      <trkpt lat="44.63431" lon="7.08404">
        <ele>2394.2</ele>
        <time>2026-09-01T08:39:58Z</time>
      </trkpt>
      <trkpt lat="44.63434" lon="7.08402">
        <ele>2394.4</ele>
        <time>2026-09-01T08:40:03Z</time>
      </trkpt>
      <trkpt lat="44.63435" lon="7.084">
        <ele>2394.2</ele>
        <time>2026-09-01T08:40:09Z</time>
      </trkpt>
      <trkpt lat="44.63437" lon="7.08398">
        <ele>2394.2</ele>
        <time>2026-09-01T08:40:14Z</time>
      </trkpt>
      <trkpt lat="44.63439" lon="7.08398">
        <ele>2394.5</ele>
        <time>2026-09-01T08:40:19Z</time>
      </trkpt>
      <trkpt lat="44.63442" lon="7.08399">
        <ele>2395.2</ele>
        <time>2026-09-01T08:40:25Z</time>
      </trkpt>
      <trkpt lat="44.63442" lon="7.08401">
        <ele>2395.5</ele>
        <time>2026-09-01T08:40:30Z</time>
      </trkpt>
      <trkpt lat="44.63442" lon="7.08401">
        <ele>2395.5</ele>
        <time>2026-09-01T08:40:35Z</time>
      </trkpt>
      <trkpt lat="44.63442" lon="7.08401">
        <ele>2395.5</ele>
        <time>2026-09-01T08:40:41Z</time>
      </trkpt>
      <trkpt lat="44.63442" lon="7.08401">
        <ele>2395.5</ele>
        <time>2026-09-01T08:40:46Z</time>
      </trkpt>
      <trkpt lat="44.63442" lon="7.08401">
        <ele>2395.5</ele>
        <time>2026-09-01T08:40:51Z</time>
      </trkpt>
      <trkpt lat="44.63442" lon="7.08401">
        <ele>2395.5</ele>
        <time>2026-09-01T08:40:57Z</time>
      </trkpt>
      <trkpt lat="44.63442" lon="7.08409">
        <ele>2396.9</ele>
        <time>2026-09-01T08:41:02Z</time>
      </trkpt>
      <trkpt lat="44.63442" lon="7.08413">
        <ele>2397.6</ele>
        <time>2026-09-01T08:41:07Z</time>
      </trkpt>
      <trkpt lat="44.63443" lon="7.08413">
        <ele>2397.8</ele>
        <time>2026-09-01T08:41:13Z</time>
      </trkpt>
      <trkpt lat="44.63443" lon="7.08413">
        <ele>2397.8</ele>
        <time>2026-09-01T08:41:18Z</time>
      </trkpt>
      <trkpt lat="44.63443" lon="7.08413">
        <ele>2397.8</ele>
        <time>2026-09-01T08:41:23Z</time>
      </trkpt>
      <trkpt lat="44.63443" lon="7.08413">
        <ele>2397.8</ele>
        <time>2026-09-01T08:41:29Z</time>
      </trkpt>
      <trkpt lat="44.63443" lon="7.08413">
        <ele>2397.8</ele>
        <time>2026-09-01T08:41:34Z</time>
      </trkpt>
      <trkpt lat="44.63443" lon="7.08413">
        <ele>2397.8</ele>
        <time>2026-09-01T08:41:39Z</time>
      </trkpt>
      <trkpt lat="44.63443" lon="7.08413">
        <ele>2397.8</ele>
        <time>2026-09-01T08:41:45Z</time>
      </trkpt>
      <trkpt lat="44.63443" lon="7.08413">
        <ele>2397.8</ele>
        <time>2026-09-01T08:41:50Z</time>
      </trkpt>
      <trkpt lat="44.63443" lon="7.08413">
        <ele>2397.8</ele>
        <time>2026-09-01T08:41:55Z</time>
      </trkpt>
      <trkpt lat="44.63443" lon="7.08413">
        <ele>2397.8</ele>
        <time>2026-09-01T08:42:01Z</time>
      </trkpt>
      <trkpt lat="44.63443" lon="7.08413">
        <ele>2397.8</ele>
        <time>2026-09-01T08:42:06Z</time>
      </trkpt>
      <trkpt lat="44.63452" lon="7.08414">
        <ele>2399.5</ele>
        <time>2026-09-01T08:42:11Z</time>
      </trkpt>
      <trkpt lat="44.63452" lon="7.08414">
        <ele>2399.5</ele>
        <time>2026-09-01T08:42:17Z</time>
      </trkpt>
      <trkpt lat="44.63452" lon="7.08414">
        <ele>2399.5</ele>
        <time>2026-09-01T08:42:22Z</time>
      </trkpt>
      <trkpt lat="44.63452" lon="7.08414">
        <ele>2399.5</ele>
        <time>2026-09-01T08:42:27Z</time>
      </trkpt>
      <trkpt lat="44.63452" lon="7.08414">
        <ele>2399.5</ele>
        <time>2026-09-01T08:42:33Z</time>
      </trkpt>
      <trkpt lat="44.63452" lon="7.08414">
        <ele>2399.5</ele>
        <time>2026-09-01T08:42:38Z</time>
      </trkpt>
      <trkpt lat="44.63452" lon="7.08414">
        <ele>2399.5</ele>
        <time>2026-09-01T08:42:43Z</time>
      </trkpt>
      <trkpt lat="44.63452" lon="7.08414">
        <ele>2399.5</ele>
        <time>2026-09-01T08:42:49Z</time>
      </trkpt>
      <trkpt lat="44.63452" lon="7.08414">
        <ele>2399.5</ele>
        <time>2026-09-01T08:42:54Z</time>
      </trkpt>
      <trkpt lat="44.63452" lon="7.08414">
        <ele>2399.5</ele>
        <time>2026-09-01T08:42:59Z</time>
      </trkpt>
      <trkpt lat="44.63452" lon="7.08414">
        <ele>2399.5</ele>
        <time>2026-09-01T08:43:05Z</time>
      </trkpt>
      <trkpt lat="44.63452" lon="7.08414">
        <ele>2399.5</ele>
        <time>2026-09-01T08:43:10Z</time>
      </trkpt>
      <trkpt lat="44.63452" lon="7.08414">
        <ele>2399.5</ele>
        <time>2026-09-01T08:43:15Z</time>
      </trkpt>
      <trkpt lat="44.63455" lon="7.08417">
        <ele>2400.5</ele>
        <time>2026-09-01T08:43:21Z</time>
      </trkpt>
      <trkpt lat="44.63455" lon="7.08417">
        <ele>2400.5</ele>
        <time>2026-09-01T08:43:26Z</time>
      </trkpt>
      <trkpt lat="44.63455" lon="7.08417">
        <ele>2400.5</ele>
        <time>2026-09-01T08:43:31Z</time>
      </trkpt>
      <trkpt lat="44.63455" lon="7.08417">
        <ele>2400.5</ele>
        <time>2026-09-01T08:43:37Z</time>
      </trkpt>
      <trkpt lat="44.63455" lon="7.08417">
        <ele>2400.5</ele>
        <time>2026-09-01T08:43:42Z</time>
      </trkpt>
      <trkpt lat="44.63455" lon="7.08417">
        <ele>2400.5</ele>
        <time>2026-09-01T08:43:47Z</time>
      </trkpt>
      <trkpt lat="44.63455" lon="7.08417">
        <ele>2400.5</ele>
        <time>2026-09-01T08:43:53Z</time>
      </trkpt>
      <trkpt lat="44.63455" lon="7.08417">
        <ele>2400.5</ele>
        <time>2026-09-01T08:43:58Z</time>
      </trkpt>
      <trkpt lat="44.63462" lon="7.08429">
        <ele>2403.7</ele>
        <time>2026-09-01T08:44:03Z</time>
      </trkpt>
      <trkpt lat="44.63463" lon="7.08429">
        <ele>2403.9</ele>
        <time>2026-09-01T08:44:09Z</time>
      </trkpt>
      <trkpt lat="44.63463" lon="7.08429">
        <ele>2403.9</ele>
        <time>2026-09-01T08:44:14Z</time>
      </trkpt>
      <trkpt lat="44.63463" lon="7.08429">
        <ele>2403.9</ele>
        <time>2026-09-01T08:44:19Z</time>
      </trkpt>
      <trkpt lat="44.63459" lon="7.08434">
        <ele>2404</ele>
        <time>2026-09-01T08:44:25Z</time>
      </trkpt>
      <trkpt lat="44.63459" lon="7.08434">
        <ele>2404</ele>
        <time>2026-09-01T08:44:30Z</time>
      </trkpt>
      <trkpt lat="44.63456" lon="7.08446">
        <ele>2405.5</ele>
        <time>2026-09-01T08:44:35Z</time>
      </trkpt>
      <trkpt lat="44.63456" lon="7.08446">
        <ele>2405.5</ele>
        <time>2026-09-01T08:44:41Z</time>
      </trkpt>
      <trkpt lat="44.63456" lon="7.08446">
        <ele>2405.5</ele>
        <time>2026-09-01T08:44:46Z</time>
      </trkpt>
      <trkpt lat="44.63456" lon="7.08446">
        <ele>2405.5</ele>
        <time>2026-09-01T08:44:51Z</time>
      </trkpt>
      <trkpt lat="44.63456" lon="7.08446">
        <ele>2405.5</ele>
        <time>2026-09-01T08:44:57Z</time>
      </trkpt>
      <trkpt lat="44.63456" lon="7.08446">
        <ele>2405.5</ele>
        <time>2026-09-01T08:45:02Z</time>
      </trkpt>
      <trkpt lat="44.63456" lon="7.08446">
        <ele>2405.5</ele>
        <time>2026-09-01T08:45:07Z</time>
      </trkpt>
      <trkpt lat="44.63456" lon="7.08446">
        <ele>2405.5</ele>
        <time>2026-09-01T08:45:13Z</time>
      </trkpt>
      <trkpt lat="44.63456" lon="7.08446">
        <ele>2405.5</ele>
        <time>2026-09-01T08:45:18Z</time>
      </trkpt>
      <trkpt lat="44.63456" lon="7.08446">
        <ele>2405.5</ele>
        <time>2026-09-01T08:45:23Z</time>
      </trkpt>
      <trkpt lat="44.63456" lon="7.08446">
        <ele>2405.5</ele>
        <time>2026-09-01T08:45:29Z</time>
      </trkpt>
      <trkpt lat="44.63456" lon="7.08446">
        <ele>2405.5</ele>
        <time>2026-09-01T08:45:34Z</time>
      </trkpt>
      <trkpt lat="44.63456" lon="7.08446">
        <ele>2405.5</ele>
        <time>2026-09-01T08:45:39Z</time>
      </trkpt>
      <trkpt lat="44.63456" lon="7.08446">
        <ele>2405.5</ele>
        <time>2026-09-01T08:45:45Z</time>
      </trkpt>
      <trkpt lat="44.63456" lon="7.08446">
        <ele>2405.5</ele>
        <time>2026-09-01T08:45:50Z</time>
      </trkpt>
      <trkpt lat="44.63456" lon="7.08446">
        <ele>2405.5</ele>
        <time>2026-09-01T08:45:55Z</time>
      </trkpt>
      <trkpt lat="44.63456" lon="7.08446">
        <ele>2405.5</ele>
        <time>2026-09-01T08:46:01Z</time>
      </trkpt>
      <trkpt lat="44.63464" lon="7.08448">
        <ele>2407.4</ele>
        <time>2026-09-01T08:46:06Z</time>
      </trkpt>
      <trkpt lat="44.63464" lon="7.08455">
        <ele>2408.6</ele>
        <time>2026-09-01T08:46:11Z</time>
      </trkpt>
      <trkpt lat="44.63463" lon="7.08457">
        <ele>2408.8</ele>
        <time>2026-09-01T08:46:17Z</time>
      </trkpt>
      <trkpt lat="44.63464" lon="7.08458">
        <ele>2409.2</ele>
        <time>2026-09-01T08:46:22Z</time>
      </trkpt>
      <trkpt lat="44.63464" lon="7.08458">
        <ele>2409.2</ele>
        <time>2026-09-01T08:46:27Z</time>
      </trkpt>
      <trkpt lat="44.63464" lon="7.08458">
        <ele>2409.2</ele>
        <time>2026-09-01T08:46:33Z</time>
      </trkpt>
      <trkpt lat="44.63464" lon="7.08458">
        <ele>2409.2</ele>
        <time>2026-09-01T08:46:38Z</time>
      </trkpt>
      <trkpt lat="44.63464" lon="7.08458">
        <ele>2409.2</ele>
        <time>2026-09-01T08:46:43Z</time>
      </trkpt>
      <trkpt lat="44.63463" lon="7.08477">
        <ele>2412.2</ele>
        <time>2026-09-01T08:46:49Z</time>
      </trkpt>
      <trkpt lat="44.63463" lon="7.08482">
        <ele>2413.1</ele>
        <time>2026-09-01T08:46:54Z</time>
      </trkpt>
      <trkpt lat="44.63462" lon="7.08485">
        <ele>2413.4</ele>
        <time>2026-09-01T08:46:59Z</time>
      </trkpt>
      <trkpt lat="44.63461" lon="7.08485">
        <ele>2413.1</ele>
        <time>2026-09-01T08:47:05Z</time>
      </trkpt>
      <trkpt lat="44.63461" lon="7.08485">
        <ele>2413.1</ele>
        <time>2026-09-01T08:47:10Z</time>
      </trkpt>
      <trkpt lat="44.63461" lon="7.08485">
        <ele>2413.1</ele>
        <time>2026-09-01T08:47:15Z</time>
      </trkpt>
      <trkpt lat="44.63461" lon="7.08485">
        <ele>2413.1</ele>
        <time>2026-09-01T08:47:21Z</time>
      </trkpt>
      <trkpt lat="44.63456" lon="7.08491">
        <ele>2412.9</ele>
        <time>2026-09-01T08:47:26Z</time>
      </trkpt>
      <trkpt lat="44.63456" lon="7.08494">
        <ele>2413.4</ele>
        <time>2026-09-01T08:47:31Z</time>
      </trkpt>
      <trkpt lat="44.63456" lon="7.08498">
        <ele>2414.1</ele>
        <time>2026-09-01T08:47:37Z</time>
      </trkpt>
      <trkpt lat="44.63456" lon="7.08501">
        <ele>2414.5</ele>
        <time>2026-09-01T08:47:42Z</time>
      </trkpt>
      <trkpt lat="44.63455" lon="7.08505">
        <ele>2414.9</ele>
        <time>2026-09-01T08:47:47Z</time>
      </trkpt>
      <trkpt lat="44.63456" lon="7.0851">
        <ele>2415.9</ele>
        <time>2026-09-01T08:47:53Z</time>
      </trkpt>
      <trkpt lat="44.63455" lon="7.08516">
        <ele>2416.5</ele>
        <time>2026-09-01T08:47:58Z</time>
      </trkpt>
      <trkpt lat="44.63454" lon="7.08524">
        <ele>2417.4</ele>
        <time>2026-09-01T08:48:03Z</time>
      </trkpt>
      <trkpt lat="44.63453" lon="7.08532">
        <ele>2418.4</ele>
        <time>2026-09-01T08:48:09Z</time>
      </trkpt>
      <trkpt lat="44.63452" lon="7.08538">
        <ele>2419</ele>
        <time>2026-09-01T08:48:14Z</time>
      </trkpt>
      <trkpt lat="44.63452" lon="7.08539">
        <ele>2419.1</ele>
        <time>2026-09-01T08:48:19Z</time>
      </trkpt>
      <trkpt lat="44.63451" lon="7.08544">
        <ele>2419.6</ele>
        <time>2026-09-01T08:48:25Z</time>
      </trkpt>
      <trkpt lat="44.63451" lon="7.08549">
        <ele>2420.4</ele>
        <time>2026-09-01T08:48:30Z</time>
      </trkpt>
      <trkpt lat="44.63449" lon="7.08552">
        <ele>2420.3</ele>
        <time>2026-09-01T08:48:35Z</time>
      </trkpt>
      <trkpt lat="44.63452" lon="7.08556">
        <ele>2421.7</ele>
        <time>2026-09-01T08:48:41Z</time>
      </trkpt>
      <trkpt lat="44.63451" lon="7.08556">
        <ele>2421.4</ele>
        <time>2026-09-01T08:48:46Z</time>
      </trkpt>
      <trkpt lat="44.63451" lon="7.08556">
        <ele>2421.4</ele>
        <time>2026-09-01T08:48:51Z</time>
      </trkpt>
      <trkpt lat="44.63451" lon="7.08556">
        <ele>2421.4</ele>
        <time>2026-09-01T08:48:57Z</time>
      </trkpt>
      <trkpt lat="44.63448" lon="7.08558">
        <ele>2420.9</ele>
        <time>2026-09-01T08:49:02Z</time>
      </trkpt>
      <trkpt lat="44.63448" lon="7.08566">
        <ele>2422.1</ele>
        <time>2026-09-01T08:49:07Z</time>
      </trkpt>
      <trkpt lat="44.63448" lon="7.08573">
        <ele>2423.1</ele>
        <time>2026-09-01T08:49:13Z</time>
      </trkpt>
      <trkpt lat="44.63448" lon="7.08577">
        <ele>2423.7</ele>
        <time>2026-09-01T08:49:18Z</time>
      </trkpt>
      <trkpt lat="44.63448" lon="7.08577">
        <ele>2423.7</ele>
        <time>2026-09-01T08:49:23Z</time>
      </trkpt>
      <trkpt lat="44.63448" lon="7.08577">
        <ele>2423.7</ele>
        <time>2026-09-01T08:49:29Z</time>
      </trkpt>
      <trkpt lat="44.63446" lon="7.08582">
        <ele>2423.9</ele>
        <time>2026-09-01T08:49:34Z</time>
      </trkpt>
      <trkpt lat="44.63447" lon="7.08587">
        <ele>2425.2</ele>
        <time>2026-09-01T08:49:39Z</time>
      </trkpt>
      <trkpt lat="44.63447" lon="7.08596">
        <ele>2427.3</ele>
        <time>2026-09-01T08:49:45Z</time>
      </trkpt>
      <trkpt lat="44.63449" lon="7.086">
        <ele>2428.8</ele>
        <time>2026-09-01T08:49:50Z</time>
      </trkpt>
      <trkpt lat="44.63448" lon="7.08604">
        <ele>2429.4</ele>
        <time>2026-09-01T08:49:55Z</time>
      </trkpt>
      <trkpt lat="44.63445" lon="7.08607">
        <ele>2429.3</ele>
        <time>2026-09-01T08:50:01Z</time>
      </trkpt>
      <trkpt lat="44.63444" lon="7.08607">
        <ele>2429</ele>
        <time>2026-09-01T08:50:06Z</time>
      </trkpt>
      <trkpt lat="44.63444" lon="7.08611">
        <ele>2430</ele>
        <time>2026-09-01T08:50:11Z</time>
      </trkpt>
      <trkpt lat="44.63444" lon="7.08617">
        <ele>2431.4</ele>
        <time>2026-09-01T08:50:17Z</time>
      </trkpt>
      <trkpt lat="44.63443" lon="7.08618">
        <ele>2431.3</ele>
        <time>2026-09-01T08:50:22Z</time>
      </trkpt>
      <trkpt lat="44.63443" lon="7.08618">
        <ele>2431.3</ele>
        <time>2026-09-01T08:50:27Z</time>
      </trkpt>
      <trkpt lat="44.63444" lon="7.08625">
        <ele>2433.2</ele>
        <time>2026-09-01T08:50:33Z</time>
      </trkpt>
      <trkpt lat="44.63444" lon="7.08627">
        <ele>2433.7</ele>
        <time>2026-09-01T08:50:38Z</time>
      </trkpt>
      <trkpt lat="44.63444" lon="7.08632">
        <ele>2434.8</ele>
        <time>2026-09-01T08:50:43Z</time>
      </trkpt>
      <trkpt lat="44.63442" lon="7.08637">
        <ele>2435.5</ele>
        <time>2026-09-01T08:50:49Z</time>
      </trkpt>
      <trkpt lat="44.6344" lon="7.0864">
        <ele>2435.7</ele>
        <time>2026-09-01T08:50:54Z</time>
      </trkpt>
      <trkpt lat="44.63441" lon="7.0865">
        <ele>2438.2</ele>
        <time>2026-09-01T08:50:59Z</time>
      </trkpt>
      <trkpt lat="44.63442" lon="7.08656">
        <ele>2439.9</ele>
        <time>2026-09-01T08:51:05Z</time>
      </trkpt>
      <trkpt lat="44.63442" lon="7.08659">
        <ele>2440.6</ele>
        <time>2026-09-01T08:51:10Z</time>
      </trkpt>
      <trkpt lat="44.6344" lon="7.08662">
        <ele>2440.8</ele>
        <time>2026-09-01T08:51:15Z</time>
      </trkpt>
      <trkpt lat="44.63439" lon="7.08671">
        <ele>2443.3</ele>
        <time>2026-09-01T08:51:21Z</time>
      </trkpt>
      <trkpt lat="44.6344" lon="7.08676">
        <ele>2445.4</ele>
        <time>2026-09-01T08:51:26Z</time>
      </trkpt>
      <trkpt lat="44.63441" lon="7.08677">
        <ele>2446</ele>
        <time>2026-09-01T08:51:31Z</time>
      </trkpt>
      <trkpt lat="44.63441" lon="7.08677">
        <ele>2446</ele>
        <time>2026-09-01T08:51:37Z</time>
      </trkpt>
      <trkpt lat="44.63441" lon="7.08677">
        <ele>2446</ele>
        <time>2026-09-01T08:51:42Z</time>
      </trkpt>
      <trkpt lat="44.63441" lon="7.08677">
        <ele>2446</ele>
        <time>2026-09-01T08:51:47Z</time>
      </trkpt>
      <trkpt lat="44.63441" lon="7.08677">
        <ele>2446</ele>
        <time>2026-09-01T08:51:53Z</time>
      </trkpt>
      <trkpt lat="44.63441" lon="7.08677">
        <ele>2446</ele>
        <time>2026-09-01T08:51:58Z</time>
      </trkpt>
      <trkpt lat="44.63441" lon="7.08677">
        <ele>2446</ele>
        <time>2026-09-01T08:52:03Z</time>
      </trkpt>
      <trkpt lat="44.63441" lon="7.08677">
        <ele>2446</ele>
        <time>2026-09-01T08:52:09Z</time>
      </trkpt>
      <trkpt lat="44.63441" lon="7.08677">
        <ele>2446</ele>
        <time>2026-09-01T08:52:14Z</time>
      </trkpt>
      <trkpt lat="44.63441" lon="7.08677">
        <ele>2446</ele>
        <time>2026-09-01T08:52:19Z</time>
      </trkpt>
      <trkpt lat="44.63441" lon="7.08677">
        <ele>2446</ele>
        <time>2026-09-01T08:52:25Z</time>
      </trkpt>
      <trkpt lat="44.63441" lon="7.08677">
        <ele>2446</ele>
        <time>2026-09-01T08:52:30Z</time>
      </trkpt>
      <trkpt lat="44.63441" lon="7.08677">
        <ele>2446</ele>
        <time>2026-09-01T08:52:35Z</time>
      </trkpt>
      <trkpt lat="44.63441" lon="7.08677">
        <ele>2446</ele>
        <time>2026-09-01T08:52:41Z</time>
      </trkpt>
      <trkpt lat="44.63441" lon="7.08677">
        <ele>2446</ele>
        <time>2026-09-01T08:52:46Z</time>
      </trkpt>
      <trkpt lat="44.63441" lon="7.08677">
        <ele>2446</ele>
        <time>2026-09-01T08:52:51Z</time>
      </trkpt>
      <trkpt lat="44.63441" lon="7.08677">
        <ele>2446</ele>
        <time>2026-09-01T08:52:57Z</time>
      </trkpt>
      <trkpt lat="44.63441" lon="7.08677">
        <ele>2446</ele>
        <time>2026-09-01T08:53:02Z</time>
      </trkpt>
      <trkpt lat="44.63443" lon="7.08689">
        <ele>2451</ele>
        <time>2026-09-01T08:53:07Z</time>
      </trkpt>
      <trkpt lat="44.63443" lon="7.08689">
        <ele>2451</ele>
        <time>2026-09-01T08:53:13Z</time>
      </trkpt>
      <trkpt lat="44.63443" lon="7.08689">
        <ele>2451</ele>
        <time>2026-09-01T08:53:18Z</time>
      </trkpt>
      <trkpt lat="44.63443" lon="7.08689">
        <ele>2451</ele>
        <time>2026-09-01T08:53:23Z</time>
      </trkpt>
      <trkpt lat="44.63443" lon="7.08689">
        <ele>2451</ele>
        <time>2026-09-01T08:53:29Z</time>
      </trkpt>
      <trkpt lat="44.63443" lon="7.08689">
        <ele>2451</ele>
        <time>2026-09-01T08:53:34Z</time>
      </trkpt>
      <trkpt lat="44.63443" lon="7.08689">
        <ele>2451</ele>
        <time>2026-09-01T08:53:39Z</time>
      </trkpt>
      <trkpt lat="44.63446" lon="7.08698">
        <ele>2455</ele>
        <time>2026-09-01T08:53:45Z</time>
      </trkpt>
      <trkpt lat="44.63447" lon="7.08703">
        <ele>2457.1</ele>
        <time>2026-09-01T08:53:50Z</time>
      </trkpt>
      <trkpt lat="44.63447" lon="7.08703">
        <ele>2457.1</ele>
        <time>2026-09-01T08:53:55Z</time>
      </trkpt>
      <trkpt lat="44.63447" lon="7.08703">
        <ele>2457.1</ele>
        <time>2026-09-01T08:54:01Z</time>
      </trkpt>
      <trkpt lat="44.63447" lon="7.08703">
        <ele>2457.1</ele>
        <time>2026-09-01T08:54:06Z</time>
      </trkpt>
      <trkpt lat="44.63447" lon="7.08703">
        <ele>2457.1</ele>
        <time>2026-09-01T08:54:11Z</time>
      </trkpt>
      <trkpt lat="44.63447" lon="7.08703">
        <ele>2457.1</ele>
        <time>2026-09-01T08:54:17Z</time>
      </trkpt>
      <trkpt lat="44.63447" lon="7.08703">
        <ele>2457.1</ele>
        <time>2026-09-01T08:54:22Z</time>
      </trkpt>
      <trkpt lat="44.63447" lon="7.08703">
        <ele>2457.1</ele>
        <time>2026-09-01T08:54:27Z</time>
      </trkpt>
      <trkpt lat="44.63447" lon="7.08703">
        <ele>2457.1</ele>
        <time>2026-09-01T08:54:33Z</time>
      </trkpt>
      <trkpt lat="44.63447" lon="7.08703">
        <ele>2457.1</ele>
        <time>2026-09-01T08:54:38Z</time>
      </trkpt>
      <trkpt lat="44.63447" lon="7.08703">
        <ele>2457.1</ele>
        <time>2026-09-01T08:54:43Z</time>
      </trkpt>
      <trkpt lat="44.63447" lon="7.08703">
        <ele>2457.1</ele>
        <time>2026-09-01T08:54:49Z</time>
      </trkpt>
      <trkpt lat="44.63447" lon="7.08703">
        <ele>2457.1</ele>
        <time>2026-09-01T08:54:54Z</time>
      </trkpt>
      <trkpt lat="44.63441" lon="7.08718">
        <ele>2461.4</ele>
        <time>2026-09-01T08:54:59Z</time>
      </trkpt>
      <trkpt lat="44.63441" lon="7.08718">
        <ele>2461.4</ele>
        <time>2026-09-01T08:55:05Z</time>
      </trkpt>
      <trkpt lat="44.63441" lon="7.08718">
        <ele>2461.4</ele>
        <time>2026-09-01T08:55:10Z</time>
      </trkpt>
      <trkpt lat="44.63441" lon="7.08718">
        <ele>2461.4</ele>
        <time>2026-09-01T08:55:15Z</time>
      </trkpt>
      <trkpt lat="44.63441" lon="7.08718">
        <ele>2461.4</ele>
        <time>2026-09-01T08:55:21Z</time>
      </trkpt>
      <trkpt lat="44.63441" lon="7.08718">
        <ele>2461.4</ele>
        <time>2026-09-01T08:55:26Z</time>
      </trkpt>
      <trkpt lat="44.63441" lon="7.08718">
        <ele>2461.4</ele>
        <time>2026-09-01T08:55:31Z</time>
      </trkpt>
      <trkpt lat="44.63436" lon="7.08731">
        <ele>2465.3</ele>
        <time>2026-09-01T08:55:37Z</time>
      </trkpt>
      <trkpt lat="44.63436" lon="7.08731">
        <ele>2465.3</ele>
        <time>2026-09-01T08:55:42Z</time>
      </trkpt>
      <trkpt lat="44.63433" lon="7.08738">
        <ele>2467.4</ele>
        <time>2026-09-01T08:55:47Z</time>
      </trkpt>
      <trkpt lat="44.63432" lon="7.08741">
        <ele>2468.3</ele>
        <time>2026-09-01T08:55:53Z</time>
      </trkpt>
      <trkpt lat="44.6343" lon="7.08744">
        <ele>2469.1</ele>
        <time>2026-09-01T08:55:58Z</time>
      </trkpt>
      <trkpt lat="44.63429" lon="7.08747">
        <ele>2470.1</ele>
        <time>2026-09-01T08:56:03Z</time>
      </trkpt>
      <trkpt lat="44.63427" lon="7.08749">
        <ele>2470.5</ele>
        <time>2026-09-01T08:56:09Z</time>
      </trkpt>
      <trkpt lat="44.63427" lon="7.08749">
        <ele>2470.5</ele>
        <time>2026-09-01T08:56:14Z</time>
      </trkpt>
      <trkpt lat="44.63427" lon="7.08749">
        <ele>2470.5</ele>
        <time>2026-09-01T08:56:19Z</time>
      </trkpt>
      <trkpt lat="44.63427" lon="7.08749">
        <ele>2470.5</ele>
        <time>2026-09-01T08:56:25Z</time>
      </trkpt>
      <trkpt lat="44.63427" lon="7.08749">
        <ele>2470.5</ele>
        <time>2026-09-01T08:56:30Z</time>
      </trkpt>
      <trkpt lat="44.63427" lon="7.08749">
        <ele>2470.5</ele>
        <time>2026-09-01T08:56:35Z</time>
      </trkpt>
      <trkpt lat="44.63427" lon="7.08749">
        <ele>2470.5</ele>
        <time>2026-09-01T08:56:41Z</time>
      </trkpt>
      <trkpt lat="44.63427" lon="7.08749">
        <ele>2470.5</ele>
        <time>2026-09-01T08:56:46Z</time>
      </trkpt>
      <trkpt lat="44.63427" lon="7.08749">
        <ele>2470.5</ele>
        <time>2026-09-01T08:56:51Z</time>
      </trkpt>
      <trkpt lat="44.63427" lon="7.08749">
        <ele>2470.5</ele>
        <time>2026-09-01T08:56:57Z</time>
      </trkpt>
      <trkpt lat="44.63427" lon="7.08749">
        <ele>2470.5</ele>
        <time>2026-09-01T08:57:02Z</time>
      </trkpt>
      <trkpt lat="44.63427" lon="7.08749">
        <ele>2470.5</ele>
        <time>2026-09-01T08:57:07Z</time>
      </trkpt>
      <trkpt lat="44.63425" lon="7.08763">
        <ele>2475.8</ele>
        <time>2026-09-01T08:57:13Z</time>
      </trkpt>
      <trkpt lat="44.63425" lon="7.08763">
        <ele>2475.8</ele>
        <time>2026-09-01T08:57:18Z</time>
      </trkpt>
      <trkpt lat="44.63425" lon="7.08763">
        <ele>2475.8</ele>
        <time>2026-09-01T08:57:23Z</time>
      </trkpt>
      <trkpt lat="44.63425" lon="7.08763">
        <ele>2475.8</ele>
        <time>2026-09-01T08:57:29Z</time>
      </trkpt>
      <trkpt lat="44.63425" lon="7.08763">
        <ele>2475.8</ele>
        <time>2026-09-01T08:57:34Z</time>
      </trkpt>
      <trkpt lat="44.63425" lon="7.08763">
        <ele>2475.8</ele>
        <time>2026-09-01T08:57:39Z</time>
      </trkpt>
      <trkpt lat="44.63425" lon="7.08763">
        <ele>2475.8</ele>
        <time>2026-09-01T08:57:45Z</time>
      </trkpt>
      <trkpt lat="44.63425" lon="7.08763">
        <ele>2475.8</ele>
        <time>2026-09-01T08:57:50Z</time>
      </trkpt>
      <trkpt lat="44.63425" lon="7.08763">
        <ele>2475.8</ele>
        <time>2026-09-01T08:57:55Z</time>
      </trkpt>
      <trkpt lat="44.63425" lon="7.08763">
        <ele>2475.8</ele>
        <time>2026-09-01T08:58:01Z</time>
      </trkpt>
      <trkpt lat="44.63425" lon="7.08763">
        <ele>2475.8</ele>
        <time>2026-09-01T08:58:06Z</time>
      </trkpt>
      <trkpt lat="44.63421" lon="7.08776">
        <ele>2480.6</ele>
        <time>2026-09-01T08:58:11Z</time>
      </trkpt>
      <trkpt lat="44.63422" lon="7.08777">
        <ele>2481.1</ele>
        <time>2026-09-01T08:58:17Z</time>
      </trkpt>
      <trkpt lat="44.63422" lon="7.08777">
        <ele>2481.1</ele>
        <time>2026-09-01T08:58:22Z</time>
      </trkpt>
      <trkpt lat="44.63422" lon="7.08777">
        <ele>2481.1</ele>
        <time>2026-09-01T08:58:27Z</time>
      </trkpt>
      <trkpt lat="44.63422" lon="7.08777">
        <ele>2481.1</ele>
        <time>2026-09-01T08:58:33Z</time>
      </trkpt>
      <trkpt lat="44.63421" lon="7.08791">
        <ele>2486.8</ele>
        <time>2026-09-01T08:58:38Z</time>
      </trkpt>
      <trkpt lat="44.63421" lon="7.08791">
        <ele>2486.8</ele>
        <time>2026-09-01T08:58:43Z</time>
      </trkpt>
      <trkpt lat="44.63421" lon="7.08791">
        <ele>2486.8</ele>
        <time>2026-09-01T08:58:49Z</time>
      </trkpt>
      <trkpt lat="44.63414" lon="7.08798">
        <ele>2489</ele>
        <time>2026-09-01T08:58:54Z</time>
      </trkpt>
      <trkpt lat="44.63414" lon="7.08799">
        <ele>2489.5</ele>
        <time>2026-09-01T08:58:59Z</time>
      </trkpt>
      <trkpt lat="44.63414" lon="7.08799">
        <ele>2489.5</ele>
        <time>2026-09-01T08:59:05Z</time>
      </trkpt>
      <trkpt lat="44.6341" lon="7.08807">
        <ele>2492.6</ele>
        <time>2026-09-01T08:59:10Z</time>
      </trkpt>
      <trkpt lat="44.63409" lon="7.08806">
        <ele>2492.1</ele>
        <time>2026-09-01T08:59:15Z</time>
      </trkpt>
      <trkpt lat="44.63409" lon="7.08806">
        <ele>2492.1</ele>
        <time>2026-09-01T08:59:21Z</time>
      </trkpt>
      <trkpt lat="44.63409" lon="7.08806">
        <ele>2492.1</ele>
        <time>2026-09-01T08:59:26Z</time>
      </trkpt>
      <trkpt lat="44.63409" lon="7.08806">
        <ele>2492.1</ele>
        <time>2026-09-01T08:59:31Z</time>
      </trkpt>
      <trkpt lat="44.63409" lon="7.08806">
        <ele>2492.1</ele>
        <time>2026-09-01T08:59:37Z</time>
      </trkpt>
      <trkpt lat="44.63409" lon="7.08806">
        <ele>2492.1</ele>
        <time>2026-09-01T08:59:42Z</time>
      </trkpt>
      <trkpt lat="44.63409" lon="7.08806">
        <ele>2492.1</ele>
        <time>2026-09-01T08:59:47Z</time>
      </trkpt>
      <trkpt lat="44.63409" lon="7.08806">
        <ele>2492.1</ele>
        <time>2026-09-01T08:59:53Z</time>
      </trkpt>
      <trkpt lat="44.63409" lon="7.08806">
        <ele>2492.1</ele>
        <time>2026-09-01T08:59:58Z</time>
      </trkpt>
      <trkpt lat="44.63409" lon="7.08806">
        <ele>2492.1</ele>
        <time>2026-09-01T09:00:03Z</time>
      </trkpt>
      <trkpt lat="44.63409" lon="7.08806">
        <ele>2492.1</ele>
        <time>2026-09-01T09:00:09Z</time>
      </trkpt>
      <trkpt lat="44.63409" lon="7.08806">
        <ele>2492.1</ele>
        <time>2026-09-01T09:00:14Z</time>
      </trkpt>
      <trkpt lat="44.63409" lon="7.08806">
        <ele>2492.1</ele>
        <time>2026-09-01T09:00:19Z</time>
      </trkpt>
      <trkpt lat="44.63409" lon="7.08806">
        <ele>2492.1</ele>
        <time>2026-09-01T09:00:25Z</time>
      </trkpt>
      <trkpt lat="44.63409" lon="7.08806">
        <ele>2492.1</ele>
        <time>2026-09-01T09:00:30Z</time>
      </trkpt>
      <trkpt lat="44.63408" lon="7.08818">
        <ele>2496.9</ele>
        <time>2026-09-01T09:00:35Z</time>
      </trkpt>
      <trkpt lat="44.63408" lon="7.08819">
        <ele>2497.3</ele>
        <time>2026-09-01T09:00:41Z</time>
      </trkpt>
      <trkpt lat="44.63411" lon="7.0882">
        <ele>2498</ele>
        <time>2026-09-01T09:00:46Z</time>
      </trkpt>
      <trkpt lat="44.63411" lon="7.08821">
        <ele>2498.4</ele>
        <time>2026-09-01T09:00:51Z</time>
      </trkpt>
      <trkpt lat="44.63411" lon="7.08821">
        <ele>2498.4</ele>
        <time>2026-09-01T09:00:57Z</time>
      </trkpt>
      <trkpt lat="44.63419" lon="7.08819">
        <ele>2498.2</ele>
        <time>2026-09-01T09:01:02Z</time>
      </trkpt>
      <trkpt lat="44.6342" lon="7.0882">
        <ele>2498.7</ele>
        <time>2026-09-01T09:01:07Z</time>
      </trkpt>
      <trkpt lat="44.63419" lon="7.08821">
        <ele>2499</ele>
        <time>2026-09-01T09:01:13Z</time>
      </trkpt>
      <trkpt lat="44.63419" lon="7.08821">
        <ele>2499</ele>
        <time>2026-09-01T09:01:18Z</time>
      </trkpt>
      <trkpt lat="44.63419" lon="7.08821">
        <ele>2499</ele>
        <time>2026-09-01T09:01:23Z</time>
      </trkpt>
      <trkpt lat="44.63419" lon="7.08821">
        <ele>2499</ele>
        <time>2026-09-01T09:01:29Z</time>
      </trkpt>
      <trkpt lat="44.63419" lon="7.08821">
        <ele>2499</ele>
        <time>2026-09-01T09:01:34Z</time>
      </trkpt>
      <trkpt lat="44.63414" lon="7.08833">
        <ele>2503.6</ele>
        <time>2026-09-01T09:01:39Z</time>
      </trkpt>
      <trkpt lat="44.63414" lon="7.08833">
        <ele>2503.6</ele>
        <time>2026-09-01T09:01:45Z</time>
      </trkpt>
      <trkpt lat="44.63414" lon="7.08833">
        <ele>2503.6</ele>
        <time>2026-09-01T09:01:50Z</time>
      </trkpt>
      <trkpt lat="44.63414" lon="7.08833">
        <ele>2503.6</ele>
        <time>2026-09-01T09:01:55Z</time>
      </trkpt>
      <trkpt lat="44.63414" lon="7.08833">
        <ele>2503.6</ele>
        <time>2026-09-01T09:02:01Z</time>
      </trkpt>
      <trkpt lat="44.63414" lon="7.08833">
        <ele>2503.6</ele>
        <time>2026-09-01T09:02:06Z</time>
      </trkpt>
      <trkpt lat="44.63414" lon="7.08833">
        <ele>2503.6</ele>
        <time>2026-09-01T09:02:11Z</time>
      </trkpt>
      <trkpt lat="44.63414" lon="7.08833">
        <ele>2503.6</ele>
        <time>2026-09-01T09:02:17Z</time>
      </trkpt>
      <trkpt lat="44.63413" lon="7.08846">
        <ele>2506.5</ele>
        <time>2026-09-01T09:02:22Z</time>
      </trkpt>
      <trkpt lat="44.63415" lon="7.0885">
        <ele>2507.5</ele>
        <time>2026-09-01T09:02:27Z</time>
      </trkpt>
      <trkpt lat="44.63414" lon="7.08851">
        <ele>2507.6</ele>
        <time>2026-09-01T09:02:33Z</time>
      </trkpt>
      <trkpt lat="44.63414" lon="7.08851">
        <ele>2507.6</ele>
        <time>2026-09-01T09:02:38Z</time>
      </trkpt>
      <trkpt lat="44.63414" lon="7.08851">
        <ele>2507.6</ele>
        <time>2026-09-01T09:02:43Z</time>
      </trkpt>
      <trkpt lat="44.63414" lon="7.08851">
        <ele>2507.6</ele>
        <time>2026-09-01T09:02:49Z</time>
      </trkpt>
      <trkpt lat="44.63414" lon="7.08851">
        <ele>2507.6</ele>
        <time>2026-09-01T09:02:54Z</time>
      </trkpt>
      <trkpt lat="44.63414" lon="7.08851">
        <ele>2507.6</ele>
        <time>2026-09-01T09:02:59Z</time>
      </trkpt>
      <trkpt lat="44.63414" lon="7.08851">
        <ele>2507.6</ele>
        <time>2026-09-01T09:03:05Z</time>
      </trkpt>
      <trkpt lat="44.63414" lon="7.08851">
        <ele>2507.6</ele>
        <time>2026-09-01T09:03:10Z</time>
      </trkpt>
      <trkpt lat="44.63414" lon="7.08851">
        <ele>2507.6</ele>
        <time>2026-09-01T09:03:15Z</time>
      </trkpt>
      <trkpt lat="44.63414" lon="7.08851">
        <ele>2507.6</ele>
        <time>2026-09-01T09:03:21Z</time>
      </trkpt>
      <trkpt lat="44.63414" lon="7.08851">
        <ele>2507.6</ele>
        <time>2026-09-01T09:03:26Z</time>
      </trkpt>
      <trkpt lat="44.63414" lon="7.08851">
        <ele>2507.6</ele>
        <time>2026-09-01T09:03:31Z</time>
      </trkpt>
      <trkpt lat="44.63414" lon="7.08851">
        <ele>2507.6</ele>
        <time>2026-09-01T09:03:37Z</time>
      </trkpt>
      <trkpt lat="44.63414" lon="7.08851">
        <ele>2507.6</ele>
        <time>2026-09-01T09:03:42Z</time>
      </trkpt>
      <trkpt lat="44.63414" lon="7.08851">
        <ele>2507.6</ele>
        <time>2026-09-01T09:03:47Z</time>
      </trkpt>
      <trkpt lat="44.63414" lon="7.08851">
        <ele>2507.6</ele>
        <time>2026-09-01T09:03:53Z</time>
      </trkpt>
      <trkpt lat="44.63414" lon="7.08851">
        <ele>2507.6</ele>
        <time>2026-09-01T09:03:58Z</time>
      </trkpt>
      <trkpt lat="44.63417" lon="7.08866">
        <ele>2511.1</ele>
        <time>2026-09-01T09:04:03Z</time>
      </trkpt>
      <trkpt lat="44.63421" lon="7.08868">
        <ele>2511.6</ele>
        <time>2026-09-01T09:04:09Z</time>
      </trkpt>
      <trkpt lat="44.63424" lon="7.0887">
        <ele>2512.1</ele>
        <time>2026-09-01T09:04:14Z</time>
      </trkpt>
      <trkpt lat="44.63425" lon="7.08871">
        <ele>2512.3</ele>
        <time>2026-09-01T09:04:19Z</time>
      </trkpt>
      <trkpt lat="44.63425" lon="7.08871">
        <ele>2512.3</ele>
        <time>2026-09-01T09:04:25Z</time>
      </trkpt>
      <trkpt lat="44.63425" lon="7.08871">
        <ele>2512.3</ele>
        <time>2026-09-01T09:04:30Z</time>
      </trkpt>
      <trkpt lat="44.63425" lon="7.08871">
        <ele>2512.3</ele>
        <time>2026-09-01T09:04:35Z</time>
      </trkpt>
      <trkpt lat="44.63425" lon="7.08871">
        <ele>2512.3</ele>
        <time>2026-09-01T09:04:41Z</time>
      </trkpt>
      <trkpt lat="44.63425" lon="7.08871">
        <ele>2512.3</ele>
        <time>2026-09-01T09:04:46Z</time>
      </trkpt>
      <trkpt lat="44.63425" lon="7.08871">
        <ele>2512.3</ele>
        <time>2026-09-01T09:04:51Z</time>
      </trkpt>
      <trkpt lat="44.63429" lon="7.08874">
        <ele>2513</ele>
        <time>2026-09-01T09:04:57Z</time>
      </trkpt>
      <trkpt lat="44.6343" lon="7.08878">
        <ele>2513.8</ele>
        <time>2026-09-01T09:05:02Z</time>
      </trkpt>
      <trkpt lat="44.63431" lon="7.08881">
        <ele>2514.4</ele>
        <time>2026-09-01T09:05:07Z</time>
      </trkpt>
      <trkpt lat="44.63434" lon="7.08886">
        <ele>2515.4</ele>
        <time>2026-09-01T09:05:13Z</time>
      </trkpt>
      <trkpt lat="44.63436" lon="7.08889">
        <ele>2515.9</ele>
        <time>2026-09-01T09:05:18Z</time>
      </trkpt>
      <trkpt lat="44.63439" lon="7.08894">
        <ele>2516.8</ele>
        <time>2026-09-01T09:05:23Z</time>
      </trkpt>
      <trkpt lat="44.63443" lon="7.08897">
        <ele>2517.3</ele>
        <time>2026-09-01T09:05:29Z</time>
      </trkpt>
      <trkpt lat="44.63445" lon="7.08902">
        <ele>2518.1</ele>
        <time>2026-09-01T09:05:34Z</time>
      </trkpt>
      <trkpt lat="44.63449" lon="7.08904">
        <ele>2518.4</ele>
        <time>2026-09-01T09:05:39Z</time>
      </trkpt>
      <trkpt lat="44.63452" lon="7.08908">
        <ele>2518.9</ele>
        <time>2026-09-01T09:05:45Z</time>
      </trkpt>
      <trkpt lat="44.63453" lon="7.08908">
        <ele>2518.9</ele>
        <time>2026-09-01T09:05:50Z</time>
      </trkpt>
      <trkpt lat="44.63453" lon="7.08908">
        <ele>2518.9</ele>
        <time>2026-09-01T09:05:55Z</time>
      </trkpt>
      <trkpt lat="44.63453" lon="7.08908">
        <ele>2518.9</ele>
        <time>2026-09-01T09:06:01Z</time>
      </trkpt>
      <trkpt lat="44.63453" lon="7.08908">
        <ele>2518.9</ele>
        <time>2026-09-01T09:06:06Z</time>
      </trkpt>
      <trkpt lat="44.63453" lon="7.08908">
        <ele>2518.9</ele>
        <time>2026-09-01T09:06:11Z</time>
      </trkpt>
      <trkpt lat="44.63453" lon="7.08908">
        <ele>2518.9</ele>
        <time>2026-09-01T09:06:17Z</time>
      </trkpt>
      <trkpt lat="44.63453" lon="7.08908">
        <ele>2518.9</ele>
        <time>2026-09-01T09:06:22Z</time>
      </trkpt>
      <trkpt lat="44.63455" lon="7.08922">
        <ele>2521</ele>
        <time>2026-09-01T09:06:27Z</time>
      </trkpt>
      <trkpt lat="44.63455" lon="7.08923">
        <ele>2521.2</ele>
        <time>2026-09-01T09:06:33Z</time>
      </trkpt>
      <trkpt lat="44.63455" lon="7.08929">
        <ele>2522.1</ele>
        <time>2026-09-01T09:06:38Z</time>
      </trkpt>
      <trkpt lat="44.63454" lon="7.0893">
        <ele>2522.4</ele>
        <time>2026-09-01T09:06:43Z</time>
      </trkpt>
      <trkpt lat="44.63454" lon="7.0893">
        <ele>2522.4</ele>
        <time>2026-09-01T09:06:49Z</time>
      </trkpt>
      <trkpt lat="44.63454" lon="7.0893">
        <ele>2522.4</ele>
        <time>2026-09-01T09:06:54Z</time>
      </trkpt>
      <trkpt lat="44.63454" lon="7.0893">
        <ele>2522.4</ele>
        <time>2026-09-01T09:06:59Z</time>
      </trkpt>
      <trkpt lat="44.63454" lon="7.0893">
        <ele>2522.4</ele>
        <time>2026-09-01T09:07:05Z</time>
      </trkpt>
      <trkpt lat="44.63461" lon="7.08938">
        <ele>2523.1</ele>
        <time>2026-09-01T09:07:10Z</time>
      </trkpt>
      <trkpt lat="44.63462" lon="7.08938">
        <ele>2523</ele>
        <time>2026-09-01T09:07:15Z</time>
      </trkpt>
      <trkpt lat="44.63462" lon="7.08938">
        <ele>2523</ele>
        <time>2026-09-01T09:07:21Z</time>
      </trkpt>
      <trkpt lat="44.63465" lon="7.08941">
        <ele>2523.2</ele>
        <time>2026-09-01T09:07:26Z</time>
      </trkpt>
      <trkpt lat="44.63466" lon="7.08942">
        <ele>2523.3</ele>
        <time>2026-09-01T09:07:31Z</time>
      </trkpt>
      <trkpt lat="44.63466" lon="7.08944">
        <ele>2523.6</ele>
        <time>2026-09-01T09:07:37Z</time>
      </trkpt>
      <trkpt lat="44.63466" lon="7.08944">
        <ele>2523.6</ele>
        <time>2026-09-01T09:07:42Z</time>
      </trkpt>
      <trkpt lat="44.63466" lon="7.08944">
        <ele>2523.6</ele>
        <time>2026-09-01T09:07:47Z</time>
      </trkpt>
      <trkpt lat="44.63466" lon="7.08944">
        <ele>2523.6</ele>
        <time>2026-09-01T09:07:53Z</time>
      </trkpt>
      <trkpt lat="44.63473" lon="7.08954">
        <ele>2524.3</ele>
        <time>2026-09-01T09:07:58Z</time>
      </trkpt>
      <trkpt lat="44.63474" lon="7.08958">
        <ele>2524.8</ele>
        <time>2026-09-01T09:08:03Z</time>
      </trkpt>
      <trkpt lat="44.63474" lon="7.08959">
        <ele>2524.9</ele>
        <time>2026-09-01T09:08:09Z</time>
      </trkpt>
      <trkpt lat="44.63476" lon="7.08959">
        <ele>2524.7</ele>
        <time>2026-09-01T09:08:14Z</time>
      </trkpt>
      <trkpt lat="44.63476" lon="7.08959">
        <ele>2524.7</ele>
        <time>2026-09-01T09:08:19Z</time>
      </trkpt>
      <trkpt lat="44.63476" lon="7.08959">
        <ele>2524.7</ele>
        <time>2026-09-01T09:08:25Z</time>
      </trkpt>
      <trkpt lat="44.63476" lon="7.08959">
        <ele>2524.7</ele>
        <time>2026-09-01T09:08:30Z</time>
      </trkpt>
      <trkpt lat="44.63476" lon="7.08959">
        <ele>2524.7</ele>
        <time>2026-09-01T09:08:35Z</time>
      </trkpt>
      <trkpt lat="44.63476" lon="7.08959">
        <ele>2524.7</ele>
        <time>2026-09-01T09:08:41Z</time>
      </trkpt>
      <trkpt lat="44.63482" lon="7.0897">
        <ele>2525.4</ele>
        <time>2026-09-01T09:08:46Z</time>
      </trkpt>
      <trkpt lat="44.63482" lon="7.0897">
        <ele>2525.4</ele>
        <time>2026-09-01T09:08:51Z</time>
      </trkpt>
      <trkpt lat="44.63482" lon="7.0897">
        <ele>2525.4</ele>
        <time>2026-09-01T09:08:57Z</time>
      </trkpt>
      <trkpt lat="44.63482" lon="7.0897">
        <ele>2525.4</ele>
        <time>2026-09-01T09:09:02Z</time>
      </trkpt>
      <trkpt lat="44.63482" lon="7.0897">
        <ele>2525.4</ele>
        <time>2026-09-01T09:09:07Z</time>
      </trkpt>
      <trkpt lat="44.63482" lon="7.0897">
        <ele>2525.4</ele>
        <time>2026-09-01T09:09:13Z</time>
      </trkpt>
      <trkpt lat="44.63482" lon="7.0897">
        <ele>2525.4</ele>
        <time>2026-09-01T09:09:18Z</time>
      </trkpt>
      <trkpt lat="44.63489" lon="7.08975">
        <ele>2525.1</ele>
        <time>2026-09-01T09:09:23Z</time>
      </trkpt>
      <trkpt lat="44.6349" lon="7.08979">
        <ele>2525.4</ele>
        <time>2026-09-01T09:09:29Z</time>
      </trkpt>
      <trkpt lat="44.63493" lon="7.08983">
        <ele>2525.4</ele>
        <time>2026-09-01T09:09:34Z</time>
      </trkpt>
      <trkpt lat="44.63494" lon="7.08986">
        <ele>2525.5</ele>
        <time>2026-09-01T09:09:39Z</time>
      </trkpt>
      <trkpt lat="44.63497" lon="7.0899">
        <ele>2525.5</ele>
        <time>2026-09-01T09:09:45Z</time>
      </trkpt>
      <trkpt lat="44.63497" lon="7.08992">
        <ele>2525.7</ele>
        <time>2026-09-01T09:09:50Z</time>
      </trkpt>
      <trkpt lat="44.63497" lon="7.08995">
        <ele>2526</ele>
        <time>2026-09-01T09:09:55Z</time>
      </trkpt>
      <trkpt lat="44.63497" lon="7.08995">
        <ele>2526</ele>
        <time>2026-09-01T09:10:01Z</time>
      </trkpt>
      <trkpt lat="44.635" lon="7.08995">
        <ele>2525.5</ele>
        <time>2026-09-01T09:10:06Z</time>
      </trkpt>
      <trkpt lat="44.635" lon="7.08995">
        <ele>2525.5</ele>
        <time>2026-09-01T09:10:11Z</time>
      </trkpt>
      <trkpt lat="44.635" lon="7.08995">
        <ele>2525.5</ele>
        <time>2026-09-01T09:10:17Z</time>
      </trkpt>
      <trkpt lat="44.63502" lon="7.0901">
        <ele>2527.1</ele>
        <time>2026-09-01T09:10:22Z</time>
      </trkpt>
      <trkpt lat="44.63502" lon="7.09013">
        <ele>2527.3</ele>
        <time>2026-09-01T09:10:27Z</time>
      </trkpt>
      <trkpt lat="44.63503" lon="7.09016">
        <ele>2527.8</ele>
        <time>2026-09-01T09:10:33Z</time>
      </trkpt>
      <trkpt lat="44.63503" lon="7.09016">
        <ele>2527.8</ele>
        <time>2026-09-01T09:10:38Z</time>
      </trkpt>
      <trkpt lat="44.63503" lon="7.09016">
        <ele>2527.8</ele>
        <time>2026-09-01T09:10:43Z</time>
      </trkpt>
      <trkpt lat="44.63503" lon="7.09016">
        <ele>2527.8</ele>
        <time>2026-09-01T09:10:49Z</time>
      </trkpt>
      <trkpt lat="44.63503" lon="7.09016">
        <ele>2527.8</ele>
        <time>2026-09-01T09:10:54Z</time>
      </trkpt>
      <trkpt lat="44.63503" lon="7.09016">
        <ele>2527.8</ele>
        <time>2026-09-01T09:10:59Z</time>
      </trkpt>
      <trkpt lat="44.63503" lon="7.09016">
        <ele>2527.8</ele>
        <time>2026-09-01T09:11:05Z</time>
      </trkpt>
      <trkpt lat="44.63503" lon="7.09016">
        <ele>2527.8</ele>
        <time>2026-09-01T09:11:10Z</time>
      </trkpt>
      <trkpt lat="44.63503" lon="7.09016">
        <ele>2527.8</ele>
        <time>2026-09-01T09:11:15Z</time>
      </trkpt>
      <trkpt lat="44.63503" lon="7.09016">
        <ele>2527.8</ele>
        <time>2026-09-01T09:11:21Z</time>
      </trkpt>
      <trkpt lat="44.63503" lon="7.09016">
        <ele>2527.8</ele>
        <time>2026-09-01T09:11:26Z</time>
      </trkpt>
      <trkpt lat="44.63507" lon="7.09018">
        <ele>2528.7</ele>
        <time>2026-09-01T09:11:31Z</time>
      </trkpt>
      <trkpt lat="44.63509" lon="7.09014">
        <ele>2528.8</ele>
        <time>2026-09-01T09:11:37Z</time>
      </trkpt>
      <trkpt lat="44.63511" lon="7.09012">
        <ele>2529.1</ele>
        <time>2026-09-01T09:11:42Z</time>
      </trkpt>
      <trkpt lat="44.63515" lon="7.09013">
        <ele>2529.9</ele>
        <time>2026-09-01T09:11:47Z</time>
      </trkpt>
      <trkpt lat="44.63519" lon="7.09014">
        <ele>2530.8</ele>
        <time>2026-09-01T09:11:53Z</time>
      </trkpt>
      <trkpt lat="44.63519" lon="7.09014">
        <ele>2530.8</ele>
        <time>2026-09-01T09:11:58Z</time>
      </trkpt>
      <trkpt lat="44.63519" lon="7.09014">
        <ele>2530.8</ele>
        <time>2026-09-01T09:12:03Z</time>
      </trkpt>
      <trkpt lat="44.63519" lon="7.09014">
        <ele>2530.8</ele>
        <time>2026-09-01T09:12:09Z</time>
      </trkpt>
      <trkpt lat="44.63519" lon="7.09014">
        <ele>2530.8</ele>
        <time>2026-09-01T09:12:14Z</time>
      </trkpt>
      <trkpt lat="44.63519" lon="7.09014">
        <ele>2530.8</ele>
        <time>2026-09-01T09:12:19Z</time>
      </trkpt>
      <trkpt lat="44.63519" lon="7.09014">
        <ele>2530.8</ele>
        <time>2026-09-01T09:12:25Z</time>
      </trkpt>
      <trkpt lat="44.63519" lon="7.09014">
        <ele>2530.8</ele>
        <time>2026-09-01T09:12:30Z</time>
      </trkpt>
      <trkpt lat="44.63519" lon="7.09014">
        <ele>2530.8</ele>
        <time>2026-09-01T09:12:35Z</time>
      </trkpt>
      <trkpt lat="44.63519" lon="7.09014">
        <ele>2530.8</ele>
        <time>2026-09-01T09:12:41Z</time>
      </trkpt>
      <trkpt lat="44.63519" lon="7.09014">
        <ele>2530.8</ele>
        <time>2026-09-01T09:12:46Z</time>
      </trkpt>
      <trkpt lat="44.63519" lon="7.09014">
        <ele>2530.8</ele>
        <time>2026-09-01T09:12:51Z</time>
      </trkpt>
      <trkpt lat="44.63519" lon="7.09014">
        <ele>2530.8</ele>
        <time>2026-09-01T09:12:57Z</time>
      </trkpt>
      <trkpt lat="44.63519" lon="7.09014">
        <ele>2530.8</ele>
        <time>2026-09-01T09:13:02Z</time>
      </trkpt>
      <trkpt lat="44.63519" lon="7.0903">
        <ele>2531.9</ele>
        <time>2026-09-01T09:13:07Z</time>
      </trkpt>
      <trkpt lat="44.63521" lon="7.09039">
        <ele>2532.9</ele>
        <time>2026-09-01T09:13:13Z</time>
      </trkpt>
      <trkpt lat="44.63527" lon="7.09042">
        <ele>2534.2</ele>
        <time>2026-09-01T09:13:18Z</time>
      </trkpt>
      <trkpt lat="44.63527" lon="7.09042">
        <ele>2534.2</ele>
        <time>2026-09-01T09:13:23Z</time>
      </trkpt>
      <trkpt lat="44.63527" lon="7.09042">
        <ele>2534.2</ele>
        <time>2026-09-01T09:13:29Z</time>
      </trkpt>
      <trkpt lat="44.63527" lon="7.09042">
        <ele>2534.2</ele>
        <time>2026-09-01T09:13:34Z</time>
      </trkpt>
      <trkpt lat="44.63527" lon="7.09042">
        <ele>2534.2</ele>
        <time>2026-09-01T09:13:39Z</time>
      </trkpt>
      <trkpt lat="44.63528" lon="7.09057">
        <ele>2535.4</ele>
        <time>2026-09-01T09:13:45Z</time>
      </trkpt>
      <trkpt lat="44.63528" lon="7.09057">
        <ele>2535.4</ele>
        <time>2026-09-01T09:13:50Z</time>
      </trkpt>
      <trkpt lat="44.63528" lon="7.09057">
        <ele>2535.4</ele>
        <time>2026-09-01T09:13:55Z</time>
      </trkpt>
      <trkpt lat="44.63528" lon="7.09057">
        <ele>2535.4</ele>
        <time>2026-09-01T09:14:01Z</time>
      </trkpt>
      <trkpt lat="44.63528" lon="7.09057">
        <ele>2535.4</ele>
        <time>2026-09-01T09:14:06Z</time>
      </trkpt>
      <trkpt lat="44.63532" lon="7.09068">
        <ele>2536.8</ele>
        <time>2026-09-01T09:14:11Z</time>
      </trkpt>
      <trkpt lat="44.63533" lon="7.09068">
        <ele>2537</ele>
        <time>2026-09-01T09:14:17Z</time>
      </trkpt>
      <trkpt lat="44.63533" lon="7.09068">
        <ele>2537</ele>
        <time>2026-09-01T09:14:22Z</time>
      </trkpt>
      <trkpt lat="44.63533" lon="7.09068">
        <ele>2537</ele>
        <time>2026-09-01T09:14:27Z</time>
      </trkpt>
      <trkpt lat="44.63536" lon="7.09073">
        <ele>2537.8</ele>
        <time>2026-09-01T09:14:33Z</time>
      </trkpt>
      <trkpt lat="44.63535" lon="7.09076">
        <ele>2537.8</ele>
        <time>2026-09-01T09:14:38Z</time>
      </trkpt>
      <trkpt lat="44.63537" lon="7.09078">
        <ele>2538.3</ele>
        <time>2026-09-01T09:14:43Z</time>
      </trkpt>
      <trkpt lat="44.6354" lon="7.09084">
        <ele>2539.3</ele>
        <time>2026-09-01T09:14:49Z</time>
      </trkpt>
      <trkpt lat="44.63539" lon="7.09086">
        <ele>2539.4</ele>
        <time>2026-09-01T09:14:54Z</time>
      </trkpt>
      <trkpt lat="44.63538" lon="7.0909">
        <ele>2539.9</ele>
        <time>2026-09-01T09:14:59Z</time>
      </trkpt>
      <trkpt lat="44.63535" lon="7.09096">
        <ele>2540.3</ele>
        <time>2026-09-01T09:15:05Z</time>
      </trkpt>
      <trkpt lat="44.63534" lon="7.09102">
        <ele>2541.1</ele>
        <time>2026-09-01T09:15:10Z</time>
      </trkpt>
      <trkpt lat="44.63534" lon="7.09108">
        <ele>2542.1</ele>
        <time>2026-09-01T09:15:15Z</time>
      </trkpt>
      <trkpt lat="44.63534" lon="7.09113">
        <ele>2542.9</ele>
        <time>2026-09-01T09:15:21Z</time>
      </trkpt>
      <trkpt lat="44.63537" lon="7.09118">
        <ele>2544.1</ele>
        <time>2026-09-01T09:15:26Z</time>
      </trkpt>
      <trkpt lat="44.63539" lon="7.09121">
        <ele>2544.8</ele>
        <time>2026-09-01T09:15:31Z</time>
      </trkpt>
      <trkpt lat="44.63539" lon="7.09126">
        <ele>2545.6</ele>
        <time>2026-09-01T09:15:37Z</time>
      </trkpt>
      <trkpt lat="44.63536" lon="7.09127">
        <ele>2545.4</ele>
        <time>2026-09-01T09:15:42Z</time>
      </trkpt>
      <trkpt lat="44.63537" lon="7.09131">
        <ele>2546.1</ele>
        <time>2026-09-01T09:15:47Z</time>
      </trkpt>
      <trkpt lat="44.63541" lon="7.09135">
        <ele>2547.2</ele>
        <time>2026-09-01T09:15:53Z</time>
      </trkpt>
      <trkpt lat="44.6354" lon="7.09139">
        <ele>2547.7</ele>
        <time>2026-09-01T09:15:58Z</time>
      </trkpt>
      <trkpt lat="44.6354" lon="7.09143">
        <ele>2548.3</ele>
        <time>2026-09-01T09:16:03Z</time>
      </trkpt>
      <trkpt lat="44.63539" lon="7.09147">
        <ele>2548.8</ele>
        <time>2026-09-01T09:16:09Z</time>
      </trkpt>
      <trkpt lat="44.63539" lon="7.09147">
        <ele>2548.8</ele>
        <time>2026-09-01T09:16:14Z</time>
      </trkpt>
      <trkpt lat="44.63538" lon="7.09147">
        <ele>2548.7</ele>
        <time>2026-09-01T09:16:19Z</time>
      </trkpt>
      <trkpt lat="44.63538" lon="7.09147">
        <ele>2548.7</ele>
        <time>2026-09-01T09:16:25Z</time>
      </trkpt>
      <trkpt lat="44.63538" lon="7.09147">
        <ele>2548.7</ele>
        <time>2026-09-01T09:16:30Z</time>
      </trkpt>
      <trkpt lat="44.63538" lon="7.09147">
        <ele>2548.7</ele>
        <time>2026-09-01T09:16:35Z</time>
      </trkpt>
      <trkpt lat="44.63538" lon="7.09147">
        <ele>2548.7</ele>
        <time>2026-09-01T09:16:41Z</time>
      </trkpt>
      <trkpt lat="44.63538" lon="7.09147">
        <ele>2548.7</ele>
        <time>2026-09-01T09:16:46Z</time>
      </trkpt>
      <trkpt lat="44.63538" lon="7.09147">
        <ele>2548.7</ele>
        <time>2026-09-01T09:16:51Z</time>
      </trkpt>
      <trkpt lat="44.63535" lon="7.0915">
        <ele>2548.9</ele>
        <time>2026-09-01T09:16:57Z</time>
      </trkpt>
      <trkpt lat="44.63535" lon="7.09156">
        <ele>2549.8</ele>
        <time>2026-09-01T09:17:02Z</time>
      </trkpt>
      <trkpt lat="44.63541" lon="7.09163">
        <ele>2551.4</ele>
        <time>2026-09-01T09:17:07Z</time>
      </trkpt>
      <trkpt lat="44.63545" lon="7.09167">
        <ele>2552.3</ele>
        <time>2026-09-01T09:17:13Z</time>
      </trkpt>
      <trkpt lat="44.63549" lon="7.09169">
        <ele>2553.1</ele>
        <time>2026-09-01T09:17:18Z</time>
      </trkpt>
      <trkpt lat="44.63549" lon="7.09169">
        <ele>2553.1</ele>
        <time>2026-09-01T09:17:23Z</time>
      </trkpt>
      <trkpt lat="44.63549" lon="7.09169">
        <ele>2553.1</ele>
        <time>2026-09-01T09:17:29Z</time>
      </trkpt>
      <trkpt lat="44.63549" lon="7.09169">
        <ele>2553.1</ele>
        <time>2026-09-01T09:17:34Z</time>
      </trkpt>
      <trkpt lat="44.63549" lon="7.09169">
        <ele>2553.1</ele>
        <time>2026-09-01T09:17:39Z</time>
      </trkpt>
      <trkpt lat="44.63549" lon="7.09169">
        <ele>2553.1</ele>
        <time>2026-09-01T09:17:45Z</time>
      </trkpt>
      <trkpt lat="44.63549" lon="7.09169">
        <ele>2553.1</ele>
        <time>2026-09-01T09:17:50Z</time>
      </trkpt>
      <trkpt lat="44.63549" lon="7.09169">
        <ele>2553.1</ele>
        <time>2026-09-01T09:17:55Z</time>
      </trkpt>
      <trkpt lat="44.63549" lon="7.09169">
        <ele>2553.1</ele>
        <time>2026-09-01T09:18:01Z</time>
      </trkpt>
      <trkpt lat="44.63549" lon="7.09169">
        <ele>2553.1</ele>
        <time>2026-09-01T09:18:06Z</time>
      </trkpt>
      <trkpt lat="44.63549" lon="7.0917">
        <ele>2553.3</ele>
        <time>2026-09-01T09:18:11Z</time>
      </trkpt>
      <trkpt lat="44.63555" lon="7.09174">
        <ele>2554.6</ele>
        <time>2026-09-01T09:18:17Z</time>
      </trkpt>
      <trkpt lat="44.63555" lon="7.0918">
        <ele>2556</ele>
        <time>2026-09-01T09:18:22Z</time>
      </trkpt>
      <trkpt lat="44.63557" lon="7.09184">
        <ele>2557</ele>
        <time>2026-09-01T09:18:27Z</time>
      </trkpt>
      <trkpt lat="44.63559" lon="7.09186">
        <ele>2557.6</ele>
        <time>2026-09-01T09:18:33Z</time>
      </trkpt>
      <trkpt lat="44.6356" lon="7.09189">
        <ele>2558.3</ele>
        <time>2026-09-01T09:18:38Z</time>
      </trkpt>
      <trkpt lat="44.6356" lon="7.09189">
        <ele>2558.3</ele>
        <time>2026-09-01T09:18:43Z</time>
      </trkpt>
      <trkpt lat="44.63566" lon="7.09192">
        <ele>2559.2</ele>
        <time>2026-09-01T09:18:49Z</time>
      </trkpt>
      <trkpt lat="44.63567" lon="7.09195">
        <ele>2559.9</ele>
        <time>2026-09-01T09:18:54Z</time>
      </trkpt>
      <trkpt lat="44.63567" lon="7.09198">
        <ele>2560.5</ele>
        <time>2026-09-01T09:18:59Z</time>
      </trkpt>
      <trkpt lat="44.63567" lon="7.09198">
        <ele>2560.5</ele>
        <time>2026-09-01T09:19:05Z</time>
      </trkpt>
      <trkpt lat="44.63567" lon="7.09198">
        <ele>2560.5</ele>
        <time>2026-09-01T09:19:10Z</time>
      </trkpt>
      <trkpt lat="44.63567" lon="7.09198">
        <ele>2560.5</ele>
        <time>2026-09-01T09:19:15Z</time>
      </trkpt>
      <trkpt lat="44.63567" lon="7.09198">
        <ele>2560.5</ele>
        <time>2026-09-01T09:19:21Z</time>
      </trkpt>
      <trkpt lat="44.63567" lon="7.09198">
        <ele>2560.5</ele>
        <time>2026-09-01T09:19:26Z</time>
      </trkpt>
      <trkpt lat="44.63558" lon="7.09209">
        <ele>2562.7</ele>
        <time>2026-09-01T09:19:31Z</time>
      </trkpt>
      <trkpt lat="44.63558" lon="7.09209">
        <ele>2562.7</ele>
        <time>2026-09-01T09:19:37Z</time>
      </trkpt>
      <trkpt lat="44.63558" lon="7.09209">
        <ele>2562.7</ele>
        <time>2026-09-01T09:19:42Z</time>
      </trkpt>
      <trkpt lat="44.63558" lon="7.09209">
        <ele>2562.7</ele>
        <time>2026-09-01T09:19:47Z</time>
      </trkpt>
      <trkpt lat="44.63558" lon="7.09209">
        <ele>2562.7</ele>
        <time>2026-09-01T09:19:53Z</time>
      </trkpt>
      <trkpt lat="44.63558" lon="7.09209">
        <ele>2562.7</ele>
        <time>2026-09-01T09:19:58Z</time>
      </trkpt>
      <trkpt lat="44.63558" lon="7.09209">
        <ele>2562.7</ele>
        <time>2026-09-01T09:20:03Z</time>
      </trkpt>
      <trkpt lat="44.63558" lon="7.09209">
        <ele>2562.7</ele>
        <time>2026-09-01T09:20:09Z</time>
      </trkpt>
      <trkpt lat="44.63561" lon="7.09216">
        <ele>2564.3</ele>
        <time>2026-09-01T09:20:14Z</time>
      </trkpt>
      <trkpt lat="44.63561" lon="7.09218">
        <ele>2564.7</ele>
        <time>2026-09-01T09:20:19Z</time>
      </trkpt>
      <trkpt lat="44.63561" lon="7.09218">
        <ele>2564.7</ele>
        <time>2026-09-01T09:20:25Z</time>
      </trkpt>
      <trkpt lat="44.63561" lon="7.09218">
        <ele>2564.7</ele>
        <time>2026-09-01T09:20:30Z</time>
      </trkpt>
      <trkpt lat="44.63561" lon="7.09218">
        <ele>2564.7</ele>
        <time>2026-09-01T09:20:35Z</time>
      </trkpt>
      <trkpt lat="44.63561" lon="7.09218">
        <ele>2564.7</ele>
        <time>2026-09-01T09:20:41Z</time>
      </trkpt>
      <trkpt lat="44.63561" lon="7.09218">
        <ele>2564.7</ele>
        <time>2026-09-01T09:20:46Z</time>
      </trkpt>
      <trkpt lat="44.63561" lon="7.09218">
        <ele>2564.7</ele>
        <time>2026-09-01T09:20:51Z</time>
      </trkpt>
      <trkpt lat="44.63561" lon="7.09218">
        <ele>2564.7</ele>
        <time>2026-09-01T09:20:57Z</time>
      </trkpt>
      <trkpt lat="44.63561" lon="7.09218">
        <ele>2564.7</ele>
        <time>2026-09-01T09:21:02Z</time>
      </trkpt>
      <trkpt lat="44.63561" lon="7.09218">
        <ele>2564.7</ele>
        <time>2026-09-01T09:21:07Z</time>
      </trkpt>
      <trkpt lat="44.63564" lon="7.09228">
        <ele>2566.9</ele>
        <time>2026-09-01T09:21:13Z</time>
      </trkpt>
      <trkpt lat="44.63563" lon="7.09232">
        <ele>2567.8</ele>
        <time>2026-09-01T09:21:18Z</time>
      </trkpt>
      <trkpt lat="44.63563" lon="7.09236">
        <ele>2568.7</ele>
        <time>2026-09-01T09:21:23Z</time>
      </trkpt>
      <trkpt lat="44.63564" lon="7.09238">
        <ele>2569.1</ele>
        <time>2026-09-01T09:21:29Z</time>
      </trkpt>
      <trkpt lat="44.63566" lon="7.09238">
        <ele>2569.1</ele>
        <time>2026-09-01T09:21:34Z</time>
      </trkpt>
      <trkpt lat="44.63566" lon="7.09243">
        <ele>2570.1</ele>
        <time>2026-09-01T09:21:39Z</time>
      </trkpt>
      <trkpt lat="44.63568" lon="7.09245">
        <ele>2570.5</ele>
        <time>2026-09-01T09:21:45Z</time>
      </trkpt>
      <trkpt lat="44.63568" lon="7.09245">
        <ele>2570.5</ele>
        <time>2026-09-01T09:21:50Z</time>
      </trkpt>
      <trkpt lat="44.63568" lon="7.09245">
        <ele>2570.5</ele>
        <time>2026-09-01T09:21:55Z</time>
      </trkpt>
      <trkpt lat="44.63568" lon="7.09245">
        <ele>2570.5</ele>
        <time>2026-09-01T09:22:01Z</time>
      </trkpt>
      <trkpt lat="44.63569" lon="7.09248">
        <ele>2571.1</ele>
        <time>2026-09-01T09:22:06Z</time>
      </trkpt>
      <trkpt lat="44.6357" lon="7.09248">
        <ele>2571.1</ele>
        <time>2026-09-01T09:22:11Z</time>
      </trkpt>
      <trkpt lat="44.6357" lon="7.09248">
        <ele>2571.1</ele>
        <time>2026-09-01T09:22:17Z</time>
      </trkpt>
      <trkpt lat="44.63566" lon="7.09256">
        <ele>2573.6</ele>
        <time>2026-09-01T09:22:22Z</time>
      </trkpt>
      <trkpt lat="44.63567" lon="7.09262">
        <ele>2575.6</ele>
        <time>2026-09-01T09:22:27Z</time>
      </trkpt>
      <trkpt lat="44.63567" lon="7.0927">
        <ele>2578.3</ele>
        <time>2026-09-01T09:22:33Z</time>
      </trkpt>
      <trkpt lat="44.6357" lon="7.09277">
        <ele>2580.4</ele>
        <time>2026-09-01T09:22:38Z</time>
      </trkpt>
      <trkpt lat="44.6357" lon="7.09279">
        <ele>2581.1</ele>
        <time>2026-09-01T09:22:43Z</time>
      </trkpt>
      <trkpt lat="44.63568" lon="7.09286">
        <ele>2583.5</ele>
        <time>2026-09-01T09:22:49Z</time>
      </trkpt>
      <trkpt lat="44.63567" lon="7.09291">
        <ele>2585.3</ele>
        <time>2026-09-01T09:22:54Z</time>
      </trkpt>
      <trkpt lat="44.63566" lon="7.09295">
        <ele>2586.7</ele>
        <time>2026-09-01T09:22:59Z</time>
      </trkpt>
      <trkpt lat="44.63566" lon="7.093">
        <ele>2588.3</ele>
        <time>2026-09-01T09:23:05Z</time>
      </trkpt>
      <trkpt lat="44.63566" lon="7.09303">
        <ele>2589.3</ele>
        <time>2026-09-01T09:23:10Z</time>
      </trkpt>
      <trkpt lat="44.63566" lon="7.09308">
        <ele>2591</ele>
        <time>2026-09-01T09:23:15Z</time>
      </trkpt>
      <trkpt lat="44.63564" lon="7.09313">
        <ele>2592.8</ele>
        <time>2026-09-01T09:23:21Z</time>
      </trkpt>
      <trkpt lat="44.63563" lon="7.09318">
        <ele>2594.6</ele>
        <time>2026-09-01T09:23:26Z</time>
      </trkpt>
      <trkpt lat="44.63559" lon="7.09321">
        <ele>2595.9</ele>
        <time>2026-09-01T09:23:31Z</time>
      </trkpt>
      <trkpt lat="44.63551" lon="7.09326">
        <ele>2598.2</ele>
        <time>2026-09-01T09:23:37Z</time>
      </trkpt>
      <trkpt lat="44.63547" lon="7.09337">
        <ele>2601.9</ele>
        <time>2026-09-01T09:23:42Z</time>
      </trkpt>
      <trkpt lat="44.63547" lon="7.09345">
        <ele>2603.8</ele>
        <time>2026-09-01T09:23:47Z</time>
      </trkpt>
      <trkpt lat="44.63555" lon="7.09345">
        <ele>2603.1</ele>
        <time>2026-09-01T09:23:53Z</time>
      </trkpt>
      <trkpt lat="44.63557" lon="7.09347">
        <ele>2603.4</ele>
        <time>2026-09-01T09:23:58Z</time>
      </trkpt>
      <trkpt lat="44.63558" lon="7.09351">
        <ele>2604.2</ele>
        <time>2026-09-01T09:24:03Z</time>
      </trkpt>
      <trkpt lat="44.63561" lon="7.09354">
        <ele>2604.7</ele>
        <time>2026-09-01T09:24:09Z</time>
      </trkpt>
      <trkpt lat="44.63561" lon="7.09356">
        <ele>2605.1</ele>
        <time>2026-09-01T09:24:14Z</time>
      </trkpt>
      <trkpt lat="44.63561" lon="7.09357">
        <ele>2605.3</ele>
        <time>2026-09-01T09:24:19Z</time>
      </trkpt>
      <trkpt lat="44.63561" lon="7.09357">
        <ele>2605.3</ele>
        <time>2026-09-01T09:24:25Z</time>
      </trkpt>
      <trkpt lat="44.63561" lon="7.09357">
        <ele>2605.3</ele>
        <time>2026-09-01T09:24:30Z</time>
      </trkpt>
      <trkpt lat="44.63561" lon="7.09357">
        <ele>2605.3</ele>
        <time>2026-09-01T09:24:35Z</time>
      </trkpt>
      <trkpt lat="44.63561" lon="7.09357">
        <ele>2605.3</ele>
        <time>2026-09-01T09:24:41Z</time>
      </trkpt>
      <trkpt lat="44.63561" lon="7.09357">
        <ele>2605.3</ele>
        <time>2026-09-01T09:24:46Z</time>
      </trkpt>
      <trkpt lat="44.63569" lon="7.09343">
        <ele>2601.4</ele>
        <time>2026-09-01T09:24:51Z</time>
      </trkpt>
      <trkpt lat="44.63569" lon="7.09343">
        <ele>2601.4</ele>
        <time>2026-09-01T09:24:57Z</time>
      </trkpt>
      <trkpt lat="44.63569" lon="7.09343">
        <ele>2601.4</ele>
        <time>2026-09-01T09:25:02Z</time>
      </trkpt>
      <trkpt lat="44.63569" lon="7.09343">
        <ele>2601.4</ele>
        <time>2026-09-01T09:25:07Z</time>
      </trkpt>
      <trkpt lat="44.63569" lon="7.09343">
        <ele>2601.4</ele>
        <time>2026-09-01T09:25:13Z</time>
      </trkpt>
      <trkpt lat="44.63569" lon="7.09343">
        <ele>2601.4</ele>
        <time>2026-09-01T09:25:18Z</time>
      </trkpt>
      <trkpt lat="44.63569" lon="7.09343">
        <ele>2601.4</ele>
        <time>2026-09-01T09:25:23Z</time>
      </trkpt>
      <trkpt lat="44.63569" lon="7.09343">
        <ele>2601.4</ele>
        <time>2026-09-01T09:25:29Z</time>
      </trkpt>
      <trkpt lat="44.63569" lon="7.09343">
        <ele>2601.4</ele>
        <time>2026-09-01T09:25:34Z</time>
      </trkpt>
      <trkpt lat="44.63569" lon="7.09343">
        <ele>2601.4</ele>
        <time>2026-09-01T09:25:39Z</time>
      </trkpt>
      <trkpt lat="44.63569" lon="7.09343">
        <ele>2601.4</ele>
        <time>2026-09-01T09:25:45Z</time>
      </trkpt>
      <trkpt lat="44.63573" lon="7.09348">
        <ele>2602.2</ele>
        <time>2026-09-01T09:25:50Z</time>
      </trkpt>
      <trkpt lat="44.63577" lon="7.09351">
        <ele>2602.6</ele>
        <time>2026-09-01T09:25:55Z</time>
      </trkpt>
      <trkpt lat="44.63582" lon="7.09352">
        <ele>2602.4</ele>
        <time>2026-09-01T09:26:01Z</time>
      </trkpt>
      <trkpt lat="44.63585" lon="7.09351">
        <ele>2602.2</ele>
        <time>2026-09-01T09:26:06Z</time>
      </trkpt>
      <trkpt lat="44.63588" lon="7.09348">
        <ele>2601.9</ele>
        <time>2026-09-01T09:26:11Z</time>
      </trkpt>
      <trkpt lat="44.63588" lon="7.09348">
        <ele>2601.9</ele>
        <time>2026-09-01T09:26:17Z</time>
      </trkpt>
      <trkpt lat="44.63591" lon="7.09352">
        <ele>2603.2</ele>
        <time>2026-09-01T09:26:22Z</time>
      </trkpt>
      <trkpt lat="44.63595" lon="7.09349">
        <ele>2602.9</ele>
        <time>2026-09-01T09:26:27Z</time>
      </trkpt>
      <trkpt lat="44.63604" lon="7.09343">
        <ele>2602.6</ele>
        <time>2026-09-01T09:26:33Z</time>
      </trkpt>
      <trkpt lat="44.63602" lon="7.0935">
        <ele>2604</ele>
        <time>2026-09-01T09:26:38Z</time>
      </trkpt>
      <trkpt lat="44.63597" lon="7.09358">
        <ele>2605.3</ele>
        <time>2026-09-01T09:26:43Z</time>
      </trkpt>
      <trkpt lat="44.63592" lon="7.09365">
        <ele>2606.3</ele>
        <time>2026-09-01T09:26:49Z</time>
      </trkpt>
      <trkpt lat="44.63592" lon="7.09365">
        <ele>2606.3</ele>
        <time>2026-09-01T09:26:54Z</time>
      </trkpt>
      <trkpt lat="44.63591" lon="7.09366">
        <ele>2606.4</ele>
        <time>2026-09-01T09:26:59Z</time>
      </trkpt>
      <trkpt lat="44.63591" lon="7.09366">
        <ele>2606.4</ele>
        <time>2026-09-01T09:27:05Z</time>
      </trkpt>
      <trkpt lat="44.63591" lon="7.09366">
        <ele>2606.4</ele>
        <time>2026-09-01T09:27:10Z</time>
      </trkpt>
      <trkpt lat="44.63591" lon="7.09366">
        <ele>2606.4</ele>
        <time>2026-09-01T09:27:15Z</time>
      </trkpt>
      <trkpt lat="44.63591" lon="7.09366">
        <ele>2606.4</ele>
        <time>2026-09-01T09:27:21Z</time>
      </trkpt>
      <trkpt lat="44.63591" lon="7.09366">
        <ele>2606.4</ele>
        <time>2026-09-01T09:27:26Z</time>
      </trkpt>
      <trkpt lat="44.63591" lon="7.09366">
        <ele>2606.4</ele>
        <time>2026-09-01T09:27:31Z</time>
      </trkpt>
      <trkpt lat="44.63593" lon="7.0938">
        <ele>2609.9</ele>
        <time>2026-09-01T09:27:37Z</time>
      </trkpt>
      <trkpt lat="44.63593" lon="7.0938">
        <ele>2609.9</ele>
        <time>2026-09-01T09:27:42Z</time>
      </trkpt>
      <trkpt lat="44.63593" lon="7.0938">
        <ele>2609.9</ele>
        <time>2026-09-01T09:27:47Z</time>
      </trkpt>
      <trkpt lat="44.63601" lon="7.09374">
        <ele>2609.6</ele>
        <time>2026-09-01T09:27:53Z</time>
      </trkpt>
      <trkpt lat="44.63601" lon="7.09374">
        <ele>2609.6</ele>
        <time>2026-09-01T09:27:58Z</time>
      </trkpt>
      <trkpt lat="44.63601" lon="7.09374">
        <ele>2609.6</ele>
        <time>2026-09-01T09:28:03Z</time>
      </trkpt>
      <trkpt lat="44.63601" lon="7.09374">
        <ele>2609.6</ele>
        <time>2026-09-01T09:28:09Z</time>
      </trkpt>
      <trkpt lat="44.63601" lon="7.09374">
        <ele>2609.6</ele>
        <time>2026-09-01T09:28:14Z</time>
      </trkpt>
      <trkpt lat="44.63601" lon="7.09374">
        <ele>2609.6</ele>
        <time>2026-09-01T09:28:19Z</time>
      </trkpt>
      <trkpt lat="44.63601" lon="7.09374">
        <ele>2609.6</ele>
        <time>2026-09-01T09:28:25Z</time>
      </trkpt>
      <trkpt lat="44.63601" lon="7.09374">
        <ele>2609.6</ele>
        <time>2026-09-01T09:28:30Z</time>
      </trkpt>
      <trkpt lat="44.63601" lon="7.09374">
        <ele>2609.6</ele>
        <time>2026-09-01T09:28:35Z</time>
      </trkpt>
      <trkpt lat="44.63601" lon="7.09374">
        <ele>2609.6</ele>
        <time>2026-09-01T09:28:41Z</time>
      </trkpt>
      <trkpt lat="44.63601" lon="7.09374">
        <ele>2609.6</ele>
        <time>2026-09-01T09:28:46Z</time>
      </trkpt>
      <trkpt lat="44.63601" lon="7.09374">
        <ele>2609.6</ele>
        <time>2026-09-01T09:28:51Z</time>
      </trkpt>
      <trkpt lat="44.63601" lon="7.09374">
        <ele>2609.6</ele>
        <time>2026-09-01T09:28:57Z</time>
      </trkpt>
      <trkpt lat="44.63601" lon="7.09374">
        <ele>2609.6</ele>
        <time>2026-09-01T09:29:02Z</time>
      </trkpt>
      <trkpt lat="44.63601" lon="7.09374">
        <ele>2609.6</ele>
        <time>2026-09-01T09:29:07Z</time>
      </trkpt>
      <trkpt lat="44.63601" lon="7.09374">
        <ele>2609.6</ele>
        <time>2026-09-01T09:29:13Z</time>
      </trkpt>
      <trkpt lat="44.63601" lon="7.09374">
        <ele>2609.6</ele>
        <time>2026-09-01T09:29:18Z</time>
      </trkpt>
      <trkpt lat="44.63601" lon="7.09374">
        <ele>2609.6</ele>
        <time>2026-09-01T09:29:23Z</time>
      </trkpt>
      <trkpt lat="44.63601" lon="7.09374">
        <ele>2609.6</ele>
        <time>2026-09-01T09:29:29Z</time>
      </trkpt>
      <trkpt lat="44.63601" lon="7.09374">
        <ele>2609.6</ele>
        <time>2026-09-01T09:29:34Z</time>
      </trkpt>
      <trkpt lat="44.63601" lon="7.09374">
        <ele>2609.6</ele>
        <time>2026-09-01T09:29:39Z</time>
      </trkpt>
      <trkpt lat="44.63601" lon="7.09374">
        <ele>2609.6</ele>
        <time>2026-09-01T09:29:45Z</time>
      </trkpt>
      <trkpt lat="44.63601" lon="7.09374">
        <ele>2609.6</ele>
        <time>2026-09-01T09:29:50Z</time>
      </trkpt>
      <trkpt lat="44.63601" lon="7.09374">
        <ele>2609.6</ele>
        <time>2026-09-01T09:29:55Z</time>
      </trkpt>
      <trkpt lat="44.63601" lon="7.09374">
        <ele>2609.6</ele>
        <time>2026-09-01T09:30:01Z</time>
      </trkpt>
      <trkpt lat="44.63601" lon="7.09374">
        <ele>2609.6</ele>
        <time>2026-09-01T09:30:06Z</time>
      </trkpt>
      <trkpt lat="44.63601" lon="7.09374">
        <ele>2609.6</ele>
        <time>2026-09-01T09:30:11Z</time>
      </trkpt>
      <trkpt lat="44.63605" lon="7.0936">
        <ele>2606.8</ele>
        <time>2026-09-01T09:30:17Z</time>
      </trkpt>
      <trkpt lat="44.63609" lon="7.09358">
        <ele>2606.8</ele>
        <time>2026-09-01T09:30:22Z</time>
      </trkpt>
      <trkpt lat="44.63612" lon="7.09357">
        <ele>2606.9</ele>
        <time>2026-09-01T09:30:27Z</time>
      </trkpt>
      <trkpt lat="44.63615" lon="7.09356">
        <ele>2607</ele>
        <time>2026-09-01T09:30:33Z</time>
      </trkpt>
      <trkpt lat="44.63615" lon="7.09362">
        <ele>2608.5</ele>
        <time>2026-09-01T09:30:38Z</time>
      </trkpt>
      <trkpt lat="44.63613" lon="7.09371">
        <ele>2610.4</ele>
        <time>2026-09-01T09:30:43Z</time>
      </trkpt>
      <trkpt lat="44.63613" lon="7.09378">
        <ele>2612.2</ele>
        <time>2026-09-01T09:30:49Z</time>
      </trkpt>
      <trkpt lat="44.63612" lon="7.09384">
        <ele>2613.5</ele>
        <time>2026-09-01T09:30:54Z</time>
      </trkpt>
      <trkpt lat="44.63609" lon="7.09386">
        <ele>2613.6</ele>
        <time>2026-09-01T09:30:59Z</time>
      </trkpt>
      <trkpt lat="44.63604" lon="7.09392">
        <ele>2614.3</ele>
        <time>2026-09-01T09:31:05Z</time>
      </trkpt>
      <trkpt lat="44.63606" lon="7.09391">
        <ele>2614.3</ele>
        <time>2026-09-01T09:31:10Z</time>
      </trkpt>
      <trkpt lat="44.63612" lon="7.09386">
        <ele>2614</ele>
        <time>2026-09-01T09:31:15Z</time>
      </trkpt>
      <trkpt lat="44.63616" lon="7.09374">
        <ele>2611.6</ele>
        <time>2026-09-01T09:31:21Z</time>
      </trkpt>
      <trkpt lat="44.6362" lon="7.09367">
        <ele>2610.3</ele>
        <time>2026-09-01T09:31:26Z</time>
      </trkpt>
      <trkpt lat="44.6362" lon="7.09361">
        <ele>2608.9</ele>
        <time>2026-09-01T09:31:31Z</time>
      </trkpt>
      <trkpt lat="44.63624" lon="7.09356">
        <ele>2608.1</ele>
        <time>2026-09-01T09:31:37Z</time>
      </trkpt>
      <trkpt lat="44.63622" lon="7.09363">
        <ele>2609.6</ele>
        <time>2026-09-01T09:31:42Z</time>
      </trkpt>
      <trkpt lat="44.63616" lon="7.09376">
        <ele>2612.1</ele>
        <time>2026-09-01T09:31:47Z</time>
      </trkpt>
      <trkpt lat="44.63612" lon="7.09388">
        <ele>2614.5</ele>
        <time>2026-09-01T09:31:53Z</time>
      </trkpt>
      <trkpt lat="44.63611" lon="7.09392">
        <ele>2615.3</ele>
        <time>2026-09-01T09:31:58Z</time>
      </trkpt>
      <trkpt lat="44.63614" lon="7.09396">
        <ele>2616.7</ele>
        <time>2026-09-01T09:32:03Z</time>
      </trkpt>
      <trkpt lat="44.63619" lon="7.09394">
        <ele>2616.9</ele>
        <time>2026-09-01T09:32:09Z</time>
      </trkpt>
      <trkpt lat="44.6362" lon="7.09394">
        <ele>2617.1</ele>
        <time>2026-09-01T09:32:14Z</time>
      </trkpt>
      <trkpt lat="44.6362" lon="7.09394">
        <ele>2617.1</ele>
        <time>2026-09-01T09:32:19Z</time>
      </trkpt>
      <trkpt lat="44.6362" lon="7.09394">
        <ele>2617.1</ele>
        <time>2026-09-01T09:32:25Z</time>
      </trkpt>
      <trkpt lat="44.6362" lon="7.09394">
        <ele>2617.1</ele>
        <time>2026-09-01T09:32:30Z</time>
      </trkpt>
      <trkpt lat="44.6362" lon="7.09394">
        <ele>2617.1</ele>
        <time>2026-09-01T09:32:35Z</time>
      </trkpt>
      <trkpt lat="44.6362" lon="7.09394">
        <ele>2617.1</ele>
        <time>2026-09-01T09:32:41Z</time>
      </trkpt>
      <trkpt lat="44.6362" lon="7.09394">
        <ele>2617.1</ele>
        <time>2026-09-01T09:32:46Z</time>
      </trkpt>
      <trkpt lat="44.63628" lon="7.094">
        <ele>2619.7</ele>
        <time>2026-09-01T09:32:51Z</time>
      </trkpt>
      <trkpt lat="44.63628" lon="7.09401">
        <ele>2620</ele>
        <time>2026-09-01T09:32:57Z</time>
      </trkpt>
      <trkpt lat="44.63628" lon="7.09401">
        <ele>2620</ele>
        <time>2026-09-01T09:33:02Z</time>
      </trkpt>
      <trkpt lat="44.63628" lon="7.09401">
        <ele>2620</ele>
        <time>2026-09-01T09:33:07Z</time>
      </trkpt>
      <trkpt lat="44.63633" lon="7.09388">
        <ele>2617.4</ele>
        <time>2026-09-01T09:33:13Z</time>
      </trkpt>
      <trkpt lat="44.63635" lon="7.09384">
        <ele>2616.6</ele>
        <time>2026-09-01T09:33:18Z</time>
      </trkpt>
      <trkpt lat="44.63635" lon="7.09382">
        <ele>2616.1</ele>
        <time>2026-09-01T09:33:23Z</time>
      </trkpt>
      <trkpt lat="44.63636" lon="7.09381">
        <ele>2616</ele>
        <time>2026-09-01T09:33:29Z</time>
      </trkpt>
      <trkpt lat="44.63636" lon="7.09381">
        <ele>2616</ele>
        <time>2026-09-01T09:33:34Z</time>
      </trkpt>
      <trkpt lat="44.63638" lon="7.09386">
        <ele>2617.6</ele>
        <time>2026-09-01T09:33:39Z</time>
      </trkpt>
      <trkpt lat="44.63638" lon="7.0939">
        <ele>2618.6</ele>
        <time>2026-09-01T09:33:45Z</time>
      </trkpt>
      <trkpt lat="44.63638" lon="7.0939">
        <ele>2618.6</ele>
        <time>2026-09-01T09:33:50Z</time>
      </trkpt>
      <trkpt lat="44.63638" lon="7.0939">
        <ele>2618.6</ele>
        <time>2026-09-01T09:33:55Z</time>
      </trkpt>
      <trkpt lat="44.63638" lon="7.0939">
        <ele>2618.6</ele>
        <time>2026-09-01T09:34:01Z</time>
      </trkpt>
      <trkpt lat="44.63638" lon="7.0939">
        <ele>2618.6</ele>
        <time>2026-09-01T09:34:06Z</time>
      </trkpt>
      <trkpt lat="44.63638" lon="7.0939">
        <ele>2618.6</ele>
        <time>2026-09-01T09:34:11Z</time>
      </trkpt>
      <trkpt lat="44.63638" lon="7.0939">
        <ele>2618.6</ele>
        <time>2026-09-01T09:34:17Z</time>
      </trkpt>
      <trkpt lat="44.63638" lon="7.0939">
        <ele>2618.6</ele>
        <time>2026-09-01T09:34:22Z</time>
      </trkpt>
      <trkpt lat="44.63638" lon="7.0939">
        <ele>2618.6</ele>
        <time>2026-09-01T09:34:27Z</time>
      </trkpt>
      <trkpt lat="44.63638" lon="7.0939">
        <ele>2618.6</ele>
        <time>2026-09-01T09:34:33Z</time>
      </trkpt>
      <trkpt lat="44.63638" lon="7.0939">
        <ele>2618.6</ele>
        <time>2026-09-01T09:34:38Z</time>
      </trkpt>
      <trkpt lat="44.63638" lon="7.0939">
        <ele>2618.6</ele>
        <time>2026-09-01T09:34:43Z</time>
      </trkpt>
      <trkpt lat="44.63638" lon="7.0939">
        <ele>2618.6</ele>
        <time>2026-09-01T09:34:49Z</time>
      </trkpt>
      <trkpt lat="44.63647" lon="7.09399">
        <ele>2622.3</ele>
        <time>2026-09-01T09:34:54Z</time>
      </trkpt>
      <trkpt lat="44.63647" lon="7.09399">
        <ele>2622.3</ele>
        <time>2026-09-01T09:34:59Z</time>
      </trkpt>
      <trkpt lat="44.63647" lon="7.09399">
        <ele>2622.3</ele>
        <time>2026-09-01T09:35:05Z</time>
      </trkpt>
      <trkpt lat="44.63637" lon="7.09403">
        <ele>2621.8</ele>
        <time>2026-09-01T09:35:10Z</time>
      </trkpt>
      <trkpt lat="44.63637" lon="7.09409">
        <ele>2623.4</ele>
        <time>2026-09-01T09:35:15Z</time>
      </trkpt>
      <trkpt lat="44.63636" lon="7.09413">
        <ele>2624.3</ele>
        <time>2026-09-01T09:35:21Z</time>
      </trkpt>
      <trkpt lat="44.63637" lon="7.09414">
        <ele>2624.7</ele>
        <time>2026-09-01T09:35:26Z</time>
      </trkpt>
      <trkpt lat="44.63637" lon="7.09414">
        <ele>2624.7</ele>
        <time>2026-09-01T09:35:31Z</time>
      </trkpt>
      <trkpt lat="44.63637" lon="7.09414">
        <ele>2624.7</ele>
        <time>2026-09-01T09:35:37Z</time>
      </trkpt>
      <trkpt lat="44.63637" lon="7.09414">
        <ele>2624.7</ele>
        <time>2026-09-01T09:35:42Z</time>
      </trkpt>
      <trkpt lat="44.63648" lon="7.0941">
        <ele>2625.3</ele>
        <time>2026-09-01T09:35:47Z</time>
      </trkpt>
      <trkpt lat="44.63648" lon="7.0941">
        <ele>2625.3</ele>
        <time>2026-09-01T09:35:53Z</time>
      </trkpt>
      <trkpt lat="44.63648" lon="7.0941">
        <ele>2625.3</ele>
        <time>2026-09-01T09:35:58Z</time>
      </trkpt>
      <trkpt lat="44.63648" lon="7.0941">
        <ele>2625.3</ele>
        <time>2026-09-01T09:36:03Z</time>
      </trkpt>
      <trkpt lat="44.63648" lon="7.0941">
        <ele>2625.3</ele>
        <time>2026-09-01T09:36:09Z</time>
      </trkpt>
      <trkpt lat="44.63648" lon="7.0941">
        <ele>2625.3</ele>
        <time>2026-09-01T09:36:14Z</time>
      </trkpt>
      <trkpt lat="44.63648" lon="7.0941">
        <ele>2625.3</ele>
        <time>2026-09-01T09:36:19Z</time>
      </trkpt>
      <trkpt lat="44.63648" lon="7.0941">
        <ele>2625.3</ele>
        <time>2026-09-01T09:36:25Z</time>
      </trkpt>
      <trkpt lat="44.63648" lon="7.0941">
        <ele>2625.3</ele>
        <time>2026-09-01T09:36:30Z</time>
      </trkpt>
      <trkpt lat="44.63648" lon="7.0941">
        <ele>2625.3</ele>
        <time>2026-09-01T09:36:35Z</time>
      </trkpt>
      <trkpt lat="44.63648" lon="7.0941">
        <ele>2625.3</ele>
        <time>2026-09-01T09:36:41Z</time>
      </trkpt>
      <trkpt lat="44.63648" lon="7.0941">
        <ele>2625.3</ele>
        <time>2026-09-01T09:36:46Z</time>
      </trkpt>
      <trkpt lat="44.63648" lon="7.0941">
        <ele>2625.3</ele>
        <time>2026-09-01T09:36:51Z</time>
      </trkpt>
      <trkpt lat="44.63648" lon="7.0941">
        <ele>2625.3</ele>
        <time>2026-09-01T09:36:57Z</time>
      </trkpt>
      <trkpt lat="44.63653" lon="7.09421">
        <ele>2629.9</ele>
        <time>2026-09-01T09:37:02Z</time>
      </trkpt>
      <trkpt lat="44.63653" lon="7.09421">
        <ele>2629.9</ele>
        <time>2026-09-01T09:37:07Z</time>
      </trkpt>
      <trkpt lat="44.63653" lon="7.09421">
        <ele>2629.9</ele>
        <time>2026-09-01T09:37:13Z</time>
      </trkpt>
      <trkpt lat="44.63653" lon="7.09421">
        <ele>2629.9</ele>
        <time>2026-09-01T09:37:18Z</time>
      </trkpt>
      <trkpt lat="44.63653" lon="7.09421">
        <ele>2629.9</ele>
        <time>2026-09-01T09:37:23Z</time>
      </trkpt>
      <trkpt lat="44.63653" lon="7.09421">
        <ele>2629.9</ele>
        <time>2026-09-01T09:37:29Z</time>
      </trkpt>
      <trkpt lat="44.63653" lon="7.09421">
        <ele>2629.9</ele>
        <time>2026-09-01T09:37:34Z</time>
      </trkpt>
      <trkpt lat="44.63653" lon="7.09421">
        <ele>2629.9</ele>
        <time>2026-09-01T09:37:39Z</time>
      </trkpt>
      <trkpt lat="44.63653" lon="7.09421">
        <ele>2629.9</ele>
        <time>2026-09-01T09:37:45Z</time>
      </trkpt>
      <trkpt lat="44.63652" lon="7.09435">
        <ele>2636.5</ele>
        <time>2026-09-01T09:37:50Z</time>
      </trkpt>
      <trkpt lat="44.63652" lon="7.09437">
        <ele>2637.5</ele>
        <time>2026-09-01T09:37:55Z</time>
      </trkpt>
      <trkpt lat="44.63652" lon="7.09437">
        <ele>2637.5</ele>
        <time>2026-09-01T09:38:01Z</time>
      </trkpt>
      <trkpt lat="44.63652" lon="7.09437">
        <ele>2637.5</ele>
        <time>2026-09-01T09:38:06Z</time>
      </trkpt>
      <trkpt lat="44.63652" lon="7.09437">
        <ele>2637.5</ele>
        <time>2026-09-01T09:38:11Z</time>
      </trkpt>
      <trkpt lat="44.63652" lon="7.09437">
        <ele>2637.5</ele>
        <time>2026-09-01T09:38:17Z</time>
      </trkpt>
      <trkpt lat="44.63652" lon="7.09437">
        <ele>2637.5</ele>
        <time>2026-09-01T09:38:22Z</time>
      </trkpt>
      <trkpt lat="44.63652" lon="7.09437">
        <ele>2637.5</ele>
        <time>2026-09-01T09:38:27Z</time>
      </trkpt>
      <trkpt lat="44.63652" lon="7.09437">
        <ele>2637.5</ele>
        <time>2026-09-01T09:38:33Z</time>
      </trkpt>
      <trkpt lat="44.63652" lon="7.09437">
        <ele>2637.5</ele>
        <time>2026-09-01T09:38:38Z</time>
      </trkpt>
      <trkpt lat="44.63652" lon="7.09437">
        <ele>2637.5</ele>
        <time>2026-09-01T09:38:43Z</time>
      </trkpt>
      <trkpt lat="44.63652" lon="7.09437">
        <ele>2637.5</ele>
        <time>2026-09-01T09:38:49Z</time>
      </trkpt>
      <trkpt lat="44.63652" lon="7.09437">
        <ele>2637.5</ele>
        <time>2026-09-01T09:38:54Z</time>
      </trkpt>
      <trkpt lat="44.63652" lon="7.09437">
        <ele>2637.5</ele>
        <time>2026-09-01T09:38:59Z</time>
      </trkpt>
      <trkpt lat="44.63652" lon="7.09437">
        <ele>2637.5</ele>
        <time>2026-09-01T09:39:05Z</time>
      </trkpt>
      <trkpt lat="44.63652" lon="7.09437">
        <ele>2637.5</ele>
        <time>2026-09-01T09:39:10Z</time>
      </trkpt>
      <trkpt lat="44.63652" lon="7.09437">
        <ele>2637.5</ele>
        <time>2026-09-01T09:39:15Z</time>
      </trkpt>
      <trkpt lat="44.63652" lon="7.09437">
        <ele>2637.5</ele>
        <time>2026-09-01T09:39:21Z</time>
      </trkpt>
      <trkpt lat="44.63652" lon="7.09437">
        <ele>2637.5</ele>
        <time>2026-09-01T09:39:26Z</time>
      </trkpt>
      <trkpt lat="44.63652" lon="7.09437">
        <ele>2637.5</ele>
        <time>2026-09-01T09:39:31Z</time>
      </trkpt>
      <trkpt lat="44.63652" lon="7.09437">
        <ele>2637.5</ele>
        <time>2026-09-01T09:39:37Z</time>
      </trkpt>
      <trkpt lat="44.63652" lon="7.09437">
        <ele>2637.5</ele>
        <time>2026-09-01T09:39:42Z</time>
      </trkpt>
      <trkpt lat="44.63652" lon="7.09437">
        <ele>2637.5</ele>
        <time>2026-09-01T09:39:47Z</time>
      </trkpt>
      <trkpt lat="44.63652" lon="7.09437">
        <ele>2637.5</ele>
        <time>2026-09-01T09:39:53Z</time>
      </trkpt>
      <trkpt lat="44.63652" lon="7.09437">
        <ele>2637.5</ele>
        <time>2026-09-01T09:39:58Z</time>
      </trkpt>
      <trkpt lat="44.63652" lon="7.09437">
        <ele>2637.5</ele>
        <time>2026-09-01T09:40:03Z</time>
      </trkpt>
      <trkpt lat="44.63652" lon="7.09437">
        <ele>2637.5</ele>
        <time>2026-09-01T09:40:09Z</time>
      </trkpt>
      <trkpt lat="44.63652" lon="7.09453">
        <ele>2645.1</ele>
        <time>2026-09-01T09:40:14Z</time>
      </trkpt>
      <trkpt lat="44.63648" lon="7.09454">
        <ele>2644.9</ele>
        <time>2026-09-01T09:40:19Z</time>
      </trkpt>
      <trkpt lat="44.63648" lon="7.09456">
        <ele>2645.8</ele>
        <time>2026-09-01T09:40:25Z</time>
      </trkpt>
      <trkpt lat="44.63648" lon="7.09456">
        <ele>2645.8</ele>
        <time>2026-09-01T09:40:30Z</time>
      </trkpt>
      <trkpt lat="44.63648" lon="7.09456">
        <ele>2645.8</ele>
        <time>2026-09-01T09:40:35Z</time>
      </trkpt>
      <trkpt lat="44.63648" lon="7.09456">
        <ele>2645.8</ele>
        <time>2026-09-01T09:40:41Z</time>
      </trkpt>
      <trkpt lat="44.63648" lon="7.09456">
        <ele>2645.8</ele>
        <time>2026-09-01T09:40:46Z</time>
      </trkpt>
      <trkpt lat="44.63648" lon="7.09456">
        <ele>2645.8</ele>
        <time>2026-09-01T09:40:51Z</time>
      </trkpt>
      <trkpt lat="44.63648" lon="7.09456">
        <ele>2645.8</ele>
        <time>2026-09-01T09:40:57Z</time>
      </trkpt>
      <trkpt lat="44.63648" lon="7.09456">
        <ele>2645.8</ele>
        <time>2026-09-01T09:41:02Z</time>
      </trkpt>
      <trkpt lat="44.63648" lon="7.09456">
        <ele>2645.8</ele>
        <time>2026-09-01T09:41:07Z</time>
      </trkpt>
      <trkpt lat="44.63659" lon="7.09462">
        <ele>2650.8</ele>
        <time>2026-09-01T09:41:13Z</time>
      </trkpt>
      <trkpt lat="44.63661" lon="7.09462">
        <ele>2651.2</ele>
        <time>2026-09-01T09:41:18Z</time>
      </trkpt>
      <trkpt lat="44.6366" lon="7.09464">
        <ele>2652</ele>
        <time>2026-09-01T09:41:23Z</time>
      </trkpt>
      <trkpt lat="44.63661" lon="7.09465">
        <ele>2652.7</ele>
        <time>2026-09-01T09:41:29Z</time>
      </trkpt>
      <trkpt lat="44.63661" lon="7.09465">
        <ele>2652.7</ele>
        <time>2026-09-01T09:41:34Z</time>
      </trkpt>
      <trkpt lat="44.63661" lon="7.09465">
        <ele>2652.7</ele>
        <time>2026-09-01T09:41:39Z</time>
      </trkpt>
      <trkpt lat="44.63661" lon="7.09465">
        <ele>2652.7</ele>
        <time>2026-09-01T09:41:45Z</time>
      </trkpt>
      <trkpt lat="44.63661" lon="7.09465">
        <ele>2652.7</ele>
        <time>2026-09-01T09:41:50Z</time>
      </trkpt>
      <trkpt lat="44.63661" lon="7.09465">
        <ele>2652.7</ele>
        <time>2026-09-01T09:41:55Z</time>
      </trkpt>
      <trkpt lat="44.63668" lon="7.09475">
        <ele>2659</ele>
        <time>2026-09-01T09:42:01Z</time>
      </trkpt>
      <trkpt lat="44.63671" lon="7.09476">
        <ele>2660.3</ele>
        <time>2026-09-01T09:42:06Z</time>
      </trkpt>
      <trkpt lat="44.63673" lon="7.09478">
        <ele>2661.7</ele>
        <time>2026-09-01T09:42:11Z</time>
      </trkpt>
      <trkpt lat="44.63676" lon="7.0948">
        <ele>2663.4</ele>
        <time>2026-09-01T09:42:17Z</time>
      </trkpt>
      <trkpt lat="44.63679" lon="7.09478">
        <ele>2663.2</ele>
        <time>2026-09-01T09:42:22Z</time>
      </trkpt>
      <trkpt lat="44.63681" lon="7.09479">
        <ele>2664.2</ele>
        <time>2026-09-01T09:42:27Z</time>
      </trkpt>
      <trkpt lat="44.63681" lon="7.09479">
        <ele>2664.2</ele>
        <time>2026-09-01T09:42:33Z</time>
      </trkpt>
      <trkpt lat="44.63681" lon="7.09479">
        <ele>2664.2</ele>
        <time>2026-09-01T09:42:38Z</time>
      </trkpt>
      <trkpt lat="44.63684" lon="7.09485">
        <ele>2667.5</ele>
        <time>2026-09-01T09:42:43Z</time>
      </trkpt>
      <trkpt lat="44.63684" lon="7.09486">
        <ele>2667.9</ele>
        <time>2026-09-01T09:42:49Z</time>
      </trkpt>
      <trkpt lat="44.63684" lon="7.09486">
        <ele>2667.9</ele>
        <time>2026-09-01T09:42:54Z</time>
      </trkpt>
      <trkpt lat="44.63684" lon="7.09486">
        <ele>2667.9</ele>
        <time>2026-09-01T09:42:59Z</time>
      </trkpt>
      <trkpt lat="44.63684" lon="7.09486">
        <ele>2667.9</ele>
        <time>2026-09-01T09:43:05Z</time>
      </trkpt>
      <trkpt lat="44.63684" lon="7.09486">
        <ele>2667.9</ele>
        <time>2026-09-01T09:43:10Z</time>
      </trkpt>
      <trkpt lat="44.63684" lon="7.09486">
        <ele>2667.9</ele>
        <time>2026-09-01T09:43:15Z</time>
      </trkpt>
      <trkpt lat="44.63684" lon="7.09486">
        <ele>2667.9</ele>
        <time>2026-09-01T09:43:21Z</time>
      </trkpt>
      <trkpt lat="44.63684" lon="7.09486">
        <ele>2667.9</ele>
        <time>2026-09-01T09:43:26Z</time>
      </trkpt>
      <trkpt lat="44.63684" lon="7.09486">
        <ele>2667.9</ele>
        <time>2026-09-01T09:43:31Z</time>
      </trkpt>
      <trkpt lat="44.6369" lon="7.09496">
        <ele>2673.3</ele>
        <time>2026-09-01T09:43:37Z</time>
      </trkpt>
      <trkpt lat="44.63693" lon="7.09496">
        <ele>2673.8</ele>
        <time>2026-09-01T09:43:42Z</time>
      </trkpt>
      <trkpt lat="44.63694" lon="7.09498">
        <ele>2674.8</ele>
        <time>2026-09-01T09:43:47Z</time>
      </trkpt>
      <trkpt lat="44.63694" lon="7.09499">
        <ele>2675.2</ele>
        <time>2026-09-01T09:43:53Z</time>
      </trkpt>
      <trkpt lat="44.63694" lon="7.09499">
        <ele>2675.2</ele>
        <time>2026-09-01T09:43:58Z</time>
      </trkpt>
      <trkpt lat="44.63694" lon="7.09499">
        <ele>2675.2</ele>
        <time>2026-09-01T09:44:03Z</time>
      </trkpt>
      <trkpt lat="44.63694" lon="7.09499">
        <ele>2675.2</ele>
        <time>2026-09-01T09:44:09Z</time>
      </trkpt>
      <trkpt lat="44.63694" lon="7.09499">
        <ele>2675.2</ele>
        <time>2026-09-01T09:44:14Z</time>
      </trkpt>
      <trkpt lat="44.63694" lon="7.09499">
        <ele>2675.2</ele>
        <time>2026-09-01T09:44:19Z</time>
      </trkpt>
      <trkpt lat="44.63697" lon="7.09511">
        <ele>2681.6</ele>
        <time>2026-09-01T09:44:25Z</time>
      </trkpt>
      <trkpt lat="44.63698" lon="7.09511">
        <ele>2681.7</ele>
        <time>2026-09-01T09:44:30Z</time>
      </trkpt>
      <trkpt lat="44.63701" lon="7.09512">
        <ele>2682.7</ele>
        <time>2026-09-01T09:44:35Z</time>
      </trkpt>
      <trkpt lat="44.63706" lon="7.09512">
        <ele>2683.5</ele>
        <time>2026-09-01T09:44:41Z</time>
      </trkpt>
      <trkpt lat="44.63709" lon="7.09512">
        <ele>2683.9</ele>
        <time>2026-09-01T09:44:46Z</time>
      </trkpt>
      <trkpt lat="44.63712" lon="7.09511">
        <ele>2683.9</ele>
        <time>2026-09-01T09:44:51Z</time>
      </trkpt>
      <trkpt lat="44.63709" lon="7.09512">
        <ele>2683.9</ele>
        <time>2026-09-01T09:44:57Z</time>
      </trkpt>
      <trkpt lat="44.63709" lon="7.09512">
        <ele>2683.9</ele>
        <time>2026-09-01T09:45:02Z</time>
      </trkpt>
      <trkpt lat="44.63709" lon="7.09523">
        <ele>2689.3</ele>
        <time>2026-09-01T09:45:07Z</time>
      </trkpt>
      <trkpt lat="44.63711" lon="7.09528">
        <ele>2692</ele>
        <time>2026-09-01T09:45:13Z</time>
      </trkpt>
      <trkpt lat="44.63714" lon="7.0953">
        <ele>2693.4</ele>
        <time>2026-09-01T09:45:18Z</time>
      </trkpt>
      <trkpt lat="44.63718" lon="7.09527">
        <ele>2692.5</ele>
        <time>2026-09-01T09:45:23Z</time>
      </trkpt>
      <trkpt lat="44.63723" lon="7.09527">
        <ele>2693.2</ele>
        <time>2026-09-01T09:45:29Z</time>
      </trkpt>
      <trkpt lat="44.63725" lon="7.09527">
        <ele>2693.5</ele>
        <time>2026-09-01T09:45:34Z</time>
      </trkpt>
      <trkpt lat="44.63727" lon="7.09527">
        <ele>2693.7</ele>
        <time>2026-09-01T09:45:39Z</time>
      </trkpt>
      <trkpt lat="44.63729" lon="7.09529">
        <ele>2695</ele>
        <time>2026-09-01T09:45:45Z</time>
      </trkpt>
      <trkpt lat="44.63731" lon="7.0953">
        <ele>2695.7</ele>
        <time>2026-09-01T09:45:50Z</time>
      </trkpt>
      <trkpt lat="44.63731" lon="7.0953">
        <ele>2695.7</ele>
        <time>2026-09-01T09:45:55Z</time>
      </trkpt>
      <trkpt lat="44.63731" lon="7.0953">
        <ele>2695.7</ele>
        <time>2026-09-01T09:46:01Z</time>
      </trkpt>
      <trkpt lat="44.63731" lon="7.0953">
        <ele>2695.7</ele>
        <time>2026-09-01T09:46:06Z</time>
      </trkpt>
      <trkpt lat="44.63742" lon="7.0953">
        <ele>2697.2</ele>
        <time>2026-09-01T09:46:11Z</time>
      </trkpt>
      <trkpt lat="44.63742" lon="7.0953">
        <ele>2697.2</ele>
        <time>2026-09-01T09:46:17Z</time>
      </trkpt>
      <trkpt lat="44.63742" lon="7.0953">
        <ele>2697.2</ele>
        <time>2026-09-01T09:46:22Z</time>
      </trkpt>
      <trkpt lat="44.63742" lon="7.0953">
        <ele>2697.2</ele>
        <time>2026-09-01T09:46:27Z</time>
      </trkpt>
      <trkpt lat="44.63742" lon="7.0953">
        <ele>2697.2</ele>
        <time>2026-09-01T09:46:33Z</time>
      </trkpt>
      <trkpt lat="44.63749" lon="7.09526">
        <ele>2696.4</ele>
        <time>2026-09-01T09:46:38Z</time>
      </trkpt>
      <trkpt lat="44.63749" lon="7.09526">
        <ele>2696.4</ele>
        <time>2026-09-01T09:46:43Z</time>
      </trkpt>
      <trkpt lat="44.63749" lon="7.09526">
        <ele>2696.4</ele>
        <time>2026-09-01T09:46:49Z</time>
      </trkpt>
      <trkpt lat="44.63749" lon="7.09526">
        <ele>2696.4</ele>
        <time>2026-09-01T09:46:54Z</time>
      </trkpt>
      <trkpt lat="44.63749" lon="7.09526">
        <ele>2696.4</ele>
        <time>2026-09-01T09:46:59Z</time>
      </trkpt>
      <trkpt lat="44.63749" lon="7.09526">
        <ele>2696.4</ele>
        <time>2026-09-01T09:47:05Z</time>
      </trkpt>
      <trkpt lat="44.63749" lon="7.09526">
        <ele>2696.4</ele>
        <time>2026-09-01T09:47:10Z</time>
      </trkpt>
      <trkpt lat="44.63749" lon="7.09526">
        <ele>2696.4</ele>
        <time>2026-09-01T09:47:15Z</time>
      </trkpt>
      <trkpt lat="44.63749" lon="7.09526">
        <ele>2696.4</ele>
        <time>2026-09-01T09:47:21Z</time>
      </trkpt>
      <trkpt lat="44.63749" lon="7.09526">
        <ele>2696.4</ele>
        <time>2026-09-01T09:47:26Z</time>
      </trkpt>
      <trkpt lat="44.63749" lon="7.09526">
        <ele>2696.4</ele>
        <time>2026-09-01T09:47:31Z</time>
      </trkpt>
      <trkpt lat="44.63757" lon="7.09535">
        <ele>2700.8</ele>
        <time>2026-09-01T09:47:37Z</time>
      </trkpt>
      <trkpt lat="44.6376" lon="7.09539">
        <ele>2702.6</ele>
        <time>2026-09-01T09:47:42Z</time>
      </trkpt>
      <trkpt lat="44.63761" lon="7.09541">
        <ele>2703.4</ele>
        <time>2026-09-01T09:47:47Z</time>
      </trkpt>
      <trkpt lat="44.63763" lon="7.09545">
        <ele>2704.9</ele>
        <time>2026-09-01T09:47:53Z</time>
      </trkpt>
      <trkpt lat="44.63764" lon="7.09545">
        <ele>2704.9</ele>
        <time>2026-09-01T09:47:58Z</time>
      </trkpt>
      <trkpt lat="44.63765" lon="7.09545">
        <ele>2704.9</ele>
        <time>2026-09-01T09:48:03Z</time>
      </trkpt>
      <trkpt lat="44.63765" lon="7.09545">
        <ele>2704.9</ele>
        <time>2026-09-01T09:48:09Z</time>
      </trkpt>
      <trkpt lat="44.63765" lon="7.09545">
        <ele>2704.9</ele>
        <time>2026-09-01T09:48:14Z</time>
      </trkpt>
      <trkpt lat="44.63765" lon="7.09545">
        <ele>2704.9</ele>
        <time>2026-09-01T09:48:19Z</time>
      </trkpt>
      <trkpt lat="44.63765" lon="7.09545">
        <ele>2704.9</ele>
        <time>2026-09-01T09:48:25Z</time>
      </trkpt>
      <trkpt lat="44.63765" lon="7.09545">
        <ele>2704.9</ele>
        <time>2026-09-01T09:48:30Z</time>
      </trkpt>
      <trkpt lat="44.63765" lon="7.09545">
        <ele>2704.9</ele>
        <time>2026-09-01T09:48:35Z</time>
      </trkpt>
      <trkpt lat="44.63763" lon="7.09558">
        <ele>2710</ele>
        <time>2026-09-01T09:48:41Z</time>
      </trkpt>
      <trkpt lat="44.63766" lon="7.09563">
        <ele>2711.7</ele>
        <time>2026-09-01T09:48:46Z</time>
      </trkpt>
      <trkpt lat="44.63771" lon="7.0956">
        <ele>2710.2</ele>
        <time>2026-09-01T09:48:51Z</time>
      </trkpt>
      <trkpt lat="44.63772" lon="7.09558">
        <ele>2709.5</ele>
        <time>2026-09-01T09:48:57Z</time>
      </trkpt>
      <trkpt lat="44.63772" lon="7.09558">
        <ele>2709.5</ele>
        <time>2026-09-01T09:49:02Z</time>
      </trkpt>
      <trkpt lat="44.63777" lon="7.09555">
        <ele>2708.2</ele>
        <time>2026-09-01T09:49:07Z</time>
      </trkpt>
      <trkpt lat="44.6378" lon="7.09559">
        <ele>2709.3</ele>
        <time>2026-09-01T09:49:13Z</time>
      </trkpt>
      <trkpt lat="44.63782" lon="7.0956">
        <ele>2709.5</ele>
        <time>2026-09-01T09:49:18Z</time>
      </trkpt>
      <trkpt lat="44.63782" lon="7.09562">
        <ele>2710.1</ele>
        <time>2026-09-01T09:49:23Z</time>
      </trkpt>
      <trkpt lat="44.63782" lon="7.09562">
        <ele>2710.1</ele>
        <time>2026-09-01T09:49:29Z</time>
      </trkpt>
      <trkpt lat="44.63782" lon="7.09562">
        <ele>2710.1</ele>
        <time>2026-09-01T09:49:34Z</time>
      </trkpt>
      <trkpt lat="44.63782" lon="7.09562">
        <ele>2710.1</ele>
        <time>2026-09-01T09:49:39Z</time>
      </trkpt>
      <trkpt lat="44.63782" lon="7.09562">
        <ele>2710.1</ele>
        <time>2026-09-01T09:49:45Z</time>
      </trkpt>
      <trkpt lat="44.63782" lon="7.09562">
        <ele>2710.1</ele>
        <time>2026-09-01T09:49:50Z</time>
      </trkpt>
      <trkpt lat="44.63782" lon="7.09562">
        <ele>2710.1</ele>
        <time>2026-09-01T09:49:55Z</time>
      </trkpt>
      <trkpt lat="44.63782" lon="7.09562">
        <ele>2710.1</ele>
        <time>2026-09-01T09:50:01Z</time>
      </trkpt>
      <trkpt lat="44.63782" lon="7.09562">
        <ele>2710.1</ele>
        <time>2026-09-01T09:50:06Z</time>
      </trkpt>
      <trkpt lat="44.63782" lon="7.09562">
        <ele>2710.1</ele>
        <time>2026-09-01T09:50:11Z</time>
      </trkpt>
      <trkpt lat="44.63782" lon="7.09562">
        <ele>2710.1</ele>
        <time>2026-09-01T09:50:17Z</time>
      </trkpt>
      <trkpt lat="44.63782" lon="7.09562">
        <ele>2710.1</ele>
        <time>2026-09-01T09:50:22Z</time>
      </trkpt>
      <trkpt lat="44.63782" lon="7.09562">
        <ele>2710.1</ele>
        <time>2026-09-01T09:50:27Z</time>
      </trkpt>
      <trkpt lat="44.63782" lon="7.09562">
        <ele>2710.1</ele>
        <time>2026-09-01T09:50:33Z</time>
      </trkpt>
      <trkpt lat="44.63782" lon="7.09562">
        <ele>2710.1</ele>
        <time>2026-09-01T09:50:38Z</time>
      </trkpt>
      <trkpt lat="44.63782" lon="7.09562">
        <ele>2710.1</ele>
        <time>2026-09-01T09:50:43Z</time>
      </trkpt>
      <trkpt lat="44.63782" lon="7.09562">
        <ele>2710.1</ele>
        <time>2026-09-01T09:50:49Z</time>
      </trkpt>
      <trkpt lat="44.63782" lon="7.09562">
        <ele>2710.1</ele>
        <time>2026-09-01T09:50:54Z</time>
      </trkpt>
      <trkpt lat="44.63782" lon="7.09562">
        <ele>2710.1</ele>
        <time>2026-09-01T09:50:59Z</time>
      </trkpt>
      <trkpt lat="44.63782" lon="7.09562">
        <ele>2710.1</ele>
        <time>2026-09-01T09:51:05Z</time>
      </trkpt>
      <trkpt lat="44.63782" lon="7.09562">
        <ele>2710.1</ele>
        <time>2026-09-01T09:51:10Z</time>
      </trkpt>
      <trkpt lat="44.63782" lon="7.09562">
        <ele>2710.1</ele>
        <time>2026-09-01T09:51:15Z</time>
      </trkpt>
      <trkpt lat="44.63782" lon="7.09562">
        <ele>2710.1</ele>
        <time>2026-09-01T09:51:21Z</time>
      </trkpt>
      <trkpt lat="44.6379" lon="7.09569">
        <ele>2711.4</ele>
        <time>2026-09-01T09:51:26Z</time>
      </trkpt>
      <trkpt lat="44.6379" lon="7.09569">
        <ele>2711.4</ele>
        <time>2026-09-01T09:51:31Z</time>
      </trkpt>
      <trkpt lat="44.6379" lon="7.09569">
        <ele>2711.4</ele>
        <time>2026-09-01T09:51:37Z</time>
      </trkpt>
      <trkpt lat="44.63792" lon="7.09573">
        <ele>2712.2</ele>
        <time>2026-09-01T09:51:42Z</time>
      </trkpt>
      <trkpt lat="44.63792" lon="7.09579">
        <ele>2713.8</ele>
        <time>2026-09-01T09:51:47Z</time>
      </trkpt>
      <trkpt lat="44.63794" lon="7.09584">
        <ele>2714.9</ele>
        <time>2026-09-01T09:51:53Z</time>
      </trkpt>
      <trkpt lat="44.63798" lon="7.09585">
        <ele>2714.6</ele>
        <time>2026-09-01T09:51:58Z</time>
      </trkpt>
      <trkpt lat="44.63799" lon="7.09587">
        <ele>2715.2</ele>
        <time>2026-09-01T09:52:03Z</time>
      </trkpt>
      <trkpt lat="44.63802" lon="7.09589">
        <ele>2715.4</ele>
        <time>2026-09-01T09:52:09Z</time>
      </trkpt>
      <trkpt lat="44.63803" lon="7.09593">
        <ele>2716.8</ele>
        <time>2026-09-01T09:52:14Z</time>
      </trkpt>
      <trkpt lat="44.63805" lon="7.09595">
        <ele>2717.1</ele>
        <time>2026-09-01T09:52:19Z</time>
      </trkpt>
      <trkpt lat="44.63806" lon="7.09599">
        <ele>2718.4</ele>
        <time>2026-09-01T09:52:25Z</time>
      </trkpt>
      <trkpt lat="44.63806" lon="7.09602">
        <ele>2719.5</ele>
        <time>2026-09-01T09:52:30Z</time>
      </trkpt>
      <trkpt lat="44.63805" lon="7.09608">
        <ele>2722</ele>
        <time>2026-09-01T09:52:35Z</time>
      </trkpt>
      <trkpt lat="44.63804" lon="7.09616">
        <ele>2725.2</ele>
        <time>2026-09-01T09:52:41Z</time>
      </trkpt>
      <trkpt lat="44.63806" lon="7.09619">
        <ele>2725.8</ele>
        <time>2026-09-01T09:52:46Z</time>
      </trkpt>
      <trkpt lat="44.63806" lon="7.09623">
        <ele>2727.3</ele>
        <time>2026-09-01T09:52:51Z</time>
      </trkpt>
      <trkpt lat="44.63805" lon="7.09631">
        <ele>2730.6</ele>
        <time>2026-09-01T09:52:57Z</time>
      </trkpt>
      <trkpt lat="44.63805" lon="7.09631">
        <ele>2730.6</ele>
        <time>2026-09-01T09:53:02Z</time>
      </trkpt>
      <trkpt lat="44.63805" lon="7.09631">
        <ele>2730.6</ele>
        <time>2026-09-01T09:53:07Z</time>
      </trkpt>
      <trkpt lat="44.63805" lon="7.09631">
        <ele>2730.6</ele>
        <time>2026-09-01T09:53:13Z</time>
      </trkpt>
      <trkpt lat="44.63805" lon="7.09631">
        <ele>2730.6</ele>
        <time>2026-09-01T09:53:18Z</time>
      </trkpt>
      <trkpt lat="44.63805" lon="7.09631">
        <ele>2730.6</ele>
        <time>2026-09-01T09:53:23Z</time>
      </trkpt>
      <trkpt lat="44.63805" lon="7.09631">
        <ele>2730.6</ele>
        <time>2026-09-01T09:53:29Z</time>
      </trkpt>
      <trkpt lat="44.63805" lon="7.09631">
        <ele>2730.6</ele>
        <time>2026-09-01T09:53:34Z</time>
      </trkpt>
      <trkpt lat="44.63805" lon="7.09631">
        <ele>2730.6</ele>
        <time>2026-09-01T09:53:39Z</time>
      </trkpt>
      <trkpt lat="44.63805" lon="7.09631">
        <ele>2730.6</ele>
        <time>2026-09-01T09:53:45Z</time>
      </trkpt>
      <trkpt lat="44.63794" lon="7.09621">
        <ele>2729.7</ele>
        <time>2026-09-01T09:53:50Z</time>
      </trkpt>
      <trkpt lat="44.63792" lon="7.09616">
        <ele>2728.2</ele>
        <time>2026-09-01T09:53:55Z</time>
      </trkpt>
      <trkpt lat="44.63789" lon="7.09615">
        <ele>2728.6</ele>
        <time>2026-09-01T09:54:01Z</time>
      </trkpt>
      <trkpt lat="44.63786" lon="7.09617">
        <ele>2730.2</ele>
        <time>2026-09-01T09:54:06Z</time>
      </trkpt>
      <trkpt lat="44.63787" lon="7.09617">
        <ele>2729.9</ele>
        <time>2026-09-01T09:54:11Z</time>
      </trkpt>
      <trkpt lat="44.63787" lon="7.09617">
        <ele>2729.9</ele>
        <time>2026-09-01T09:54:17Z</time>
      </trkpt>
      <trkpt lat="44.63788" lon="7.09619">
        <ele>2730.5</ele>
        <time>2026-09-01T09:54:22Z</time>
      </trkpt>
      <trkpt lat="44.63789" lon="7.09624">
        <ele>2732.3</ele>
        <time>2026-09-01T09:54:27Z</time>
      </trkpt>
      <trkpt lat="44.63789" lon="7.0963">
        <ele>2734.8</ele>
        <time>2026-09-01T09:54:33Z</time>
      </trkpt>
      <trkpt lat="44.63792" lon="7.09634">
        <ele>2735.6</ele>
        <time>2026-09-01T09:54:38Z</time>
      </trkpt>
      <trkpt lat="44.63793" lon="7.09636">
        <ele>2736.1</ele>
        <time>2026-09-01T09:54:43Z</time>
      </trkpt>
      <trkpt lat="44.63794" lon="7.09642">
        <ele>2738.2</ele>
        <time>2026-09-01T09:54:49Z</time>
      </trkpt>
      <trkpt lat="44.63795" lon="7.09646">
        <ele>2739.5</ele>
        <time>2026-09-01T09:54:54Z</time>
      </trkpt>
      <trkpt lat="44.63796" lon="7.09649">
        <ele>2740.3</ele>
        <time>2026-09-01T09:54:59Z</time>
      </trkpt>
      <trkpt lat="44.63797" lon="7.0965">
        <ele>2740.4</ele>
        <time>2026-09-01T09:55:05Z</time>
      </trkpt>
      <trkpt lat="44.63797" lon="7.0965">
        <ele>2740.4</ele>
        <time>2026-09-01T09:55:10Z</time>
      </trkpt>
      <trkpt lat="44.63797" lon="7.0965">
        <ele>2740.4</ele>
        <time>2026-09-01T09:55:15Z</time>
      </trkpt>
      <trkpt lat="44.63797" lon="7.0965">
        <ele>2740.4</ele>
        <time>2026-09-01T09:55:21Z</time>
      </trkpt>
      <trkpt lat="44.63797" lon="7.0965">
        <ele>2740.4</ele>
        <time>2026-09-01T09:55:26Z</time>
      </trkpt>
      <trkpt lat="44.63797" lon="7.0965">
        <ele>2740.4</ele>
        <time>2026-09-01T09:55:31Z</time>
      </trkpt>
      <trkpt lat="44.63799" lon="7.09662">
        <ele>2744.4</ele>
        <time>2026-09-01T09:55:37Z</time>
      </trkpt>
      <trkpt lat="44.63799" lon="7.09663">
        <ele>2744.8</ele>
        <time>2026-09-01T09:55:42Z</time>
      </trkpt>
      <trkpt lat="44.63802" lon="7.09669">
        <ele>2745.7</ele>
        <time>2026-09-01T09:55:47Z</time>
      </trkpt>
      <trkpt lat="44.63805" lon="7.09674">
        <ele>2746.1</ele>
        <time>2026-09-01T09:55:53Z</time>
      </trkpt>
      <trkpt lat="44.63808" lon="7.09679">
        <ele>2746.5</ele>
        <time>2026-09-01T09:55:58Z</time>
      </trkpt>
      <trkpt lat="44.63811" lon="7.09682">
        <ele>2746.3</ele>
        <time>2026-09-01T09:56:03Z</time>
      </trkpt>
      <trkpt lat="44.63814" lon="7.09682">
        <ele>2745.2</ele>
        <time>2026-09-01T09:56:09Z</time>
      </trkpt>
      <trkpt lat="44.63814" lon="7.09681">
        <ele>2744.9</ele>
        <time>2026-09-01T09:56:14Z</time>
      </trkpt>
      <trkpt lat="44.63817" lon="7.09687">
        <ele>2745.6</ele>
        <time>2026-09-01T09:56:19Z</time>
      </trkpt>
      <trkpt lat="44.6382" lon="7.09689">
        <ele>2745</ele>
        <time>2026-09-01T09:56:25Z</time>
      </trkpt>
      <trkpt lat="44.63822" lon="7.09692">
        <ele>2745.2</ele>
        <time>2026-09-01T09:56:30Z</time>
      </trkpt>
      <trkpt lat="44.63825" lon="7.09696">
        <ele>2745.3</ele>
        <time>2026-09-01T09:56:35Z</time>
      </trkpt>
      <trkpt lat="44.63825" lon="7.09701">
        <ele>2746.9</ele>
        <time>2026-09-01T09:56:41Z</time>
      </trkpt>
      <trkpt lat="44.63826" lon="7.09701">
        <ele>2746.5</ele>
        <time>2026-09-01T09:56:46Z</time>
      </trkpt>
      <trkpt lat="44.63826" lon="7.09701">
        <ele>2746.5</ele>
        <time>2026-09-01T09:56:51Z</time>
      </trkpt>
      <trkpt lat="44.63829" lon="7.09708">
        <ele>2747.5</ele>
        <time>2026-09-01T09:56:57Z</time>
      </trkpt>
      <trkpt lat="44.6383" lon="7.09711">
        <ele>2748.1</ele>
        <time>2026-09-01T09:57:02Z</time>
      </trkpt>
      <trkpt lat="44.6383" lon="7.09712">
        <ele>2748.4</ele>
        <time>2026-09-01T09:57:07Z</time>
      </trkpt>
      <trkpt lat="44.63833" lon="7.09714">
        <ele>2747.9</ele>
        <time>2026-09-01T09:57:13Z</time>
      </trkpt>
      <trkpt lat="44.63836" lon="7.09715">
        <ele>2747</ele>
        <time>2026-09-01T09:57:18Z</time>
      </trkpt>
      <trkpt lat="44.63838" lon="7.09716">
        <ele>2746.6</ele>
        <time>2026-09-01T09:57:23Z</time>
      </trkpt>
      <trkpt lat="44.63842" lon="7.09719">
        <ele>2745.9</ele>
        <time>2026-09-01T09:57:29Z</time>
      </trkpt>
      <trkpt lat="44.63846" lon="7.09719">
        <ele>2744.2</ele>
        <time>2026-09-01T09:57:34Z</time>
      </trkpt>
      <trkpt lat="44.6385" lon="7.09714">
        <ele>2741.3</ele>
        <time>2026-09-01T09:57:39Z</time>
      </trkpt>
      <trkpt lat="44.63852" lon="7.09707">
        <ele>2738.6</ele>
        <time>2026-09-01T09:57:45Z</time>
      </trkpt>
      <trkpt lat="44.63852" lon="7.09707">
        <ele>2738.6</ele>
        <time>2026-09-01T09:57:50Z</time>
      </trkpt>
      <trkpt lat="44.63852" lon="7.09707">
        <ele>2738.6</ele>
        <time>2026-09-01T09:57:55Z</time>
      </trkpt>
      <trkpt lat="44.63852" lon="7.09707">
        <ele>2738.6</ele>
        <time>2026-09-01T09:58:01Z</time>
      </trkpt>
      <trkpt lat="44.63852" lon="7.09707">
        <ele>2738.6</ele>
        <time>2026-09-01T09:58:06Z</time>
      </trkpt>
      <trkpt lat="44.63852" lon="7.09707">
        <ele>2738.6</ele>
        <time>2026-09-01T09:58:11Z</time>
      </trkpt>
      <trkpt lat="44.63852" lon="7.09707">
        <ele>2738.6</ele>
        <time>2026-09-01T09:58:17Z</time>
      </trkpt>
      <trkpt lat="44.63852" lon="7.09707">
        <ele>2738.6</ele>
        <time>2026-09-01T09:58:22Z</time>
      </trkpt>
      <trkpt lat="44.63852" lon="7.09707">
        <ele>2738.6</ele>
        <time>2026-09-01T09:58:27Z</time>
      </trkpt>
      <trkpt lat="44.63852" lon="7.09707">
        <ele>2738.6</ele>
        <time>2026-09-01T09:58:33Z</time>
      </trkpt>
      <trkpt lat="44.63852" lon="7.09707">
        <ele>2738.6</ele>
        <time>2026-09-01T09:58:38Z</time>
      </trkpt>
      <trkpt lat="44.63852" lon="7.09707">
        <ele>2738.6</ele>
        <time>2026-09-01T09:58:43Z</time>
      </trkpt>
      <trkpt lat="44.63852" lon="7.09707">
        <ele>2738.6</ele>
        <time>2026-09-01T09:58:49Z</time>
      </trkpt>
      <trkpt lat="44.63852" lon="7.09707">
        <ele>2738.6</ele>
        <time>2026-09-01T09:58:54Z</time>
      </trkpt>
      <trkpt lat="44.63852" lon="7.09707">
        <ele>2738.6</ele>
        <time>2026-09-01T09:58:59Z</time>
      </trkpt>
      <trkpt lat="44.63852" lon="7.09707">
        <ele>2738.6</ele>
        <time>2026-09-01T09:59:05Z</time>
      </trkpt>
      <trkpt lat="44.63852" lon="7.09707">
        <ele>2738.6</ele>
        <time>2026-09-01T09:59:10Z</time>
      </trkpt>
      <trkpt lat="44.63852" lon="7.09707">
        <ele>2738.6</ele>
        <time>2026-09-01T09:59:15Z</time>
      </trkpt>
      <trkpt lat="44.63852" lon="7.09707">
        <ele>2738.6</ele>
        <time>2026-09-01T09:59:21Z</time>
      </trkpt>
      <trkpt lat="44.63852" lon="7.09707">
        <ele>2738.6</ele>
        <time>2026-09-01T09:59:26Z</time>
      </trkpt>
      <trkpt lat="44.63852" lon="7.09707">
        <ele>2738.6</ele>
        <time>2026-09-01T09:59:31Z</time>
      </trkpt>
      <trkpt lat="44.63852" lon="7.09707">
        <ele>2738.6</ele>
        <time>2026-09-01T09:59:37Z</time>
      </trkpt>
      <trkpt lat="44.63852" lon="7.09707">
        <ele>2738.6</ele>
        <time>2026-09-01T09:59:42Z</time>
      </trkpt>
      <trkpt lat="44.63852" lon="7.09707">
        <ele>2738.6</ele>
        <time>2026-09-01T09:59:47Z</time>
      </trkpt>
      <trkpt lat="44.63852" lon="7.09707">
        <ele>2738.6</ele>
        <time>2026-09-01T09:59:53Z</time>
      </trkpt>
      <trkpt lat="44.63852" lon="7.09707">
        <ele>2738.6</ele>
        <time>2026-09-01T09:59:58Z</time>
      </trkpt>
      <trkpt lat="44.63852" lon="7.09707">
        <ele>2738.6</ele>
        <time>2026-09-01T10:00:03Z</time>
      </trkpt>
      <trkpt lat="44.63852" lon="7.09707">
        <ele>2738.6</ele>
        <time>2026-09-01T10:00:09Z</time>
      </trkpt>
      <trkpt lat="44.63852" lon="7.09707">
        <ele>2738.6</ele>
        <time>2026-09-01T10:00:14Z</time>
      </trkpt>
      <trkpt lat="44.63852" lon="7.09707">
        <ele>2738.6</ele>
        <time>2026-09-01T10:00:19Z</time>
      </trkpt>
      <trkpt lat="44.63852" lon="7.09707">
        <ele>2738.6</ele>
        <time>2026-09-01T10:00:25Z</time>
      </trkpt>
      <trkpt lat="44.63852" lon="7.09707">
        <ele>2738.6</ele>
        <time>2026-09-01T10:00:30Z</time>
      </trkpt>
      <trkpt lat="44.63852" lon="7.09707">
        <ele>2738.6</ele>
        <time>2026-09-01T10:00:35Z</time>
      </trkpt>
      <trkpt lat="44.63852" lon="7.09707">
        <ele>2738.6</ele>
        <time>2026-09-01T10:00:41Z</time>
      </trkpt>
      <trkpt lat="44.63852" lon="7.09707">
        <ele>2738.6</ele>
        <time>2026-09-01T10:00:46Z</time>
      </trkpt>
      <trkpt lat="44.63852" lon="7.09707">
        <ele>2738.6</ele>
        <time>2026-09-01T10:00:51Z</time>
      </trkpt>
      <trkpt lat="44.63852" lon="7.09707">
        <ele>2738.6</ele>
        <time>2026-09-01T10:00:57Z</time>
      </trkpt>
      <trkpt lat="44.63852" lon="7.09707">
        <ele>2738.6</ele>
        <time>2026-09-01T10:01:02Z</time>
      </trkpt>
      <trkpt lat="44.63852" lon="7.09707">
        <ele>2738.6</ele>
        <time>2026-09-01T10:01:07Z</time>
      </trkpt>
      <trkpt lat="44.63852" lon="7.09707">
        <ele>2738.6</ele>
        <time>2026-09-01T10:01:13Z</time>
      </trkpt>
      <trkpt lat="44.63852" lon="7.09707">
        <ele>2738.6</ele>
        <time>2026-09-01T10:01:18Z</time>
      </trkpt>
      <trkpt lat="44.63852" lon="7.09707">
        <ele>2738.6</ele>
        <time>2026-09-01T10:01:23Z</time>
      </trkpt>
      <trkpt lat="44.63852" lon="7.09707">
        <ele>2738.6</ele>
        <time>2026-09-01T10:01:29Z</time>
      </trkpt>
      <trkpt lat="44.63852" lon="7.09707">
        <ele>2738.6</ele>
        <time>2026-09-01T10:01:34Z</time>
      </trkpt>
      <trkpt lat="44.63852" lon="7.09707">
        <ele>2738.6</ele>
        <time>2026-09-01T10:01:39Z</time>
      </trkpt>
      <trkpt lat="44.63852" lon="7.09707">
        <ele>2738.6</ele>
        <time>2026-09-01T10:01:45Z</time>
      </trkpt>
      <trkpt lat="44.63852" lon="7.09707">
        <ele>2738.6</ele>
        <time>2026-09-01T10:01:50Z</time>
      </trkpt>
      <trkpt lat="44.63852" lon="7.09707">
        <ele>2738.6</ele>
        <time>2026-09-01T10:01:55Z</time>
      </trkpt>
      <trkpt lat="44.63852" lon="7.09707">
        <ele>2738.6</ele>
        <time>2026-09-01T10:02:01Z</time>
      </trkpt>
      <trkpt lat="44.63852" lon="7.09707">
        <ele>2738.6</ele>
        <time>2026-09-01T10:02:06Z</time>
      </trkpt>
      <trkpt lat="44.63852" lon="7.09707">
        <ele>2738.6</ele>
        <time>2026-09-01T10:02:11Z</time>
      </trkpt>
      <trkpt lat="44.63852" lon="7.09707">
        <ele>2738.6</ele>
        <time>2026-09-01T10:02:17Z</time>
      </trkpt>
      <trkpt lat="44.63852" lon="7.09707">
        <ele>2738.6</ele>
        <time>2026-09-01T10:02:22Z</time>
      </trkpt>
      <trkpt lat="44.63852" lon="7.09707">
        <ele>2738.6</ele>
        <time>2026-09-01T10:02:27Z</time>
      </trkpt>
      <trkpt lat="44.63852" lon="7.09707">
        <ele>2738.6</ele>
        <time>2026-09-01T10:02:33Z</time>
      </trkpt>
      <trkpt lat="44.63852" lon="7.09707">
        <ele>2738.6</ele>
        <time>2026-09-01T10:02:38Z</time>
      </trkpt>
      <trkpt lat="44.63852" lon="7.09707">
        <ele>2738.6</ele>
        <time>2026-09-01T10:02:43Z</time>
      </trkpt>
      <trkpt lat="44.63852" lon="7.09707">
        <ele>2738.6</ele>
        <time>2026-09-01T10:02:49Z</time>
      </trkpt>
      <trkpt lat="44.63852" lon="7.09707">
        <ele>2738.6</ele>
        <time>2026-09-01T10:02:54Z</time>
      </trkpt>
      <trkpt lat="44.63852" lon="7.09707">
        <ele>2738.6</ele>
        <time>2026-09-01T10:02:59Z</time>
      </trkpt>
      <trkpt lat="44.63852" lon="7.09707">
        <ele>2738.6</ele>
        <time>2026-09-01T10:03:05Z</time>
      </trkpt>
      <trkpt lat="44.63852" lon="7.09707">
        <ele>2738.6</ele>
        <time>2026-09-01T10:03:10Z</time>
      </trkpt>
      <trkpt lat="44.63852" lon="7.09707">
        <ele>2738.6</ele>
        <time>2026-09-01T10:03:15Z</time>
      </trkpt>
      <trkpt lat="44.63852" lon="7.09707">
        <ele>2738.6</ele>
        <time>2026-09-01T10:03:21Z</time>
      </trkpt>
      <trkpt lat="44.63852" lon="7.09707">
        <ele>2738.6</ele>
        <time>2026-09-01T10:03:26Z</time>
      </trkpt>
      <trkpt lat="44.63852" lon="7.09707">
        <ele>2738.6</ele>
        <time>2026-09-01T10:03:31Z</time>
      </trkpt>
      <trkpt lat="44.63852" lon="7.09707">
        <ele>2738.6</ele>
        <time>2026-09-01T10:03:37Z</time>
      </trkpt>
      <trkpt lat="44.63852" lon="7.09707">
        <ele>2738.6</ele>
        <time>2026-09-01T10:03:42Z</time>
      </trkpt>
      <trkpt lat="44.63852" lon="7.09707">
        <ele>2738.6</ele>
        <time>2026-09-01T10:03:47Z</time>
      </trkpt>
      <trkpt lat="44.63852" lon="7.09707">
        <ele>2738.6</ele>
        <time>2026-09-01T10:03:53Z</time>
      </trkpt>
      <trkpt lat="44.63852" lon="7.09707">
        <ele>2738.6</ele>
        <time>2026-09-01T10:03:58Z</time>
      </trkpt>
      <trkpt lat="44.63852" lon="7.09707">
        <ele>2738.6</ele>
        <time>2026-09-01T10:04:03Z</time>
      </trkpt>
      <trkpt lat="44.63852" lon="7.09707">
        <ele>2738.6</ele>
        <time>2026-09-01T10:04:09Z</time>
      </trkpt>
      <trkpt lat="44.63852" lon="7.09707">
        <ele>2738.6</ele>
        <time>2026-09-01T10:04:14Z</time>
      </trkpt>
      <trkpt lat="44.63852" lon="7.09707">
        <ele>2738.6</ele>
        <time>2026-09-01T10:04:19Z</time>
      </trkpt>
      <trkpt lat="44.63852" lon="7.09707">
        <ele>2738.6</ele>
        <time>2026-09-01T10:04:25Z</time>
      </trkpt>
      <trkpt lat="44.63852" lon="7.09707">
        <ele>2738.6</ele>
        <time>2026-09-01T10:04:30Z</time>
      </trkpt>
      <trkpt lat="44.63852" lon="7.09707">
        <ele>2738.6</ele>
        <time>2026-09-01T10:04:35Z</time>
      </trkpt>
      <trkpt lat="44.63852" lon="7.09707">
        <ele>2738.6</ele>
        <time>2026-09-01T10:04:41Z</time>
      </trkpt>
      <trkpt lat="44.63852" lon="7.09707">
        <ele>2738.6</ele>
        <time>2026-09-01T10:04:46Z</time>
      </trkpt>
      <trkpt lat="44.63852" lon="7.09707">
        <ele>2738.6</ele>
        <time>2026-09-01T10:04:51Z</time>
      </trkpt>
      <trkpt lat="44.63852" lon="7.09707">
        <ele>2738.6</ele>
        <time>2026-09-01T10:04:57Z</time>
      </trkpt>
      <trkpt lat="44.63852" lon="7.09707">
        <ele>2738.6</ele>
        <time>2026-09-01T10:05:02Z</time>
      </trkpt>
      <trkpt lat="44.63852" lon="7.09707">
        <ele>2738.6</ele>
        <time>2026-09-01T10:05:07Z</time>
      </trkpt>
      <trkpt lat="44.63852" lon="7.09707">
        <ele>2738.6</ele>
        <time>2026-09-01T10:05:13Z</time>
      </trkpt>
      <trkpt lat="44.63852" lon="7.09707">
        <ele>2738.6</ele>
        <time>2026-09-01T10:05:18Z</time>
      </trkpt>
      <trkpt lat="44.63852" lon="7.09707">
        <ele>2738.6</ele>
        <time>2026-09-01T10:05:23Z</time>
      </trkpt>
      <trkpt lat="44.63852" lon="7.09707">
        <ele>2738.6</ele>
        <time>2026-09-01T10:05:29Z</time>
      </trkpt>
      <trkpt lat="44.63852" lon="7.09707">
        <ele>2738.6</ele>
        <time>2026-09-01T10:05:34Z</time>
      </trkpt>
      <trkpt lat="44.63852" lon="7.09707">
        <ele>2738.6</ele>
        <time>2026-09-01T10:05:39Z</time>
      </trkpt>
      <trkpt lat="44.63852" lon="7.09707">
        <ele>2738.6</ele>
        <time>2026-09-01T10:05:45Z</time>
      </trkpt>
      <trkpt lat="44.63852" lon="7.09707">
        <ele>2738.6</ele>
        <time>2026-09-01T10:05:50Z</time>
      </trkpt>
      <trkpt lat="44.63852" lon="7.09707">
        <ele>2738.6</ele>
        <time>2026-09-01T10:05:55Z</time>
      </trkpt>
      <trkpt lat="44.63852" lon="7.09707">
        <ele>2738.6</ele>
        <time>2026-09-01T10:06:01Z</time>
      </trkpt>
      <trkpt lat="44.63852" lon="7.09707">
        <ele>2738.6</ele>
        <time>2026-09-01T10:06:06Z</time>
      </trkpt>
      <trkpt lat="44.63852" lon="7.09707">
        <ele>2738.6</ele>
        <time>2026-09-01T10:06:11Z</time>
      </trkpt>
      <trkpt lat="44.63852" lon="7.09707">
        <ele>2738.6</ele>
        <time>2026-09-01T10:06:17Z</time>
      </trkpt>
      <trkpt lat="44.63852" lon="7.09707">
        <ele>2738.6</ele>
        <time>2026-09-01T10:06:22Z</time>
      </trkpt>
      <trkpt lat="44.63852" lon="7.09707">
        <ele>2738.6</ele>
        <time>2026-09-01T10:06:27Z</time>
      </trkpt>
      <trkpt lat="44.63852" lon="7.09707">
        <ele>2738.6</ele>
        <time>2026-09-01T10:06:33Z</time>
      </trkpt>
      <trkpt lat="44.63852" lon="7.09707">
        <ele>2738.6</ele>
        <time>2026-09-01T10:06:38Z</time>
      </trkpt>
      <trkpt lat="44.63852" lon="7.09707">
        <ele>2738.6</ele>
        <time>2026-09-01T10:06:43Z</time>
      </trkpt>
      <trkpt lat="44.63852" lon="7.09707">
        <ele>2738.6</ele>
        <time>2026-09-01T10:06:49Z</time>
      </trkpt>
      <trkpt lat="44.63852" lon="7.09707">
        <ele>2738.6</ele>
        <time>2026-09-01T10:06:54Z</time>
      </trkpt>
      <trkpt lat="44.63852" lon="7.09707">
        <ele>2738.6</ele>
        <time>2026-09-01T10:06:59Z</time>
      </trkpt>
      <trkpt lat="44.63852" lon="7.09707">
        <ele>2738.6</ele>
        <time>2026-09-01T10:07:05Z</time>
      </trkpt>
      <trkpt lat="44.63852" lon="7.09707">
        <ele>2738.6</ele>
        <time>2026-09-01T10:07:10Z</time>
      </trkpt>
      <trkpt lat="44.63852" lon="7.09707">
        <ele>2738.6</ele>
        <time>2026-09-01T10:07:15Z</time>
      </trkpt>
      <trkpt lat="44.63852" lon="7.09707">
        <ele>2738.6</ele>
        <time>2026-09-01T10:07:21Z</time>
      </trkpt>
      <trkpt lat="44.63852" lon="7.09707">
        <ele>2738.6</ele>
        <time>2026-09-01T10:07:26Z</time>
      </trkpt>
      <trkpt lat="44.63852" lon="7.09707">
        <ele>2738.6</ele>
        <time>2026-09-01T10:07:31Z</time>
      </trkpt>
      <trkpt lat="44.63852" lon="7.09707">
        <ele>2738.6</ele>
        <time>2026-09-01T10:07:37Z</time>
      </trkpt>
      <trkpt lat="44.63852" lon="7.09707">
        <ele>2738.6</ele>
        <time>2026-09-01T10:07:42Z</time>
      </trkpt>
      <trkpt lat="44.63852" lon="7.09707">
        <ele>2738.6</ele>
        <time>2026-09-01T10:07:47Z</time>
      </trkpt>
      <trkpt lat="44.63852" lon="7.09707">
        <ele>2738.6</ele>
        <time>2026-09-01T10:07:53Z</time>
      </trkpt>
      <trkpt lat="44.63852" lon="7.09707">
        <ele>2738.6</ele>
        <time>2026-09-01T10:07:58Z</time>
      </trkpt>
      <trkpt lat="44.63852" lon="7.09707">
        <ele>2738.6</ele>
        <time>2026-09-01T10:08:03Z</time>
      </trkpt>
      <trkpt lat="44.63852" lon="7.09707">
        <ele>2738.6</ele>
        <time>2026-09-01T10:08:09Z</time>
      </trkpt>
      <trkpt lat="44.63852" lon="7.09707">
        <ele>2738.6</ele>
        <time>2026-09-01T10:08:14Z</time>
      </trkpt>
      <trkpt lat="44.63852" lon="7.09707">
        <ele>2738.6</ele>
        <time>2026-09-01T10:08:19Z</time>
      </trkpt>
      <trkpt lat="44.63852" lon="7.09707">
        <ele>2738.6</ele>
        <time>2026-09-01T10:08:25Z</time>
      </trkpt>
      <trkpt lat="44.63852" lon="7.09707">
        <ele>2738.6</ele>
        <time>2026-09-01T10:08:30Z</time>
      </trkpt>
      <trkpt lat="44.63852" lon="7.09707">
        <ele>2738.6</ele>
        <time>2026-09-01T10:08:35Z</time>
      </trkpt>
      <trkpt lat="44.63852" lon="7.09707">
        <ele>2738.6</ele>
        <time>2026-09-01T10:08:41Z</time>
      </trkpt>
      <trkpt lat="44.63852" lon="7.09707">
        <ele>2738.6</ele>
        <time>2026-09-01T10:08:46Z</time>
      </trkpt>
      <trkpt lat="44.63852" lon="7.09707">
        <ele>2738.6</ele>
        <time>2026-09-01T10:08:51Z</time>
      </trkpt>
      <trkpt lat="44.63852" lon="7.09707">
        <ele>2738.6</ele>
        <time>2026-09-01T10:08:57Z</time>
      </trkpt>
      <trkpt lat="44.63852" lon="7.09707">
        <ele>2738.6</ele>
        <time>2026-09-01T10:09:02Z</time>
      </trkpt>
      <trkpt lat="44.63852" lon="7.09707">
        <ele>2738.6</ele>
        <time>2026-09-01T10:09:07Z</time>
      </trkpt>
      <trkpt lat="44.63852" lon="7.09707">
        <ele>2738.6</ele>
        <time>2026-09-01T10:09:13Z</time>
      </trkpt>
      <trkpt lat="44.63852" lon="7.09707">
        <ele>2738.6</ele>
        <time>2026-09-01T10:09:18Z</time>
      </trkpt>
      <trkpt lat="44.63852" lon="7.09707">
        <ele>2738.6</ele>
        <time>2026-09-01T10:09:23Z</time>
      </trkpt>
      <trkpt lat="44.63852" lon="7.09707">
        <ele>2738.6</ele>
        <time>2026-09-01T10:09:29Z</time>
      </trkpt>
      <trkpt lat="44.63852" lon="7.09707">
        <ele>2738.6</ele>
        <time>2026-09-01T10:09:34Z</time>
      </trkpt>
      <trkpt lat="44.63852" lon="7.09707">
        <ele>2738.6</ele>
        <time>2026-09-01T10:09:39Z</time>
      </trkpt>
      <trkpt lat="44.63852" lon="7.09707">
        <ele>2738.6</ele>
        <time>2026-09-01T10:09:45Z</time>
      </trkpt>
      <trkpt lat="44.63852" lon="7.09707">
        <ele>2738.6</ele>
        <time>2026-09-01T10:09:50Z</time>
      </trkpt>
      <trkpt lat="44.63852" lon="7.09707">
        <ele>2738.6</ele>
        <time>2026-09-01T10:09:55Z</time>
      </trkpt>
      <trkpt lat="44.63852" lon="7.09707">
        <ele>2738.6</ele>
        <time>2026-09-01T10:10:01Z</time>
      </trkpt>
      <trkpt lat="44.63852" lon="7.09707">
        <ele>2738.6</ele>
        <time>2026-09-01T10:10:06Z</time>
      </trkpt>
      <trkpt lat="44.63852" lon="7.09707">
        <ele>2738.6</ele>
        <time>2026-09-01T10:10:11Z</time>
      </trkpt>
      <trkpt lat="44.63852" lon="7.09707">
        <ele>2738.6</ele>
        <time>2026-09-01T10:10:17Z</time>
      </trkpt>
      <trkpt lat="44.63852" lon="7.09707">
        <ele>2738.6</ele>
        <time>2026-09-01T10:10:22Z</time>
      </trkpt>
      <trkpt lat="44.63852" lon="7.09707">
        <ele>2738.6</ele>
        <time>2026-09-01T10:10:27Z</time>
      </trkpt>
      <trkpt lat="44.63852" lon="7.09707">
        <ele>2738.6</ele>
        <time>2026-09-01T10:10:33Z</time>
      </trkpt>
      <trkpt lat="44.63852" lon="7.09707">
        <ele>2738.6</ele>
        <time>2026-09-01T10:10:38Z</time>
      </trkpt>
      <trkpt lat="44.63852" lon="7.09707">
        <ele>2738.6</ele>
        <time>2026-09-01T10:10:43Z</time>
      </trkpt>
      <trkpt lat="44.63852" lon="7.09707">
        <ele>2738.6</ele>
        <time>2026-09-01T10:10:49Z</time>
      </trkpt>
      <trkpt lat="44.63852" lon="7.09707">
        <ele>2738.6</ele>
        <time>2026-09-01T10:10:54Z</time>
      </trkpt>
      <trkpt lat="44.63852" lon="7.09707">
        <ele>2738.6</ele>
        <time>2026-09-01T10:10:59Z</time>
      </trkpt>
      <trkpt lat="44.63852" lon="7.09707">
        <ele>2738.6</ele>
        <time>2026-09-01T10:11:05Z</time>
      </trkpt>
      <trkpt lat="44.63852" lon="7.09707">
        <ele>2738.6</ele>
        <time>2026-09-01T10:11:10Z</time>
      </trkpt>
      <trkpt lat="44.63852" lon="7.09707">
        <ele>2738.6</ele>
        <time>2026-09-01T10:11:15Z</time>
      </trkpt>
      <trkpt lat="44.63852" lon="7.09707">
        <ele>2738.6</ele>
        <time>2026-09-01T10:11:21Z</time>
      </trkpt>
      <trkpt lat="44.63852" lon="7.09707">
        <ele>2738.6</ele>
        <time>2026-09-01T10:11:26Z</time>
      </trkpt>
      <trkpt lat="44.63852" lon="7.09707">
        <ele>2738.6</ele>
        <time>2026-09-01T10:11:31Z</time>
      </trkpt>
      <trkpt lat="44.63852" lon="7.09707">
        <ele>2738.6</ele>
        <time>2026-09-01T10:11:37Z</time>
      </trkpt>
      <trkpt lat="44.63852" lon="7.09707">
        <ele>2738.6</ele>
        <time>2026-09-01T10:11:42Z</time>
      </trkpt>
      <trkpt lat="44.63852" lon="7.09707">
        <ele>2738.6</ele>
        <time>2026-09-01T10:11:47Z</time>
      </trkpt>
      <trkpt lat="44.63852" lon="7.09707">
        <ele>2738.6</ele>
        <time>2026-09-01T10:11:53Z</time>
      </trkpt>
      <trkpt lat="44.63852" lon="7.09707">
        <ele>2738.6</ele>
        <time>2026-09-01T10:11:58Z</time>
      </trkpt>
      <trkpt lat="44.63852" lon="7.09707">
        <ele>2738.6</ele>
        <time>2026-09-01T10:12:03Z</time>
      </trkpt>
      <trkpt lat="44.63852" lon="7.09707">
        <ele>2738.6</ele>
        <time>2026-09-01T10:12:09Z</time>
      </trkpt>
      <trkpt lat="44.63852" lon="7.09707">
        <ele>2738.6</ele>
        <time>2026-09-01T10:12:14Z</time>
      </trkpt>
      <trkpt lat="44.63852" lon="7.09707">
        <ele>2738.6</ele>
        <time>2026-09-01T10:12:19Z</time>
      </trkpt>
      <trkpt lat="44.63852" lon="7.09707">
        <ele>2738.6</ele>
        <time>2026-09-01T10:12:25Z</time>
      </trkpt>
      <trkpt lat="44.63852" lon="7.09707">
        <ele>2738.6</ele>
        <time>2026-09-01T10:12:30Z</time>
      </trkpt>
      <trkpt lat="44.63852" lon="7.09707">
        <ele>2738.6</ele>
        <time>2026-09-01T10:12:35Z</time>
      </trkpt>
      <trkpt lat="44.63852" lon="7.09707">
        <ele>2738.6</ele>
        <time>2026-09-01T10:12:41Z</time>
      </trkpt>
      <trkpt lat="44.63852" lon="7.09707">
        <ele>2738.6</ele>
        <time>2026-09-01T10:12:46Z</time>
      </trkpt>
      <trkpt lat="44.63852" lon="7.09707">
        <ele>2738.6</ele>
        <time>2026-09-01T10:12:51Z</time>
      </trkpt>
      <trkpt lat="44.63852" lon="7.09707">
        <ele>2738.6</ele>
        <time>2026-09-01T10:12:57Z</time>
      </trkpt>
      <trkpt lat="44.63852" lon="7.09707">
        <ele>2738.6</ele>
        <time>2026-09-01T10:13:02Z</time>
      </trkpt>
      <trkpt lat="44.63852" lon="7.09707">
        <ele>2738.6</ele>
        <time>2026-09-01T10:13:07Z</time>
      </trkpt>
      <trkpt lat="44.63852" lon="7.09707">
        <ele>2738.6</ele>
        <time>2026-09-01T10:13:13Z</time>
      </trkpt>
      <trkpt lat="44.63852" lon="7.09707">
        <ele>2738.6</ele>
        <time>2026-09-01T10:13:18Z</time>
      </trkpt>
      <trkpt lat="44.63852" lon="7.09707">
        <ele>2738.6</ele>
        <time>2026-09-01T10:13:23Z</time>
      </trkpt>
      <trkpt lat="44.63852" lon="7.09707">
        <ele>2738.6</ele>
        <time>2026-09-01T10:13:29Z</time>
      </trkpt>
      <trkpt lat="44.63852" lon="7.09707">
        <ele>2738.6</ele>
        <time>2026-09-01T10:13:34Z</time>
      </trkpt>
      <trkpt lat="44.63852" lon="7.09707">
        <ele>2738.6</ele>
        <time>2026-09-01T10:13:39Z</time>
      </trkpt>
      <trkpt lat="44.63852" lon="7.09707">
        <ele>2738.6</ele>
        <time>2026-09-01T10:13:45Z</time>
      </trkpt>
      <trkpt lat="44.63852" lon="7.09707">
        <ele>2738.6</ele>
        <time>2026-09-01T10:13:50Z</time>
      </trkpt>
      <trkpt lat="44.63852" lon="7.09707">
        <ele>2738.6</ele>
        <time>2026-09-01T10:13:55Z</time>
      </trkpt>
      <trkpt lat="44.63852" lon="7.09707">
        <ele>2738.6</ele>
        <time>2026-09-01T10:14:01Z</time>
      </trkpt>
      <trkpt lat="44.63852" lon="7.09707">
        <ele>2738.6</ele>
        <time>2026-09-01T10:14:06Z</time>
      </trkpt>
      <trkpt lat="44.63852" lon="7.09707">
        <ele>2738.6</ele>
        <time>2026-09-01T10:14:11Z</time>
      </trkpt>
      <trkpt lat="44.63852" lon="7.09707">
        <ele>2738.6</ele>
        <time>2026-09-01T10:14:17Z</time>
      </trkpt>
      <trkpt lat="44.63852" lon="7.09707">
        <ele>2738.6</ele>
        <time>2026-09-01T10:14:22Z</time>
      </trkpt>
      <trkpt lat="44.63852" lon="7.09707">
        <ele>2738.6</ele>
        <time>2026-09-01T10:14:27Z</time>
      </trkpt>
      <trkpt lat="44.63852" lon="7.09707">
        <ele>2738.6</ele>
        <time>2026-09-01T10:14:33Z</time>
      </trkpt>
      <trkpt lat="44.63852" lon="7.09707">
        <ele>2738.6</ele>
        <time>2026-09-01T10:14:38Z</time>
      </trkpt>
      <trkpt lat="44.63852" lon="7.09707">
        <ele>2738.6</ele>
        <time>2026-09-01T10:14:43Z</time>
      </trkpt>
      <trkpt lat="44.63852" lon="7.09707">
        <ele>2738.6</ele>
        <time>2026-09-01T10:14:49Z</time>
      </trkpt>
      <trkpt lat="44.63852" lon="7.09707">
        <ele>2738.6</ele>
        <time>2026-09-01T10:14:54Z</time>
      </trkpt>
      <trkpt lat="44.63852" lon="7.09707">
        <ele>2738.6</ele>
        <time>2026-09-01T10:14:59Z</time>
      </trkpt>
      <trkpt lat="44.63852" lon="7.09707">
        <ele>2738.6</ele>
        <time>2026-09-01T10:15:05Z</time>
      </trkpt>
      <trkpt lat="44.63852" lon="7.09707">
        <ele>2738.6</ele>
        <time>2026-09-01T10:15:10Z</time>
      </trkpt>
      <trkpt lat="44.63852" lon="7.09707">
        <ele>2738.6</ele>
        <time>2026-09-01T10:15:15Z</time>
      </trkpt>
      <trkpt lat="44.63852" lon="7.09707">
        <ele>2738.6</ele>
        <time>2026-09-01T10:15:21Z</time>
      </trkpt>
      <trkpt lat="44.63852" lon="7.09707">
        <ele>2738.6</ele>
        <time>2026-09-01T10:15:26Z</time>
      </trkpt>
      <trkpt lat="44.63852" lon="7.09707">
        <ele>2738.6</ele>
        <time>2026-09-01T10:15:31Z</time>
      </trkpt>
      <trkpt lat="44.63852" lon="7.09707">
        <ele>2738.6</ele>
        <time>2026-09-01T10:15:37Z</time>
      </trkpt>
      <trkpt lat="44.63852" lon="7.09707">
        <ele>2738.6</ele>
        <time>2026-09-01T10:15:42Z</time>
      </trkpt>
      <trkpt lat="44.63852" lon="7.09707">
        <ele>2738.6</ele>
        <time>2026-09-01T10:15:47Z</time>
      </trkpt>
      <trkpt lat="44.63852" lon="7.09707">
        <ele>2738.6</ele>
        <time>2026-09-01T10:15:53Z</time>
      </trkpt>
      <trkpt lat="44.63852" lon="7.09707">
        <ele>2738.6</ele>
        <time>2026-09-01T10:15:58Z</time>
      </trkpt>
      <trkpt lat="44.63852" lon="7.09707">
        <ele>2738.6</ele>
        <time>2026-09-01T10:16:03Z</time>
      </trkpt>
      <trkpt lat="44.63852" lon="7.09707">
        <ele>2738.6</ele>
        <time>2026-09-01T10:16:09Z</time>
      </trkpt>
      <trkpt lat="44.63852" lon="7.09707">
        <ele>2738.6</ele>
        <time>2026-09-01T10:16:14Z</time>
      </trkpt>
      <trkpt lat="44.63852" lon="7.09707">
        <ele>2738.6</ele>
        <time>2026-09-01T10:16:19Z</time>
      </trkpt>
      <trkpt lat="44.63852" lon="7.09707">
        <ele>2738.6</ele>
        <time>2026-09-01T10:16:25Z</time>
      </trkpt>
      <trkpt lat="44.63852" lon="7.09707">
        <ele>2738.6</ele>
        <time>2026-09-01T10:16:30Z</time>
      </trkpt>
      <trkpt lat="44.63852" lon="7.09707">
        <ele>2738.6</ele>
        <time>2026-09-01T10:16:35Z</time>
      </trkpt>
      <trkpt lat="44.63852" lon="7.09707">
        <ele>2738.6</ele>
        <time>2026-09-01T10:16:41Z</time>
      </trkpt>
      <trkpt lat="44.63852" lon="7.09707">
        <ele>2738.6</ele>
        <time>2026-09-01T10:16:46Z</time>
      </trkpt>
      <trkpt lat="44.63852" lon="7.09707">
        <ele>2738.6</ele>
        <time>2026-09-01T10:16:51Z</time>
      </trkpt>
      <trkpt lat="44.63852" lon="7.09707">
        <ele>2738.6</ele>
        <time>2026-09-01T10:16:57Z</time>
      </trkpt>
      <trkpt lat="44.63856" lon="7.09717">
        <ele>2739.7</ele>
        <time>2026-09-01T10:17:02Z</time>
      </trkpt>
      <trkpt lat="44.63855" lon="7.09727">
        <ele>2742.8</ele>
        <time>2026-09-01T10:17:07Z</time>
      </trkpt>
      <trkpt lat="44.63857" lon="7.09733">
        <ele>2743.5</ele>
        <time>2026-09-01T10:17:13Z</time>
      </trkpt>
      <trkpt lat="44.63854" lon="7.09735">
        <ele>2745.3</ele>
        <time>2026-09-01T10:17:18Z</time>
      </trkpt>
      <trkpt lat="44.63853" lon="7.0974">
        <ele>2747.1</ele>
        <time>2026-09-01T10:17:23Z</time>
      </trkpt>
      <trkpt lat="44.63855" lon="7.09746">
        <ele>2747.8</ele>
        <time>2026-09-01T10:17:29Z</time>
      </trkpt>
      <trkpt lat="44.63857" lon="7.09751">
        <ele>2748</ele>
        <time>2026-09-01T10:17:34Z</time>
      </trkpt>
      <trkpt lat="44.63858" lon="7.09755">
        <ele>2748.1</ele>
        <time>2026-09-01T10:17:39Z</time>
      </trkpt>
      <trkpt lat="44.63861" lon="7.09761">
        <ele>2747.4</ele>
        <time>2026-09-01T10:17:45Z</time>
      </trkpt>
      <trkpt lat="44.63864" lon="7.09765">
        <ele>2746.4</ele>
        <time>2026-09-01T10:17:50Z</time>
      </trkpt>
      <trkpt lat="44.63867" lon="7.09769">
        <ele>2745.5</ele>
        <time>2026-09-01T10:17:55Z</time>
      </trkpt>
      <trkpt lat="44.63873" lon="7.09774">
        <ele>2743.2</ele>
        <time>2026-09-01T10:18:01Z</time>
      </trkpt>
      <trkpt lat="44.63876" lon="7.09779">
        <ele>2742.3</ele>
        <time>2026-09-01T10:18:06Z</time>
      </trkpt>
      <trkpt lat="44.6388" lon="7.09782">
        <ele>2740.7</ele>
        <time>2026-09-01T10:18:11Z</time>
      </trkpt>
      <trkpt lat="44.63882" lon="7.0979">
        <ele>2740.7</ele>
        <time>2026-09-01T10:18:17Z</time>
      </trkpt>
      <trkpt lat="44.63882" lon="7.09795">
        <ele>2741.2</ele>
        <time>2026-09-01T10:18:22Z</time>
      </trkpt>
      <trkpt lat="44.63882" lon="7.09801">
        <ele>2741.9</ele>
        <time>2026-09-01T10:18:27Z</time>
      </trkpt>
      <trkpt lat="44.63881" lon="7.09807">
        <ele>2743</ele>
        <time>2026-09-01T10:18:33Z</time>
      </trkpt>
      <trkpt lat="44.63883" lon="7.09811">
        <ele>2742.5</ele>
        <time>2026-09-01T10:18:38Z</time>
      </trkpt>
      <trkpt lat="44.63887" lon="7.09814">
        <ele>2740.8</ele>
        <time>2026-09-01T10:18:43Z</time>
      </trkpt>
      <trkpt lat="44.6389" lon="7.0982">
        <ele>2740</ele>
        <time>2026-09-01T10:18:49Z</time>
      </trkpt>
      <trkpt lat="44.63893" lon="7.09825">
        <ele>2739</ele>
        <time>2026-09-01T10:18:54Z</time>
      </trkpt>
      <trkpt lat="44.63895" lon="7.09831">
        <ele>2738.7</ele>
        <time>2026-09-01T10:18:59Z</time>
      </trkpt>
      <trkpt lat="44.63898" lon="7.09836">
        <ele>2737.7</ele>
        <time>2026-09-01T10:19:05Z</time>
      </trkpt>
      <trkpt lat="44.63902" lon="7.09839">
        <ele>2736</ele>
        <time>2026-09-01T10:19:10Z</time>
      </trkpt>
      <trkpt lat="44.63904" lon="7.09842">
        <ele>2735.3</ele>
        <time>2026-09-01T10:19:15Z</time>
      </trkpt>
      <trkpt lat="44.63909" lon="7.09844">
        <ele>2733.1</ele>
        <time>2026-09-01T10:19:21Z</time>
      </trkpt>
      <trkpt lat="44.63912" lon="7.09847">
        <ele>2731.9</ele>
        <time>2026-09-01T10:19:26Z</time>
      </trkpt>
      <trkpt lat="44.63915" lon="7.09848">
        <ele>2730.6</ele>
        <time>2026-09-01T10:19:31Z</time>
      </trkpt>
      <trkpt lat="44.6392" lon="7.09849">
        <ele>2729.2</ele>
        <time>2026-09-01T10:19:37Z</time>
      </trkpt>
      <trkpt lat="44.63923" lon="7.09849">
        <ele>2728.5</ele>
        <time>2026-09-01T10:19:42Z</time>
      </trkpt>
      <trkpt lat="44.63924" lon="7.09848">
        <ele>2728.2</ele>
        <time>2026-09-01T10:19:47Z</time>
      </trkpt>
      <trkpt lat="44.63924" lon="7.09848">
        <ele>2728.2</ele>
        <time>2026-09-01T10:19:53Z</time>
      </trkpt>
      <trkpt lat="44.63924" lon="7.09848">
        <ele>2728.2</ele>
        <time>2026-09-01T10:19:58Z</time>
      </trkpt>
      <trkpt lat="44.63924" lon="7.09851">
        <ele>2728.5</ele>
        <time>2026-09-01T10:20:03Z</time>
      </trkpt>
      <trkpt lat="44.63923" lon="7.09859">
        <ele>2729.7</ele>
        <time>2026-09-01T10:20:09Z</time>
      </trkpt>
      <trkpt lat="44.63923" lon="7.09865">
        <ele>2730.4</ele>
        <time>2026-09-01T10:20:14Z</time>
      </trkpt>
      <trkpt lat="44.63925" lon="7.09871">
        <ele>2730.6</ele>
        <time>2026-09-01T10:20:19Z</time>
      </trkpt>
      <trkpt lat="44.63926" lon="7.09877">
        <ele>2731</ele>
        <time>2026-09-01T10:20:25Z</time>
      </trkpt>
      <trkpt lat="44.63927" lon="7.09883">
        <ele>2731.5</ele>
        <time>2026-09-01T10:20:30Z</time>
      </trkpt>
      <trkpt lat="44.63928" lon="7.09888">
        <ele>2731.8</ele>
        <time>2026-09-01T10:20:35Z</time>
      </trkpt>
      <trkpt lat="44.63929" lon="7.09892">
        <ele>2732</ele>
        <time>2026-09-01T10:20:41Z</time>
      </trkpt>
      <trkpt lat="44.63928" lon="7.09897">
        <ele>2732.8</ele>
        <time>2026-09-01T10:20:46Z</time>
      </trkpt>
      <trkpt lat="44.63927" lon="7.09902">
        <ele>2733.6</ele>
        <time>2026-09-01T10:20:51Z</time>
      </trkpt>
      <trkpt lat="44.63929" lon="7.09907">
        <ele>2733.7</ele>
        <time>2026-09-01T10:20:57Z</time>
      </trkpt>
      <trkpt lat="44.63929" lon="7.09913">
        <ele>2734.3</ele>
        <time>2026-09-01T10:21:02Z</time>
      </trkpt>
      <trkpt lat="44.63931" lon="7.09917">
        <ele>2734.2</ele>
        <time>2026-09-01T10:21:07Z</time>
      </trkpt>
      <trkpt lat="44.63936" lon="7.0992">
        <ele>2733</ele>
        <time>2026-09-01T10:21:13Z</time>
      </trkpt>
      <trkpt lat="44.63939" lon="7.09924">
        <ele>2732.4</ele>
        <time>2026-09-01T10:21:18Z</time>
      </trkpt>
      <trkpt lat="44.63942" lon="7.09928">
        <ele>2731.8</ele>
        <time>2026-09-01T10:21:23Z</time>
      </trkpt>
      <trkpt lat="44.63946" lon="7.09932">
        <ele>2730.9</ele>
        <time>2026-09-01T10:21:29Z</time>
      </trkpt>
      <trkpt lat="44.63946" lon="7.09932">
        <ele>2730.9</ele>
        <time>2026-09-01T10:21:34Z</time>
      </trkpt>
      <trkpt lat="44.63946" lon="7.09932">
        <ele>2730.9</ele>
        <time>2026-09-01T10:21:39Z</time>
      </trkpt>
      <trkpt lat="44.63946" lon="7.09932">
        <ele>2730.9</ele>
        <time>2026-09-01T10:21:45Z</time>
      </trkpt>
      <trkpt lat="44.63946" lon="7.09932">
        <ele>2730.9</ele>
        <time>2026-09-01T10:21:50Z</time>
      </trkpt>
      <trkpt lat="44.63946" lon="7.09932">
        <ele>2730.9</ele>
        <time>2026-09-01T10:21:55Z</time>
      </trkpt>
      <trkpt lat="44.63946" lon="7.09932">
        <ele>2730.9</ele>
        <time>2026-09-01T10:22:01Z</time>
      </trkpt>
      <trkpt lat="44.63946" lon="7.09932">
        <ele>2730.9</ele>
        <time>2026-09-01T10:22:06Z</time>
      </trkpt>
      <trkpt lat="44.63946" lon="7.09941">
        <ele>2731.3</ele>
        <time>2026-09-01T10:22:11Z</time>
      </trkpt>
      <trkpt lat="44.63951" lon="7.09942">
        <ele>2730.1</ele>
        <time>2026-09-01T10:22:17Z</time>
      </trkpt>
      <trkpt lat="44.63955" lon="7.09941">
        <ele>2729</ele>
        <time>2026-09-01T10:22:22Z</time>
      </trkpt>
      <trkpt lat="44.63959" lon="7.09944">
        <ele>2728.1</ele>
        <time>2026-09-01T10:22:27Z</time>
      </trkpt>
      <trkpt lat="44.63963" lon="7.0995">
        <ele>2727.4</ele>
        <time>2026-09-01T10:22:33Z</time>
      </trkpt>
      <trkpt lat="44.63967" lon="7.09955">
        <ele>2726.6</ele>
        <time>2026-09-01T10:22:38Z</time>
      </trkpt>
      <trkpt lat="44.63971" lon="7.09958">
        <ele>2725.8</ele>
        <time>2026-09-01T10:22:43Z</time>
      </trkpt>
      <trkpt lat="44.63973" lon="7.09966">
        <ele>2725.7</ele>
        <time>2026-09-01T10:22:49Z</time>
      </trkpt>
      <trkpt lat="44.63976" lon="7.09972">
        <ele>2725.3</ele>
        <time>2026-09-01T10:22:54Z</time>
      </trkpt>
      <trkpt lat="44.63977" lon="7.09975">
        <ele>2725.2</ele>
        <time>2026-09-01T10:22:59Z</time>
      </trkpt>
      <trkpt lat="44.63975" lon="7.09978">
        <ele>2725.8</ele>
        <time>2026-09-01T10:23:05Z</time>
      </trkpt>
      <trkpt lat="44.63975" lon="7.09978">
        <ele>2725.8</ele>
        <time>2026-09-01T10:23:10Z</time>
      </trkpt>
      <trkpt lat="44.63975" lon="7.09979">
        <ele>2725.9</ele>
        <time>2026-09-01T10:23:15Z</time>
      </trkpt>
      <trkpt lat="44.63976" lon="7.09987">
        <ele>2726.1</ele>
        <time>2026-09-01T10:23:21Z</time>
      </trkpt>
      <trkpt lat="44.63981" lon="7.09993">
        <ele>2725.2</ele>
        <time>2026-09-01T10:23:26Z</time>
      </trkpt>
      <trkpt lat="44.63983" lon="7.09999">
        <ele>2725</ele>
        <time>2026-09-01T10:23:31Z</time>
      </trkpt>
      <trkpt lat="44.63986" lon="7.10004">
        <ele>2724.9</ele>
        <time>2026-09-01T10:23:37Z</time>
      </trkpt>
      <trkpt lat="44.63987" lon="7.10008">
        <ele>2725.1</ele>
        <time>2026-09-01T10:23:42Z</time>
      </trkpt>
      <trkpt lat="44.63988" lon="7.10012">
        <ele>2725.4</ele>
        <time>2026-09-01T10:23:47Z</time>
      </trkpt>
      <trkpt lat="44.63989" lon="7.10017">
        <ele>2725.8</ele>
        <time>2026-09-01T10:23:53Z</time>
      </trkpt>
      <trkpt lat="44.63991" lon="7.10022">
        <ele>2725.9</ele>
        <time>2026-09-01T10:23:58Z</time>
      </trkpt>
      <trkpt lat="44.63992" lon="7.10025">
        <ele>2726.1</ele>
        <time>2026-09-01T10:24:03Z</time>
      </trkpt>
      <trkpt lat="44.63993" lon="7.10029">
        <ele>2726.4</ele>
        <time>2026-09-01T10:24:09Z</time>
      </trkpt>
      <trkpt lat="44.63993" lon="7.10029">
        <ele>2726.4</ele>
        <time>2026-09-01T10:24:14Z</time>
      </trkpt>
      <trkpt lat="44.63993" lon="7.10029">
        <ele>2726.4</ele>
        <time>2026-09-01T10:24:19Z</time>
      </trkpt>
      <trkpt lat="44.63993" lon="7.10029">
        <ele>2726.4</ele>
        <time>2026-09-01T10:24:25Z</time>
      </trkpt>
      <trkpt lat="44.63992" lon="7.10036">
        <ele>2727.5</ele>
        <time>2026-09-01T10:24:30Z</time>
      </trkpt>
      <trkpt lat="44.63996" lon="7.10039">
        <ele>2727</ele>
        <time>2026-09-01T10:24:35Z</time>
      </trkpt>
      <trkpt lat="44.63998" lon="7.10042">
        <ele>2727</ele>
        <time>2026-09-01T10:24:41Z</time>
      </trkpt>
      <trkpt lat="44.64" lon="7.10045">
        <ele>2726.9</ele>
        <time>2026-09-01T10:24:46Z</time>
      </trkpt>
      <trkpt lat="44.64001" lon="7.10047">
        <ele>2727.2</ele>
        <time>2026-09-01T10:24:51Z</time>
      </trkpt>
      <trkpt lat="44.64003" lon="7.1005">
        <ele>2727.7</ele>
        <time>2026-09-01T10:24:57Z</time>
      </trkpt>
      <trkpt lat="44.64004" lon="7.10054">
        <ele>2728.3</ele>
        <time>2026-09-01T10:25:02Z</time>
      </trkpt>
      <trkpt lat="44.64006" lon="7.10057">
        <ele>2728.7</ele>
        <time>2026-09-01T10:25:07Z</time>
      </trkpt>
      <trkpt lat="44.64009" lon="7.1006">
        <ele>2729.2</ele>
        <time>2026-09-01T10:25:13Z</time>
      </trkpt>
      <trkpt lat="44.64009" lon="7.10062">
        <ele>2729.5</ele>
        <time>2026-09-01T10:25:18Z</time>
      </trkpt>
      <trkpt lat="44.64009" lon="7.10063">
        <ele>2729.6</ele>
        <time>2026-09-01T10:25:23Z</time>
      </trkpt>
      <trkpt lat="44.64009" lon="7.10063">
        <ele>2729.6</ele>
        <time>2026-09-01T10:25:29Z</time>
      </trkpt>
      <trkpt lat="44.64009" lon="7.10063">
        <ele>2729.6</ele>
        <time>2026-09-01T10:25:34Z</time>
      </trkpt>
      <trkpt lat="44.64009" lon="7.10063">
        <ele>2729.6</ele>
        <time>2026-09-01T10:25:39Z</time>
      </trkpt>
      <trkpt lat="44.64007" lon="7.10068">
        <ele>2730.2</ele>
        <time>2026-09-01T10:25:45Z</time>
      </trkpt>
      <trkpt lat="44.64008" lon="7.10072">
        <ele>2730.7</ele>
        <time>2026-09-01T10:25:50Z</time>
      </trkpt>
      <trkpt lat="44.64008" lon="7.10075">
        <ele>2731.1</ele>
        <time>2026-09-01T10:25:55Z</time>
      </trkpt>
      <trkpt lat="44.64004" lon="7.10081">
        <ele>2731.8</ele>
        <time>2026-09-01T10:26:01Z</time>
      </trkpt>
      <trkpt lat="44.64001" lon="7.10085">
        <ele>2732.2</ele>
        <time>2026-09-01T10:26:06Z</time>
      </trkpt>
      <trkpt lat="44.64002" lon="7.10089">
        <ele>2732.8</ele>
        <time>2026-09-01T10:26:11Z</time>
      </trkpt>
      <trkpt lat="44.64" lon="7.10095">
        <ele>2733.5</ele>
        <time>2026-09-01T10:26:17Z</time>
      </trkpt>
      <trkpt lat="44.63998" lon="7.10099">
        <ele>2734.5</ele>
        <time>2026-09-01T10:26:22Z</time>
      </trkpt>
      <trkpt lat="44.63996" lon="7.10104">
        <ele>2735.6</ele>
        <time>2026-09-01T10:26:27Z</time>
      </trkpt>
      <trkpt lat="44.63996" lon="7.10112">
        <ele>2736.7</ele>
        <time>2026-09-01T10:26:33Z</time>
      </trkpt>
      <trkpt lat="44.63998" lon="7.10112">
        <ele>2736.2</ele>
        <time>2026-09-01T10:26:38Z</time>
      </trkpt>
      <trkpt lat="44.63998" lon="7.10112">
        <ele>2736.2</ele>
        <time>2026-09-01T10:26:43Z</time>
      </trkpt>
      <trkpt lat="44.63998" lon="7.10112">
        <ele>2736.2</ele>
        <time>2026-09-01T10:26:49Z</time>
      </trkpt>
      <trkpt lat="44.63998" lon="7.10112">
        <ele>2736.2</ele>
        <time>2026-09-01T10:26:54Z</time>
      </trkpt>
      <trkpt lat="44.63998" lon="7.10112">
        <ele>2736.2</ele>
        <time>2026-09-01T10:26:59Z</time>
      </trkpt>
      <trkpt lat="44.63997" lon="7.10121">
        <ele>2737.7</ele>
        <time>2026-09-01T10:27:05Z</time>
      </trkpt>
      <trkpt lat="44.64" lon="7.10127">
        <ele>2737.8</ele>
        <time>2026-09-01T10:27:10Z</time>
      </trkpt>
      <trkpt lat="44.64003" lon="7.10133">
        <ele>2738.5</ele>
        <time>2026-09-01T10:27:15Z</time>
      </trkpt>
      <trkpt lat="44.64006" lon="7.10141">
        <ele>2739.4</ele>
        <time>2026-09-01T10:27:21Z</time>
      </trkpt>
      <trkpt lat="44.64006" lon="7.10147">
        <ele>2740.2</ele>
        <time>2026-09-01T10:27:26Z</time>
      </trkpt>
      <trkpt lat="44.64004" lon="7.10154">
        <ele>2741.1</ele>
        <time>2026-09-01T10:27:31Z</time>
      </trkpt>
      <trkpt lat="44.64002" lon="7.10159">
        <ele>2741.9</ele>
        <time>2026-09-01T10:27:37Z</time>
      </trkpt>
      <trkpt lat="44.64002" lon="7.10162">
        <ele>2742.3</ele>
        <time>2026-09-01T10:27:42Z</time>
      </trkpt>
      <trkpt lat="44.64003" lon="7.10167">
        <ele>2742.9</ele>
        <time>2026-09-01T10:27:47Z</time>
      </trkpt>
      <trkpt lat="44.64006" lon="7.10171">
        <ele>2743.7</ele>
        <time>2026-09-01T10:27:53Z</time>
      </trkpt>
      <trkpt lat="44.64008" lon="7.10173">
        <ele>2744.1</ele>
        <time>2026-09-01T10:27:58Z</time>
      </trkpt>
      <trkpt lat="44.64009" lon="7.10176">
        <ele>2744.8</ele>
        <time>2026-09-01T10:28:03Z</time>
      </trkpt>
      <trkpt lat="44.64009" lon="7.10176">
        <ele>2744.8</ele>
        <time>2026-09-01T10:28:09Z</time>
      </trkpt>
      <trkpt lat="44.64009" lon="7.10176">
        <ele>2744.8</ele>
        <time>2026-09-01T10:28:14Z</time>
      </trkpt>
      <trkpt lat="44.64012" lon="7.10176">
        <ele>2744.6</ele>
        <time>2026-09-01T10:28:19Z</time>
      </trkpt>
      <trkpt lat="44.64012" lon="7.1018">
        <ele>2745.5</ele>
        <time>2026-09-01T10:28:25Z</time>
      </trkpt>
      <trkpt lat="44.64015" lon="7.10183">
        <ele>2746</ele>
        <time>2026-09-01T10:28:30Z</time>
      </trkpt>
      <trkpt lat="44.64016" lon="7.10186">
        <ele>2746.6</ele>
        <time>2026-09-01T10:28:35Z</time>
      </trkpt>
      <trkpt lat="44.6402" lon="7.10191">
        <ele>2747.4</ele>
        <time>2026-09-01T10:28:41Z</time>
      </trkpt>
      <trkpt lat="44.64023" lon="7.10195">
        <ele>2748</ele>
        <time>2026-09-01T10:28:46Z</time>
      </trkpt>
      <trkpt lat="44.64022" lon="7.10198">
        <ele>2748.8</ele>
        <time>2026-09-01T10:28:51Z</time>
      </trkpt>
      <trkpt lat="44.64023" lon="7.10203">
        <ele>2749.8</ele>
        <time>2026-09-01T10:28:57Z</time>
      </trkpt>
      <trkpt lat="44.64025" lon="7.10208">
        <ele>2750.6</ele>
        <time>2026-09-01T10:29:02Z</time>
      </trkpt>
      <trkpt lat="44.64024" lon="7.10214">
        <ele>2752.1</ele>
        <time>2026-09-01T10:29:07Z</time>
      </trkpt>
      <trkpt lat="44.64023" lon="7.10218">
        <ele>2753.1</ele>
        <time>2026-09-01T10:29:13Z</time>
      </trkpt>
      <trkpt lat="44.64024" lon="7.10222">
        <ele>2753.9</ele>
        <time>2026-09-01T10:29:18Z</time>
      </trkpt>
      <trkpt lat="44.64025" lon="7.10223">
        <ele>2753.9</ele>
        <time>2026-09-01T10:29:23Z</time>
      </trkpt>
      <trkpt lat="44.64025" lon="7.10223">
        <ele>2753.9</ele>
        <time>2026-09-01T10:29:29Z</time>
      </trkpt>
      <trkpt lat="44.64025" lon="7.10223">
        <ele>2753.9</ele>
        <time>2026-09-01T10:29:34Z</time>
      </trkpt>
      <trkpt lat="44.64028" lon="7.10226">
        <ele>2754.1</ele>
        <time>2026-09-01T10:29:39Z</time>
      </trkpt>
      <trkpt lat="44.64031" lon="7.10231">
        <ele>2754.7</ele>
        <time>2026-09-01T10:29:45Z</time>
      </trkpt>
      <trkpt lat="44.64032" lon="7.10235">
        <ele>2755.3</ele>
        <time>2026-09-01T10:29:50Z</time>
      </trkpt>
      <trkpt lat="44.64035" lon="7.10237">
        <ele>2755.2</ele>
        <time>2026-09-01T10:29:55Z</time>
      </trkpt>
      <trkpt lat="44.64036" lon="7.10236">
        <ele>2754.8</ele>
        <time>2026-09-01T10:30:01Z</time>
      </trkpt>
      <trkpt lat="44.64035" lon="7.10239">
        <ele>2755.6</ele>
        <time>2026-09-01T10:30:06Z</time>
      </trkpt>
      <trkpt lat="44.64034" lon="7.10244">
        <ele>2756.8</ele>
        <time>2026-09-01T10:30:11Z</time>
      </trkpt>
      <trkpt lat="44.64037" lon="7.10252">
        <ele>2757.8</ele>
        <time>2026-09-01T10:30:17Z</time>
      </trkpt>
      <trkpt lat="44.64036" lon="7.10257">
        <ele>2758.9</ele>
        <time>2026-09-01T10:30:22Z</time>
      </trkpt>
      <trkpt lat="44.64036" lon="7.10257">
        <ele>2758.9</ele>
        <time>2026-09-01T10:30:27Z</time>
      </trkpt>
      <trkpt lat="44.64036" lon="7.10257">
        <ele>2758.9</ele>
        <time>2026-09-01T10:30:33Z</time>
      </trkpt>
      <trkpt lat="44.64036" lon="7.10257">
        <ele>2758.9</ele>
        <time>2026-09-01T10:30:38Z</time>
      </trkpt>
      <trkpt lat="44.64037" lon="7.10259">
        <ele>2759.1</ele>
        <time>2026-09-01T10:30:43Z</time>
      </trkpt>
      <trkpt lat="44.64037" lon="7.10266">
        <ele>2760.3</ele>
        <time>2026-09-01T10:30:49Z</time>
      </trkpt>
      <trkpt lat="44.64036" lon="7.10271">
        <ele>2761.4</ele>
        <time>2026-09-01T10:30:54Z</time>
      </trkpt>
      <trkpt lat="44.64032" lon="7.10275">
        <ele>2763.1</ele>
        <time>2026-09-01T10:30:59Z</time>
      </trkpt>
      <trkpt lat="44.64029" lon="7.10278">
        <ele>2764.3</ele>
        <time>2026-09-01T10:31:05Z</time>
      </trkpt>
      <trkpt lat="44.64028" lon="7.10281">
        <ele>2765.1</ele>
        <time>2026-09-01T10:31:10Z</time>
      </trkpt>
      <trkpt lat="44.64029" lon="7.10283">
        <ele>2765.2</ele>
        <time>2026-09-01T10:31:15Z</time>
      </trkpt>
      <trkpt lat="44.64028" lon="7.1029">
        <ele>2766.8</ele>
        <time>2026-09-01T10:31:21Z</time>
      </trkpt>
      <trkpt lat="44.64028" lon="7.1029">
        <ele>2766.8</ele>
        <time>2026-09-01T10:31:26Z</time>
      </trkpt>
      <trkpt lat="44.64029" lon="7.10293">
        <ele>2767.1</ele>
        <time>2026-09-01T10:31:31Z</time>
      </trkpt>
      <trkpt lat="44.64028" lon="7.103">
        <ele>2768.7</ele>
        <time>2026-09-01T10:31:37Z</time>
      </trkpt>
      <trkpt lat="44.64029" lon="7.10304">
        <ele>2769.2</ele>
        <time>2026-09-01T10:31:42Z</time>
      </trkpt>
      <trkpt lat="44.64031" lon="7.10309">
        <ele>2769.6</ele>
        <time>2026-09-01T10:31:47Z</time>
      </trkpt>
      <trkpt lat="44.64031" lon="7.10315">
        <ele>2770.7</ele>
        <time>2026-09-01T10:31:53Z</time>
      </trkpt>
      <trkpt lat="44.64031" lon="7.10321">
        <ele>2771.8</ele>
        <time>2026-09-01T10:31:58Z</time>
      </trkpt>
      <trkpt lat="44.64032" lon="7.10328">
        <ele>2772.8</ele>
        <time>2026-09-01T10:32:03Z</time>
      </trkpt>
      <trkpt lat="44.64031" lon="7.10335">
        <ele>2774.2</ele>
        <time>2026-09-01T10:32:09Z</time>
      </trkpt>
      <trkpt lat="44.64035" lon="7.10341">
        <ele>2773.6</ele>
        <time>2026-09-01T10:32:14Z</time>
      </trkpt>
      <trkpt lat="44.64035" lon="7.10342">
        <ele>2773.7</ele>
        <time>2026-09-01T10:32:19Z</time>
      </trkpt>
      <trkpt lat="44.64036" lon="7.10342">
        <ele>2773.4</ele>
        <time>2026-09-01T10:32:25Z</time>
      </trkpt>
      <trkpt lat="44.64036" lon="7.10342">
        <ele>2773.4</ele>
        <time>2026-09-01T10:32:30Z</time>
      </trkpt>
      <trkpt lat="44.64036" lon="7.10342">
        <ele>2773.4</ele>
        <time>2026-09-01T10:32:35Z</time>
      </trkpt>
      <trkpt lat="44.64036" lon="7.10342">
        <ele>2773.4</ele>
        <time>2026-09-01T10:32:41Z</time>
      </trkpt>
      <trkpt lat="44.64036" lon="7.10342">
        <ele>2773.4</ele>
        <time>2026-09-01T10:32:46Z</time>
      </trkpt>
      <trkpt lat="44.64036" lon="7.10342">
        <ele>2773.4</ele>
        <time>2026-09-01T10:32:51Z</time>
      </trkpt>
      <trkpt lat="44.64036" lon="7.10342">
        <ele>2773.4</ele>
        <time>2026-09-01T10:32:57Z</time>
      </trkpt>
      <trkpt lat="44.64036" lon="7.10342">
        <ele>2773.4</ele>
        <time>2026-09-01T10:33:02Z</time>
      </trkpt>
      <trkpt lat="44.64036" lon="7.10342">
        <ele>2773.4</ele>
        <time>2026-09-01T10:33:07Z</time>
      </trkpt>
      <trkpt lat="44.64036" lon="7.10342">
        <ele>2773.4</ele>
        <time>2026-09-01T10:33:13Z</time>
      </trkpt>
      <trkpt lat="44.64036" lon="7.10342">
        <ele>2773.4</ele>
        <time>2026-09-01T10:33:18Z</time>
      </trkpt>
      <trkpt lat="44.64036" lon="7.10342">
        <ele>2773.4</ele>
        <time>2026-09-01T10:33:23Z</time>
      </trkpt>
      <trkpt lat="44.64039" lon="7.10354">
        <ele>2773.7</ele>
        <time>2026-09-01T10:33:29Z</time>
      </trkpt>
      <trkpt lat="44.64042" lon="7.10359">
        <ele>2773.2</ele>
        <time>2026-09-01T10:33:34Z</time>
      </trkpt>
      <trkpt lat="44.64043" lon="7.10364">
        <ele>2773.4</ele>
        <time>2026-09-01T10:33:39Z</time>
      </trkpt>
      <trkpt lat="44.64043" lon="7.10369">
        <ele>2773.8</ele>
        <time>2026-09-01T10:33:45Z</time>
      </trkpt>
      <trkpt lat="44.64045" lon="7.10375">
        <ele>2773.7</ele>
        <time>2026-09-01T10:33:50Z</time>
      </trkpt>
      <trkpt lat="44.64047" lon="7.10381">
        <ele>2773.6</ele>
        <time>2026-09-01T10:33:55Z</time>
      </trkpt>
      <trkpt lat="44.64049" lon="7.10387">
        <ele>2773.5</ele>
        <time>2026-09-01T10:34:01Z</time>
      </trkpt>
      <trkpt lat="44.64052" lon="7.10394">
        <ele>2773.2</ele>
        <time>2026-09-01T10:34:06Z</time>
      </trkpt>
      <trkpt lat="44.64053" lon="7.104">
        <ele>2773.4</ele>
        <time>2026-09-01T10:34:11Z</time>
      </trkpt>
      <trkpt lat="44.64054" lon="7.10407">
        <ele>2773.7</ele>
        <time>2026-09-01T10:34:17Z</time>
      </trkpt>
      <trkpt lat="44.64054" lon="7.10413">
        <ele>2774.2</ele>
        <time>2026-09-01T10:34:22Z</time>
      </trkpt>
      <trkpt lat="44.64055" lon="7.10419">
        <ele>2774.5</ele>
        <time>2026-09-01T10:34:27Z</time>
      </trkpt>
      <trkpt lat="44.6406" lon="7.10425">
        <ele>2773.6</ele>
        <time>2026-09-01T10:34:33Z</time>
      </trkpt>
      <trkpt lat="44.64062" lon="7.10432">
        <ele>2773.8</ele>
        <time>2026-09-01T10:34:38Z</time>
      </trkpt>
      <trkpt lat="44.64065" lon="7.10438">
        <ele>2773.5</ele>
        <time>2026-09-01T10:34:43Z</time>
      </trkpt>
      <trkpt lat="44.64067" lon="7.10448">
        <ele>2774</ele>
        <time>2026-09-01T10:34:49Z</time>
      </trkpt>
      <trkpt lat="44.64068" lon="7.10455">
        <ele>2774.5</ele>
        <time>2026-09-01T10:34:54Z</time>
      </trkpt>
      <trkpt lat="44.64068" lon="7.10458">
        <ele>2774.9</ele>
        <time>2026-09-01T10:34:59Z</time>
      </trkpt>
      <trkpt lat="44.64069" lon="7.10463">
        <ele>2775.1</ele>
        <time>2026-09-01T10:35:05Z</time>
      </trkpt>
      <trkpt lat="44.64068" lon="7.10468">
        <ele>2776.1</ele>
        <time>2026-09-01T10:35:10Z</time>
      </trkpt>
      <trkpt lat="44.64069" lon="7.10473">
        <ele>2776.3</ele>
        <time>2026-09-01T10:35:15Z</time>
      </trkpt>
      <trkpt lat="44.64072" lon="7.10479">
        <ele>2775.9</ele>
        <time>2026-09-01T10:35:21Z</time>
      </trkpt>
      <trkpt lat="44.64074" lon="7.10485">
        <ele>2775.9</ele>
        <time>2026-09-01T10:35:26Z</time>
      </trkpt>
      <trkpt lat="44.64075" lon="7.10486">
        <ele>2775.6</ele>
        <time>2026-09-01T10:35:31Z</time>
      </trkpt>
      <trkpt lat="44.64075" lon="7.10486">
        <ele>2775.6</ele>
        <time>2026-09-01T10:35:37Z</time>
      </trkpt>
      <trkpt lat="44.64075" lon="7.10486">
        <ele>2775.6</ele>
        <time>2026-09-01T10:35:42Z</time>
      </trkpt>
      <trkpt lat="44.64072" lon="7.10491">
        <ele>2777.3</ele>
        <time>2026-09-01T10:35:47Z</time>
      </trkpt>
      <trkpt lat="44.64069" lon="7.10499">
        <ele>2779.4</ele>
        <time>2026-09-01T10:35:53Z</time>
      </trkpt>
      <trkpt lat="44.64069" lon="7.10502">
        <ele>2779.9</ele>
        <time>2026-09-01T10:35:58Z</time>
      </trkpt>
      <trkpt lat="44.64071" lon="7.10507">
        <ele>2780</ele>
        <time>2026-09-01T10:36:03Z</time>
      </trkpt>
      <trkpt lat="44.64073" lon="7.1051">
        <ele>2779.7</ele>
        <time>2026-09-01T10:36:09Z</time>
      </trkpt>
      <trkpt lat="44.64078" lon="7.10514">
        <ele>2778.4</ele>
        <time>2026-09-01T10:36:14Z</time>
      </trkpt>
      <trkpt lat="44.64078" lon="7.10519">
        <ele>2779.2</ele>
        <time>2026-09-01T10:36:19Z</time>
      </trkpt>
      <trkpt lat="44.64082" lon="7.10526">
        <ele>2778.6</ele>
        <time>2026-09-01T10:36:25Z</time>
      </trkpt>
      <trkpt lat="44.64083" lon="7.1053">
        <ele>2778.8</ele>
        <time>2026-09-01T10:36:30Z</time>
      </trkpt>
      <trkpt lat="44.64086" lon="7.10534">
        <ele>2778.6</ele>
        <time>2026-09-01T10:36:35Z</time>
      </trkpt>
      <trkpt lat="44.6409" lon="7.10542">
        <ele>2778.8</ele>
        <time>2026-09-01T10:36:41Z</time>
      </trkpt>
      <trkpt lat="44.64091" lon="7.10547">
        <ele>2779.3</ele>
        <time>2026-09-01T10:36:46Z</time>
      </trkpt>
      <trkpt lat="44.64093" lon="7.10551">
        <ele>2779.4</ele>
        <time>2026-09-01T10:36:51Z</time>
      </trkpt>
      <trkpt lat="44.64094" lon="7.10556">
        <ele>2780</ele>
        <time>2026-09-01T10:36:57Z</time>
      </trkpt>
      <trkpt lat="44.64095" lon="7.10563">
        <ele>2780.8</ele>
        <time>2026-09-01T10:37:02Z</time>
      </trkpt>
      <trkpt lat="44.64096" lon="7.10569">
        <ele>2781.4</ele>
        <time>2026-09-01T10:37:07Z</time>
      </trkpt>
      <trkpt lat="44.64097" lon="7.10573">
        <ele>2781.8</ele>
        <time>2026-09-01T10:37:13Z</time>
      </trkpt>
      <trkpt lat="44.64096" lon="7.10577">
        <ele>2782.7</ele>
        <time>2026-09-01T10:37:18Z</time>
      </trkpt>
      <trkpt lat="44.64096" lon="7.10581">
        <ele>2783.3</ele>
        <time>2026-09-01T10:37:23Z</time>
      </trkpt>
      <trkpt lat="44.64097" lon="7.10586">
        <ele>2784.2</ele>
        <time>2026-09-01T10:37:29Z</time>
      </trkpt>
      <trkpt lat="44.64099" lon="7.10588">
        <ele>2784.3</ele>
        <time>2026-09-01T10:37:34Z</time>
      </trkpt>
      <trkpt lat="44.64102" lon="7.10588">
        <ele>2783.5</ele>
        <time>2026-09-01T10:37:39Z</time>
      </trkpt>
      <trkpt lat="44.64103" lon="7.10591">
        <ele>2784.1</ele>
        <time>2026-09-01T10:37:45Z</time>
      </trkpt>
      <trkpt lat="44.64102" lon="7.10593">
        <ele>2785</ele>
        <time>2026-09-01T10:37:50Z</time>
      </trkpt>
      <trkpt lat="44.641" lon="7.10597">
        <ele>2786.8</ele>
        <time>2026-09-01T10:37:55Z</time>
      </trkpt>
      <trkpt lat="44.641" lon="7.10597">
        <ele>2786.8</ele>
        <time>2026-09-01T10:38:01Z</time>
      </trkpt>
      <trkpt lat="44.641" lon="7.10597">
        <ele>2786.8</ele>
        <time>2026-09-01T10:38:06Z</time>
      </trkpt>
      <trkpt lat="44.641" lon="7.10597">
        <ele>2786.8</ele>
        <time>2026-09-01T10:38:11Z</time>
      </trkpt>
      <trkpt lat="44.641" lon="7.10597">
        <ele>2786.8</ele>
        <time>2026-09-01T10:38:17Z</time>
      </trkpt>
      <trkpt lat="44.641" lon="7.10597">
        <ele>2786.8</ele>
        <time>2026-09-01T10:38:22Z</time>
      </trkpt>
      <trkpt lat="44.641" lon="7.10597">
        <ele>2786.8</ele>
        <time>2026-09-01T10:38:27Z</time>
      </trkpt>
      <trkpt lat="44.641" lon="7.10597">
        <ele>2786.8</ele>
        <time>2026-09-01T10:38:33Z</time>
      </trkpt>
      <trkpt lat="44.64107" lon="7.10603">
        <ele>2786.5</ele>
        <time>2026-09-01T10:38:38Z</time>
      </trkpt>
      <trkpt lat="44.64109" lon="7.10607">
        <ele>2787.1</ele>
        <time>2026-09-01T10:38:43Z</time>
      </trkpt>
      <trkpt lat="44.64112" lon="7.10612">
        <ele>2787.5</ele>
        <time>2026-09-01T10:38:49Z</time>
      </trkpt>
      <trkpt lat="44.64114" lon="7.10615">
        <ele>2787.7</ele>
        <time>2026-09-01T10:38:54Z</time>
      </trkpt>
      <trkpt lat="44.64117" lon="7.10617">
        <ele>2787.2</ele>
        <time>2026-09-01T10:38:59Z</time>
      </trkpt>
      <trkpt lat="44.64119" lon="7.10621">
        <ele>2787.6</ele>
        <time>2026-09-01T10:39:05Z</time>
      </trkpt>
      <trkpt lat="44.64122" lon="7.10624">
        <ele>2787.3</ele>
        <time>2026-09-01T10:39:10Z</time>
      </trkpt>
      <trkpt lat="44.64124" lon="7.10628">
        <ele>2787.6</ele>
        <time>2026-09-01T10:39:15Z</time>
      </trkpt>
      <trkpt lat="44.64128" lon="7.10634">
        <ele>2787.6</ele>
        <time>2026-09-01T10:39:21Z</time>
      </trkpt>
      <trkpt lat="44.64129" lon="7.10636">
        <ele>2787.7</ele>
        <time>2026-09-01T10:39:26Z</time>
      </trkpt>
      <trkpt lat="44.6413" lon="7.10638">
        <ele>2787.8</ele>
        <time>2026-09-01T10:39:31Z</time>
      </trkpt>
      <trkpt lat="44.64131" lon="7.10642">
        <ele>2788.4</ele>
        <time>2026-09-01T10:39:37Z</time>
      </trkpt>
      <trkpt lat="44.64132" lon="7.10648">
        <ele>2789.4</ele>
        <time>2026-09-01T10:39:42Z</time>
      </trkpt>
      <trkpt lat="44.64134" lon="7.10653">
        <ele>2789.7</ele>
        <time>2026-09-01T10:39:47Z</time>
      </trkpt>
      <trkpt lat="44.64137" lon="7.1066">
        <ele>2790</ele>
        <time>2026-09-01T10:39:53Z</time>
      </trkpt>
      <trkpt lat="44.64137" lon="7.10665">
        <ele>2791.2</ele>
        <time>2026-09-01T10:39:58Z</time>
      </trkpt>
      <trkpt lat="44.6414" lon="7.10662">
        <ele>2789.1</ele>
        <time>2026-09-01T10:40:03Z</time>
      </trkpt>
      <trkpt lat="44.6414" lon="7.10662">
        <ele>2789.1</ele>
        <time>2026-09-01T10:40:09Z</time>
      </trkpt>
      <trkpt lat="44.64142" lon="7.10666">
        <ele>2789.1</ele>
        <time>2026-09-01T10:40:14Z</time>
      </trkpt>
      <trkpt lat="44.64144" lon="7.10673">
        <ele>2789.9</ele>
        <time>2026-09-01T10:40:19Z</time>
      </trkpt>
      <trkpt lat="44.64146" lon="7.10679">
        <ele>2790.4</ele>
        <time>2026-09-01T10:40:25Z</time>
      </trkpt>
      <trkpt lat="44.64147" lon="7.10684">
        <ele>2791.1</ele>
        <time>2026-09-01T10:40:30Z</time>
      </trkpt>
      <trkpt lat="44.64151" lon="7.10689">
        <ele>2790.4</ele>
        <time>2026-09-01T10:40:35Z</time>
      </trkpt>
      <trkpt lat="44.64155" lon="7.10694">
        <ele>2789.7</ele>
        <time>2026-09-01T10:40:41Z</time>
      </trkpt>
      <trkpt lat="44.64156" lon="7.107">
        <ele>2790.7</ele>
        <time>2026-09-01T10:40:46Z</time>
      </trkpt>
      <trkpt lat="44.64157" lon="7.10705">
        <ele>2791.4</ele>
        <time>2026-09-01T10:40:51Z</time>
      </trkpt>
      <trkpt lat="44.64157" lon="7.10713">
        <ele>2793.2</ele>
        <time>2026-09-01T10:40:57Z</time>
      </trkpt>
      <trkpt lat="44.64159" lon="7.1072">
        <ele>2793.9</ele>
        <time>2026-09-01T10:41:02Z</time>
      </trkpt>
      <trkpt lat="44.64162" lon="7.10724">
        <ele>2793.4</ele>
        <time>2026-09-01T10:41:07Z</time>
      </trkpt>
      <trkpt lat="44.64166" lon="7.10728">
        <ele>2792.3</ele>
        <time>2026-09-01T10:41:13Z</time>
      </trkpt>
      <trkpt lat="44.64172" lon="7.10733">
        <ele>2791.4</ele>
        <time>2026-09-01T10:41:18Z</time>
      </trkpt>
      <trkpt lat="44.64174" lon="7.10738">
        <ele>2791.8</ele>
        <time>2026-09-01T10:41:23Z</time>
      </trkpt>
      <trkpt lat="44.64176" lon="7.10744">
        <ele>2792.4</ele>
        <time>2026-09-01T10:41:29Z</time>
      </trkpt>
      <trkpt lat="44.64176" lon="7.10749">
        <ele>2793.4</ele>
        <time>2026-09-01T10:41:34Z</time>
      </trkpt>
      <trkpt lat="44.64175" lon="7.10752">
        <ele>2793.7</ele>
        <time>2026-09-01T10:41:39Z</time>
      </trkpt>
      <trkpt lat="44.64177" lon="7.10755">
        <ele>2792.6</ele>
        <time>2026-09-01T10:41:45Z</time>
      </trkpt>
      <trkpt lat="44.64179" lon="7.1076">
        <ele>2791.3</ele>
        <time>2026-09-01T10:41:50Z</time>
      </trkpt>
      <trkpt lat="44.64181" lon="7.10764">
        <ele>2790.1</ele>
        <time>2026-09-01T10:41:55Z</time>
      </trkpt>
      <trkpt lat="44.64182" lon="7.1077">
        <ele>2789</ele>
        <time>2026-09-01T10:42:01Z</time>
      </trkpt>
      <trkpt lat="44.64181" lon="7.10778">
        <ele>2788.3</ele>
        <time>2026-09-01T10:42:06Z</time>
      </trkpt>
      <trkpt lat="44.6418" lon="7.10783">
        <ele>2788</ele>
        <time>2026-09-01T10:42:11Z</time>
      </trkpt>
      <trkpt lat="44.64181" lon="7.1079">
        <ele>2786.8</ele>
        <time>2026-09-01T10:42:17Z</time>
      </trkpt>
      <trkpt lat="44.6418" lon="7.10796">
        <ele>2786.4</ele>
        <time>2026-09-01T10:42:22Z</time>
      </trkpt>
      <trkpt lat="44.64181" lon="7.10802">
        <ele>2785.3</ele>
        <time>2026-09-01T10:42:27Z</time>
      </trkpt>
      <trkpt lat="44.64181" lon="7.10806">
        <ele>2784.8</ele>
        <time>2026-09-01T10:42:33Z</time>
      </trkpt>
      <trkpt lat="44.64181" lon="7.10806">
        <ele>2784.8</ele>
        <time>2026-09-01T10:42:38Z</time>
      </trkpt>
      <trkpt lat="44.64181" lon="7.10806">
        <ele>2784.8</ele>
        <time>2026-09-01T10:42:43Z</time>
      </trkpt>
      <trkpt lat="44.64181" lon="7.10806">
        <ele>2784.8</ele>
        <time>2026-09-01T10:42:49Z</time>
      </trkpt>
      <trkpt lat="44.64181" lon="7.10806">
        <ele>2784.8</ele>
        <time>2026-09-01T10:42:54Z</time>
      </trkpt>
      <trkpt lat="44.64181" lon="7.10806">
        <ele>2784.8</ele>
        <time>2026-09-01T10:42:59Z</time>
      </trkpt>
      <trkpt lat="44.64181" lon="7.10806">
        <ele>2784.8</ele>
        <time>2026-09-01T10:43:05Z</time>
      </trkpt>
      <trkpt lat="44.64182" lon="7.10822">
        <ele>2782.5</ele>
        <time>2026-09-01T10:43:10Z</time>
      </trkpt>
      <trkpt lat="44.64181" lon="7.10825">
        <ele>2782.4</ele>
        <time>2026-09-01T10:43:15Z</time>
      </trkpt>
      <trkpt lat="44.64179" lon="7.10827">
        <ele>2782.7</ele>
        <time>2026-09-01T10:43:21Z</time>
      </trkpt>
      <trkpt lat="44.64179" lon="7.10827">
        <ele>2782.7</ele>
        <time>2026-09-01T10:43:26Z</time>
      </trkpt>
      <trkpt lat="44.64179" lon="7.10827">
        <ele>2782.7</ele>
        <time>2026-09-01T10:43:31Z</time>
      </trkpt>
      <trkpt lat="44.6418" lon="7.10834">
        <ele>2781.4</ele>
        <time>2026-09-01T10:43:37Z</time>
      </trkpt>
      <trkpt lat="44.64184" lon="7.10839">
        <ele>2778.6</ele>
        <time>2026-09-01T10:43:42Z</time>
      </trkpt>
      <trkpt lat="44.64188" lon="7.10843">
        <ele>2776.4</ele>
        <time>2026-09-01T10:43:47Z</time>
      </trkpt>
      <trkpt lat="44.64188" lon="7.10849">
        <ele>2774.4</ele>
        <time>2026-09-01T10:43:53Z</time>
      </trkpt>
      <trkpt lat="44.64188" lon="7.10855">
        <ele>2772.4</ele>
        <time>2026-09-01T10:43:58Z</time>
      </trkpt>
      <trkpt lat="44.64186" lon="7.10861">
        <ele>2770.6</ele>
        <time>2026-09-01T10:44:03Z</time>
      </trkpt>
      <trkpt lat="44.64187" lon="7.10867">
        <ele>2768.5</ele>
        <time>2026-09-01T10:44:09Z</time>
      </trkpt>
      <trkpt lat="44.64187" lon="7.10873">
        <ele>2766.5</ele>
        <time>2026-09-01T10:44:14Z</time>
      </trkpt>
      <trkpt lat="44.64187" lon="7.10878">
        <ele>2764.8</ele>
        <time>2026-09-01T10:44:19Z</time>
      </trkpt>
      <trkpt lat="44.64187" lon="7.10885">
        <ele>2762.4</ele>
        <time>2026-09-01T10:44:25Z</time>
      </trkpt>
      <trkpt lat="44.64184" lon="7.10889">
        <ele>2761</ele>
        <time>2026-09-01T10:44:30Z</time>
      </trkpt>
      <trkpt lat="44.64179" lon="7.10893">
        <ele>2759.5</ele>
        <time>2026-09-01T10:44:35Z</time>
      </trkpt>
      <trkpt lat="44.64176" lon="7.10899">
        <ele>2757.1</ele>
        <time>2026-09-01T10:44:41Z</time>
      </trkpt>
      <trkpt lat="44.64174" lon="7.10905">
        <ele>2754.6</ele>
        <time>2026-09-01T10:44:46Z</time>
      </trkpt>
      <trkpt lat="44.64171" lon="7.10911">
        <ele>2751.9</ele>
        <time>2026-09-01T10:44:51Z</time>
      </trkpt>
      <trkpt lat="44.6417" lon="7.10917">
        <ele>2749.4</ele>
        <time>2026-09-01T10:44:57Z</time>
      </trkpt>
      <trkpt lat="44.64169" lon="7.10922">
        <ele>2748.8</ele>
        <time>2026-09-01T10:45:02Z</time>
      </trkpt>
      <trkpt lat="44.64167" lon="7.10927">
        <ele>2747.9</ele>
        <time>2026-09-01T10:45:07Z</time>
      </trkpt>
      <trkpt lat="44.64164" lon="7.10932">
        <ele>2746.9</ele>
        <time>2026-09-01T10:45:13Z</time>
      </trkpt>
      <trkpt lat="44.64161" lon="7.10936">
        <ele>2746</ele>
        <time>2026-09-01T10:45:18Z</time>
      </trkpt>
      <trkpt lat="44.64159" lon="7.10939">
        <ele>2745.3</ele>
        <time>2026-09-01T10:45:23Z</time>
      </trkpt>
      <trkpt lat="44.64156" lon="7.10943">
        <ele>2744.3</ele>
        <time>2026-09-01T10:45:29Z</time>
      </trkpt>
      <trkpt lat="44.64155" lon="7.10947">
        <ele>2743.6</ele>
        <time>2026-09-01T10:45:34Z</time>
      </trkpt>
      <trkpt lat="44.64154" lon="7.10952">
        <ele>2742.7</ele>
        <time>2026-09-01T10:45:39Z</time>
      </trkpt>
      <trkpt lat="44.64149" lon="7.10956">
        <ele>2741.1</ele>
        <time>2026-09-01T10:45:45Z</time>
      </trkpt>
      <trkpt lat="44.64149" lon="7.10961">
        <ele>2740.4</ele>
        <time>2026-09-01T10:45:50Z</time>
      </trkpt>
      <trkpt lat="44.6415" lon="7.10965">
        <ele>2740</ele>
        <time>2026-09-01T10:45:55Z</time>
      </trkpt>
      <trkpt lat="44.6415" lon="7.1097">
        <ele>2739.3</ele>
        <time>2026-09-01T10:46:01Z</time>
      </trkpt>
      <trkpt lat="44.64148" lon="7.10975">
        <ele>2738.1</ele>
        <time>2026-09-01T10:46:06Z</time>
      </trkpt>
      <trkpt lat="44.64149" lon="7.10982">
        <ele>2737.3</ele>
        <time>2026-09-01T10:46:11Z</time>
      </trkpt>
      <trkpt lat="44.64148" lon="7.10989">
        <ele>2736</ele>
        <time>2026-09-01T10:46:17Z</time>
      </trkpt>
      <trkpt lat="44.64146" lon="7.10994">
        <ele>2734.7</ele>
        <time>2026-09-01T10:46:22Z</time>
      </trkpt>
      <trkpt lat="44.64145" lon="7.11001">
        <ele>2733.3</ele>
        <time>2026-09-01T10:46:27Z</time>
      </trkpt>
      <trkpt lat="44.64143" lon="7.11006">
        <ele>2731.8</ele>
        <time>2026-09-01T10:46:33Z</time>
      </trkpt>
      <trkpt lat="44.64142" lon="7.11014">
        <ele>2730</ele>
        <time>2026-09-01T10:46:38Z</time>
      </trkpt>
      <trkpt lat="44.64142" lon="7.1102">
        <ele>2728.8</ele>
        <time>2026-09-01T10:46:43Z</time>
      </trkpt>
      <trkpt lat="44.64142" lon="7.11025">
        <ele>2727.9</ele>
        <time>2026-09-01T10:46:49Z</time>
      </trkpt>
      <trkpt lat="44.64141" lon="7.11026">
        <ele>2727.3</ele>
        <time>2026-09-01T10:46:54Z</time>
      </trkpt>
      <trkpt lat="44.6414" lon="7.11026">
        <ele>2727</ele>
        <time>2026-09-01T10:46:59Z</time>
      </trkpt>
      <trkpt lat="44.6414" lon="7.11031">
        <ele>2726</ele>
        <time>2026-09-01T10:47:05Z</time>
      </trkpt>
      <trkpt lat="44.64139" lon="7.11037">
        <ele>2724.5</ele>
        <time>2026-09-01T10:47:10Z</time>
      </trkpt>
      <trkpt lat="44.64137" lon="7.1104">
        <ele>2723.1</ele>
        <time>2026-09-01T10:47:15Z</time>
      </trkpt>
      <trkpt lat="44.64135" lon="7.11046">
        <ele>2721.1</ele>
        <time>2026-09-01T10:47:21Z</time>
      </trkpt>
      <trkpt lat="44.64135" lon="7.11052">
        <ele>2719.8</ele>
        <time>2026-09-01T10:47:26Z</time>
      </trkpt>
      <trkpt lat="44.64134" lon="7.11059">
        <ele>2718</ele>
        <time>2026-09-01T10:47:31Z</time>
      </trkpt>
      <trkpt lat="44.64134" lon="7.11067">
        <ele>2716.3</ele>
        <time>2026-09-01T10:47:37Z</time>
      </trkpt>
      <trkpt lat="44.64135" lon="7.11068">
        <ele>2716.6</ele>
        <time>2026-09-01T10:47:42Z</time>
      </trkpt>
      <trkpt lat="44.64135" lon="7.11071">
        <ele>2715.9</ele>
        <time>2026-09-01T10:47:47Z</time>
      </trkpt>
      <trkpt lat="44.64136" lon="7.11078">
        <ele>2715</ele>
        <time>2026-09-01T10:47:53Z</time>
      </trkpt>
      <trkpt lat="44.64138" lon="7.11083">
        <ele>2715</ele>
        <time>2026-09-01T10:47:58Z</time>
      </trkpt>
      <trkpt lat="44.64139" lon="7.11089">
        <ele>2713.9</ele>
        <time>2026-09-01T10:48:03Z</time>
      </trkpt>
      <trkpt lat="44.64143" lon="7.11094">
        <ele>2714.5</ele>
        <time>2026-09-01T10:48:09Z</time>
      </trkpt>
      <trkpt lat="44.64146" lon="7.111">
        <ele>2714.3</ele>
        <time>2026-09-01T10:48:14Z</time>
      </trkpt>
      <trkpt lat="44.64148" lon="7.11106">
        <ele>2713.5</ele>
        <time>2026-09-01T10:48:19Z</time>
      </trkpt>
      <trkpt lat="44.64149" lon="7.11115">
        <ele>2711.5</ele>
        <time>2026-09-01T10:48:25Z</time>
      </trkpt>
      <trkpt lat="44.64154" lon="7.11119">
        <ele>2712.5</ele>
        <time>2026-09-01T10:48:30Z</time>
      </trkpt>
      <trkpt lat="44.64159" lon="7.11123">
        <ele>2713.4</ele>
        <time>2026-09-01T10:48:35Z</time>
      </trkpt>
      <trkpt lat="44.64159" lon="7.11131">
        <ele>2711</ele>
        <time>2026-09-01T10:48:41Z</time>
      </trkpt>
      <trkpt lat="44.64162" lon="7.11138">
        <ele>2710.1</ele>
        <time>2026-09-01T10:48:46Z</time>
      </trkpt>
      <trkpt lat="44.64167" lon="7.11145">
        <ele>2709.9</ele>
        <time>2026-09-01T10:48:51Z</time>
      </trkpt>
      <trkpt lat="44.64171" lon="7.11154">
        <ele>2709.3</ele>
        <time>2026-09-01T10:48:57Z</time>
      </trkpt>
      <trkpt lat="44.64177" lon="7.11159">
        <ele>2711</ele>
        <time>2026-09-01T10:49:02Z</time>
      </trkpt>
      <trkpt lat="44.64178" lon="7.11167">
        <ele>2709.3</ele>
        <time>2026-09-01T10:49:07Z</time>
      </trkpt>
      <trkpt lat="44.64178" lon="7.11175">
        <ele>2708.1</ele>
        <time>2026-09-01T10:49:13Z</time>
      </trkpt>
      <trkpt lat="44.64177" lon="7.11183">
        <ele>2706.3</ele>
        <time>2026-09-01T10:49:18Z</time>
      </trkpt>
      <trkpt lat="44.64178" lon="7.11191">
        <ele>2705.6</ele>
        <time>2026-09-01T10:49:23Z</time>
      </trkpt>
      <trkpt lat="44.64179" lon="7.11198">
        <ele>2705.1</ele>
        <time>2026-09-01T10:49:29Z</time>
      </trkpt>
      <trkpt lat="44.64182" lon="7.11201">
        <ele>2706.3</ele>
        <time>2026-09-01T10:49:34Z</time>
      </trkpt>
      <trkpt lat="44.64185" lon="7.11201">
        <ele>2708</ele>
        <time>2026-09-01T10:49:39Z</time>
      </trkpt>
      <trkpt lat="44.64186" lon="7.11207">
        <ele>2707.6</ele>
        <time>2026-09-01T10:49:45Z</time>
      </trkpt>
      <trkpt lat="44.64188" lon="7.11211">
        <ele>2708.1</ele>
        <time>2026-09-01T10:49:50Z</time>
      </trkpt>
      <trkpt lat="44.64187" lon="7.1122">
        <ele>2706.1</ele>
        <time>2026-09-01T10:49:55Z</time>
      </trkpt>
      <trkpt lat="44.64185" lon="7.11229">
        <ele>2703.6</ele>
        <time>2026-09-01T10:50:01Z</time>
      </trkpt>
      <trkpt lat="44.64187" lon="7.11236">
        <ele>2703.7</ele>
        <time>2026-09-01T10:50:06Z</time>
      </trkpt>
      <trkpt lat="44.64189" lon="7.11241">
        <ele>2704</ele>
        <time>2026-09-01T10:50:11Z</time>
      </trkpt>
      <trkpt lat="44.64192" lon="7.11251">
        <ele>2704.2</ele>
        <time>2026-09-01T10:50:17Z</time>
      </trkpt>
      <trkpt lat="44.6419" lon="7.11258">
        <ele>2702.7</ele>
        <time>2026-09-01T10:50:22Z</time>
      </trkpt>
      <trkpt lat="44.6419" lon="7.11268">
        <ele>2702</ele>
        <time>2026-09-01T10:50:27Z</time>
      </trkpt>
      <trkpt lat="44.64191" lon="7.11276">
        <ele>2702.1</ele>
        <time>2026-09-01T10:50:33Z</time>
      </trkpt>
      <trkpt lat="44.64192" lon="7.11283">
        <ele>2702.3</ele>
        <time>2026-09-01T10:50:38Z</time>
      </trkpt>
      <trkpt lat="44.64195" lon="7.11289">
        <ele>2703.6</ele>
        <time>2026-09-01T10:50:43Z</time>
      </trkpt>
      <trkpt lat="44.64195" lon="7.11295">
        <ele>2703.3</ele>
        <time>2026-09-01T10:50:49Z</time>
      </trkpt>
      <trkpt lat="44.64194" lon="7.11301">
        <ele>2702.3</ele>
        <time>2026-09-01T10:50:54Z</time>
      </trkpt>
      <trkpt lat="44.64196" lon="7.11306">
        <ele>2703.2</ele>
        <time>2026-09-01T10:50:59Z</time>
      </trkpt>
      <trkpt lat="44.64196" lon="7.11315">
        <ele>2702.7</ele>
        <time>2026-09-01T10:51:05Z</time>
      </trkpt>
      <trkpt lat="44.64196" lon="7.11324">
        <ele>2702.2</ele>
        <time>2026-09-01T10:51:10Z</time>
      </trkpt>
      <trkpt lat="44.64196" lon="7.11331">
        <ele>2701.7</ele>
        <time>2026-09-01T10:51:15Z</time>
      </trkpt>
      <trkpt lat="44.64195" lon="7.11338">
        <ele>2701</ele>
        <time>2026-09-01T10:51:21Z</time>
      </trkpt>
      <trkpt lat="44.64193" lon="7.11344">
        <ele>2699.8</ele>
        <time>2026-09-01T10:51:26Z</time>
      </trkpt>
      <trkpt lat="44.64194" lon="7.11348">
        <ele>2700.3</ele>
        <time>2026-09-01T10:51:31Z</time>
      </trkpt>
      <trkpt lat="44.64192" lon="7.11357">
        <ele>2699.1</ele>
        <time>2026-09-01T10:51:37Z</time>
      </trkpt>
      <trkpt lat="44.64189" lon="7.11363">
        <ele>2697.2</ele>
        <time>2026-09-01T10:51:42Z</time>
      </trkpt>
      <trkpt lat="44.6419" lon="7.1137">
        <ele>2697.8</ele>
        <time>2026-09-01T10:51:47Z</time>
      </trkpt>
      <trkpt lat="44.64189" lon="7.11377">
        <ele>2697.2</ele>
        <time>2026-09-01T10:51:53Z</time>
      </trkpt>
      <trkpt lat="44.64189" lon="7.11383">
        <ele>2697.1</ele>
        <time>2026-09-01T10:51:58Z</time>
      </trkpt>
      <trkpt lat="44.64188" lon="7.11388">
        <ele>2696.5</ele>
        <time>2026-09-01T10:52:03Z</time>
      </trkpt>
      <trkpt lat="44.64189" lon="7.11393">
        <ele>2697.1</ele>
        <time>2026-09-01T10:52:09Z</time>
      </trkpt>
      <trkpt lat="44.64187" lon="7.11396">
        <ele>2695.8</ele>
        <time>2026-09-01T10:52:14Z</time>
      </trkpt>
      <trkpt lat="44.64188" lon="7.11404">
        <ele>2696.4</ele>
        <time>2026-09-01T10:52:19Z</time>
      </trkpt>
      <trkpt lat="44.64189" lon="7.11408">
        <ele>2697</ele>
        <time>2026-09-01T10:52:25Z</time>
      </trkpt>
      <trkpt lat="44.64189" lon="7.11411">
        <ele>2697</ele>
        <time>2026-09-01T10:52:30Z</time>
      </trkpt>
      <trkpt lat="44.6419" lon="7.11416">
        <ele>2697.6</ele>
        <time>2026-09-01T10:52:35Z</time>
      </trkpt>
      <trkpt lat="44.64189" lon="7.11423">
        <ele>2697.1</ele>
        <time>2026-09-01T10:52:41Z</time>
      </trkpt>
      <trkpt lat="44.64188" lon="7.1143">
        <ele>2696.7</ele>
        <time>2026-09-01T10:52:46Z</time>
      </trkpt>
      <trkpt lat="44.64186" lon="7.11436">
        <ele>2695.7</ele>
        <time>2026-09-01T10:52:51Z</time>
      </trkpt>
      <trkpt lat="44.64183" lon="7.11442">
        <ele>2694.1</ele>
        <time>2026-09-01T10:52:57Z</time>
      </trkpt>
      <trkpt lat="44.64182" lon="7.11451">
        <ele>2693.8</ele>
        <time>2026-09-01T10:53:02Z</time>
      </trkpt>
      <trkpt lat="44.64181" lon="7.11459">
        <ele>2693.5</ele>
        <time>2026-09-01T10:53:07Z</time>
      </trkpt>
      <trkpt lat="44.64179" lon="7.11467">
        <ele>2692.7</ele>
        <time>2026-09-01T10:53:13Z</time>
      </trkpt>
      <trkpt lat="44.64179" lon="7.11467">
        <ele>2692.7</ele>
        <time>2026-09-01T10:53:18Z</time>
      </trkpt>
      <trkpt lat="44.64179" lon="7.11467">
        <ele>2692.7</ele>
        <time>2026-09-01T10:53:23Z</time>
      </trkpt>
      <trkpt lat="44.64178" lon="7.11469">
        <ele>2692.2</ele>
        <time>2026-09-01T10:53:29Z</time>
      </trkpt>
      <trkpt lat="44.64177" lon="7.11477">
        <ele>2691.9</ele>
        <time>2026-09-01T10:53:34Z</time>
      </trkpt>
      <trkpt lat="44.64176" lon="7.11484">
        <ele>2691.6</ele>
        <time>2026-09-01T10:53:39Z</time>
      </trkpt>
      <trkpt lat="44.64175" lon="7.11494">
        <ele>2691.4</ele>
        <time>2026-09-01T10:53:45Z</time>
      </trkpt>
      <trkpt lat="44.64174" lon="7.115">
        <ele>2691.1</ele>
        <time>2026-09-01T10:53:50Z</time>
      </trkpt>
      <trkpt lat="44.64174" lon="7.11508">
        <ele>2691.7</ele>
        <time>2026-09-01T10:53:55Z</time>
      </trkpt>
      <trkpt lat="44.64173" lon="7.11517">
        <ele>2691.7</ele>
        <time>2026-09-01T10:54:01Z</time>
      </trkpt>
      <trkpt lat="44.64173" lon="7.11524">
        <ele>2692.2</ele>
        <time>2026-09-01T10:54:06Z</time>
      </trkpt>
      <trkpt lat="44.64176" lon="7.11529">
        <ele>2694</ele>
        <time>2026-09-01T10:54:11Z</time>
      </trkpt>
      <trkpt lat="44.64176" lon="7.1153">
        <ele>2694.1</ele>
        <time>2026-09-01T10:54:17Z</time>
      </trkpt>
      <trkpt lat="44.64176" lon="7.11533">
        <ele>2694.2</ele>
        <time>2026-09-01T10:54:22Z</time>
      </trkpt>
      <trkpt lat="44.64178" lon="7.11541">
        <ele>2695.6</ele>
        <time>2026-09-01T10:54:27Z</time>
      </trkpt>
      <trkpt lat="44.64183" lon="7.11549">
        <ele>2698.3</ele>
        <time>2026-09-01T10:54:33Z</time>
      </trkpt>
      <trkpt lat="44.64188" lon="7.11556">
        <ele>2700.6</ele>
        <time>2026-09-01T10:54:38Z</time>
      </trkpt>
      <trkpt lat="44.64191" lon="7.11563">
        <ele>2702</ele>
        <time>2026-09-01T10:54:43Z</time>
      </trkpt>
      <trkpt lat="44.64193" lon="7.11574">
        <ele>2703</ele>
        <time>2026-09-01T10:54:49Z</time>
      </trkpt>
      <trkpt lat="44.64196" lon="7.11579">
        <ele>2704.2</ele>
        <time>2026-09-01T10:54:54Z</time>
      </trkpt>
      <trkpt lat="44.64203" lon="7.11581">
        <ele>2706.7</ele>
        <time>2026-09-01T10:54:59Z</time>
      </trkpt>
      <trkpt lat="44.64203" lon="7.11586">
        <ele>2706.4</ele>
        <time>2026-09-01T10:55:05Z</time>
      </trkpt>
      <trkpt lat="44.6421" lon="7.11586">
        <ele>2708.8</ele>
        <time>2026-09-01T10:55:10Z</time>
      </trkpt>
      <trkpt lat="44.64213" lon="7.1159">
        <ele>2709.4</ele>
        <time>2026-09-01T10:55:15Z</time>
      </trkpt>
      <trkpt lat="44.64218" lon="7.11592">
        <ele>2710.9</ele>
        <time>2026-09-01T10:55:21Z</time>
      </trkpt>
      <trkpt lat="44.64226" lon="7.11593">
        <ele>2713.4</ele>
        <time>2026-09-01T10:55:26Z</time>
      </trkpt>
      <trkpt lat="44.64226" lon="7.11599">
        <ele>2712.7</ele>
        <time>2026-09-01T10:55:31Z</time>
      </trkpt>
      <trkpt lat="44.64225" lon="7.11609">
        <ele>2711.1</ele>
        <time>2026-09-01T10:55:37Z</time>
      </trkpt>
      <trkpt lat="44.64228" lon="7.11616">
        <ele>2711.1</ele>
        <time>2026-09-01T10:55:42Z</time>
      </trkpt>
      <trkpt lat="44.64228" lon="7.11624">
        <ele>2710.1</ele>
        <time>2026-09-01T10:55:47Z</time>
      </trkpt>
      <trkpt lat="44.64231" lon="7.1163">
        <ele>2710.1</ele>
        <time>2026-09-01T10:55:53Z</time>
      </trkpt>
      <trkpt lat="44.64234" lon="7.11634">
        <ele>2710.3</ele>
        <time>2026-09-01T10:55:58Z</time>
      </trkpt>
      <trkpt lat="44.64237" lon="7.1164">
        <ele>2710.2</ele>
        <time>2026-09-01T10:56:03Z</time>
      </trkpt>
      <trkpt lat="44.6424" lon="7.11644">
        <ele>2710.4</ele>
        <time>2026-09-01T10:56:09Z</time>
      </trkpt>
      <trkpt lat="44.64244" lon="7.11645">
        <ele>2711.2</ele>
        <time>2026-09-01T10:56:14Z</time>
      </trkpt>
      <trkpt lat="44.64244" lon="7.11646">
        <ele>2711</ele>
        <time>2026-09-01T10:56:19Z</time>
      </trkpt>
      <trkpt lat="44.64245" lon="7.11648">
        <ele>2711</ele>
        <time>2026-09-01T10:56:25Z</time>
      </trkpt>
      <trkpt lat="44.64247" lon="7.11651">
        <ele>2710.9</ele>
        <time>2026-09-01T10:56:30Z</time>
      </trkpt>
      <trkpt lat="44.64248" lon="7.11655">
        <ele>2710.5</ele>
        <time>2026-09-01T10:56:35Z</time>
      </trkpt>
      <trkpt lat="44.64252" lon="7.11658">
        <ele>2711</ele>
        <time>2026-09-01T10:56:41Z</time>
      </trkpt>
      <trkpt lat="44.64254" lon="7.11659">
        <ele>2711.3</ele>
        <time>2026-09-01T10:56:46Z</time>
      </trkpt>
      <trkpt lat="44.64255" lon="7.11662">
        <ele>2711</ele>
        <time>2026-09-01T10:56:51Z</time>
      </trkpt>
      <trkpt lat="44.64256" lon="7.11666">
        <ele>2710.6</ele>
        <time>2026-09-01T10:56:57Z</time>
      </trkpt>
      <trkpt lat="44.64259" lon="7.11667">
        <ele>2711.1</ele>
        <time>2026-09-01T10:57:02Z</time>
      </trkpt>
      <trkpt lat="44.64261" lon="7.11669">
        <ele>2711.4</ele>
        <time>2026-09-01T10:57:07Z</time>
      </trkpt>
      <trkpt lat="44.64264" lon="7.11673">
        <ele>2711.8</ele>
        <time>2026-09-01T10:57:13Z</time>
      </trkpt>
      <trkpt lat="44.64263" lon="7.11674">
        <ele>2711.5</ele>
        <time>2026-09-01T10:57:18Z</time>
      </trkpt>
      <trkpt lat="44.64264" lon="7.11676">
        <ele>2711.6</ele>
        <time>2026-09-01T10:57:23Z</time>
      </trkpt>
      <trkpt lat="44.64264" lon="7.11677">
        <ele>2711.5</ele>
        <time>2026-09-01T10:57:29Z</time>
      </trkpt>
      <trkpt lat="44.64264" lon="7.11677">
        <ele>2711.5</ele>
        <time>2026-09-01T10:57:34Z</time>
      </trkpt>
      <trkpt lat="44.64264" lon="7.11677">
        <ele>2711.5</ele>
        <time>2026-09-01T10:57:39Z</time>
      </trkpt>
      <trkpt lat="44.64264" lon="7.11677">
        <ele>2711.5</ele>
        <time>2026-09-01T10:57:45Z</time>
      </trkpt>
      <trkpt lat="44.64264" lon="7.11677">
        <ele>2711.5</ele>
        <time>2026-09-01T10:57:50Z</time>
      </trkpt>
      <trkpt lat="44.64264" lon="7.11677">
        <ele>2711.5</ele>
        <time>2026-09-01T10:57:55Z</time>
      </trkpt>
      <trkpt lat="44.64264" lon="7.11677">
        <ele>2711.5</ele>
        <time>2026-09-01T10:58:01Z</time>
      </trkpt>
      <trkpt lat="44.64264" lon="7.11677">
        <ele>2711.5</ele>
        <time>2026-09-01T10:58:06Z</time>
      </trkpt>
      <trkpt lat="44.64266" lon="7.11679">
        <ele>2711.8</ele>
        <time>2026-09-01T10:58:11Z</time>
      </trkpt>
      <trkpt lat="44.6427" lon="7.11684">
        <ele>2712.4</ele>
        <time>2026-09-01T10:58:17Z</time>
      </trkpt>
      <trkpt lat="44.64272" lon="7.11687">
        <ele>2712.6</ele>
        <time>2026-09-01T10:58:22Z</time>
      </trkpt>
      <trkpt lat="44.64273" lon="7.11686">
        <ele>2713</ele>
        <time>2026-09-01T10:58:27Z</time>
      </trkpt>
      <trkpt lat="44.64276" lon="7.11687">
        <ele>2713.6</ele>
        <time>2026-09-01T10:58:33Z</time>
      </trkpt>
      <trkpt lat="44.64278" lon="7.11684">
        <ele>2714.3</ele>
        <time>2026-09-01T10:58:38Z</time>
      </trkpt>
      <trkpt lat="44.64278" lon="7.11683">
        <ele>2714.4</ele>
        <time>2026-09-01T10:58:43Z</time>
      </trkpt>
      <trkpt lat="44.64278" lon="7.11683">
        <ele>2714.4</ele>
        <time>2026-09-01T10:58:49Z</time>
      </trkpt>
      <trkpt lat="44.64278" lon="7.11683">
        <ele>2714.4</ele>
        <time>2026-09-01T10:58:54Z</time>
      </trkpt>
      <trkpt lat="44.64278" lon="7.11683">
        <ele>2714.4</ele>
        <time>2026-09-01T10:58:59Z</time>
      </trkpt>
      <trkpt lat="44.64278" lon="7.11683">
        <ele>2714.4</ele>
        <time>2026-09-01T10:59:05Z</time>
      </trkpt>
      <trkpt lat="44.64278" lon="7.11683">
        <ele>2714.4</ele>
        <time>2026-09-01T10:59:10Z</time>
      </trkpt>
      <trkpt lat="44.64285" lon="7.11682">
        <ele>2716.2</ele>
        <time>2026-09-01T10:59:15Z</time>
      </trkpt>
      <trkpt lat="44.64289" lon="7.11685">
        <ele>2716.9</ele>
        <time>2026-09-01T10:59:21Z</time>
      </trkpt>
      <trkpt lat="44.64292" lon="7.11688">
        <ele>2717.4</ele>
        <time>2026-09-01T10:59:26Z</time>
      </trkpt>
      <trkpt lat="44.64296" lon="7.11686">
        <ele>2718.5</ele>
        <time>2026-09-01T10:59:31Z</time>
      </trkpt>
      <trkpt lat="44.64297" lon="7.11691">
        <ele>2718.4</ele>
        <time>2026-09-01T10:59:37Z</time>
      </trkpt>
      <trkpt lat="44.64299" lon="7.11693">
        <ele>2718.7</ele>
        <time>2026-09-01T10:59:42Z</time>
      </trkpt>
      <trkpt lat="44.64303" lon="7.11691">
        <ele>2719.9</ele>
        <time>2026-09-01T10:59:47Z</time>
      </trkpt>
      <trkpt lat="44.64306" lon="7.11689">
        <ele>2720.7</ele>
        <time>2026-09-01T10:59:53Z</time>
      </trkpt>
      <trkpt lat="44.64308" lon="7.11695">
        <ele>2720.8</ele>
        <time>2026-09-01T10:59:58Z</time>
      </trkpt>
      <trkpt lat="44.6431" lon="7.11701">
        <ele>2720.8</ele>
        <time>2026-09-01T11:00:03Z</time>
      </trkpt>
      <trkpt lat="44.64315" lon="7.11702">
        <ele>2722</ele>
        <time>2026-09-01T11:00:09Z</time>
      </trkpt>
      <trkpt lat="44.64323" lon="7.11703">
        <ele>2723.8</ele>
        <time>2026-09-01T11:00:14Z</time>
      </trkpt>
      <trkpt lat="44.64326" lon="7.11702">
        <ele>2724.7</ele>
        <time>2026-09-01T11:00:19Z</time>
      </trkpt>
      <trkpt lat="44.64326" lon="7.11702">
        <ele>2724.7</ele>
        <time>2026-09-01T11:00:25Z</time>
      </trkpt>
      <trkpt lat="44.64327" lon="7.11702">
        <ele>2724.9</ele>
        <time>2026-09-01T11:00:30Z</time>
      </trkpt>
      <trkpt lat="44.64328" lon="7.11697">
        <ele>2725.5</ele>
        <time>2026-09-01T11:00:35Z</time>
      </trkpt>
      <trkpt lat="44.64332" lon="7.11692">
        <ele>2726.9</ele>
        <time>2026-09-01T11:00:41Z</time>
      </trkpt>
      <trkpt lat="44.64335" lon="7.11691">
        <ele>2727.1</ele>
        <time>2026-09-01T11:00:46Z</time>
      </trkpt>
      <trkpt lat="44.6434" lon="7.1169">
        <ele>2726.8</ele>
        <time>2026-09-01T11:00:51Z</time>
      </trkpt>
      <trkpt lat="44.64345" lon="7.11685">
        <ele>2726.7</ele>
        <time>2026-09-01T11:00:57Z</time>
      </trkpt>
      <trkpt lat="44.64349" lon="7.11683">
        <ele>2726.5</ele>
        <time>2026-09-01T11:01:02Z</time>
      </trkpt>
      <trkpt lat="44.64353" lon="7.11686">
        <ele>2725.9</ele>
        <time>2026-09-01T11:01:07Z</time>
      </trkpt>
      <trkpt lat="44.64358" lon="7.11687">
        <ele>2725.5</ele>
        <time>2026-09-01T11:01:13Z</time>
      </trkpt>
      <trkpt lat="44.64361" lon="7.11688">
        <ele>2725.1</ele>
        <time>2026-09-01T11:01:18Z</time>
      </trkpt>
      <trkpt lat="44.64366" lon="7.1169">
        <ele>2724.6</ele>
        <time>2026-09-01T11:01:23Z</time>
      </trkpt>
      <trkpt lat="44.6437" lon="7.11692">
        <ele>2724.2</ele>
        <time>2026-09-01T11:01:29Z</time>
      </trkpt>
      <trkpt lat="44.64376" lon="7.11691">
        <ele>2723.8</ele>
        <time>2026-09-01T11:01:34Z</time>
      </trkpt>
      <trkpt lat="44.64379" lon="7.1169">
        <ele>2723.5</ele>
        <time>2026-09-01T11:01:39Z</time>
      </trkpt>
      <trkpt lat="44.64381" lon="7.11687">
        <ele>2723.5</ele>
        <time>2026-09-01T11:01:45Z</time>
      </trkpt>
      <trkpt lat="44.64383" lon="7.11685">
        <ele>2723.4</ele>
        <time>2026-09-01T11:01:50Z</time>
      </trkpt>
      <trkpt lat="44.64385" lon="7.11684">
        <ele>2723.3</ele>
        <time>2026-09-01T11:01:55Z</time>
      </trkpt>
      <trkpt lat="44.64388" lon="7.11687">
        <ele>2722.9</ele>
        <time>2026-09-01T11:02:01Z</time>
      </trkpt>
      <trkpt lat="44.64391" lon="7.11687">
        <ele>2722.7</ele>
        <time>2026-09-01T11:02:06Z</time>
      </trkpt>
      <trkpt lat="44.64393" lon="7.11688">
        <ele>2722.5</ele>
        <time>2026-09-01T11:02:11Z</time>
      </trkpt>
      <trkpt lat="44.64398" lon="7.11688">
        <ele>2722.1</ele>
        <time>2026-09-01T11:02:17Z</time>
      </trkpt>
      <trkpt lat="44.64401" lon="7.11686">
        <ele>2721.9</ele>
        <time>2026-09-01T11:02:22Z</time>
      </trkpt>
      <trkpt lat="44.64404" lon="7.11687">
        <ele>2721.6</ele>
        <time>2026-09-01T11:02:27Z</time>
      </trkpt>
      <trkpt lat="44.64404" lon="7.11687">
        <ele>2721.6</ele>
        <time>2026-09-01T11:02:33Z</time>
      </trkpt>
      <trkpt lat="44.64404" lon="7.11687">
        <ele>2721.6</ele>
        <time>2026-09-01T11:02:38Z</time>
      </trkpt>
      <trkpt lat="44.64404" lon="7.11687">
        <ele>2721.6</ele>
        <time>2026-09-01T11:02:43Z</time>
      </trkpt>
      <trkpt lat="44.644" lon="7.11698">
        <ele>2721.5</ele>
        <time>2026-09-01T11:02:49Z</time>
      </trkpt>
      <trkpt lat="44.64403" lon="7.11703">
        <ele>2721.2</ele>
        <time>2026-09-01T11:02:54Z</time>
      </trkpt>
      <trkpt lat="44.64406" lon="7.11708">
        <ele>2720.8</ele>
        <time>2026-09-01T11:02:59Z</time>
      </trkpt>
      <trkpt lat="44.6441" lon="7.11712">
        <ele>2720.4</ele>
        <time>2026-09-01T11:03:05Z</time>
      </trkpt>
      <trkpt lat="44.64414" lon="7.11715">
        <ele>2720</ele>
        <time>2026-09-01T11:03:10Z</time>
      </trkpt>
      <trkpt lat="44.64417" lon="7.11718">
        <ele>2719.7</ele>
        <time>2026-09-01T11:03:15Z</time>
      </trkpt>
      <trkpt lat="44.64421" lon="7.11722">
        <ele>2718.6</ele>
        <time>2026-09-01T11:03:21Z</time>
      </trkpt>
      <trkpt lat="44.64423" lon="7.11725">
        <ele>2718.1</ele>
        <time>2026-09-01T11:03:26Z</time>
      </trkpt>
      <trkpt lat="44.64428" lon="7.11726">
        <ele>2716.9</ele>
        <time>2026-09-01T11:03:31Z</time>
      </trkpt>
      <trkpt lat="44.64431" lon="7.11725">
        <ele>2716.2</ele>
        <time>2026-09-01T11:03:37Z</time>
      </trkpt>
      <trkpt lat="44.64431" lon="7.11723">
        <ele>2716.3</ele>
        <time>2026-09-01T11:03:42Z</time>
      </trkpt>
      <trkpt lat="44.64431" lon="7.11722">
        <ele>2716.3</ele>
        <time>2026-09-01T11:03:47Z</time>
      </trkpt>
      <trkpt lat="44.64431" lon="7.11722">
        <ele>2716.3</ele>
        <time>2026-09-01T11:03:53Z</time>
      </trkpt>
      <trkpt lat="44.64434" lon="7.11722">
        <ele>2715.6</ele>
        <time>2026-09-01T11:03:58Z</time>
      </trkpt>
      <trkpt lat="44.64434" lon="7.11722">
        <ele>2715.6</ele>
        <time>2026-09-01T11:04:03Z</time>
      </trkpt>
      <trkpt lat="44.64434" lon="7.11722">
        <ele>2715.6</ele>
        <time>2026-09-01T11:04:09Z</time>
      </trkpt>
      <trkpt lat="44.64441" lon="7.1172">
        <ele>2714</ele>
        <time>2026-09-01T11:04:14Z</time>
      </trkpt>
      <trkpt lat="44.64444" lon="7.11715">
        <ele>2713.5</ele>
        <time>2026-09-01T11:04:19Z</time>
      </trkpt>
      <trkpt lat="44.64449" lon="7.11709">
        <ele>2712.6</ele>
        <time>2026-09-01T11:04:25Z</time>
      </trkpt>
      <trkpt lat="44.64452" lon="7.11705">
        <ele>2712.1</ele>
        <time>2026-09-01T11:04:30Z</time>
      </trkpt>
      <trkpt lat="44.64456" lon="7.11702">
        <ele>2711.3</ele>
        <time>2026-09-01T11:04:35Z</time>
      </trkpt>
      <trkpt lat="44.64461" lon="7.11699">
        <ele>2710.4</ele>
        <time>2026-09-01T11:04:41Z</time>
      </trkpt>
      <trkpt lat="44.64461" lon="7.11699">
        <ele>2710.4</ele>
        <time>2026-09-01T11:04:46Z</time>
      </trkpt>
      <trkpt lat="44.64461" lon="7.11699">
        <ele>2710.4</ele>
        <time>2026-09-01T11:04:51Z</time>
      </trkpt>
      <trkpt lat="44.64461" lon="7.11699">
        <ele>2710.4</ele>
        <time>2026-09-01T11:04:57Z</time>
      </trkpt>
      <trkpt lat="44.64461" lon="7.11699">
        <ele>2710.4</ele>
        <time>2026-09-01T11:05:02Z</time>
      </trkpt>
      <trkpt lat="44.64461" lon="7.11699">
        <ele>2710.4</ele>
        <time>2026-09-01T11:05:07Z</time>
      </trkpt>
      <trkpt lat="44.6447" lon="7.11708">
        <ele>2707.9</ele>
        <time>2026-09-01T11:05:13Z</time>
      </trkpt>
      <trkpt lat="44.64475" lon="7.11707">
        <ele>2706.8</ele>
        <time>2026-09-01T11:05:18Z</time>
      </trkpt>
      <trkpt lat="44.64478" lon="7.11705">
        <ele>2706.2</ele>
        <time>2026-09-01T11:05:23Z</time>
      </trkpt>
      <trkpt lat="44.64475" lon="7.11711">
        <ele>2706.5</ele>
        <time>2026-09-01T11:05:29Z</time>
      </trkpt>
      <trkpt lat="44.64475" lon="7.11715">
        <ele>2706.3</ele>
        <time>2026-09-01T11:05:34Z</time>
      </trkpt>
      <trkpt lat="44.64476" lon="7.11719">
        <ele>2705.9</ele>
        <time>2026-09-01T11:05:39Z</time>
      </trkpt>
      <trkpt lat="44.64476" lon="7.11719">
        <ele>2705.9</ele>
        <time>2026-09-01T11:05:45Z</time>
      </trkpt>
      <trkpt lat="44.64474" lon="7.11726">
        <ele>2705.9</ele>
        <time>2026-09-01T11:05:50Z</time>
      </trkpt>
      <trkpt lat="44.64474" lon="7.11728">
        <ele>2705.8</ele>
        <time>2026-09-01T11:05:55Z</time>
      </trkpt>
      <trkpt lat="44.64478" lon="7.11725">
        <ele>2705</ele>
        <time>2026-09-01T11:06:01Z</time>
      </trkpt>
      <trkpt lat="44.64481" lon="7.11723">
        <ele>2704.4</ele>
        <time>2026-09-01T11:06:06Z</time>
      </trkpt>
      <trkpt lat="44.64482" lon="7.11721">
        <ele>2704.3</ele>
        <time>2026-09-01T11:06:11Z</time>
      </trkpt>
      <trkpt lat="44.64487" lon="7.11719">
        <ele>2703.3</ele>
        <time>2026-09-01T11:06:17Z</time>
      </trkpt>
      <trkpt lat="44.64488" lon="7.11719">
        <ele>2703</ele>
        <time>2026-09-01T11:06:22Z</time>
      </trkpt>
      <trkpt lat="44.64492" lon="7.11715">
        <ele>2702.4</ele>
        <time>2026-09-01T11:06:27Z</time>
      </trkpt>
      <trkpt lat="44.64494" lon="7.11715">
        <ele>2701.9</ele>
        <time>2026-09-01T11:06:33Z</time>
      </trkpt>
      <trkpt lat="44.64494" lon="7.11715">
        <ele>2701.9</ele>
        <time>2026-09-01T11:06:38Z</time>
      </trkpt>
      <trkpt lat="44.64494" lon="7.11715">
        <ele>2701.9</ele>
        <time>2026-09-01T11:06:43Z</time>
      </trkpt>
      <trkpt lat="44.64494" lon="7.11715">
        <ele>2701.9</ele>
        <time>2026-09-01T11:06:49Z</time>
      </trkpt>
      <trkpt lat="44.64494" lon="7.11715">
        <ele>2701.9</ele>
        <time>2026-09-01T11:06:54Z</time>
      </trkpt>
      <trkpt lat="44.64494" lon="7.11715">
        <ele>2701.9</ele>
        <time>2026-09-01T11:06:59Z</time>
      </trkpt>
      <trkpt lat="44.645" lon="7.1172">
        <ele>2700.2</ele>
        <time>2026-09-01T11:07:05Z</time>
      </trkpt>
      <trkpt lat="44.64502" lon="7.11724">
        <ele>2699.1</ele>
        <time>2026-09-01T11:07:10Z</time>
      </trkpt>
      <trkpt lat="44.64501" lon="7.11732">
        <ele>2698.9</ele>
        <time>2026-09-01T11:07:15Z</time>
      </trkpt>
      <trkpt lat="44.64499" lon="7.11739">
        <ele>2699</ele>
        <time>2026-09-01T11:07:21Z</time>
      </trkpt>
      <trkpt lat="44.645" lon="7.1174">
        <ele>2698.7</ele>
        <time>2026-09-01T11:07:26Z</time>
      </trkpt>
      <trkpt lat="44.64501" lon="7.1174">
        <ele>2698.3</ele>
        <time>2026-09-01T11:07:31Z</time>
      </trkpt>
      <trkpt lat="44.64501" lon="7.1174">
        <ele>2698.3</ele>
        <time>2026-09-01T11:07:37Z</time>
      </trkpt>
      <trkpt lat="44.64501" lon="7.1174">
        <ele>2698.3</ele>
        <time>2026-09-01T11:07:42Z</time>
      </trkpt>
      <trkpt lat="44.64501" lon="7.1174">
        <ele>2698.3</ele>
        <time>2026-09-01T11:07:47Z</time>
      </trkpt>
      <trkpt lat="44.64501" lon="7.11739">
        <ele>2698.4</ele>
        <time>2026-09-01T11:07:53Z</time>
      </trkpt>
      <trkpt lat="44.64504" lon="7.11739">
        <ele>2697.2</ele>
        <time>2026-09-01T11:07:58Z</time>
      </trkpt>
      <trkpt lat="44.64509" lon="7.11738">
        <ele>2695.3</ele>
        <time>2026-09-01T11:08:03Z</time>
      </trkpt>
      <trkpt lat="44.64514" lon="7.11735">
        <ele>2693.6</ele>
        <time>2026-09-01T11:08:09Z</time>
      </trkpt>
      <trkpt lat="44.64514" lon="7.11735">
        <ele>2693.6</ele>
        <time>2026-09-01T11:08:14Z</time>
      </trkpt>
      <trkpt lat="44.64514" lon="7.11735">
        <ele>2693.6</ele>
        <time>2026-09-01T11:08:19Z</time>
      </trkpt>
      <trkpt lat="44.64514" lon="7.11735">
        <ele>2693.6</ele>
        <time>2026-09-01T11:08:25Z</time>
      </trkpt>
      <trkpt lat="44.64514" lon="7.11735">
        <ele>2693.6</ele>
        <time>2026-09-01T11:08:30Z</time>
      </trkpt>
      <trkpt lat="44.64514" lon="7.11735">
        <ele>2693.6</ele>
        <time>2026-09-01T11:08:35Z</time>
      </trkpt>
      <trkpt lat="44.6451" lon="7.11742">
        <ele>2694.6</ele>
        <time>2026-09-01T11:08:41Z</time>
      </trkpt>
      <trkpt lat="44.64508" lon="7.11749">
        <ele>2694.9</ele>
        <time>2026-09-01T11:08:46Z</time>
      </trkpt>
      <trkpt lat="44.64506" lon="7.11754">
        <ele>2696.1</ele>
        <time>2026-09-01T11:08:51Z</time>
      </trkpt>
      <trkpt lat="44.64508" lon="7.11758">
        <ele>2695.7</ele>
        <time>2026-09-01T11:08:57Z</time>
      </trkpt>
      <trkpt lat="44.64512" lon="7.11757">
        <ele>2694</ele>
        <time>2026-09-01T11:09:02Z</time>
      </trkpt>
      <trkpt lat="44.64518" lon="7.11753">
        <ele>2691.2</ele>
        <time>2026-09-01T11:09:07Z</time>
      </trkpt>
      <trkpt lat="44.64524" lon="7.11756">
        <ele>2689.1</ele>
        <time>2026-09-01T11:09:13Z</time>
      </trkpt>
      <trkpt lat="44.64527" lon="7.11756">
        <ele>2688</ele>
        <time>2026-09-01T11:09:18Z</time>
      </trkpt>
      <trkpt lat="44.64528" lon="7.1176">
        <ele>2688</ele>
        <time>2026-09-01T11:09:23Z</time>
      </trkpt>
      <trkpt lat="44.64528" lon="7.1176">
        <ele>2688</ele>
        <time>2026-09-01T11:09:29Z</time>
      </trkpt>
      <trkpt lat="44.64525" lon="7.1177">
        <ele>2690.3</ele>
        <time>2026-09-01T11:09:34Z</time>
      </trkpt>
      <trkpt lat="44.64531" lon="7.11776">
        <ele>2688.5</ele>
        <time>2026-09-01T11:09:39Z</time>
      </trkpt>
      <trkpt lat="44.64533" lon="7.11779">
        <ele>2688.1</ele>
        <time>2026-09-01T11:09:45Z</time>
      </trkpt>
      <trkpt lat="44.64535" lon="7.11777">
        <ele>2687.1</ele>
        <time>2026-09-01T11:09:50Z</time>
      </trkpt>
      <trkpt lat="44.64535" lon="7.11777">
        <ele>2687.1</ele>
        <time>2026-09-01T11:09:55Z</time>
      </trkpt>
      <trkpt lat="44.64535" lon="7.11777">
        <ele>2687.1</ele>
        <time>2026-09-01T11:10:01Z</time>
      </trkpt>
      <trkpt lat="44.64537" lon="7.1177">
        <ele>2685.5</ele>
        <time>2026-09-01T11:10:06Z</time>
      </trkpt>
      <trkpt lat="44.64542" lon="7.11769">
        <ele>2683.4</ele>
        <time>2026-09-01T11:10:11Z</time>
      </trkpt>
      <trkpt lat="44.64549" lon="7.1177">
        <ele>2680.8</ele>
        <time>2026-09-01T11:10:17Z</time>
      </trkpt>
      <trkpt lat="44.64553" lon="7.11771">
        <ele>2679.3</ele>
        <time>2026-09-01T11:10:22Z</time>
      </trkpt>
      <trkpt lat="44.64557" lon="7.11771">
        <ele>2677.7</ele>
        <time>2026-09-01T11:10:27Z</time>
      </trkpt>
      <trkpt lat="44.64562" lon="7.11773">
        <ele>2675.9</ele>
        <time>2026-09-01T11:10:33Z</time>
      </trkpt>
      <trkpt lat="44.64567" lon="7.11775">
        <ele>2674.2</ele>
        <time>2026-09-01T11:10:38Z</time>
      </trkpt>
      <trkpt lat="44.64571" lon="7.11777">
        <ele>2672.8</ele>
        <time>2026-09-01T11:10:43Z</time>
      </trkpt>
      <trkpt lat="44.64574" lon="7.11776">
        <ele>2671.5</ele>
        <time>2026-09-01T11:10:49Z</time>
      </trkpt>
      <trkpt lat="44.64578" lon="7.11774">
        <ele>2669.7</ele>
        <time>2026-09-01T11:10:54Z</time>
      </trkpt>
      <trkpt lat="44.64583" lon="7.11772">
        <ele>2667.5</ele>
        <time>2026-09-01T11:10:59Z</time>
      </trkpt>
      <trkpt lat="44.64589" lon="7.1177">
        <ele>2664.9</ele>
        <time>2026-09-01T11:11:05Z</time>
      </trkpt>
      <trkpt lat="44.64591" lon="7.11772">
        <ele>2664.3</ele>
        <time>2026-09-01T11:11:10Z</time>
      </trkpt>
      <trkpt lat="44.64593" lon="7.1177">
        <ele>2663.4</ele>
        <time>2026-09-01T11:11:15Z</time>
      </trkpt>
      <trkpt lat="44.64593" lon="7.1177">
        <ele>2663.4</ele>
        <time>2026-09-01T11:11:21Z</time>
      </trkpt>
      <trkpt lat="44.64593" lon="7.1177">
        <ele>2663.4</ele>
        <time>2026-09-01T11:11:26Z</time>
      </trkpt>
      <trkpt lat="44.64593" lon="7.1177">
        <ele>2663.4</ele>
        <time>2026-09-01T11:11:31Z</time>
      </trkpt>
      <trkpt lat="44.64593" lon="7.1177">
        <ele>2663.4</ele>
        <time>2026-09-01T11:11:37Z</time>
      </trkpt>
      <trkpt lat="44.64593" lon="7.1177">
        <ele>2663.4</ele>
        <time>2026-09-01T11:11:42Z</time>
      </trkpt>
      <trkpt lat="44.64597" lon="7.11771">
        <ele>2661.9</ele>
        <time>2026-09-01T11:11:47Z</time>
      </trkpt>
      <trkpt lat="44.64601" lon="7.11771">
        <ele>2660.3</ele>
        <time>2026-09-01T11:11:53Z</time>
      </trkpt>
      <trkpt lat="44.64604" lon="7.1177">
        <ele>2659.1</ele>
        <time>2026-09-01T11:11:58Z</time>
      </trkpt>
      <trkpt lat="44.64606" lon="7.11769">
        <ele>2658.3</ele>
        <time>2026-09-01T11:12:03Z</time>
      </trkpt>
      <trkpt lat="44.64609" lon="7.11766">
        <ele>2657</ele>
        <time>2026-09-01T11:12:09Z</time>
      </trkpt>
      <trkpt lat="44.64612" lon="7.11765">
        <ele>2655.8</ele>
        <time>2026-09-01T11:12:14Z</time>
      </trkpt>
      <trkpt lat="44.64617" lon="7.11766">
        <ele>2653.9</ele>
        <time>2026-09-01T11:12:19Z</time>
      </trkpt>
      <trkpt lat="44.64619" lon="7.11764">
        <ele>2653.2</ele>
        <time>2026-09-01T11:12:25Z</time>
      </trkpt>
      <trkpt lat="44.64619" lon="7.11764">
        <ele>2653.2</ele>
        <time>2026-09-01T11:12:30Z</time>
      </trkpt>
      <trkpt lat="44.64619" lon="7.11764">
        <ele>2653.2</ele>
        <time>2026-09-01T11:12:35Z</time>
      </trkpt>
      <trkpt lat="44.64619" lon="7.11764">
        <ele>2653.2</ele>
        <time>2026-09-01T11:12:41Z</time>
      </trkpt>
      <trkpt lat="44.64619" lon="7.11764">
        <ele>2653.2</ele>
        <time>2026-09-01T11:12:46Z</time>
      </trkpt>
      <trkpt lat="44.64619" lon="7.11764">
        <ele>2653.2</ele>
        <time>2026-09-01T11:12:51Z</time>
      </trkpt>
      <trkpt lat="44.64622" lon="7.11765">
        <ele>2652</ele>
        <time>2026-09-01T11:12:57Z</time>
      </trkpt>
      <trkpt lat="44.64626" lon="7.11765">
        <ele>2650.5</ele>
        <time>2026-09-01T11:13:02Z</time>
      </trkpt>
      <trkpt lat="44.64629" lon="7.11766">
        <ele>2649.4</ele>
        <time>2026-09-01T11:13:07Z</time>
      </trkpt>
      <trkpt lat="44.64634" lon="7.11768">
        <ele>2647.4</ele>
        <time>2026-09-01T11:13:13Z</time>
      </trkpt>
      <trkpt lat="44.64637" lon="7.11769">
        <ele>2646.2</ele>
        <time>2026-09-01T11:13:18Z</time>
      </trkpt>
      <trkpt lat="44.64641" lon="7.11766">
        <ele>2644.8</ele>
        <time>2026-09-01T11:13:23Z</time>
      </trkpt>
      <trkpt lat="44.64649" lon="7.11761">
        <ele>2642.1</ele>
        <time>2026-09-01T11:13:29Z</time>
      </trkpt>
      <trkpt lat="44.64653" lon="7.11755">
        <ele>2641.2</ele>
        <time>2026-09-01T11:13:34Z</time>
      </trkpt>
      <trkpt lat="44.64658" lon="7.11752">
        <ele>2639.7</ele>
        <time>2026-09-01T11:13:39Z</time>
      </trkpt>
      <trkpt lat="44.64664" lon="7.11745">
        <ele>2638.5</ele>
        <time>2026-09-01T11:13:45Z</time>
      </trkpt>
      <trkpt lat="44.64667" lon="7.11739">
        <ele>2638.3</ele>
        <time>2026-09-01T11:13:50Z</time>
      </trkpt>
      <trkpt lat="44.6467" lon="7.11736">
        <ele>2638.4</ele>
        <time>2026-09-01T11:13:55Z</time>
      </trkpt>
      <trkpt lat="44.64672" lon="7.11731">
        <ele>2638.8</ele>
        <time>2026-09-01T11:14:01Z</time>
      </trkpt>
      <trkpt lat="44.64674" lon="7.11725">
        <ele>2639.3</ele>
        <time>2026-09-01T11:14:06Z</time>
      </trkpt>
      <trkpt lat="44.64677" lon="7.11722">
        <ele>2639.4</ele>
        <time>2026-09-01T11:14:11Z</time>
      </trkpt>
      <trkpt lat="44.64681" lon="7.11718">
        <ele>2639.4</ele>
        <time>2026-09-01T11:14:17Z</time>
      </trkpt>
      <trkpt lat="44.64686" lon="7.11714">
        <ele>2639.3</ele>
        <time>2026-09-01T11:14:22Z</time>
      </trkpt>
      <trkpt lat="44.64688" lon="7.11709">
        <ele>2639.5</ele>
        <time>2026-09-01T11:14:27Z</time>
      </trkpt>
      <trkpt lat="44.64689" lon="7.11703">
        <ele>2639.9</ele>
        <time>2026-09-01T11:14:33Z</time>
      </trkpt>
      <trkpt lat="44.6469" lon="7.11699">
        <ele>2640.2</ele>
        <time>2026-09-01T11:14:38Z</time>
      </trkpt>
      <trkpt lat="44.64693" lon="7.11693">
        <ele>2640.3</ele>
        <time>2026-09-01T11:14:43Z</time>
      </trkpt>
      <trkpt lat="44.64697" lon="7.11687">
        <ele>2640.3</ele>
        <time>2026-09-01T11:14:49Z</time>
      </trkpt>
      <trkpt lat="44.64698" lon="7.11679">
        <ele>2640.8</ele>
        <time>2026-09-01T11:14:54Z</time>
      </trkpt>
      <trkpt lat="44.647" lon="7.11677">
        <ele>2640.6</ele>
        <time>2026-09-01T11:14:59Z</time>
      </trkpt>
      <trkpt lat="44.64703" lon="7.11673">
        <ele>2640.4</ele>
        <time>2026-09-01T11:15:05Z</time>
      </trkpt>
      <trkpt lat="44.64707" lon="7.11668">
        <ele>2640.1</ele>
        <time>2026-09-01T11:15:10Z</time>
      </trkpt>
      <trkpt lat="44.64708" lon="7.11664">
        <ele>2640.3</ele>
        <time>2026-09-01T11:15:15Z</time>
      </trkpt>
      <trkpt lat="44.64709" lon="7.11659">
        <ele>2640.6</ele>
        <time>2026-09-01T11:15:21Z</time>
      </trkpt>
      <trkpt lat="44.6471" lon="7.11652">
        <ele>2641.1</ele>
        <time>2026-09-01T11:15:26Z</time>
      </trkpt>
      <trkpt lat="44.64713" lon="7.11647">
        <ele>2641.1</ele>
        <time>2026-09-01T11:15:31Z</time>
      </trkpt>
      <trkpt lat="44.6472" lon="7.11646">
        <ele>2640.1</ele>
        <time>2026-09-01T11:15:37Z</time>
      </trkpt>
      <trkpt lat="44.64724" lon="7.11645">
        <ele>2639.5</ele>
        <time>2026-09-01T11:15:42Z</time>
      </trkpt>
      <trkpt lat="44.64729" lon="7.11643">
        <ele>2638.9</ele>
        <time>2026-09-01T11:15:47Z</time>
      </trkpt>
      <trkpt lat="44.64734" lon="7.11639">
        <ele>2638.5</ele>
        <time>2026-09-01T11:15:53Z</time>
      </trkpt>
      <trkpt lat="44.64737" lon="7.11637">
        <ele>2638.3</ele>
        <time>2026-09-01T11:15:58Z</time>
      </trkpt>
      <trkpt lat="44.6474" lon="7.11633">
        <ele>2638.2</ele>
        <time>2026-09-01T11:16:03Z</time>
      </trkpt>
      <trkpt lat="44.64743" lon="7.1163">
        <ele>2638.1</ele>
        <time>2026-09-01T11:16:09Z</time>
      </trkpt>
      <trkpt lat="44.64745" lon="7.11623">
        <ele>2638.5</ele>
        <time>2026-09-01T11:16:14Z</time>
      </trkpt>
      <trkpt lat="44.64746" lon="7.11615">
        <ele>2639.2</ele>
        <time>2026-09-01T11:16:19Z</time>
      </trkpt>
      <trkpt lat="44.64748" lon="7.11608">
        <ele>2639.6</ele>
        <time>2026-09-01T11:16:25Z</time>
      </trkpt>
      <trkpt lat="44.64751" lon="7.11603">
        <ele>2639.7</ele>
        <time>2026-09-01T11:16:30Z</time>
      </trkpt>
      <trkpt lat="44.64753" lon="7.11597">
        <ele>2640.1</ele>
        <time>2026-09-01T11:16:35Z</time>
      </trkpt>
      <trkpt lat="44.64762" lon="7.11598">
        <ele>2638.6</ele>
        <time>2026-09-01T11:16:41Z</time>
      </trkpt>
      <trkpt lat="44.64769" lon="7.11602">
        <ele>2637.1</ele>
        <time>2026-09-01T11:16:46Z</time>
      </trkpt>
      <trkpt lat="44.64774" lon="7.11605">
        <ele>2636</ele>
        <time>2026-09-01T11:16:51Z</time>
      </trkpt>
      <trkpt lat="44.64781" lon="7.11606">
        <ele>2634.8</ele>
        <time>2026-09-01T11:16:57Z</time>
      </trkpt>
      <trkpt lat="44.64786" lon="7.11605">
        <ele>2634.2</ele>
        <time>2026-09-01T11:17:02Z</time>
      </trkpt>
      <trkpt lat="44.64792" lon="7.11605">
        <ele>2633.2</ele>
        <time>2026-09-01T11:17:07Z</time>
      </trkpt>
      <trkpt lat="44.64797" lon="7.11605">
        <ele>2632.5</ele>
        <time>2026-09-01T11:17:13Z</time>
      </trkpt>
      <trkpt lat="44.64801" lon="7.11605">
        <ele>2631.9</ele>
        <time>2026-09-01T11:17:18Z</time>
      </trkpt>
      <trkpt lat="44.64805" lon="7.11603">
        <ele>2631.5</ele>
        <time>2026-09-01T11:17:23Z</time>
      </trkpt>
      <trkpt lat="44.64811" lon="7.11603">
        <ele>2630.5</ele>
        <time>2026-09-01T11:17:29Z</time>
      </trkpt>
      <trkpt lat="44.64818" lon="7.116">
        <ele>2629.8</ele>
        <time>2026-09-01T11:17:34Z</time>
      </trkpt>
      <trkpt lat="44.64823" lon="7.116">
        <ele>2629</ele>
        <time>2026-09-01T11:17:39Z</time>
      </trkpt>
      <trkpt lat="44.64827" lon="7.11595">
        <ele>2628.9</ele>
        <time>2026-09-01T11:17:45Z</time>
      </trkpt>
      <trkpt lat="44.6483" lon="7.1159">
        <ele>2628.9</ele>
        <time>2026-09-01T11:17:50Z</time>
      </trkpt>
      <trkpt lat="44.64834" lon="7.11584">
        <ele>2628.8</ele>
        <time>2026-09-01T11:17:55Z</time>
      </trkpt>
      <trkpt lat="44.64839" lon="7.11581">
        <ele>2628.8</ele>
        <time>2026-09-01T11:18:01Z</time>
      </trkpt>
      <trkpt lat="44.64844" lon="7.11577">
        <ele>2629.3</ele>
        <time>2026-09-01T11:18:06Z</time>
      </trkpt>
      <trkpt lat="44.64845" lon="7.11576">
        <ele>2629.4</ele>
        <time>2026-09-01T11:18:11Z</time>
      </trkpt>
      <trkpt lat="44.64845" lon="7.11576">
        <ele>2629.4</ele>
        <time>2026-09-01T11:18:17Z</time>
      </trkpt>
      <trkpt lat="44.64846" lon="7.11574">
        <ele>2629.9</ele>
        <time>2026-09-01T11:18:22Z</time>
      </trkpt>
      <trkpt lat="44.6485" lon="7.11573">
        <ele>2629.5</ele>
        <time>2026-09-01T11:18:27Z</time>
      </trkpt>
      <trkpt lat="44.64855" lon="7.11568">
        <ele>2630.2</ele>
        <time>2026-09-01T11:18:33Z</time>
      </trkpt>
      <trkpt lat="44.64859" lon="7.11562">
        <ele>2631.3</ele>
        <time>2026-09-01T11:18:38Z</time>
      </trkpt>
      <trkpt lat="44.64865" lon="7.11557">
        <ele>2631.8</ele>
        <time>2026-09-01T11:18:43Z</time>
      </trkpt>
      <trkpt lat="44.6487" lon="7.11554">
        <ele>2631.8</ele>
        <time>2026-09-01T11:18:49Z</time>
      </trkpt>
      <trkpt lat="44.64874" lon="7.11552">
        <ele>2631.7</ele>
        <time>2026-09-01T11:18:54Z</time>
      </trkpt>
      <trkpt lat="44.64877" lon="7.11549">
        <ele>2632</ele>
        <time>2026-09-01T11:18:59Z</time>
      </trkpt>
      <trkpt lat="44.64882" lon="7.11547">
        <ele>2631.7</ele>
        <time>2026-09-01T11:19:05Z</time>
      </trkpt>
      <trkpt lat="44.64886" lon="7.11543">
        <ele>2632.1</ele>
        <time>2026-09-01T11:19:10Z</time>
      </trkpt>
      <trkpt lat="44.6489" lon="7.11544">
        <ele>2631.1</ele>
        <time>2026-09-01T11:19:15Z</time>
      </trkpt>
      <trkpt lat="44.64894" lon="7.11542">
        <ele>2631</ele>
        <time>2026-09-01T11:19:21Z</time>
      </trkpt>
      <trkpt lat="44.64897" lon="7.11539">
        <ele>2631.3</ele>
        <time>2026-09-01T11:19:26Z</time>
      </trkpt>
      <trkpt lat="44.649" lon="7.11537">
        <ele>2631.3</ele>
        <time>2026-09-01T11:19:31Z</time>
      </trkpt>
      <trkpt lat="44.64905" lon="7.11533">
        <ele>2631.4</ele>
        <time>2026-09-01T11:19:37Z</time>
      </trkpt>
      <trkpt lat="44.64909" lon="7.11528">
        <ele>2632</ele>
        <time>2026-09-01T11:19:42Z</time>
      </trkpt>
      <trkpt lat="44.64911" lon="7.11523">
        <ele>2633</ele>
        <time>2026-09-01T11:19:47Z</time>
      </trkpt>
      <trkpt lat="44.64916" lon="7.11517">
        <ele>2633.6</ele>
        <time>2026-09-01T11:19:53Z</time>
      </trkpt>
      <trkpt lat="44.6492" lon="7.1151">
        <ele>2634.5</ele>
        <time>2026-09-01T11:19:58Z</time>
      </trkpt>
      <trkpt lat="44.64923" lon="7.11505">
        <ele>2635.1</ele>
        <time>2026-09-01T11:20:03Z</time>
      </trkpt>
      <trkpt lat="44.64926" lon="7.115">
        <ele>2635.6</ele>
        <time>2026-09-01T11:20:09Z</time>
      </trkpt>
      <trkpt lat="44.64929" lon="7.11495">
        <ele>2635.9</ele>
        <time>2026-09-01T11:20:14Z</time>
      </trkpt>
      <trkpt lat="44.64933" lon="7.1149">
        <ele>2635.9</ele>
        <time>2026-09-01T11:20:19Z</time>
      </trkpt>
      <trkpt lat="44.64938" lon="7.11486">
        <ele>2635.4</ele>
        <time>2026-09-01T11:20:25Z</time>
      </trkpt>
      <trkpt lat="44.64943" lon="7.11482">
        <ele>2634.8</ele>
        <time>2026-09-01T11:20:30Z</time>
      </trkpt>
      <trkpt lat="44.64949" lon="7.11478">
        <ele>2634</ele>
        <time>2026-09-01T11:20:35Z</time>
      </trkpt>
      <trkpt lat="44.64955" lon="7.1147">
        <ele>2633.8</ele>
        <time>2026-09-01T11:20:41Z</time>
      </trkpt>
      <trkpt lat="44.64958" lon="7.11464">
        <ele>2634.1</ele>
        <time>2026-09-01T11:20:46Z</time>
      </trkpt>
      <trkpt lat="44.64959" lon="7.11458">
        <ele>2634.9</ele>
        <time>2026-09-01T11:20:51Z</time>
      </trkpt>
      <trkpt lat="44.64962" lon="7.11447">
        <ele>2635.9</ele>
        <time>2026-09-01T11:20:57Z</time>
      </trkpt>
      <trkpt lat="44.64963" lon="7.11439">
        <ele>2637.1</ele>
        <time>2026-09-01T11:21:02Z</time>
      </trkpt>
      <trkpt lat="44.64964" lon="7.11432">
        <ele>2638</ele>
        <time>2026-09-01T11:21:07Z</time>
      </trkpt>
      <trkpt lat="44.64968" lon="7.11427">
        <ele>2637.6</ele>
        <time>2026-09-01T11:21:13Z</time>
      </trkpt>
      <trkpt lat="44.64971" lon="7.11428">
        <ele>2636.5</ele>
        <time>2026-09-01T11:21:18Z</time>
      </trkpt>
      <trkpt lat="44.64974" lon="7.11429">
        <ele>2635.4</ele>
        <time>2026-09-01T11:21:23Z</time>
      </trkpt>
      <trkpt lat="44.64979" lon="7.11429">
        <ele>2633.8</ele>
        <time>2026-09-01T11:21:29Z</time>
      </trkpt>
      <trkpt lat="44.64977" lon="7.11424">
        <ele>2635.3</ele>
        <time>2026-09-01T11:21:34Z</time>
      </trkpt>
      <trkpt lat="44.64976" lon="7.11415">
        <ele>2637.1</ele>
        <time>2026-09-01T11:21:39Z</time>
      </trkpt>
      <trkpt lat="44.64977" lon="7.11406">
        <ele>2638.3</ele>
        <time>2026-09-01T11:21:45Z</time>
      </trkpt>
      <trkpt lat="44.64977" lon="7.11402">
        <ele>2639</ele>
        <time>2026-09-01T11:21:50Z</time>
      </trkpt>
      <trkpt lat="44.64977" lon="7.11395">
        <ele>2640.2</ele>
        <time>2026-09-01T11:21:55Z</time>
      </trkpt>
      <trkpt lat="44.64977" lon="7.11387">
        <ele>2641.6</ele>
        <time>2026-09-01T11:22:01Z</time>
      </trkpt>
      <trkpt lat="44.64976" lon="7.11381">
        <ele>2643</ele>
        <time>2026-09-01T11:22:06Z</time>
      </trkpt>
      <trkpt lat="44.64978" lon="7.11376">
        <ele>2643.2</ele>
        <time>2026-09-01T11:22:11Z</time>
      </trkpt>
      <trkpt lat="44.64981" lon="7.11369">
        <ele>2643.4</ele>
        <time>2026-09-01T11:22:17Z</time>
      </trkpt>
      <trkpt lat="44.64984" lon="7.11367">
        <ele>2642.8</ele>
        <time>2026-09-01T11:22:22Z</time>
      </trkpt>
      <trkpt lat="44.64987" lon="7.11367">
        <ele>2641.7</ele>
        <time>2026-09-01T11:22:27Z</time>
      </trkpt>
      <trkpt lat="44.64991" lon="7.11363">
        <ele>2641.1</ele>
        <time>2026-09-01T11:22:33Z</time>
      </trkpt>
      <trkpt lat="44.64998" lon="7.1136">
        <ele>2639.2</ele>
        <time>2026-09-01T11:22:38Z</time>
      </trkpt>
      <trkpt lat="44.65003" lon="7.11358">
        <ele>2637.5</ele>
        <time>2026-09-01T11:22:43Z</time>
      </trkpt>
      <trkpt lat="44.65009" lon="7.11355">
        <ele>2635.3</ele>
        <time>2026-09-01T11:22:49Z</time>
      </trkpt>
      <trkpt lat="44.6501" lon="7.11349">
        <ele>2635.8</ele>
        <time>2026-09-01T11:22:54Z</time>
      </trkpt>
      <trkpt lat="44.65009" lon="7.11342">
        <ele>2637.4</ele>
        <time>2026-09-01T11:22:59Z</time>
      </trkpt>
      <trkpt lat="44.65011" lon="7.11329">
        <ele>2638.8</ele>
        <time>2026-09-01T11:23:05Z</time>
      </trkpt>
      <trkpt lat="44.6501" lon="7.11321">
        <ele>2641</ele>
        <time>2026-09-01T11:23:10Z</time>
      </trkpt>
      <trkpt lat="44.65012" lon="7.11318">
        <ele>2640.7</ele>
        <time>2026-09-01T11:23:15Z</time>
      </trkpt>
      <trkpt lat="44.65014" lon="7.11314">
        <ele>2640.7</ele>
        <time>2026-09-01T11:23:21Z</time>
      </trkpt>
      <trkpt lat="44.65017" lon="7.11308">
        <ele>2640.5</ele>
        <time>2026-09-01T11:23:26Z</time>
      </trkpt>
      <trkpt lat="44.65018" lon="7.11302">
        <ele>2641.3</ele>
        <time>2026-09-01T11:23:31Z</time>
      </trkpt>
      <trkpt lat="44.65017" lon="7.11295">
        <ele>2643.3</ele>
        <time>2026-09-01T11:23:37Z</time>
      </trkpt>
      <trkpt lat="44.65015" lon="7.11288">
        <ele>2645.8</ele>
        <time>2026-09-01T11:23:42Z</time>
      </trkpt>
      <trkpt lat="44.65017" lon="7.11282">
        <ele>2646.1</ele>
        <time>2026-09-01T11:23:47Z</time>
      </trkpt>
      <trkpt lat="44.65022" lon="7.11276">
        <ele>2644.9</ele>
        <time>2026-09-01T11:23:53Z</time>
      </trkpt>
      <trkpt lat="44.65024" lon="7.11272">
        <ele>2644.7</ele>
        <time>2026-09-01T11:23:58Z</time>
      </trkpt>
      <trkpt lat="44.65028" lon="7.11266">
        <ele>2643.9</ele>
        <time>2026-09-01T11:24:03Z</time>
      </trkpt>
      <trkpt lat="44.65034" lon="7.11261">
        <ele>2641.8</ele>
        <time>2026-09-01T11:24:09Z</time>
      </trkpt>
      <trkpt lat="44.65039" lon="7.11258">
        <ele>2639.8</ele>
        <time>2026-09-01T11:24:14Z</time>
      </trkpt>
      <trkpt lat="44.65042" lon="7.11257">
        <ele>2638.4</ele>
        <time>2026-09-01T11:24:19Z</time>
      </trkpt>
      <trkpt lat="44.65042" lon="7.11258">
        <ele>2638.2</ele>
        <time>2026-09-01T11:24:25Z</time>
      </trkpt>
      <trkpt lat="44.65045" lon="7.11258">
        <ele>2636.7</ele>
        <time>2026-09-01T11:24:30Z</time>
      </trkpt>
      <trkpt lat="44.65051" lon="7.11255">
        <ele>2634.1</ele>
        <time>2026-09-01T11:24:35Z</time>
      </trkpt>
      <trkpt lat="44.65058" lon="7.11248">
        <ele>2631.7</ele>
        <time>2026-09-01T11:24:41Z</time>
      </trkpt>
      <trkpt lat="44.65062" lon="7.11243">
        <ele>2630.4</ele>
        <time>2026-09-01T11:24:46Z</time>
      </trkpt>
      <trkpt lat="44.65064" lon="7.11237">
        <ele>2630.3</ele>
        <time>2026-09-01T11:24:51Z</time>
      </trkpt>
      <trkpt lat="44.65069" lon="7.1123">
        <ele>2628.8</ele>
        <time>2026-09-01T11:24:57Z</time>
      </trkpt>
      <trkpt lat="44.65069" lon="7.11221">
        <ele>2630.3</ele>
        <time>2026-09-01T11:25:02Z</time>
      </trkpt>
      <trkpt lat="44.65073" lon="7.11216">
        <ele>2629.2</ele>
        <time>2026-09-01T11:25:07Z</time>
      </trkpt>
      <trkpt lat="44.65077" lon="7.11222">
        <ele>2626.2</ele>
        <time>2026-09-01T11:25:13Z</time>
      </trkpt>
      <trkpt lat="44.65079" lon="7.11227">
        <ele>2624.3</ele>
        <time>2026-09-01T11:25:18Z</time>
      </trkpt>
      <trkpt lat="44.65085" lon="7.11229">
        <ele>2621.1</ele>
        <time>2026-09-01T11:25:23Z</time>
      </trkpt>
      <trkpt lat="44.65092" lon="7.11226">
        <ele>2618.6</ele>
        <time>2026-09-01T11:25:29Z</time>
      </trkpt>
      <trkpt lat="44.65098" lon="7.11224">
        <ele>2616.4</ele>
        <time>2026-09-01T11:25:34Z</time>
      </trkpt>
      <trkpt lat="44.65104" lon="7.11218">
        <ele>2614.9</ele>
        <time>2026-09-01T11:25:39Z</time>
      </trkpt>
      <trkpt lat="44.65107" lon="7.11211">
        <ele>2614.8</ele>
        <time>2026-09-01T11:25:45Z</time>
      </trkpt>
      <trkpt lat="44.6511" lon="7.11209">
        <ele>2613.9</ele>
        <time>2026-09-01T11:25:50Z</time>
      </trkpt>
      <trkpt lat="44.65115" lon="7.11204">
        <ele>2612.6</ele>
        <time>2026-09-01T11:25:55Z</time>
      </trkpt>
      <trkpt lat="44.65114" lon="7.11199">
        <ele>2613.8</ele>
        <time>2026-09-01T11:26:01Z</time>
      </trkpt>
      <trkpt lat="44.65115" lon="7.11197">
        <ele>2613.8</ele>
        <time>2026-09-01T11:26:06Z</time>
      </trkpt>
      <trkpt lat="44.65115" lon="7.11196">
        <ele>2613.9</ele>
        <time>2026-09-01T11:26:11Z</time>
      </trkpt>
      <trkpt lat="44.65115" lon="7.11196">
        <ele>2613.9</ele>
        <time>2026-09-01T11:26:17Z</time>
      </trkpt>
      <trkpt lat="44.65115" lon="7.11196">
        <ele>2613.9</ele>
        <time>2026-09-01T11:26:22Z</time>
      </trkpt>
      <trkpt lat="44.65115" lon="7.11196">
        <ele>2613.9</ele>
        <time>2026-09-01T11:26:27Z</time>
      </trkpt>
      <trkpt lat="44.65115" lon="7.11196">
        <ele>2613.9</ele>
        <time>2026-09-01T11:26:33Z</time>
      </trkpt>
      <trkpt lat="44.65115" lon="7.11196">
        <ele>2613.9</ele>
        <time>2026-09-01T11:26:38Z</time>
      </trkpt>
      <trkpt lat="44.65115" lon="7.11196">
        <ele>2613.9</ele>
        <time>2026-09-01T11:26:43Z</time>
      </trkpt>
      <trkpt lat="44.65115" lon="7.11196">
        <ele>2613.9</ele>
        <time>2026-09-01T11:26:49Z</time>
      </trkpt>
      <trkpt lat="44.65115" lon="7.11196">
        <ele>2613.9</ele>
        <time>2026-09-01T11:26:54Z</time>
      </trkpt>
      <trkpt lat="44.65115" lon="7.11196">
        <ele>2613.9</ele>
        <time>2026-09-01T11:26:59Z</time>
      </trkpt>
      <trkpt lat="44.65115" lon="7.11196">
        <ele>2613.9</ele>
        <time>2026-09-01T11:27:05Z</time>
      </trkpt>
      <trkpt lat="44.65115" lon="7.11196">
        <ele>2613.9</ele>
        <time>2026-09-01T11:27:10Z</time>
      </trkpt>
      <trkpt lat="44.65115" lon="7.11196">
        <ele>2613.9</ele>
        <time>2026-09-01T11:27:15Z</time>
      </trkpt>
      <trkpt lat="44.65115" lon="7.11196">
        <ele>2613.9</ele>
        <time>2026-09-01T11:27:21Z</time>
      </trkpt>
      <trkpt lat="44.65115" lon="7.11196">
        <ele>2613.9</ele>
        <time>2026-09-01T11:27:26Z</time>
      </trkpt>
      <trkpt lat="44.65115" lon="7.11196">
        <ele>2613.9</ele>
        <time>2026-09-01T11:27:31Z</time>
      </trkpt>
      <trkpt lat="44.65115" lon="7.11196">
        <ele>2613.9</ele>
        <time>2026-09-01T11:27:37Z</time>
      </trkpt>
      <trkpt lat="44.65115" lon="7.11196">
        <ele>2613.9</ele>
        <time>2026-09-01T11:27:42Z</time>
      </trkpt>
      <trkpt lat="44.65115" lon="7.11196">
        <ele>2613.9</ele>
        <time>2026-09-01T11:27:47Z</time>
      </trkpt>
      <trkpt lat="44.65115" lon="7.11196">
        <ele>2613.9</ele>
        <time>2026-09-01T11:27:53Z</time>
      </trkpt>
      <trkpt lat="44.65115" lon="7.11196">
        <ele>2613.9</ele>
        <time>2026-09-01T11:27:58Z</time>
      </trkpt>
      <trkpt lat="44.65115" lon="7.11196">
        <ele>2613.9</ele>
        <time>2026-09-01T11:28:03Z</time>
      </trkpt>
      <trkpt lat="44.65115" lon="7.11196">
        <ele>2613.9</ele>
        <time>2026-09-01T11:28:09Z</time>
      </trkpt>
      <trkpt lat="44.65115" lon="7.11196">
        <ele>2613.9</ele>
        <time>2026-09-01T11:28:14Z</time>
      </trkpt>
      <trkpt lat="44.65115" lon="7.11196">
        <ele>2613.9</ele>
        <time>2026-09-01T11:28:19Z</time>
      </trkpt>
      <trkpt lat="44.65115" lon="7.11196">
        <ele>2613.9</ele>
        <time>2026-09-01T11:28:25Z</time>
      </trkpt>
      <trkpt lat="44.65115" lon="7.11196">
        <ele>2613.9</ele>
        <time>2026-09-01T11:28:30Z</time>
      </trkpt>
      <trkpt lat="44.65115" lon="7.11196">
        <ele>2613.9</ele>
        <time>2026-09-01T11:28:35Z</time>
      </trkpt>
      <trkpt lat="44.65115" lon="7.11196">
        <ele>2613.9</ele>
        <time>2026-09-01T11:28:41Z</time>
      </trkpt>
      <trkpt lat="44.65115" lon="7.11196">
        <ele>2613.9</ele>
        <time>2026-09-01T11:28:46Z</time>
      </trkpt>
      <trkpt lat="44.65115" lon="7.11196">
        <ele>2613.9</ele>
        <time>2026-09-01T11:28:51Z</time>
      </trkpt>
      <trkpt lat="44.65115" lon="7.11196">
        <ele>2613.9</ele>
        <time>2026-09-01T11:28:57Z</time>
      </trkpt>
      <trkpt lat="44.65115" lon="7.11196">
        <ele>2613.9</ele>
        <time>2026-09-01T11:29:02Z</time>
      </trkpt>
      <trkpt lat="44.65115" lon="7.11196">
        <ele>2613.9</ele>
        <time>2026-09-01T11:29:07Z</time>
      </trkpt>
      <trkpt lat="44.65115" lon="7.11196">
        <ele>2613.9</ele>
        <time>2026-09-01T11:29:13Z</time>
      </trkpt>
      <trkpt lat="44.65115" lon="7.11196">
        <ele>2613.9</ele>
        <time>2026-09-01T11:29:18Z</time>
      </trkpt>
      <trkpt lat="44.65115" lon="7.11196">
        <ele>2613.9</ele>
        <time>2026-09-01T11:29:23Z</time>
      </trkpt>
      <trkpt lat="44.65115" lon="7.11196">
        <ele>2613.9</ele>
        <time>2026-09-01T11:29:29Z</time>
      </trkpt>
      <trkpt lat="44.65115" lon="7.11196">
        <ele>2613.9</ele>
        <time>2026-09-01T11:29:34Z</time>
      </trkpt>
      <trkpt lat="44.65115" lon="7.11196">
        <ele>2613.9</ele>
        <time>2026-09-01T11:29:39Z</time>
      </trkpt>
      <trkpt lat="44.65115" lon="7.11196">
        <ele>2613.9</ele>
        <time>2026-09-01T11:29:45Z</time>
      </trkpt>
      <trkpt lat="44.65115" lon="7.11196">
        <ele>2613.9</ele>
        <time>2026-09-01T11:29:50Z</time>
      </trkpt>
      <trkpt lat="44.65123" lon="7.11198">
        <ele>2610.1</ele>
        <time>2026-09-01T11:29:55Z</time>
      </trkpt>
      <trkpt lat="44.65125" lon="7.11181">
        <ele>2612.1</ele>
        <time>2026-09-01T11:30:01Z</time>
      </trkpt>
      <trkpt lat="44.65124" lon="7.11174">
        <ele>2613.7</ele>
        <time>2026-09-01T11:30:06Z</time>
      </trkpt>
      <trkpt lat="44.65121" lon="7.11165">
        <ele>2616.5</ele>
        <time>2026-09-01T11:30:11Z</time>
      </trkpt>
      <trkpt lat="44.65123" lon="7.11157">
        <ele>2616.7</ele>
        <time>2026-09-01T11:30:17Z</time>
      </trkpt>
      <trkpt lat="44.65128" lon="7.11156">
        <ele>2614.6</ele>
        <time>2026-09-01T11:30:22Z</time>
      </trkpt>
      <trkpt lat="44.65131" lon="7.11156">
        <ele>2613.3</ele>
        <time>2026-09-01T11:30:27Z</time>
      </trkpt>
      <trkpt lat="44.65137" lon="7.11156">
        <ele>2610.7</ele>
        <time>2026-09-01T11:30:33Z</time>
      </trkpt>
      <trkpt lat="44.65143" lon="7.11155">
        <ele>2608.2</ele>
        <time>2026-09-01T11:30:38Z</time>
      </trkpt>
      <trkpt lat="44.65147" lon="7.11155">
        <ele>2606.4</ele>
        <time>2026-09-01T11:30:43Z</time>
      </trkpt>
      <trkpt lat="44.65153" lon="7.11153">
        <ele>2604.1</ele>
        <time>2026-09-01T11:30:49Z</time>
      </trkpt>
      <trkpt lat="44.65157" lon="7.11148">
        <ele>2603.1</ele>
        <time>2026-09-01T11:30:54Z</time>
      </trkpt>
      <trkpt lat="44.65159" lon="7.11143">
        <ele>2603</ele>
        <time>2026-09-01T11:30:59Z</time>
      </trkpt>
      <trkpt lat="44.6516" lon="7.11135">
        <ele>2603.8</ele>
        <time>2026-09-01T11:31:05Z</time>
      </trkpt>
      <trkpt lat="44.6516" lon="7.1113">
        <ele>2604.5</ele>
        <time>2026-09-01T11:31:10Z</time>
      </trkpt>
      <trkpt lat="44.65164" lon="7.11127">
        <ele>2603.3</ele>
        <time>2026-09-01T11:31:15Z</time>
      </trkpt>
      <trkpt lat="44.65168" lon="7.11125">
        <ele>2602.1</ele>
        <time>2026-09-01T11:31:21Z</time>
      </trkpt>
      <trkpt lat="44.65171" lon="7.11121">
        <ele>2601.9</ele>
        <time>2026-09-01T11:31:26Z</time>
      </trkpt>
      <trkpt lat="44.65174" lon="7.11116">
        <ele>2601.9</ele>
        <time>2026-09-01T11:31:31Z</time>
      </trkpt>
      <trkpt lat="44.65177" lon="7.1111">
        <ele>2602</ele>
        <time>2026-09-01T11:31:37Z</time>
      </trkpt>
      <trkpt lat="44.65179" lon="7.11105">
        <ele>2602.3</ele>
        <time>2026-09-01T11:31:42Z</time>
      </trkpt>
      <trkpt lat="44.65181" lon="7.11101">
        <ele>2602.4</ele>
        <time>2026-09-01T11:31:47Z</time>
      </trkpt>
      <trkpt lat="44.65184" lon="7.11096">
        <ele>2602.5</ele>
        <time>2026-09-01T11:31:53Z</time>
      </trkpt>
      <trkpt lat="44.65187" lon="7.11093">
        <ele>2602.2</ele>
        <time>2026-09-01T11:31:58Z</time>
      </trkpt>
      <trkpt lat="44.65191" lon="7.11091">
        <ele>2601.5</ele>
        <time>2026-09-01T11:32:03Z</time>
      </trkpt>
      <trkpt lat="44.65194" lon="7.1109">
        <ele>2600.9</ele>
        <time>2026-09-01T11:32:09Z</time>
      </trkpt>
      <trkpt lat="44.65199" lon="7.11089">
        <ele>2599.8</ele>
        <time>2026-09-01T11:32:14Z</time>
      </trkpt>
      <trkpt lat="44.65201" lon="7.11087">
        <ele>2599.7</ele>
        <time>2026-09-01T11:32:19Z</time>
      </trkpt>
      <trkpt lat="44.65205" lon="7.11084">
        <ele>2599.2</ele>
        <time>2026-09-01T11:32:25Z</time>
      </trkpt>
      <trkpt lat="44.65209" lon="7.11081">
        <ele>2599</ele>
        <time>2026-09-01T11:32:30Z</time>
      </trkpt>
      <trkpt lat="44.65213" lon="7.11077">
        <ele>2599.1</ele>
        <time>2026-09-01T11:32:35Z</time>
      </trkpt>
      <trkpt lat="44.65217" lon="7.11072">
        <ele>2599.4</ele>
        <time>2026-09-01T11:32:41Z</time>
      </trkpt>
      <trkpt lat="44.6522" lon="7.1107">
        <ele>2599.3</ele>
        <time>2026-09-01T11:32:46Z</time>
      </trkpt>
      <trkpt lat="44.65223" lon="7.11065">
        <ele>2599.9</ele>
        <time>2026-09-01T11:32:51Z</time>
      </trkpt>
      <trkpt lat="44.65228" lon="7.1106">
        <ele>2600.2</ele>
        <time>2026-09-01T11:32:57Z</time>
      </trkpt>
      <trkpt lat="44.65231" lon="7.11059">
        <ele>2599.8</ele>
        <time>2026-09-01T11:33:02Z</time>
      </trkpt>
      <trkpt lat="44.65236" lon="7.11056">
        <ele>2599.5</ele>
        <time>2026-09-01T11:33:07Z</time>
      </trkpt>
      <trkpt lat="44.6524" lon="7.11051">
        <ele>2600</ele>
        <time>2026-09-01T11:33:13Z</time>
      </trkpt>
      <trkpt lat="44.65243" lon="7.11049">
        <ele>2599.9</ele>
        <time>2026-09-01T11:33:18Z</time>
      </trkpt>
      <trkpt lat="44.65245" lon="7.11045">
        <ele>2600.6</ele>
        <time>2026-09-01T11:33:23Z</time>
      </trkpt>
      <trkpt lat="44.65248" lon="7.11044">
        <ele>2600.2</ele>
        <time>2026-09-01T11:33:29Z</time>
      </trkpt>
      <trkpt lat="44.65253" lon="7.11044">
        <ele>2599.1</ele>
        <time>2026-09-01T11:33:34Z</time>
      </trkpt>
      <trkpt lat="44.65256" lon="7.11043">
        <ele>2598.6</ele>
        <time>2026-09-01T11:33:39Z</time>
      </trkpt>
      <trkpt lat="44.65261" lon="7.11041">
        <ele>2598</ele>
        <time>2026-09-01T11:33:45Z</time>
      </trkpt>
      <trkpt lat="44.65263" lon="7.1104">
        <ele>2597.8</ele>
        <time>2026-09-01T11:33:50Z</time>
      </trkpt>
      <trkpt lat="44.65268" lon="7.11038">
        <ele>2597.1</ele>
        <time>2026-09-01T11:33:55Z</time>
      </trkpt>
      <trkpt lat="44.65273" lon="7.11036">
        <ele>2596.5</ele>
        <time>2026-09-01T11:34:01Z</time>
      </trkpt>
      <trkpt lat="44.65278" lon="7.11034">
        <ele>2595.8</ele>
        <time>2026-09-01T11:34:06Z</time>
      </trkpt>
      <trkpt lat="44.65283" lon="7.11033">
        <ele>2594.9</ele>
        <time>2026-09-01T11:34:11Z</time>
      </trkpt>
      <trkpt lat="44.65286" lon="7.11032">
        <ele>2594.4</ele>
        <time>2026-09-01T11:34:17Z</time>
      </trkpt>
      <trkpt lat="44.65289" lon="7.11031">
        <ele>2593.9</ele>
        <time>2026-09-01T11:34:22Z</time>
      </trkpt>
      <trkpt lat="44.65293" lon="7.1103">
        <ele>2593.2</ele>
        <time>2026-09-01T11:34:27Z</time>
      </trkpt>
      <trkpt lat="44.65298" lon="7.11026">
        <ele>2593.1</ele>
        <time>2026-09-01T11:34:33Z</time>
      </trkpt>
      <trkpt lat="44.65301" lon="7.11022">
        <ele>2593.4</ele>
        <time>2026-09-01T11:34:38Z</time>
      </trkpt>
      <trkpt lat="44.65303" lon="7.11018">
        <ele>2594</ele>
        <time>2026-09-01T11:34:43Z</time>
      </trkpt>
      <trkpt lat="44.65304" lon="7.11018">
        <ele>2593.8</ele>
        <time>2026-09-01T11:34:49Z</time>
      </trkpt>
      <trkpt lat="44.65304" lon="7.11019">
        <ele>2593.5</ele>
        <time>2026-09-01T11:34:54Z</time>
      </trkpt>
      <trkpt lat="44.65304" lon="7.11019">
        <ele>2593.5</ele>
        <time>2026-09-01T11:34:59Z</time>
      </trkpt>
      <trkpt lat="44.65304" lon="7.11019">
        <ele>2593.5</ele>
        <time>2026-09-01T11:35:05Z</time>
      </trkpt>
      <trkpt lat="44.65304" lon="7.11019">
        <ele>2593.5</ele>
        <time>2026-09-01T11:35:10Z</time>
      </trkpt>
      <trkpt lat="44.65304" lon="7.11019">
        <ele>2593.5</ele>
        <time>2026-09-01T11:35:15Z</time>
      </trkpt>
      <trkpt lat="44.65304" lon="7.11019">
        <ele>2593.5</ele>
        <time>2026-09-01T11:35:21Z</time>
      </trkpt>
      <trkpt lat="44.65304" lon="7.11019">
        <ele>2593.5</ele>
        <time>2026-09-01T11:35:26Z</time>
      </trkpt>
      <trkpt lat="44.65304" lon="7.11019">
        <ele>2593.5</ele>
        <time>2026-09-01T11:35:31Z</time>
      </trkpt>
      <trkpt lat="44.65304" lon="7.11019">
        <ele>2593.5</ele>
        <time>2026-09-01T11:35:37Z</time>
      </trkpt>
      <trkpt lat="44.65304" lon="7.11019">
        <ele>2593.5</ele>
        <time>2026-09-01T11:35:42Z</time>
      </trkpt>
      <trkpt lat="44.65304" lon="7.11019">
        <ele>2593.5</ele>
        <time>2026-09-01T11:35:47Z</time>
      </trkpt>
      <trkpt lat="44.65307" lon="7.11016">
        <ele>2593.5</ele>
        <time>2026-09-01T11:35:53Z</time>
      </trkpt>
      <trkpt lat="44.6531" lon="7.11011">
        <ele>2594.1</ele>
        <time>2026-09-01T11:35:58Z</time>
      </trkpt>
      <trkpt lat="44.65312" lon="7.11007">
        <ele>2594.7</ele>
        <time>2026-09-01T11:36:03Z</time>
      </trkpt>
      <trkpt lat="44.65315" lon="7.11002">
        <ele>2595.3</ele>
        <time>2026-09-01T11:36:09Z</time>
      </trkpt>
      <trkpt lat="44.65319" lon="7.10997">
        <ele>2595.7</ele>
        <time>2026-09-01T11:36:14Z</time>
      </trkpt>
      <trkpt lat="44.65322" lon="7.10992">
        <ele>2596.5</ele>
        <time>2026-09-01T11:36:19Z</time>
      </trkpt>
      <trkpt lat="44.65327" lon="7.10987">
        <ele>2596.7</ele>
        <time>2026-09-01T11:36:25Z</time>
      </trkpt>
      <trkpt lat="44.65331" lon="7.10986">
        <ele>2595.8</ele>
        <time>2026-09-01T11:36:30Z</time>
      </trkpt>
      <trkpt lat="44.65334" lon="7.10982">
        <ele>2596.3</ele>
        <time>2026-09-01T11:36:35Z</time>
      </trkpt>
      <trkpt lat="44.65335" lon="7.10978">
        <ele>2597.2</ele>
        <time>2026-09-01T11:36:41Z</time>
      </trkpt>
      <trkpt lat="44.65337" lon="7.10973">
        <ele>2598.3</ele>
        <time>2026-09-01T11:36:46Z</time>
      </trkpt>
      <trkpt lat="44.65339" lon="7.10968">
        <ele>2599.3</ele>
        <time>2026-09-01T11:36:51Z</time>
      </trkpt>
      <trkpt lat="44.65341" lon="7.10964">
        <ele>2600</ele>
        <time>2026-09-01T11:36:57Z</time>
      </trkpt>
      <trkpt lat="44.65343" lon="7.10959">
        <ele>2601</ele>
        <time>2026-09-01T11:37:02Z</time>
      </trkpt>
      <trkpt lat="44.65346" lon="7.10955">
        <ele>2601.4</ele>
        <time>2026-09-01T11:37:07Z</time>
      </trkpt>
      <trkpt lat="44.65348" lon="7.10952">
        <ele>2601.8</ele>
        <time>2026-09-01T11:37:13Z</time>
      </trkpt>
      <trkpt lat="44.65351" lon="7.1095">
        <ele>2601.6</ele>
        <time>2026-09-01T11:37:18Z</time>
      </trkpt>
      <trkpt lat="44.65354" lon="7.10945">
        <ele>2602.2</ele>
        <time>2026-09-01T11:37:23Z</time>
      </trkpt>
      <trkpt lat="44.65356" lon="7.10942">
        <ele>2602.5</ele>
        <time>2026-09-01T11:37:29Z</time>
      </trkpt>
      <trkpt lat="44.65358" lon="7.1094">
        <ele>2602.6</ele>
        <time>2026-09-01T11:37:34Z</time>
      </trkpt>
      <trkpt lat="44.65361" lon="7.10937">
        <ele>2602.6</ele>
        <time>2026-09-01T11:37:39Z</time>
      </trkpt>
      <trkpt lat="44.65364" lon="7.10935">
        <ele>2602.3</ele>
        <time>2026-09-01T11:37:45Z</time>
      </trkpt>
      <trkpt lat="44.65366" lon="7.10933">
        <ele>2602.3</ele>
        <time>2026-09-01T11:37:50Z</time>
      </trkpt>
      <trkpt lat="44.65366" lon="7.10932">
        <ele>2602.6</ele>
        <time>2026-09-01T11:37:55Z</time>
      </trkpt>
      <trkpt lat="44.65371" lon="7.10936">
        <ele>2600.2</ele>
        <time>2026-09-01T11:38:01Z</time>
      </trkpt>
      <trkpt lat="44.65375" lon="7.10938">
        <ele>2598.6</ele>
        <time>2026-09-01T11:38:06Z</time>
      </trkpt>
      <trkpt lat="44.65378" lon="7.10939">
        <ele>2597.6</ele>
        <time>2026-09-01T11:38:11Z</time>
      </trkpt>
      <trkpt lat="44.65382" lon="7.1094">
        <ele>2596.3</ele>
        <time>2026-09-01T11:38:17Z</time>
      </trkpt>
      <trkpt lat="44.65385" lon="7.10938">
        <ele>2596</ele>
        <time>2026-09-01T11:38:22Z</time>
      </trkpt>
      <trkpt lat="44.65388" lon="7.10935">
        <ele>2595.9</ele>
        <time>2026-09-01T11:38:27Z</time>
      </trkpt>
      <trkpt lat="44.6539" lon="7.10933">
        <ele>2595.8</ele>
        <time>2026-09-01T11:38:33Z</time>
      </trkpt>
      <trkpt lat="44.65392" lon="7.1093">
        <ele>2596</ele>
        <time>2026-09-01T11:38:38Z</time>
      </trkpt>
      <trkpt lat="44.65394" lon="7.10926">
        <ele>2596.4</ele>
        <time>2026-09-01T11:38:43Z</time>
      </trkpt>
      <trkpt lat="44.65397" lon="7.10923">
        <ele>2596.2</ele>
        <time>2026-09-01T11:38:49Z</time>
      </trkpt>
      <trkpt lat="44.654" lon="7.1092">
        <ele>2596.1</ele>
        <time>2026-09-01T11:38:54Z</time>
      </trkpt>
      <trkpt lat="44.65403" lon="7.10919">
        <ele>2595.4</ele>
        <time>2026-09-01T11:38:59Z</time>
      </trkpt>
      <trkpt lat="44.65407" lon="7.10917">
        <ele>2594.7</ele>
        <time>2026-09-01T11:39:05Z</time>
      </trkpt>
      <trkpt lat="44.65412" lon="7.10918">
        <ele>2593.1</ele>
        <time>2026-09-01T11:39:10Z</time>
      </trkpt>
      <trkpt lat="44.65416" lon="7.10918">
        <ele>2591.9</ele>
        <time>2026-09-01T11:39:15Z</time>
      </trkpt>
      <trkpt lat="44.6542" lon="7.10917">
        <ele>2591.5</ele>
        <time>2026-09-01T11:39:21Z</time>
      </trkpt>
      <trkpt lat="44.65424" lon="7.10918">
        <ele>2590.7</ele>
        <time>2026-09-01T11:39:26Z</time>
      </trkpt>
      <trkpt lat="44.65427" lon="7.10921">
        <ele>2589.7</ele>
        <time>2026-09-01T11:39:31Z</time>
      </trkpt>
      <trkpt lat="44.65432" lon="7.10921">
        <ele>2589</ele>
        <time>2026-09-01T11:39:37Z</time>
      </trkpt>
      <trkpt lat="44.65433" lon="7.10925">
        <ele>2588.1</ele>
        <time>2026-09-01T11:39:42Z</time>
      </trkpt>
      <trkpt lat="44.65434" lon="7.10932">
        <ele>2586.7</ele>
        <time>2026-09-01T11:39:47Z</time>
      </trkpt>
      <trkpt lat="44.65432" lon="7.1094">
        <ele>2585.5</ele>
        <time>2026-09-01T11:39:53Z</time>
      </trkpt>
      <trkpt lat="44.65431" lon="7.10947">
        <ele>2584.3</ele>
        <time>2026-09-01T11:39:58Z</time>
      </trkpt>
      <trkpt lat="44.65433" lon="7.10952">
        <ele>2583.2</ele>
        <time>2026-09-01T11:40:03Z</time>
      </trkpt>
      <trkpt lat="44.65431" lon="7.10961">
        <ele>2581.7</ele>
        <time>2026-09-01T11:40:09Z</time>
      </trkpt>
      <trkpt lat="44.6543" lon="7.10968">
        <ele>2580.5</ele>
        <time>2026-09-01T11:40:14Z</time>
      </trkpt>
      <trkpt lat="44.65433" lon="7.10974">
        <ele>2579.2</ele>
        <time>2026-09-01T11:40:19Z</time>
      </trkpt>
      <trkpt lat="44.65436" lon="7.10978">
        <ele>2578.2</ele>
        <time>2026-09-01T11:40:25Z</time>
      </trkpt>
      <trkpt lat="44.6544" lon="7.10978">
        <ele>2578</ele>
        <time>2026-09-01T11:40:30Z</time>
      </trkpt>
      <trkpt lat="44.65443" lon="7.10975">
        <ele>2578.3</ele>
        <time>2026-09-01T11:40:35Z</time>
      </trkpt>
      <trkpt lat="44.65446" lon="7.10972">
        <ele>2578.6</ele>
        <time>2026-09-01T11:40:41Z</time>
      </trkpt>
      <trkpt lat="44.65451" lon="7.10972">
        <ele>2578.2</ele>
        <time>2026-09-01T11:40:46Z</time>
      </trkpt>
      <trkpt lat="44.65455" lon="7.10971">
        <ele>2578.1</ele>
        <time>2026-09-01T11:40:51Z</time>
      </trkpt>
      <trkpt lat="44.6546" lon="7.10973">
        <ele>2577.4</ele>
        <time>2026-09-01T11:40:57Z</time>
      </trkpt>
      <trkpt lat="44.65461" lon="7.10972">
        <ele>2577.5</ele>
        <time>2026-09-01T11:41:02Z</time>
      </trkpt>
      <trkpt lat="44.65461" lon="7.10972">
        <ele>2577.5</ele>
        <time>2026-09-01T11:41:07Z</time>
      </trkpt>
      <trkpt lat="44.65461" lon="7.10972">
        <ele>2577.5</ele>
        <time>2026-09-01T11:41:13Z</time>
      </trkpt>
      <trkpt lat="44.65462" lon="7.1097">
        <ele>2577.7</ele>
        <time>2026-09-01T11:41:18Z</time>
      </trkpt>
      <trkpt lat="44.65462" lon="7.10964">
        <ele>2578.6</ele>
        <time>2026-09-01T11:41:23Z</time>
      </trkpt>
      <trkpt lat="44.65465" lon="7.10958">
        <ele>2579.2</ele>
        <time>2026-09-01T11:41:29Z</time>
      </trkpt>
      <trkpt lat="44.65467" lon="7.10957">
        <ele>2579.2</ele>
        <time>2026-09-01T11:41:34Z</time>
      </trkpt>
      <trkpt lat="44.6547" lon="7.10958">
        <ele>2578.7</ele>
        <time>2026-09-01T11:41:39Z</time>
      </trkpt>
      <trkpt lat="44.65473" lon="7.10962">
        <ele>2577.9</ele>
        <time>2026-09-01T11:41:45Z</time>
      </trkpt>
      <trkpt lat="44.65476" lon="7.10962">
        <ele>2577.7</ele>
        <time>2026-09-01T11:41:50Z</time>
      </trkpt>
      <trkpt lat="44.65476" lon="7.10961">
        <ele>2577.8</ele>
        <time>2026-09-01T11:41:55Z</time>
      </trkpt>
      <trkpt lat="44.65479" lon="7.1096">
        <ele>2577.7</ele>
        <time>2026-09-01T11:42:01Z</time>
      </trkpt>
      <trkpt lat="44.65482" lon="7.10961">
        <ele>2577.3</ele>
        <time>2026-09-01T11:42:06Z</time>
      </trkpt>
      <trkpt lat="44.65487" lon="7.10964">
        <ele>2576.5</ele>
        <time>2026-09-01T11:42:11Z</time>
      </trkpt>
      <trkpt lat="44.65492" lon="7.10967">
        <ele>2575.8</ele>
        <time>2026-09-01T11:42:17Z</time>
      </trkpt>
      <trkpt lat="44.65495" lon="7.10972">
        <ele>2575</ele>
        <time>2026-09-01T11:42:22Z</time>
      </trkpt>
      <trkpt lat="44.65499" lon="7.10975">
        <ele>2574.5</ele>
        <time>2026-09-01T11:42:27Z</time>
      </trkpt>
      <trkpt lat="44.65505" lon="7.10976">
        <ele>2574.7</ele>
        <time>2026-09-01T11:42:33Z</time>
      </trkpt>
      <trkpt lat="44.6551" lon="7.10976">
        <ele>2575</ele>
        <time>2026-09-01T11:42:38Z</time>
      </trkpt>
      <trkpt lat="44.65515" lon="7.10976">
        <ele>2575.4</ele>
        <time>2026-09-01T11:42:43Z</time>
      </trkpt>
      <trkpt lat="44.6552" lon="7.10977">
        <ele>2575.7</ele>
        <time>2026-09-01T11:42:49Z</time>
      </trkpt>
      <trkpt lat="44.65526" lon="7.10973">
        <ele>2576.5</ele>
        <time>2026-09-01T11:42:54Z</time>
      </trkpt>
      <trkpt lat="44.65529" lon="7.10967">
        <ele>2577.2</ele>
        <time>2026-09-01T11:42:59Z</time>
      </trkpt>
      <trkpt lat="44.65532" lon="7.10961">
        <ele>2577.9</ele>
        <time>2026-09-01T11:43:05Z</time>
      </trkpt>
      <trkpt lat="44.65532" lon="7.10958">
        <ele>2578.1</ele>
        <time>2026-09-01T11:43:10Z</time>
      </trkpt>
      <trkpt lat="44.65533" lon="7.10954">
        <ele>2578.5</ele>
        <time>2026-09-01T11:43:15Z</time>
      </trkpt>
      <trkpt lat="44.65539" lon="7.10954">
        <ele>2578.9</ele>
        <time>2026-09-01T11:43:21Z</time>
      </trkpt>
      <trkpt lat="44.65544" lon="7.10954">
        <ele>2579.2</ele>
        <time>2026-09-01T11:43:26Z</time>
      </trkpt>
      <trkpt lat="44.65546" lon="7.10949">
        <ele>2579.7</ele>
        <time>2026-09-01T11:43:31Z</time>
      </trkpt>
      <trkpt lat="44.65551" lon="7.10941">
        <ele>2580.6</ele>
        <time>2026-09-01T11:43:37Z</time>
      </trkpt>
      <trkpt lat="44.65553" lon="7.10935">
        <ele>2581.2</ele>
        <time>2026-09-01T11:43:42Z</time>
      </trkpt>
      <trkpt lat="44.65557" lon="7.10928">
        <ele>2581.9</ele>
        <time>2026-09-01T11:43:47Z</time>
      </trkpt>
      <trkpt lat="44.65559" lon="7.1092">
        <ele>2582.6</ele>
        <time>2026-09-01T11:43:53Z</time>
      </trkpt>
      <trkpt lat="44.65563" lon="7.10914">
        <ele>2583.2</ele>
        <time>2026-09-01T11:43:58Z</time>
      </trkpt>
      <trkpt lat="44.65566" lon="7.10907">
        <ele>2583.9</ele>
        <time>2026-09-01T11:44:03Z</time>
      </trkpt>
      <trkpt lat="44.65569" lon="7.10899">
        <ele>2584.6</ele>
        <time>2026-09-01T11:44:09Z</time>
      </trkpt>
      <trkpt lat="44.65569" lon="7.10896">
        <ele>2584.9</ele>
        <time>2026-09-01T11:44:14Z</time>
      </trkpt>
      <trkpt lat="44.65569" lon="7.10895">
        <ele>2584.9</ele>
        <time>2026-09-01T11:44:19Z</time>
      </trkpt>
      <trkpt lat="44.65569" lon="7.10895">
        <ele>2584.9</ele>
        <time>2026-09-01T11:44:25Z</time>
      </trkpt>
      <trkpt lat="44.65574" lon="7.10896">
        <ele>2585</ele>
        <time>2026-09-01T11:44:30Z</time>
      </trkpt>
      <trkpt lat="44.65576" lon="7.10892">
        <ele>2585.3</ele>
        <time>2026-09-01T11:44:35Z</time>
      </trkpt>
      <trkpt lat="44.65576" lon="7.10886">
        <ele>2585.7</ele>
        <time>2026-09-01T11:44:41Z</time>
      </trkpt>
      <trkpt lat="44.65581" lon="7.10875">
        <ele>2586.5</ele>
        <time>2026-09-01T11:44:46Z</time>
      </trkpt>
      <trkpt lat="44.65582" lon="7.10872">
        <ele>2586.7</ele>
        <time>2026-09-01T11:44:51Z</time>
      </trkpt>
      <trkpt lat="44.65584" lon="7.10871">
        <ele>2586.7</ele>
        <time>2026-09-01T11:44:57Z</time>
      </trkpt>
      <trkpt lat="44.65588" lon="7.10862">
        <ele>2587.1</ele>
        <time>2026-09-01T11:45:02Z</time>
      </trkpt>
      <trkpt lat="44.65589" lon="7.10857">
        <ele>2587.3</ele>
        <time>2026-09-01T11:45:07Z</time>
      </trkpt>
      <trkpt lat="44.65593" lon="7.10846">
        <ele>2587.9</ele>
        <time>2026-09-01T11:45:13Z</time>
      </trkpt>
      <trkpt lat="44.65596" lon="7.10841">
        <ele>2588.1</ele>
        <time>2026-09-01T11:45:18Z</time>
      </trkpt>
      <trkpt lat="44.656" lon="7.10839">
        <ele>2588</ele>
        <time>2026-09-01T11:45:23Z</time>
      </trkpt>
      <trkpt lat="44.65606" lon="7.10839">
        <ele>2587.8</ele>
        <time>2026-09-01T11:45:29Z</time>
      </trkpt>
      <trkpt lat="44.65609" lon="7.10841">
        <ele>2587.6</ele>
        <time>2026-09-01T11:45:34Z</time>
      </trkpt>
      <trkpt lat="44.65613" lon="7.10846">
        <ele>2587.1</ele>
        <time>2026-09-01T11:45:39Z</time>
      </trkpt>
      <trkpt lat="44.65619" lon="7.10842">
        <ele>2587.1</ele>
        <time>2026-09-01T11:45:45Z</time>
      </trkpt>
      <trkpt lat="44.65622" lon="7.10841">
        <ele>2587.1</ele>
        <time>2026-09-01T11:45:50Z</time>
      </trkpt>
      <trkpt lat="44.65622" lon="7.10841">
        <ele>2587.1</ele>
        <time>2026-09-01T11:45:55Z</time>
      </trkpt>
      <trkpt lat="44.65622" lon="7.10841">
        <ele>2587.1</ele>
        <time>2026-09-01T11:46:01Z</time>
      </trkpt>
      <trkpt lat="44.65622" lon="7.10841">
        <ele>2587.1</ele>
        <time>2026-09-01T11:46:06Z</time>
      </trkpt>
      <trkpt lat="44.65622" lon="7.10841">
        <ele>2587.1</ele>
        <time>2026-09-01T11:46:11Z</time>
      </trkpt>
      <trkpt lat="44.65627" lon="7.10836">
        <ele>2587.2</ele>
        <time>2026-09-01T11:46:17Z</time>
      </trkpt>
      <trkpt lat="44.65628" lon="7.10836">
        <ele>2587.2</ele>
        <time>2026-09-01T11:46:22Z</time>
      </trkpt>
      <trkpt lat="44.6563" lon="7.10835">
        <ele>2587.2</ele>
        <time>2026-09-01T11:46:27Z</time>
      </trkpt>
      <trkpt lat="44.65634" lon="7.10826">
        <ele>2587.8</ele>
        <time>2026-09-01T11:46:33Z</time>
      </trkpt>
      <trkpt lat="44.65638" lon="7.10821">
        <ele>2588.1</ele>
        <time>2026-09-01T11:46:38Z</time>
      </trkpt>
      <trkpt lat="44.65644" lon="7.10817">
        <ele>2588.1</ele>
        <time>2026-09-01T11:46:43Z</time>
      </trkpt>
      <trkpt lat="44.6565" lon="7.10812">
        <ele>2588.2</ele>
        <time>2026-09-01T11:46:49Z</time>
      </trkpt>
      <trkpt lat="44.65655" lon="7.10811">
        <ele>2588</ele>
        <time>2026-09-01T11:46:54Z</time>
      </trkpt>
      <trkpt lat="44.65661" lon="7.1081">
        <ele>2587.7</ele>
        <time>2026-09-01T11:46:59Z</time>
      </trkpt>
      <trkpt lat="44.65661" lon="7.10808">
        <ele>2587.8</ele>
        <time>2026-09-01T11:47:05Z</time>
      </trkpt>
      <trkpt lat="44.65664" lon="7.10806">
        <ele>2587.8</ele>
        <time>2026-09-01T11:47:10Z</time>
      </trkpt>
      <trkpt lat="44.65667" lon="7.10803">
        <ele>2587.8</ele>
        <time>2026-09-01T11:47:15Z</time>
      </trkpt>
      <trkpt lat="44.6567" lon="7.10802">
        <ele>2587.6</ele>
        <time>2026-09-01T11:47:21Z</time>
      </trkpt>
      <trkpt lat="44.65673" lon="7.10801">
        <ele>2587.4</ele>
        <time>2026-09-01T11:47:26Z</time>
      </trkpt>
      <trkpt lat="44.65677" lon="7.10798">
        <ele>2587.2</ele>
        <time>2026-09-01T11:47:31Z</time>
      </trkpt>
      <trkpt lat="44.65682" lon="7.10795">
        <ele>2586.9</ele>
        <time>2026-09-01T11:47:37Z</time>
      </trkpt>
      <trkpt lat="44.65688" lon="7.10795">
        <ele>2586.4</ele>
        <time>2026-09-01T11:47:42Z</time>
      </trkpt>
      <trkpt lat="44.6569" lon="7.10792">
        <ele>2586.4</ele>
        <time>2026-09-01T11:47:47Z</time>
      </trkpt>
      <trkpt lat="44.65694" lon="7.1079">
        <ele>2586.1</ele>
        <time>2026-09-01T11:47:53Z</time>
      </trkpt>
      <trkpt lat="44.65695" lon="7.10788">
        <ele>2586.2</ele>
        <time>2026-09-01T11:47:58Z</time>
      </trkpt>
      <trkpt lat="44.65697" lon="7.10785">
        <ele>2586.2</ele>
        <time>2026-09-01T11:48:03Z</time>
      </trkpt>
      <trkpt lat="44.65701" lon="7.10781">
        <ele>2586.1</ele>
        <time>2026-09-01T11:48:09Z</time>
      </trkpt>
      <trkpt lat="44.65705" lon="7.10781">
        <ele>2585.7</ele>
        <time>2026-09-01T11:48:14Z</time>
      </trkpt>
      <trkpt lat="44.65708" lon="7.1078">
        <ele>2585.5</ele>
        <time>2026-09-01T11:48:19Z</time>
      </trkpt>
      <trkpt lat="44.65715" lon="7.1078">
        <ele>2584.9</ele>
        <time>2026-09-01T11:48:25Z</time>
      </trkpt>
      <trkpt lat="44.65719" lon="7.10776">
        <ele>2584.8</ele>
        <time>2026-09-01T11:48:30Z</time>
      </trkpt>
      <trkpt lat="44.65722" lon="7.10773">
        <ele>2584.8</ele>
        <time>2026-09-01T11:48:35Z</time>
      </trkpt>
      <trkpt lat="44.65725" lon="7.10775">
        <ele>2584.4</ele>
        <time>2026-09-01T11:48:41Z</time>
      </trkpt>
      <trkpt lat="44.6573" lon="7.10774">
        <ele>2584</ele>
        <time>2026-09-01T11:48:46Z</time>
      </trkpt>
      <trkpt lat="44.65733" lon="7.10776">
        <ele>2583.6</ele>
        <time>2026-09-01T11:48:51Z</time>
      </trkpt>
      <trkpt lat="44.65735" lon="7.10783">
        <ele>2583</ele>
        <time>2026-09-01T11:48:57Z</time>
      </trkpt>
      <trkpt lat="44.65735" lon="7.10784">
        <ele>2582.9</ele>
        <time>2026-09-01T11:49:02Z</time>
      </trkpt>
      <trkpt lat="44.65736" lon="7.10786">
        <ele>2582.7</ele>
        <time>2026-09-01T11:49:07Z</time>
      </trkpt>
      <trkpt lat="44.6574" lon="7.10789">
        <ele>2582.1</ele>
        <time>2026-09-01T11:49:13Z</time>
      </trkpt>
      <trkpt lat="44.65743" lon="7.10794">
        <ele>2581.5</ele>
        <time>2026-09-01T11:49:18Z</time>
      </trkpt>
      <trkpt lat="44.65747" lon="7.10798">
        <ele>2580.8</ele>
        <time>2026-09-01T11:49:23Z</time>
      </trkpt>
      <trkpt lat="44.65752" lon="7.10805">
        <ele>2580.1</ele>
        <time>2026-09-01T11:49:29Z</time>
      </trkpt>
      <trkpt lat="44.65755" lon="7.10809">
        <ele>2580</ele>
        <time>2026-09-01T11:49:34Z</time>
      </trkpt>
      <trkpt lat="44.65758" lon="7.10811">
        <ele>2580</ele>
        <time>2026-09-01T11:49:39Z</time>
      </trkpt>
      <trkpt lat="44.65762" lon="7.10815">
        <ele>2579.8</ele>
        <time>2026-09-01T11:49:45Z</time>
      </trkpt>
      <trkpt lat="44.65765" lon="7.1082">
        <ele>2579.5</ele>
        <time>2026-09-01T11:49:50Z</time>
      </trkpt>
      <trkpt lat="44.65765" lon="7.10827">
        <ele>2578.9</ele>
        <time>2026-09-01T11:49:55Z</time>
      </trkpt>
      <trkpt lat="44.65764" lon="7.10827">
        <ele>2578.9</ele>
        <time>2026-09-01T11:50:01Z</time>
      </trkpt>
      <trkpt lat="44.65764" lon="7.10827">
        <ele>2578.9</ele>
        <time>2026-09-01T11:50:06Z</time>
      </trkpt>
      <trkpt lat="44.65764" lon="7.10827">
        <ele>2578.9</ele>
        <time>2026-09-01T11:50:11Z</time>
      </trkpt>
      <trkpt lat="44.65769" lon="7.10832">
        <ele>2578.6</ele>
        <time>2026-09-01T11:50:17Z</time>
      </trkpt>
      <trkpt lat="44.65774" lon="7.10833">
        <ele>2578.6</ele>
        <time>2026-09-01T11:50:22Z</time>
      </trkpt>
      <trkpt lat="44.65779" lon="7.10836">
        <ele>2578.6</ele>
        <time>2026-09-01T11:50:27Z</time>
      </trkpt>
      <trkpt lat="44.65779" lon="7.10834">
        <ele>2578.7</ele>
        <time>2026-09-01T11:50:33Z</time>
      </trkpt>
      <trkpt lat="44.65781" lon="7.10838">
        <ele>2578.5</ele>
        <time>2026-09-01T11:50:38Z</time>
      </trkpt>
      <trkpt lat="44.65784" lon="7.10842">
        <ele>2578.4</ele>
        <time>2026-09-01T11:50:43Z</time>
      </trkpt>
      <trkpt lat="44.65789" lon="7.10846">
        <ele>2578.4</ele>
        <time>2026-09-01T11:50:49Z</time>
      </trkpt>
      <trkpt lat="44.65793" lon="7.10848">
        <ele>2578.4</ele>
        <time>2026-09-01T11:50:54Z</time>
      </trkpt>
      <trkpt lat="44.65794" lon="7.10846">
        <ele>2578.5</ele>
        <time>2026-09-01T11:50:59Z</time>
      </trkpt>
      <trkpt lat="44.65793" lon="7.10846">
        <ele>2578.5</ele>
        <time>2026-09-01T11:51:05Z</time>
      </trkpt>
      <trkpt lat="44.65798" lon="7.10845">
        <ele>2578.7</ele>
        <time>2026-09-01T11:51:10Z</time>
      </trkpt>
      <trkpt lat="44.65801" lon="7.1085">
        <ele>2578.6</ele>
        <time>2026-09-01T11:51:15Z</time>
      </trkpt>
      <trkpt lat="44.65805" lon="7.10853">
        <ele>2578.6</ele>
        <time>2026-09-01T11:51:21Z</time>
      </trkpt>
      <trkpt lat="44.65809" lon="7.10851">
        <ele>2578.8</ele>
        <time>2026-09-01T11:51:26Z</time>
      </trkpt>
      <trkpt lat="44.65813" lon="7.10852">
        <ele>2578.9</ele>
        <time>2026-09-01T11:51:31Z</time>
      </trkpt>
      <trkpt lat="44.65819" lon="7.10853">
        <ele>2579.1</ele>
        <time>2026-09-01T11:51:37Z</time>
      </trkpt>
      <trkpt lat="44.65824" lon="7.10852">
        <ele>2579.3</ele>
        <time>2026-09-01T11:51:42Z</time>
      </trkpt>
      <trkpt lat="44.65828" lon="7.10853">
        <ele>2579.4</ele>
        <time>2026-09-01T11:51:47Z</time>
      </trkpt>
      <trkpt lat="44.65829" lon="7.10855">
        <ele>2579.3</ele>
        <time>2026-09-01T11:51:53Z</time>
      </trkpt>
      <trkpt lat="44.65829" lon="7.10856">
        <ele>2579.3</ele>
        <time>2026-09-01T11:51:58Z</time>
      </trkpt>
      <trkpt lat="44.65829" lon="7.10856">
        <ele>2579.3</ele>
        <time>2026-09-01T11:52:03Z</time>
      </trkpt>
      <trkpt lat="44.65829" lon="7.10856">
        <ele>2579.3</ele>
        <time>2026-09-01T11:52:09Z</time>
      </trkpt>
      <trkpt lat="44.65829" lon="7.10856">
        <ele>2579.3</ele>
        <time>2026-09-01T11:52:14Z</time>
      </trkpt>
      <trkpt lat="44.65829" lon="7.10856">
        <ele>2579.3</ele>
        <time>2026-09-01T11:52:19Z</time>
      </trkpt>
      <trkpt lat="44.6583" lon="7.10856">
        <ele>2579.3</ele>
        <time>2026-09-01T11:52:25Z</time>
      </trkpt>
      <trkpt lat="44.65835" lon="7.10851">
        <ele>2579.7</ele>
        <time>2026-09-01T11:52:30Z</time>
      </trkpt>
      <trkpt lat="44.65841" lon="7.10848">
        <ele>2580.1</ele>
        <time>2026-09-01T11:52:35Z</time>
      </trkpt>
      <trkpt lat="44.65849" lon="7.10846">
        <ele>2580.6</ele>
        <time>2026-09-01T11:52:41Z</time>
      </trkpt>
      <trkpt lat="44.65854" lon="7.10845">
        <ele>2581</ele>
        <time>2026-09-01T11:52:46Z</time>
      </trkpt>
      <trkpt lat="44.6586" lon="7.10848">
        <ele>2581.2</ele>
        <time>2026-09-01T11:52:51Z</time>
      </trkpt>
      <trkpt lat="44.65867" lon="7.10853">
        <ele>2581.5</ele>
        <time>2026-09-01T11:52:57Z</time>
      </trkpt>
      <trkpt lat="44.65873" lon="7.10856">
        <ele>2581.8</ele>
        <time>2026-09-01T11:53:02Z</time>
      </trkpt>
      <trkpt lat="44.65879" lon="7.10859">
        <ele>2582.1</ele>
        <time>2026-09-01T11:53:07Z</time>
      </trkpt>
      <trkpt lat="44.65885" lon="7.10859">
        <ele>2582.5</ele>
        <time>2026-09-01T11:53:13Z</time>
      </trkpt>
      <trkpt lat="44.6589" lon="7.10861">
        <ele>2582.7</ele>
        <time>2026-09-01T11:53:18Z</time>
      </trkpt>
      <trkpt lat="44.65897" lon="7.10862">
        <ele>2583.1</ele>
        <time>2026-09-01T11:53:23Z</time>
      </trkpt>
      <trkpt lat="44.65898" lon="7.10866">
        <ele>2583.1</ele>
        <time>2026-09-01T11:53:29Z</time>
      </trkpt>
      <trkpt lat="44.65898" lon="7.10866">
        <ele>2583.1</ele>
        <time>2026-09-01T11:53:34Z</time>
      </trkpt>
      <trkpt lat="44.65898" lon="7.10866">
        <ele>2583.1</ele>
        <time>2026-09-01T11:53:39Z</time>
      </trkpt>
      <trkpt lat="44.65898" lon="7.10866">
        <ele>2583.1</ele>
        <time>2026-09-01T11:53:45Z</time>
      </trkpt>
      <trkpt lat="44.65904" lon="7.10864">
        <ele>2583.5</ele>
        <time>2026-09-01T11:53:50Z</time>
      </trkpt>
      <trkpt lat="44.65909" lon="7.10866">
        <ele>2583.8</ele>
        <time>2026-09-01T11:53:55Z</time>
      </trkpt>
      <trkpt lat="44.6591" lon="7.10865">
        <ele>2583.8</ele>
        <time>2026-09-01T11:54:01Z</time>
      </trkpt>
      <trkpt lat="44.65916" lon="7.10867">
        <ele>2584.2</ele>
        <time>2026-09-01T11:54:06Z</time>
      </trkpt>
      <trkpt lat="44.65922" lon="7.10869">
        <ele>2584.3</ele>
        <time>2026-09-01T11:54:11Z</time>
      </trkpt>
      <trkpt lat="44.65927" lon="7.10872">
        <ele>2584.4</ele>
        <time>2026-09-01T11:54:17Z</time>
      </trkpt>
      <trkpt lat="44.65933" lon="7.10872">
        <ele>2584.6</ele>
        <time>2026-09-01T11:54:22Z</time>
      </trkpt>
      <trkpt lat="44.65939" lon="7.10873">
        <ele>2584.8</ele>
        <time>2026-09-01T11:54:27Z</time>
      </trkpt>
      <trkpt lat="44.65946" lon="7.10875">
        <ele>2585.1</ele>
        <time>2026-09-01T11:54:33Z</time>
      </trkpt>
      <trkpt lat="44.65952" lon="7.10877">
        <ele>2585.2</ele>
        <time>2026-09-01T11:54:38Z</time>
      </trkpt>
      <trkpt lat="44.65959" lon="7.1088">
        <ele>2585.5</ele>
        <time>2026-09-01T11:54:43Z</time>
      </trkpt>
      <trkpt lat="44.65964" lon="7.10885">
        <ele>2585.6</ele>
        <time>2026-09-01T11:54:49Z</time>
      </trkpt>
      <trkpt lat="44.65968" lon="7.1089">
        <ele>2585.7</ele>
        <time>2026-09-01T11:54:54Z</time>
      </trkpt>
      <trkpt lat="44.65971" lon="7.10895">
        <ele>2585.8</ele>
        <time>2026-09-01T11:54:59Z</time>
      </trkpt>
      <trkpt lat="44.65976" lon="7.10901">
        <ele>2586</ele>
        <time>2026-09-01T11:55:05Z</time>
      </trkpt>
      <trkpt lat="44.65982" lon="7.10901">
        <ele>2586.2</ele>
        <time>2026-09-01T11:55:10Z</time>
      </trkpt>
      <trkpt lat="44.65988" lon="7.10903">
        <ele>2586.5</ele>
        <time>2026-09-01T11:55:15Z</time>
      </trkpt>
      <trkpt lat="44.65994" lon="7.10904">
        <ele>2586.7</ele>
        <time>2026-09-01T11:55:21Z</time>
      </trkpt>
      <trkpt lat="44.65999" lon="7.10905">
        <ele>2587</ele>
        <time>2026-09-01T11:55:26Z</time>
      </trkpt>
      <trkpt lat="44.66002" lon="7.10907">
        <ele>2587</ele>
        <time>2026-09-01T11:55:31Z</time>
      </trkpt>
      <trkpt lat="44.66006" lon="7.10905">
        <ele>2586.9</ele>
        <time>2026-09-01T11:55:37Z</time>
      </trkpt>
      <trkpt lat="44.66008" lon="7.10901">
        <ele>2586.9</ele>
        <time>2026-09-01T11:55:42Z</time>
      </trkpt>
      <trkpt lat="44.66009" lon="7.10902">
        <ele>2586.9</ele>
        <time>2026-09-01T11:55:47Z</time>
      </trkpt>
      <trkpt lat="44.66015" lon="7.10907">
        <ele>2586.8</ele>
        <time>2026-09-01T11:55:53Z</time>
      </trkpt>
      <trkpt lat="44.6602" lon="7.1091">
        <ele>2586.8</ele>
        <time>2026-09-01T11:55:58Z</time>
      </trkpt>
      <trkpt lat="44.66022" lon="7.10913">
        <ele>2586.7</ele>
        <time>2026-09-01T11:56:03Z</time>
      </trkpt>
      <trkpt lat="44.66027" lon="7.10919">
        <ele>2586.6</ele>
        <time>2026-09-01T11:56:09Z</time>
      </trkpt>
      <trkpt lat="44.66031" lon="7.10923">
        <ele>2586.3</ele>
        <time>2026-09-01T11:56:14Z</time>
      </trkpt>
      <trkpt lat="44.66033" lon="7.10925">
        <ele>2586.2</ele>
        <time>2026-09-01T11:56:19Z</time>
      </trkpt>
      <trkpt lat="44.66035" lon="7.1093">
        <ele>2585.9</ele>
        <time>2026-09-01T11:56:25Z</time>
      </trkpt>
      <trkpt lat="44.66036" lon="7.10931">
        <ele>2585.8</ele>
        <time>2026-09-01T11:56:30Z</time>
      </trkpt>
      <trkpt lat="44.66039" lon="7.10938">
        <ele>2585.4</ele>
        <time>2026-09-01T11:56:35Z</time>
      </trkpt>
      <trkpt lat="44.6604" lon="7.10936">
        <ele>2585.5</ele>
        <time>2026-09-01T11:56:41Z</time>
      </trkpt>
      <trkpt lat="44.6604" lon="7.10936">
        <ele>2585.5</ele>
        <time>2026-09-01T11:56:46Z</time>
      </trkpt>
      <trkpt lat="44.6604" lon="7.10936">
        <ele>2585.5</ele>
        <time>2026-09-01T11:56:51Z</time>
      </trkpt>
      <trkpt lat="44.6604" lon="7.10936">
        <ele>2585.5</ele>
        <time>2026-09-01T11:56:57Z</time>
      </trkpt>
      <trkpt lat="44.66042" lon="7.1094">
        <ele>2585.2</ele>
        <time>2026-09-01T11:57:02Z</time>
      </trkpt>
      <trkpt lat="44.66049" lon="7.10937">
        <ele>2585.3</ele>
        <time>2026-09-01T11:57:07Z</time>
      </trkpt>
      <trkpt lat="44.66055" lon="7.10934">
        <ele>2585.4</ele>
        <time>2026-09-01T11:57:13Z</time>
      </trkpt>
      <trkpt lat="44.66061" lon="7.1093">
        <ele>2585.5</ele>
        <time>2026-09-01T11:57:18Z</time>
      </trkpt>
      <trkpt lat="44.66064" lon="7.10928">
        <ele>2585.6</ele>
        <time>2026-09-01T11:57:23Z</time>
      </trkpt>
      <trkpt lat="44.66069" lon="7.1093">
        <ele>2585.4</ele>
        <time>2026-09-01T11:57:29Z</time>
      </trkpt>
      <trkpt lat="44.66072" lon="7.10934">
        <ele>2585.1</ele>
        <time>2026-09-01T11:57:34Z</time>
      </trkpt>
      <trkpt lat="44.6607" lon="7.10937">
        <ele>2585</ele>
        <time>2026-09-01T11:57:39Z</time>
      </trkpt>
      <trkpt lat="44.66073" lon="7.10942">
        <ele>2584.6</ele>
        <time>2026-09-01T11:57:45Z</time>
      </trkpt>
      <trkpt lat="44.66076" lon="7.10944">
        <ele>2584.5</ele>
        <time>2026-09-01T11:57:50Z</time>
      </trkpt>
      <trkpt lat="44.6608" lon="7.10945">
        <ele>2584.4</ele>
        <time>2026-09-01T11:57:55Z</time>
      </trkpt>
      <trkpt lat="44.66085" lon="7.10946">
        <ele>2584.3</ele>
        <time>2026-09-01T11:58:01Z</time>
      </trkpt>
      <trkpt lat="44.66091" lon="7.10945">
        <ele>2584.6</ele>
        <time>2026-09-01T11:58:06Z</time>
      </trkpt>
      <trkpt lat="44.66097" lon="7.10947">
        <ele>2584.8</ele>
        <time>2026-09-01T11:58:11Z</time>
      </trkpt>
      <trkpt lat="44.66102" lon="7.10948">
        <ele>2584.9</ele>
        <time>2026-09-01T11:58:17Z</time>
      </trkpt>
      <trkpt lat="44.66105" lon="7.10951">
        <ele>2584.9</ele>
        <time>2026-09-01T11:58:22Z</time>
      </trkpt>
      <trkpt lat="44.66113" lon="7.10952">
        <ele>2585.2</ele>
        <time>2026-09-01T11:58:27Z</time>
      </trkpt>
      <trkpt lat="44.66118" lon="7.10953">
        <ele>2585.3</ele>
        <time>2026-09-01T11:58:33Z</time>
      </trkpt>
      <trkpt lat="44.66122" lon="7.10953">
        <ele>2585.5</ele>
        <time>2026-09-01T11:58:38Z</time>
      </trkpt>
      <trkpt lat="44.66122" lon="7.10953">
        <ele>2585.5</ele>
        <time>2026-09-01T11:58:43Z</time>
      </trkpt>
      <trkpt lat="44.66122" lon="7.10953">
        <ele>2585.5</ele>
        <time>2026-09-01T11:58:49Z</time>
      </trkpt>
      <trkpt lat="44.66123" lon="7.10958">
        <ele>2585.2</ele>
        <time>2026-09-01T11:58:54Z</time>
      </trkpt>
      <trkpt lat="44.66131" lon="7.10957">
        <ele>2585.6</ele>
        <time>2026-09-01T11:58:59Z</time>
      </trkpt>
      <trkpt lat="44.66137" lon="7.10953">
        <ele>2586.1</ele>
        <time>2026-09-01T11:59:05Z</time>
      </trkpt>
      <trkpt lat="44.66141" lon="7.1095">
        <ele>2586.5</ele>
        <time>2026-09-01T11:59:10Z</time>
      </trkpt>
      <trkpt lat="44.66144" lon="7.10952">
        <ele>2586.5</ele>
        <time>2026-09-01T11:59:15Z</time>
      </trkpt>
      <trkpt lat="44.66147" lon="7.10952">
        <ele>2586.6</ele>
        <time>2026-09-01T11:59:21Z</time>
      </trkpt>
      <trkpt lat="44.66153" lon="7.1095">
        <ele>2587</ele>
        <time>2026-09-01T11:59:26Z</time>
      </trkpt>
      <trkpt lat="44.66156" lon="7.1095">
        <ele>2587.1</ele>
        <time>2026-09-01T11:59:31Z</time>
      </trkpt>
      <trkpt lat="44.66163" lon="7.10947">
        <ele>2587.7</ele>
        <time>2026-09-01T11:59:37Z</time>
      </trkpt>
      <trkpt lat="44.66166" lon="7.10946">
        <ele>2587.9</ele>
        <time>2026-09-01T11:59:42Z</time>
      </trkpt>
      <trkpt lat="44.6617" lon="7.10944">
        <ele>2588.4</ele>
        <time>2026-09-01T11:59:47Z</time>
      </trkpt>
      <trkpt lat="44.66173" lon="7.10943">
        <ele>2588.8</ele>
        <time>2026-09-01T11:59:53Z</time>
      </trkpt>
      <trkpt lat="44.66177" lon="7.1094">
        <ele>2589.4</ele>
        <time>2026-09-01T11:59:58Z</time>
      </trkpt>
      <trkpt lat="44.66179" lon="7.10938">
        <ele>2589.8</ele>
        <time>2026-09-01T12:00:03Z</time>
      </trkpt>
      <trkpt lat="44.66179" lon="7.10938">
        <ele>2589.8</ele>
        <time>2026-09-01T12:00:09Z</time>
      </trkpt>
      <trkpt lat="44.66179" lon="7.10938">
        <ele>2589.8</ele>
        <time>2026-09-01T12:00:14Z</time>
      </trkpt>
      <trkpt lat="44.66179" lon="7.10938">
        <ele>2589.8</ele>
        <time>2026-09-01T12:00:19Z</time>
      </trkpt>
      <trkpt lat="44.66182" lon="7.10937">
        <ele>2590.2</ele>
        <time>2026-09-01T12:00:25Z</time>
      </trkpt>
      <trkpt lat="44.66186" lon="7.10934">
        <ele>2590.8</ele>
        <time>2026-09-01T12:00:30Z</time>
      </trkpt>
      <trkpt lat="44.6619" lon="7.10929">
        <ele>2591.6</ele>
        <time>2026-09-01T12:00:35Z</time>
      </trkpt>
      <trkpt lat="44.66194" lon="7.10925">
        <ele>2592.4</ele>
        <time>2026-09-01T12:00:41Z</time>
      </trkpt>
      <trkpt lat="44.66197" lon="7.10921">
        <ele>2593</ele>
        <time>2026-09-01T12:00:46Z</time>
      </trkpt>
      <trkpt lat="44.66201" lon="7.1092">
        <ele>2593.5</ele>
        <time>2026-09-01T12:00:51Z</time>
      </trkpt>
      <trkpt lat="44.66206" lon="7.10918">
        <ele>2594.2</ele>
        <time>2026-09-01T12:00:57Z</time>
      </trkpt>
      <trkpt lat="44.66209" lon="7.10918">
        <ele>2594.5</ele>
        <time>2026-09-01T12:01:02Z</time>
      </trkpt>
      <trkpt lat="44.66213" lon="7.1092">
        <ele>2594.8</ele>
        <time>2026-09-01T12:01:07Z</time>
      </trkpt>
      <trkpt lat="44.66217" lon="7.10922">
        <ele>2595.1</ele>
        <time>2026-09-01T12:01:13Z</time>
      </trkpt>
      <trkpt lat="44.66221" lon="7.10922">
        <ele>2595.5</ele>
        <time>2026-09-01T12:01:18Z</time>
      </trkpt>
      <trkpt lat="44.66225" lon="7.10925">
        <ele>2595.7</ele>
        <time>2026-09-01T12:01:23Z</time>
      </trkpt>
      <trkpt lat="44.66226" lon="7.10927">
        <ele>2595.7</ele>
        <time>2026-09-01T12:01:29Z</time>
      </trkpt>
      <trkpt lat="44.66226" lon="7.10927">
        <ele>2595.7</ele>
        <time>2026-09-01T12:01:34Z</time>
      </trkpt>
      <trkpt lat="44.66226" lon="7.10927">
        <ele>2595.7</ele>
        <time>2026-09-01T12:01:39Z</time>
      </trkpt>
      <trkpt lat="44.66229" lon="7.10927">
        <ele>2596</ele>
        <time>2026-09-01T12:01:45Z</time>
      </trkpt>
      <trkpt lat="44.66233" lon="7.1093">
        <ele>2596.2</ele>
        <time>2026-09-01T12:01:50Z</time>
      </trkpt>
      <trkpt lat="44.66239" lon="7.10935">
        <ele>2596.5</ele>
        <time>2026-09-01T12:01:55Z</time>
      </trkpt>
      <trkpt lat="44.66245" lon="7.10939">
        <ele>2596.9</ele>
        <time>2026-09-01T12:02:01Z</time>
      </trkpt>
      <trkpt lat="44.66248" lon="7.10942">
        <ele>2597</ele>
        <time>2026-09-01T12:02:06Z</time>
      </trkpt>
      <trkpt lat="44.66248" lon="7.10947">
        <ele>2596.6</ele>
        <time>2026-09-01T12:02:11Z</time>
      </trkpt>
      <trkpt lat="44.66248" lon="7.10949">
        <ele>2596.5</ele>
        <time>2026-09-01T12:02:17Z</time>
      </trkpt>
      <trkpt lat="44.66248" lon="7.10949">
        <ele>2596.5</ele>
        <time>2026-09-01T12:02:22Z</time>
      </trkpt>
      <trkpt lat="44.66251" lon="7.10948">
        <ele>2596.8</ele>
        <time>2026-09-01T12:02:27Z</time>
      </trkpt>
      <trkpt lat="44.66257" lon="7.10949">
        <ele>2597.1</ele>
        <time>2026-09-01T12:02:33Z</time>
      </trkpt>
      <trkpt lat="44.66262" lon="7.1095">
        <ele>2597.4</ele>
        <time>2026-09-01T12:02:38Z</time>
      </trkpt>
      <trkpt lat="44.66268" lon="7.10949">
        <ele>2597.8</ele>
        <time>2026-09-01T12:02:43Z</time>
      </trkpt>
      <trkpt lat="44.66269" lon="7.1095">
        <ele>2597.9</ele>
        <time>2026-09-01T12:02:49Z</time>
      </trkpt>
      <trkpt lat="44.66269" lon="7.10951">
        <ele>2597.8</ele>
        <time>2026-09-01T12:02:54Z</time>
      </trkpt>
      <trkpt lat="44.66275" lon="7.10948">
        <ele>2598.3</ele>
        <time>2026-09-01T12:02:59Z</time>
      </trkpt>
      <trkpt lat="44.66282" lon="7.10947">
        <ele>2598.8</ele>
        <time>2026-09-01T12:03:05Z</time>
      </trkpt>
      <trkpt lat="44.66286" lon="7.10948">
        <ele>2599</ele>
        <time>2026-09-01T12:03:10Z</time>
      </trkpt>
      <trkpt lat="44.66289" lon="7.10948">
        <ele>2599.2</ele>
        <time>2026-09-01T12:03:15Z</time>
      </trkpt>
      <trkpt lat="44.66296" lon="7.10946">
        <ele>2599.6</ele>
        <time>2026-09-01T12:03:21Z</time>
      </trkpt>
      <trkpt lat="44.66303" lon="7.10945">
        <ele>2600</ele>
        <time>2026-09-01T12:03:26Z</time>
      </trkpt>
      <trkpt lat="44.66309" lon="7.10944">
        <ele>2600.3</ele>
        <time>2026-09-01T12:03:31Z</time>
      </trkpt>
      <trkpt lat="44.66314" lon="7.10946">
        <ele>2600.7</ele>
        <time>2026-09-01T12:03:37Z</time>
      </trkpt>
      <trkpt lat="44.66315" lon="7.1095">
        <ele>2601</ele>
        <time>2026-09-01T12:03:42Z</time>
      </trkpt>
      <trkpt lat="44.66319" lon="7.10955">
        <ele>2601.6</ele>
        <time>2026-09-01T12:03:47Z</time>
      </trkpt>
      <trkpt lat="44.66321" lon="7.10962">
        <ele>2602.2</ele>
        <time>2026-09-01T12:03:53Z</time>
      </trkpt>
      <trkpt lat="44.66322" lon="7.10965">
        <ele>2602.5</ele>
        <time>2026-09-01T12:03:58Z</time>
      </trkpt>
      <trkpt lat="44.66325" lon="7.10964">
        <ele>2602.7</ele>
        <time>2026-09-01T12:04:03Z</time>
      </trkpt>
      <trkpt lat="44.66326" lon="7.10961">
        <ele>2602.6</ele>
        <time>2026-09-01T12:04:09Z</time>
      </trkpt>
      <trkpt lat="44.66326" lon="7.10961">
        <ele>2602.6</ele>
        <time>2026-09-01T12:04:14Z</time>
      </trkpt>
      <trkpt lat="44.6633" lon="7.10967">
        <ele>2603.5</ele>
        <time>2026-09-01T12:04:19Z</time>
      </trkpt>
      <trkpt lat="44.6633" lon="7.10974">
        <ele>2604.1</ele>
        <time>2026-09-01T12:04:25Z</time>
      </trkpt>
      <trkpt lat="44.66333" lon="7.1098">
        <ele>2605</ele>
        <time>2026-09-01T12:04:30Z</time>
      </trkpt>
      <trkpt lat="44.66335" lon="7.10982">
        <ele>2605.3</ele>
        <time>2026-09-01T12:04:35Z</time>
      </trkpt>
      <trkpt lat="44.66334" lon="7.10984">
        <ele>2605.5</ele>
        <time>2026-09-01T12:04:41Z</time>
      </trkpt>
      <trkpt lat="44.66332" lon="7.10985">
        <ele>2605.4</ele>
        <time>2026-09-01T12:04:46Z</time>
      </trkpt>
      <trkpt lat="44.66332" lon="7.10985">
        <ele>2605.4</ele>
        <time>2026-09-01T12:04:51Z</time>
      </trkpt>
      <trkpt lat="44.66336" lon="7.10981">
        <ele>2605.3</ele>
        <time>2026-09-01T12:04:57Z</time>
      </trkpt>
      <trkpt lat="44.66339" lon="7.10983">
        <ele>2605.6</ele>
        <time>2026-09-01T12:05:02Z</time>
      </trkpt>
      <trkpt lat="44.66342" lon="7.10983">
        <ele>2605.7</ele>
        <time>2026-09-01T12:05:07Z</time>
      </trkpt>
      <trkpt lat="44.66345" lon="7.10984">
        <ele>2605.9</ele>
        <time>2026-09-01T12:05:13Z</time>
      </trkpt>
      <trkpt lat="44.66345" lon="7.10987">
        <ele>2606.3</ele>
        <time>2026-09-01T12:05:18Z</time>
      </trkpt>
      <trkpt lat="44.66345" lon="7.10987">
        <ele>2606.3</ele>
        <time>2026-09-01T12:05:23Z</time>
      </trkpt>
      <trkpt lat="44.66345" lon="7.10987">
        <ele>2606.3</ele>
        <time>2026-09-01T12:05:29Z</time>
      </trkpt>
      <trkpt lat="44.66345" lon="7.10987">
        <ele>2606.3</ele>
        <time>2026-09-01T12:05:34Z</time>
      </trkpt>
      <trkpt lat="44.6635" lon="7.10988">
        <ele>2606.6</ele>
        <time>2026-09-01T12:05:39Z</time>
      </trkpt>
      <trkpt lat="44.66352" lon="7.10991">
        <ele>2607</ele>
        <time>2026-09-01T12:05:45Z</time>
      </trkpt>
      <trkpt lat="44.66354" lon="7.10991">
        <ele>2607.1</ele>
        <time>2026-09-01T12:05:50Z</time>
      </trkpt>
      <trkpt lat="44.66359" lon="7.1099">
        <ele>2607.2</ele>
        <time>2026-09-01T12:05:55Z</time>
      </trkpt>
      <trkpt lat="44.66366" lon="7.10991">
        <ele>2607.7</ele>
        <time>2026-09-01T12:06:01Z</time>
      </trkpt>
      <trkpt lat="44.66369" lon="7.10993">
        <ele>2608.1</ele>
        <time>2026-09-01T12:06:06Z</time>
      </trkpt>
      <trkpt lat="44.66372" lon="7.10997">
        <ele>2608.9</ele>
        <time>2026-09-01T12:06:11Z</time>
      </trkpt>
      <trkpt lat="44.66377" lon="7.10998">
        <ele>2609.3</ele>
        <time>2026-09-01T12:06:17Z</time>
      </trkpt>
      <trkpt lat="44.66382" lon="7.10997">
        <ele>2609.4</ele>
        <time>2026-09-01T12:06:22Z</time>
      </trkpt>
      <trkpt lat="44.66388" lon="7.10998">
        <ele>2609.9</ele>
        <time>2026-09-01T12:06:27Z</time>
      </trkpt>
      <trkpt lat="44.66393" lon="7.10999">
        <ele>2610.4</ele>
        <time>2026-09-01T12:06:33Z</time>
      </trkpt>
      <trkpt lat="44.66394" lon="7.10998">
        <ele>2610.3</ele>
        <time>2026-09-01T12:06:38Z</time>
      </trkpt>
      <trkpt lat="44.66396" lon="7.10997">
        <ele>2610.2</ele>
        <time>2026-09-01T12:06:43Z</time>
      </trkpt>
      <trkpt lat="44.66396" lon="7.10997">
        <ele>2610.2</ele>
        <time>2026-09-01T12:06:49Z</time>
      </trkpt>
      <trkpt lat="44.66396" lon="7.10997">
        <ele>2610.2</ele>
        <time>2026-09-01T12:06:54Z</time>
      </trkpt>
      <trkpt lat="44.66396" lon="7.10997">
        <ele>2610.2</ele>
        <time>2026-09-01T12:06:59Z</time>
      </trkpt>
      <trkpt lat="44.66401" lon="7.10999">
        <ele>2610.9</ele>
        <time>2026-09-01T12:07:05Z</time>
      </trkpt>
      <trkpt lat="44.66401" lon="7.10999">
        <ele>2610.9</ele>
        <time>2026-09-01T12:07:10Z</time>
      </trkpt>
      <trkpt lat="44.66401" lon="7.10999">
        <ele>2610.9</ele>
        <time>2026-09-01T12:07:15Z</time>
      </trkpt>
      <trkpt lat="44.66401" lon="7.10999">
        <ele>2610.9</ele>
        <time>2026-09-01T12:07:21Z</time>
      </trkpt>
      <trkpt lat="44.66401" lon="7.10999">
        <ele>2610.9</ele>
        <time>2026-09-01T12:07:26Z</time>
      </trkpt>
      <trkpt lat="44.66406" lon="7.11001">
        <ele>2611.6</ele>
        <time>2026-09-01T12:07:31Z</time>
      </trkpt>
      <trkpt lat="44.66412" lon="7.11002">
        <ele>2612.3</ele>
        <time>2026-09-01T12:07:37Z</time>
      </trkpt>
      <trkpt lat="44.66413" lon="7.11002">
        <ele>2612.4</ele>
        <time>2026-09-01T12:07:42Z</time>
      </trkpt>
      <trkpt lat="44.66419" lon="7.11001">
        <ele>2612.5</ele>
        <time>2026-09-01T12:07:47Z</time>
      </trkpt>
      <trkpt lat="44.66424" lon="7.11001">
        <ele>2612.8</ele>
        <time>2026-09-01T12:07:53Z</time>
      </trkpt>
      <trkpt lat="44.66426" lon="7.10999">
        <ele>2612.5</ele>
        <time>2026-09-01T12:07:58Z</time>
      </trkpt>
      <trkpt lat="44.66431" lon="7.10998">
        <ele>2612.6</ele>
        <time>2026-09-01T12:08:03Z</time>
      </trkpt>
      <trkpt lat="44.66435" lon="7.10998">
        <ele>2612.9</ele>
        <time>2026-09-01T12:08:09Z</time>
      </trkpt>
      <trkpt lat="44.66438" lon="7.10997">
        <ele>2612.9</ele>
        <time>2026-09-01T12:08:14Z</time>
      </trkpt>
      <trkpt lat="44.6644" lon="7.10995">
        <ele>2612.6</ele>
        <time>2026-09-01T12:08:19Z</time>
      </trkpt>
      <trkpt lat="44.66444" lon="7.10996">
        <ele>2613.1</ele>
        <time>2026-09-01T12:08:25Z</time>
      </trkpt>
      <trkpt lat="44.66445" lon="7.10997">
        <ele>2613.4</ele>
        <time>2026-09-01T12:08:30Z</time>
      </trkpt>
      <trkpt lat="44.66447" lon="7.10999">
        <ele>2614</ele>
        <time>2026-09-01T12:08:35Z</time>
      </trkpt>
      <trkpt lat="44.66451" lon="7.10998">
        <ele>2614</ele>
        <time>2026-09-01T12:08:41Z</time>
      </trkpt>
      <trkpt lat="44.66454" lon="7.10998">
        <ele>2614.2</ele>
        <time>2026-09-01T12:08:46Z</time>
      </trkpt>
      <trkpt lat="44.66458" lon="7.10998">
        <ele>2614.5</ele>
        <time>2026-09-01T12:08:51Z</time>
      </trkpt>
      <trkpt lat="44.66461" lon="7.10996">
        <ele>2614.3</ele>
        <time>2026-09-01T12:08:57Z</time>
      </trkpt>
      <trkpt lat="44.66462" lon="7.10993">
        <ele>2613.7</ele>
        <time>2026-09-01T12:09:02Z</time>
      </trkpt>
      <trkpt lat="44.66462" lon="7.10993">
        <ele>2613.7</ele>
        <time>2026-09-01T12:09:07Z</time>
      </trkpt>
      <trkpt lat="44.66462" lon="7.10993">
        <ele>2613.7</ele>
        <time>2026-09-01T12:09:13Z</time>
      </trkpt>
      <trkpt lat="44.66466" lon="7.10997">
        <ele>2614.9</ele>
        <time>2026-09-01T12:09:18Z</time>
      </trkpt>
      <trkpt lat="44.66469" lon="7.10998">
        <ele>2615.3</ele>
        <time>2026-09-01T12:09:23Z</time>
      </trkpt>
      <trkpt lat="44.66472" lon="7.10996">
        <ele>2615</ele>
        <time>2026-09-01T12:09:29Z</time>
      </trkpt>
      <trkpt lat="44.66475" lon="7.10995">
        <ele>2615</ele>
        <time>2026-09-01T12:09:34Z</time>
      </trkpt>
      <trkpt lat="44.66479" lon="7.10994">
        <ele>2615</ele>
        <time>2026-09-01T12:09:39Z</time>
      </trkpt>
      <trkpt lat="44.66483" lon="7.10992">
        <ele>2614.8</ele>
        <time>2026-09-01T12:09:45Z</time>
      </trkpt>
      <trkpt lat="44.66487" lon="7.10991">
        <ele>2614.9</ele>
        <time>2026-09-01T12:09:50Z</time>
      </trkpt>
      <trkpt lat="44.66491" lon="7.10988">
        <ele>2614.4</ele>
        <time>2026-09-01T12:09:55Z</time>
      </trkpt>
      <trkpt lat="44.66492" lon="7.10988">
        <ele>2614.5</ele>
        <time>2026-09-01T12:10:01Z</time>
      </trkpt>
      <trkpt lat="44.66492" lon="7.10988">
        <ele>2614.5</ele>
        <time>2026-09-01T12:10:06Z</time>
      </trkpt>
      <trkpt lat="44.66492" lon="7.10988">
        <ele>2614.5</ele>
        <time>2026-09-01T12:10:11Z</time>
      </trkpt>
      <trkpt lat="44.66492" lon="7.10988">
        <ele>2614.5</ele>
        <time>2026-09-01T12:10:17Z</time>
      </trkpt>
      <trkpt lat="44.66498" lon="7.10985">
        <ele>2614.1</ele>
        <time>2026-09-01T12:10:22Z</time>
      </trkpt>
      <trkpt lat="44.66502" lon="7.10982">
        <ele>2613.8</ele>
        <time>2026-09-01T12:10:27Z</time>
      </trkpt>
      <trkpt lat="44.66507" lon="7.10981">
        <ele>2614.3</ele>
        <time>2026-09-01T12:10:33Z</time>
      </trkpt>
      <trkpt lat="44.66511" lon="7.1098">
        <ele>2614.6</ele>
        <time>2026-09-01T12:10:38Z</time>
      </trkpt>
      <trkpt lat="44.66514" lon="7.10978">
        <ele>2614.6</ele>
        <time>2026-09-01T12:10:43Z</time>
      </trkpt>
      <trkpt lat="44.66519" lon="7.10977">
        <ele>2615.1</ele>
        <time>2026-09-01T12:10:49Z</time>
      </trkpt>
      <trkpt lat="44.66522" lon="7.10978">
        <ele>2615.8</ele>
        <time>2026-09-01T12:10:54Z</time>
      </trkpt>
      <trkpt lat="44.66524" lon="7.10982">
        <ele>2617.1</ele>
        <time>2026-09-01T12:10:59Z</time>
      </trkpt>
      <trkpt lat="44.66527" lon="7.10987">
        <ele>2618.8</ele>
        <time>2026-09-01T12:11:05Z</time>
      </trkpt>
      <trkpt lat="44.66528" lon="7.10987">
        <ele>2618.9</ele>
        <time>2026-09-01T12:11:10Z</time>
      </trkpt>
      <trkpt lat="44.66528" lon="7.10987">
        <ele>2618.9</ele>
        <time>2026-09-01T12:11:15Z</time>
      </trkpt>
      <trkpt lat="44.66528" lon="7.10987">
        <ele>2618.9</ele>
        <time>2026-09-01T12:11:21Z</time>
      </trkpt>
      <trkpt lat="44.66531" lon="7.10991">
        <ele>2620.3</ele>
        <time>2026-09-01T12:11:26Z</time>
      </trkpt>
      <trkpt lat="44.66534" lon="7.10992">
        <ele>2621</ele>
        <time>2026-09-01T12:11:31Z</time>
      </trkpt>
      <trkpt lat="44.66537" lon="7.10995">
        <ele>2622.1</ele>
        <time>2026-09-01T12:11:37Z</time>
      </trkpt>
      <trkpt lat="44.6654" lon="7.10997">
        <ele>2623.1</ele>
        <time>2026-09-01T12:11:42Z</time>
      </trkpt>
      <trkpt lat="44.66542" lon="7.11">
        <ele>2624</ele>
        <time>2026-09-01T12:11:47Z</time>
      </trkpt>
      <trkpt lat="44.66547" lon="7.11001">
        <ele>2625</ele>
        <time>2026-09-01T12:11:53Z</time>
      </trkpt>
      <trkpt lat="44.66552" lon="7.11">
        <ele>2625.5</ele>
        <time>2026-09-01T12:11:58Z</time>
      </trkpt>
      <trkpt lat="44.66553" lon="7.10999">
        <ele>2625.4</ele>
        <time>2026-09-01T12:12:03Z</time>
      </trkpt>
      <trkpt lat="44.66554" lon="7.10997">
        <ele>2625.1</ele>
        <time>2026-09-01T12:12:09Z</time>
      </trkpt>
      <trkpt lat="44.66554" lon="7.10996">
        <ele>2624.9</ele>
        <time>2026-09-01T12:12:14Z</time>
      </trkpt>
      <trkpt lat="44.66554" lon="7.10996">
        <ele>2624.9</ele>
        <time>2026-09-01T12:12:19Z</time>
      </trkpt>
      <trkpt lat="44.66554" lon="7.10996">
        <ele>2624.9</ele>
        <time>2026-09-01T12:12:25Z</time>
      </trkpt>
      <trkpt lat="44.66554" lon="7.10996">
        <ele>2624.9</ele>
        <time>2026-09-01T12:12:30Z</time>
      </trkpt>
      <trkpt lat="44.66554" lon="7.10996">
        <ele>2624.9</ele>
        <time>2026-09-01T12:12:35Z</time>
      </trkpt>
      <trkpt lat="44.66554" lon="7.10996">
        <ele>2624.9</ele>
        <time>2026-09-01T12:12:41Z</time>
      </trkpt>
      <trkpt lat="44.66557" lon="7.10989">
        <ele>2623.7</ele>
        <time>2026-09-01T12:12:46Z</time>
      </trkpt>
      <trkpt lat="44.66561" lon="7.10992">
        <ele>2625</ele>
        <time>2026-09-01T12:12:51Z</time>
      </trkpt>
      <trkpt lat="44.66564" lon="7.10988">
        <ele>2624.5</ele>
        <time>2026-09-01T12:12:57Z</time>
      </trkpt>
      <trkpt lat="44.66564" lon="7.10985">
        <ele>2623.9</ele>
        <time>2026-09-01T12:13:02Z</time>
      </trkpt>
      <trkpt lat="44.66563" lon="7.1098">
        <ele>2622.6</ele>
        <time>2026-09-01T12:13:07Z</time>
      </trkpt>
      <trkpt lat="44.66563" lon="7.1098">
        <ele>2622.6</ele>
        <time>2026-09-01T12:13:13Z</time>
      </trkpt>
      <trkpt lat="44.66581" lon="7.10987">
        <ele>2626.8</ele>
      </trkpt>
      <trkpt lat="44.66582" lon="7.10979">
        <ele>2625.3</ele>
      </trkpt>
      <trkpt lat="44.66582" lon="7.10969">
        <ele>2623.1</ele>
      </trkpt>
      <trkpt lat="44.66579" lon="7.10953">
        <ele>2619.1</ele>
      </trkpt>
      <trkpt lat="44.66583" lon="7.10942">
        <ele>2617.4</ele>
      </trkpt>
      <trkpt lat="44.66591" lon="7.10928">
        <ele>2616.2</ele>
      </trkpt>
      <trkpt lat="44.66591" lon="7.10927">
        <ele>2616.2</ele>
        <extensions>
          <visugpx:TrkExtension xmlns:visugpx="https://www.visugpx.com/editgpx/">
            <visugpx:node>1</visugpx:node>
            </visugpx:TrkExtension>
        </extensions>
      </trkpt>
      <trkpt lat="44.66594" lon="7.10923">
        <ele>2615.9</ele>
      </trkpt>
      <trkpt lat="44.66597" lon="7.10919">
        <ele>2616.1</ele>
      </trkpt>
      <trkpt lat="44.66602" lon="7.10917">
        <ele>2617.1</ele>
      </trkpt>
      <trkpt lat="44.66606" lon="7.10908">
        <ele>2616.3</ele>
      </trkpt>
      <trkpt lat="44.66613" lon="7.10902">
        <ele>2616.9</ele>
      </trkpt>
      <trkpt lat="44.66623" lon="7.109">
        <ele>2619.2</ele>
      </trkpt>
      <trkpt lat="44.66635" lon="7.10891">
        <ele>2620.4</ele>
      </trkpt>
      <trkpt lat="44.66643" lon="7.10876">
        <ele>2619.2</ele>
      </trkpt>
      <trkpt lat="44.66648" lon="7.10855">
        <ele>2615.8</ele>
      </trkpt>
      <trkpt lat="44.66649" lon="7.10849">
        <ele>2614.7</ele>
      </trkpt>
      <trkpt lat="44.66649" lon="7.10847">
        <ele>2614.2</ele>
        <extensions>
          <visugpx:TrkExtension xmlns:visugpx="https://www.visugpx.com/editgpx/">
            <visugpx:node>2</visugpx:node>
            </visugpx:TrkExtension>
        </extensions>
      </trkpt>
      <trkpt lat="44.66649" lon="7.1084">
        <ele>2612.7</ele>
      </trkpt>
      <trkpt lat="44.66648" lon="7.10829">
        <ele>2610.6</ele>
      </trkpt>
      <trkpt lat="44.66648" lon="7.10817">
        <ele>2609.3</ele>
      </trkpt>
      <trkpt lat="44.66653" lon="7.10799">
        <ele>2607.8</ele>
      </trkpt>
      <trkpt lat="44.6666" lon="7.10787">
        <ele>2607.4</ele>
      </trkpt>
      <trkpt lat="44.66678" lon="7.10764">
        <ele>2607.7</ele>
      </trkpt>
      <trkpt lat="44.66683" lon="7.1076">
        <ele>2608.4</ele>
      </trkpt>
      <trkpt lat="44.66684" lon="7.10759">
        <ele>2608.4</ele>
        <extensions>
          <visugpx:TrkExtension xmlns:visugpx="https://www.visugpx.com/editgpx/">
            <visugpx:node>3</visugpx:node>
            </visugpx:TrkExtension>
        </extensions>
      </trkpt>
      <trkpt lat="44.6669" lon="7.10751">
        <ele>2608.6</ele>
      </trkpt>
      <trkpt lat="44.66695" lon="7.10742">
        <ele>2608.5</ele>
      </trkpt>
      <trkpt lat="44.66702" lon="7.10738">
        <ele>2609.3</ele>
      </trkpt>
      <trkpt lat="44.66706" lon="7.10732">
        <ele>2609.5</ele>
      </trkpt>
      <trkpt lat="44.66712" lon="7.1072">
        <ele>2608.8</ele>
      </trkpt>
      <trkpt lat="44.66726" lon="7.1071">
        <ele>2609.5</ele>
      </trkpt>
      <trkpt lat="44.66729" lon="7.10704">
        <ele>2608.9</ele>
      </trkpt>
      <trkpt lat="44.66743" lon="7.10675">
        <ele>2605.1</ele>
      </trkpt>
      <trkpt lat="44.66768" lon="7.10646">
        <ele>2610.4</ele>
      </trkpt>
      <trkpt lat="44.66769" lon="7.10643">
        <ele>2611</ele>
        <extensions>
          <visugpx:TrkExtension xmlns:visugpx="https://www.visugpx.com/editgpx/">
            <visugpx:node>4</visugpx:node>
            </visugpx:TrkExtension>
        </extensions>
      </trkpt>
      <trkpt lat="44.66772" lon="7.10639">
        <ele>2611.8</ele>
      </trkpt>
      <trkpt lat="44.66774" lon="7.10631">
        <ele>2612.7</ele>
      </trkpt>
      <trkpt lat="44.66776" lon="7.10612">
        <ele>2613.2</ele>
      </trkpt>
      <trkpt lat="44.66778" lon="7.10595">
        <ele>2613.8</ele>
      </trkpt>
      <trkpt lat="44.66778" lon="7.10568">
        <ele>2616.8</ele>
      </trkpt>
      <trkpt lat="44.66779" lon="7.10551">
        <ele>2620.3</ele>
      </trkpt>
      <trkpt lat="44.66781" lon="7.10541">
        <ele>2622.9</ele>
      </trkpt>
      <trkpt lat="44.66783" lon="7.10534">
        <ele>2624.8</ele>
      </trkpt>
      <trkpt lat="44.66785" lon="7.10502">
        <ele>2631.4</ele>
      </trkpt>
      <trkpt lat="44.66788" lon="7.10483">
        <ele>2639.5</ele>
      </trkpt>
      <trkpt lat="44.66794" lon="7.10471">
        <ele>2645.1</ele>
      </trkpt>
      <trkpt lat="44.66803" lon="7.10474">
        <ele>2645.5</ele>
      </trkpt>
      <trkpt lat="44.66812" lon="7.10476">
        <ele>2646.1</ele>
      </trkpt>
      <trkpt lat="44.66815" lon="7.10477">
        <ele>2646.2</ele>
      </trkpt>
      <trkpt lat="44.66819" lon="7.10484">
        <ele>2644.1</ele>
      </trkpt>
      <trkpt lat="44.66824" lon="7.10494">
        <ele>2641.2</ele>
      </trkpt>
      <trkpt lat="44.66827" lon="7.10498">
        <ele>2640.7</ele>
      </trkpt>
      <trkpt lat="44.66833" lon="7.10498">
        <ele>2641.7</ele>
      </trkpt>
      <trkpt lat="44.66838" lon="7.10501">
        <ele>2641.6</ele>
      </trkpt>
      <trkpt lat="44.66844" lon="7.105">
        <ele>2642.5</ele>
      </trkpt>
      <trkpt lat="44.66847" lon="7.10498">
        <ele>2643.6</ele>
        <extensions>
          <visugpx:TrkExtension xmlns:visugpx="https://www.visugpx.com/editgpx/">
            <visugpx:node>5</visugpx:node>
            </visugpx:TrkExtension>
        </extensions>
      </trkpt>
      <trkpt lat="44.66856" lon="7.10492">
        <ele>2646.3</ele>
      </trkpt>
      <trkpt lat="44.66866" lon="7.10492">
        <ele>2647.4</ele>
      </trkpt>
      <trkpt lat="44.66875" lon="7.10493">
        <ele>2648.3</ele>
      </trkpt>
      <trkpt lat="44.66892" lon="7.10501">
        <ele>2649.5</ele>
      </trkpt>
      <trkpt lat="44.669" lon="7.105">
        <ele>2650.5</ele>
      </trkpt>
      <trkpt lat="44.669" lon="7.10495">
        <ele>2651</ele>
      </trkpt>
      <trkpt lat="44.66921" lon="7.10501">
        <ele>2652.9</ele>
      </trkpt>
      <trkpt lat="44.66931" lon="7.105">
        <ele>2652.5</ele>
      </trkpt>
      <trkpt lat="44.66939" lon="7.10513">
        <ele>2654.5</ele>
      </trkpt>
      <trkpt lat="44.66954" lon="7.10512">
        <ele>2654.3</ele>
      </trkpt>
      <trkpt lat="44.66968" lon="7.10508">
        <ele>2653.1</ele>
      </trkpt>
      <trkpt lat="44.6698" lon="7.10506">
        <ele>2652.5</ele>
      </trkpt>
      <trkpt lat="44.66989" lon="7.10507">
        <ele>2652.7</ele>
      </trkpt>
      <trkpt lat="44.67001" lon="7.10501">
        <ele>2650.2</ele>
      </trkpt>
      <trkpt lat="44.67008" lon="7.10491">
        <ele>2648.2</ele>
      </trkpt>
      <trkpt lat="44.67017" lon="7.1049">
        <ele>2648</ele>
      </trkpt>
      <trkpt lat="44.67028" lon="7.10482">
        <ele>2646.4</ele>
      </trkpt>
      <trkpt lat="44.67039" lon="7.10478">
        <ele>2645.7</ele>
      </trkpt>
      <trkpt lat="44.67044" lon="7.10472">
        <ele>2644.5</ele>
        <extensions>
          <visugpx:TrkExtension xmlns:visugpx="https://www.visugpx.com/editgpx/">
            <visugpx:node>6</visugpx:node>
            </visugpx:TrkExtension>
        </extensions>
      </trkpt>
      <trkpt lat="44.67048" lon="7.10468">
        <ele>2643.6</ele>
      </trkpt>
      <trkpt lat="44.67056" lon="7.1046">
        <ele>2642.2</ele>
      </trkpt>
      <trkpt lat="44.67062" lon="7.10451">
        <ele>2640.5</ele>
      </trkpt>
      <trkpt lat="44.67067" lon="7.10439">
        <ele>2638.1</ele>
      </trkpt>
      <trkpt lat="44.67079" lon="7.10428">
        <ele>2636.1</ele>
      </trkpt>
      <trkpt lat="44.67086" lon="7.10426">
        <ele>2636.2</ele>
      </trkpt>
      <trkpt lat="44.67095" lon="7.10422">
        <ele>2636.7</ele>
      </trkpt>
      <trkpt lat="44.67104" lon="7.1041">
        <ele>2636.2</ele>
      </trkpt>
      <trkpt lat="44.6711" lon="7.10403">
        <ele>2636.5</ele>
      </trkpt>
      <trkpt lat="44.67115" lon="7.10395">
        <ele>2636.2</ele>
      </trkpt>
      <trkpt lat="44.67126" lon="7.10387">
        <ele>2636</ele>
      </trkpt>
      <trkpt lat="44.67131" lon="7.10386">
        <ele>2636</ele>
      </trkpt>
      <trkpt lat="44.67139" lon="7.10388">
        <ele>2636.7</ele>
      </trkpt>
      <trkpt lat="44.67142" lon="7.10383">
        <ele>2636</ele>
      </trkpt>
      <trkpt lat="44.67148" lon="7.10381">
        <ele>2636</ele>
      </trkpt>
      <trkpt lat="44.67159" lon="7.10386">
        <ele>2637.3</ele>
      </trkpt>
      <trkpt lat="44.67164" lon="7.10385">
        <ele>2637.2</ele>
      </trkpt>
      <trkpt lat="44.67173" lon="7.10381">
        <ele>2637.6</ele>
      </trkpt>
      <trkpt lat="44.67178" lon="7.10377">
        <ele>2637.4</ele>
      </trkpt>
      <trkpt lat="44.67194" lon="7.10367">
        <ele>2637.2</ele>
      </trkpt>
      <trkpt lat="44.6722" lon="7.10342">
        <ele>2632.3</ele>
      </trkpt>
      <trkpt lat="44.6722" lon="7.10342">
        <ele>2632.3</ele>
        <extensions>
          <visugpx:TrkExtension xmlns:visugpx="https://www.visugpx.com/editgpx/">
            <visugpx:node>7</visugpx:node>
            </visugpx:TrkExtension>
        </extensions>
      </trkpt>
      <trkpt lat="44.6722" lon="7.10342">
        <ele>2632.3</ele>
      </trkpt>
      <trkpt lat="44.67221" lon="7.10335">
        <ele>2630.1</ele>
      </trkpt>
      <trkpt lat="44.67225" lon="7.10334">
        <ele>2630.2</ele>
      </trkpt>
      <trkpt lat="44.67232" lon="7.10331">
        <ele>2630</ele>
      </trkpt>
      <trkpt lat="44.67231" lon="7.10324">
        <ele>2628.8</ele>
      </trkpt>
      <trkpt lat="44.67229" lon="7.10319">
        <ele>2627.7</ele>
      </trkpt>
      <trkpt lat="44.67234" lon="7.10317">
        <ele>2627.5</ele>
      </trkpt>
      <trkpt lat="44.67243" lon="7.10311">
        <ele>2626.4</ele>
      </trkpt>
      <trkpt lat="44.67248" lon="7.10307">
        <ele>2625.3</ele>
      </trkpt>
      <trkpt lat="44.67253" lon="7.10299">
        <ele>2623.9</ele>
      </trkpt>
      <trkpt lat="44.67252" lon="7.10294">
        <ele>2622.4</ele>
      </trkpt>
      <trkpt lat="44.67254" lon="7.10287">
        <ele>2621</ele>
      </trkpt>
      <trkpt lat="44.67258" lon="7.10284">
        <ele>2621.3</ele>
      </trkpt>
      <trkpt lat="44.67262" lon="7.10277">
        <ele>2620.2</ele>
      </trkpt>
      <trkpt lat="44.67268" lon="7.10268">
        <ele>2618.9</ele>
      </trkpt>
      <trkpt lat="44.67273" lon="7.10258">
        <ele>2617</ele>
      </trkpt>
      <trkpt lat="44.67275" lon="7.10246">
        <ele>2615.2</ele>
      </trkpt>
      <trkpt lat="44.67284" lon="7.10231">
        <ele>2616.7</ele>
      </trkpt>
      <trkpt lat="44.67298" lon="7.10222">
        <ele>2618.4</ele>
      </trkpt>
      <trkpt lat="44.67309" lon="7.10213">
        <ele>2619.3</ele>
      </trkpt>
      <trkpt lat="44.67324" lon="7.10185">
        <ele>2619</ele>
      </trkpt>
      <trkpt lat="44.67325" lon="7.10163">
        <ele>2618.2</ele>
      </trkpt>
      <trkpt lat="44.67331" lon="7.10148">
        <ele>2620</ele>
      </trkpt>
      <trkpt lat="44.67342" lon="7.10137">
        <ele>2621.6</ele>
      </trkpt>
      <trkpt lat="44.67351" lon="7.1013">
        <ele>2622.6</ele>
      </trkpt>
      <trkpt lat="44.67356" lon="7.10121">
        <ele>2623.3</ele>
      </trkpt>
      <trkpt lat="44.67358" lon="7.10116">
        <ele>2623.6</ele>
      </trkpt>
      <trkpt lat="44.67366" lon="7.10105">
        <ele>2624.1</ele>
      </trkpt>
      <trkpt lat="44.67372" lon="7.10109">
        <ele>2623.9</ele>
      </trkpt>
      <trkpt lat="44.67382" lon="7.10112">
        <ele>2623.8</ele>
      </trkpt>
      <trkpt lat="44.67388" lon="7.10115">
        <ele>2623.8</ele>
      </trkpt>
      <trkpt lat="44.67394" lon="7.10104">
        <ele>2623.7</ele>
      </trkpt>
      <trkpt lat="44.67407" lon="7.10095">
        <ele>2623.1</ele>
      </trkpt>
      <trkpt lat="44.67422" lon="7.10089">
        <ele>2622.1</ele>
      </trkpt>
      <trkpt lat="44.67435" lon="7.10086">
        <ele>2621.1</ele>
      </trkpt>
      <trkpt lat="44.67443" lon="7.10089">
        <ele>2620.8</ele>
      </trkpt>
      <trkpt lat="44.6745" lon="7.10089">
        <ele>2620.5</ele>
      </trkpt>
      <trkpt lat="44.67453" lon="7.10087">
        <ele>2620.1</ele>
      </trkpt>
      <trkpt lat="44.67457" lon="7.10082">
        <ele>2619.5</ele>
      </trkpt>
      <trkpt lat="44.67474" lon="7.10077">
        <ele>2618.2</ele>
      </trkpt>
      <trkpt lat="44.67485" lon="7.10083">
        <ele>2617.8</ele>
      </trkpt>
      <trkpt lat="44.67495" lon="7.10084">
        <ele>2617.3</ele>
      </trkpt>
      <trkpt lat="44.67505" lon="7.10089">
        <ele>2616.6</ele>
        <extensions>
          <visugpx:TrkExtension xmlns:visugpx="https://www.visugpx.com/editgpx/">
            <visugpx:node>8</visugpx:node>
            </visugpx:TrkExtension>
        </extensions>
      </trkpt>
      <trkpt lat="44.6751" lon="7.10092">
        <ele>2615.8</ele>
      </trkpt>
      <trkpt lat="44.67514" lon="7.101">
        <ele>2616.1</ele>
      </trkpt>
      <trkpt lat="44.67521" lon="7.10105">
        <ele>2615.1</ele>
      </trkpt>
      <trkpt lat="44.67532" lon="7.10109">
        <ele>2613.2</ele>
      </trkpt>
      <trkpt lat="44.67546" lon="7.10111">
        <ele>2610.6</ele>
      </trkpt>
      <trkpt lat="44.6755" lon="7.1012">
        <ele>2610.6</ele>
      </trkpt>
      <trkpt lat="44.67577" lon="7.1013">
        <ele>2606</ele>
      </trkpt>
      <trkpt lat="44.67585" lon="7.10137">
        <ele>2604.7</ele>
      </trkpt>
      <trkpt lat="44.67591" lon="7.10147">
        <ele>2604.4</ele>
      </trkpt>
      <trkpt lat="44.67593" lon="7.10154">
        <ele>2604.7</ele>
      </trkpt>
      <trkpt lat="44.67599" lon="7.10161">
        <ele>2604.1</ele>
      </trkpt>
      <trkpt lat="44.67598" lon="7.1017">
        <ele>2605.8</ele>
      </trkpt>
      <trkpt lat="44.67597" lon="7.10175">
        <ele>2607.6</ele>
      </trkpt>
      <trkpt lat="44.67609" lon="7.10184">
        <ele>2607.6</ele>
      </trkpt>
      <trkpt lat="44.67618" lon="7.10194">
        <ele>2608.6</ele>
      </trkpt>
      <trkpt lat="44.67627" lon="7.10199">
        <ele>2607.8</ele>
      </trkpt>
      <trkpt lat="44.67636" lon="7.10201">
        <ele>2606.2</ele>
      </trkpt>
      <trkpt lat="44.6764" lon="7.10204">
        <ele>2606</ele>
      </trkpt>
      <trkpt lat="44.67646" lon="7.10205">
        <ele>2604.9</ele>
      </trkpt>
      <trkpt lat="44.67654" lon="7.10222">
        <ele>2607.3</ele>
      </trkpt>
      <trkpt lat="44.67663" lon="7.10229">
        <ele>2606.6</ele>
      </trkpt>
      <trkpt lat="44.6767" lon="7.10229">
        <ele>2604.8</ele>
      </trkpt>
      <trkpt lat="44.67688" lon="7.10237">
        <ele>2601.2</ele>
      </trkpt>
      <trkpt lat="44.67693" lon="7.10237">
        <ele>2599.7</ele>
        <extensions>
          <visugpx:TrkExtension xmlns:visugpx="https://www.visugpx.com/editgpx/">
            <visugpx:node>9</visugpx:node>
            </visugpx:TrkExtension>
        </extensions>
      </trkpt>
      <trkpt lat="44.67705" lon="7.10238">
        <ele>2596</ele>
      </trkpt>
      <trkpt lat="44.67713" lon="7.10241">
        <ele>2593.9</ele>
      </trkpt>
      <trkpt lat="44.67733" lon="7.10241">
        <ele>2587.5</ele>
      </trkpt>
      <trkpt lat="44.67732" lon="7.10252">
        <ele>2588.7</ele>
      </trkpt>
      <trkpt lat="44.67736" lon="7.1026">
        <ele>2588.3</ele>
      </trkpt>
      <trkpt lat="44.67752" lon="7.10265">
        <ele>2582.5</ele>
      </trkpt>
      <trkpt lat="44.67765" lon="7.10265">
        <ele>2580.1</ele>
      </trkpt>
      <trkpt lat="44.67779" lon="7.1027">
        <ele>2577.9</ele>
      </trkpt>
      <trkpt lat="44.67784" lon="7.10266">
        <ele>2576.7</ele>
      </trkpt>
      <trkpt lat="44.67783" lon="7.10257">
        <ele>2576.1</ele>
      </trkpt>
      <trkpt lat="44.67785" lon="7.10251">
        <ele>2575</ele>
      </trkpt>
      <trkpt lat="44.67789" lon="7.10249">
        <ele>2574.1</ele>
      </trkpt>
      <trkpt lat="44.67792" lon="7.1025">
        <ele>2573.4</ele>
      </trkpt>
      <trkpt lat="44.67798" lon="7.10262">
        <ele>2573.5</ele>
      </trkpt>
      <trkpt lat="44.678" lon="7.10264">
        <ele>2573.4</ele>
      </trkpt>
      <trkpt lat="44.67802" lon="7.10274">
        <ele>2574.2</ele>
      </trkpt>
      <trkpt lat="44.67797" lon="7.10284">
        <ele>2576.4</ele>
      </trkpt>
      <trkpt lat="44.67797" lon="7.10292">
        <ele>2577.3</ele>
      </trkpt>
      <trkpt lat="44.67801" lon="7.10301">
        <ele>2577.6</ele>
      </trkpt>
      <trkpt lat="44.67809" lon="7.10311">
        <ele>2577.8</ele>
      </trkpt>
      <trkpt lat="44.67824" lon="7.10321">
        <ele>2577.3</ele>
      </trkpt>
      <trkpt lat="44.67832" lon="7.10325">
        <ele>2576.8</ele>
      </trkpt>
      <trkpt lat="44.67838" lon="7.10332">
        <ele>2576.1</ele>
      </trkpt>
      <trkpt lat="44.67848" lon="7.10334">
        <ele>2572.2</ele>
      </trkpt>
      <trkpt lat="44.67859" lon="7.10332">
        <ele>2567.5</ele>
      </trkpt>
      <trkpt lat="44.67874" lon="7.10334">
        <ele>2561.4</ele>
        <extensions>
          <visugpx:TrkExtension xmlns:visugpx="https://www.visugpx.com/editgpx/">
            <visugpx:node>10</visugpx:node>
            </visugpx:TrkExtension>
        </extensions>
      </trkpt>
      <trkpt lat="44.67881" lon="7.10334">
        <ele>2558.8</ele>
      </trkpt>
      <trkpt lat="44.67891" lon="7.10344">
        <ele>2557</ele>
      </trkpt>
      <trkpt lat="44.67897" lon="7.10346">
        <ele>2554.8</ele>
      </trkpt>
      <trkpt lat="44.67901" lon="7.10351">
        <ele>2554.6</ele>
      </trkpt>
      <trkpt lat="44.67907" lon="7.10356">
        <ele>2553.6</ele>
      </trkpt>
      <trkpt lat="44.67927" lon="7.10348">
        <ele>2545</ele>
      </trkpt>
      <trkpt lat="44.67938" lon="7.10345">
        <ele>2541.1</ele>
      </trkpt>
      <trkpt lat="44.67949" lon="7.10336">
        <ele>2535.5</ele>
      </trkpt>
      <trkpt lat="44.67952" lon="7.10329">
        <ele>2533</ele>
      </trkpt>
      <trkpt lat="44.67959" lon="7.10326">
        <ele>2530.1</ele>
      </trkpt>
      <trkpt lat="44.67967" lon="7.10327">
        <ele>2528</ele>
      </trkpt>
      <trkpt lat="44.67963" lon="7.10311">
        <ele>2525.3</ele>
      </trkpt>
      <trkpt lat="44.67959" lon="7.10297">
        <ele>2523.3</ele>
      </trkpt>
      <trkpt lat="44.6796" lon="7.10287">
        <ele>2520.5</ele>
      </trkpt>
      <trkpt lat="44.67955" lon="7.10279">
        <ele>2520.4</ele>
      </trkpt>
      <trkpt lat="44.67952" lon="7.10271">
        <ele>2520</ele>
      </trkpt>
      <trkpt lat="44.67949" lon="7.10268">
        <ele>2520.6</ele>
      </trkpt>
      <trkpt lat="44.67946" lon="7.10267">
        <ele>2521.6</ele>
      </trkpt>
      <trkpt lat="44.67943" lon="7.10269">
        <ele>2523.4</ele>
      </trkpt>
      <trkpt lat="44.67941" lon="7.10272">
        <ele>2524.9</ele>
      </trkpt>
      <trkpt lat="44.67937" lon="7.10275">
        <ele>2526.7</ele>
      </trkpt>
      <trkpt lat="44.67934" lon="7.10274">
        <ele>2527.8</ele>
      </trkpt>
      <trkpt lat="44.67934" lon="7.10269">
        <ele>2527</ele>
      </trkpt>
      <trkpt lat="44.67936" lon="7.10264">
        <ele>2525</ele>
      </trkpt>
      <trkpt lat="44.67941" lon="7.1026">
        <ele>2522.5</ele>
      </trkpt>
      <trkpt lat="44.67947" lon="7.10251">
        <ele>2517.7</ele>
      </trkpt>
      <trkpt lat="44.67951" lon="7.10239">
        <ele>2514.3</ele>
      </trkpt>
      <trkpt lat="44.67961" lon="7.10237">
        <ele>2509.4</ele>
      </trkpt>
      <trkpt lat="44.6797" lon="7.10233">
        <ele>2504.6</ele>
      </trkpt>
      <trkpt lat="44.67979" lon="7.10234">
        <ele>2500.8</ele>
      </trkpt>
      <trkpt lat="44.67984" lon="7.10242">
        <ele>2499.6</ele>
      </trkpt>
      <trkpt lat="44.67989" lon="7.10246">
        <ele>2498.3</ele>
      </trkpt>
      <trkpt lat="44.67993" lon="7.10243">
        <ele>2495.7</ele>
      </trkpt>
      <trkpt lat="44.67993" lon="7.10237">
        <ele>2494.6</ele>
      </trkpt>
      <trkpt lat="44.67991" lon="7.10232">
        <ele>2494.6</ele>
      </trkpt>
      <trkpt lat="44.67989" lon="7.10219">
        <ele>2492.8</ele>
      </trkpt>
      <trkpt lat="44.67985" lon="7.1021">
        <ele>2493.1</ele>
      </trkpt>
      <trkpt lat="44.67987" lon="7.10209">
        <ele>2492.1</ele>
      </trkpt>
      <trkpt lat="44.67996" lon="7.10219">
        <ele>2489.2</ele>
      </trkpt>
      <trkpt lat="44.68004" lon="7.10225">
        <ele>2487.7</ele>
      </trkpt>
      <trkpt lat="44.68005" lon="7.10229">
        <ele>2488.2</ele>
        <extensions>
          <visugpx:TrkExtension xmlns:visugpx="https://www.visugpx.com/editgpx/">
            <visugpx:node>11</visugpx:node>
            </visugpx:TrkExtension>
        </extensions>
      </trkpt>
      <trkpt lat="44.68005" lon="7.1023">
        <ele>2488.4</ele>
      </trkpt>
      <trkpt lat="44.68007" lon="7.10232">
        <ele>2488.5</ele>
      </trkpt>
      <trkpt lat="44.68009" lon="7.10231">
        <ele>2487.7</ele>
      </trkpt>
      <trkpt lat="44.68009" lon="7.10219">
        <ele>2485.2</ele>
      </trkpt>
      <trkpt lat="44.6801" lon="7.10207">
        <ele>2482.3</ele>
      </trkpt>
      <trkpt lat="44.68016" lon="7.10211">
        <ele>2481.9</ele>
      </trkpt>
      <trkpt lat="44.68022" lon="7.10212">
        <ele>2480.7</ele>
      </trkpt>
      <trkpt lat="44.68032" lon="7.10214">
        <ele>2478.7</ele>
      </trkpt>
      <trkpt lat="44.68034" lon="7.10211">
        <ele>2477.4</ele>
      </trkpt>
      <trkpt lat="44.68034" lon="7.10206">
        <ele>2476.5</ele>
      </trkpt>
      <trkpt lat="44.68037" lon="7.10206">
        <ele>2475.9</ele>
      </trkpt>
      <trkpt lat="44.68045" lon="7.10211">
        <ele>2475.2</ele>
      </trkpt>
      <trkpt lat="44.68047" lon="7.10206">
        <ele>2473.5</ele>
      </trkpt>
      <trkpt lat="44.68055" lon="7.10209">
        <ele>2472.3</ele>
      </trkpt>
      <trkpt lat="44.68061" lon="7.10179">
        <ele>2464.7</ele>
      </trkpt>
      <trkpt lat="44.68059" lon="7.10169">
        <ele>2462.9</ele>
      </trkpt>
      <trkpt lat="44.68055" lon="7.10164">
        <ele>2463.2</ele>
      </trkpt>
      <trkpt lat="44.68055" lon="7.10155">
        <ele>2462.5</ele>
      </trkpt>
      <trkpt lat="44.68058" lon="7.10142">
        <ele>2460.8</ele>
      </trkpt>
      <trkpt lat="44.68062" lon="7.10143">
        <ele>2459.9</ele>
      </trkpt>
      <trkpt lat="44.68067" lon="7.10147">
        <ele>2459</ele>
      </trkpt>
      <trkpt lat="44.68068" lon="7.10137">
        <ele>2457.8</ele>
      </trkpt>
      <trkpt lat="44.6807" lon="7.10131">
        <ele>2456.8</ele>
      </trkpt>
      <trkpt lat="44.68073" lon="7.10132">
        <ele>2456.2</ele>
      </trkpt>
      <trkpt lat="44.68077" lon="7.10141">
        <ele>2456.1</ele>
      </trkpt>
      <trkpt lat="44.68087" lon="7.10151">
        <ele>2454.4</ele>
      </trkpt>
      <trkpt lat="44.68084" lon="7.10136">
        <ele>2453.7</ele>
      </trkpt>
      <trkpt lat="44.68085" lon="7.10128">
        <ele>2452.9</ele>
      </trkpt>
      <trkpt lat="44.68088" lon="7.10119">
        <ele>2451.1</ele>
      </trkpt>
      <trkpt lat="44.68093" lon="7.10102">
        <ele>2448.2</ele>
      </trkpt>
      <trkpt lat="44.68096" lon="7.10082">
        <ele>2445.9</ele>
      </trkpt>
      <trkpt lat="44.68095" lon="7.10068">
        <ele>2445.7</ele>
      </trkpt>
      <trkpt lat="44.68093" lon="7.10041">
        <ele>2445.5</ele>
      </trkpt>
      <trkpt lat="44.68096" lon="7.10032">
        <ele>2444.3</ele>
      </trkpt>
      <trkpt lat="44.68096" lon="7.10032">
        <ele>2444.3</ele>
        <extensions>
          <visugpx:TrkExtension xmlns:visugpx="https://www.visugpx.com/editgpx/">
            <visugpx:node>12</visugpx:node>
            </visugpx:TrkExtension>
        </extensions>
      </trkpt>
      <trkpt lat="44.68093" lon="7.10041">
        <ele>2445.5</ele>
      </trkpt>
      <trkpt lat="44.68091" lon="7.10029">
        <ele>2445.6</ele>
      </trkpt>
      <trkpt lat="44.68092" lon="7.10001">
        <ele>2444.5</ele>
      </trkpt>
      <trkpt lat="44.68094" lon="7.09987">
        <ele>2442</ele>
      </trkpt>
      <trkpt lat="44.68093" lon="7.09975">
        <ele>2440.7</ele>
      </trkpt>
      <trkpt lat="44.68089" lon="7.09962">
        <ele>2440.4</ele>
      </trkpt>
      <trkpt lat="44.68081" lon="7.09946">
        <ele>2441.6</ele>
      </trkpt>
      <trkpt lat="44.68071" lon="7.09914">
        <ele>2442.2</ele>
      </trkpt>
      <trkpt lat="44.6807" lon="7.09903">
        <ele>2441.9</ele>
      </trkpt>
      <trkpt lat="44.68067" lon="7.09895">
        <ele>2442.5</ele>
      </trkpt>
      <trkpt lat="44.68063" lon="7.09879">
        <ele>2443.1</ele>
      </trkpt>
      <trkpt lat="44.68056" lon="7.09862">
        <ele>2445.3</ele>
      </trkpt>
      <trkpt lat="44.68055" lon="7.09854">
        <ele>2445</ele>
      </trkpt>
      <trkpt lat="44.68051" lon="7.09834">
        <ele>2445.7</ele>
      </trkpt>
      <trkpt lat="44.68051" lon="7.09828">
        <ele>2445.8</ele>
      </trkpt>
      <trkpt lat="44.68048" lon="7.09823">
        <ele>2447.5</ele>
      </trkpt>
      <trkpt lat="44.68043" lon="7.09812">
        <ele>2450.9</ele>
      </trkpt>
      <trkpt lat="44.68044" lon="7.09801">
        <ele>2450.5</ele>
      </trkpt>
      <trkpt lat="44.68045" lon="7.09783">
        <ele>2450.1</ele>
      </trkpt>
      <trkpt lat="44.6805" lon="7.09771">
        <ele>2447.9</ele>
      </trkpt>
      <trkpt lat="44.6805" lon="7.09742">
        <ele>2448.1</ele>
      </trkpt>
      <trkpt lat="44.68053" lon="7.09723">
        <ele>2446.5</ele>
      </trkpt>
      <trkpt lat="44.68057" lon="7.09693">
        <ele>2443.9</ele>
      </trkpt>
      <trkpt lat="44.68059" lon="7.09685">
        <ele>2442.6</ele>
        <extensions>
          <visugpx:TrkExtension xmlns:visugpx="https://www.visugpx.com/editgpx/">
            <visugpx:node>13</visugpx:node>
            </visugpx:TrkExtension>
        </extensions>
      </trkpt>
      <trkpt lat="44.68061" lon="7.09677">
        <ele>2441.4</ele>
      </trkpt>
      <trkpt lat="44.68062" lon="7.09663">
        <ele>2440.6</ele>
      </trkpt>
      <trkpt lat="44.68063" lon="7.09646">
        <ele>2440.3</ele>
      </trkpt>
      <trkpt lat="44.68063" lon="7.09631">
        <ele>2440.1</ele>
      </trkpt>
      <trkpt lat="44.68066" lon="7.09624">
        <ele>2438.5</ele>
      </trkpt>
      <trkpt lat="44.68069" lon="7.09613">
        <ele>2436.4</ele>
      </trkpt>
      <trkpt lat="44.68072" lon="7.09608">
        <ele>2434.5</ele>
      </trkpt>
      <trkpt lat="44.68073" lon="7.09602">
        <ele>2433.4</ele>
      </trkpt>
      <trkpt lat="44.68075" lon="7.09588">
        <ele>2432.3</ele>
      </trkpt>
      <trkpt lat="44.68074" lon="7.0958">
        <ele>2433.3</ele>
      </trkpt>
      <trkpt lat="44.68075" lon="7.0957">
        <ele>2433.9</ele>
      </trkpt>
      <trkpt lat="44.6808" lon="7.09563">
        <ele>2431.5</ele>
      </trkpt>
      <trkpt lat="44.68082" lon="7.09558">
        <ele>2431.2</ele>
      </trkpt>
      <trkpt lat="44.68082" lon="7.09552">
        <ele>2432.2</ele>
      </trkpt>
      <trkpt lat="44.68082" lon="7.09536">
        <ele>2434.2</ele>
      </trkpt>
      <trkpt lat="44.68081" lon="7.09531">
        <ele>2435.5</ele>
      </trkpt>
      <trkpt lat="44.68091" lon="7.09517">
        <ele>2431.8</ele>
      </trkpt>
      <trkpt lat="44.68095" lon="7.09512">
        <ele>2430.3</ele>
      </trkpt>
      <trkpt lat="44.68099" lon="7.09507">
        <ele>2428.7</ele>
      </trkpt>
      <trkpt lat="44.68107" lon="7.09504">
        <ele>2424.6</ele>
      </trkpt>
      <trkpt lat="44.68124" lon="7.09501">
        <ele>2415.3</ele>
      </trkpt>
      <trkpt lat="44.68129" lon="7.09491">
        <ele>2415.1</ele>
      </trkpt>
      <trkpt lat="44.68132" lon="7.09476">
        <ele>2417.9</ele>
      </trkpt>
      <trkpt lat="44.68135" lon="7.09462">
        <ele>2420.5</ele>
      </trkpt>
      <trkpt lat="44.68141" lon="7.09456">
        <ele>2418.8</ele>
      </trkpt>
      <trkpt lat="44.68147" lon="7.09439">
        <ele>2420.2</ele>
      </trkpt>
      <trkpt lat="44.6815" lon="7.09427">
        <ele>2421.9</ele>
      </trkpt>
      <trkpt lat="44.68157" lon="7.09412">
        <ele>2422.1</ele>
      </trkpt>
      <trkpt lat="44.68161" lon="7.0941">
        <ele>2420</ele>
        <extensions>
          <visugpx:TrkExtension xmlns:visugpx="https://www.visugpx.com/editgpx/">
            <visugpx:node>14</visugpx:node>
            </visugpx:TrkExtension>
        </extensions>
      </trkpt>
      <trkpt lat="44.68171" lon="7.09393">
        <ele>2418.2</ele>
      </trkpt>
      <trkpt lat="44.6818" lon="7.09392">
        <ele>2413</ele>
      </trkpt>
      <trkpt lat="44.68189" lon="7.09389">
        <ele>2408.2</ele>
      </trkpt>
      <trkpt lat="44.682" lon="7.09382">
        <ele>2403.1</ele>
      </trkpt>
      <trkpt lat="44.68228" lon="7.09362">
        <ele>2392.1</ele>
      </trkpt>
      <trkpt lat="44.68243" lon="7.09349">
        <ele>2386.6</ele>
      </trkpt>
      <trkpt lat="44.68254" lon="7.09343">
        <ele>2381.9</ele>
      </trkpt>
      <trkpt lat="44.68259" lon="7.09338">
        <ele>2381.4</ele>
      </trkpt>
      <trkpt lat="44.68262" lon="7.09337">
        <ele>2379.8</ele>
      </trkpt>
      <trkpt lat="44.68266" lon="7.0933">
        <ele>2380.2</ele>
      </trkpt>
      <trkpt lat="44.6827" lon="7.09327">
        <ele>2378.7</ele>
      </trkpt>
      <trkpt lat="44.68283" lon="7.09315">
        <ele>2376.7</ele>
      </trkpt>
      <trkpt lat="44.6829" lon="7.09316">
        <ele>2372.7</ele>
      </trkpt>
      <trkpt lat="44.68293" lon="7.09313">
        <ele>2372.1</ele>
      </trkpt>
      <trkpt lat="44.68296" lon="7.09318">
        <ele>2368.9</ele>
      </trkpt>
      <trkpt lat="44.683" lon="7.09314">
        <ele>2368.4</ele>
      </trkpt>
      <trkpt lat="44.68302" lon="7.09316">
        <ele>2366.7</ele>
      </trkpt>
      <trkpt lat="44.68306" lon="7.09309">
        <ele>2367.1</ele>
      </trkpt>
      <trkpt lat="44.68311" lon="7.09319">
        <ele>2361.3</ele>
      </trkpt>
      <trkpt lat="44.68319" lon="7.09313">
        <ele>2359.1</ele>
      </trkpt>
      <trkpt lat="44.68321" lon="7.09316">
        <ele>2357</ele>
      </trkpt>
      <trkpt lat="44.68324" lon="7.09313">
        <ele>2356.3</ele>
      </trkpt>
      <trkpt lat="44.68326" lon="7.0932">
        <ele>2353.1</ele>
      </trkpt>
      <trkpt lat="44.68328" lon="7.09317">
        <ele>2352.9</ele>
      </trkpt>
      <trkpt lat="44.6833" lon="7.09321">
        <ele>2350.6</ele>
      </trkpt>
      <trkpt lat="44.68333" lon="7.09318">
        <ele>2350.4</ele>
      </trkpt>
      <trkpt lat="44.68335" lon="7.09324">
        <ele>2347.7</ele>
      </trkpt>
      <trkpt lat="44.68339" lon="7.09321">
        <ele>2347.2</ele>
      </trkpt>
      <trkpt lat="44.68341" lon="7.09327">
        <ele>2344.3</ele>
      </trkpt>
      <trkpt lat="44.68347" lon="7.09324">
        <ele>2343</ele>
      </trkpt>
      <trkpt lat="44.68352" lon="7.09328">
        <ele>2340</ele>
      </trkpt>
      <trkpt lat="44.68354" lon="7.09326">
        <ele>2339.8</ele>
      </trkpt>
      <trkpt lat="44.68361" lon="7.09329">
        <ele>2336.5</ele>
      </trkpt>
      <trkpt lat="44.68366" lon="7.09324">
        <ele>2335.7</ele>
      </trkpt>
      <trkpt lat="44.68369" lon="7.09327">
        <ele>2333.9</ele>
      </trkpt>
      <trkpt lat="44.68369" lon="7.09331">
        <ele>2332.7</ele>
      </trkpt>
      <trkpt lat="44.68372" lon="7.09335">
        <ele>2331</ele>
      </trkpt>
      <trkpt lat="44.68374" lon="7.09334">
        <ele>2330.1</ele>
      </trkpt>
      <trkpt lat="44.6838" lon="7.09337">
        <ele>2327.5</ele>
      </trkpt>
      <trkpt lat="44.68383" lon="7.09346">
        <ele>2325</ele>
      </trkpt>
      <trkpt lat="44.6839" lon="7.09351">
        <ele>2321.8</ele>
      </trkpt>
      <trkpt lat="44.68393" lon="7.09358">
        <ele>2319.9</ele>
      </trkpt>
      <trkpt lat="44.68397" lon="7.09361">
        <ele>2317.6</ele>
      </trkpt>
      <trkpt lat="44.684" lon="7.09369">
        <ele>2315.5</ele>
      </trkpt>
      <trkpt lat="44.68404" lon="7.09374">
        <ele>2313.6</ele>
      </trkpt>
      <trkpt lat="44.68407" lon="7.09381">
        <ele>2311.4</ele>
        <extensions>
          <visugpx:TrkExtension xmlns:visugpx="https://www.visugpx.com/editgpx/">
            <visugpx:node>15</visugpx:node>
            </visugpx:TrkExtension>
        </extensions>
      </trkpt>
      <trkpt lat="44.68411" lon="7.09391">
        <ele>2308.8</ele>
      </trkpt>
      <trkpt lat="44.68413" lon="7.09407">
        <ele>2305.5</ele>
      </trkpt>
      <trkpt lat="44.68419" lon="7.09416">
        <ele>2303.1</ele>
      </trkpt>
      <trkpt lat="44.68433" lon="7.09444">
        <ele>2301.2</ele>
      </trkpt>
      <trkpt lat="44.68434" lon="7.09452">
        <ele>2300.5</ele>
      </trkpt>
      <trkpt lat="44.68434" lon="7.09457">
        <ele>2300</ele>
      </trkpt>
      <trkpt lat="44.68448" lon="7.09466">
        <ele>2298.5</ele>
      </trkpt>
      <trkpt lat="44.68458" lon="7.09472">
        <ele>2297.2</ele>
      </trkpt>
      <trkpt lat="44.68465" lon="7.09476">
        <ele>2296.2</ele>
      </trkpt>
      <trkpt lat="44.68484" lon="7.09474">
        <ele>2295.3</ele>
      </trkpt>
      <trkpt lat="44.68492" lon="7.09472">
        <ele>2295.1</ele>
      </trkpt>
      <trkpt lat="44.68497" lon="7.09474">
        <ele>2294.5</ele>
      </trkpt>
      <trkpt lat="44.68499" lon="7.09475">
        <ele>2294.3</ele>
        <extensions>
          <visugpx:TrkExtension xmlns:visugpx="https://www.visugpx.com/editgpx/">
            <visugpx:node>16</visugpx:node>
            </visugpx:TrkExtension>
        </extensions>
      </trkpt>
      <trkpt lat="44.68504" lon="7.09477">
        <ele>2294</ele>
      </trkpt>
      <trkpt lat="44.6851" lon="7.09472">
        <ele>2295.4</ele>
      </trkpt>
      <trkpt lat="44.68524" lon="7.09464">
        <ele>2298.3</ele>
      </trkpt>
      <trkpt lat="44.68531" lon="7.0946">
        <ele>2300</ele>
      </trkpt>
      <trkpt lat="44.68538" lon="7.0946">
        <ele>2300.6</ele>
      </trkpt>
      <trkpt lat="44.68548" lon="7.09462">
        <ele>2301</ele>
      </trkpt>
      <trkpt lat="44.68558" lon="7.09467">
        <ele>2300.3</ele>
      </trkpt>
      <trkpt lat="44.68566" lon="7.09474">
        <ele>2298.4</ele>
      </trkpt>
      <trkpt lat="44.68576" lon="7.09478">
        <ele>2297.4</ele>
      </trkpt>
      <trkpt lat="44.68606" lon="7.09496">
        <ele>2295.1</ele>
      </trkpt>
      <trkpt lat="44.68622" lon="7.09522">
        <ele>2293.8</ele>
      </trkpt>
      <trkpt lat="44.68626" lon="7.09529">
        <ele>2293.4</ele>
      </trkpt>
      <trkpt lat="44.68626" lon="7.09538">
        <ele>2292.3</ele>
      </trkpt>
      <trkpt lat="44.68625" lon="7.09542">
        <ele>2291.5</ele>
        <extensions>
          <visugpx:TrkExtension xmlns:visugpx="https://www.visugpx.com/editgpx/">
            <visugpx:node>17</visugpx:node>
            </visugpx:TrkExtension>
        </extensions>
      </trkpt>
      <trkpt lat="44.68622" lon="7.09561">
        <ele>2288</ele>
      </trkpt>
      <trkpt lat="44.6862" lon="7.09571">
        <ele>2286.2</ele>
      </trkpt>
      <trkpt lat="44.6862" lon="7.09575">
        <ele>2285.7</ele>
      </trkpt>
      <trkpt lat="44.68619" lon="7.09582">
        <ele>2284.4</ele>
      </trkpt>
      <trkpt lat="44.68619" lon="7.09591">
        <ele>2283.4</ele>
      </trkpt>
      <trkpt lat="44.68617" lon="7.096">
        <ele>2282.1</ele>
      </trkpt>
      <trkpt lat="44.68615" lon="7.0961">
        <ele>2280.8</ele>
      </trkpt>
      <trkpt lat="44.68613" lon="7.09617">
        <ele>2279.8</ele>
        <extensions>
          <visugpx:TrkExtension xmlns:visugpx="https://www.visugpx.com/editgpx/">
            <visugpx:node>18</visugpx:node>
            </visugpx:TrkExtension>
        </extensions>
      </trkpt>
      <trkpt lat="44.68611" lon="7.09628">
        <ele>2278.2</ele>
      </trkpt>
      <trkpt lat="44.68612" lon="7.09632">
        <ele>2278.1</ele>
      </trkpt>
      <trkpt lat="44.68613" lon="7.09633">
        <ele>2278.3</ele>
      </trkpt>
      <trkpt lat="44.68614" lon="7.09635">
        <ele>2278.2</ele>
      </trkpt>
      <trkpt lat="44.68614" lon="7.09639">
        <ele>2277.9</ele>
      </trkpt>
      <trkpt lat="44.68615" lon="7.09643">
        <ele>2277.8</ele>
      </trkpt>
      <trkpt lat="44.68618" lon="7.0965">
        <ele>2278</ele>
      </trkpt>
      <trkpt lat="44.68623" lon="7.09653">
        <ele>2278.9</ele>
      </trkpt>
      <trkpt lat="44.68624" lon="7.09657">
        <ele>2278.9</ele>
      </trkpt>
      <trkpt lat="44.68624" lon="7.0966">
        <ele>2278.6</ele>
      </trkpt>
      <trkpt lat="44.68623" lon="7.09668">
        <ele>2278</ele>
      </trkpt>
      <trkpt lat="44.68624" lon="7.09675">
        <ele>2277.8</ele>
      </trkpt>
      <trkpt lat="44.68626" lon="7.09681">
        <ele>2277.8</ele>
      </trkpt>
      <trkpt lat="44.68631" lon="7.09693">
        <ele>2278.7</ele>
        <extensions>
          <visugpx:TrkExtension xmlns:visugpx="https://www.visugpx.com/editgpx/">
            <visugpx:node>19</visugpx:node>
            </visugpx:TrkExtension>
        </extensions>
      </trkpt>
      <trkpt lat="44.68632" lon="7.09694">
        <ele>2278.8</ele>
      </trkpt>
      <trkpt lat="44.68636" lon="7.09708">
        <ele>2279.2</ele>
      </trkpt>
      <trkpt lat="44.68639" lon="7.09711">
        <ele>2279.7</ele>
      </trkpt>
      <trkpt lat="44.68641" lon="7.09715">
        <ele>2280</ele>
      </trkpt>
      <trkpt lat="44.68644" lon="7.09718">
        <ele>2280.6</ele>
      </trkpt>
      <trkpt lat="44.68648" lon="7.09719">
        <ele>2281.4</ele>
      </trkpt>
      <trkpt lat="44.68657" lon="7.09726">
        <ele>2283.4</ele>
        <extensions>
          <visugpx:TrkExtension xmlns:visugpx="https://www.visugpx.com/editgpx/">
            <visugpx:node>20</visugpx:node>
            </visugpx:TrkExtension>
        </extensions>
      </trkpt>
      <trkpt lat="44.68659" lon="7.09727">
        <ele>2283.7</ele>
      </trkpt>
      <trkpt lat="44.68664" lon="7.09728">
        <ele>2284.9</ele>
      </trkpt>
      <trkpt lat="44.68668" lon="7.09733">
        <ele>2285.6</ele>
      </trkpt>
      <trkpt lat="44.68673" lon="7.09737">
        <ele>2286.6</ele>
        <extensions>
          <visugpx:TrkExtension xmlns:visugpx="https://www.visugpx.com/editgpx/">
            <visugpx:node>21</visugpx:node>
            </visugpx:TrkExtension>
        </extensions>
      </trkpt>
      <trkpt lat="44.68676" lon="7.09737">
        <ele>2287.4</ele>
      </trkpt>
      <trkpt lat="44.68679" lon="7.09735">
        <ele>2288.2</ele>
        <extensions>
          <visugpx:TrkExtension xmlns:visugpx="https://www.visugpx.com/editgpx/">
            <visugpx:node>22</visugpx:node>
            </visugpx:TrkExtension>
        </extensions>
      </trkpt>
      <trkpt lat="44.68689" lon="7.09742">
        <ele>2289.9</ele>
        <time>2026-09-02T09:03:16Z</time>
        <extensions>
          <visugpx:TrkExtension xmlns:visugpx="https://www.visugpx.com/editgpx/">
            <visugpx:node>1</visugpx:node>
            </visugpx:TrkExtension>
        </extensions>
      </trkpt>
      <trkpt lat="44.68683" lon="7.09733">
        <ele>2289.3</ele>
        <time>2026-09-02T09:03:23Z</time>
      </trkpt>
      <trkpt lat="44.68682" lon="7.09731">
        <ele>2289.2</ele>
        <time>2026-09-02T09:03:28Z</time>
      </trkpt>
      <trkpt lat="44.68682" lon="7.09728">
        <ele>2289.5</ele>
        <time>2026-09-02T09:03:33Z</time>
      </trkpt>
      <trkpt lat="44.68679" lon="7.09721">
        <ele>2289.4</ele>
        <time>2026-09-02T09:03:39Z</time>
      </trkpt>
      <trkpt lat="44.68675" lon="7.09719">
        <ele>2288.5</ele>
        <time>2026-09-02T09:03:44Z</time>
      </trkpt>
      <trkpt lat="44.68674" lon="7.09715">
        <ele>2288.5</ele>
        <time>2026-09-02T09:03:49Z</time>
      </trkpt>
      <trkpt lat="44.68673" lon="7.09713">
        <ele>2288.4</ele>
        <time>2026-09-02T09:03:55Z</time>
      </trkpt>
      <trkpt lat="44.68673" lon="7.0971">
        <ele>2288.7</ele>
        <time>2026-09-02T09:04:00Z</time>
      </trkpt>
      <trkpt lat="44.68675" lon="7.09707">
        <ele>2289.5</ele>
        <time>2026-09-02T09:04:05Z</time>
      </trkpt>
      <trkpt lat="44.68675" lon="7.09708">
        <ele>2289.4</ele>
        <time>2026-09-02T09:04:11Z</time>
      </trkpt>
      <trkpt lat="44.68675" lon="7.09708">
        <ele>2289.4</ele>
        <time>2026-09-02T09:04:16Z</time>
      </trkpt>
      <trkpt lat="44.68675" lon="7.09708">
        <ele>2289.4</ele>
        <time>2026-09-02T09:04:21Z</time>
      </trkpt>
      <trkpt lat="44.68675" lon="7.09708">
        <ele>2289.4</ele>
        <time>2026-09-02T09:04:27Z</time>
      </trkpt>
      <trkpt lat="44.68671" lon="7.09705">
        <ele>2288.5</ele>
        <time>2026-09-02T09:04:32Z</time>
      </trkpt>
      <trkpt lat="44.68667" lon="7.09703">
        <ele>2287.5</ele>
        <time>2026-09-02T09:04:37Z</time>
      </trkpt>
      <trkpt lat="44.68666" lon="7.09702">
        <ele>2287.3</ele>
        <time>2026-09-02T09:04:43Z</time>
      </trkpt>
      <trkpt lat="44.68664" lon="7.097">
        <ele>2286.9</ele>
        <time>2026-09-02T09:04:48Z</time>
      </trkpt>
      <trkpt lat="44.68663" lon="7.09695">
        <ele>2287</ele>
        <time>2026-09-02T09:04:53Z</time>
      </trkpt>
      <trkpt lat="44.68661" lon="7.09688">
        <ele>2287</ele>
        <time>2026-09-02T09:04:59Z</time>
      </trkpt>
      <trkpt lat="44.68658" lon="7.09683">
        <ele>2286.5</ele>
        <time>2026-09-02T09:05:04Z</time>
      </trkpt>
      <trkpt lat="44.68656" lon="7.09676">
        <ele>2286.4</ele>
        <time>2026-09-02T09:05:09Z</time>
      </trkpt>
      <trkpt lat="44.68656" lon="7.09669">
        <ele>2286.9</ele>
        <time>2026-09-02T09:05:15Z</time>
      </trkpt>
      <trkpt lat="44.68655" lon="7.09668">
        <ele>2286.7</ele>
        <time>2026-09-02T09:05:20Z</time>
      </trkpt>
      <trkpt lat="44.68654" lon="7.09665">
        <ele>2286.6</ele>
        <time>2026-09-02T09:05:25Z</time>
      </trkpt>
      <trkpt lat="44.68655" lon="7.09657">
        <ele>2287.4</ele>
        <time>2026-09-02T09:05:31Z</time>
      </trkpt>
      <trkpt lat="44.68655" lon="7.0965">
        <ele>2287.9</ele>
        <time>2026-09-02T09:05:36Z</time>
      </trkpt>
      <trkpt lat="44.6866" lon="7.09645">
        <ele>2289.5</ele>
        <time>2026-09-02T09:05:41Z</time>
      </trkpt>
      <trkpt lat="44.68657" lon="7.09639">
        <ele>2289.1</ele>
        <time>2026-09-02T09:05:47Z</time>
      </trkpt>
      <trkpt lat="44.68658" lon="7.09637">
        <ele>2289.5</ele>
        <time>2026-09-02T09:05:52Z</time>
      </trkpt>
      <trkpt lat="44.68657" lon="7.09634">
        <ele>2289.5</ele>
        <time>2026-09-02T09:05:57Z</time>
      </trkpt>
      <trkpt lat="44.68659" lon="7.09631">
        <ele>2290.2</ele>
        <time>2026-09-02T09:06:03Z</time>
      </trkpt>
      <trkpt lat="44.68658" lon="7.0963">
        <ele>2290</ele>
        <time>2026-09-02T09:06:08Z</time>
      </trkpt>
      <trkpt lat="44.68658" lon="7.09624">
        <ele>2290.4</ele>
        <time>2026-09-02T09:06:13Z</time>
      </trkpt>
      <trkpt lat="44.68659" lon="7.0962">
        <ele>2290.9</ele>
        <time>2026-09-02T09:06:19Z</time>
      </trkpt>
      <trkpt lat="44.6866" lon="7.09617">
        <ele>2291.3</ele>
        <time>2026-09-02T09:06:24Z</time>
      </trkpt>
      <trkpt lat="44.68659" lon="7.09612">
        <ele>2291.4</ele>
        <time>2026-09-02T09:06:29Z</time>
      </trkpt>
      <trkpt lat="44.68659" lon="7.0961">
        <ele>2291.5</ele>
        <time>2026-09-02T09:06:35Z</time>
      </trkpt>
      <trkpt lat="44.68658" lon="7.09609">
        <ele>2291.4</ele>
        <time>2026-09-02T09:06:40Z</time>
      </trkpt>
      <trkpt lat="44.68658" lon="7.09609">
        <ele>2291.4</ele>
        <time>2026-09-02T09:06:45Z</time>
      </trkpt>
      <trkpt lat="44.68658" lon="7.09609">
        <ele>2291.4</ele>
        <time>2026-09-02T09:06:51Z</time>
      </trkpt>
      <trkpt lat="44.68658" lon="7.09609">
        <ele>2291.4</ele>
        <time>2026-09-02T09:06:56Z</time>
      </trkpt>
      <trkpt lat="44.68658" lon="7.09609">
        <ele>2291.4</ele>
        <time>2026-09-02T09:07:01Z</time>
      </trkpt>
      <trkpt lat="44.68658" lon="7.09609">
        <ele>2291.4</ele>
        <time>2026-09-02T09:07:07Z</time>
      </trkpt>
      <trkpt lat="44.68658" lon="7.09609">
        <ele>2291.4</ele>
        <time>2026-09-02T09:07:12Z</time>
      </trkpt>
      <trkpt lat="44.68658" lon="7.09609">
        <ele>2291.4</ele>
        <time>2026-09-02T09:07:17Z</time>
      </trkpt>
      <trkpt lat="44.68658" lon="7.09609">
        <ele>2291.4</ele>
        <time>2026-09-02T09:07:23Z</time>
      </trkpt>
      <trkpt lat="44.68658" lon="7.09609">
        <ele>2291.4</ele>
        <time>2026-09-02T09:07:28Z</time>
      </trkpt>
      <trkpt lat="44.68658" lon="7.09609">
        <ele>2291.4</ele>
        <time>2026-09-02T09:07:33Z</time>
      </trkpt>
      <trkpt lat="44.68658" lon="7.09609">
        <ele>2291.4</ele>
        <time>2026-09-02T09:07:39Z</time>
      </trkpt>
      <trkpt lat="44.68658" lon="7.09609">
        <ele>2291.4</ele>
        <time>2026-09-02T09:07:44Z</time>
      </trkpt>
      <trkpt lat="44.68658" lon="7.09609">
        <ele>2291.4</ele>
        <time>2026-09-02T09:07:49Z</time>
      </trkpt>
      <trkpt lat="44.68658" lon="7.09609">
        <ele>2291.4</ele>
        <time>2026-09-02T09:07:55Z</time>
      </trkpt>
      <trkpt lat="44.68658" lon="7.09609">
        <ele>2291.4</ele>
        <time>2026-09-02T09:08:00Z</time>
      </trkpt>
      <trkpt lat="44.68658" lon="7.09609">
        <ele>2291.4</ele>
        <time>2026-09-02T09:08:05Z</time>
      </trkpt>
      <trkpt lat="44.68658" lon="7.09609">
        <ele>2291.4</ele>
        <time>2026-09-02T09:08:11Z</time>
      </trkpt>
      <trkpt lat="44.68658" lon="7.09609">
        <ele>2291.4</ele>
        <time>2026-09-02T09:08:16Z</time>
      </trkpt>
      <trkpt lat="44.68658" lon="7.09609">
        <ele>2291.4</ele>
        <time>2026-09-02T09:08:21Z</time>
      </trkpt>
      <trkpt lat="44.68658" lon="7.09609">
        <ele>2291.4</ele>
        <time>2026-09-02T09:08:27Z</time>
      </trkpt>
      <trkpt lat="44.68664" lon="7.09608">
        <ele>2292.9</ele>
        <time>2026-09-02T09:08:32Z</time>
      </trkpt>
      <trkpt lat="44.68668" lon="7.09609">
        <ele>2294</ele>
        <time>2026-09-02T09:08:37Z</time>
      </trkpt>
      <trkpt lat="44.6867" lon="7.09609">
        <ele>2294.7</ele>
        <time>2026-09-02T09:08:43Z</time>
      </trkpt>
      <trkpt lat="44.68672" lon="7.09608">
        <ele>2295.6</ele>
        <time>2026-09-02T09:08:48Z</time>
      </trkpt>
      <trkpt lat="44.68671" lon="7.09604">
        <ele>2295.5</ele>
        <time>2026-09-02T09:08:53Z</time>
      </trkpt>
      <trkpt lat="44.68665" lon="7.096">
        <ele>2293.6</ele>
        <time>2026-09-02T09:08:59Z</time>
      </trkpt>
      <trkpt lat="44.68663" lon="7.09595">
        <ele>2293.4</ele>
        <time>2026-09-02T09:09:04Z</time>
      </trkpt>
      <trkpt lat="44.68663" lon="7.0959">
        <ele>2293.7</ele>
        <time>2026-09-02T09:09:09Z</time>
      </trkpt>
      <trkpt lat="44.68662" lon="7.09585">
        <ele>2293.8</ele>
        <time>2026-09-02T09:09:15Z</time>
      </trkpt>
      <trkpt lat="44.68664" lon="7.09583">
        <ele>2294.4</ele>
        <time>2026-09-02T09:09:20Z</time>
      </trkpt>
      <trkpt lat="44.68667" lon="7.09584">
        <ele>2295.1</ele>
        <time>2026-09-02T09:09:25Z</time>
      </trkpt>
      <trkpt lat="44.68669" lon="7.09587">
        <ele>2295.7</ele>
        <time>2026-09-02T09:09:31Z</time>
      </trkpt>
      <trkpt lat="44.6867" lon="7.09586">
        <ele>2296.2</ele>
        <time>2026-09-02T09:09:36Z</time>
      </trkpt>
      <trkpt lat="44.68672" lon="7.09588">
        <ele>2296.9</ele>
        <time>2026-09-02T09:09:41Z</time>
      </trkpt>
      <trkpt lat="44.68675" lon="7.0959">
        <ele>2298</ele>
        <time>2026-09-02T09:09:47Z</time>
      </trkpt>
      <trkpt lat="44.68678" lon="7.09592">
        <ele>2299</ele>
        <time>2026-09-02T09:09:52Z</time>
      </trkpt>
      <trkpt lat="44.6868" lon="7.09595">
        <ele>2299.6</ele>
        <time>2026-09-02T09:09:57Z</time>
      </trkpt>
      <trkpt lat="44.68682" lon="7.09593">
        <ele>2300.5</ele>
        <time>2026-09-02T09:10:03Z</time>
      </trkpt>
      <trkpt lat="44.68682" lon="7.09591">
        <ele>2300.7</ele>
        <time>2026-09-02T09:10:08Z</time>
      </trkpt>
      <trkpt lat="44.68682" lon="7.09591">
        <ele>2300.7</ele>
        <time>2026-09-02T09:10:13Z</time>
      </trkpt>
      <trkpt lat="44.68682" lon="7.09591">
        <ele>2300.7</ele>
        <time>2026-09-02T09:10:19Z</time>
      </trkpt>
      <trkpt lat="44.68682" lon="7.09591">
        <ele>2300.7</ele>
        <time>2026-09-02T09:10:24Z</time>
      </trkpt>
      <trkpt lat="44.68682" lon="7.09591">
        <ele>2300.7</ele>
        <time>2026-09-02T09:10:29Z</time>
      </trkpt>
      <trkpt lat="44.68682" lon="7.09591">
        <ele>2300.7</ele>
        <time>2026-09-02T09:10:35Z</time>
      </trkpt>
      <trkpt lat="44.68682" lon="7.09591">
        <ele>2300.7</ele>
        <time>2026-09-02T09:10:40Z</time>
      </trkpt>
      <trkpt lat="44.68682" lon="7.09588">
        <ele>2300.9</ele>
        <time>2026-09-02T09:10:45Z</time>
      </trkpt>
      <trkpt lat="44.68681" lon="7.09581">
        <ele>2301.1</ele>
        <time>2026-09-02T09:10:51Z</time>
      </trkpt>
      <trkpt lat="44.6868" lon="7.09576">
        <ele>2301.4</ele>
        <time>2026-09-02T09:10:56Z</time>
      </trkpt>
      <trkpt lat="44.68681" lon="7.09572">
        <ele>2302.3</ele>
        <time>2026-09-02T09:11:01Z</time>
      </trkpt>
      <trkpt lat="44.68684" lon="7.09566">
        <ele>2304.3</ele>
        <time>2026-09-02T09:11:07Z</time>
      </trkpt>
      <trkpt lat="44.68688" lon="7.09561">
        <ele>2306.5</ele>
        <time>2026-09-02T09:11:12Z</time>
      </trkpt>
      <trkpt lat="44.68693" lon="7.09557">
        <ele>2309</ele>
        <time>2026-09-02T09:11:17Z</time>
      </trkpt>
      <trkpt lat="44.68698" lon="7.09549">
        <ele>2312</ele>
        <time>2026-09-02T09:11:23Z</time>
      </trkpt>
      <trkpt lat="44.68701" lon="7.09544">
        <ele>2313.8</ele>
        <time>2026-09-02T09:11:28Z</time>
      </trkpt>
      <trkpt lat="44.68704" lon="7.0954">
        <ele>2315.5</ele>
        <time>2026-09-02T09:11:33Z</time>
      </trkpt>
      <trkpt lat="44.68706" lon="7.09535">
        <ele>2316.9</ele>
        <time>2026-09-02T09:11:39Z</time>
      </trkpt>
      <trkpt lat="44.68707" lon="7.09529">
        <ele>2318</ele>
        <time>2026-09-02T09:11:44Z</time>
      </trkpt>
      <trkpt lat="44.68708" lon="7.09525">
        <ele>2318.9</ele>
        <time>2026-09-02T09:11:49Z</time>
      </trkpt>
      <trkpt lat="44.68708" lon="7.09525">
        <ele>2318.9</ele>
        <time>2026-09-02T09:11:55Z</time>
      </trkpt>
      <trkpt lat="44.68708" lon="7.09525">
        <ele>2318.9</ele>
        <time>2026-09-02T09:12:00Z</time>
      </trkpt>
      <trkpt lat="44.68709" lon="7.09522">
        <ele>2319.6</ele>
        <time>2026-09-02T09:12:05Z</time>
      </trkpt>
      <trkpt lat="44.68709" lon="7.09518">
        <ele>2320.1</ele>
        <time>2026-09-02T09:12:11Z</time>
      </trkpt>
      <trkpt lat="44.6871" lon="7.09514">
        <ele>2321</ele>
        <time>2026-09-02T09:12:16Z</time>
      </trkpt>
      <trkpt lat="44.68712" lon="7.09513">
        <ele>2321.9</ele>
        <time>2026-09-02T09:12:21Z</time>
      </trkpt>
      <trkpt lat="44.68715" lon="7.09516">
        <ele>2322.7</ele>
        <time>2026-09-02T09:12:27Z</time>
      </trkpt>
      <trkpt lat="44.68717" lon="7.09515">
        <ele>2323.6</ele>
        <time>2026-09-02T09:12:32Z</time>
      </trkpt>
      <trkpt lat="44.68718" lon="7.09513">
        <ele>2324.2</ele>
        <time>2026-09-02T09:12:37Z</time>
      </trkpt>
      <trkpt lat="44.6872" lon="7.09511">
        <ele>2325.2</ele>
        <time>2026-09-02T09:12:43Z</time>
      </trkpt>
      <trkpt lat="44.68722" lon="7.09508">
        <ele>2326.3</ele>
        <time>2026-09-02T09:12:48Z</time>
      </trkpt>
      <trkpt lat="44.68724" lon="7.09505">
        <ele>2327.4</ele>
        <time>2026-09-02T09:12:53Z</time>
      </trkpt>
      <trkpt lat="44.68728" lon="7.09501">
        <ele>2329.4</ele>
        <time>2026-09-02T09:12:59Z</time>
      </trkpt>
      <trkpt lat="44.6873" lon="7.09499">
        <ele>2330.6</ele>
        <time>2026-09-02T09:13:04Z</time>
      </trkpt>
      <trkpt lat="44.68731" lon="7.09498">
        <ele>2331.2</ele>
        <time>2026-09-02T09:13:09Z</time>
      </trkpt>
      <trkpt lat="44.68731" lon="7.09497">
        <ele>2331.5</ele>
        <time>2026-09-02T09:13:15Z</time>
      </trkpt>
      <trkpt lat="44.68732" lon="7.09494">
        <ele>2332.6</ele>
        <time>2026-09-02T09:13:20Z</time>
      </trkpt>
      <trkpt lat="44.68732" lon="7.0949">
        <ele>2333.7</ele>
        <time>2026-09-02T09:13:25Z</time>
      </trkpt>
      <trkpt lat="44.68733" lon="7.09485">
        <ele>2335.3</ele>
        <time>2026-09-02T09:13:31Z</time>
      </trkpt>
      <trkpt lat="44.68734" lon="7.09484">
        <ele>2335.9</ele>
        <time>2026-09-02T09:13:36Z</time>
      </trkpt>
      <trkpt lat="44.68735" lon="7.09482">
        <ele>2336.8</ele>
        <time>2026-09-02T09:13:41Z</time>
      </trkpt>
      <trkpt lat="44.68735" lon="7.09482">
        <ele>2336.8</ele>
        <time>2026-09-02T09:13:47Z</time>
      </trkpt>
      <trkpt lat="44.68735" lon="7.09482">
        <ele>2336.8</ele>
        <time>2026-09-02T09:13:52Z</time>
      </trkpt>
      <trkpt lat="44.68735" lon="7.09482">
        <ele>2336.8</ele>
        <time>2026-09-02T09:13:57Z</time>
      </trkpt>
      <trkpt lat="44.68734" lon="7.0948">
        <ele>2336.9</ele>
        <time>2026-09-02T09:14:03Z</time>
      </trkpt>
      <trkpt lat="44.68735" lon="7.09472">
        <ele>2339.3</ele>
        <time>2026-09-02T09:14:08Z</time>
      </trkpt>
      <trkpt lat="44.68735" lon="7.09465">
        <ele>2341.1</ele>
        <time>2026-09-02T09:14:13Z</time>
      </trkpt>
      <trkpt lat="44.68736" lon="7.09459">
        <ele>2342.9</ele>
        <time>2026-09-02T09:14:19Z</time>
      </trkpt>
      <trkpt lat="44.68737" lon="7.09456">
        <ele>2343.9</ele>
        <time>2026-09-02T09:14:24Z</time>
      </trkpt>
      <trkpt lat="44.68736" lon="7.09451">
        <ele>2344.9</ele>
        <time>2026-09-02T09:14:29Z</time>
      </trkpt>
      <trkpt lat="44.68736" lon="7.09446">
        <ele>2346.1</ele>
        <time>2026-09-02T09:14:35Z</time>
      </trkpt>
      <trkpt lat="44.68737" lon="7.09443">
        <ele>2347.2</ele>
        <time>2026-09-02T09:14:40Z</time>
      </trkpt>
      <trkpt lat="44.68737" lon="7.09442">
        <ele>2347.4</ele>
        <time>2026-09-02T09:14:45Z</time>
      </trkpt>
      <trkpt lat="44.68737" lon="7.09442">
        <ele>2347.4</ele>
        <time>2026-09-02T09:14:51Z</time>
      </trkpt>
      <trkpt lat="44.68736" lon="7.09438">
        <ele>2348.1</ele>
        <time>2026-09-02T09:14:56Z</time>
      </trkpt>
      <trkpt lat="44.68738" lon="7.09434">
        <ele>2349.7</ele>
        <time>2026-09-02T09:15:01Z</time>
      </trkpt>
      <trkpt lat="44.68738" lon="7.09432">
        <ele>2350.2</ele>
        <time>2026-09-02T09:15:07Z</time>
      </trkpt>
      <trkpt lat="44.68739" lon="7.09428">
        <ele>2351.4</ele>
        <time>2026-09-02T09:15:12Z</time>
      </trkpt>
      <trkpt lat="44.68742" lon="7.09425">
        <ele>2353</ele>
        <time>2026-09-02T09:15:17Z</time>
      </trkpt>
      <trkpt lat="44.68739" lon="7.09424">
        <ele>2352.4</ele>
        <time>2026-09-02T09:15:23Z</time>
      </trkpt>
      <trkpt lat="44.68737" lon="7.09426">
        <ele>2351.4</ele>
        <time>2026-09-02T09:15:28Z</time>
      </trkpt>
      <trkpt lat="44.68736" lon="7.09427">
        <ele>2350.9</ele>
        <time>2026-09-02T09:15:33Z</time>
      </trkpt>
      <trkpt lat="44.68733" lon="7.09426">
        <ele>2350.3</ele>
        <time>2026-09-02T09:15:39Z</time>
      </trkpt>
      <trkpt lat="44.68733" lon="7.09423">
        <ele>2351.1</ele>
        <time>2026-09-02T09:15:44Z</time>
      </trkpt>
      <trkpt lat="44.68733" lon="7.09419">
        <ele>2352.1</ele>
        <time>2026-09-02T09:15:49Z</time>
      </trkpt>
      <trkpt lat="44.68732" lon="7.09415">
        <ele>2352.8</ele>
        <time>2026-09-02T09:15:55Z</time>
      </trkpt>
      <trkpt lat="44.68731" lon="7.09413">
        <ele>2353</ele>
        <time>2026-09-02T09:16:00Z</time>
      </trkpt>
      <trkpt lat="44.68732" lon="7.09412">
        <ele>2353.5</ele>
        <time>2026-09-02T09:16:05Z</time>
      </trkpt>
      <trkpt lat="44.68729" lon="7.09408">
        <ele>2353.6</ele>
        <time>2026-09-02T09:16:11Z</time>
      </trkpt>
      <trkpt lat="44.68726" lon="7.09403">
        <ele>2354.1</ele>
        <time>2026-09-02T09:16:16Z</time>
      </trkpt>
      <trkpt lat="44.68722" lon="7.09399">
        <ele>2354.1</ele>
        <time>2026-09-02T09:16:21Z</time>
      </trkpt>
      <trkpt lat="44.68716" lon="7.09393">
        <ele>2354.3</ele>
        <time>2026-09-02T09:16:27Z</time>
      </trkpt>
      <trkpt lat="44.68713" lon="7.09388">
        <ele>2355</ele>
        <time>2026-09-02T09:16:32Z</time>
      </trkpt>
      <trkpt lat="44.68708" lon="7.09383">
        <ele>2355.3</ele>
        <time>2026-09-02T09:16:37Z</time>
      </trkpt>
      <trkpt lat="44.68702" lon="7.09376">
        <ele>2356.2</ele>
        <time>2026-09-02T09:16:43Z</time>
      </trkpt>
      <trkpt lat="44.687" lon="7.09368">
        <ele>2358.1</ele>
        <time>2026-09-02T09:16:48Z</time>
      </trkpt>
      <trkpt lat="44.687" lon="7.09361">
        <ele>2360</ele>
        <time>2026-09-02T09:16:53Z</time>
      </trkpt>
      <trkpt lat="44.687" lon="7.09351">
        <ele>2362.8</ele>
        <time>2026-09-02T09:16:59Z</time>
      </trkpt>
      <trkpt lat="44.68701" lon="7.09341">
        <ele>2365.7</ele>
        <time>2026-09-02T09:17:04Z</time>
      </trkpt>
      <trkpt lat="44.68705" lon="7.09332">
        <ele>2368.2</ele>
        <time>2026-09-02T09:17:09Z</time>
      </trkpt>
      <trkpt lat="44.6871" lon="7.09324">
        <ele>2368.6</ele>
        <time>2026-09-02T09:17:15Z</time>
      </trkpt>
      <trkpt lat="44.68714" lon="7.09318">
        <ele>2368.9</ele>
        <time>2026-09-02T09:17:20Z</time>
      </trkpt>
      <trkpt lat="44.68718" lon="7.09313">
        <ele>2369.2</ele>
        <time>2026-09-02T09:17:25Z</time>
      </trkpt>
      <trkpt lat="44.68721" lon="7.09309">
        <ele>2369.4</ele>
        <time>2026-09-02T09:17:31Z</time>
      </trkpt>
      <trkpt lat="44.68724" lon="7.09304">
        <ele>2369.6</ele>
        <time>2026-09-02T09:17:36Z</time>
      </trkpt>
      <trkpt lat="44.68728" lon="7.093">
        <ele>2369.9</ele>
        <time>2026-09-02T09:17:41Z</time>
      </trkpt>
      <trkpt lat="44.68734" lon="7.09291">
        <ele>2370.2</ele>
        <time>2026-09-02T09:17:47Z</time>
      </trkpt>
      <trkpt lat="44.68736" lon="7.09284">
        <ele>2370.3</ele>
        <time>2026-09-02T09:17:52Z</time>
      </trkpt>
      <trkpt lat="44.6874" lon="7.09278">
        <ele>2370.6</ele>
        <time>2026-09-02T09:17:57Z</time>
      </trkpt>
      <trkpt lat="44.68744" lon="7.09268">
        <ele>2370.8</ele>
        <time>2026-09-02T09:18:03Z</time>
      </trkpt>
      <trkpt lat="44.68746" lon="7.09262">
        <ele>2370.8</ele>
        <time>2026-09-02T09:18:08Z</time>
      </trkpt>
      <trkpt lat="44.68746" lon="7.09258">
        <ele>2370.8</ele>
        <time>2026-09-02T09:18:13Z</time>
      </trkpt>
      <trkpt lat="44.68745" lon="7.0925">
        <ele>2370.6</ele>
        <time>2026-09-02T09:18:19Z</time>
      </trkpt>
      <trkpt lat="44.68745" lon="7.09242">
        <ele>2370.5</ele>
        <time>2026-09-02T09:18:24Z</time>
      </trkpt>
      <trkpt lat="44.68744" lon="7.09239">
        <ele>2370.4</ele>
        <time>2026-09-02T09:18:29Z</time>
      </trkpt>
      <trkpt lat="44.68744" lon="7.09239">
        <ele>2370.4</ele>
        <time>2026-09-02T09:18:35Z</time>
      </trkpt>
      <trkpt lat="44.68747" lon="7.09236">
        <ele>2370.6</ele>
        <time>2026-09-02T09:18:40Z</time>
      </trkpt>
      <trkpt lat="44.68747" lon="7.09226">
        <ele>2370.5</ele>
        <time>2026-09-02T09:18:45Z</time>
      </trkpt>
      <trkpt lat="44.68748" lon="7.09215">
        <ele>2370.4</ele>
        <time>2026-09-02T09:18:51Z</time>
      </trkpt>
      <trkpt lat="44.68747" lon="7.09207">
        <ele>2370.3</ele>
        <time>2026-09-02T09:18:56Z</time>
      </trkpt>
      <trkpt lat="44.68747" lon="7.09198">
        <ele>2370.2</ele>
        <time>2026-09-02T09:19:01Z</time>
      </trkpt>
      <trkpt lat="44.68747" lon="7.0919">
        <ele>2370.1</ele>
        <time>2026-09-02T09:19:07Z</time>
      </trkpt>
      <trkpt lat="44.68748" lon="7.09183">
        <ele>2370.1</ele>
        <time>2026-09-02T09:19:12Z</time>
      </trkpt>
      <trkpt lat="44.6875" lon="7.09178">
        <ele>2370.1</ele>
        <time>2026-09-02T09:19:17Z</time>
      </trkpt>
      <trkpt lat="44.68751" lon="7.09175">
        <ele>2370.2</ele>
        <time>2026-09-02T09:19:23Z</time>
      </trkpt>
      <trkpt lat="44.68751" lon="7.09169">
        <ele>2370.1</ele>
        <time>2026-09-02T09:19:28Z</time>
      </trkpt>
      <trkpt lat="44.68753" lon="7.09165">
        <ele>2370.4</ele>
        <time>2026-09-02T09:19:33Z</time>
      </trkpt>
      <trkpt lat="44.68754" lon="7.09159">
        <ele>2371.1</ele>
        <time>2026-09-02T09:19:39Z</time>
      </trkpt>
      <trkpt lat="44.68755" lon="7.09157">
        <ele>2371.3</ele>
        <time>2026-09-02T09:19:44Z</time>
      </trkpt>
      <trkpt lat="44.68757" lon="7.09155">
        <ele>2371.7</ele>
        <time>2026-09-02T09:19:49Z</time>
      </trkpt>
      <trkpt lat="44.68756" lon="7.0915">
        <ele>2372.2</ele>
        <time>2026-09-02T09:19:55Z</time>
      </trkpt>
      <trkpt lat="44.68758" lon="7.09146">
        <ele>2372.7</ele>
        <time>2026-09-02T09:20:00Z</time>
      </trkpt>
      <trkpt lat="44.68759" lon="7.09145">
        <ele>2372.9</ele>
        <time>2026-09-02T09:20:05Z</time>
      </trkpt>
      <trkpt lat="44.6876" lon="7.09145">
        <ele>2372.9</ele>
        <time>2026-09-02T09:20:11Z</time>
      </trkpt>
      <trkpt lat="44.6876" lon="7.09145">
        <ele>2372.9</ele>
        <time>2026-09-02T09:20:16Z</time>
      </trkpt>
      <trkpt lat="44.6876" lon="7.09145">
        <ele>2372.9</ele>
        <time>2026-09-02T09:20:21Z</time>
      </trkpt>
      <trkpt lat="44.6876" lon="7.09145">
        <ele>2372.9</ele>
        <time>2026-09-02T09:20:27Z</time>
      </trkpt>
      <trkpt lat="44.6876" lon="7.09145">
        <ele>2372.9</ele>
        <time>2026-09-02T09:20:32Z</time>
      </trkpt>
      <trkpt lat="44.6876" lon="7.09145">
        <ele>2372.9</ele>
        <time>2026-09-02T09:20:37Z</time>
      </trkpt>
      <trkpt lat="44.6876" lon="7.09145">
        <ele>2372.9</ele>
        <time>2026-09-02T09:20:43Z</time>
      </trkpt>
      <trkpt lat="44.6876" lon="7.09145">
        <ele>2372.9</ele>
        <time>2026-09-02T09:20:48Z</time>
      </trkpt>
      <trkpt lat="44.6876" lon="7.09145">
        <ele>2372.9</ele>
        <time>2026-09-02T09:20:53Z</time>
      </trkpt>
      <trkpt lat="44.6876" lon="7.09145">
        <ele>2372.9</ele>
        <time>2026-09-02T09:20:59Z</time>
      </trkpt>
      <trkpt lat="44.68759" lon="7.09136">
        <ele>2373.9</ele>
        <time>2026-09-02T09:21:04Z</time>
      </trkpt>
      <trkpt lat="44.68762" lon="7.09129">
        <ele>2374.8</ele>
        <time>2026-09-02T09:21:09Z</time>
      </trkpt>
      <trkpt lat="44.68764" lon="7.09122">
        <ele>2375.7</ele>
        <time>2026-09-02T09:21:15Z</time>
      </trkpt>
      <trkpt lat="44.68766" lon="7.09115">
        <ele>2376.5</ele>
        <time>2026-09-02T09:21:20Z</time>
      </trkpt>
      <trkpt lat="44.68766" lon="7.09109">
        <ele>2377.2</ele>
        <time>2026-09-02T09:21:25Z</time>
      </trkpt>
      <trkpt lat="44.68769" lon="7.09103">
        <ele>2378</ele>
        <time>2026-09-02T09:21:31Z</time>
      </trkpt>
      <trkpt lat="44.68773" lon="7.09104">
        <ele>2378.1</ele>
        <time>2026-09-02T09:21:36Z</time>
      </trkpt>
      <trkpt lat="44.68778" lon="7.09103">
        <ele>2378.6</ele>
        <time>2026-09-02T09:21:41Z</time>
      </trkpt>
      <trkpt lat="44.68785" lon="7.09103">
        <ele>2379</ele>
        <time>2026-09-02T09:21:47Z</time>
      </trkpt>
      <trkpt lat="44.68786" lon="7.09102">
        <ele>2379.1</ele>
        <time>2026-09-02T09:21:52Z</time>
      </trkpt>
      <trkpt lat="44.68787" lon="7.09102">
        <ele>2379.2</ele>
        <time>2026-09-02T09:21:57Z</time>
      </trkpt>
      <trkpt lat="44.68789" lon="7.09099">
        <ele>2379.6</ele>
        <time>2026-09-02T09:22:03Z</time>
      </trkpt>
      <trkpt lat="44.68791" lon="7.09098">
        <ele>2379.9</ele>
        <time>2026-09-02T09:22:08Z</time>
      </trkpt>
      <trkpt lat="44.68796" lon="7.09099">
        <ele>2380.1</ele>
        <time>2026-09-02T09:22:13Z</time>
      </trkpt>
      <trkpt lat="44.68801" lon="7.09099">
        <ele>2380.4</ele>
        <time>2026-09-02T09:22:19Z</time>
      </trkpt>
      <trkpt lat="44.68802" lon="7.09097">
        <ele>2380.6</ele>
        <time>2026-09-02T09:22:24Z</time>
      </trkpt>
      <trkpt lat="44.68802" lon="7.09095">
        <ele>2380.9</ele>
        <time>2026-09-02T09:22:29Z</time>
      </trkpt>
      <trkpt lat="44.68802" lon="7.09095">
        <ele>2380.9</ele>
        <time>2026-09-02T09:22:35Z</time>
      </trkpt>
      <trkpt lat="44.68802" lon="7.09095">
        <ele>2380.9</ele>
        <time>2026-09-02T09:22:40Z</time>
      </trkpt>
      <trkpt lat="44.68802" lon="7.09095">
        <ele>2380.9</ele>
        <time>2026-09-02T09:22:45Z</time>
      </trkpt>
      <trkpt lat="44.68802" lon="7.09095">
        <ele>2380.9</ele>
        <time>2026-09-02T09:22:51Z</time>
      </trkpt>
      <trkpt lat="44.68802" lon="7.09095">
        <ele>2380.9</ele>
        <time>2026-09-02T09:22:56Z</time>
      </trkpt>
      <trkpt lat="44.68802" lon="7.09095">
        <ele>2380.9</ele>
        <time>2026-09-02T09:23:01Z</time>
      </trkpt>
      <trkpt lat="44.68802" lon="7.09095">
        <ele>2380.9</ele>
        <time>2026-09-02T09:23:07Z</time>
      </trkpt>
      <trkpt lat="44.68802" lon="7.09095">
        <ele>2380.9</ele>
        <time>2026-09-02T09:23:12Z</time>
      </trkpt>
      <trkpt lat="44.68802" lon="7.09096">
        <ele>2380.8</ele>
        <time>2026-09-02T09:23:17Z</time>
      </trkpt>
      <trkpt lat="44.68812" lon="7.09099">
        <ele>2381</ele>
        <time>2026-09-02T09:23:23Z</time>
      </trkpt>
      <trkpt lat="44.68818" lon="7.09098">
        <ele>2381.5</ele>
        <time>2026-09-02T09:23:28Z</time>
      </trkpt>
      <trkpt lat="44.68821" lon="7.09095">
        <ele>2382</ele>
        <time>2026-09-02T09:23:33Z</time>
      </trkpt>
      <trkpt lat="44.68827" lon="7.09091">
        <ele>2382.8</ele>
        <time>2026-09-02T09:23:39Z</time>
      </trkpt>
      <trkpt lat="44.68829" lon="7.09084">
        <ele>2383.7</ele>
        <time>2026-09-02T09:23:44Z</time>
      </trkpt>
      <trkpt lat="44.68832" lon="7.09077">
        <ele>2385.4</ele>
        <time>2026-09-02T09:23:49Z</time>
      </trkpt>
      <trkpt lat="44.68838" lon="7.09071">
        <ele>2387.5</ele>
        <time>2026-09-02T09:23:55Z</time>
      </trkpt>
      <trkpt lat="44.68841" lon="7.09067">
        <ele>2388.8</ele>
        <time>2026-09-02T09:24:00Z</time>
      </trkpt>
      <trkpt lat="44.68847" lon="7.09068">
        <ele>2389.4</ele>
        <time>2026-09-02T09:24:05Z</time>
      </trkpt>
      <trkpt lat="44.68852" lon="7.09062">
        <ele>2391.2</ele>
        <time>2026-09-02T09:24:11Z</time>
      </trkpt>
      <trkpt lat="44.68856" lon="7.09055">
        <ele>2392.9</ele>
        <time>2026-09-02T09:24:16Z</time>
      </trkpt>
      <trkpt lat="44.6886" lon="7.09048">
        <ele>2394.4</ele>
        <time>2026-09-02T09:24:21Z</time>
      </trkpt>
      <trkpt lat="44.68863" lon="7.0904">
        <ele>2395.9</ele>
        <time>2026-09-02T09:24:27Z</time>
      </trkpt>
      <trkpt lat="44.68865" lon="7.09032">
        <ele>2397.2</ele>
        <time>2026-09-02T09:24:32Z</time>
      </trkpt>
      <trkpt lat="44.6887" lon="7.09029">
        <ele>2397.8</ele>
        <time>2026-09-02T09:24:37Z</time>
      </trkpt>
      <trkpt lat="44.68873" lon="7.09024">
        <ele>2398.6</ele>
        <time>2026-09-02T09:24:43Z</time>
      </trkpt>
      <trkpt lat="44.68878" lon="7.0902">
        <ele>2399.1</ele>
        <time>2026-09-02T09:24:48Z</time>
      </trkpt>
      <trkpt lat="44.68882" lon="7.09017">
        <ele>2399.5</ele>
        <time>2026-09-02T09:24:53Z</time>
      </trkpt>
      <trkpt lat="44.68887" lon="7.09018">
        <ele>2399.5</ele>
        <time>2026-09-02T09:24:59Z</time>
      </trkpt>
      <trkpt lat="44.68888" lon="7.09017">
        <ele>2399.6</ele>
        <time>2026-09-02T09:25:04Z</time>
      </trkpt>
      <trkpt lat="44.68888" lon="7.09017">
        <ele>2399.6</ele>
        <time>2026-09-02T09:25:09Z</time>
      </trkpt>
      <trkpt lat="44.68893" lon="7.09018">
        <ele>2399.5</ele>
        <time>2026-09-02T09:25:15Z</time>
      </trkpt>
      <trkpt lat="44.68898" lon="7.09013">
        <ele>2399.9</ele>
        <time>2026-09-02T09:25:20Z</time>
      </trkpt>
      <trkpt lat="44.68904" lon="7.09009">
        <ele>2400.1</ele>
        <time>2026-09-02T09:25:25Z</time>
      </trkpt>
      <trkpt lat="44.68909" lon="7.09007">
        <ele>2400.1</ele>
        <time>2026-09-02T09:25:31Z</time>
      </trkpt>
      <trkpt lat="44.6891" lon="7.09004">
        <ele>2400.1</ele>
        <time>2026-09-02T09:25:36Z</time>
      </trkpt>
      <trkpt lat="44.6891" lon="7.09004">
        <ele>2400.1</ele>
        <time>2026-09-02T09:25:41Z</time>
      </trkpt>
      <trkpt lat="44.68913" lon="7.08999">
        <ele>2400.5</ele>
        <time>2026-09-02T09:25:47Z</time>
      </trkpt>
      <trkpt lat="44.68919" lon="7.08993">
        <ele>2402</ele>
        <time>2026-09-02T09:25:52Z</time>
      </trkpt>
      <trkpt lat="44.68925" lon="7.08996">
        <ele>2399.6</ele>
        <time>2026-09-02T09:25:57Z</time>
      </trkpt>
      <trkpt lat="44.6893" lon="7.08991">
        <ele>2400</ele>
        <time>2026-09-02T09:26:03Z</time>
      </trkpt>
      <trkpt lat="44.68936" lon="7.08987">
        <ele>2399.6</ele>
        <time>2026-09-02T09:26:08Z</time>
      </trkpt>
      <trkpt lat="44.68942" lon="7.08982">
        <ele>2399.3</ele>
        <time>2026-09-02T09:26:13Z</time>
      </trkpt>
      <trkpt lat="44.68948" lon="7.08977">
        <ele>2398.7</ele>
        <time>2026-09-02T09:26:19Z</time>
      </trkpt>
      <trkpt lat="44.6895" lon="7.08973">
        <ele>2398.9</ele>
        <time>2026-09-02T09:26:24Z</time>
      </trkpt>
      <trkpt lat="44.6895" lon="7.08969">
        <ele>2399.7</ele>
        <time>2026-09-02T09:26:29Z</time>
      </trkpt>
      <trkpt lat="44.68952" lon="7.08963">
        <ele>2400.3</ele>
        <time>2026-09-02T09:26:35Z</time>
      </trkpt>
      <trkpt lat="44.68954" lon="7.08962">
        <ele>2399.7</ele>
        <time>2026-09-02T09:26:40Z</time>
      </trkpt>
      <trkpt lat="44.68954" lon="7.08962">
        <ele>2399.7</ele>
        <time>2026-09-02T09:26:45Z</time>
      </trkpt>
      <trkpt lat="44.68954" lon="7.08962">
        <ele>2399.7</ele>
        <time>2026-09-02T09:26:51Z</time>
      </trkpt>
      <trkpt lat="44.68954" lon="7.08962">
        <ele>2399.7</ele>
        <time>2026-09-02T09:26:56Z</time>
      </trkpt>
      <trkpt lat="44.68954" lon="7.08962">
        <ele>2399.7</ele>
        <time>2026-09-02T09:27:01Z</time>
      </trkpt>
      <trkpt lat="44.68954" lon="7.08962">
        <ele>2399.7</ele>
        <time>2026-09-02T09:27:07Z</time>
      </trkpt>
      <trkpt lat="44.68954" lon="7.08962">
        <ele>2399.7</ele>
        <time>2026-09-02T09:27:12Z</time>
      </trkpt>
      <trkpt lat="44.68954" lon="7.08962">
        <ele>2399.7</ele>
        <time>2026-09-02T09:27:17Z</time>
      </trkpt>
      <trkpt lat="44.68954" lon="7.08962">
        <ele>2399.7</ele>
        <time>2026-09-02T09:27:23Z</time>
      </trkpt>
      <trkpt lat="44.68954" lon="7.08962">
        <ele>2399.7</ele>
        <time>2026-09-02T09:27:28Z</time>
      </trkpt>
      <trkpt lat="44.68954" lon="7.08962">
        <ele>2399.7</ele>
        <time>2026-09-02T09:27:33Z</time>
      </trkpt>
      <trkpt lat="44.68954" lon="7.08962">
        <ele>2399.7</ele>
        <time>2026-09-02T09:27:39Z</time>
      </trkpt>
      <trkpt lat="44.68958" lon="7.08956">
        <ele>2399.3</ele>
        <time>2026-09-02T09:27:44Z</time>
      </trkpt>
      <trkpt lat="44.68958" lon="7.08956">
        <ele>2399.3</ele>
        <time>2026-09-02T09:27:49Z</time>
      </trkpt>
      <trkpt lat="44.68958" lon="7.08956">
        <ele>2399.3</ele>
        <time>2026-09-02T09:27:55Z</time>
      </trkpt>
      <trkpt lat="44.6896" lon="7.08954">
        <ele>2398.8</ele>
        <time>2026-09-02T09:28:00Z</time>
      </trkpt>
      <trkpt lat="44.68962" lon="7.08953">
        <ele>2398.2</ele>
        <time>2026-09-02T09:28:05Z</time>
      </trkpt>
      <trkpt lat="44.68965" lon="7.0895">
        <ele>2397.4</ele>
        <time>2026-09-02T09:28:11Z</time>
      </trkpt>
      <trkpt lat="44.68966" lon="7.08953">
        <ele>2396.5</ele>
        <time>2026-09-02T09:28:16Z</time>
      </trkpt>
      <trkpt lat="44.68969" lon="7.08954">
        <ele>2395.1</ele>
        <time>2026-09-02T09:28:21Z</time>
      </trkpt>
      <trkpt lat="44.68971" lon="7.08953">
        <ele>2394.4</ele>
        <time>2026-09-02T09:28:27Z</time>
      </trkpt>
      <trkpt lat="44.68973" lon="7.08952">
        <ele>2393.7</ele>
        <time>2026-09-02T09:28:32Z</time>
      </trkpt>
      <trkpt lat="44.68976" lon="7.08954">
        <ele>2392.3</ele>
        <time>2026-09-02T09:28:37Z</time>
      </trkpt>
      <trkpt lat="44.68976" lon="7.08949">
        <ele>2392.7</ele>
        <time>2026-09-02T09:28:43Z</time>
      </trkpt>
      <trkpt lat="44.68974" lon="7.08945">
        <ele>2394</ele>
        <time>2026-09-02T09:28:48Z</time>
      </trkpt>
      <trkpt lat="44.6897" lon="7.08944">
        <ele>2395.9</ele>
        <time>2026-09-02T09:28:53Z</time>
      </trkpt>
      <trkpt lat="44.68969" lon="7.08941">
        <ele>2396.8</ele>
        <time>2026-09-02T09:28:59Z</time>
      </trkpt>
      <trkpt lat="44.68971" lon="7.08938">
        <ele>2396.2</ele>
        <time>2026-09-02T09:29:04Z</time>
      </trkpt>
      <trkpt lat="44.68974" lon="7.08938">
        <ele>2394.8</ele>
        <time>2026-09-02T09:29:09Z</time>
      </trkpt>
      <trkpt lat="44.68977" lon="7.08939">
        <ele>2393.2</ele>
        <time>2026-09-02T09:29:15Z</time>
      </trkpt>
      <trkpt lat="44.68979" lon="7.08935">
        <ele>2392.6</ele>
        <time>2026-09-02T09:29:20Z</time>
      </trkpt>
      <trkpt lat="44.68981" lon="7.08932">
        <ele>2391.8</ele>
        <time>2026-09-02T09:29:25Z</time>
      </trkpt>
      <trkpt lat="44.68985" lon="7.08931">
        <ele>2389.9</ele>
        <time>2026-09-02T09:29:31Z</time>
      </trkpt>
      <trkpt lat="44.68988" lon="7.08933">
        <ele>2388.2</ele>
        <time>2026-09-02T09:29:36Z</time>
      </trkpt>
      <trkpt lat="44.68989" lon="7.08932">
        <ele>2387.8</ele>
        <time>2026-09-02T09:29:41Z</time>
      </trkpt>
      <trkpt lat="44.68991" lon="7.08934">
        <ele>2386.7</ele>
        <time>2026-09-02T09:29:47Z</time>
      </trkpt>
      <trkpt lat="44.68993" lon="7.08934">
        <ele>2385.7</ele>
        <time>2026-09-02T09:29:52Z</time>
      </trkpt>
      <trkpt lat="44.68997" lon="7.08932">
        <ele>2383.7</ele>
        <time>2026-09-02T09:29:57Z</time>
      </trkpt>
      <trkpt lat="44.68999" lon="7.08932">
        <ele>2382.7</ele>
        <time>2026-09-02T09:30:03Z</time>
      </trkpt>
      <trkpt lat="44.69001" lon="7.0893">
        <ele>2381.7</ele>
        <time>2026-09-02T09:30:08Z</time>
      </trkpt>
      <trkpt lat="44.69005" lon="7.08932">
        <ele>2380.1</ele>
        <time>2026-09-02T09:30:13Z</time>
      </trkpt>
      <trkpt lat="44.6901" lon="7.08931">
        <ele>2378.1</ele>
        <time>2026-09-02T09:30:19Z</time>
      </trkpt>
      <trkpt lat="44.69014" lon="7.08929">
        <ele>2376.3</ele>
        <time>2026-09-02T09:30:24Z</time>
      </trkpt>
      <trkpt lat="44.6902" lon="7.08924">
        <ele>2373.7</ele>
        <time>2026-09-02T09:30:29Z</time>
      </trkpt>
      <trkpt lat="44.69028" lon="7.08921">
        <ele>2370.1</ele>
        <time>2026-09-02T09:30:35Z</time>
      </trkpt>
      <trkpt lat="44.69031" lon="7.08916">
        <ele>2368.7</ele>
        <time>2026-09-02T09:30:40Z</time>
      </trkpt>
      <trkpt lat="44.6903" lon="7.08914">
        <ele>2369.2</ele>
        <time>2026-09-02T09:30:45Z</time>
      </trkpt>
      <trkpt lat="44.69035" lon="7.08909">
        <ele>2367.3</ele>
        <time>2026-09-02T09:30:51Z</time>
      </trkpt>
      <trkpt lat="44.6904" lon="7.08908">
        <ele>2365.1</ele>
        <time>2026-09-02T09:30:56Z</time>
      </trkpt>
      <trkpt lat="44.69045" lon="7.08906">
        <ele>2362.9</ele>
        <time>2026-09-02T09:31:01Z</time>
      </trkpt>
      <trkpt lat="44.6905" lon="7.08897">
        <ele>2360.9</ele>
        <time>2026-09-02T09:31:07Z</time>
      </trkpt>
      <trkpt lat="44.69057" lon="7.08894">
        <ele>2357.6</ele>
        <time>2026-09-02T09:31:12Z</time>
      </trkpt>
      <trkpt lat="44.69065" lon="7.08894">
        <ele>2353.7</ele>
        <time>2026-09-02T09:31:17Z</time>
      </trkpt>
      <trkpt lat="44.69072" lon="7.0889">
        <ele>2350.3</ele>
        <time>2026-09-02T09:31:23Z</time>
      </trkpt>
      <trkpt lat="44.69076" lon="7.08886">
        <ele>2348.2</ele>
        <time>2026-09-02T09:31:28Z</time>
      </trkpt>
      <trkpt lat="44.6908" lon="7.08886">
        <ele>2346.2</ele>
        <time>2026-09-02T09:31:33Z</time>
      </trkpt>
      <trkpt lat="44.69089" lon="7.08882">
        <ele>2344</ele>
        <time>2026-09-02T09:31:39Z</time>
      </trkpt>
      <trkpt lat="44.69096" lon="7.08883">
        <ele>2343.7</ele>
        <time>2026-09-02T09:31:44Z</time>
      </trkpt>
      <trkpt lat="44.69103" lon="7.08881">
        <ele>2343.2</ele>
        <time>2026-09-02T09:31:49Z</time>
      </trkpt>
      <trkpt lat="44.69109" lon="7.0888">
        <ele>2342.9</ele>
        <time>2026-09-02T09:31:55Z</time>
      </trkpt>
      <trkpt lat="44.69109" lon="7.0888">
        <ele>2342.9</ele>
        <time>2026-09-02T09:32:00Z</time>
      </trkpt>
      <trkpt lat="44.69109" lon="7.0888">
        <ele>2342.9</ele>
        <time>2026-09-02T09:32:05Z</time>
      </trkpt>
      <trkpt lat="44.69111" lon="7.08879">
        <ele>2342.7</ele>
        <time>2026-09-02T09:32:11Z</time>
      </trkpt>
      <trkpt lat="44.69115" lon="7.08875">
        <ele>2342.3</ele>
        <time>2026-09-02T09:32:16Z</time>
      </trkpt>
      <trkpt lat="44.69117" lon="7.08874">
        <ele>2342.1</ele>
        <time>2026-09-02T09:32:21Z</time>
      </trkpt>
      <trkpt lat="44.69121" lon="7.0887">
        <ele>2341.7</ele>
        <time>2026-09-02T09:32:27Z</time>
      </trkpt>
      <trkpt lat="44.69123" lon="7.08869">
        <ele>2341.5</ele>
        <time>2026-09-02T09:32:32Z</time>
      </trkpt>
      <trkpt lat="44.69124" lon="7.08868">
        <ele>2341.4</ele>
        <time>2026-09-02T09:32:37Z</time>
      </trkpt>
      <trkpt lat="44.69124" lon="7.08869">
        <ele>2341.5</ele>
        <time>2026-09-02T09:32:43Z</time>
      </trkpt>
      <trkpt lat="44.69124" lon="7.08869">
        <ele>2341.5</ele>
        <time>2026-09-02T09:32:48Z</time>
      </trkpt>
      <trkpt lat="44.69124" lon="7.08869">
        <ele>2341.5</ele>
        <time>2026-09-02T09:32:53Z</time>
      </trkpt>
      <trkpt lat="44.69131" lon="7.08873">
        <ele>2341.3</ele>
        <time>2026-09-02T09:32:59Z</time>
      </trkpt>
      <trkpt lat="44.69135" lon="7.08872">
        <ele>2341</ele>
        <time>2026-09-02T09:33:04Z</time>
      </trkpt>
      <trkpt lat="44.69138" lon="7.08867">
        <ele>2340.6</ele>
        <time>2026-09-02T09:33:09Z</time>
      </trkpt>
      <trkpt lat="44.69142" lon="7.08864">
        <ele>2340.2</ele>
        <time>2026-09-02T09:33:15Z</time>
      </trkpt>
      <trkpt lat="44.69144" lon="7.08862">
        <ele>2340</ele>
        <time>2026-09-02T09:33:20Z</time>
      </trkpt>
      <trkpt lat="44.69145" lon="7.0886">
        <ele>2339.8</ele>
        <time>2026-09-02T09:33:25Z</time>
      </trkpt>
      <trkpt lat="44.69146" lon="7.0886">
        <ele>2339.8</ele>
        <time>2026-09-02T09:33:31Z</time>
      </trkpt>
      <trkpt lat="44.69148" lon="7.0886">
        <ele>2339.6</ele>
        <time>2026-09-02T09:33:36Z</time>
      </trkpt>
      <trkpt lat="44.6915" lon="7.08863">
        <ele>2339.7</ele>
        <time>2026-09-02T09:33:41Z</time>
      </trkpt>
      <trkpt lat="44.69154" lon="7.08866">
        <ele>2339.7</ele>
        <time>2026-09-02T09:33:47Z</time>
      </trkpt>
      <trkpt lat="44.69156" lon="7.08867">
        <ele>2339.6</ele>
        <time>2026-09-02T09:33:52Z</time>
      </trkpt>
      <trkpt lat="44.69159" lon="7.08868">
        <ele>2339.5</ele>
        <time>2026-09-02T09:33:57Z</time>
      </trkpt>
      <trkpt lat="44.69161" lon="7.08869">
        <ele>2339.5</ele>
        <time>2026-09-02T09:34:03Z</time>
      </trkpt>
      <trkpt lat="44.69164" lon="7.08865">
        <ele>2339</ele>
        <time>2026-09-02T09:34:08Z</time>
      </trkpt>
      <trkpt lat="44.69167" lon="7.08863">
        <ele>2338.8</ele>
        <time>2026-09-02T09:34:13Z</time>
      </trkpt>
      <trkpt lat="44.6917" lon="7.0886">
        <ele>2338.6</ele>
        <time>2026-09-02T09:34:19Z</time>
      </trkpt>
      <trkpt lat="44.69173" lon="7.08858">
        <ele>2338.5</ele>
        <time>2026-09-02T09:34:24Z</time>
      </trkpt>
      <trkpt lat="44.69176" lon="7.08858">
        <ele>2338.5</ele>
        <time>2026-09-02T09:34:29Z</time>
      </trkpt>
      <trkpt lat="44.69181" lon="7.08855">
        <ele>2338.3</ele>
        <time>2026-09-02T09:34:35Z</time>
      </trkpt>
      <trkpt lat="44.69184" lon="7.08852">
        <ele>2338.2</ele>
        <time>2026-09-02T09:34:40Z</time>
      </trkpt>
      <trkpt lat="44.69185" lon="7.08846">
        <ele>2337.8</ele>
        <time>2026-09-02T09:34:45Z</time>
      </trkpt>
      <trkpt lat="44.69187" lon="7.08841">
        <ele>2337.5</ele>
        <time>2026-09-02T09:34:51Z</time>
      </trkpt>
      <trkpt lat="44.69188" lon="7.0884">
        <ele>2337.4</ele>
        <time>2026-09-02T09:34:56Z</time>
      </trkpt>
      <trkpt lat="44.69188" lon="7.0884">
        <ele>2337.4</ele>
        <time>2026-09-02T09:35:01Z</time>
      </trkpt>
      <trkpt lat="44.69188" lon="7.0884">
        <ele>2337.4</ele>
        <time>2026-09-02T09:35:07Z</time>
      </trkpt>
      <trkpt lat="44.6919" lon="7.08838">
        <ele>2337.3</ele>
        <time>2026-09-02T09:35:12Z</time>
      </trkpt>
      <trkpt lat="44.69194" lon="7.08832">
        <ele>2337.1</ele>
        <time>2026-09-02T09:35:17Z</time>
      </trkpt>
      <trkpt lat="44.69199" lon="7.08827">
        <ele>2337.6</ele>
        <time>2026-09-02T09:35:23Z</time>
      </trkpt>
      <trkpt lat="44.69203" lon="7.08824">
        <ele>2337.8</ele>
        <time>2026-09-02T09:35:28Z</time>
      </trkpt>
      <trkpt lat="44.69206" lon="7.08822">
        <ele>2338</ele>
        <time>2026-09-02T09:35:33Z</time>
      </trkpt>
      <trkpt lat="44.6921" lon="7.08819">
        <ele>2338.2</ele>
        <time>2026-09-02T09:35:39Z</time>
      </trkpt>
      <trkpt lat="44.69215" lon="7.08814">
        <ele>2338.5</ele>
        <time>2026-09-02T09:35:44Z</time>
      </trkpt>
      <trkpt lat="44.69222" lon="7.08814">
        <ele>2338.5</ele>
        <time>2026-09-02T09:35:49Z</time>
      </trkpt>
      <trkpt lat="44.69228" lon="7.08812">
        <ele>2338.6</ele>
        <time>2026-09-02T09:35:55Z</time>
      </trkpt>
      <trkpt lat="44.69232" lon="7.0881">
        <ele>2338.6</ele>
        <time>2026-09-02T09:36:00Z</time>
      </trkpt>
      <trkpt lat="44.69238" lon="7.08808">
        <ele>2338.7</ele>
        <time>2026-09-02T09:36:05Z</time>
      </trkpt>
      <trkpt lat="44.69241" lon="7.08807">
        <ele>2338.7</ele>
        <time>2026-09-02T09:36:11Z</time>
      </trkpt>
      <trkpt lat="44.69244" lon="7.08806">
        <ele>2338.7</ele>
        <time>2026-09-02T09:36:16Z</time>
      </trkpt>
      <trkpt lat="44.69248" lon="7.08804">
        <ele>2338.8</ele>
        <time>2026-09-02T09:36:21Z</time>
      </trkpt>
      <trkpt lat="44.69249" lon="7.08803">
        <ele>2338.8</ele>
        <time>2026-09-02T09:36:27Z</time>
      </trkpt>
      <trkpt lat="44.69249" lon="7.08802">
        <ele>2338.9</ele>
        <time>2026-09-02T09:36:32Z</time>
      </trkpt>
      <trkpt lat="44.69249" lon="7.08802">
        <ele>2338.9</ele>
        <time>2026-09-02T09:36:37Z</time>
      </trkpt>
      <trkpt lat="44.69251" lon="7.08799">
        <ele>2339.1</ele>
        <time>2026-09-02T09:36:43Z</time>
      </trkpt>
      <trkpt lat="44.69256" lon="7.088">
        <ele>2339</ele>
        <time>2026-09-02T09:36:48Z</time>
      </trkpt>
      <trkpt lat="44.69259" lon="7.08799">
        <ele>2339.1</ele>
        <time>2026-09-02T09:36:53Z</time>
      </trkpt>
      <trkpt lat="44.6926" lon="7.08799">
        <ele>2339.1</ele>
        <time>2026-09-02T09:36:59Z</time>
      </trkpt>
      <trkpt lat="44.69262" lon="7.08799">
        <ele>2339.1</ele>
        <time>2026-09-02T09:37:04Z</time>
      </trkpt>
      <trkpt lat="44.69265" lon="7.088">
        <ele>2339.1</ele>
        <time>2026-09-02T09:37:09Z</time>
      </trkpt>
      <trkpt lat="44.69268" lon="7.08798">
        <ele>2339.1</ele>
        <time>2026-09-02T09:37:15Z</time>
      </trkpt>
      <trkpt lat="44.6927" lon="7.08799">
        <ele>2339.1</ele>
        <time>2026-09-02T09:37:20Z</time>
      </trkpt>
      <trkpt lat="44.69271" lon="7.08803">
        <ele>2339</ele>
        <time>2026-09-02T09:37:25Z</time>
      </trkpt>
      <trkpt lat="44.69274" lon="7.08805">
        <ele>2339.1</ele>
        <time>2026-09-02T09:37:31Z</time>
      </trkpt>
      <trkpt lat="44.6928" lon="7.08808">
        <ele>2339.1</ele>
        <time>2026-09-02T09:37:36Z</time>
      </trkpt>
      <trkpt lat="44.69287" lon="7.08808">
        <ele>2339.3</ele>
        <time>2026-09-02T09:37:41Z</time>
      </trkpt>
      <trkpt lat="44.69294" lon="7.08812">
        <ele>2339.6</ele>
        <time>2026-09-02T09:37:47Z</time>
      </trkpt>
      <trkpt lat="44.69299" lon="7.08813">
        <ele>2339.7</ele>
        <time>2026-09-02T09:37:52Z</time>
      </trkpt>
      <trkpt lat="44.69303" lon="7.08813">
        <ele>2339.9</ele>
        <time>2026-09-02T09:37:57Z</time>
      </trkpt>
      <trkpt lat="44.69309" lon="7.08815">
        <ele>2340.2</ele>
        <time>2026-09-02T09:38:03Z</time>
      </trkpt>
      <trkpt lat="44.69315" lon="7.08818">
        <ele>2340.6</ele>
        <time>2026-09-02T09:38:08Z</time>
      </trkpt>
      <trkpt lat="44.69321" lon="7.08817">
        <ele>2340.8</ele>
        <time>2026-09-02T09:38:13Z</time>
      </trkpt>
      <trkpt lat="44.6933" lon="7.08816">
        <ele>2341</ele>
        <time>2026-09-02T09:38:19Z</time>
      </trkpt>
      <trkpt lat="44.69335" lon="7.08817">
        <ele>2340.9</ele>
        <time>2026-09-02T09:38:24Z</time>
      </trkpt>
      <trkpt lat="44.6934" lon="7.08816">
        <ele>2340</ele>
        <time>2026-09-02T09:38:29Z</time>
      </trkpt>
      <trkpt lat="44.69347" lon="7.08816">
        <ele>2338.8</ele>
        <time>2026-09-02T09:38:35Z</time>
      </trkpt>
      <trkpt lat="44.6935" lon="7.08814">
        <ele>2338.1</ele>
        <time>2026-09-02T09:38:40Z</time>
      </trkpt>
      <trkpt lat="44.6935" lon="7.08814">
        <ele>2338.1</ele>
        <time>2026-09-02T09:38:45Z</time>
      </trkpt>
      <trkpt lat="44.6935" lon="7.08814">
        <ele>2338.1</ele>
        <time>2026-09-02T09:38:51Z</time>
      </trkpt>
      <trkpt lat="44.6935" lon="7.08814">
        <ele>2338.1</ele>
        <time>2026-09-02T09:38:56Z</time>
      </trkpt>
      <trkpt lat="44.6935" lon="7.08814">
        <ele>2338.1</ele>
        <time>2026-09-02T09:39:01Z</time>
      </trkpt>
      <trkpt lat="44.6935" lon="7.08814">
        <ele>2338.1</ele>
        <time>2026-09-02T09:39:07Z</time>
      </trkpt>
      <trkpt lat="44.6935" lon="7.08814">
        <ele>2338.1</ele>
        <time>2026-09-02T09:39:12Z</time>
      </trkpt>
      <trkpt lat="44.69352" lon="7.08815">
        <ele>2337.8</ele>
        <time>2026-09-02T09:39:17Z</time>
      </trkpt>
      <trkpt lat="44.69354" lon="7.0882">
        <ele>2338</ele>
        <time>2026-09-02T09:39:23Z</time>
      </trkpt>
      <trkpt lat="44.69359" lon="7.0882">
        <ele>2337.1</ele>
        <time>2026-09-02T09:39:28Z</time>
      </trkpt>
      <trkpt lat="44.69362" lon="7.08823">
        <ele>2336.9</ele>
        <time>2026-09-02T09:39:33Z</time>
      </trkpt>
      <trkpt lat="44.69368" lon="7.08823">
        <ele>2335.8</ele>
        <time>2026-09-02T09:39:39Z</time>
      </trkpt>
      <trkpt lat="44.69372" lon="7.08825">
        <ele>2335.3</ele>
        <time>2026-09-02T09:39:44Z</time>
      </trkpt>
      <trkpt lat="44.69378" lon="7.08825">
        <ele>2334.2</ele>
        <time>2026-09-02T09:39:49Z</time>
      </trkpt>
      <trkpt lat="44.69381" lon="7.08826">
        <ele>2333.8</ele>
        <time>2026-09-02T09:39:55Z</time>
      </trkpt>
      <trkpt lat="44.69384" lon="7.08827">
        <ele>2333.3</ele>
        <time>2026-09-02T09:40:00Z</time>
      </trkpt>
      <trkpt lat="44.69389" lon="7.08829">
        <ele>2332.6</ele>
        <time>2026-09-02T09:40:05Z</time>
      </trkpt>
      <trkpt lat="44.69393" lon="7.08834">
        <ele>2332.4</ele>
        <time>2026-09-02T09:40:11Z</time>
      </trkpt>
      <trkpt lat="44.69394" lon="7.08835">
        <ele>2332.5</ele>
        <time>2026-09-02T09:40:16Z</time>
      </trkpt>
      <trkpt lat="44.69395" lon="7.08835">
        <ele>2332.3</ele>
        <time>2026-09-02T09:40:21Z</time>
      </trkpt>
      <trkpt lat="44.69396" lon="7.08834">
        <ele>2331.9</ele>
        <time>2026-09-02T09:40:27Z</time>
      </trkpt>
      <trkpt lat="44.69399" lon="7.08837">
        <ele>2332.1</ele>
        <time>2026-09-02T09:40:32Z</time>
      </trkpt>
      <trkpt lat="44.69402" lon="7.08843">
        <ele>2333.1</ele>
        <time>2026-09-02T09:40:37Z</time>
      </trkpt>
      <trkpt lat="44.69406" lon="7.08847">
        <ele>2333.5</ele>
        <time>2026-09-02T09:40:43Z</time>
      </trkpt>
      <trkpt lat="44.6941" lon="7.08851">
        <ele>2334</ele>
        <time>2026-09-02T09:40:48Z</time>
      </trkpt>
      <trkpt lat="44.69415" lon="7.08851">
        <ele>2333.3</ele>
        <time>2026-09-02T09:40:53Z</time>
      </trkpt>
      <trkpt lat="44.69419" lon="7.08853">
        <ele>2333.3</ele>
        <time>2026-09-02T09:40:59Z</time>
      </trkpt>
      <trkpt lat="44.69423" lon="7.08853">
        <ele>2332.7</ele>
        <time>2026-09-02T09:41:04Z</time>
      </trkpt>
      <trkpt lat="44.69426" lon="7.08857">
        <ele>2333.4</ele>
        <time>2026-09-02T09:41:09Z</time>
      </trkpt>
      <trkpt lat="44.69428" lon="7.08867">
        <ele>2335.8</ele>
        <time>2026-09-02T09:41:15Z</time>
      </trkpt>
      <trkpt lat="44.6943" lon="7.08872">
        <ele>2336.8</ele>
        <time>2026-09-02T09:41:20Z</time>
      </trkpt>
      <trkpt lat="44.69431" lon="7.08875">
        <ele>2337.4</ele>
        <time>2026-09-02T09:41:25Z</time>
      </trkpt>
      <trkpt lat="44.69434" lon="7.08877">
        <ele>2337.4</ele>
        <time>2026-09-02T09:41:31Z</time>
      </trkpt>
      <trkpt lat="44.69441" lon="7.08879">
        <ele>2336.6</ele>
        <time>2026-09-02T09:41:36Z</time>
      </trkpt>
      <trkpt lat="44.69444" lon="7.08882">
        <ele>2336.8</ele>
        <time>2026-09-02T09:41:41Z</time>
      </trkpt>
      <trkpt lat="44.69451" lon="7.08887">
        <ele>2336.7</ele>
        <time>2026-09-02T09:41:47Z</time>
      </trkpt>
      <trkpt lat="44.69454" lon="7.0889">
        <ele>2336.8</ele>
        <time>2026-09-02T09:41:52Z</time>
      </trkpt>
      <trkpt lat="44.69454" lon="7.0889">
        <ele>2336.8</ele>
        <time>2026-09-02T09:41:57Z</time>
      </trkpt>
      <trkpt lat="44.69454" lon="7.0889">
        <ele>2336.8</ele>
        <time>2026-09-02T09:42:03Z</time>
      </trkpt>
      <trkpt lat="44.69456" lon="7.08892">
        <ele>2336.9</ele>
        <time>2026-09-02T09:42:08Z</time>
      </trkpt>
      <trkpt lat="44.69459" lon="7.08897">
        <ele>2337.4</ele>
        <time>2026-09-02T09:42:13Z</time>
      </trkpt>
      <trkpt lat="44.69463" lon="7.08904">
        <ele>2338.1</ele>
        <time>2026-09-02T09:42:19Z</time>
      </trkpt>
      <trkpt lat="44.69469" lon="7.08906">
        <ele>2337.2</ele>
        <time>2026-09-02T09:42:24Z</time>
      </trkpt>
      <trkpt lat="44.6947" lon="7.08912">
        <ele>2338.2</ele>
        <time>2026-09-02T09:42:29Z</time>
      </trkpt>
      <trkpt lat="44.69475" lon="7.08918">
        <ele>2337.8</ele>
        <time>2026-09-02T09:42:35Z</time>
      </trkpt>
      <trkpt lat="44.6948" lon="7.08922">
        <ele>2336</ele>
        <time>2026-09-02T09:42:40Z</time>
      </trkpt>
      <trkpt lat="44.69484" lon="7.08927">
        <ele>2334.3</ele>
        <time>2026-09-02T09:42:45Z</time>
      </trkpt>
      <trkpt lat="44.69492" lon="7.0893">
        <ele>2332.3</ele>
        <time>2026-09-02T09:42:51Z</time>
      </trkpt>
      <trkpt lat="44.69496" lon="7.08932">
        <ele>2331.3</ele>
        <time>2026-09-02T09:42:56Z</time>
      </trkpt>
      <trkpt lat="44.69501" lon="7.08934">
        <ele>2330.2</ele>
        <time>2026-09-02T09:43:01Z</time>
      </trkpt>
      <trkpt lat="44.69509" lon="7.08936">
        <ele>2328.7</ele>
        <time>2026-09-02T09:43:07Z</time>
      </trkpt>
      <trkpt lat="44.69515" lon="7.08935">
        <ele>2327.8</ele>
        <time>2026-09-02T09:43:12Z</time>
      </trkpt>
      <trkpt lat="44.69521" lon="7.08937">
        <ele>2326.7</ele>
        <time>2026-09-02T09:43:17Z</time>
      </trkpt>
      <trkpt lat="44.69526" lon="7.08938">
        <ele>2325.8</ele>
        <time>2026-09-02T09:43:23Z</time>
      </trkpt>
      <trkpt lat="44.69531" lon="7.08939">
        <ele>2324.9</ele>
        <time>2026-09-02T09:43:28Z</time>
      </trkpt>
      <trkpt lat="44.69536" lon="7.08941">
        <ele>2324</ele>
        <time>2026-09-02T09:43:33Z</time>
      </trkpt>
      <trkpt lat="44.69538" lon="7.08949">
        <ele>2323</ele>
        <time>2026-09-02T09:43:39Z</time>
      </trkpt>
      <trkpt lat="44.69542" lon="7.08955">
        <ele>2322</ele>
        <time>2026-09-02T09:43:44Z</time>
      </trkpt>
      <trkpt lat="44.69546" lon="7.08959">
        <ele>2321</ele>
        <time>2026-09-02T09:43:49Z</time>
      </trkpt>
      <trkpt lat="44.69552" lon="7.08961">
        <ele>2320</ele>
        <time>2026-09-02T09:43:55Z</time>
      </trkpt>
      <trkpt lat="44.69555" lon="7.08961">
        <ele>2319.6</ele>
        <time>2026-09-02T09:44:00Z</time>
      </trkpt>
      <trkpt lat="44.69558" lon="7.0896">
        <ele>2319.2</ele>
        <time>2026-09-02T09:44:05Z</time>
      </trkpt>
      <trkpt lat="44.69564" lon="7.08965">
        <ele>2317.9</ele>
        <time>2026-09-02T09:44:11Z</time>
      </trkpt>
      <trkpt lat="44.69567" lon="7.08968">
        <ele>2317.3</ele>
        <time>2026-09-02T09:44:16Z</time>
      </trkpt>
      <trkpt lat="44.6957" lon="7.08972">
        <ele>2316.6</ele>
        <time>2026-09-02T09:44:21Z</time>
      </trkpt>
      <trkpt lat="44.69573" lon="7.08977">
        <ele>2315.8</ele>
        <time>2026-09-02T09:44:27Z</time>
      </trkpt>
      <trkpt lat="44.69576" lon="7.08976">
        <ele>2315.5</ele>
        <time>2026-09-02T09:44:32Z</time>
      </trkpt>
      <trkpt lat="44.69582" lon="7.08976">
        <ele>2314.6</ele>
        <time>2026-09-02T09:44:37Z</time>
      </trkpt>
      <trkpt lat="44.69589" lon="7.08976">
        <ele>2314.4</ele>
        <time>2026-09-02T09:44:43Z</time>
      </trkpt>
      <trkpt lat="44.69594" lon="7.08977">
        <ele>2314.4</ele>
        <time>2026-09-02T09:44:48Z</time>
      </trkpt>
      <trkpt lat="44.69597" lon="7.08978">
        <ele>2314.4</ele>
        <time>2026-09-02T09:44:53Z</time>
      </trkpt>
      <trkpt lat="44.69599" lon="7.0898">
        <ele>2314.3</ele>
        <time>2026-09-02T09:44:59Z</time>
      </trkpt>
      <trkpt lat="44.69602" lon="7.08981">
        <ele>2314.2</ele>
        <time>2026-09-02T09:45:04Z</time>
      </trkpt>
      <trkpt lat="44.69605" lon="7.08984">
        <ele>2314.1</ele>
        <time>2026-09-02T09:45:09Z</time>
      </trkpt>
      <trkpt lat="44.6961" lon="7.08988">
        <ele>2313.9</ele>
        <time>2026-09-02T09:45:15Z</time>
      </trkpt>
      <trkpt lat="44.69614" lon="7.08991">
        <ele>2313.8</ele>
        <time>2026-09-02T09:45:20Z</time>
      </trkpt>
      <trkpt lat="44.69618" lon="7.08991">
        <ele>2313.8</ele>
        <time>2026-09-02T09:45:25Z</time>
      </trkpt>
      <trkpt lat="44.69622" lon="7.08992">
        <ele>2313.8</ele>
        <time>2026-09-02T09:45:31Z</time>
      </trkpt>
      <trkpt lat="44.69624" lon="7.08988">
        <ele>2314</ele>
        <time>2026-09-02T09:45:36Z</time>
      </trkpt>
      <trkpt lat="44.69625" lon="7.08987">
        <ele>2314</ele>
        <time>2026-09-02T09:45:41Z</time>
      </trkpt>
      <trkpt lat="44.69625" lon="7.08987">
        <ele>2314</ele>
        <time>2026-09-02T09:45:47Z</time>
      </trkpt>
      <trkpt lat="44.69625" lon="7.08987">
        <ele>2314</ele>
        <time>2026-09-02T09:45:52Z</time>
      </trkpt>
      <trkpt lat="44.69625" lon="7.08987">
        <ele>2314</ele>
        <time>2026-09-02T09:45:57Z</time>
      </trkpt>
      <trkpt lat="44.69625" lon="7.08987">
        <ele>2314</ele>
        <time>2026-09-02T09:46:03Z</time>
      </trkpt>
      <trkpt lat="44.69625" lon="7.08987">
        <ele>2314</ele>
        <time>2026-09-02T09:46:08Z</time>
      </trkpt>
      <trkpt lat="44.69625" lon="7.08987">
        <ele>2314</ele>
        <time>2026-09-02T09:46:13Z</time>
      </trkpt>
      <trkpt lat="44.69625" lon="7.08987">
        <ele>2314</ele>
        <time>2026-09-02T09:46:19Z</time>
      </trkpt>
      <trkpt lat="44.69625" lon="7.08987">
        <ele>2314</ele>
        <time>2026-09-02T09:46:24Z</time>
      </trkpt>
      <trkpt lat="44.69625" lon="7.08987">
        <ele>2314</ele>
        <time>2026-09-02T09:46:29Z</time>
      </trkpt>
      <trkpt lat="44.69625" lon="7.08987">
        <ele>2314</ele>
        <time>2026-09-02T09:46:35Z</time>
      </trkpt>
      <trkpt lat="44.69625" lon="7.08987">
        <ele>2314</ele>
        <time>2026-09-02T09:46:40Z</time>
      </trkpt>
      <trkpt lat="44.69632" lon="7.08981">
        <ele>2314.3</ele>
        <time>2026-09-02T09:46:45Z</time>
      </trkpt>
      <trkpt lat="44.69636" lon="7.08982">
        <ele>2314.3</ele>
        <time>2026-09-02T09:46:51Z</time>
      </trkpt>
      <trkpt lat="44.6964" lon="7.08985">
        <ele>2314.2</ele>
        <time>2026-09-02T09:46:56Z</time>
      </trkpt>
      <trkpt lat="44.69643" lon="7.08985">
        <ele>2314.2</ele>
        <time>2026-09-02T09:47:01Z</time>
      </trkpt>
      <trkpt lat="44.69646" lon="7.08985">
        <ele>2314.2</ele>
        <time>2026-09-02T09:47:07Z</time>
      </trkpt>
      <trkpt lat="44.69649" lon="7.08985">
        <ele>2314.3</ele>
        <time>2026-09-02T09:47:12Z</time>
      </trkpt>
      <trkpt lat="44.69652" lon="7.08986">
        <ele>2314.2</ele>
        <time>2026-09-02T09:47:17Z</time>
      </trkpt>
      <trkpt lat="44.69654" lon="7.08987">
        <ele>2314.2</ele>
        <time>2026-09-02T09:47:23Z</time>
      </trkpt>
      <trkpt lat="44.69654" lon="7.08987">
        <ele>2314.2</ele>
        <time>2026-09-02T09:47:28Z</time>
      </trkpt>
      <trkpt lat="44.69654" lon="7.08987">
        <ele>2314.2</ele>
        <time>2026-09-02T09:47:33Z</time>
      </trkpt>
      <trkpt lat="44.69654" lon="7.08987">
        <ele>2314.2</ele>
        <time>2026-09-02T09:47:39Z</time>
      </trkpt>
      <trkpt lat="44.69654" lon="7.08987">
        <ele>2314.2</ele>
        <time>2026-09-02T09:47:44Z</time>
      </trkpt>
      <trkpt lat="44.69654" lon="7.08987">
        <ele>2314.2</ele>
        <time>2026-09-02T09:47:49Z</time>
      </trkpt>
      <trkpt lat="44.69654" lon="7.08987">
        <ele>2314.2</ele>
        <time>2026-09-02T09:47:55Z</time>
      </trkpt>
      <trkpt lat="44.69654" lon="7.08987">
        <ele>2314.2</ele>
        <time>2026-09-02T09:48:00Z</time>
      </trkpt>
      <trkpt lat="44.69654" lon="7.08987">
        <ele>2314.2</ele>
        <time>2026-09-02T09:48:05Z</time>
      </trkpt>
      <trkpt lat="44.69654" lon="7.08987">
        <ele>2314.2</ele>
        <time>2026-09-02T09:48:11Z</time>
      </trkpt>
      <trkpt lat="44.69654" lon="7.08987">
        <ele>2314.2</ele>
        <time>2026-09-02T09:48:16Z</time>
      </trkpt>
      <trkpt lat="44.69662" lon="7.08998">
        <ele>2314</ele>
        <time>2026-09-02T09:48:21Z</time>
      </trkpt>
      <trkpt lat="44.69665" lon="7.08999">
        <ele>2314</ele>
        <time>2026-09-02T09:48:27Z</time>
      </trkpt>
      <trkpt lat="44.69665" lon="7.08999">
        <ele>2314</ele>
        <time>2026-09-02T09:48:32Z</time>
      </trkpt>
      <trkpt lat="44.69665" lon="7.08999">
        <ele>2314</ele>
        <time>2026-09-02T09:48:37Z</time>
      </trkpt>
      <trkpt lat="44.69665" lon="7.08999">
        <ele>2314</ele>
        <time>2026-09-02T09:48:43Z</time>
      </trkpt>
      <trkpt lat="44.69665" lon="7.08999">
        <ele>2314</ele>
        <time>2026-09-02T09:48:48Z</time>
      </trkpt>
      <trkpt lat="44.69665" lon="7.08999">
        <ele>2314</ele>
        <time>2026-09-02T09:48:53Z</time>
      </trkpt>
      <trkpt lat="44.69665" lon="7.08999">
        <ele>2314</ele>
        <time>2026-09-02T09:48:59Z</time>
      </trkpt>
      <trkpt lat="44.69675" lon="7.09002">
        <ele>2310.6</ele>
        <time>2026-09-02T09:49:04Z</time>
      </trkpt>
      <trkpt lat="44.69676" lon="7.09002">
        <ele>2310.4</ele>
        <time>2026-09-02T09:49:09Z</time>
      </trkpt>
      <trkpt lat="44.69677" lon="7.09001">
        <ele>2311</ele>
        <time>2026-09-02T09:49:15Z</time>
      </trkpt>
      <trkpt lat="44.69678" lon="7.09004">
        <ele>2308.3</ele>
        <time>2026-09-02T09:49:20Z</time>
      </trkpt>
      <trkpt lat="44.69678" lon="7.09007">
        <ele>2305.8</ele>
        <time>2026-09-02T09:49:25Z</time>
      </trkpt>
      <trkpt lat="44.69679" lon="7.09011">
        <ele>2302.3</ele>
        <time>2026-09-02T09:49:31Z</time>
      </trkpt>
      <trkpt lat="44.69681" lon="7.09011">
        <ele>2302</ele>
        <time>2026-09-02T09:49:36Z</time>
      </trkpt>
      <trkpt lat="44.69681" lon="7.09012">
        <ele>2301.2</ele>
        <time>2026-09-02T09:49:41Z</time>
      </trkpt>
      <trkpt lat="44.69684" lon="7.09016">
        <ele>2297.5</ele>
        <time>2026-09-02T09:49:47Z</time>
      </trkpt>
      <trkpt lat="44.69686" lon="7.09016">
        <ele>2297.3</ele>
        <time>2026-09-02T09:49:52Z</time>
      </trkpt>
      <trkpt lat="44.69686" lon="7.09016">
        <ele>2297.3</ele>
        <time>2026-09-02T09:49:57Z</time>
      </trkpt>
      <trkpt lat="44.69689" lon="7.09018">
        <ele>2295.4</ele>
        <time>2026-09-02T09:50:03Z</time>
      </trkpt>
      <trkpt lat="44.69689" lon="7.0902">
        <ele>2293.8</ele>
        <time>2026-09-02T09:50:08Z</time>
      </trkpt>
      <trkpt lat="44.69688" lon="7.09021">
        <ele>2293.1</ele>
        <time>2026-09-02T09:50:13Z</time>
      </trkpt>
      <trkpt lat="44.69688" lon="7.09025">
        <ele>2290</ele>
        <time>2026-09-02T09:50:19Z</time>
      </trkpt>
      <trkpt lat="44.69689" lon="7.09026">
        <ele>2289.1</ele>
        <time>2026-09-02T09:50:24Z</time>
      </trkpt>
      <trkpt lat="44.69689" lon="7.09026">
        <ele>2289.1</ele>
        <time>2026-09-02T09:50:29Z</time>
      </trkpt>
      <trkpt lat="44.69689" lon="7.09026">
        <ele>2289.1</ele>
        <time>2026-09-02T09:50:35Z</time>
      </trkpt>
      <trkpt lat="44.69696" lon="7.09029">
        <ele>2286.4</ele>
        <time>2026-09-02T09:50:40Z</time>
      </trkpt>
      <trkpt lat="44.69696" lon="7.09029">
        <ele>2286.4</ele>
        <time>2026-09-02T09:50:45Z</time>
      </trkpt>
      <trkpt lat="44.69696" lon="7.0903">
        <ele>2285.7</ele>
        <time>2026-09-02T09:50:51Z</time>
      </trkpt>
      <trkpt lat="44.69696" lon="7.0903">
        <ele>2285.7</ele>
        <time>2026-09-02T09:50:56Z</time>
      </trkpt>
      <trkpt lat="44.69696" lon="7.0903">
        <ele>2285.7</ele>
        <time>2026-09-02T09:51:01Z</time>
      </trkpt>
      <trkpt lat="44.69697" lon="7.09036">
        <ele>2281.2</ele>
        <time>2026-09-02T09:51:07Z</time>
      </trkpt>
      <trkpt lat="44.69697" lon="7.09038">
        <ele>2279.8</ele>
        <time>2026-09-02T09:51:12Z</time>
      </trkpt>
      <trkpt lat="44.69695" lon="7.09043">
        <ele>2276</ele>
        <time>2026-09-02T09:51:17Z</time>
      </trkpt>
      <trkpt lat="44.69694" lon="7.09047">
        <ele>2273</ele>
        <time>2026-09-02T09:51:23Z</time>
      </trkpt>
      <trkpt lat="44.69695" lon="7.09051">
        <ele>2270</ele>
        <time>2026-09-02T09:51:28Z</time>
      </trkpt>
      <trkpt lat="44.69697" lon="7.09055">
        <ele>2267.2</ele>
        <time>2026-09-02T09:51:33Z</time>
      </trkpt>
      <trkpt lat="44.69698" lon="7.09062">
        <ele>2262.2</ele>
        <time>2026-09-02T09:51:39Z</time>
      </trkpt>
      <trkpt lat="44.69699" lon="7.09068">
        <ele>2257.9</ele>
        <time>2026-09-02T09:51:44Z</time>
      </trkpt>
      <trkpt lat="44.69698" lon="7.09073">
        <ele>2254.1</ele>
        <time>2026-09-02T09:51:49Z</time>
      </trkpt>
      <trkpt lat="44.69697" lon="7.09079">
        <ele>2249.5</ele>
        <time>2026-09-02T09:51:55Z</time>
      </trkpt>
      <trkpt lat="44.69699" lon="7.09084">
        <ele>2246.1</ele>
        <time>2026-09-02T09:52:00Z</time>
      </trkpt>
      <trkpt lat="44.69702" lon="7.09087">
        <ele>2243.8</ele>
        <time>2026-09-02T09:52:05Z</time>
      </trkpt>
      <trkpt lat="44.69702" lon="7.09089">
        <ele>2241.8</ele>
        <time>2026-09-02T09:52:11Z</time>
      </trkpt>
      <trkpt lat="44.69702" lon="7.09089">
        <ele>2241.8</ele>
        <time>2026-09-02T09:52:16Z</time>
      </trkpt>
      <trkpt lat="44.69702" lon="7.09089">
        <ele>2241.8</ele>
        <time>2026-09-02T09:52:21Z</time>
      </trkpt>
      <trkpt lat="44.69702" lon="7.09089">
        <ele>2241.8</ele>
        <time>2026-09-02T09:52:27Z</time>
      </trkpt>
      <trkpt lat="44.69702" lon="7.09089">
        <ele>2241.8</ele>
        <time>2026-09-02T09:52:32Z</time>
      </trkpt>
      <trkpt lat="44.69702" lon="7.09089">
        <ele>2241.8</ele>
        <time>2026-09-02T09:52:37Z</time>
      </trkpt>
      <trkpt lat="44.69702" lon="7.09089">
        <ele>2241.8</ele>
        <time>2026-09-02T09:52:43Z</time>
      </trkpt>
      <trkpt lat="44.69702" lon="7.09089">
        <ele>2241.8</ele>
        <time>2026-09-02T09:52:48Z</time>
      </trkpt>
      <trkpt lat="44.69702" lon="7.09089">
        <ele>2241.8</ele>
        <time>2026-09-02T09:52:53Z</time>
      </trkpt>
      <trkpt lat="44.69702" lon="7.09089">
        <ele>2241.8</ele>
        <time>2026-09-02T09:52:59Z</time>
      </trkpt>
      <trkpt lat="44.69705" lon="7.09087">
        <ele>2244.5</ele>
        <time>2026-09-02T09:53:04Z</time>
      </trkpt>
      <trkpt lat="44.69708" lon="7.09087">
        <ele>2245.2</ele>
        <time>2026-09-02T09:53:09Z</time>
      </trkpt>
      <trkpt lat="44.69711" lon="7.09086">
        <ele>2246.9</ele>
        <time>2026-09-02T09:53:15Z</time>
      </trkpt>
      <trkpt lat="44.69713" lon="7.09082">
        <ele>2251</ele>
        <time>2026-09-02T09:53:20Z</time>
      </trkpt>
      <trkpt lat="44.69715" lon="7.09081">
        <ele>2252.1</ele>
        <time>2026-09-02T09:53:25Z</time>
      </trkpt>
      <trkpt lat="44.69718" lon="7.09082">
        <ele>2252.2</ele>
        <time>2026-09-02T09:53:31Z</time>
      </trkpt>
      <trkpt lat="44.69718" lon="7.09082">
        <ele>2252.2</ele>
        <time>2026-09-02T09:53:36Z</time>
      </trkpt>
      <trkpt lat="44.69718" lon="7.09082">
        <ele>2252.2</ele>
        <time>2026-09-02T09:53:41Z</time>
      </trkpt>
      <trkpt lat="44.69718" lon="7.09082">
        <ele>2252.2</ele>
        <time>2026-09-02T09:53:47Z</time>
      </trkpt>
      <trkpt lat="44.69718" lon="7.09082">
        <ele>2252.2</ele>
        <time>2026-09-02T09:53:52Z</time>
      </trkpt>
      <trkpt lat="44.69724" lon="7.09084">
        <ele>2252.1</ele>
        <time>2026-09-02T09:53:57Z</time>
      </trkpt>
      <trkpt lat="44.69728" lon="7.09081">
        <ele>2255.1</ele>
        <time>2026-09-02T09:54:03Z</time>
      </trkpt>
      <trkpt lat="44.69728" lon="7.09078">
        <ele>2256.8</ele>
        <time>2026-09-02T09:54:08Z</time>
      </trkpt>
      <trkpt lat="44.69728" lon="7.09078">
        <ele>2256.8</ele>
        <time>2026-09-02T09:54:13Z</time>
      </trkpt>
      <trkpt lat="44.69728" lon="7.09078">
        <ele>2256.8</ele>
        <time>2026-09-02T09:54:19Z</time>
      </trkpt>
      <trkpt lat="44.69727" lon="7.09072">
        <ele>2260</ele>
        <time>2026-09-02T09:54:24Z</time>
      </trkpt>
      <trkpt lat="44.69725" lon="7.09067">
        <ele>2262.6</ele>
        <time>2026-09-02T09:54:29Z</time>
      </trkpt>
      <trkpt lat="44.69723" lon="7.09063">
        <ele>2264.7</ele>
        <time>2026-09-02T09:54:35Z</time>
      </trkpt>
      <trkpt lat="44.69721" lon="7.09056">
        <ele>2268.7</ele>
        <time>2026-09-02T09:54:40Z</time>
      </trkpt>
      <trkpt lat="44.69721" lon="7.09051">
        <ele>2271.8</ele>
        <time>2026-09-02T09:54:45Z</time>
      </trkpt>
      <trkpt lat="44.69723" lon="7.09051">
        <ele>2271.9</ele>
        <time>2026-09-02T09:54:51Z</time>
      </trkpt>
      <trkpt lat="44.69723" lon="7.09051">
        <ele>2271.9</ele>
        <time>2026-09-02T09:54:56Z</time>
      </trkpt>
      <trkpt lat="44.69723" lon="7.09051">
        <ele>2271.9</ele>
        <time>2026-09-02T09:55:01Z</time>
      </trkpt>
      <trkpt lat="44.69723" lon="7.09051">
        <ele>2271.9</ele>
        <time>2026-09-02T09:55:07Z</time>
      </trkpt>
      <trkpt lat="44.69723" lon="7.09051">
        <ele>2271.9</ele>
        <time>2026-09-02T09:55:12Z</time>
      </trkpt>
      <trkpt lat="44.69723" lon="7.09051">
        <ele>2271.9</ele>
        <time>2026-09-02T09:55:17Z</time>
      </trkpt>
      <trkpt lat="44.69723" lon="7.09051">
        <ele>2271.9</ele>
        <time>2026-09-02T09:55:23Z</time>
      </trkpt>
      <trkpt lat="44.69732" lon="7.09053">
        <ele>2271.4</ele>
        <time>2026-09-02T09:55:28Z</time>
      </trkpt>
      <trkpt lat="44.69732" lon="7.09053">
        <ele>2271.4</ele>
        <time>2026-09-02T09:55:33Z</time>
      </trkpt>
      <trkpt lat="44.69732" lon="7.09053">
        <ele>2271.4</ele>
        <time>2026-09-02T09:55:39Z</time>
      </trkpt>
      <trkpt lat="44.69736" lon="7.0905">
        <ele>2273.3</ele>
        <time>2026-09-02T09:55:44Z</time>
      </trkpt>
      <trkpt lat="44.69736" lon="7.0905">
        <ele>2273.3</ele>
        <time>2026-09-02T09:55:49Z</time>
      </trkpt>
      <trkpt lat="44.69736" lon="7.0905">
        <ele>2273.3</ele>
        <time>2026-09-02T09:55:55Z</time>
      </trkpt>
      <trkpt lat="44.69736" lon="7.0905">
        <ele>2273.3</ele>
        <time>2026-09-02T09:56:00Z</time>
      </trkpt>
      <trkpt lat="44.69736" lon="7.0905">
        <ele>2273.3</ele>
        <time>2026-09-02T09:56:05Z</time>
      </trkpt>
      <trkpt lat="44.69736" lon="7.0905">
        <ele>2273.3</ele>
        <time>2026-09-02T09:56:11Z</time>
      </trkpt>
      <trkpt lat="44.69736" lon="7.0905">
        <ele>2273.3</ele>
        <time>2026-09-02T09:56:16Z</time>
      </trkpt>
      <trkpt lat="44.69736" lon="7.0905">
        <ele>2273.3</ele>
        <time>2026-09-02T09:56:21Z</time>
      </trkpt>
      <trkpt lat="44.69736" lon="7.0905">
        <ele>2273.3</ele>
        <time>2026-09-02T09:56:27Z</time>
      </trkpt>
      <trkpt lat="44.69736" lon="7.0905">
        <ele>2273.3</ele>
        <time>2026-09-02T09:56:32Z</time>
      </trkpt>
      <trkpt lat="44.69736" lon="7.0905">
        <ele>2273.3</ele>
        <time>2026-09-02T09:56:37Z</time>
      </trkpt>
      <trkpt lat="44.69736" lon="7.09038">
        <ele>2279.7</ele>
        <time>2026-09-02T09:56:43Z</time>
      </trkpt>
      <trkpt lat="44.69733" lon="7.09035">
        <ele>2281.3</ele>
        <time>2026-09-02T09:56:48Z</time>
      </trkpt>
      <trkpt lat="44.69738" lon="7.09027">
        <ele>2285.4</ele>
        <time>2026-09-02T09:56:53Z</time>
      </trkpt>
      <trkpt lat="44.69746" lon="7.09024">
        <ele>2286.4</ele>
        <time>2026-09-02T09:56:59Z</time>
      </trkpt>
      <trkpt lat="44.69753" lon="7.09019">
        <ele>2287.3</ele>
        <time>2026-09-02T09:57:04Z</time>
      </trkpt>
      <trkpt lat="44.69754" lon="7.09017">
        <ele>2287.9</ele>
        <time>2026-09-02T09:57:09Z</time>
      </trkpt>
      <trkpt lat="44.69754" lon="7.09017">
        <ele>2287.9</ele>
        <time>2026-09-02T09:57:15Z</time>
      </trkpt>
      <trkpt lat="44.69754" lon="7.09017">
        <ele>2287.9</ele>
        <time>2026-09-02T09:57:20Z</time>
      </trkpt>
      <trkpt lat="44.69754" lon="7.09017">
        <ele>2287.9</ele>
        <time>2026-09-02T09:57:25Z</time>
      </trkpt>
      <trkpt lat="44.69754" lon="7.09017">
        <ele>2287.9</ele>
        <time>2026-09-02T09:57:31Z</time>
      </trkpt>
      <trkpt lat="44.69754" lon="7.09017">
        <ele>2287.9</ele>
        <time>2026-09-02T09:57:36Z</time>
      </trkpt>
      <trkpt lat="44.69754" lon="7.09017">
        <ele>2287.9</ele>
        <time>2026-09-02T09:57:41Z</time>
      </trkpt>
      <trkpt lat="44.69754" lon="7.09017">
        <ele>2287.9</ele>
        <time>2026-09-02T09:57:47Z</time>
      </trkpt>
      <trkpt lat="44.69754" lon="7.09017">
        <ele>2287.9</ele>
        <time>2026-09-02T09:57:52Z</time>
      </trkpt>
      <trkpt lat="44.69754" lon="7.09017">
        <ele>2287.9</ele>
        <time>2026-09-02T09:57:57Z</time>
      </trkpt>
      <trkpt lat="44.69754" lon="7.09017">
        <ele>2287.9</ele>
        <time>2026-09-02T09:58:03Z</time>
      </trkpt>
      <trkpt lat="44.69754" lon="7.09017">
        <ele>2287.9</ele>
        <time>2026-09-02T09:58:08Z</time>
      </trkpt>
      <trkpt lat="44.69754" lon="7.09017">
        <ele>2287.9</ele>
        <time>2026-09-02T09:58:13Z</time>
      </trkpt>
      <trkpt lat="44.69754" lon="7.09017">
        <ele>2287.9</ele>
        <time>2026-09-02T09:58:19Z</time>
      </trkpt>
      <trkpt lat="44.69754" lon="7.09017">
        <ele>2287.9</ele>
        <time>2026-09-02T09:58:24Z</time>
      </trkpt>
      <trkpt lat="44.69754" lon="7.09017">
        <ele>2287.9</ele>
        <time>2026-09-02T09:58:29Z</time>
      </trkpt>
      <trkpt lat="44.69754" lon="7.09017">
        <ele>2287.9</ele>
        <time>2026-09-02T09:58:35Z</time>
      </trkpt>
      <trkpt lat="44.69754" lon="7.09017">
        <ele>2287.9</ele>
        <time>2026-09-02T09:58:40Z</time>
      </trkpt>
      <trkpt lat="44.69754" lon="7.09017">
        <ele>2287.9</ele>
        <time>2026-09-02T09:58:45Z</time>
      </trkpt>
      <trkpt lat="44.69754" lon="7.09017">
        <ele>2287.9</ele>
        <time>2026-09-02T09:58:51Z</time>
      </trkpt>
      <trkpt lat="44.69754" lon="7.09017">
        <ele>2287.9</ele>
        <time>2026-09-02T09:58:56Z</time>
      </trkpt>
      <trkpt lat="44.69754" lon="7.09017">
        <ele>2287.9</ele>
        <time>2026-09-02T09:59:01Z</time>
      </trkpt>
      <trkpt lat="44.69754" lon="7.09017">
        <ele>2287.9</ele>
        <time>2026-09-02T09:59:07Z</time>
      </trkpt>
      <trkpt lat="44.69754" lon="7.09017">
        <ele>2287.9</ele>
        <time>2026-09-02T09:59:12Z</time>
      </trkpt>
      <trkpt lat="44.69754" lon="7.09017">
        <ele>2287.9</ele>
        <time>2026-09-02T09:59:17Z</time>
      </trkpt>
      <trkpt lat="44.69754" lon="7.09017">
        <ele>2287.9</ele>
        <time>2026-09-02T09:59:23Z</time>
      </trkpt>
      <trkpt lat="44.69754" lon="7.09017">
        <ele>2287.9</ele>
        <time>2026-09-02T09:59:28Z</time>
      </trkpt>
      <trkpt lat="44.69754" lon="7.09017">
        <ele>2287.9</ele>
        <time>2026-09-02T09:59:33Z</time>
      </trkpt>
      <trkpt lat="44.69754" lon="7.09017">
        <ele>2287.9</ele>
        <time>2026-09-02T09:59:39Z</time>
      </trkpt>
      <trkpt lat="44.69754" lon="7.09017">
        <ele>2287.9</ele>
        <time>2026-09-02T09:59:44Z</time>
      </trkpt>
      <trkpt lat="44.69754" lon="7.09017">
        <ele>2287.9</ele>
        <time>2026-09-02T09:59:49Z</time>
      </trkpt>
      <trkpt lat="44.69754" lon="7.09017">
        <ele>2287.9</ele>
        <time>2026-09-02T09:59:55Z</time>
      </trkpt>
      <trkpt lat="44.69754" lon="7.09017">
        <ele>2287.9</ele>
        <time>2026-09-02T10:00:00Z</time>
      </trkpt>
      <trkpt lat="44.69754" lon="7.09017">
        <ele>2287.9</ele>
        <time>2026-09-02T10:00:05Z</time>
      </trkpt>
      <trkpt lat="44.69754" lon="7.09017">
        <ele>2287.9</ele>
        <time>2026-09-02T10:00:11Z</time>
      </trkpt>
      <trkpt lat="44.69754" lon="7.09017">
        <ele>2287.9</ele>
        <time>2026-09-02T10:00:16Z</time>
      </trkpt>
      <trkpt lat="44.69754" lon="7.09017">
        <ele>2287.9</ele>
        <time>2026-09-02T10:00:21Z</time>
      </trkpt>
      <trkpt lat="44.69754" lon="7.09017">
        <ele>2287.9</ele>
        <time>2026-09-02T10:00:27Z</time>
      </trkpt>
      <trkpt lat="44.69754" lon="7.09017">
        <ele>2287.9</ele>
        <time>2026-09-02T10:00:32Z</time>
      </trkpt>
      <trkpt lat="44.69754" lon="7.09017">
        <ele>2287.9</ele>
        <time>2026-09-02T10:00:37Z</time>
      </trkpt>
      <trkpt lat="44.69754" lon="7.09017">
        <ele>2287.9</ele>
        <time>2026-09-02T10:00:43Z</time>
      </trkpt>
      <trkpt lat="44.69754" lon="7.09017">
        <ele>2287.9</ele>
        <time>2026-09-02T10:00:48Z</time>
      </trkpt>
      <trkpt lat="44.69754" lon="7.09017">
        <ele>2287.9</ele>
        <time>2026-09-02T10:00:53Z</time>
      </trkpt>
      <trkpt lat="44.69754" lon="7.09017">
        <ele>2287.9</ele>
        <time>2026-09-02T10:00:59Z</time>
      </trkpt>
      <trkpt lat="44.69754" lon="7.09017">
        <ele>2287.9</ele>
        <time>2026-09-02T10:01:04Z</time>
      </trkpt>
      <trkpt lat="44.69754" lon="7.09017">
        <ele>2287.9</ele>
        <time>2026-09-02T10:01:09Z</time>
      </trkpt>
      <trkpt lat="44.69754" lon="7.09017">
        <ele>2287.9</ele>
        <time>2026-09-02T10:01:15Z</time>
      </trkpt>
      <trkpt lat="44.69754" lon="7.09017">
        <ele>2287.9</ele>
        <time>2026-09-02T10:01:20Z</time>
      </trkpt>
      <trkpt lat="44.69754" lon="7.09017">
        <ele>2287.9</ele>
        <time>2026-09-02T10:01:25Z</time>
      </trkpt>
      <trkpt lat="44.69754" lon="7.09017">
        <ele>2287.9</ele>
        <time>2026-09-02T10:01:31Z</time>
      </trkpt>
      <trkpt lat="44.69754" lon="7.09031">
        <ele>2281.4</ele>
        <time>2026-09-02T10:01:36Z</time>
      </trkpt>
      <trkpt lat="44.69761" lon="7.09037">
        <ele>2276.2</ele>
        <time>2026-09-02T10:01:41Z</time>
      </trkpt>
      <trkpt lat="44.69765" lon="7.09038">
        <ele>2274.3</ele>
        <time>2026-09-02T10:01:47Z</time>
      </trkpt>
      <trkpt lat="44.69767" lon="7.09041">
        <ele>2272.2</ele>
        <time>2026-09-02T10:01:52Z</time>
      </trkpt>
      <trkpt lat="44.69768" lon="7.0904">
        <ele>2272.3</ele>
        <time>2026-09-02T10:01:57Z</time>
      </trkpt>
      <trkpt lat="44.69767" lon="7.09033">
        <ele>2275.9</ele>
        <time>2026-09-02T10:02:03Z</time>
      </trkpt>
      <trkpt lat="44.69767" lon="7.09032">
        <ele>2276.4</ele>
        <time>2026-09-02T10:02:08Z</time>
      </trkpt>
      <trkpt lat="44.69767" lon="7.09032">
        <ele>2276.4</ele>
        <time>2026-09-02T10:02:13Z</time>
      </trkpt>
      <trkpt lat="44.69767" lon="7.09032">
        <ele>2276.4</ele>
        <time>2026-09-02T10:02:19Z</time>
      </trkpt>
      <trkpt lat="44.69767" lon="7.09032">
        <ele>2276.4</ele>
        <time>2026-09-02T10:02:24Z</time>
      </trkpt>
      <trkpt lat="44.69767" lon="7.09032">
        <ele>2276.4</ele>
        <time>2026-09-02T10:02:29Z</time>
      </trkpt>
      <trkpt lat="44.69764" lon="7.09019">
        <ele>2283.5</ele>
        <time>2026-09-02T10:02:35Z</time>
      </trkpt>
      <trkpt lat="44.69764" lon="7.09019">
        <ele>2283.5</ele>
        <time>2026-09-02T10:02:40Z</time>
      </trkpt>
      <trkpt lat="44.69764" lon="7.09019">
        <ele>2283.5</ele>
        <time>2026-09-02T10:02:45Z</time>
      </trkpt>
      <trkpt lat="44.69764" lon="7.09019">
        <ele>2283.5</ele>
        <time>2026-09-02T10:02:51Z</time>
      </trkpt>
      <trkpt lat="44.69764" lon="7.09019">
        <ele>2283.5</ele>
        <time>2026-09-02T10:02:56Z</time>
      </trkpt>
      <trkpt lat="44.69764" lon="7.09019">
        <ele>2283.5</ele>
        <time>2026-09-02T10:03:01Z</time>
      </trkpt>
      <trkpt lat="44.69764" lon="7.09019">
        <ele>2283.5</ele>
        <time>2026-09-02T10:03:07Z</time>
      </trkpt>
      <trkpt lat="44.69764" lon="7.09019">
        <ele>2283.5</ele>
        <time>2026-09-02T10:03:12Z</time>
      </trkpt>
      <trkpt lat="44.69764" lon="7.09019">
        <ele>2283.5</ele>
        <time>2026-09-02T10:03:17Z</time>
      </trkpt>
      <trkpt lat="44.69764" lon="7.09019">
        <ele>2283.5</ele>
        <time>2026-09-02T10:03:23Z</time>
      </trkpt>
      <trkpt lat="44.69764" lon="7.09019">
        <ele>2283.5</ele>
        <time>2026-09-02T10:03:28Z</time>
      </trkpt>
      <trkpt lat="44.69764" lon="7.09019">
        <ele>2283.5</ele>
        <time>2026-09-02T10:03:33Z</time>
      </trkpt>
      <trkpt lat="44.69764" lon="7.09019">
        <ele>2283.5</ele>
        <time>2026-09-02T10:03:39Z</time>
      </trkpt>
      <trkpt lat="44.69764" lon="7.09019">
        <ele>2283.5</ele>
        <time>2026-09-02T10:03:44Z</time>
      </trkpt>
      <trkpt lat="44.69764" lon="7.09019">
        <ele>2283.5</ele>
        <time>2026-09-02T10:03:49Z</time>
      </trkpt>
      <trkpt lat="44.69764" lon="7.09019">
        <ele>2283.5</ele>
        <time>2026-09-02T10:03:55Z</time>
      </trkpt>
      <trkpt lat="44.69776" lon="7.09018">
        <ele>2279.8</ele>
        <time>2026-09-02T10:04:00Z</time>
      </trkpt>
      <trkpt lat="44.69779" lon="7.09013">
        <ele>2281.1</ele>
        <time>2026-09-02T10:04:05Z</time>
      </trkpt>
      <trkpt lat="44.69782" lon="7.09009">
        <ele>2282</ele>
        <time>2026-09-02T10:04:11Z</time>
      </trkpt>
      <trkpt lat="44.69785" lon="7.09007">
        <ele>2281.9</ele>
        <time>2026-09-02T10:04:16Z</time>
      </trkpt>
      <trkpt lat="44.69789" lon="7.09006">
        <ele>2281</ele>
        <time>2026-09-02T10:04:21Z</time>
      </trkpt>
      <trkpt lat="44.69789" lon="7.09006">
        <ele>2281</ele>
        <time>2026-09-02T10:04:27Z</time>
      </trkpt>
      <trkpt lat="44.69789" lon="7.09006">
        <ele>2281</ele>
        <time>2026-09-02T10:04:32Z</time>
      </trkpt>
      <trkpt lat="44.69789" lon="7.09006">
        <ele>2281</ele>
        <time>2026-09-02T10:04:37Z</time>
      </trkpt>
      <trkpt lat="44.69789" lon="7.09006">
        <ele>2281</ele>
        <time>2026-09-02T10:04:43Z</time>
      </trkpt>
      <trkpt lat="44.69789" lon="7.09006">
        <ele>2281</ele>
        <time>2026-09-02T10:04:48Z</time>
      </trkpt>
      <trkpt lat="44.69789" lon="7.09006">
        <ele>2281</ele>
        <time>2026-09-02T10:04:53Z</time>
      </trkpt>
      <trkpt lat="44.69792" lon="7.09003">
        <ele>2281.4</ele>
        <time>2026-09-02T10:04:59Z</time>
      </trkpt>
      <trkpt lat="44.69793" lon="7.09003">
        <ele>2281.1</ele>
        <time>2026-09-02T10:05:04Z</time>
      </trkpt>
      <trkpt lat="44.69793" lon="7.09004">
        <ele>2280.6</ele>
        <time>2026-09-02T10:05:09Z</time>
      </trkpt>
      <trkpt lat="44.69793" lon="7.09004">
        <ele>2280.6</ele>
        <time>2026-09-02T10:05:15Z</time>
      </trkpt>
      <trkpt lat="44.69793" lon="7.09004">
        <ele>2280.6</ele>
        <time>2026-09-02T10:05:20Z</time>
      </trkpt>
      <trkpt lat="44.69794" lon="7.09006">
        <ele>2279.3</ele>
        <time>2026-09-02T10:05:25Z</time>
      </trkpt>
      <trkpt lat="44.69798" lon="7.09006">
        <ele>2278</ele>
        <time>2026-09-02T10:05:31Z</time>
      </trkpt>
      <trkpt lat="44.69805" lon="7.09002">
        <ele>2277.5</ele>
        <time>2026-09-02T10:05:36Z</time>
      </trkpt>
      <trkpt lat="44.69808" lon="7.08999">
        <ele>2277.8</ele>
        <time>2026-09-02T10:05:41Z</time>
      </trkpt>
      <trkpt lat="44.69811" lon="7.09003">
        <ele>2275</ele>
        <time>2026-09-02T10:05:47Z</time>
      </trkpt>
      <trkpt lat="44.69817" lon="7.09002">
        <ele>2273.5</ele>
        <time>2026-09-02T10:05:52Z</time>
      </trkpt>
      <trkpt lat="44.69819" lon="7.08997">
        <ele>2274.9</ele>
        <time>2026-09-02T10:05:57Z</time>
      </trkpt>
      <trkpt lat="44.69821" lon="7.08997">
        <ele>2274.3</ele>
        <time>2026-09-02T10:06:03Z</time>
      </trkpt>
      <trkpt lat="44.69823" lon="7.08996">
        <ele>2274</ele>
        <time>2026-09-02T10:06:08Z</time>
      </trkpt>
      <trkpt lat="44.69828" lon="7.08994">
        <ele>2273.1</ele>
        <time>2026-09-02T10:06:13Z</time>
      </trkpt>
      <trkpt lat="44.69832" lon="7.08991">
        <ele>2273.1</ele>
        <time>2026-09-02T10:06:19Z</time>
      </trkpt>
      <trkpt lat="44.69832" lon="7.08991">
        <ele>2273.1</ele>
        <time>2026-09-02T10:06:24Z</time>
      </trkpt>
      <trkpt lat="44.69832" lon="7.08991">
        <ele>2273.1</ele>
        <time>2026-09-02T10:06:29Z</time>
      </trkpt>
      <trkpt lat="44.69834" lon="7.08996">
        <ele>2270.1</ele>
        <time>2026-09-02T10:06:35Z</time>
      </trkpt>
      <trkpt lat="44.69837" lon="7.08997">
        <ele>2267.5</ele>
        <time>2026-09-02T10:06:40Z</time>
      </trkpt>
      <trkpt lat="44.69838" lon="7.08997">
        <ele>2266.7</ele>
        <time>2026-09-02T10:06:45Z</time>
      </trkpt>
      <trkpt lat="44.69842" lon="7.08994">
        <ele>2265.1</ele>
        <time>2026-09-02T10:06:51Z</time>
      </trkpt>
      <trkpt lat="44.69844" lon="7.08992">
        <ele>2264.6</ele>
        <time>2026-09-02T10:06:56Z</time>
      </trkpt>
      <trkpt lat="44.69847" lon="7.08993">
        <ele>2261.9</ele>
        <time>2026-09-02T10:07:01Z</time>
      </trkpt>
      <trkpt lat="44.69851" lon="7.08992">
        <ele>2259.5</ele>
        <time>2026-09-02T10:07:07Z</time>
      </trkpt>
      <trkpt lat="44.69852" lon="7.08991">
        <ele>2259.3</ele>
        <time>2026-09-02T10:07:12Z</time>
      </trkpt>
      <trkpt lat="44.69852" lon="7.08991">
        <ele>2259.3</ele>
        <time>2026-09-02T10:07:17Z</time>
      </trkpt>
      <trkpt lat="44.69852" lon="7.08991">
        <ele>2259.3</ele>
        <time>2026-09-02T10:07:23Z</time>
      </trkpt>
      <trkpt lat="44.69856" lon="7.08989">
        <ele>2257.5</ele>
        <time>2026-09-02T10:07:28Z</time>
      </trkpt>
      <trkpt lat="44.69861" lon="7.08987">
        <ele>2255.1</ele>
        <time>2026-09-02T10:07:33Z</time>
      </trkpt>
      <trkpt lat="44.69866" lon="7.08986">
        <ele>2252.3</ele>
        <time>2026-09-02T10:07:39Z</time>
      </trkpt>
      <trkpt lat="44.69869" lon="7.0899">
        <ele>2247.7</ele>
        <time>2026-09-02T10:07:44Z</time>
      </trkpt>
      <trkpt lat="44.69874" lon="7.08993">
        <ele>2242.3</ele>
        <time>2026-09-02T10:07:49Z</time>
      </trkpt>
      <trkpt lat="44.69877" lon="7.08992">
        <ele>2240.7</ele>
        <time>2026-09-02T10:07:55Z</time>
      </trkpt>
      <trkpt lat="44.69877" lon="7.08992">
        <ele>2240.7</ele>
        <time>2026-09-02T10:08:00Z</time>
      </trkpt>
      <trkpt lat="44.69878" lon="7.08992">
        <ele>2240</ele>
        <time>2026-09-02T10:08:05Z</time>
      </trkpt>
      <trkpt lat="44.69883" lon="7.08992">
        <ele>2236.4</ele>
        <time>2026-09-02T10:08:11Z</time>
      </trkpt>
      <trkpt lat="44.69889" lon="7.08989">
        <ele>2234.3</ele>
        <time>2026-09-02T10:08:16Z</time>
      </trkpt>
      <trkpt lat="44.69893" lon="7.08987">
        <ele>2232.9</ele>
        <time>2026-09-02T10:08:21Z</time>
      </trkpt>
      <trkpt lat="44.69895" lon="7.08986">
        <ele>2232.3</ele>
        <time>2026-09-02T10:08:27Z</time>
      </trkpt>
      <trkpt lat="44.69897" lon="7.08992">
        <ele>2226.3</ele>
        <time>2026-09-02T10:08:32Z</time>
      </trkpt>
      <trkpt lat="44.69898" lon="7.08993">
        <ele>2224.8</ele>
        <time>2026-09-02T10:08:37Z</time>
      </trkpt>
      <trkpt lat="44.69901" lon="7.08996">
        <ele>2220.2</ele>
        <time>2026-09-02T10:08:43Z</time>
      </trkpt>
      <trkpt lat="44.69903" lon="7.08999">
        <ele>2216.3</ele>
        <time>2026-09-02T10:08:48Z</time>
      </trkpt>
      <trkpt lat="44.69906" lon="7.08995">
        <ele>2217.3</ele>
        <time>2026-09-02T10:08:53Z</time>
      </trkpt>
      <trkpt lat="44.6991" lon="7.08994">
        <ele>2215.2</ele>
        <time>2026-09-02T10:08:59Z</time>
      </trkpt>
      <trkpt lat="44.69914" lon="7.08995">
        <ele>2211.4</ele>
        <time>2026-09-02T10:09:04Z</time>
      </trkpt>
      <trkpt lat="44.69919" lon="7.08994">
        <ele>2209.5</ele>
        <time>2026-09-02T10:09:09Z</time>
      </trkpt>
      <trkpt lat="44.69922" lon="7.0899">
        <ele>2212</ele>
        <time>2026-09-02T10:09:15Z</time>
      </trkpt>
      <trkpt lat="44.69924" lon="7.08989">
        <ele>2212.2</ele>
        <time>2026-09-02T10:09:20Z</time>
      </trkpt>
      <trkpt lat="44.69925" lon="7.08983">
        <ele>2217.2</ele>
        <time>2026-09-02T10:09:25Z</time>
      </trkpt>
      <trkpt lat="44.69929" lon="7.08981">
        <ele>2217.7</ele>
        <time>2026-09-02T10:09:31Z</time>
      </trkpt>
      <trkpt lat="44.6993" lon="7.08982">
        <ele>2216.4</ele>
        <time>2026-09-02T10:09:36Z</time>
      </trkpt>
      <trkpt lat="44.69932" lon="7.08984">
        <ele>2213.9</ele>
        <time>2026-09-02T10:09:41Z</time>
      </trkpt>
      <trkpt lat="44.69936" lon="7.08986">
        <ele>2210.7</ele>
        <time>2026-09-02T10:09:47Z</time>
      </trkpt>
      <trkpt lat="44.69938" lon="7.08987">
        <ele>2209</ele>
        <time>2026-09-02T10:09:52Z</time>
      </trkpt>
      <trkpt lat="44.69941" lon="7.08982">
        <ele>2212.6</ele>
        <time>2026-09-02T10:09:57Z</time>
      </trkpt>
      <trkpt lat="44.69941" lon="7.08982">
        <ele>2212.6</ele>
        <time>2026-09-02T10:10:03Z</time>
      </trkpt>
      <trkpt lat="44.69941" lon="7.08982">
        <ele>2212.6</ele>
        <time>2026-09-02T10:10:08Z</time>
      </trkpt>
      <trkpt lat="44.69941" lon="7.08982">
        <ele>2212.6</ele>
        <time>2026-09-02T10:10:13Z</time>
      </trkpt>
      <trkpt lat="44.69941" lon="7.08982">
        <ele>2212.6</ele>
        <time>2026-09-02T10:10:19Z</time>
      </trkpt>
      <trkpt lat="44.69941" lon="7.08982">
        <ele>2212.6</ele>
        <time>2026-09-02T10:10:24Z</time>
      </trkpt>
      <trkpt lat="44.69953" lon="7.08983">
        <ele>2207.6</ele>
        <time>2026-09-02T10:10:29Z</time>
      </trkpt>
      <trkpt lat="44.69957" lon="7.08978">
        <ele>2210.9</ele>
        <time>2026-09-02T10:10:35Z</time>
      </trkpt>
      <trkpt lat="44.69958" lon="7.08978">
        <ele>2210.6</ele>
        <time>2026-09-02T10:10:40Z</time>
      </trkpt>
      <trkpt lat="44.69958" lon="7.08978">
        <ele>2210.6</ele>
        <time>2026-09-02T10:10:45Z</time>
      </trkpt>
      <trkpt lat="44.69958" lon="7.08986">
        <ele>2203</ele>
        <time>2026-09-02T10:10:51Z</time>
      </trkpt>
      <trkpt lat="44.69963" lon="7.08979">
        <ele>2208</ele>
        <time>2026-09-02T10:10:56Z</time>
      </trkpt>
      <trkpt lat="44.69965" lon="7.08979">
        <ele>2207.3</ele>
        <time>2026-09-02T10:11:01Z</time>
      </trkpt>
      <trkpt lat="44.69969" lon="7.08983">
        <ele>2202</ele>
        <time>2026-09-02T10:11:07Z</time>
      </trkpt>
      <trkpt lat="44.69971" lon="7.08981">
        <ele>2203.3</ele>
        <time>2026-09-02T10:11:12Z</time>
      </trkpt>
      <trkpt lat="44.69977" lon="7.08981">
        <ele>2201.2</ele>
        <time>2026-09-02T10:11:17Z</time>
      </trkpt>
      <trkpt lat="44.69979" lon="7.08977">
        <ele>2204.5</ele>
        <time>2026-09-02T10:11:23Z</time>
      </trkpt>
      <trkpt lat="44.69978" lon="7.08972">
        <ele>2209.8</ele>
        <time>2026-09-02T10:11:28Z</time>
      </trkpt>
      <trkpt lat="44.69976" lon="7.08968">
        <ele>2214.4</ele>
        <time>2026-09-02T10:11:33Z</time>
      </trkpt>
      <trkpt lat="44.69976" lon="7.08968">
        <ele>2214.4</ele>
        <time>2026-09-02T10:11:39Z</time>
      </trkpt>
      <trkpt lat="44.69976" lon="7.08968">
        <ele>2214.4</ele>
        <time>2026-09-02T10:11:44Z</time>
      </trkpt>
      <trkpt lat="44.69981" lon="7.08969">
        <ele>2211.8</ele>
        <time>2026-09-02T10:11:49Z</time>
      </trkpt>
      <trkpt lat="44.69985" lon="7.08966">
        <ele>2213.5</ele>
        <time>2026-09-02T10:11:55Z</time>
      </trkpt>
      <trkpt lat="44.69989" lon="7.08967">
        <ele>2211.2</ele>
        <time>2026-09-02T10:12:00Z</time>
      </trkpt>
      <trkpt lat="44.69993" lon="7.0897">
        <ele>2206.9</ele>
        <time>2026-09-02T10:12:05Z</time>
      </trkpt>
      <trkpt lat="44.69999" lon="7.08969">
        <ele>2205.9</ele>
        <time>2026-09-02T10:12:11Z</time>
      </trkpt>
      <trkpt lat="44.70002" lon="7.08971">
        <ele>2202.6</ele>
        <time>2026-09-02T10:12:16Z</time>
      </trkpt>
      <trkpt lat="44.70004" lon="7.08966">
        <ele>2206.6</ele>
        <time>2026-09-02T10:12:21Z</time>
      </trkpt>
      <trkpt lat="44.7001" lon="7.08966">
        <ele>2203.6</ele>
        <time>2026-09-02T10:12:27Z</time>
      </trkpt>
      <trkpt lat="44.70017" lon="7.08966">
        <ele>2200</ele>
        <time>2026-09-02T10:12:32Z</time>
      </trkpt>
      <trkpt lat="44.7002" lon="7.08966">
        <ele>2198.4</ele>
        <time>2026-09-02T10:12:37Z</time>
      </trkpt>
      <trkpt lat="44.70023" lon="7.08968">
        <ele>2194.9</ele>
        <time>2026-09-02T10:12:43Z</time>
      </trkpt>
      <trkpt lat="44.70029" lon="7.08964">
        <ele>2195.8</ele>
        <time>2026-09-02T10:12:48Z</time>
      </trkpt>
      <trkpt lat="44.70034" lon="7.08967">
        <ele>2190.3</ele>
        <time>2026-09-02T10:12:53Z</time>
      </trkpt>
      <trkpt lat="44.70039" lon="7.08967">
        <ele>2187.7</ele>
        <time>2026-09-02T10:12:59Z</time>
      </trkpt>
      <trkpt lat="44.70043" lon="7.0897">
        <ele>2182.8</ele>
        <time>2026-09-02T10:13:04Z</time>
      </trkpt>
      <trkpt lat="44.70049" lon="7.08969">
        <ele>2180.7</ele>
        <time>2026-09-02T10:13:09Z</time>
      </trkpt>
      <trkpt lat="44.70054" lon="7.08968">
        <ele>2179.1</ele>
        <time>2026-09-02T10:13:15Z</time>
      </trkpt>
      <trkpt lat="44.7006" lon="7.08971">
        <ele>2173.2</ele>
        <time>2026-09-02T10:13:20Z</time>
      </trkpt>
      <trkpt lat="44.70064" lon="7.08971">
        <ele>2171.2</ele>
        <time>2026-09-02T10:13:25Z</time>
      </trkpt>
      <trkpt lat="44.70068" lon="7.0897">
        <ele>2170.1</ele>
        <time>2026-09-02T10:13:31Z</time>
      </trkpt>
      <trkpt lat="44.70073" lon="7.08972">
        <ele>2165.7</ele>
        <time>2026-09-02T10:13:36Z</time>
      </trkpt>
      <trkpt lat="44.70077" lon="7.08972">
        <ele>2163.7</ele>
        <time>2026-09-02T10:13:41Z</time>
      </trkpt>
      <trkpt lat="44.70081" lon="7.08971">
        <ele>2162.6</ele>
        <time>2026-09-02T10:13:47Z</time>
      </trkpt>
      <trkpt lat="44.70087" lon="7.08966">
        <ele>2164.6</ele>
        <time>2026-09-02T10:13:52Z</time>
      </trkpt>
      <trkpt lat="44.70092" lon="7.08959">
        <ele>2168.8</ele>
        <time>2026-09-02T10:13:57Z</time>
      </trkpt>
      <trkpt lat="44.70101" lon="7.08957">
        <ele>2166.7</ele>
        <time>2026-09-02T10:14:03Z</time>
      </trkpt>
      <trkpt lat="44.70102" lon="7.08953">
        <ele>2169.4</ele>
        <time>2026-09-02T10:14:08Z</time>
      </trkpt>
      <trkpt lat="44.70102" lon="7.08951">
        <ele>2171</ele>
        <time>2026-09-02T10:14:13Z</time>
      </trkpt>
      <trkpt lat="44.70105" lon="7.08946">
        <ele>2173.5</ele>
        <time>2026-09-02T10:14:19Z</time>
      </trkpt>
      <trkpt lat="44.70106" lon="7.08943">
        <ele>2175.4</ele>
        <time>2026-09-02T10:14:24Z</time>
      </trkpt>
      <trkpt lat="44.7011" lon="7.08944">
        <ele>2172.6</ele>
        <time>2026-09-02T10:14:29Z</time>
      </trkpt>
      <trkpt lat="44.70116" lon="7.08948">
        <ele>2166.7</ele>
        <time>2026-09-02T10:14:35Z</time>
      </trkpt>
      <trkpt lat="44.7012" lon="7.08947">
        <ele>2165.4</ele>
        <time>2026-09-02T10:14:40Z</time>
      </trkpt>
      <trkpt lat="44.70124" lon="7.08949">
        <ele>2162.1</ele>
        <time>2026-09-02T10:14:45Z</time>
      </trkpt>
      <trkpt lat="44.70127" lon="7.08942">
        <ele>2165.2</ele>
        <time>2026-09-02T10:14:51Z</time>
      </trkpt>
      <trkpt lat="44.7013" lon="7.08944">
        <ele>2162.4</ele>
        <time>2026-09-02T10:14:56Z</time>
      </trkpt>
      <trkpt lat="44.70131" lon="7.08949">
        <ele>2158.8</ele>
        <time>2026-09-02T10:15:01Z</time>
      </trkpt>
      <trkpt lat="44.70133" lon="7.08955">
        <ele>2154.2</ele>
        <time>2026-09-02T10:15:07Z</time>
      </trkpt>
      <trkpt lat="44.70134" lon="7.08958">
        <ele>2151.9</ele>
        <time>2026-09-02T10:15:12Z</time>
      </trkpt>
      <trkpt lat="44.70133" lon="7.0896">
        <ele>2151.1</ele>
        <time>2026-09-02T10:15:17Z</time>
      </trkpt>
      <trkpt lat="44.70133" lon="7.0896">
        <ele>2151.1</ele>
        <time>2026-09-02T10:15:23Z</time>
      </trkpt>
      <trkpt lat="44.70133" lon="7.0896">
        <ele>2151.1</ele>
        <time>2026-09-02T10:15:28Z</time>
      </trkpt>
      <trkpt lat="44.70133" lon="7.0896">
        <ele>2151.1</ele>
        <time>2026-09-02T10:15:33Z</time>
      </trkpt>
      <trkpt lat="44.70133" lon="7.0896">
        <ele>2151.1</ele>
        <time>2026-09-02T10:15:39Z</time>
      </trkpt>
      <trkpt lat="44.70133" lon="7.0896">
        <ele>2151.1</ele>
        <time>2026-09-02T10:15:44Z</time>
      </trkpt>
      <trkpt lat="44.70145" lon="7.08956">
        <ele>2148.4</ele>
        <time>2026-09-02T10:15:49Z</time>
      </trkpt>
      <trkpt lat="44.70148" lon="7.0895">
        <ele>2150.2</ele>
        <time>2026-09-02T10:15:55Z</time>
      </trkpt>
      <trkpt lat="44.70154" lon="7.08959">
        <ele>2143</ele>
        <time>2026-09-02T10:16:00Z</time>
      </trkpt>
      <trkpt lat="44.70159" lon="7.08958">
        <ele>2141.4</ele>
        <time>2026-09-02T10:16:05Z</time>
      </trkpt>
      <trkpt lat="44.70162" lon="7.08951">
        <ele>2143.2</ele>
        <time>2026-09-02T10:16:11Z</time>
      </trkpt>
      <trkpt lat="44.70165" lon="7.08945">
        <ele>2144.3</ele>
        <time>2026-09-02T10:16:16Z</time>
      </trkpt>
      <trkpt lat="44.7017" lon="7.08945">
        <ele>2143.2</ele>
        <time>2026-09-02T10:16:21Z</time>
      </trkpt>
      <trkpt lat="44.70176" lon="7.08948">
        <ele>2141.5</ele>
        <time>2026-09-02T10:16:27Z</time>
      </trkpt>
      <trkpt lat="44.70178" lon="7.08943">
        <ele>2143.3</ele>
        <time>2026-09-02T10:16:32Z</time>
      </trkpt>
      <trkpt lat="44.7018" lon="7.08942">
        <ele>2143.6</ele>
        <time>2026-09-02T10:16:37Z</time>
      </trkpt>
      <trkpt lat="44.70183" lon="7.08941">
        <ele>2143.7</ele>
        <time>2026-09-02T10:16:43Z</time>
      </trkpt>
      <trkpt lat="44.70188" lon="7.0894">
        <ele>2143.6</ele>
        <time>2026-09-02T10:16:48Z</time>
      </trkpt>
      <trkpt lat="44.70191" lon="7.08941">
        <ele>2143</ele>
        <time>2026-09-02T10:16:53Z</time>
      </trkpt>
      <trkpt lat="44.70194" lon="7.08946">
        <ele>2140.9</ele>
        <time>2026-09-02T10:16:59Z</time>
      </trkpt>
      <trkpt lat="44.70194" lon="7.08947">
        <ele>2140.5</ele>
        <time>2026-09-02T10:17:04Z</time>
      </trkpt>
      <trkpt lat="44.70193" lon="7.08948">
        <ele>2140.2</ele>
        <time>2026-09-02T10:17:09Z</time>
      </trkpt>
      <trkpt lat="44.70193" lon="7.08948">
        <ele>2140.2</ele>
        <time>2026-09-02T10:17:15Z</time>
      </trkpt>
      <trkpt lat="44.70193" lon="7.08948">
        <ele>2140.2</ele>
        <time>2026-09-02T10:17:20Z</time>
      </trkpt>
      <trkpt lat="44.70193" lon="7.08948">
        <ele>2140.2</ele>
        <time>2026-09-02T10:17:25Z</time>
      </trkpt>
      <trkpt lat="44.70193" lon="7.08948">
        <ele>2140.2</ele>
        <time>2026-09-02T10:17:31Z</time>
      </trkpt>
      <trkpt lat="44.70193" lon="7.08948">
        <ele>2140.2</ele>
        <time>2026-09-02T10:17:36Z</time>
      </trkpt>
      <trkpt lat="44.70193" lon="7.08948">
        <ele>2140.2</ele>
        <time>2026-09-02T10:17:41Z</time>
      </trkpt>
      <trkpt lat="44.70193" lon="7.08948">
        <ele>2140.2</ele>
        <time>2026-09-02T10:17:47Z</time>
      </trkpt>
      <trkpt lat="44.70193" lon="7.08948">
        <ele>2140.2</ele>
        <time>2026-09-02T10:17:52Z</time>
      </trkpt>
      <trkpt lat="44.70193" lon="7.08948">
        <ele>2140.2</ele>
        <time>2026-09-02T10:17:57Z</time>
      </trkpt>
      <trkpt lat="44.70193" lon="7.08948">
        <ele>2140.2</ele>
        <time>2026-09-02T10:18:03Z</time>
      </trkpt>
      <trkpt lat="44.70193" lon="7.08948">
        <ele>2140.2</ele>
        <time>2026-09-02T10:18:08Z</time>
      </trkpt>
      <trkpt lat="44.70193" lon="7.08948">
        <ele>2140.2</ele>
        <time>2026-09-02T10:18:13Z</time>
      </trkpt>
      <trkpt lat="44.70193" lon="7.08948">
        <ele>2140.2</ele>
        <time>2026-09-02T10:18:19Z</time>
      </trkpt>
      <trkpt lat="44.70193" lon="7.08948">
        <ele>2140.2</ele>
        <time>2026-09-02T10:18:24Z</time>
      </trkpt>
      <trkpt lat="44.70193" lon="7.08948">
        <ele>2140.2</ele>
        <time>2026-09-02T10:18:29Z</time>
      </trkpt>
      <trkpt lat="44.70193" lon="7.08948">
        <ele>2140.2</ele>
        <time>2026-09-02T10:18:35Z</time>
      </trkpt>
      <trkpt lat="44.70193" lon="7.08948">
        <ele>2140.2</ele>
        <time>2026-09-02T10:18:40Z</time>
      </trkpt>
      <trkpt lat="44.70193" lon="7.08948">
        <ele>2140.2</ele>
        <time>2026-09-02T10:18:45Z</time>
      </trkpt>
      <trkpt lat="44.70193" lon="7.08948">
        <ele>2140.2</ele>
        <time>2026-09-02T10:18:51Z</time>
      </trkpt>
      <trkpt lat="44.70193" lon="7.08948">
        <ele>2140.2</ele>
        <time>2026-09-02T10:18:56Z</time>
      </trkpt>
      <trkpt lat="44.70193" lon="7.08948">
        <ele>2140.2</ele>
        <time>2026-09-02T10:19:01Z</time>
      </trkpt>
      <trkpt lat="44.70193" lon="7.08948">
        <ele>2140.2</ele>
        <time>2026-09-02T10:19:07Z</time>
      </trkpt>
      <trkpt lat="44.70193" lon="7.08948">
        <ele>2140.2</ele>
        <time>2026-09-02T10:19:12Z</time>
      </trkpt>
      <trkpt lat="44.70193" lon="7.08948">
        <ele>2140.2</ele>
        <time>2026-09-02T10:19:17Z</time>
      </trkpt>
      <trkpt lat="44.70193" lon="7.08948">
        <ele>2140.2</ele>
        <time>2026-09-02T10:19:23Z</time>
      </trkpt>
      <trkpt lat="44.70193" lon="7.08948">
        <ele>2140.2</ele>
        <time>2026-09-02T10:19:28Z</time>
      </trkpt>
      <trkpt lat="44.7019" lon="7.08955">
        <ele>2137.8</ele>
        <time>2026-09-02T10:19:33Z</time>
      </trkpt>
      <trkpt lat="44.70191" lon="7.08962">
        <ele>2135.2</ele>
        <time>2026-09-02T10:19:39Z</time>
      </trkpt>
      <trkpt lat="44.70192" lon="7.08964">
        <ele>2134.4</ele>
        <time>2026-09-02T10:19:44Z</time>
      </trkpt>
      <trkpt lat="44.70191" lon="7.08963">
        <ele>2134.8</ele>
        <time>2026-09-02T10:19:49Z</time>
      </trkpt>
      <trkpt lat="44.70191" lon="7.08963">
        <ele>2134.8</ele>
        <time>2026-09-02T10:19:55Z</time>
      </trkpt>
      <trkpt lat="44.70191" lon="7.08963">
        <ele>2134.8</ele>
        <time>2026-09-02T10:20:00Z</time>
      </trkpt>
      <trkpt lat="44.70191" lon="7.08963">
        <ele>2134.8</ele>
        <time>2026-09-02T10:20:05Z</time>
      </trkpt>
      <trkpt lat="44.70191" lon="7.08963">
        <ele>2134.8</ele>
        <time>2026-09-02T10:20:11Z</time>
      </trkpt>
      <trkpt lat="44.70191" lon="7.08963">
        <ele>2134.8</ele>
        <time>2026-09-02T10:20:16Z</time>
      </trkpt>
      <trkpt lat="44.70191" lon="7.08963">
        <ele>2134.8</ele>
        <time>2026-09-02T10:20:21Z</time>
      </trkpt>
      <trkpt lat="44.70191" lon="7.08963">
        <ele>2134.8</ele>
        <time>2026-09-02T10:20:27Z</time>
      </trkpt>
      <trkpt lat="44.70193" lon="7.0896">
        <ele>2135.8</ele>
        <time>2026-09-02T10:20:32Z</time>
      </trkpt>
      <trkpt lat="44.70193" lon="7.08959">
        <ele>2136.2</ele>
        <time>2026-09-02T10:20:37Z</time>
      </trkpt>
      <trkpt lat="44.70193" lon="7.08959">
        <ele>2136.2</ele>
        <time>2026-09-02T10:20:43Z</time>
      </trkpt>
      <trkpt lat="44.70193" lon="7.08959">
        <ele>2136.2</ele>
        <time>2026-09-02T10:20:48Z</time>
      </trkpt>
      <trkpt lat="44.70193" lon="7.08959">
        <ele>2136.2</ele>
        <time>2026-09-02T10:20:53Z</time>
      </trkpt>
      <trkpt lat="44.70193" lon="7.08959">
        <ele>2136.2</ele>
        <time>2026-09-02T10:20:59Z</time>
      </trkpt>
      <trkpt lat="44.70193" lon="7.08959">
        <ele>2136.2</ele>
        <time>2026-09-02T10:21:04Z</time>
      </trkpt>
      <trkpt lat="44.70193" lon="7.08959">
        <ele>2136.2</ele>
        <time>2026-09-02T10:21:09Z</time>
      </trkpt>
      <trkpt lat="44.70193" lon="7.08959">
        <ele>2136.2</ele>
        <time>2026-09-02T10:21:15Z</time>
      </trkpt>
      <trkpt lat="44.70193" lon="7.08959">
        <ele>2136.2</ele>
        <time>2026-09-02T10:21:20Z</time>
      </trkpt>
      <trkpt lat="44.70193" lon="7.08959">
        <ele>2136.2</ele>
        <time>2026-09-02T10:21:25Z</time>
      </trkpt>
      <trkpt lat="44.70193" lon="7.08959">
        <ele>2136.2</ele>
        <time>2026-09-02T10:21:31Z</time>
      </trkpt>
      <trkpt lat="44.70193" lon="7.08959">
        <ele>2136.2</ele>
        <time>2026-09-02T10:21:36Z</time>
      </trkpt>
      <trkpt lat="44.70193" lon="7.08959">
        <ele>2136.2</ele>
        <time>2026-09-02T10:21:41Z</time>
      </trkpt>
      <trkpt lat="44.70193" lon="7.08959">
        <ele>2136.2</ele>
        <time>2026-09-02T10:21:47Z</time>
      </trkpt>
      <trkpt lat="44.70193" lon="7.08959">
        <ele>2136.2</ele>
        <time>2026-09-02T10:21:52Z</time>
      </trkpt>
      <trkpt lat="44.70193" lon="7.08959">
        <ele>2136.2</ele>
        <time>2026-09-02T10:21:57Z</time>
      </trkpt>
      <trkpt lat="44.70193" lon="7.08959">
        <ele>2136.2</ele>
        <time>2026-09-02T10:22:03Z</time>
      </trkpt>
      <trkpt lat="44.70193" lon="7.08959">
        <ele>2136.2</ele>
        <time>2026-09-02T10:22:08Z</time>
      </trkpt>
      <trkpt lat="44.70193" lon="7.08959">
        <ele>2136.2</ele>
        <time>2026-09-02T10:22:13Z</time>
      </trkpt>
      <trkpt lat="44.70193" lon="7.08959">
        <ele>2136.2</ele>
        <time>2026-09-02T10:22:19Z</time>
      </trkpt>
      <trkpt lat="44.70193" lon="7.08959">
        <ele>2136.2</ele>
        <time>2026-09-02T10:22:24Z</time>
      </trkpt>
      <trkpt lat="44.70193" lon="7.08959">
        <ele>2136.2</ele>
        <time>2026-09-02T10:22:29Z</time>
      </trkpt>
      <trkpt lat="44.70193" lon="7.08959">
        <ele>2136.2</ele>
        <time>2026-09-02T10:22:35Z</time>
      </trkpt>
      <trkpt lat="44.70193" lon="7.08959">
        <ele>2136.2</ele>
        <time>2026-09-02T10:22:40Z</time>
      </trkpt>
      <trkpt lat="44.70193" lon="7.08959">
        <ele>2136.2</ele>
        <time>2026-09-02T10:22:45Z</time>
      </trkpt>
      <trkpt lat="44.70193" lon="7.08959">
        <ele>2136.2</ele>
        <time>2026-09-02T10:22:51Z</time>
      </trkpt>
      <trkpt lat="44.70193" lon="7.08959">
        <ele>2136.2</ele>
        <time>2026-09-02T10:22:56Z</time>
      </trkpt>
      <trkpt lat="44.70193" lon="7.08959">
        <ele>2136.2</ele>
        <time>2026-09-02T10:23:01Z</time>
      </trkpt>
      <trkpt lat="44.70193" lon="7.08959">
        <ele>2136.2</ele>
        <time>2026-09-02T10:23:07Z</time>
      </trkpt>
      <trkpt lat="44.70193" lon="7.08959">
        <ele>2136.2</ele>
        <time>2026-09-02T10:23:12Z</time>
      </trkpt>
      <trkpt lat="44.70193" lon="7.08959">
        <ele>2136.2</ele>
        <time>2026-09-02T10:23:17Z</time>
      </trkpt>
      <trkpt lat="44.70193" lon="7.08959">
        <ele>2136.2</ele>
        <time>2026-09-02T10:23:23Z</time>
      </trkpt>
      <trkpt lat="44.70193" lon="7.08959">
        <ele>2136.2</ele>
        <time>2026-09-02T10:23:28Z</time>
      </trkpt>
      <trkpt lat="44.70193" lon="7.08959">
        <ele>2136.2</ele>
        <time>2026-09-02T10:23:33Z</time>
      </trkpt>
      <trkpt lat="44.70193" lon="7.08959">
        <ele>2136.2</ele>
        <time>2026-09-02T10:23:39Z</time>
      </trkpt>
      <trkpt lat="44.70193" lon="7.08959">
        <ele>2136.2</ele>
        <time>2026-09-02T10:23:44Z</time>
      </trkpt>
      <trkpt lat="44.70193" lon="7.08959">
        <ele>2136.2</ele>
        <time>2026-09-02T10:23:49Z</time>
      </trkpt>
      <trkpt lat="44.70193" lon="7.08959">
        <ele>2136.2</ele>
        <time>2026-09-02T10:23:55Z</time>
      </trkpt>
      <trkpt lat="44.70193" lon="7.08959">
        <ele>2136.2</ele>
        <time>2026-09-02T10:24:00Z</time>
      </trkpt>
      <trkpt lat="44.70193" lon="7.08959">
        <ele>2136.2</ele>
        <time>2026-09-02T10:24:05Z</time>
      </trkpt>
      <trkpt lat="44.70193" lon="7.08959">
        <ele>2136.2</ele>
        <time>2026-09-02T10:24:11Z</time>
      </trkpt>
      <trkpt lat="44.70193" lon="7.08959">
        <ele>2136.2</ele>
        <time>2026-09-02T10:24:16Z</time>
      </trkpt>
      <trkpt lat="44.70193" lon="7.08959">
        <ele>2136.2</ele>
        <time>2026-09-02T10:24:21Z</time>
      </trkpt>
      <trkpt lat="44.70193" lon="7.08959">
        <ele>2136.2</ele>
        <time>2026-09-02T10:24:27Z</time>
      </trkpt>
      <trkpt lat="44.70193" lon="7.08959">
        <ele>2136.2</ele>
        <time>2026-09-02T10:24:32Z</time>
      </trkpt>
      <trkpt lat="44.70198" lon="7.08954">
        <ele>2137.7</ele>
        <time>2026-09-02T10:24:37Z</time>
      </trkpt>
      <trkpt lat="44.70202" lon="7.08951">
        <ele>2138.5</ele>
        <time>2026-09-02T10:24:43Z</time>
      </trkpt>
      <trkpt lat="44.70204" lon="7.08947">
        <ele>2139.8</ele>
        <time>2026-09-02T10:24:48Z</time>
      </trkpt>
      <trkpt lat="44.70207" lon="7.08943">
        <ele>2140.9</ele>
        <time>2026-09-02T10:24:53Z</time>
      </trkpt>
      <trkpt lat="44.70208" lon="7.08939">
        <ele>2142.3</ele>
        <time>2026-09-02T10:24:59Z</time>
      </trkpt>
      <trkpt lat="44.7021" lon="7.08935">
        <ele>2143.5</ele>
        <time>2026-09-02T10:25:04Z</time>
      </trkpt>
      <trkpt lat="44.70213" lon="7.08928">
        <ele>2145.6</ele>
        <time>2026-09-02T10:25:09Z</time>
      </trkpt>
      <trkpt lat="44.70214" lon="7.08921">
        <ele>2147.8</ele>
        <time>2026-09-02T10:25:15Z</time>
      </trkpt>
      <trkpt lat="44.70214" lon="7.08917">
        <ele>2149.2</ele>
        <time>2026-09-02T10:25:20Z</time>
      </trkpt>
      <trkpt lat="44.70215" lon="7.08915">
        <ele>2149.8</ele>
        <time>2026-09-02T10:25:25Z</time>
      </trkpt>
      <trkpt lat="44.70215" lon="7.08915">
        <ele>2149.8</ele>
        <time>2026-09-02T10:25:31Z</time>
      </trkpt>
      <trkpt lat="44.70215" lon="7.08915">
        <ele>2149.8</ele>
        <time>2026-09-02T10:25:36Z</time>
      </trkpt>
      <trkpt lat="44.70215" lon="7.08915">
        <ele>2149.8</ele>
        <time>2026-09-02T10:25:41Z</time>
      </trkpt>
      <trkpt lat="44.70215" lon="7.08915">
        <ele>2149.8</ele>
        <time>2026-09-02T10:25:47Z</time>
      </trkpt>
      <trkpt lat="44.70215" lon="7.08915">
        <ele>2149.8</ele>
        <time>2026-09-02T10:25:52Z</time>
      </trkpt>
      <trkpt lat="44.70215" lon="7.08915">
        <ele>2149.8</ele>
        <time>2026-09-02T10:25:57Z</time>
      </trkpt>
      <trkpt lat="44.70215" lon="7.08915">
        <ele>2149.8</ele>
        <time>2026-09-02T10:26:03Z</time>
      </trkpt>
      <trkpt lat="44.70215" lon="7.08915">
        <ele>2149.8</ele>
        <time>2026-09-02T10:26:08Z</time>
      </trkpt>
      <trkpt lat="44.70215" lon="7.08915">
        <ele>2149.8</ele>
        <time>2026-09-02T10:26:13Z</time>
      </trkpt>
      <trkpt lat="44.70215" lon="7.08915">
        <ele>2149.8</ele>
        <time>2026-09-02T10:26:19Z</time>
      </trkpt>
      <trkpt lat="44.70215" lon="7.08915">
        <ele>2149.8</ele>
        <time>2026-09-02T10:26:24Z</time>
      </trkpt>
      <trkpt lat="44.70215" lon="7.08915">
        <ele>2149.8</ele>
        <time>2026-09-02T10:26:29Z</time>
      </trkpt>
      <trkpt lat="44.70215" lon="7.08915">
        <ele>2149.8</ele>
        <time>2026-09-02T10:26:35Z</time>
      </trkpt>
      <trkpt lat="44.70215" lon="7.08915">
        <ele>2149.8</ele>
        <time>2026-09-02T10:26:40Z</time>
      </trkpt>
      <trkpt lat="44.70215" lon="7.08915">
        <ele>2149.8</ele>
        <time>2026-09-02T10:26:45Z</time>
      </trkpt>
      <trkpt lat="44.70215" lon="7.08915">
        <ele>2149.8</ele>
        <time>2026-09-02T10:26:51Z</time>
      </trkpt>
      <trkpt lat="44.70215" lon="7.08915">
        <ele>2149.8</ele>
        <time>2026-09-02T10:26:56Z</time>
      </trkpt>
      <trkpt lat="44.70215" lon="7.08915">
        <ele>2149.8</ele>
        <time>2026-09-02T10:27:01Z</time>
      </trkpt>
      <trkpt lat="44.70215" lon="7.08915">
        <ele>2149.8</ele>
        <time>2026-09-02T10:27:07Z</time>
      </trkpt>
      <trkpt lat="44.70215" lon="7.08915">
        <ele>2149.8</ele>
        <time>2026-09-02T10:27:12Z</time>
      </trkpt>
      <trkpt lat="44.70215" lon="7.08915">
        <ele>2149.8</ele>
        <time>2026-09-02T10:27:17Z</time>
      </trkpt>
      <trkpt lat="44.70215" lon="7.08915">
        <ele>2149.8</ele>
        <time>2026-09-02T10:27:23Z</time>
      </trkpt>
      <trkpt lat="44.70215" lon="7.08915">
        <ele>2149.8</ele>
        <time>2026-09-02T10:27:28Z</time>
      </trkpt>
      <trkpt lat="44.70215" lon="7.08915">
        <ele>2149.8</ele>
        <time>2026-09-02T10:27:33Z</time>
      </trkpt>
      <trkpt lat="44.70215" lon="7.08915">
        <ele>2149.8</ele>
        <time>2026-09-02T10:27:39Z</time>
      </trkpt>
      <trkpt lat="44.70215" lon="7.08915">
        <ele>2149.8</ele>
        <time>2026-09-02T10:27:44Z</time>
      </trkpt>
      <trkpt lat="44.70215" lon="7.08915">
        <ele>2149.8</ele>
        <time>2026-09-02T10:27:49Z</time>
      </trkpt>
      <trkpt lat="44.70215" lon="7.08915">
        <ele>2149.8</ele>
        <time>2026-09-02T10:27:55Z</time>
      </trkpt>
      <trkpt lat="44.70215" lon="7.08915">
        <ele>2149.8</ele>
        <time>2026-09-02T10:28:00Z</time>
      </trkpt>
      <trkpt lat="44.70215" lon="7.08915">
        <ele>2149.8</ele>
        <time>2026-09-02T10:28:05Z</time>
      </trkpt>
      <trkpt lat="44.70215" lon="7.08915">
        <ele>2149.8</ele>
        <time>2026-09-02T10:28:11Z</time>
      </trkpt>
      <trkpt lat="44.70215" lon="7.08915">
        <ele>2149.8</ele>
        <time>2026-09-02T10:28:16Z</time>
      </trkpt>
      <trkpt lat="44.70215" lon="7.08915">
        <ele>2149.8</ele>
        <time>2026-09-02T10:28:21Z</time>
      </trkpt>
      <trkpt lat="44.70215" lon="7.08915">
        <ele>2149.8</ele>
        <time>2026-09-02T10:28:27Z</time>
      </trkpt>
      <trkpt lat="44.70215" lon="7.08915">
        <ele>2149.8</ele>
        <time>2026-09-02T10:28:32Z</time>
      </trkpt>
      <trkpt lat="44.70215" lon="7.08915">
        <ele>2149.8</ele>
        <time>2026-09-02T10:28:37Z</time>
      </trkpt>
      <trkpt lat="44.70215" lon="7.08915">
        <ele>2149.8</ele>
        <time>2026-09-02T10:28:43Z</time>
      </trkpt>
      <trkpt lat="44.70215" lon="7.08915">
        <ele>2149.8</ele>
        <time>2026-09-02T10:28:48Z</time>
      </trkpt>
      <trkpt lat="44.70215" lon="7.08915">
        <ele>2149.8</ele>
        <time>2026-09-02T10:28:53Z</time>
      </trkpt>
      <trkpt lat="44.70215" lon="7.08915">
        <ele>2149.8</ele>
        <time>2026-09-02T10:28:59Z</time>
      </trkpt>
      <trkpt lat="44.70215" lon="7.08915">
        <ele>2149.8</ele>
        <time>2026-09-02T10:29:04Z</time>
      </trkpt>
      <trkpt lat="44.70215" lon="7.08915">
        <ele>2149.8</ele>
        <time>2026-09-02T10:29:09Z</time>
      </trkpt>
      <trkpt lat="44.70215" lon="7.08915">
        <ele>2149.8</ele>
        <time>2026-09-02T10:29:15Z</time>
      </trkpt>
      <trkpt lat="44.70215" lon="7.08915">
        <ele>2149.8</ele>
        <time>2026-09-02T10:29:20Z</time>
      </trkpt>
      <trkpt lat="44.70215" lon="7.08915">
        <ele>2149.8</ele>
        <time>2026-09-02T10:29:25Z</time>
      </trkpt>
      <trkpt lat="44.70215" lon="7.08915">
        <ele>2149.8</ele>
        <time>2026-09-02T10:29:31Z</time>
      </trkpt>
      <trkpt lat="44.70215" lon="7.08915">
        <ele>2149.8</ele>
        <time>2026-09-02T10:29:36Z</time>
      </trkpt>
      <trkpt lat="44.70215" lon="7.08915">
        <ele>2149.8</ele>
        <time>2026-09-02T10:29:41Z</time>
      </trkpt>
      <trkpt lat="44.70215" lon="7.08915">
        <ele>2149.8</ele>
        <time>2026-09-02T10:29:47Z</time>
      </trkpt>
      <trkpt lat="44.70215" lon="7.08915">
        <ele>2149.8</ele>
        <time>2026-09-02T10:29:52Z</time>
      </trkpt>
      <trkpt lat="44.70215" lon="7.08915">
        <ele>2149.8</ele>
        <time>2026-09-02T10:29:57Z</time>
      </trkpt>
      <trkpt lat="44.70215" lon="7.08915">
        <ele>2149.8</ele>
        <time>2026-09-02T10:30:03Z</time>
      </trkpt>
      <trkpt lat="44.70215" lon="7.08915">
        <ele>2149.8</ele>
        <time>2026-09-02T10:30:08Z</time>
      </trkpt>
      <trkpt lat="44.70215" lon="7.08915">
        <ele>2149.8</ele>
        <time>2026-09-02T10:30:13Z</time>
      </trkpt>
      <trkpt lat="44.70215" lon="7.08915">
        <ele>2149.8</ele>
        <time>2026-09-02T10:30:19Z</time>
      </trkpt>
      <trkpt lat="44.70215" lon="7.08915">
        <ele>2149.8</ele>
        <time>2026-09-02T10:30:24Z</time>
      </trkpt>
      <trkpt lat="44.70215" lon="7.08915">
        <ele>2149.8</ele>
        <time>2026-09-02T10:30:29Z</time>
      </trkpt>
      <trkpt lat="44.70215" lon="7.08915">
        <ele>2149.8</ele>
        <time>2026-09-02T10:30:35Z</time>
      </trkpt>
      <trkpt lat="44.70215" lon="7.08915">
        <ele>2149.8</ele>
        <time>2026-09-02T10:30:40Z</time>
      </trkpt>
      <trkpt lat="44.70215" lon="7.08915">
        <ele>2149.8</ele>
        <time>2026-09-02T10:30:45Z</time>
      </trkpt>
      <trkpt lat="44.70215" lon="7.08915">
        <ele>2149.8</ele>
        <time>2026-09-02T10:30:51Z</time>
      </trkpt>
      <trkpt lat="44.70215" lon="7.08915">
        <ele>2149.8</ele>
        <time>2026-09-02T10:30:56Z</time>
      </trkpt>
      <trkpt lat="44.70215" lon="7.08915">
        <ele>2149.8</ele>
        <time>2026-09-02T10:31:01Z</time>
      </trkpt>
      <trkpt lat="44.70215" lon="7.08915">
        <ele>2149.8</ele>
        <time>2026-09-02T10:31:07Z</time>
      </trkpt>
      <trkpt lat="44.70215" lon="7.08915">
        <ele>2149.8</ele>
        <time>2026-09-02T10:31:12Z</time>
      </trkpt>
      <trkpt lat="44.70215" lon="7.08915">
        <ele>2149.8</ele>
        <time>2026-09-02T10:31:17Z</time>
      </trkpt>
      <trkpt lat="44.70215" lon="7.08915">
        <ele>2149.8</ele>
        <time>2026-09-02T10:31:23Z</time>
      </trkpt>
      <trkpt lat="44.70215" lon="7.08915">
        <ele>2149.8</ele>
        <time>2026-09-02T10:31:28Z</time>
      </trkpt>
      <trkpt lat="44.70215" lon="7.08915">
        <ele>2149.8</ele>
        <time>2026-09-02T10:31:33Z</time>
      </trkpt>
      <trkpt lat="44.70215" lon="7.08915">
        <ele>2149.8</ele>
        <time>2026-09-02T10:31:39Z</time>
      </trkpt>
      <trkpt lat="44.70215" lon="7.08915">
        <ele>2149.8</ele>
        <time>2026-09-02T10:31:44Z</time>
      </trkpt>
      <trkpt lat="44.70215" lon="7.08915">
        <ele>2149.8</ele>
        <time>2026-09-02T10:31:49Z</time>
      </trkpt>
      <trkpt lat="44.70215" lon="7.08915">
        <ele>2149.8</ele>
        <time>2026-09-02T10:31:55Z</time>
      </trkpt>
      <trkpt lat="44.70215" lon="7.08915">
        <ele>2149.8</ele>
        <time>2026-09-02T10:32:00Z</time>
      </trkpt>
      <trkpt lat="44.70215" lon="7.08915">
        <ele>2149.8</ele>
        <time>2026-09-02T10:32:05Z</time>
      </trkpt>
      <trkpt lat="44.70215" lon="7.08915">
        <ele>2149.8</ele>
        <time>2026-09-02T10:32:11Z</time>
      </trkpt>
      <trkpt lat="44.70215" lon="7.08915">
        <ele>2149.8</ele>
        <time>2026-09-02T10:32:16Z</time>
      </trkpt>
      <trkpt lat="44.70215" lon="7.08915">
        <ele>2149.8</ele>
        <time>2026-09-02T10:32:21Z</time>
      </trkpt>
      <trkpt lat="44.70215" lon="7.08915">
        <ele>2149.8</ele>
        <time>2026-09-02T10:32:27Z</time>
      </trkpt>
      <trkpt lat="44.70215" lon="7.08915">
        <ele>2149.8</ele>
        <time>2026-09-02T10:32:32Z</time>
      </trkpt>
      <trkpt lat="44.70215" lon="7.08915">
        <ele>2149.8</ele>
        <time>2026-09-02T10:32:37Z</time>
      </trkpt>
      <trkpt lat="44.70215" lon="7.08915">
        <ele>2149.8</ele>
        <time>2026-09-02T10:32:43Z</time>
      </trkpt>
      <trkpt lat="44.70215" lon="7.08915">
        <ele>2149.8</ele>
        <time>2026-09-02T10:32:48Z</time>
      </trkpt>
      <trkpt lat="44.70215" lon="7.08915">
        <ele>2149.8</ele>
        <time>2026-09-02T10:32:53Z</time>
      </trkpt>
      <trkpt lat="44.70215" lon="7.08915">
        <ele>2149.8</ele>
        <time>2026-09-02T10:32:59Z</time>
      </trkpt>
      <trkpt lat="44.70215" lon="7.08915">
        <ele>2149.8</ele>
        <time>2026-09-02T10:33:04Z</time>
      </trkpt>
      <trkpt lat="44.70215" lon="7.08915">
        <ele>2149.8</ele>
        <time>2026-09-02T10:33:09Z</time>
      </trkpt>
      <trkpt lat="44.70215" lon="7.08915">
        <ele>2149.8</ele>
        <time>2026-09-02T10:33:15Z</time>
      </trkpt>
      <trkpt lat="44.70215" lon="7.08915">
        <ele>2149.8</ele>
        <time>2026-09-02T10:33:20Z</time>
      </trkpt>
      <trkpt lat="44.70215" lon="7.08915">
        <ele>2149.8</ele>
        <time>2026-09-02T10:33:25Z</time>
      </trkpt>
      <trkpt lat="44.70215" lon="7.08915">
        <ele>2149.8</ele>
        <time>2026-09-02T10:33:31Z</time>
      </trkpt>
      <trkpt lat="44.70215" lon="7.08915">
        <ele>2149.8</ele>
        <time>2026-09-02T10:33:36Z</time>
      </trkpt>
      <trkpt lat="44.70215" lon="7.08915">
        <ele>2149.8</ele>
        <time>2026-09-02T10:33:41Z</time>
      </trkpt>
      <trkpt lat="44.70215" lon="7.08915">
        <ele>2149.8</ele>
        <time>2026-09-02T10:33:47Z</time>
      </trkpt>
      <trkpt lat="44.70215" lon="7.08915">
        <ele>2149.8</ele>
        <time>2026-09-02T10:33:52Z</time>
      </trkpt>
      <trkpt lat="44.70215" lon="7.08915">
        <ele>2149.8</ele>
        <time>2026-09-02T10:33:57Z</time>
      </trkpt>
      <trkpt lat="44.70215" lon="7.08915">
        <ele>2149.8</ele>
        <time>2026-09-02T10:34:03Z</time>
      </trkpt>
      <trkpt lat="44.70215" lon="7.08915">
        <ele>2149.8</ele>
        <time>2026-09-02T10:34:08Z</time>
      </trkpt>
      <trkpt lat="44.70215" lon="7.08915">
        <ele>2149.8</ele>
        <time>2026-09-02T10:34:13Z</time>
      </trkpt>
      <trkpt lat="44.70215" lon="7.08915">
        <ele>2149.8</ele>
        <time>2026-09-02T10:34:19Z</time>
      </trkpt>
      <trkpt lat="44.70215" lon="7.08915">
        <ele>2149.8</ele>
        <time>2026-09-02T10:34:24Z</time>
      </trkpt>
      <trkpt lat="44.70215" lon="7.08915">
        <ele>2149.8</ele>
        <time>2026-09-02T10:34:29Z</time>
      </trkpt>
      <trkpt lat="44.70215" lon="7.08915">
        <ele>2149.8</ele>
        <time>2026-09-02T10:34:35Z</time>
      </trkpt>
      <trkpt lat="44.70215" lon="7.08915">
        <ele>2149.8</ele>
        <time>2026-09-02T10:34:40Z</time>
      </trkpt>
      <trkpt lat="44.70215" lon="7.08915">
        <ele>2149.8</ele>
        <time>2026-09-02T10:34:45Z</time>
      </trkpt>
      <trkpt lat="44.70215" lon="7.08915">
        <ele>2149.8</ele>
        <time>2026-09-02T10:34:51Z</time>
      </trkpt>
      <trkpt lat="44.70215" lon="7.08915">
        <ele>2149.8</ele>
        <time>2026-09-02T10:34:56Z</time>
      </trkpt>
      <trkpt lat="44.70215" lon="7.08915">
        <ele>2149.8</ele>
        <time>2026-09-02T10:35:01Z</time>
      </trkpt>
      <trkpt lat="44.70215" lon="7.08915">
        <ele>2149.8</ele>
        <time>2026-09-02T10:35:07Z</time>
      </trkpt>
      <trkpt lat="44.70215" lon="7.08915">
        <ele>2149.8</ele>
        <time>2026-09-02T10:35:12Z</time>
      </trkpt>
      <trkpt lat="44.70215" lon="7.08915">
        <ele>2149.8</ele>
        <time>2026-09-02T10:35:17Z</time>
      </trkpt>
      <trkpt lat="44.70215" lon="7.08915">
        <ele>2149.8</ele>
        <time>2026-09-02T10:35:23Z</time>
      </trkpt>
      <trkpt lat="44.70215" lon="7.08915">
        <ele>2149.8</ele>
        <time>2026-09-02T10:35:28Z</time>
      </trkpt>
      <trkpt lat="44.70215" lon="7.08915">
        <ele>2149.8</ele>
        <time>2026-09-02T10:35:33Z</time>
      </trkpt>
      <trkpt lat="44.70215" lon="7.08915">
        <ele>2149.8</ele>
        <time>2026-09-02T10:35:39Z</time>
      </trkpt>
      <trkpt lat="44.70215" lon="7.08915">
        <ele>2149.8</ele>
        <time>2026-09-02T10:35:44Z</time>
      </trkpt>
      <trkpt lat="44.70215" lon="7.08915">
        <ele>2149.8</ele>
        <time>2026-09-02T10:35:49Z</time>
      </trkpt>
      <trkpt lat="44.7021" lon="7.08913">
        <ele>2151.1</ele>
        <time>2026-09-02T10:35:55Z</time>
      </trkpt>
      <trkpt lat="44.70205" lon="7.0891">
        <ele>2152.9</ele>
        <time>2026-09-02T10:36:00Z</time>
      </trkpt>
      <trkpt lat="44.70201" lon="7.08908">
        <ele>2154.2</ele>
        <time>2026-09-02T10:36:05Z</time>
      </trkpt>
      <trkpt lat="44.70197" lon="7.08907">
        <ele>2155.1</ele>
        <time>2026-09-02T10:36:11Z</time>
      </trkpt>
      <trkpt lat="44.70195" lon="7.08907">
        <ele>2155.3</ele>
        <time>2026-09-02T10:36:16Z</time>
      </trkpt>
      <trkpt lat="44.70193" lon="7.08902">
        <ele>2157.6</ele>
        <time>2026-09-02T10:36:21Z</time>
      </trkpt>
      <trkpt lat="44.70195" lon="7.08897">
        <ele>2159.2</ele>
        <time>2026-09-02T10:36:27Z</time>
      </trkpt>
      <trkpt lat="44.70198" lon="7.08894">
        <ele>2159.9</ele>
        <time>2026-09-02T10:36:32Z</time>
      </trkpt>
      <trkpt lat="44.70199" lon="7.08891">
        <ele>2160.9</ele>
        <time>2026-09-02T10:36:37Z</time>
      </trkpt>
      <trkpt lat="44.70202" lon="7.08888">
        <ele>2161.5</ele>
        <time>2026-09-02T10:36:43Z</time>
      </trkpt>
      <trkpt lat="44.70202" lon="7.08887">
        <ele>2161.9</ele>
        <time>2026-09-02T10:36:48Z</time>
      </trkpt>
      <trkpt lat="44.70202" lon="7.08886">
        <ele>2162.3</ele>
        <time>2026-09-02T10:36:53Z</time>
      </trkpt>
      <trkpt lat="44.70202" lon="7.08886">
        <ele>2162.3</ele>
        <time>2026-09-02T10:36:59Z</time>
      </trkpt>
      <trkpt lat="44.70202" lon="7.08886">
        <ele>2162.3</ele>
        <time>2026-09-02T10:37:04Z</time>
      </trkpt>
      <trkpt lat="44.70202" lon="7.08886">
        <ele>2162.3</ele>
        <time>2026-09-02T10:37:09Z</time>
      </trkpt>
      <trkpt lat="44.70201" lon="7.0888">
        <ele>2164.7</ele>
        <time>2026-09-02T10:37:15Z</time>
      </trkpt>
      <trkpt lat="44.70202" lon="7.08875">
        <ele>2166.4</ele>
        <time>2026-09-02T10:37:20Z</time>
      </trkpt>
      <trkpt lat="44.70203" lon="7.08871">
        <ele>2167.7</ele>
        <time>2026-09-02T10:37:25Z</time>
      </trkpt>
      <trkpt lat="44.70205" lon="7.08867">
        <ele>2168.8</ele>
        <time>2026-09-02T10:37:31Z</time>
      </trkpt>
      <trkpt lat="44.70207" lon="7.08866">
        <ele>2168.8</ele>
        <time>2026-09-02T10:37:36Z</time>
      </trkpt>
      <trkpt lat="44.70207" lon="7.08867">
        <ele>2168.4</ele>
        <time>2026-09-02T10:37:41Z</time>
      </trkpt>
      <trkpt lat="44.70207" lon="7.08867">
        <ele>2168.4</ele>
        <time>2026-09-02T10:37:47Z</time>
      </trkpt>
      <trkpt lat="44.70207" lon="7.08867">
        <ele>2168.4</ele>
        <time>2026-09-02T10:37:52Z</time>
      </trkpt>
      <trkpt lat="44.70207" lon="7.08867">
        <ele>2168.4</ele>
        <time>2026-09-02T10:37:57Z</time>
      </trkpt>
      <trkpt lat="44.70209" lon="7.08861">
        <ele>2170.2</ele>
        <time>2026-09-02T10:38:03Z</time>
      </trkpt>
      <trkpt lat="44.70212" lon="7.08858">
        <ele>2170.7</ele>
        <time>2026-09-02T10:38:08Z</time>
      </trkpt>
      <trkpt lat="44.70213" lon="7.08854">
        <ele>2171.9</ele>
        <time>2026-09-02T10:38:13Z</time>
      </trkpt>
      <trkpt lat="44.70216" lon="7.08847">
        <ele>2173.7</ele>
        <time>2026-09-02T10:38:19Z</time>
      </trkpt>
      <trkpt lat="44.70218" lon="7.08842">
        <ele>2175</ele>
        <time>2026-09-02T10:38:24Z</time>
      </trkpt>
      <trkpt lat="44.70221" lon="7.08838">
        <ele>2175.7</ele>
        <time>2026-09-02T10:38:29Z</time>
      </trkpt>
      <trkpt lat="44.70225" lon="7.08834">
        <ele>2176.1</ele>
        <time>2026-09-02T10:38:35Z</time>
      </trkpt>
      <trkpt lat="44.70229" lon="7.08831">
        <ele>2177</ele>
        <time>2026-09-02T10:38:40Z</time>
      </trkpt>
      <trkpt lat="44.70234" lon="7.08829">
        <ele>2176.7</ele>
        <time>2026-09-02T10:38:45Z</time>
      </trkpt>
      <trkpt lat="44.70238" lon="7.08827">
        <ele>2176.4</ele>
        <time>2026-09-02T10:38:51Z</time>
      </trkpt>
      <trkpt lat="44.70239" lon="7.08825">
        <ele>2177.1</ele>
        <time>2026-09-02T10:38:56Z</time>
      </trkpt>
      <trkpt lat="44.7024" lon="7.08822">
        <ele>2178.2</ele>
        <time>2026-09-02T10:39:01Z</time>
      </trkpt>
      <trkpt lat="44.7024" lon="7.08817">
        <ele>2180.6</ele>
        <time>2026-09-02T10:39:07Z</time>
      </trkpt>
      <trkpt lat="44.70239" lon="7.08813">
        <ele>2183.3</ele>
        <time>2026-09-02T10:39:12Z</time>
      </trkpt>
      <trkpt lat="44.70238" lon="7.08809">
        <ele>2186.1</ele>
        <time>2026-09-02T10:39:17Z</time>
      </trkpt>
      <trkpt lat="44.70238" lon="7.08803">
        <ele>2189.3</ele>
        <time>2026-09-02T10:39:23Z</time>
      </trkpt>
      <trkpt lat="44.70239" lon="7.088">
        <ele>2190</ele>
        <time>2026-09-02T10:39:28Z</time>
      </trkpt>
      <trkpt lat="44.70243" lon="7.08799">
        <ele>2186.8</ele>
        <time>2026-09-02T10:39:33Z</time>
      </trkpt>
      <trkpt lat="44.70243" lon="7.08801">
        <ele>2185.9</ele>
        <time>2026-09-02T10:39:39Z</time>
      </trkpt>
      <trkpt lat="44.70243" lon="7.08801">
        <ele>2185.9</ele>
        <time>2026-09-02T10:39:44Z</time>
      </trkpt>
      <trkpt lat="44.70243" lon="7.08801">
        <ele>2185.9</ele>
        <time>2026-09-02T10:39:49Z</time>
      </trkpt>
      <trkpt lat="44.70246" lon="7.08796">
        <ele>2185.2</ele>
        <time>2026-09-02T10:39:55Z</time>
      </trkpt>
      <trkpt lat="44.70247" lon="7.08791">
        <ele>2186</ele>
        <time>2026-09-02T10:40:00Z</time>
      </trkpt>
      <trkpt lat="44.70248" lon="7.08785">
        <ele>2186.9</ele>
        <time>2026-09-02T10:40:05Z</time>
      </trkpt>
      <trkpt lat="44.70251" lon="7.08782">
        <ele>2185.2</ele>
        <time>2026-09-02T10:40:11Z</time>
      </trkpt>
      <trkpt lat="44.70254" lon="7.08778">
        <ele>2185.9</ele>
        <time>2026-09-02T10:40:16Z</time>
      </trkpt>
      <trkpt lat="44.70255" lon="7.08773">
        <ele>2187.2</ele>
        <time>2026-09-02T10:40:21Z</time>
      </trkpt>
      <trkpt lat="44.70258" lon="7.08769">
        <ele>2187.8</ele>
        <time>2026-09-02T10:40:27Z</time>
      </trkpt>
      <trkpt lat="44.70257" lon="7.08764">
        <ele>2189.4</ele>
        <time>2026-09-02T10:40:32Z</time>
      </trkpt>
      <trkpt lat="44.70256" lon="7.08759">
        <ele>2191</ele>
        <time>2026-09-02T10:40:37Z</time>
      </trkpt>
      <trkpt lat="44.70257" lon="7.08755">
        <ele>2192</ele>
        <time>2026-09-02T10:40:43Z</time>
      </trkpt>
      <trkpt lat="44.7026" lon="7.08752">
        <ele>2192.2</ele>
        <time>2026-09-02T10:40:48Z</time>
      </trkpt>
      <trkpt lat="44.7026" lon="7.08746">
        <ele>2194.9</ele>
        <time>2026-09-02T10:40:53Z</time>
      </trkpt>
      <trkpt lat="44.70259" lon="7.08741">
        <ele>2197.9</ele>
        <time>2026-09-02T10:40:59Z</time>
      </trkpt>
      <trkpt lat="44.70259" lon="7.08736">
        <ele>2200.7</ele>
        <time>2026-09-02T10:41:04Z</time>
      </trkpt>
      <trkpt lat="44.70259" lon="7.08732">
        <ele>2202.9</ele>
        <time>2026-09-02T10:41:09Z</time>
      </trkpt>
      <trkpt lat="44.70261" lon="7.08729">
        <ele>2204</ele>
        <time>2026-09-02T10:41:15Z</time>
      </trkpt>
      <trkpt lat="44.70263" lon="7.08724">
        <ele>2206.1</ele>
        <time>2026-09-02T10:41:20Z</time>
      </trkpt>
      <trkpt lat="44.70264" lon="7.0872">
        <ele>2207.9</ele>
        <time>2026-09-02T10:41:25Z</time>
      </trkpt>
      <trkpt lat="44.70266" lon="7.08715">
        <ele>2209.8</ele>
        <time>2026-09-02T10:41:31Z</time>
      </trkpt>
      <trkpt lat="44.70268" lon="7.08712">
        <ele>2210.7</ele>
        <time>2026-09-02T10:41:36Z</time>
      </trkpt>
      <trkpt lat="44.7027" lon="7.0871">
        <ele>2211</ele>
        <time>2026-09-02T10:41:41Z</time>
      </trkpt>
      <trkpt lat="44.7027" lon="7.0871">
        <ele>2211</ele>
        <time>2026-09-02T10:41:47Z</time>
      </trkpt>
      <trkpt lat="44.7027" lon="7.0871">
        <ele>2211</ele>
        <time>2026-09-02T10:41:52Z</time>
      </trkpt>
      <trkpt lat="44.7027" lon="7.0871">
        <ele>2211</ele>
        <time>2026-09-02T10:41:57Z</time>
      </trkpt>
      <trkpt lat="44.7027" lon="7.0871">
        <ele>2211</ele>
        <time>2026-09-02T10:42:03Z</time>
      </trkpt>
      <trkpt lat="44.7027" lon="7.0871">
        <ele>2211</ele>
        <time>2026-09-02T10:42:08Z</time>
      </trkpt>
      <trkpt lat="44.7027" lon="7.0871">
        <ele>2211</ele>
        <time>2026-09-02T10:42:13Z</time>
      </trkpt>
      <trkpt lat="44.7027" lon="7.0871">
        <ele>2211</ele>
        <time>2026-09-02T10:42:19Z</time>
      </trkpt>
      <trkpt lat="44.7027" lon="7.0871">
        <ele>2211</ele>
        <time>2026-09-02T10:42:24Z</time>
      </trkpt>
      <trkpt lat="44.7027" lon="7.0871">
        <ele>2211</ele>
        <time>2026-09-02T10:42:29Z</time>
      </trkpt>
      <trkpt lat="44.7027" lon="7.0871">
        <ele>2211</ele>
        <time>2026-09-02T10:42:35Z</time>
      </trkpt>
      <trkpt lat="44.7027" lon="7.0871">
        <ele>2211</ele>
        <time>2026-09-02T10:42:40Z</time>
      </trkpt>
      <trkpt lat="44.7027" lon="7.0871">
        <ele>2211</ele>
        <time>2026-09-02T10:42:45Z</time>
      </trkpt>
      <trkpt lat="44.7027" lon="7.0871">
        <ele>2211</ele>
        <time>2026-09-02T10:42:51Z</time>
      </trkpt>
      <trkpt lat="44.70271" lon="7.08709">
        <ele>2211.1</ele>
        <time>2026-09-02T10:42:56Z</time>
      </trkpt>
      <trkpt lat="44.70275" lon="7.08705">
        <ele>2211.5</ele>
        <time>2026-09-02T10:43:01Z</time>
      </trkpt>
      <trkpt lat="44.70279" lon="7.08699">
        <ele>2212.8</ele>
        <time>2026-09-02T10:43:07Z</time>
      </trkpt>
      <trkpt lat="44.70279" lon="7.08693">
        <ele>2215.7</ele>
        <time>2026-09-02T10:43:12Z</time>
      </trkpt>
      <trkpt lat="44.70281" lon="7.08689">
        <ele>2216.7</ele>
        <time>2026-09-02T10:43:17Z</time>
      </trkpt>
      <trkpt lat="44.70285" lon="7.08685">
        <ele>2216.7</ele>
        <time>2026-09-02T10:43:23Z</time>
      </trkpt>
      <trkpt lat="44.70285" lon="7.08682">
        <ele>2218.1</ele>
        <time>2026-09-02T10:43:28Z</time>
      </trkpt>
      <trkpt lat="44.70287" lon="7.0868">
        <ele>2218</ele>
        <time>2026-09-02T10:43:33Z</time>
      </trkpt>
      <trkpt lat="44.70291" lon="7.08677">
        <ele>2217.4</ele>
        <time>2026-09-02T10:43:39Z</time>
      </trkpt>
      <trkpt lat="44.70293" lon="7.08675">
        <ele>2217.2</ele>
        <time>2026-09-02T10:43:44Z</time>
      </trkpt>
      <trkpt lat="44.70296" lon="7.08669">
        <ele>2218.2</ele>
        <time>2026-09-02T10:43:49Z</time>
      </trkpt>
      <trkpt lat="44.70301" lon="7.08668">
        <ele>2215.9</ele>
        <time>2026-09-02T10:43:55Z</time>
      </trkpt>
      <trkpt lat="44.70301" lon="7.08664">
        <ele>2217.9</ele>
        <time>2026-09-02T10:44:00Z</time>
      </trkpt>
      <trkpt lat="44.703" lon="7.0866">
        <ele>2220.7</ele>
        <time>2026-09-02T10:44:05Z</time>
      </trkpt>
      <trkpt lat="44.70299" lon="7.08655">
        <ele>2224</ele>
        <time>2026-09-02T10:44:11Z</time>
      </trkpt>
      <trkpt lat="44.703" lon="7.08654">
        <ele>2224</ele>
        <time>2026-09-02T10:44:16Z</time>
      </trkpt>
      <trkpt lat="44.70301" lon="7.08653">
        <ele>2223.9</ele>
        <time>2026-09-02T10:44:21Z</time>
      </trkpt>
      <trkpt lat="44.70302" lon="7.08649">
        <ele>2225.4</ele>
        <time>2026-09-02T10:44:27Z</time>
      </trkpt>
      <trkpt lat="44.70303" lon="7.08645">
        <ele>2226.8</ele>
        <time>2026-09-02T10:44:32Z</time>
      </trkpt>
      <trkpt lat="44.70306" lon="7.08642">
        <ele>2226.2</ele>
        <time>2026-09-02T10:44:37Z</time>
      </trkpt>
      <trkpt lat="44.70306" lon="7.08636">
        <ele>2229.2</ele>
        <time>2026-09-02T10:44:43Z</time>
      </trkpt>
      <trkpt lat="44.70306" lon="7.08631">
        <ele>2231.8</ele>
        <time>2026-09-02T10:44:48Z</time>
      </trkpt>
      <trkpt lat="44.70307" lon="7.08628">
        <ele>2232.4</ele>
        <time>2026-09-02T10:44:53Z</time>
      </trkpt>
      <trkpt lat="44.70308" lon="7.08627">
        <ele>2232.1</ele>
        <time>2026-09-02T10:44:59Z</time>
      </trkpt>
      <trkpt lat="44.70308" lon="7.08627">
        <ele>2232.1</ele>
        <time>2026-09-02T10:45:04Z</time>
      </trkpt>
      <trkpt lat="44.70309" lon="7.08622">
        <ele>2233.7</ele>
        <time>2026-09-02T10:45:09Z</time>
      </trkpt>
      <trkpt lat="44.70311" lon="7.08616">
        <ele>2234.7</ele>
        <time>2026-09-02T10:45:15Z</time>
      </trkpt>
      <trkpt lat="44.70308" lon="7.08613">
        <ele>2239</ele>
        <time>2026-09-02T10:45:20Z</time>
      </trkpt>
      <trkpt lat="44.70307" lon="7.08608">
        <ele>2242.4</ele>
        <time>2026-09-02T10:45:25Z</time>
      </trkpt>
      <trkpt lat="44.70306" lon="7.08605">
        <ele>2244.9</ele>
        <time>2026-09-02T10:45:31Z</time>
      </trkpt>
      <trkpt lat="44.70309" lon="7.08603">
        <ele>2242.8</ele>
        <time>2026-09-02T10:45:36Z</time>
      </trkpt>
      <trkpt lat="44.70313" lon="7.086">
        <ele>2240.1</ele>
        <time>2026-09-02T10:45:41Z</time>
      </trkpt>
      <trkpt lat="44.70315" lon="7.08595">
        <ele>2240.2</ele>
        <time>2026-09-02T10:45:47Z</time>
      </trkpt>
      <trkpt lat="44.70312" lon="7.08592">
        <ele>2244.8</ele>
        <time>2026-09-02T10:45:52Z</time>
      </trkpt>
      <trkpt lat="44.70315" lon="7.08589">
        <ele>2242.9</ele>
        <time>2026-09-02T10:45:57Z</time>
      </trkpt>
      <trkpt lat="44.70315" lon="7.08585">
        <ele>2244.6</ele>
        <time>2026-09-02T10:46:03Z</time>
      </trkpt>
      <trkpt lat="44.70314" lon="7.0858">
        <ele>2247.5</ele>
        <time>2026-09-02T10:46:08Z</time>
      </trkpt>
      <trkpt lat="44.70315" lon="7.08577">
        <ele>2247.2</ele>
        <time>2026-09-02T10:46:13Z</time>
      </trkpt>
      <trkpt lat="44.70319" lon="7.08574">
        <ele>2243.4</ele>
        <time>2026-09-02T10:46:19Z</time>
      </trkpt>
      <trkpt lat="44.70322" lon="7.08572">
        <ele>2240.5</ele>
        <time>2026-09-02T10:46:24Z</time>
      </trkpt>
      <trkpt lat="44.70323" lon="7.08569">
        <ele>2240.2</ele>
        <time>2026-09-02T10:46:29Z</time>
      </trkpt>
      <trkpt lat="44.70324" lon="7.08566">
        <ele>2239.8</ele>
        <time>2026-09-02T10:46:35Z</time>
      </trkpt>
      <trkpt lat="44.70324" lon="7.08564">
        <ele>2240.4</ele>
        <time>2026-09-02T10:46:40Z</time>
      </trkpt>
      <trkpt lat="44.70324" lon="7.08562">
        <ele>2241</ele>
        <time>2026-09-02T10:46:45Z</time>
      </trkpt>
      <trkpt lat="44.70328" lon="7.08559">
        <ele>2237.1</ele>
        <time>2026-09-02T10:46:51Z</time>
      </trkpt>
      <trkpt lat="44.70329" lon="7.08559">
        <ele>2235.9</ele>
        <time>2026-09-02T10:46:56Z</time>
      </trkpt>
      <trkpt lat="44.70329" lon="7.08559">
        <ele>2235.9</ele>
        <time>2026-09-02T10:47:01Z</time>
      </trkpt>
      <trkpt lat="44.70329" lon="7.08559">
        <ele>2235.9</ele>
        <time>2026-09-02T10:47:07Z</time>
      </trkpt>
      <trkpt lat="44.70329" lon="7.08559">
        <ele>2235.9</ele>
        <time>2026-09-02T10:47:12Z</time>
      </trkpt>
      <trkpt lat="44.70326" lon="7.08551">
        <ele>2241.7</ele>
        <time>2026-09-02T10:47:17Z</time>
      </trkpt>
      <trkpt lat="44.70329" lon="7.08548">
        <ele>2239</ele>
        <time>2026-09-02T10:47:23Z</time>
      </trkpt>
      <trkpt lat="44.7033" lon="7.08543">
        <ele>2239.2</ele>
        <time>2026-09-02T10:47:28Z</time>
      </trkpt>
      <trkpt lat="44.7033" lon="7.08538">
        <ele>2240.6</ele>
        <time>2026-09-02T10:47:33Z</time>
      </trkpt>
      <trkpt lat="44.7033" lon="7.08533">
        <ele>2242</ele>
        <time>2026-09-02T10:47:39Z</time>
      </trkpt>
      <trkpt lat="44.7033" lon="7.08529">
        <ele>2243.1</ele>
        <time>2026-09-02T10:47:44Z</time>
      </trkpt>
      <trkpt lat="44.70331" lon="7.08525">
        <ele>2243</ele>
        <time>2026-09-02T10:47:49Z</time>
      </trkpt>
      <trkpt lat="44.70329" lon="7.08521">
        <ele>2246.6</ele>
        <time>2026-09-02T10:47:55Z</time>
      </trkpt>
      <trkpt lat="44.70327" lon="7.08518">
        <ele>2249.9</ele>
        <time>2026-09-02T10:48:00Z</time>
      </trkpt>
      <trkpt lat="44.70328" lon="7.08514">
        <ele>2249.8</ele>
        <time>2026-09-02T10:48:05Z</time>
      </trkpt>
      <trkpt lat="44.7033" lon="7.08509">
        <ele>2248.7</ele>
        <time>2026-09-02T10:48:11Z</time>
      </trkpt>
      <trkpt lat="44.70331" lon="7.08506">
        <ele>2248.3</ele>
        <time>2026-09-02T10:48:16Z</time>
      </trkpt>
      <trkpt lat="44.70332" lon="7.08503">
        <ele>2247.8</ele>
        <time>2026-09-02T10:48:21Z</time>
      </trkpt>
      <trkpt lat="44.70333" lon="7.08499">
        <ele>2247.7</ele>
        <time>2026-09-02T10:48:27Z</time>
      </trkpt>
      <trkpt lat="44.70337" lon="7.08496">
        <ele>2246.9</ele>
        <time>2026-09-02T10:48:32Z</time>
      </trkpt>
      <trkpt lat="44.7034" lon="7.08494">
        <ele>2246.3</ele>
        <time>2026-09-02T10:48:37Z</time>
      </trkpt>
      <trkpt lat="44.70343" lon="7.0849">
        <ele>2246.4</ele>
        <time>2026-09-02T10:48:43Z</time>
      </trkpt>
      <trkpt lat="44.70345" lon="7.08487">
        <ele>2246.5</ele>
        <time>2026-09-02T10:48:48Z</time>
      </trkpt>
      <trkpt lat="44.70346" lon="7.08486">
        <ele>2246.4</ele>
        <time>2026-09-02T10:48:53Z</time>
      </trkpt>
      <trkpt lat="44.70348" lon="7.08486">
        <ele>2245.7</ele>
        <time>2026-09-02T10:48:59Z</time>
      </trkpt>
      <trkpt lat="44.70348" lon="7.08486">
        <ele>2245.7</ele>
        <time>2026-09-02T10:49:04Z</time>
      </trkpt>
      <trkpt lat="44.70348" lon="7.08486">
        <ele>2245.7</ele>
        <time>2026-09-02T10:49:09Z</time>
      </trkpt>
      <trkpt lat="44.70348" lon="7.08486">
        <ele>2245.7</ele>
        <time>2026-09-02T10:49:15Z</time>
      </trkpt>
      <trkpt lat="44.70351" lon="7.0848">
        <ele>2246.2</ele>
        <time>2026-09-02T10:49:20Z</time>
      </trkpt>
      <trkpt lat="44.70351" lon="7.08476">
        <ele>2247.3</ele>
        <time>2026-09-02T10:49:25Z</time>
      </trkpt>
      <trkpt lat="44.70354" lon="7.08474">
        <ele>2246.7</ele>
        <time>2026-09-02T10:49:31Z</time>
      </trkpt>
      <trkpt lat="44.70357" lon="7.08472">
        <ele>2246</ele>
        <time>2026-09-02T10:49:36Z</time>
      </trkpt>
      <trkpt lat="44.70358" lon="7.08472">
        <ele>2245.6</ele>
        <time>2026-09-02T10:49:41Z</time>
      </trkpt>
      <trkpt lat="44.70359" lon="7.08473">
        <ele>2245</ele>
        <time>2026-09-02T10:49:47Z</time>
      </trkpt>
      <trkpt lat="44.70359" lon="7.08473">
        <ele>2245</ele>
        <time>2026-09-02T10:49:52Z</time>
      </trkpt>
      <trkpt lat="44.70359" lon="7.08473">
        <ele>2245</ele>
        <time>2026-09-02T10:49:57Z</time>
      </trkpt>
      <trkpt lat="44.70359" lon="7.08473">
        <ele>2245</ele>
        <time>2026-09-02T10:50:03Z</time>
      </trkpt>
      <trkpt lat="44.70359" lon="7.08473">
        <ele>2245</ele>
        <time>2026-09-02T10:50:08Z</time>
      </trkpt>
      <trkpt lat="44.70359" lon="7.08473">
        <ele>2245</ele>
        <time>2026-09-02T10:50:13Z</time>
      </trkpt>
      <trkpt lat="44.70359" lon="7.08473">
        <ele>2245</ele>
        <time>2026-09-02T10:50:19Z</time>
      </trkpt>
      <trkpt lat="44.70359" lon="7.08473">
        <ele>2245</ele>
        <time>2026-09-02T10:50:24Z</time>
      </trkpt>
      <trkpt lat="44.70359" lon="7.08473">
        <ele>2245</ele>
        <time>2026-09-02T10:50:29Z</time>
      </trkpt>
      <trkpt lat="44.70359" lon="7.08473">
        <ele>2245</ele>
        <time>2026-09-02T10:50:35Z</time>
      </trkpt>
      <trkpt lat="44.70359" lon="7.08473">
        <ele>2245</ele>
        <time>2026-09-02T10:50:40Z</time>
      </trkpt>
      <trkpt lat="44.70359" lon="7.08473">
        <ele>2245</ele>
        <time>2026-09-02T10:50:45Z</time>
      </trkpt>
      <trkpt lat="44.70359" lon="7.08473">
        <ele>2245</ele>
        <time>2026-09-02T10:50:51Z</time>
      </trkpt>
      <trkpt lat="44.70353" lon="7.08465">
        <ele>2249.5</ele>
        <time>2026-09-02T10:50:56Z</time>
      </trkpt>
      <trkpt lat="44.70354" lon="7.08459">
        <ele>2250.8</ele>
        <time>2026-09-02T10:51:01Z</time>
      </trkpt>
      <trkpt lat="44.70354" lon="7.08456">
        <ele>2251.6</ele>
        <time>2026-09-02T10:51:07Z</time>
      </trkpt>
      <trkpt lat="44.70356" lon="7.0845">
        <ele>2252.4</ele>
        <time>2026-09-02T10:51:12Z</time>
      </trkpt>
      <trkpt lat="44.70358" lon="7.08447">
        <ele>2252.3</ele>
        <time>2026-09-02T10:51:17Z</time>
      </trkpt>
      <trkpt lat="44.7036" lon="7.08442">
        <ele>2252.8</ele>
        <time>2026-09-02T10:51:23Z</time>
      </trkpt>
      <trkpt lat="44.70359" lon="7.08439">
        <ele>2254</ele>
        <time>2026-09-02T10:51:28Z</time>
      </trkpt>
      <trkpt lat="44.70359" lon="7.08437">
        <ele>2254.6</ele>
        <time>2026-09-02T10:51:33Z</time>
      </trkpt>
      <trkpt lat="44.7036" lon="7.0843">
        <ele>2256</ele>
        <time>2026-09-02T10:51:39Z</time>
      </trkpt>
      <trkpt lat="44.7036" lon="7.08425">
        <ele>2257.3</ele>
        <time>2026-09-02T10:51:44Z</time>
      </trkpt>
      <trkpt lat="44.70358" lon="7.08419">
        <ele>2259.8</ele>
        <time>2026-09-02T10:51:49Z</time>
      </trkpt>
      <trkpt lat="44.70361" lon="7.08415">
        <ele>2259.4</ele>
        <time>2026-09-02T10:51:55Z</time>
      </trkpt>
      <trkpt lat="44.70365" lon="7.08409">
        <ele>2258.8</ele>
        <time>2026-09-02T10:52:00Z</time>
      </trkpt>
      <trkpt lat="44.70366" lon="7.08408">
        <ele>2258.5</ele>
        <time>2026-09-02T10:52:05Z</time>
      </trkpt>
      <trkpt lat="44.7037" lon="7.08404">
        <ele>2257.5</ele>
        <time>2026-09-02T10:52:11Z</time>
      </trkpt>
      <trkpt lat="44.70373" lon="7.08404">
        <ele>2256.1</ele>
        <time>2026-09-02T10:52:16Z</time>
      </trkpt>
      <trkpt lat="44.70376" lon="7.08401">
        <ele>2255.3</ele>
        <time>2026-09-02T10:52:21Z</time>
      </trkpt>
      <trkpt lat="44.70376" lon="7.08397">
        <ele>2256.2</ele>
        <time>2026-09-02T10:52:27Z</time>
      </trkpt>
      <trkpt lat="44.70375" lon="7.08392">
        <ele>2257.7</ele>
        <time>2026-09-02T10:52:32Z</time>
      </trkpt>
      <trkpt lat="44.70376" lon="7.08389">
        <ele>2257.9</ele>
        <time>2026-09-02T10:52:37Z</time>
      </trkpt>
      <trkpt lat="44.70375" lon="7.08386">
        <ele>2258.9</ele>
        <time>2026-09-02T10:52:43Z</time>
      </trkpt>
      <trkpt lat="44.70372" lon="7.08383">
        <ele>2260.9</ele>
        <time>2026-09-02T10:52:48Z</time>
      </trkpt>
      <trkpt lat="44.70371" lon="7.0838">
        <ele>2262</ele>
        <time>2026-09-02T10:52:53Z</time>
      </trkpt>
      <trkpt lat="44.70374" lon="7.08374">
        <ele>2261.9</ele>
        <time>2026-09-02T10:52:59Z</time>
      </trkpt>
      <trkpt lat="44.70374" lon="7.08369">
        <ele>2263</ele>
        <time>2026-09-02T10:53:04Z</time>
      </trkpt>
      <trkpt lat="44.70371" lon="7.08366">
        <ele>2264.9</ele>
        <time>2026-09-02T10:53:09Z</time>
      </trkpt>
      <trkpt lat="44.7037" lon="7.08363">
        <ele>2266</ele>
        <time>2026-09-02T10:53:15Z</time>
      </trkpt>
      <trkpt lat="44.70371" lon="7.0836">
        <ele>2266.2</ele>
        <time>2026-09-02T10:53:20Z</time>
      </trkpt>
      <trkpt lat="44.70371" lon="7.08358">
        <ele>2266.6</ele>
        <time>2026-09-02T10:53:25Z</time>
      </trkpt>
      <trkpt lat="44.7037" lon="7.08354">
        <ele>2267.9</ele>
        <time>2026-09-02T10:53:31Z</time>
      </trkpt>
      <trkpt lat="44.70372" lon="7.08351">
        <ele>2267.6</ele>
        <time>2026-09-02T10:53:36Z</time>
      </trkpt>
      <trkpt lat="44.70373" lon="7.0835">
        <ele>2267.4</ele>
        <time>2026-09-02T10:53:41Z</time>
      </trkpt>
      <trkpt lat="44.70373" lon="7.0835">
        <ele>2267.4</ele>
        <time>2026-09-02T10:53:47Z</time>
      </trkpt>
      <trkpt lat="44.70375" lon="7.08345">
        <ele>2267.5</ele>
        <time>2026-09-02T10:53:52Z</time>
      </trkpt>
      <trkpt lat="44.70374" lon="7.08342">
        <ele>2268.6</ele>
        <time>2026-09-02T10:53:57Z</time>
      </trkpt>
      <trkpt lat="44.70375" lon="7.08335">
        <ele>2269.6</ele>
        <time>2026-09-02T10:54:03Z</time>
      </trkpt>
      <trkpt lat="44.70374" lon="7.08332">
        <ele>2270.6</ele>
        <time>2026-09-02T10:54:08Z</time>
      </trkpt>
      <trkpt lat="44.70374" lon="7.08328">
        <ele>2271.1</ele>
        <time>2026-09-02T10:54:13Z</time>
      </trkpt>
      <trkpt lat="44.70376" lon="7.08325">
        <ele>2270.6</ele>
        <time>2026-09-02T10:54:19Z</time>
      </trkpt>
      <trkpt lat="44.70382" lon="7.08325">
        <ele>2268</ele>
        <time>2026-09-02T10:54:24Z</time>
      </trkpt>
      <trkpt lat="44.70385" lon="7.08324">
        <ele>2266.9</ele>
        <time>2026-09-02T10:54:29Z</time>
      </trkpt>
      <trkpt lat="44.70388" lon="7.08324">
        <ele>2265.6</ele>
        <time>2026-09-02T10:54:35Z</time>
      </trkpt>
      <trkpt lat="44.70387" lon="7.0832">
        <ele>2266.6</ele>
        <time>2026-09-02T10:54:40Z</time>
      </trkpt>
      <trkpt lat="44.70387" lon="7.08316">
        <ele>2267.1</ele>
        <time>2026-09-02T10:54:45Z</time>
      </trkpt>
      <trkpt lat="44.70387" lon="7.08313">
        <ele>2267.5</ele>
        <time>2026-09-02T10:54:51Z</time>
      </trkpt>
      <trkpt lat="44.70386" lon="7.0831">
        <ele>2268.3</ele>
        <time>2026-09-02T10:54:56Z</time>
      </trkpt>
      <trkpt lat="44.70385" lon="7.08306">
        <ele>2269.2</ele>
        <time>2026-09-02T10:55:01Z</time>
      </trkpt>
      <trkpt lat="44.70387" lon="7.08301">
        <ele>2269</ele>
        <time>2026-09-02T10:55:07Z</time>
      </trkpt>
      <trkpt lat="44.70387" lon="7.08297">
        <ele>2269.6</ele>
        <time>2026-09-02T10:55:12Z</time>
      </trkpt>
      <trkpt lat="44.70389" lon="7.08294">
        <ele>2269.1</ele>
        <time>2026-09-02T10:55:17Z</time>
      </trkpt>
      <trkpt lat="44.70389" lon="7.08289">
        <ele>2269.8</ele>
        <time>2026-09-02T10:55:23Z</time>
      </trkpt>
      <trkpt lat="44.70389" lon="7.08289">
        <ele>2269.8</ele>
        <time>2026-09-02T10:55:28Z</time>
      </trkpt>
      <trkpt lat="44.70389" lon="7.08289">
        <ele>2269.8</ele>
        <time>2026-09-02T10:55:33Z</time>
      </trkpt>
      <trkpt lat="44.70389" lon="7.08289">
        <ele>2269.8</ele>
        <time>2026-09-02T10:55:39Z</time>
      </trkpt>
      <trkpt lat="44.70389" lon="7.08285">
        <ele>2270.3</ele>
        <time>2026-09-02T10:55:44Z</time>
      </trkpt>
      <trkpt lat="44.70389" lon="7.08285">
        <ele>2270.3</ele>
        <time>2026-09-02T10:55:49Z</time>
      </trkpt>
      <trkpt lat="44.70389" lon="7.08285">
        <ele>2270.3</ele>
        <time>2026-09-02T10:55:55Z</time>
      </trkpt>
      <trkpt lat="44.70389" lon="7.08281">
        <ele>2270.9</ele>
        <time>2026-09-02T10:56:00Z</time>
      </trkpt>
      <trkpt lat="44.7039" lon="7.08276">
        <ele>2271.1</ele>
        <time>2026-09-02T10:56:05Z</time>
      </trkpt>
      <trkpt lat="44.70389" lon="7.08271">
        <ele>2272.2</ele>
        <time>2026-09-02T10:56:11Z</time>
      </trkpt>
      <trkpt lat="44.70388" lon="7.08266">
        <ele>2273.2</ele>
        <time>2026-09-02T10:56:16Z</time>
      </trkpt>
      <trkpt lat="44.70387" lon="7.0826">
        <ele>2274.4</ele>
        <time>2026-09-02T10:56:21Z</time>
      </trkpt>
      <trkpt lat="44.7039" lon="7.08258">
        <ele>2273.5</ele>
        <time>2026-09-02T10:56:27Z</time>
      </trkpt>
      <trkpt lat="44.70392" lon="7.08254">
        <ele>2273.3</ele>
        <time>2026-09-02T10:56:32Z</time>
      </trkpt>
      <trkpt lat="44.70396" lon="7.08253">
        <ele>2272</ele>
        <time>2026-09-02T10:56:37Z</time>
      </trkpt>
      <trkpt lat="44.70394" lon="7.08251">
        <ele>2273</ele>
        <time>2026-09-02T10:56:43Z</time>
      </trkpt>
      <trkpt lat="44.70393" lon="7.08248">
        <ele>2273.8</ele>
        <time>2026-09-02T10:56:48Z</time>
      </trkpt>
      <trkpt lat="44.70396" lon="7.08243">
        <ele>2273.5</ele>
        <time>2026-09-02T10:56:53Z</time>
      </trkpt>
      <trkpt lat="44.70398" lon="7.08238">
        <ele>2273.6</ele>
        <time>2026-09-02T10:56:59Z</time>
      </trkpt>
      <trkpt lat="44.70401" lon="7.08234">
        <ele>2273.1</ele>
        <time>2026-09-02T10:57:04Z</time>
      </trkpt>
      <trkpt lat="44.70404" lon="7.08231">
        <ele>2272.5</ele>
        <time>2026-09-02T10:57:09Z</time>
      </trkpt>
      <trkpt lat="44.70407" lon="7.08232">
        <ele>2271.3</ele>
        <time>2026-09-02T10:57:15Z</time>
      </trkpt>
      <trkpt lat="44.70408" lon="7.08233">
        <ele>2270.8</ele>
        <time>2026-09-02T10:57:20Z</time>
      </trkpt>
      <trkpt lat="44.70408" lon="7.08233">
        <ele>2270.8</ele>
        <time>2026-09-02T10:57:25Z</time>
      </trkpt>
      <trkpt lat="44.70408" lon="7.08233">
        <ele>2270.8</ele>
        <time>2026-09-02T10:57:31Z</time>
      </trkpt>
      <trkpt lat="44.70408" lon="7.08233">
        <ele>2270.8</ele>
        <time>2026-09-02T10:57:36Z</time>
      </trkpt>
      <trkpt lat="44.70408" lon="7.08233">
        <ele>2270.8</ele>
        <time>2026-09-02T10:57:41Z</time>
      </trkpt>
      <trkpt lat="44.70408" lon="7.08233">
        <ele>2270.8</ele>
        <time>2026-09-02T10:57:47Z</time>
      </trkpt>
      <trkpt lat="44.70408" lon="7.08233">
        <ele>2270.8</ele>
        <time>2026-09-02T10:57:52Z</time>
      </trkpt>
      <trkpt lat="44.70408" lon="7.08233">
        <ele>2270.8</ele>
        <time>2026-09-02T10:57:57Z</time>
      </trkpt>
      <trkpt lat="44.70408" lon="7.08233">
        <ele>2270.8</ele>
        <time>2026-09-02T10:58:03Z</time>
      </trkpt>
      <trkpt lat="44.7041" lon="7.08221">
        <ele>2271.9</ele>
        <time>2026-09-02T10:58:08Z</time>
      </trkpt>
      <trkpt lat="44.70413" lon="7.08218">
        <ele>2271.3</ele>
        <time>2026-09-02T10:58:13Z</time>
      </trkpt>
      <trkpt lat="44.70415" lon="7.08214">
        <ele>2271.2</ele>
        <time>2026-09-02T10:58:19Z</time>
      </trkpt>
      <trkpt lat="44.70418" lon="7.0821">
        <ele>2271.3</ele>
        <time>2026-09-02T10:58:24Z</time>
      </trkpt>
      <trkpt lat="44.70419" lon="7.08207">
        <ele>2271.7</ele>
        <time>2026-09-02T10:58:29Z</time>
      </trkpt>
      <trkpt lat="44.70421" lon="7.08203">
        <ele>2272.4</ele>
        <time>2026-09-02T10:58:35Z</time>
      </trkpt>
      <trkpt lat="44.70419" lon="7.08198">
        <ele>2273.2</ele>
        <time>2026-09-02T10:58:40Z</time>
      </trkpt>
      <trkpt lat="44.70422" lon="7.08195">
        <ele>2273.7</ele>
        <time>2026-09-02T10:58:45Z</time>
      </trkpt>
      <trkpt lat="44.70421" lon="7.08192">
        <ele>2274.1</ele>
        <time>2026-09-02T10:58:51Z</time>
      </trkpt>
      <trkpt lat="44.7042" lon="7.08188">
        <ele>2274.7</ele>
        <time>2026-09-02T10:58:56Z</time>
      </trkpt>
      <trkpt lat="44.70419" lon="7.08187">
        <ele>2274.9</ele>
        <time>2026-09-02T10:59:01Z</time>
      </trkpt>
      <trkpt lat="44.70419" lon="7.08183">
        <ele>2275.5</ele>
        <time>2026-09-02T10:59:07Z</time>
      </trkpt>
      <trkpt lat="44.7042" lon="7.0818">
        <ele>2276</ele>
        <time>2026-09-02T10:59:12Z</time>
      </trkpt>
      <trkpt lat="44.70422" lon="7.08175">
        <ele>2276.8</ele>
        <time>2026-09-02T10:59:17Z</time>
      </trkpt>
      <trkpt lat="44.70423" lon="7.08172">
        <ele>2277.2</ele>
        <time>2026-09-02T10:59:23Z</time>
      </trkpt>
      <trkpt lat="44.70424" lon="7.08168">
        <ele>2277.9</ele>
        <time>2026-09-02T10:59:28Z</time>
      </trkpt>
      <trkpt lat="44.70426" lon="7.08166">
        <ele>2278.3</ele>
        <time>2026-09-02T10:59:33Z</time>
      </trkpt>
      <trkpt lat="44.70427" lon="7.08163">
        <ele>2278.9</ele>
        <time>2026-09-02T10:59:39Z</time>
      </trkpt>
      <trkpt lat="44.70427" lon="7.08163">
        <ele>2278.9</ele>
        <time>2026-09-02T10:59:44Z</time>
      </trkpt>
      <trkpt lat="44.70428" lon="7.08162">
        <ele>2279.1</ele>
        <time>2026-09-02T10:59:49Z</time>
      </trkpt>
      <trkpt lat="44.70427" lon="7.08159">
        <ele>2279.8</ele>
        <time>2026-09-02T10:59:55Z</time>
      </trkpt>
      <trkpt lat="44.70428" lon="7.08157">
        <ele>2280.2</ele>
        <time>2026-09-02T11:00:00Z</time>
      </trkpt>
      <trkpt lat="44.7043" lon="7.08153">
        <ele>2281.1</ele>
        <time>2026-09-02T11:00:05Z</time>
      </trkpt>
      <trkpt lat="44.70431" lon="7.08149">
        <ele>2281.9</ele>
        <time>2026-09-02T11:00:11Z</time>
      </trkpt>
      <trkpt lat="44.70435" lon="7.08147">
        <ele>2282.3</ele>
        <time>2026-09-02T11:00:16Z</time>
      </trkpt>
      <trkpt lat="44.70437" lon="7.08144">
        <ele>2282.9</ele>
        <time>2026-09-02T11:00:21Z</time>
      </trkpt>
      <trkpt lat="44.70441" lon="7.08143">
        <ele>2283</ele>
        <time>2026-09-02T11:00:27Z</time>
      </trkpt>
      <trkpt lat="44.70444" lon="7.08143">
        <ele>2283</ele>
        <time>2026-09-02T11:00:32Z</time>
      </trkpt>
      <trkpt lat="44.70448" lon="7.08144">
        <ele>2282.7</ele>
        <time>2026-09-02T11:00:37Z</time>
      </trkpt>
      <trkpt lat="44.70451" lon="7.08147">
        <ele>2282.1</ele>
        <time>2026-09-02T11:00:43Z</time>
      </trkpt>
      <trkpt lat="44.70455" lon="7.08147">
        <ele>2282.1</ele>
        <time>2026-09-02T11:00:48Z</time>
      </trkpt>
      <trkpt lat="44.70457" lon="7.08149">
        <ele>2281.7</ele>
        <time>2026-09-02T11:00:53Z</time>
      </trkpt>
      <trkpt lat="44.70458" lon="7.08152">
        <ele>2281.1</ele>
        <time>2026-09-02T11:00:59Z</time>
      </trkpt>
      <trkpt lat="44.7046" lon="7.08155">
        <ele>2280.6</ele>
        <time>2026-09-02T11:01:04Z</time>
      </trkpt>
      <trkpt lat="44.70461" lon="7.08159">
        <ele>2279.9</ele>
        <time>2026-09-02T11:01:09Z</time>
      </trkpt>
      <trkpt lat="44.70461" lon="7.08165">
        <ele>2278.8</ele>
        <time>2026-09-02T11:01:15Z</time>
      </trkpt>
      <trkpt lat="44.70462" lon="7.08171">
        <ele>2277.9</ele>
        <time>2026-09-02T11:01:20Z</time>
      </trkpt>
      <trkpt lat="44.70461" lon="7.08177">
        <ele>2277</ele>
        <time>2026-09-02T11:01:25Z</time>
      </trkpt>
      <trkpt lat="44.70462" lon="7.08185">
        <ele>2275.8</ele>
        <time>2026-09-02T11:01:31Z</time>
      </trkpt>
      <trkpt lat="44.70462" lon="7.08193">
        <ele>2274.6</ele>
        <time>2026-09-02T11:01:36Z</time>
      </trkpt>
      <trkpt lat="44.70462" lon="7.08201">
        <ele>2273.4</ele>
        <time>2026-09-02T11:01:41Z</time>
      </trkpt>
      <trkpt lat="44.70463" lon="7.08209">
        <ele>2272.2</ele>
        <time>2026-09-02T11:01:47Z</time>
      </trkpt>
      <trkpt lat="44.70464" lon="7.08216">
        <ele>2271.2</ele>
        <time>2026-09-02T11:01:52Z</time>
      </trkpt>
      <trkpt lat="44.70466" lon="7.08223">
        <ele>2270.2</ele>
        <time>2026-09-02T11:01:57Z</time>
      </trkpt>
      <trkpt lat="44.70466" lon="7.08232">
        <ele>2268.9</ele>
        <time>2026-09-02T11:02:03Z</time>
      </trkpt>
      <trkpt lat="44.70467" lon="7.08239">
        <ele>2267.8</ele>
        <time>2026-09-02T11:02:08Z</time>
      </trkpt>
      <trkpt lat="44.70469" lon="7.08244">
        <ele>2267.1</ele>
        <time>2026-09-02T11:02:13Z</time>
      </trkpt>
      <trkpt lat="44.70471" lon="7.0825">
        <ele>2266.3</ele>
        <time>2026-09-02T11:02:19Z</time>
      </trkpt>
      <trkpt lat="44.70474" lon="7.08256">
        <ele>2265.6</ele>
        <time>2026-09-02T11:02:24Z</time>
      </trkpt>
      <trkpt lat="44.70476" lon="7.0826">
        <ele>2265.1</ele>
        <time>2026-09-02T11:02:29Z</time>
      </trkpt>
      <trkpt lat="44.70478" lon="7.08263">
        <ele>2264.8</ele>
        <time>2026-09-02T11:02:35Z</time>
      </trkpt>
      <trkpt lat="44.70478" lon="7.08267">
        <ele>2264.3</ele>
        <time>2026-09-02T11:02:40Z</time>
      </trkpt>
      <trkpt lat="44.7048" lon="7.08269">
        <ele>2264.1</ele>
        <time>2026-09-02T11:02:45Z</time>
      </trkpt>
      <trkpt lat="44.70482" lon="7.08273">
        <ele>2263.6</ele>
        <time>2026-09-02T11:02:51Z</time>
      </trkpt>
      <trkpt lat="44.70484" lon="7.08277">
        <ele>2263.2</ele>
        <time>2026-09-02T11:02:56Z</time>
      </trkpt>
      <trkpt lat="44.70485" lon="7.08282">
        <ele>2262.6</ele>
        <time>2026-09-02T11:03:01Z</time>
      </trkpt>
      <trkpt lat="44.70485" lon="7.08282">
        <ele>2262.6</ele>
        <time>2026-09-02T11:03:07Z</time>
      </trkpt>
      <trkpt lat="44.70484" lon="7.08282">
        <ele>2262.6</ele>
        <time>2026-09-02T11:03:12Z</time>
      </trkpt>
      <trkpt lat="44.70484" lon="7.08282">
        <ele>2262.6</ele>
        <time>2026-09-02T11:03:17Z</time>
      </trkpt>
      <trkpt lat="44.70484" lon="7.08282">
        <ele>2262.6</ele>
        <time>2026-09-02T11:03:23Z</time>
      </trkpt>
      <trkpt lat="44.70484" lon="7.08282">
        <ele>2262.6</ele>
        <time>2026-09-02T11:03:28Z</time>
      </trkpt>
      <trkpt lat="44.70484" lon="7.08282">
        <ele>2262.6</ele>
        <time>2026-09-02T11:03:33Z</time>
      </trkpt>
      <trkpt lat="44.70484" lon="7.08282">
        <ele>2262.6</ele>
        <time>2026-09-02T11:03:39Z</time>
      </trkpt>
      <trkpt lat="44.70484" lon="7.08282">
        <ele>2262.6</ele>
        <time>2026-09-02T11:03:44Z</time>
      </trkpt>
      <trkpt lat="44.70484" lon="7.08282">
        <ele>2262.6</ele>
        <time>2026-09-02T11:03:49Z</time>
      </trkpt>
      <trkpt lat="44.70484" lon="7.08282">
        <ele>2262.6</ele>
        <time>2026-09-02T11:03:55Z</time>
      </trkpt>
      <trkpt lat="44.70484" lon="7.0829">
        <ele>2261.5</ele>
        <time>2026-09-02T11:04:00Z</time>
      </trkpt>
      <trkpt lat="44.70486" lon="7.08295">
        <ele>2261</ele>
        <time>2026-09-02T11:04:05Z</time>
      </trkpt>
      <trkpt lat="44.70487" lon="7.08301">
        <ele>2260.3</ele>
        <time>2026-09-02T11:04:11Z</time>
      </trkpt>
      <trkpt lat="44.70488" lon="7.08305">
        <ele>2259.8</ele>
        <time>2026-09-02T11:04:16Z</time>
      </trkpt>
      <trkpt lat="44.70491" lon="7.08308">
        <ele>2259.6</ele>
        <time>2026-09-02T11:04:21Z</time>
      </trkpt>
      <trkpt lat="44.70492" lon="7.08312">
        <ele>2259.2</ele>
        <time>2026-09-02T11:04:27Z</time>
      </trkpt>
      <trkpt lat="44.70495" lon="7.08314">
        <ele>2259.1</ele>
        <time>2026-09-02T11:04:32Z</time>
      </trkpt>
      <trkpt lat="44.70497" lon="7.08313">
        <ele>2259.3</ele>
        <time>2026-09-02T11:04:37Z</time>
      </trkpt>
      <trkpt lat="44.70499" lon="7.08312">
        <ele>2259.5</ele>
        <time>2026-09-02T11:04:43Z</time>
      </trkpt>
      <trkpt lat="44.705" lon="7.08311">
        <ele>2259.7</ele>
        <time>2026-09-02T11:04:48Z</time>
      </trkpt>
      <trkpt lat="44.705" lon="7.08311">
        <ele>2259.7</ele>
        <time>2026-09-02T11:04:53Z</time>
      </trkpt>
      <trkpt lat="44.705" lon="7.08311">
        <ele>2259.7</ele>
        <time>2026-09-02T11:04:59Z</time>
      </trkpt>
      <trkpt lat="44.705" lon="7.08311">
        <ele>2259.7</ele>
        <time>2026-09-02T11:05:04Z</time>
      </trkpt>
      <trkpt lat="44.705" lon="7.08308">
        <ele>2260</ele>
        <time>2026-09-02T11:05:09Z</time>
      </trkpt>
      <trkpt lat="44.70501" lon="7.083">
        <ele>2261.3</ele>
        <time>2026-09-02T11:05:15Z</time>
      </trkpt>
      <trkpt lat="44.70502" lon="7.08296">
        <ele>2262.2</ele>
        <time>2026-09-02T11:05:20Z</time>
      </trkpt>
      <trkpt lat="44.70504" lon="7.08293">
        <ele>2263.2</ele>
        <time>2026-09-02T11:05:25Z</time>
      </trkpt>
      <trkpt lat="44.70505" lon="7.08287">
        <ele>2264.3</ele>
        <time>2026-09-02T11:05:31Z</time>
      </trkpt>
      <trkpt lat="44.70504" lon="7.08283">
        <ele>2264.4</ele>
        <time>2026-09-02T11:05:36Z</time>
      </trkpt>
      <trkpt lat="44.70504" lon="7.08281">
        <ele>2264.7</ele>
        <time>2026-09-02T11:05:41Z</time>
      </trkpt>
      <trkpt lat="44.70505" lon="7.08277">
        <ele>2265.5</ele>
        <time>2026-09-02T11:05:47Z</time>
      </trkpt>
      <trkpt lat="44.70505" lon="7.08273">
        <ele>2266</ele>
        <time>2026-09-02T11:05:52Z</time>
      </trkpt>
      <trkpt lat="44.70505" lon="7.08271">
        <ele>2266.2</ele>
        <time>2026-09-02T11:05:57Z</time>
      </trkpt>
      <trkpt lat="44.70505" lon="7.0827">
        <ele>2266.3</ele>
        <time>2026-09-02T11:06:03Z</time>
      </trkpt>
      <trkpt lat="44.70505" lon="7.0827">
        <ele>2266.3</ele>
        <time>2026-09-02T11:06:08Z</time>
      </trkpt>
      <trkpt lat="44.70505" lon="7.0827">
        <ele>2266.3</ele>
        <time>2026-09-02T11:06:13Z</time>
      </trkpt>
      <trkpt lat="44.70505" lon="7.0827">
        <ele>2266.3</ele>
        <time>2026-09-02T11:06:19Z</time>
      </trkpt>
      <trkpt lat="44.70505" lon="7.0827">
        <ele>2266.3</ele>
        <time>2026-09-02T11:06:24Z</time>
      </trkpt>
      <trkpt lat="44.70505" lon="7.08267">
        <ele>2266.7</ele>
        <time>2026-09-02T11:06:29Z</time>
      </trkpt>
      <trkpt lat="44.70505" lon="7.08263">
        <ele>2267.2</ele>
        <time>2026-09-02T11:06:35Z</time>
      </trkpt>
      <trkpt lat="44.70505" lon="7.08262">
        <ele>2267.3</ele>
        <time>2026-09-02T11:06:40Z</time>
      </trkpt>
      <trkpt lat="44.70508" lon="7.0826">
        <ele>2268.6</ele>
        <time>2026-09-02T11:06:45Z</time>
      </trkpt>
      <trkpt lat="44.70513" lon="7.08256">
        <ele>2270.8</ele>
        <time>2026-09-02T11:06:51Z</time>
      </trkpt>
      <trkpt lat="44.70516" lon="7.08254">
        <ele>2272.1</ele>
        <time>2026-09-02T11:06:56Z</time>
      </trkpt>
      <trkpt lat="44.70517" lon="7.08251">
        <ele>2272.8</ele>
        <time>2026-09-02T11:07:01Z</time>
      </trkpt>
      <trkpt lat="44.70518" lon="7.08247">
        <ele>2273.7</ele>
        <time>2026-09-02T11:07:07Z</time>
      </trkpt>
      <trkpt lat="44.7052" lon="7.08242">
        <ele>2275</ele>
        <time>2026-09-02T11:07:12Z</time>
      </trkpt>
      <trkpt lat="44.70522" lon="7.08236">
        <ele>2276.5</ele>
        <time>2026-09-02T11:07:17Z</time>
      </trkpt>
      <trkpt lat="44.70526" lon="7.08229">
        <ele>2278.7</ele>
        <time>2026-09-02T11:07:23Z</time>
      </trkpt>
      <trkpt lat="44.70527" lon="7.08223">
        <ele>2279.8</ele>
        <time>2026-09-02T11:07:28Z</time>
      </trkpt>
      <trkpt lat="44.7053" lon="7.08216">
        <ele>2281.6</ele>
        <time>2026-09-02T11:07:33Z</time>
      </trkpt>
      <trkpt lat="44.70535" lon="7.08209">
        <ele>2284.1</ele>
        <time>2026-09-02T11:07:39Z</time>
      </trkpt>
      <trkpt lat="44.70542" lon="7.08204">
        <ele>2286.8</ele>
        <time>2026-09-02T11:07:44Z</time>
      </trkpt>
      <trkpt lat="44.70545" lon="7.08199">
        <ele>2288.4</ele>
        <time>2026-09-02T11:07:49Z</time>
      </trkpt>
      <trkpt lat="44.70548" lon="7.08194">
        <ele>2289.8</ele>
        <time>2026-09-02T11:07:55Z</time>
      </trkpt>
      <trkpt lat="44.70552" lon="7.08191">
        <ele>2291.4</ele>
        <time>2026-09-02T11:08:00Z</time>
      </trkpt>
      <trkpt lat="44.70555" lon="7.08187">
        <ele>2292.7</ele>
        <time>2026-09-02T11:08:05Z</time>
      </trkpt>
      <trkpt lat="44.70557" lon="7.08183">
        <ele>2293.7</ele>
        <time>2026-09-02T11:08:11Z</time>
      </trkpt>
      <trkpt lat="44.7056" lon="7.0818">
        <ele>2294.9</ele>
        <time>2026-09-02T11:08:16Z</time>
      </trkpt>
      <trkpt lat="44.70562" lon="7.0818">
        <ele>2295.5</ele>
        <time>2026-09-02T11:08:21Z</time>
      </trkpt>
      <trkpt lat="44.70563" lon="7.0818">
        <ele>2295.8</ele>
        <time>2026-09-02T11:08:27Z</time>
      </trkpt>
      <trkpt lat="44.70564" lon="7.08177">
        <ele>2296.4</ele>
        <time>2026-09-02T11:08:32Z</time>
      </trkpt>
      <trkpt lat="44.70566" lon="7.08174">
        <ele>2297.3</ele>
        <time>2026-09-02T11:08:37Z</time>
      </trkpt>
      <trkpt lat="44.70566" lon="7.08172">
        <ele>2297.5</ele>
        <time>2026-09-02T11:08:43Z</time>
      </trkpt>
      <trkpt lat="44.70568" lon="7.0817">
        <ele>2298.3</ele>
        <time>2026-09-02T11:08:48Z</time>
      </trkpt>
      <trkpt lat="44.7057" lon="7.08168">
        <ele>2299</ele>
        <time>2026-09-02T11:08:53Z</time>
      </trkpt>
      <trkpt lat="44.70573" lon="7.08166">
        <ele>2300.1</ele>
        <time>2026-09-02T11:08:59Z</time>
      </trkpt>
      <trkpt lat="44.70573" lon="7.08165">
        <ele>2300.1</ele>
        <time>2026-09-02T11:09:04Z</time>
      </trkpt>
      <trkpt lat="44.70573" lon="7.08165">
        <ele>2300.1</ele>
        <time>2026-09-02T11:09:09Z</time>
      </trkpt>
      <trkpt lat="44.70574" lon="7.08159">
        <ele>2300.8</ele>
        <time>2026-09-02T11:09:15Z</time>
      </trkpt>
      <trkpt lat="44.70576" lon="7.08158">
        <ele>2301.4</ele>
        <time>2026-09-02T11:09:20Z</time>
      </trkpt>
      <trkpt lat="44.70579" lon="7.08156">
        <ele>2302.3</ele>
        <time>2026-09-02T11:09:25Z</time>
      </trkpt>
      <trkpt lat="44.70586" lon="7.08155">
        <ele>2304.3</ele>
        <time>2026-09-02T11:09:31Z</time>
      </trkpt>
      <trkpt lat="44.70593" lon="7.08158">
        <ele>2306</ele>
        <time>2026-09-02T11:09:36Z</time>
      </trkpt>
      <trkpt lat="44.70594" lon="7.08161">
        <ele>2306.1</ele>
        <time>2026-09-02T11:09:41Z</time>
      </trkpt>
      <trkpt lat="44.70597" lon="7.08162">
        <ele>2306.9</ele>
        <time>2026-09-02T11:09:47Z</time>
      </trkpt>
      <trkpt lat="44.706" lon="7.0816">
        <ele>2307.8</ele>
        <time>2026-09-02T11:09:52Z</time>
      </trkpt>
      <trkpt lat="44.70603" lon="7.08159">
        <ele>2308.7</ele>
        <time>2026-09-02T11:09:57Z</time>
      </trkpt>
      <trkpt lat="44.70603" lon="7.08159">
        <ele>2308.7</ele>
        <time>2026-09-02T11:10:03Z</time>
      </trkpt>
      <trkpt lat="44.70603" lon="7.08159">
        <ele>2308.7</ele>
        <time>2026-09-02T11:10:08Z</time>
      </trkpt>
      <trkpt lat="44.70603" lon="7.08159">
        <ele>2308.7</ele>
        <time>2026-09-02T11:10:13Z</time>
      </trkpt>
      <trkpt lat="44.70603" lon="7.08159">
        <ele>2308.7</ele>
        <time>2026-09-02T11:10:19Z</time>
      </trkpt>
      <trkpt lat="44.70603" lon="7.08159">
        <ele>2308.7</ele>
        <time>2026-09-02T11:10:24Z</time>
      </trkpt>
      <trkpt lat="44.7061" lon="7.08154">
        <ele>2310.9</ele>
        <time>2026-09-02T11:10:29Z</time>
      </trkpt>
      <trkpt lat="44.70614" lon="7.08154">
        <ele>2312</ele>
        <time>2026-09-02T11:10:35Z</time>
      </trkpt>
      <trkpt lat="44.70618" lon="7.08153">
        <ele>2313.1</ele>
        <time>2026-09-02T11:10:40Z</time>
      </trkpt>
      <trkpt lat="44.70619" lon="7.0815">
        <ele>2313.6</ele>
        <time>2026-09-02T11:10:45Z</time>
      </trkpt>
      <trkpt lat="44.70623" lon="7.08149">
        <ele>2314.8</ele>
        <time>2026-09-02T11:10:51Z</time>
      </trkpt>
      <trkpt lat="44.70626" lon="7.08148">
        <ele>2315.7</ele>
        <time>2026-09-02T11:10:56Z</time>
      </trkpt>
      <trkpt lat="44.70628" lon="7.08145">
        <ele>2316.5</ele>
        <time>2026-09-02T11:11:01Z</time>
      </trkpt>
      <trkpt lat="44.70628" lon="7.0814">
        <ele>2316.9</ele>
        <time>2026-09-02T11:11:07Z</time>
      </trkpt>
      <trkpt lat="44.70629" lon="7.08136">
        <ele>2317.5</ele>
        <time>2026-09-02T11:11:12Z</time>
      </trkpt>
      <trkpt lat="44.7063" lon="7.08135">
        <ele>2317.9</ele>
        <time>2026-09-02T11:11:17Z</time>
      </trkpt>
      <trkpt lat="44.70631" lon="7.08135">
        <ele>2318.2</ele>
        <time>2026-09-02T11:11:23Z</time>
      </trkpt>
      <trkpt lat="44.70631" lon="7.08135">
        <ele>2318.2</ele>
        <time>2026-09-02T11:11:28Z</time>
      </trkpt>
      <trkpt lat="44.70635" lon="7.08133">
        <ele>2319.5</ele>
        <time>2026-09-02T11:11:33Z</time>
      </trkpt>
      <trkpt lat="44.70635" lon="7.08133">
        <ele>2319.5</ele>
        <time>2026-09-02T11:11:39Z</time>
      </trkpt>
      <trkpt lat="44.70635" lon="7.08133">
        <ele>2319.5</ele>
        <time>2026-09-02T11:11:44Z</time>
      </trkpt>
      <trkpt lat="44.70635" lon="7.08133">
        <ele>2319.5</ele>
        <time>2026-09-02T11:11:49Z</time>
      </trkpt>
      <trkpt lat="44.70635" lon="7.08133">
        <ele>2319.5</ele>
        <time>2026-09-02T11:11:55Z</time>
      </trkpt>
      <trkpt lat="44.70635" lon="7.08133">
        <ele>2319.5</ele>
        <time>2026-09-02T11:12:00Z</time>
      </trkpt>
      <trkpt lat="44.70635" lon="7.08133">
        <ele>2319.5</ele>
        <time>2026-09-02T11:12:05Z</time>
      </trkpt>
      <trkpt lat="44.70635" lon="7.08133">
        <ele>2319.5</ele>
        <time>2026-09-02T11:12:11Z</time>
      </trkpt>
      <trkpt lat="44.70639" lon="7.08133">
        <ele>2320.7</ele>
        <time>2026-09-02T11:12:16Z</time>
      </trkpt>
      <trkpt lat="44.70642" lon="7.08134">
        <ele>2321.4</ele>
        <time>2026-09-02T11:12:21Z</time>
      </trkpt>
      <trkpt lat="44.70644" lon="7.08138">
        <ele>2321.6</ele>
        <time>2026-09-02T11:12:27Z</time>
      </trkpt>
      <trkpt lat="44.70645" lon="7.0814">
        <ele>2321.7</ele>
        <time>2026-09-02T11:12:32Z</time>
      </trkpt>
      <trkpt lat="44.70645" lon="7.0814">
        <ele>2321.7</ele>
        <time>2026-09-02T11:12:37Z</time>
      </trkpt>
      <trkpt lat="44.70645" lon="7.0814">
        <ele>2321.7</ele>
        <time>2026-09-02T11:12:43Z</time>
      </trkpt>
      <trkpt lat="44.70645" lon="7.0814">
        <ele>2321.7</ele>
        <time>2026-09-02T11:12:48Z</time>
      </trkpt>
      <trkpt lat="44.70645" lon="7.0814">
        <ele>2321.7</ele>
        <time>2026-09-02T11:12:53Z</time>
      </trkpt>
      <trkpt lat="44.70645" lon="7.0814">
        <ele>2321.7</ele>
        <time>2026-09-02T11:12:59Z</time>
      </trkpt>
      <trkpt lat="44.70645" lon="7.0814">
        <ele>2321.7</ele>
        <time>2026-09-02T11:13:04Z</time>
      </trkpt>
      <trkpt lat="44.70645" lon="7.0814">
        <ele>2321.7</ele>
        <time>2026-09-02T11:13:09Z</time>
      </trkpt>
      <trkpt lat="44.70645" lon="7.0814">
        <ele>2321.7</ele>
        <time>2026-09-02T11:13:15Z</time>
      </trkpt>
      <trkpt lat="44.70645" lon="7.0814">
        <ele>2321.7</ele>
        <time>2026-09-02T11:13:20Z</time>
      </trkpt>
      <trkpt lat="44.70645" lon="7.0814">
        <ele>2321.7</ele>
        <time>2026-09-02T11:13:25Z</time>
      </trkpt>
      <trkpt lat="44.70645" lon="7.0814">
        <ele>2321.7</ele>
        <time>2026-09-02T11:13:31Z</time>
      </trkpt>
      <trkpt lat="44.70645" lon="7.0814">
        <ele>2321.7</ele>
        <time>2026-09-02T11:13:36Z</time>
      </trkpt>
      <trkpt lat="44.70645" lon="7.0814">
        <ele>2321.7</ele>
        <time>2026-09-02T11:13:41Z</time>
      </trkpt>
      <trkpt lat="44.70645" lon="7.0814">
        <ele>2321.7</ele>
        <time>2026-09-02T11:13:47Z</time>
      </trkpt>
      <trkpt lat="44.70645" lon="7.0814">
        <ele>2321.7</ele>
        <time>2026-09-02T11:13:52Z</time>
      </trkpt>
      <trkpt lat="44.70645" lon="7.0814">
        <ele>2321.7</ele>
        <time>2026-09-02T11:13:57Z</time>
      </trkpt>
      <trkpt lat="44.70645" lon="7.0814">
        <ele>2321.7</ele>
        <time>2026-09-02T11:14:03Z</time>
      </trkpt>
      <trkpt lat="44.70645" lon="7.0814">
        <ele>2321.7</ele>
        <time>2026-09-02T11:14:08Z</time>
      </trkpt>
      <trkpt lat="44.70645" lon="7.0814">
        <ele>2321.7</ele>
        <time>2026-09-02T11:14:13Z</time>
      </trkpt>
      <trkpt lat="44.70645" lon="7.0814">
        <ele>2321.7</ele>
        <time>2026-09-02T11:14:19Z</time>
      </trkpt>
      <trkpt lat="44.70645" lon="7.0814">
        <ele>2321.7</ele>
        <time>2026-09-02T11:14:24Z</time>
      </trkpt>
      <trkpt lat="44.70645" lon="7.0814">
        <ele>2321.7</ele>
        <time>2026-09-02T11:14:29Z</time>
      </trkpt>
      <trkpt lat="44.70645" lon="7.0814">
        <ele>2321.7</ele>
        <time>2026-09-02T11:14:35Z</time>
      </trkpt>
      <trkpt lat="44.70645" lon="7.08147">
        <ele>2321.1</ele>
        <time>2026-09-02T11:14:40Z</time>
      </trkpt>
      <trkpt lat="44.70642" lon="7.08155">
        <ele>2319.5</ele>
        <time>2026-09-02T11:14:45Z</time>
      </trkpt>
      <trkpt lat="44.70639" lon="7.08161">
        <ele>2318.2</ele>
        <time>2026-09-02T11:14:51Z</time>
      </trkpt>
      <trkpt lat="44.70638" lon="7.08166">
        <ele>2317.5</ele>
        <time>2026-09-02T11:14:56Z</time>
      </trkpt>
      <trkpt lat="44.70637" lon="7.0817">
        <ele>2316.9</ele>
        <time>2026-09-02T11:15:01Z</time>
      </trkpt>
      <trkpt lat="44.70639" lon="7.08176">
        <ele>2316.8</ele>
        <time>2026-09-02T11:15:07Z</time>
      </trkpt>
      <trkpt lat="44.70641" lon="7.0818">
        <ele>2317</ele>
        <time>2026-09-02T11:15:12Z</time>
      </trkpt>
      <trkpt lat="44.70644" lon="7.08187">
        <ele>2317.1</ele>
        <time>2026-09-02T11:15:17Z</time>
      </trkpt>
      <trkpt lat="44.70649" lon="7.08192">
        <ele>2318</ele>
        <time>2026-09-02T11:15:23Z</time>
      </trkpt>
      <trkpt lat="44.70651" lon="7.08197">
        <ele>2318</ele>
        <time>2026-09-02T11:15:28Z</time>
      </trkpt>
      <trkpt lat="44.70653" lon="7.08202">
        <ele>2318.1</ele>
        <time>2026-09-02T11:15:33Z</time>
      </trkpt>
      <trkpt lat="44.70656" lon="7.08205">
        <ele>2318.6</ele>
        <time>2026-09-02T11:15:39Z</time>
      </trkpt>
      <trkpt lat="44.70657" lon="7.08208">
        <ele>2318.5</ele>
        <time>2026-09-02T11:15:44Z</time>
      </trkpt>
      <trkpt lat="44.70662" lon="7.08208">
        <ele>2319.8</ele>
        <time>2026-09-02T11:15:49Z</time>
      </trkpt>
      <trkpt lat="44.70665" lon="7.08206">
        <ele>2320.8</ele>
        <time>2026-09-02T11:15:55Z</time>
      </trkpt>
      <trkpt lat="44.70665" lon="7.08202">
        <ele>2321.2</ele>
        <time>2026-09-02T11:16:00Z</time>
      </trkpt>
      <trkpt lat="44.70665" lon="7.08202">
        <ele>2321.2</ele>
        <time>2026-09-02T11:16:05Z</time>
      </trkpt>
      <trkpt lat="44.70665" lon="7.08202">
        <ele>2321.2</ele>
        <time>2026-09-02T11:16:11Z</time>
      </trkpt>
      <trkpt lat="44.70665" lon="7.08202">
        <ele>2321.2</ele>
        <time>2026-09-02T11:16:16Z</time>
      </trkpt>
      <trkpt lat="44.70662" lon="7.08198">
        <ele>2320.8</ele>
        <time>2026-09-02T11:16:21Z</time>
      </trkpt>
      <trkpt lat="44.70662" lon="7.08193">
        <ele>2321.3</ele>
        <time>2026-09-02T11:16:27Z</time>
      </trkpt>
      <trkpt lat="44.70665" lon="7.08189">
        <ele>2322.4</ele>
        <time>2026-09-02T11:16:32Z</time>
      </trkpt>
      <trkpt lat="44.70669" lon="7.08186">
        <ele>2323.8</ele>
        <time>2026-09-02T11:16:37Z</time>
      </trkpt>
      <trkpt lat="44.70673" lon="7.08182">
        <ele>2325.3</ele>
        <time>2026-09-02T11:16:43Z</time>
      </trkpt>
      <trkpt lat="44.70677" lon="7.08179">
        <ele>2326.7</ele>
        <time>2026-09-02T11:16:48Z</time>
      </trkpt>
      <trkpt lat="44.70681" lon="7.08178">
        <ele>2327.9</ele>
        <time>2026-09-02T11:16:53Z</time>
      </trkpt>
      <trkpt lat="44.70685" lon="7.08175">
        <ele>2329.3</ele>
        <time>2026-09-02T11:16:59Z</time>
      </trkpt>
      <trkpt lat="44.70686" lon="7.0817">
        <ele>2330</ele>
        <time>2026-09-02T11:17:04Z</time>
      </trkpt>
      <trkpt lat="44.70686" lon="7.0817">
        <ele>2330</ele>
        <time>2026-09-02T11:17:09Z</time>
      </trkpt>
      <trkpt lat="44.70686" lon="7.0817">
        <ele>2330</ele>
        <time>2026-09-02T11:17:15Z</time>
      </trkpt>
      <trkpt lat="44.70686" lon="7.0817">
        <ele>2330</ele>
        <time>2026-09-02T11:17:20Z</time>
      </trkpt>
      <trkpt lat="44.70686" lon="7.0817">
        <ele>2330</ele>
        <time>2026-09-02T11:17:25Z</time>
      </trkpt>
      <trkpt lat="44.70686" lon="7.0817">
        <ele>2330</ele>
        <time>2026-09-02T11:17:31Z</time>
      </trkpt>
      <trkpt lat="44.70686" lon="7.0817">
        <ele>2330</ele>
        <time>2026-09-02T11:17:36Z</time>
      </trkpt>
      <trkpt lat="44.70686" lon="7.0817">
        <ele>2330</ele>
        <time>2026-09-02T11:17:41Z</time>
      </trkpt>
      <trkpt lat="44.70686" lon="7.0817">
        <ele>2330</ele>
        <time>2026-09-02T11:17:47Z</time>
      </trkpt>
      <trkpt lat="44.70686" lon="7.0817">
        <ele>2330</ele>
        <time>2026-09-02T11:17:52Z</time>
      </trkpt>
      <trkpt lat="44.7069" lon="7.08158">
        <ele>2332.3</ele>
        <time>2026-09-02T11:17:57Z</time>
      </trkpt>
      <trkpt lat="44.70692" lon="7.08153">
        <ele>2333.3</ele>
        <time>2026-09-02T11:18:03Z</time>
      </trkpt>
      <trkpt lat="44.70694" lon="7.08148">
        <ele>2334.3</ele>
        <time>2026-09-02T11:18:08Z</time>
      </trkpt>
      <trkpt lat="44.70694" lon="7.08142">
        <ele>2334.8</ele>
        <time>2026-09-02T11:18:13Z</time>
      </trkpt>
      <trkpt lat="44.70696" lon="7.08136">
        <ele>2335.9</ele>
        <time>2026-09-02T11:18:19Z</time>
      </trkpt>
      <trkpt lat="44.70698" lon="7.08134">
        <ele>2336.6</ele>
        <time>2026-09-02T11:18:24Z</time>
      </trkpt>
      <trkpt lat="44.707" lon="7.08131">
        <ele>2337.4</ele>
        <time>2026-09-02T11:18:29Z</time>
      </trkpt>
      <trkpt lat="44.70702" lon="7.08129">
        <ele>2338.1</ele>
        <time>2026-09-02T11:18:35Z</time>
      </trkpt>
      <trkpt lat="44.70705" lon="7.08127">
        <ele>2339</ele>
        <time>2026-09-02T11:18:40Z</time>
      </trkpt>
      <trkpt lat="44.70708" lon="7.08123">
        <ele>2340.1</ele>
        <time>2026-09-02T11:18:45Z</time>
      </trkpt>
      <trkpt lat="44.7071" lon="7.08124">
        <ele>2340.5</ele>
        <time>2026-09-02T11:18:51Z</time>
      </trkpt>
      <trkpt lat="44.70711" lon="7.08128">
        <ele>2340.4</ele>
        <time>2026-09-02T11:18:56Z</time>
      </trkpt>
      <trkpt lat="44.70711" lon="7.08134">
        <ele>2339.9</ele>
        <time>2026-09-02T11:19:01Z</time>
      </trkpt>
      <trkpt lat="44.70715" lon="7.08138">
        <ele>2340.6</ele>
        <time>2026-09-02T11:19:07Z</time>
      </trkpt>
      <trkpt lat="44.70715" lon="7.08141">
        <ele>2340.4</ele>
        <time>2026-09-02T11:19:12Z</time>
      </trkpt>
      <trkpt lat="44.70714" lon="7.08142">
        <ele>2340.1</ele>
        <time>2026-09-02T11:19:17Z</time>
      </trkpt>
      <trkpt lat="44.70714" lon="7.08143">
        <ele>2340</ele>
        <time>2026-09-02T11:19:23Z</time>
      </trkpt>
      <trkpt lat="44.70715" lon="7.08146">
        <ele>2340</ele>
        <time>2026-09-02T11:19:28Z</time>
      </trkpt>
      <trkpt lat="44.70716" lon="7.08151">
        <ele>2339.9</ele>
        <time>2026-09-02T11:19:33Z</time>
      </trkpt>
      <trkpt lat="44.70717" lon="7.08156">
        <ele>2339.7</ele>
        <time>2026-09-02T11:19:39Z</time>
      </trkpt>
      <trkpt lat="44.70718" lon="7.08161">
        <ele>2339.6</ele>
        <time>2026-09-02T11:19:44Z</time>
      </trkpt>
      <trkpt lat="44.70718" lon="7.08169">
        <ele>2338.9</ele>
        <time>2026-09-02T11:19:49Z</time>
      </trkpt>
      <trkpt lat="44.70719" lon="7.08175">
        <ele>2338.6</ele>
        <time>2026-09-02T11:19:55Z</time>
      </trkpt>
      <trkpt lat="44.70722" lon="7.08179">
        <ele>2339.1</ele>
        <time>2026-09-02T11:20:00Z</time>
      </trkpt>
      <trkpt lat="44.70724" lon="7.08184">
        <ele>2339.2</ele>
        <time>2026-09-02T11:20:05Z</time>
      </trkpt>
      <trkpt lat="44.70725" lon="7.08184">
        <ele>2339.4</ele>
        <time>2026-09-02T11:20:11Z</time>
      </trkpt>
      <trkpt lat="44.70726" lon="7.08189">
        <ele>2339.2</ele>
        <time>2026-09-02T11:20:16Z</time>
      </trkpt>
      <trkpt lat="44.70728" lon="7.08192">
        <ele>2339.5</ele>
        <time>2026-09-02T11:20:21Z</time>
      </trkpt>
      <trkpt lat="44.70733" lon="7.08194">
        <ele>2340.7</ele>
        <time>2026-09-02T11:20:27Z</time>
      </trkpt>
      <trkpt lat="44.70736" lon="7.08194">
        <ele>2341.5</ele>
        <time>2026-09-02T11:20:32Z</time>
      </trkpt>
      <trkpt lat="44.70738" lon="7.08196">
        <ele>2341.9</ele>
        <time>2026-09-02T11:20:37Z</time>
      </trkpt>
      <trkpt lat="44.70738" lon="7.08196">
        <ele>2341.9</ele>
        <time>2026-09-02T11:20:43Z</time>
      </trkpt>
      <trkpt lat="44.70738" lon="7.08196">
        <ele>2341.9</ele>
        <time>2026-09-02T11:20:48Z</time>
      </trkpt>
      <trkpt lat="44.70738" lon="7.08196">
        <ele>2341.9</ele>
        <time>2026-09-02T11:20:53Z</time>
      </trkpt>
      <trkpt lat="44.70738" lon="7.08196">
        <ele>2341.9</ele>
        <time>2026-09-02T11:20:59Z</time>
      </trkpt>
      <trkpt lat="44.70738" lon="7.08196">
        <ele>2341.9</ele>
        <time>2026-09-02T11:21:04Z</time>
      </trkpt>
      <trkpt lat="44.70738" lon="7.08196">
        <ele>2341.9</ele>
        <time>2026-09-02T11:21:09Z</time>
      </trkpt>
      <trkpt lat="44.70738" lon="7.08196">
        <ele>2341.9</ele>
        <time>2026-09-02T11:21:15Z</time>
      </trkpt>
      <trkpt lat="44.70738" lon="7.08196">
        <ele>2341.9</ele>
        <time>2026-09-02T11:21:20Z</time>
      </trkpt>
      <trkpt lat="44.70738" lon="7.08196">
        <ele>2341.9</ele>
        <time>2026-09-02T11:21:25Z</time>
      </trkpt>
      <trkpt lat="44.70738" lon="7.08196">
        <ele>2341.9</ele>
        <time>2026-09-02T11:21:31Z</time>
      </trkpt>
      <trkpt lat="44.70738" lon="7.08196">
        <ele>2341.9</ele>
        <time>2026-09-02T11:21:36Z</time>
      </trkpt>
      <trkpt lat="44.70738" lon="7.08196">
        <ele>2341.9</ele>
        <time>2026-09-02T11:21:41Z</time>
      </trkpt>
      <trkpt lat="44.70738" lon="7.08196">
        <ele>2341.9</ele>
        <time>2026-09-02T11:21:47Z</time>
      </trkpt>
      <trkpt lat="44.70738" lon="7.08196">
        <ele>2341.9</ele>
        <time>2026-09-02T11:21:52Z</time>
      </trkpt>
      <trkpt lat="44.70738" lon="7.08196">
        <ele>2341.9</ele>
        <time>2026-09-02T11:21:57Z</time>
      </trkpt>
      <trkpt lat="44.70738" lon="7.08196">
        <ele>2341.9</ele>
        <time>2026-09-02T11:22:03Z</time>
      </trkpt>
      <trkpt lat="44.70738" lon="7.08196">
        <ele>2341.9</ele>
        <time>2026-09-02T11:22:08Z</time>
      </trkpt>
      <trkpt lat="44.70738" lon="7.08196">
        <ele>2341.9</ele>
        <time>2026-09-02T11:22:13Z</time>
      </trkpt>
      <trkpt lat="44.70738" lon="7.08196">
        <ele>2341.9</ele>
        <time>2026-09-02T11:22:19Z</time>
      </trkpt>
      <trkpt lat="44.70738" lon="7.08196">
        <ele>2341.9</ele>
        <time>2026-09-02T11:22:24Z</time>
      </trkpt>
      <trkpt lat="44.70738" lon="7.08196">
        <ele>2341.9</ele>
        <time>2026-09-02T11:22:29Z</time>
      </trkpt>
      <trkpt lat="44.70738" lon="7.08196">
        <ele>2341.9</ele>
        <time>2026-09-02T11:22:35Z</time>
      </trkpt>
      <trkpt lat="44.70738" lon="7.08196">
        <ele>2341.9</ele>
        <time>2026-09-02T11:22:40Z</time>
      </trkpt>
      <trkpt lat="44.70738" lon="7.08196">
        <ele>2341.9</ele>
        <time>2026-09-02T11:22:45Z</time>
      </trkpt>
      <trkpt lat="44.70738" lon="7.08196">
        <ele>2341.9</ele>
        <time>2026-09-02T11:22:51Z</time>
      </trkpt>
      <trkpt lat="44.70738" lon="7.08196">
        <ele>2341.9</ele>
        <time>2026-09-02T11:22:56Z</time>
      </trkpt>
      <trkpt lat="44.70738" lon="7.08196">
        <ele>2341.9</ele>
        <time>2026-09-02T11:23:01Z</time>
      </trkpt>
      <trkpt lat="44.70738" lon="7.08196">
        <ele>2341.9</ele>
        <time>2026-09-02T11:23:07Z</time>
      </trkpt>
      <trkpt lat="44.70738" lon="7.08196">
        <ele>2341.9</ele>
        <time>2026-09-02T11:23:12Z</time>
      </trkpt>
      <trkpt lat="44.70738" lon="7.08196">
        <ele>2341.9</ele>
        <time>2026-09-02T11:23:17Z</time>
      </trkpt>
      <trkpt lat="44.70738" lon="7.08196">
        <ele>2341.9</ele>
        <time>2026-09-02T11:23:23Z</time>
      </trkpt>
      <trkpt lat="44.70738" lon="7.08196">
        <ele>2341.9</ele>
        <time>2026-09-02T11:23:28Z</time>
      </trkpt>
      <trkpt lat="44.70738" lon="7.08196">
        <ele>2341.9</ele>
        <time>2026-09-02T11:23:33Z</time>
      </trkpt>
      <trkpt lat="44.70738" lon="7.08196">
        <ele>2341.9</ele>
        <time>2026-09-02T11:23:39Z</time>
      </trkpt>
      <trkpt lat="44.70738" lon="7.08196">
        <ele>2341.9</ele>
        <time>2026-09-02T11:23:44Z</time>
      </trkpt>
      <trkpt lat="44.70738" lon="7.08196">
        <ele>2341.9</ele>
        <time>2026-09-02T11:23:49Z</time>
      </trkpt>
      <trkpt lat="44.70738" lon="7.08196">
        <ele>2341.9</ele>
        <time>2026-09-02T11:23:55Z</time>
      </trkpt>
      <trkpt lat="44.70738" lon="7.08196">
        <ele>2341.9</ele>
        <time>2026-09-02T11:24:00Z</time>
      </trkpt>
      <trkpt lat="44.70738" lon="7.08196">
        <ele>2341.9</ele>
        <time>2026-09-02T11:24:05Z</time>
      </trkpt>
      <trkpt lat="44.70738" lon="7.08196">
        <ele>2341.9</ele>
        <time>2026-09-02T11:24:11Z</time>
      </trkpt>
      <trkpt lat="44.70738" lon="7.08196">
        <ele>2341.9</ele>
        <time>2026-09-02T11:24:16Z</time>
      </trkpt>
      <trkpt lat="44.70738" lon="7.08196">
        <ele>2341.9</ele>
        <time>2026-09-02T11:24:21Z</time>
      </trkpt>
      <trkpt lat="44.70738" lon="7.08196">
        <ele>2341.9</ele>
        <time>2026-09-02T11:24:27Z</time>
      </trkpt>
      <trkpt lat="44.70738" lon="7.08196">
        <ele>2341.9</ele>
        <time>2026-09-02T11:24:32Z</time>
      </trkpt>
      <trkpt lat="44.70738" lon="7.08196">
        <ele>2341.9</ele>
        <time>2026-09-02T11:24:37Z</time>
      </trkpt>
      <trkpt lat="44.70738" lon="7.08196">
        <ele>2341.9</ele>
        <time>2026-09-02T11:24:43Z</time>
      </trkpt>
      <trkpt lat="44.70738" lon="7.08196">
        <ele>2341.9</ele>
        <time>2026-09-02T11:24:48Z</time>
      </trkpt>
      <trkpt lat="44.70738" lon="7.08196">
        <ele>2341.9</ele>
        <time>2026-09-02T11:24:53Z</time>
      </trkpt>
      <trkpt lat="44.70738" lon="7.08196">
        <ele>2341.9</ele>
        <time>2026-09-02T11:24:59Z</time>
      </trkpt>
      <trkpt lat="44.70738" lon="7.08196">
        <ele>2341.9</ele>
        <time>2026-09-02T11:25:04Z</time>
      </trkpt>
      <trkpt lat="44.70744" lon="7.08194">
        <ele>2343.7</ele>
        <time>2026-09-02T11:25:09Z</time>
      </trkpt>
      <trkpt lat="44.70747" lon="7.08189">
        <ele>2345</ele>
        <time>2026-09-02T11:25:15Z</time>
      </trkpt>
      <trkpt lat="44.70749" lon="7.08182">
        <ele>2346.3</ele>
        <time>2026-09-02T11:25:20Z</time>
      </trkpt>
      <trkpt lat="44.70751" lon="7.08176">
        <ele>2347.5</ele>
        <time>2026-09-02T11:25:25Z</time>
      </trkpt>
      <trkpt lat="44.70754" lon="7.08169">
        <ele>2349.2</ele>
        <time>2026-09-02T11:25:31Z</time>
      </trkpt>
      <trkpt lat="44.70756" lon="7.08164">
        <ele>2350.3</ele>
        <time>2026-09-02T11:25:36Z</time>
      </trkpt>
      <trkpt lat="44.70757" lon="7.0816">
        <ele>2350.9</ele>
        <time>2026-09-02T11:25:41Z</time>
      </trkpt>
      <trkpt lat="44.7076" lon="7.08154">
        <ele>2352.3</ele>
        <time>2026-09-02T11:25:47Z</time>
      </trkpt>
      <trkpt lat="44.70761" lon="7.08148">
        <ele>2353</ele>
        <time>2026-09-02T11:25:52Z</time>
      </trkpt>
      <trkpt lat="44.70763" lon="7.08145">
        <ele>2353.9</ele>
        <time>2026-09-02T11:25:57Z</time>
      </trkpt>
      <trkpt lat="44.70765" lon="7.0814">
        <ele>2354.8</ele>
        <time>2026-09-02T11:26:03Z</time>
      </trkpt>
      <trkpt lat="44.70766" lon="7.08137">
        <ele>2355.3</ele>
        <time>2026-09-02T11:26:08Z</time>
      </trkpt>
      <trkpt lat="44.70768" lon="7.08134">
        <ele>2356.2</ele>
        <time>2026-09-02T11:26:13Z</time>
      </trkpt>
      <trkpt lat="44.70769" lon="7.0813">
        <ele>2356.7</ele>
        <time>2026-09-02T11:26:19Z</time>
      </trkpt>
      <trkpt lat="44.7077" lon="7.08127">
        <ele>2357.2</ele>
        <time>2026-09-02T11:26:24Z</time>
      </trkpt>
      <trkpt lat="44.70769" lon="7.08125">
        <ele>2357</ele>
        <time>2026-09-02T11:26:29Z</time>
      </trkpt>
      <trkpt lat="44.70769" lon="7.08125">
        <ele>2357</ele>
        <time>2026-09-02T11:26:35Z</time>
      </trkpt>
      <trkpt lat="44.70769" lon="7.08125">
        <ele>2357</ele>
        <time>2026-09-02T11:26:40Z</time>
      </trkpt>
      <trkpt lat="44.70769" lon="7.08125">
        <ele>2357</ele>
        <time>2026-09-02T11:26:45Z</time>
      </trkpt>
      <trkpt lat="44.7077" lon="7.08118">
        <ele>2357.7</ele>
        <time>2026-09-02T11:26:51Z</time>
      </trkpt>
      <trkpt lat="44.70771" lon="7.08115">
        <ele>2358.2</ele>
        <time>2026-09-02T11:26:56Z</time>
      </trkpt>
      <trkpt lat="44.70772" lon="7.08112">
        <ele>2358.7</ele>
        <time>2026-09-02T11:27:01Z</time>
      </trkpt>
      <trkpt lat="44.70773" lon="7.08106">
        <ele>2359.3</ele>
        <time>2026-09-02T11:27:07Z</time>
      </trkpt>
      <trkpt lat="44.70774" lon="7.08101">
        <ele>2359.9</ele>
        <time>2026-09-02T11:27:12Z</time>
      </trkpt>
      <trkpt lat="44.70775" lon="7.08096">
        <ele>2360.5</ele>
        <time>2026-09-02T11:27:17Z</time>
      </trkpt>
      <trkpt lat="44.70776" lon="7.0809">
        <ele>2361.1</ele>
        <time>2026-09-02T11:27:23Z</time>
      </trkpt>
      <trkpt lat="44.70777" lon="7.08086">
        <ele>2361.6</ele>
        <time>2026-09-02T11:27:28Z</time>
      </trkpt>
      <trkpt lat="44.70779" lon="7.08081">
        <ele>2362.6</ele>
        <time>2026-09-02T11:27:33Z</time>
      </trkpt>
      <trkpt lat="44.7078" lon="7.08077">
        <ele>2363.1</ele>
        <time>2026-09-02T11:27:39Z</time>
      </trkpt>
      <trkpt lat="44.70781" lon="7.08071">
        <ele>2363.9</ele>
        <time>2026-09-02T11:27:44Z</time>
      </trkpt>
      <trkpt lat="44.70782" lon="7.08066">
        <ele>2364.5</ele>
        <time>2026-09-02T11:27:49Z</time>
      </trkpt>
      <trkpt lat="44.70784" lon="7.08062">
        <ele>2365.4</ele>
        <time>2026-09-02T11:27:55Z</time>
      </trkpt>
      <trkpt lat="44.70785" lon="7.08057">
        <ele>2366.1</ele>
        <time>2026-09-02T11:28:00Z</time>
      </trkpt>
      <trkpt lat="44.70785" lon="7.08053">
        <ele>2366.4</ele>
        <time>2026-09-02T11:28:05Z</time>
      </trkpt>
      <trkpt lat="44.70787" lon="7.08048">
        <ele>2367.3</ele>
        <time>2026-09-02T11:28:11Z</time>
      </trkpt>
      <trkpt lat="44.70787" lon="7.08044">
        <ele>2367.6</ele>
        <time>2026-09-02T11:28:16Z</time>
      </trkpt>
      <trkpt lat="44.70788" lon="7.08041">
        <ele>2368.1</ele>
        <time>2026-09-02T11:28:21Z</time>
      </trkpt>
      <trkpt lat="44.70788" lon="7.0804">
        <ele>2368.2</ele>
        <time>2026-09-02T11:28:27Z</time>
      </trkpt>
      <trkpt lat="44.70788" lon="7.0804">
        <ele>2368.2</ele>
        <time>2026-09-02T11:28:32Z</time>
      </trkpt>
      <trkpt lat="44.70788" lon="7.08034">
        <ele>2368.6</ele>
        <time>2026-09-02T11:28:37Z</time>
      </trkpt>
      <trkpt lat="44.7079" lon="7.08029">
        <ele>2369.6</ele>
        <time>2026-09-02T11:28:43Z</time>
      </trkpt>
      <trkpt lat="44.70791" lon="7.08027">
        <ele>2370</ele>
        <time>2026-09-02T11:28:48Z</time>
      </trkpt>
      <trkpt lat="44.70793" lon="7.08025">
        <ele>2370.8</ele>
        <time>2026-09-02T11:28:53Z</time>
      </trkpt>
      <trkpt lat="44.70795" lon="7.08023">
        <ele>2371.5</ele>
        <time>2026-09-02T11:28:59Z</time>
      </trkpt>
      <trkpt lat="44.70797" lon="7.08019">
        <ele>2372.4</ele>
        <time>2026-09-02T11:29:04Z</time>
      </trkpt>
      <trkpt lat="44.70799" lon="7.08016">
        <ele>2373.2</ele>
        <time>2026-09-02T11:29:09Z</time>
      </trkpt>
      <trkpt lat="44.70801" lon="7.08011">
        <ele>2374.2</ele>
        <time>2026-09-02T11:29:15Z</time>
      </trkpt>
      <trkpt lat="44.70799" lon="7.08006">
        <ele>2373.9</ele>
        <time>2026-09-02T11:29:20Z</time>
      </trkpt>
      <trkpt lat="44.70796" lon="7.08002">
        <ele>2373.2</ele>
        <time>2026-09-02T11:29:25Z</time>
      </trkpt>
      <trkpt lat="44.70793" lon="7.07997">
        <ele>2372.7</ele>
        <time>2026-09-02T11:29:31Z</time>
      </trkpt>
      <trkpt lat="44.70793" lon="7.07992">
        <ele>2373.3</ele>
        <time>2026-09-02T11:29:36Z</time>
      </trkpt>
      <trkpt lat="44.70795" lon="7.07986">
        <ele>2374.6</ele>
        <time>2026-09-02T11:29:41Z</time>
      </trkpt>
      <trkpt lat="44.70794" lon="7.07982">
        <ele>2374.7</ele>
        <time>2026-09-02T11:29:47Z</time>
      </trkpt>
      <trkpt lat="44.70795" lon="7.07978">
        <ele>2375.4</ele>
        <time>2026-09-02T11:29:52Z</time>
      </trkpt>
      <trkpt lat="44.70795" lon="7.07975">
        <ele>2375.8</ele>
        <time>2026-09-02T11:29:57Z</time>
      </trkpt>
      <trkpt lat="44.70795" lon="7.07969">
        <ele>2376.4</ele>
        <time>2026-09-02T11:30:03Z</time>
      </trkpt>
      <trkpt lat="44.70796" lon="7.07965">
        <ele>2377.2</ele>
        <time>2026-09-02T11:30:08Z</time>
      </trkpt>
      <trkpt lat="44.70794" lon="7.0796">
        <ele>2377.1</ele>
        <time>2026-09-02T11:30:13Z</time>
      </trkpt>
      <trkpt lat="44.70793" lon="7.07954">
        <ele>2377.4</ele>
        <time>2026-09-02T11:30:19Z</time>
      </trkpt>
      <trkpt lat="44.70791" lon="7.0795">
        <ele>2377.2</ele>
        <time>2026-09-02T11:30:24Z</time>
      </trkpt>
      <trkpt lat="44.70792" lon="7.07945">
        <ele>2378</ele>
        <time>2026-09-02T11:30:29Z</time>
      </trkpt>
      <trkpt lat="44.70789" lon="7.07942">
        <ele>2377.4</ele>
        <time>2026-09-02T11:30:35Z</time>
      </trkpt>
      <trkpt lat="44.70788" lon="7.07939">
        <ele>2377.4</ele>
        <time>2026-09-02T11:30:40Z</time>
      </trkpt>
      <trkpt lat="44.70787" lon="7.07938">
        <ele>2377.2</ele>
        <time>2026-09-02T11:30:45Z</time>
      </trkpt>
      <trkpt lat="44.70787" lon="7.07938">
        <ele>2377.2</ele>
        <time>2026-09-02T11:30:51Z</time>
      </trkpt>
      <trkpt lat="44.7079" lon="7.0793">
        <ele>2379</ele>
        <time>2026-09-02T11:30:56Z</time>
      </trkpt>
      <trkpt lat="44.70791" lon="7.0793">
        <ele>2379.3</ele>
        <time>2026-09-02T11:31:01Z</time>
      </trkpt>
      <trkpt lat="44.70791" lon="7.07932">
        <ele>2379.1</ele>
        <time>2026-09-02T11:31:07Z</time>
      </trkpt>
      <trkpt lat="44.70794" lon="7.07933">
        <ele>2380</ele>
        <time>2026-09-02T11:31:12Z</time>
      </trkpt>
      <trkpt lat="44.70796" lon="7.07934">
        <ele>2380.6</ele>
        <time>2026-09-02T11:31:17Z</time>
      </trkpt>
      <trkpt lat="44.70799" lon="7.07937">
        <ele>2381.2</ele>
        <time>2026-09-02T11:31:23Z</time>
      </trkpt>
      <trkpt lat="44.70802" lon="7.07938">
        <ele>2382.1</ele>
        <time>2026-09-02T11:31:28Z</time>
      </trkpt>
      <trkpt lat="44.70804" lon="7.07941">
        <ele>2382.4</ele>
        <time>2026-09-02T11:31:33Z</time>
      </trkpt>
      <trkpt lat="44.70807" lon="7.07942">
        <ele>2383.3</ele>
        <time>2026-09-02T11:31:39Z</time>
      </trkpt>
      <trkpt lat="44.70809" lon="7.07944">
        <ele>2383.7</ele>
        <time>2026-09-02T11:31:44Z</time>
      </trkpt>
      <trkpt lat="44.7081" lon="7.07948">
        <ele>2383.6</ele>
        <time>2026-09-02T11:31:49Z</time>
      </trkpt>
      <trkpt lat="44.70813" lon="7.07951">
        <ele>2384.2</ele>
        <time>2026-09-02T11:31:55Z</time>
      </trkpt>
      <trkpt lat="44.70816" lon="7.07952">
        <ele>2385.1</ele>
        <time>2026-09-02T11:32:00Z</time>
      </trkpt>
      <trkpt lat="44.70818" lon="7.07955">
        <ele>2385.4</ele>
        <time>2026-09-02T11:32:05Z</time>
      </trkpt>
      <trkpt lat="44.70819" lon="7.07961">
        <ele>2385</ele>
        <time>2026-09-02T11:32:11Z</time>
      </trkpt>
      <trkpt lat="44.70821" lon="7.07966">
        <ele>2385.1</ele>
        <time>2026-09-02T11:32:16Z</time>
      </trkpt>
      <trkpt lat="44.70822" lon="7.07972">
        <ele>2384.7</ele>
        <time>2026-09-02T11:32:21Z</time>
      </trkpt>
      <trkpt lat="44.70824" lon="7.07977">
        <ele>2384.8</ele>
        <time>2026-09-02T11:32:27Z</time>
      </trkpt>
      <trkpt lat="44.70826" lon="7.07981">
        <ele>2385</ele>
        <time>2026-09-02T11:32:32Z</time>
      </trkpt>
      <trkpt lat="44.70829" lon="7.07984">
        <ele>2385.5</ele>
        <time>2026-09-02T11:32:37Z</time>
      </trkpt>
      <trkpt lat="44.7083" lon="7.07985">
        <ele>2385.7</ele>
        <time>2026-09-02T11:32:43Z</time>
      </trkpt>
      <trkpt lat="44.70829" lon="7.07986">
        <ele>2385.3</ele>
        <time>2026-09-02T11:32:48Z</time>
      </trkpt>
      <trkpt lat="44.70832" lon="7.0799">
        <ele>2385.8</ele>
        <time>2026-09-02T11:32:53Z</time>
      </trkpt>
      <trkpt lat="44.70836" lon="7.07992">
        <ele>2387.2</ele>
        <time>2026-09-02T11:32:59Z</time>
      </trkpt>
      <trkpt lat="44.7084" lon="7.07993">
        <ele>2388.9</ele>
        <time>2026-09-02T11:33:04Z</time>
      </trkpt>
      <trkpt lat="44.70843" lon="7.07994">
        <ele>2390.2</ele>
        <time>2026-09-02T11:33:09Z</time>
      </trkpt>
      <trkpt lat="44.70847" lon="7.07998">
        <ele>2391.6</ele>
        <time>2026-09-02T11:33:15Z</time>
      </trkpt>
      <trkpt lat="44.70851" lon="7.08">
        <ele>2393.3</ele>
        <time>2026-09-02T11:33:20Z</time>
      </trkpt>
      <trkpt lat="44.70853" lon="7.08005">
        <ele>2393.9</ele>
        <time>2026-09-02T11:33:25Z</time>
      </trkpt>
      <trkpt lat="44.70853" lon="7.08013">
        <ele>2393.5</ele>
        <time>2026-09-02T11:33:31Z</time>
      </trkpt>
      <trkpt lat="44.70853" lon="7.08019">
        <ele>2393.2</ele>
        <time>2026-09-02T11:33:36Z</time>
      </trkpt>
      <trkpt lat="44.70853" lon="7.08024">
        <ele>2393</ele>
        <time>2026-09-02T11:33:41Z</time>
      </trkpt>
      <trkpt lat="44.70851" lon="7.0803">
        <ele>2391.7</ele>
        <time>2026-09-02T11:33:47Z</time>
      </trkpt>
      <trkpt lat="44.7085" lon="7.08035">
        <ele>2391</ele>
        <time>2026-09-02T11:33:52Z</time>
      </trkpt>
      <trkpt lat="44.70848" lon="7.08037">
        <ele>2389.9</ele>
        <time>2026-09-02T11:33:57Z</time>
      </trkpt>
      <trkpt lat="44.70847" lon="7.0804">
        <ele>2389.2</ele>
        <time>2026-09-02T11:34:03Z</time>
      </trkpt>
      <trkpt lat="44.70845" lon="7.08042">
        <ele>2388.2</ele>
        <time>2026-09-02T11:34:08Z</time>
      </trkpt>
      <trkpt lat="44.70845" lon="7.08043">
        <ele>2388.1</ele>
        <time>2026-09-02T11:34:13Z</time>
      </trkpt>
      <trkpt lat="44.70842" lon="7.08048">
        <ele>2386.4</ele>
        <time>2026-09-02T11:34:19Z</time>
      </trkpt>
      <trkpt lat="44.7084" lon="7.08051">
        <ele>2385.2</ele>
        <time>2026-09-02T11:34:24Z</time>
      </trkpt>
      <trkpt lat="44.7084" lon="7.08054">
        <ele>2385</ele>
        <time>2026-09-02T11:34:29Z</time>
      </trkpt>
      <trkpt lat="44.70839" lon="7.0806">
        <ele>2384.2</ele>
        <time>2026-09-02T11:34:35Z</time>
      </trkpt>
      <trkpt lat="44.7084" lon="7.08062">
        <ele>2384.6</ele>
        <time>2026-09-02T11:34:40Z</time>
      </trkpt>
      <trkpt lat="44.70842" lon="7.08066">
        <ele>2385.3</ele>
        <time>2026-09-02T11:34:45Z</time>
      </trkpt>
      <trkpt lat="44.70845" lon="7.0807">
        <ele>2386.6</ele>
        <time>2026-09-02T11:34:51Z</time>
      </trkpt>
      <trkpt lat="44.70846" lon="7.08069">
        <ele>2387.2</ele>
        <time>2026-09-02T11:34:56Z</time>
      </trkpt>
      <trkpt lat="44.70846" lon="7.08069">
        <ele>2387.2</ele>
        <time>2026-09-02T11:35:01Z</time>
      </trkpt>
      <trkpt lat="44.70848" lon="7.08071">
        <ele>2388.1</ele>
        <time>2026-09-02T11:35:07Z</time>
      </trkpt>
      <trkpt lat="44.70849" lon="7.08073">
        <ele>2388.4</ele>
        <time>2026-09-02T11:35:12Z</time>
      </trkpt>
      <trkpt lat="44.7085" lon="7.08073">
        <ele>2388.9</ele>
        <time>2026-09-02T11:35:17Z</time>
      </trkpt>
      <trkpt lat="44.70854" lon="7.08072">
        <ele>2391</ele>
        <time>2026-09-02T11:35:23Z</time>
      </trkpt>
      <trkpt lat="44.70855" lon="7.08071">
        <ele>2391.5</ele>
        <time>2026-09-02T11:35:28Z</time>
      </trkpt>
      <trkpt lat="44.70856" lon="7.0807">
        <ele>2392.1</ele>
        <time>2026-09-02T11:35:33Z</time>
      </trkpt>
      <trkpt lat="44.70856" lon="7.0807">
        <ele>2392.1</ele>
        <time>2026-09-02T11:35:39Z</time>
      </trkpt>
      <trkpt lat="44.70856" lon="7.0807">
        <ele>2392.1</ele>
        <time>2026-09-02T11:35:44Z</time>
      </trkpt>
      <trkpt lat="44.70862" lon="7.08071">
        <ele>2395</ele>
        <time>2026-09-02T11:35:49Z</time>
      </trkpt>
      <trkpt lat="44.70865" lon="7.08072">
        <ele>2396.5</ele>
        <time>2026-09-02T11:35:55Z</time>
      </trkpt>
      <trkpt lat="44.70868" lon="7.08073">
        <ele>2397.9</ele>
        <time>2026-09-02T11:36:00Z</time>
      </trkpt>
      <trkpt lat="44.70871" lon="7.08074">
        <ele>2399.4</ele>
        <time>2026-09-02T11:36:05Z</time>
      </trkpt>
      <trkpt lat="44.70872" lon="7.08074">
        <ele>2399.9</ele>
        <time>2026-09-02T11:36:11Z</time>
      </trkpt>
      <trkpt lat="44.70873" lon="7.08074">
        <ele>2400.4</ele>
        <time>2026-09-02T11:36:16Z</time>
      </trkpt>
      <trkpt lat="44.70876" lon="7.08075">
        <ele>2401.9</ele>
        <time>2026-09-02T11:36:21Z</time>
      </trkpt>
      <trkpt lat="44.70879" lon="7.08078">
        <ele>2403.2</ele>
        <time>2026-09-02T11:36:27Z</time>
      </trkpt>
      <trkpt lat="44.70881" lon="7.0808">
        <ele>2404.2</ele>
        <time>2026-09-02T11:36:32Z</time>
      </trkpt>
      <trkpt lat="44.70882" lon="7.08082">
        <ele>2404.6</ele>
        <time>2026-09-02T11:36:37Z</time>
      </trkpt>
      <trkpt lat="44.70886" lon="7.08083">
        <ele>2406.6</ele>
        <time>2026-09-02T11:36:43Z</time>
      </trkpt>
      <trkpt lat="44.70889" lon="7.08085">
        <ele>2408</ele>
        <time>2026-09-02T11:36:48Z</time>
      </trkpt>
      <trkpt lat="44.7089" lon="7.08086">
        <ele>2408.5</ele>
        <time>2026-09-02T11:36:53Z</time>
      </trkpt>
      <trkpt lat="44.70892" lon="7.08086">
        <ele>2409.5</ele>
        <time>2026-09-02T11:36:59Z</time>
      </trkpt>
      <trkpt lat="44.70894" lon="7.08088">
        <ele>2410.5</ele>
        <time>2026-09-02T11:37:04Z</time>
      </trkpt>
      <trkpt lat="44.70897" lon="7.08089">
        <ele>2412</ele>
        <time>2026-09-02T11:37:09Z</time>
      </trkpt>
      <trkpt lat="44.70901" lon="7.08092">
        <ele>2414</ele>
        <time>2026-09-02T11:37:15Z</time>
      </trkpt>
      <trkpt lat="44.70904" lon="7.08093">
        <ele>2415.5</ele>
        <time>2026-09-02T11:37:20Z</time>
      </trkpt>
      <trkpt lat="44.70908" lon="7.08093">
        <ele>2417.5</ele>
        <time>2026-09-02T11:37:25Z</time>
      </trkpt>
      <trkpt lat="44.70912" lon="7.08093">
        <ele>2419.5</ele>
        <time>2026-09-02T11:37:31Z</time>
      </trkpt>
      <trkpt lat="44.70915" lon="7.08093">
        <ele>2421</ele>
        <time>2026-09-02T11:37:36Z</time>
      </trkpt>
      <trkpt lat="44.70918" lon="7.08093">
        <ele>2422.4</ele>
        <time>2026-09-02T11:37:41Z</time>
      </trkpt>
      <trkpt lat="44.7092" lon="7.08091">
        <ele>2423.2</ele>
        <time>2026-09-02T11:37:47Z</time>
      </trkpt>
      <trkpt lat="44.70921" lon="7.08091">
        <ele>2423.6</ele>
        <time>2026-09-02T11:37:52Z</time>
      </trkpt>
      <trkpt lat="44.70922" lon="7.08092">
        <ele>2424</ele>
        <time>2026-09-02T11:37:57Z</time>
      </trkpt>
      <trkpt lat="44.70922" lon="7.08092">
        <ele>2424</ele>
        <time>2026-09-02T11:38:03Z</time>
      </trkpt>
      <trkpt lat="44.70922" lon="7.08092">
        <ele>2424</ele>
        <time>2026-09-02T11:38:08Z</time>
      </trkpt>
      <trkpt lat="44.70922" lon="7.08092">
        <ele>2424</ele>
        <time>2026-09-02T11:38:13Z</time>
      </trkpt>
      <trkpt lat="44.70926" lon="7.08088">
        <ele>2425.7</ele>
        <time>2026-09-02T11:38:19Z</time>
      </trkpt>
      <trkpt lat="44.70928" lon="7.08088">
        <ele>2426.5</ele>
        <time>2026-09-02T11:38:24Z</time>
      </trkpt>
      <trkpt lat="44.70931" lon="7.08087">
        <ele>2427.7</ele>
        <time>2026-09-02T11:38:29Z</time>
      </trkpt>
      <trkpt lat="44.70935" lon="7.08089">
        <ele>2429.2</ele>
        <time>2026-09-02T11:38:35Z</time>
      </trkpt>
      <trkpt lat="44.70938" lon="7.0809">
        <ele>2430.4</ele>
        <time>2026-09-02T11:38:40Z</time>
      </trkpt>
      <trkpt lat="44.7094" lon="7.08093">
        <ele>2431.2</ele>
        <time>2026-09-02T11:38:45Z</time>
      </trkpt>
      <trkpt lat="44.70943" lon="7.08095">
        <ele>2432.4</ele>
        <time>2026-09-02T11:38:51Z</time>
      </trkpt>
      <trkpt lat="44.70944" lon="7.08095">
        <ele>2432.8</ele>
        <time>2026-09-02T11:38:56Z</time>
      </trkpt>
      <trkpt lat="44.70944" lon="7.08095">
        <ele>2432.8</ele>
        <time>2026-09-02T11:39:01Z</time>
      </trkpt>
      <trkpt lat="44.70944" lon="7.08095">
        <ele>2432.8</ele>
        <time>2026-09-02T11:39:07Z</time>
      </trkpt>
      <trkpt lat="44.70944" lon="7.08095">
        <ele>2432.8</ele>
        <time>2026-09-02T11:39:12Z</time>
      </trkpt>
      <trkpt lat="44.70944" lon="7.08095">
        <ele>2432.8</ele>
        <time>2026-09-02T11:39:17Z</time>
      </trkpt>
      <trkpt lat="44.70944" lon="7.08095">
        <ele>2432.8</ele>
        <time>2026-09-02T11:39:23Z</time>
      </trkpt>
      <trkpt lat="44.70944" lon="7.08095">
        <ele>2432.8</ele>
        <time>2026-09-02T11:39:28Z</time>
      </trkpt>
      <trkpt lat="44.70944" lon="7.08095">
        <ele>2432.8</ele>
        <time>2026-09-02T11:39:33Z</time>
      </trkpt>
      <trkpt lat="44.70944" lon="7.08095">
        <ele>2432.8</ele>
        <time>2026-09-02T11:39:39Z</time>
      </trkpt>
      <trkpt lat="44.70944" lon="7.08095">
        <ele>2432.8</ele>
        <time>2026-09-02T11:39:44Z</time>
      </trkpt>
      <trkpt lat="44.70944" lon="7.08095">
        <ele>2432.8</ele>
        <time>2026-09-02T11:39:49Z</time>
      </trkpt>
      <trkpt lat="44.70944" lon="7.08087">
        <ele>2432.8</ele>
        <time>2026-09-02T11:39:55Z</time>
      </trkpt>
      <trkpt lat="44.70944" lon="7.0808">
        <ele>2432.9</ele>
        <time>2026-09-02T11:40:00Z</time>
      </trkpt>
      <trkpt lat="44.70943" lon="7.08075">
        <ele>2432.7</ele>
        <time>2026-09-02T11:40:05Z</time>
      </trkpt>
      <trkpt lat="44.70943" lon="7.08069">
        <ele>2432.8</ele>
        <time>2026-09-02T11:40:11Z</time>
      </trkpt>
      <trkpt lat="44.70942" lon="7.08064">
        <ele>2432.6</ele>
        <time>2026-09-02T11:40:16Z</time>
      </trkpt>
      <trkpt lat="44.70942" lon="7.08063">
        <ele>2432.6</ele>
        <time>2026-09-02T11:40:21Z</time>
      </trkpt>
      <trkpt lat="44.70942" lon="7.08062">
        <ele>2432.6</ele>
        <time>2026-09-02T11:40:27Z</time>
      </trkpt>
      <trkpt lat="44.70942" lon="7.08062">
        <ele>2432.6</ele>
        <time>2026-09-02T11:40:32Z</time>
      </trkpt>
      <trkpt lat="44.70942" lon="7.08062">
        <ele>2432.6</ele>
        <time>2026-09-02T11:40:37Z</time>
      </trkpt>
      <trkpt lat="44.70942" lon="7.08062">
        <ele>2432.6</ele>
        <time>2026-09-02T11:40:43Z</time>
      </trkpt>
      <trkpt lat="44.70941" lon="7.08058">
        <ele>2432.3</ele>
        <time>2026-09-02T11:40:48Z</time>
      </trkpt>
      <trkpt lat="44.70941" lon="7.08052">
        <ele>2432.5</ele>
        <time>2026-09-02T11:40:53Z</time>
      </trkpt>
      <trkpt lat="44.7094" lon="7.08042">
        <ele>2432.4</ele>
        <time>2026-09-02T11:40:59Z</time>
      </trkpt>
      <trkpt lat="44.70941" lon="7.08035">
        <ele>2433</ele>
        <time>2026-09-02T11:41:04Z</time>
      </trkpt>
      <trkpt lat="44.70942" lon="7.08029">
        <ele>2433.5</ele>
        <time>2026-09-02T11:41:09Z</time>
      </trkpt>
      <trkpt lat="44.70942" lon="7.08022">
        <ele>2433.7</ele>
        <time>2026-09-02T11:41:15Z</time>
      </trkpt>
      <trkpt lat="44.70943" lon="7.08019">
        <ele>2434.2</ele>
        <time>2026-09-02T11:41:20Z</time>
      </trkpt>
      <trkpt lat="44.70943" lon="7.08012">
        <ele>2434.4</ele>
        <time>2026-09-02T11:41:25Z</time>
      </trkpt>
      <trkpt lat="44.70942" lon="7.08004">
        <ele>2434.2</ele>
        <time>2026-09-02T11:41:31Z</time>
      </trkpt>
      <trkpt lat="44.70941" lon="7.08">
        <ele>2433.9</ele>
        <time>2026-09-02T11:41:36Z</time>
      </trkpt>
      <trkpt lat="44.70942" lon="7.07995">
        <ele>2434.9</ele>
        <time>2026-09-02T11:41:41Z</time>
      </trkpt>
      <trkpt lat="44.7094" lon="7.07989">
        <ele>2434.8</ele>
        <time>2026-09-02T11:41:47Z</time>
      </trkpt>
      <trkpt lat="44.7094" lon="7.07985">
        <ele>2435.3</ele>
        <time>2026-09-02T11:41:52Z</time>
      </trkpt>
      <trkpt lat="44.7094" lon="7.07983">
        <ele>2435.5</ele>
        <time>2026-09-02T11:41:57Z</time>
      </trkpt>
      <trkpt lat="44.70941" lon="7.07983">
        <ele>2435.9</ele>
        <time>2026-09-02T11:42:03Z</time>
      </trkpt>
      <trkpt lat="44.70941" lon="7.07983">
        <ele>2435.9</ele>
        <time>2026-09-02T11:42:08Z</time>
      </trkpt>
      <trkpt lat="44.70941" lon="7.07983">
        <ele>2435.9</ele>
        <time>2026-09-02T11:42:13Z</time>
      </trkpt>
      <trkpt lat="44.70941" lon="7.07983">
        <ele>2435.9</ele>
        <time>2026-09-02T11:42:19Z</time>
      </trkpt>
      <trkpt lat="44.70941" lon="7.07983">
        <ele>2435.9</ele>
        <time>2026-09-02T11:42:24Z</time>
      </trkpt>
      <trkpt lat="44.70937" lon="7.07973">
        <ele>2435.4</ele>
        <time>2026-09-02T11:42:29Z</time>
      </trkpt>
      <trkpt lat="44.70936" lon="7.07969">
        <ele>2435.4</ele>
        <time>2026-09-02T11:42:35Z</time>
      </trkpt>
      <trkpt lat="44.70935" lon="7.07965">
        <ele>2435.4</ele>
        <time>2026-09-02T11:42:40Z</time>
      </trkpt>
      <trkpt lat="44.70935" lon="7.07961">
        <ele>2435.8</ele>
        <time>2026-09-02T11:42:45Z</time>
      </trkpt>
      <trkpt lat="44.70934" lon="7.07957">
        <ele>2435.8</ele>
        <time>2026-09-02T11:42:51Z</time>
      </trkpt>
      <trkpt lat="44.70935" lon="7.07954">
        <ele>2436.6</ele>
        <time>2026-09-02T11:42:56Z</time>
      </trkpt>
      <trkpt lat="44.70935" lon="7.07949">
        <ele>2437.2</ele>
        <time>2026-09-02T11:43:01Z</time>
      </trkpt>
      <trkpt lat="44.70936" lon="7.07944">
        <ele>2438.2</ele>
        <time>2026-09-02T11:43:07Z</time>
      </trkpt>
      <trkpt lat="44.70936" lon="7.07938">
        <ele>2438.9</ele>
        <time>2026-09-02T11:43:12Z</time>
      </trkpt>
      <trkpt lat="44.70937" lon="7.07934">
        <ele>2439.8</ele>
        <time>2026-09-02T11:43:17Z</time>
      </trkpt>
      <trkpt lat="44.70939" lon="7.07934">
        <ele>2440.7</ele>
        <time>2026-09-02T11:43:23Z</time>
      </trkpt>
      <trkpt lat="44.70939" lon="7.0793">
        <ele>2441.2</ele>
        <time>2026-09-02T11:43:28Z</time>
      </trkpt>
      <trkpt lat="44.70938" lon="7.07927">
        <ele>2441.1</ele>
        <time>2026-09-02T11:43:33Z</time>
      </trkpt>
      <trkpt lat="44.70937" lon="7.07922">
        <ele>2441.2</ele>
        <time>2026-09-02T11:43:39Z</time>
      </trkpt>
      <trkpt lat="44.70937" lon="7.07918">
        <ele>2441.6</ele>
        <time>2026-09-02T11:43:44Z</time>
      </trkpt>
      <trkpt lat="44.7094" lon="7.07916">
        <ele>2443.3</ele>
        <time>2026-09-02T11:43:49Z</time>
      </trkpt>
      <trkpt lat="44.70942" lon="7.07913">
        <ele>2444.6</ele>
        <time>2026-09-02T11:43:55Z</time>
      </trkpt>
      <trkpt lat="44.70943" lon="7.07908">
        <ele>2445.8</ele>
        <time>2026-09-02T11:44:00Z</time>
      </trkpt>
      <trkpt lat="44.70944" lon="7.07905">
        <ele>2446.7</ele>
        <time>2026-09-02T11:44:05Z</time>
      </trkpt>
      <trkpt lat="44.70946" lon="7.07901">
        <ele>2448.1</ele>
        <time>2026-09-02T11:44:11Z</time>
      </trkpt>
      <trkpt lat="44.70948" lon="7.07897">
        <ele>2449.6</ele>
        <time>2026-09-02T11:44:16Z</time>
      </trkpt>
      <trkpt lat="44.7095" lon="7.07895">
        <ele>2450.9</ele>
        <time>2026-09-02T11:44:21Z</time>
      </trkpt>
      <trkpt lat="44.70953" lon="7.07891">
        <ele>2452.8</ele>
        <time>2026-09-02T11:44:27Z</time>
      </trkpt>
      <trkpt lat="44.70954" lon="7.07889">
        <ele>2453.6</ele>
        <time>2026-09-02T11:44:32Z</time>
      </trkpt>
      <trkpt lat="44.70954" lon="7.07885">
        <ele>2454.1</ele>
        <time>2026-09-02T11:44:37Z</time>
      </trkpt>
      <trkpt lat="44.70957" lon="7.07884">
        <ele>2455.7</ele>
        <time>2026-09-02T11:44:43Z</time>
      </trkpt>
      <trkpt lat="44.70957" lon="7.07884">
        <ele>2455.7</ele>
        <time>2026-09-02T11:44:48Z</time>
      </trkpt>
      <trkpt lat="44.70957" lon="7.07884">
        <ele>2455.7</ele>
        <time>2026-09-02T11:44:53Z</time>
      </trkpt>
      <trkpt lat="44.70957" lon="7.07884">
        <ele>2455.7</ele>
        <time>2026-09-02T11:44:59Z</time>
      </trkpt>
      <trkpt lat="44.70957" lon="7.07884">
        <ele>2455.7</ele>
        <time>2026-09-02T11:45:04Z</time>
      </trkpt>
      <trkpt lat="44.70957" lon="7.07884">
        <ele>2455.7</ele>
        <time>2026-09-02T11:45:09Z</time>
      </trkpt>
      <trkpt lat="44.70953" lon="7.07877">
        <ele>2454.7</ele>
        <time>2026-09-02T11:45:15Z</time>
      </trkpt>
      <trkpt lat="44.70952" lon="7.07873">
        <ele>2454.7</ele>
        <time>2026-09-02T11:45:20Z</time>
      </trkpt>
      <trkpt lat="44.7095" lon="7.07868">
        <ele>2454.4</ele>
        <time>2026-09-02T11:45:25Z</time>
      </trkpt>
      <trkpt lat="44.70949" lon="7.07865">
        <ele>2454.3</ele>
        <time>2026-09-02T11:45:31Z</time>
      </trkpt>
      <trkpt lat="44.70948" lon="7.07863">
        <ele>2454.1</ele>
        <time>2026-09-02T11:45:36Z</time>
      </trkpt>
      <trkpt lat="44.70946" lon="7.07859">
        <ele>2453.7</ele>
        <time>2026-09-02T11:45:41Z</time>
      </trkpt>
      <trkpt lat="44.70947" lon="7.07855">
        <ele>2454.7</ele>
        <time>2026-09-02T11:45:47Z</time>
      </trkpt>
      <trkpt lat="44.70948" lon="7.07856">
        <ele>2455</ele>
        <time>2026-09-02T11:45:52Z</time>
      </trkpt>
      <trkpt lat="44.70948" lon="7.07856">
        <ele>2455</ele>
        <time>2026-09-02T11:45:57Z</time>
      </trkpt>
      <trkpt lat="44.70948" lon="7.07856">
        <ele>2455</ele>
        <time>2026-09-02T11:46:03Z</time>
      </trkpt>
      <trkpt lat="44.70948" lon="7.07856">
        <ele>2455</ele>
        <time>2026-09-02T11:46:08Z</time>
      </trkpt>
      <trkpt lat="44.70948" lon="7.07856">
        <ele>2455</ele>
        <time>2026-09-02T11:46:13Z</time>
      </trkpt>
      <trkpt lat="44.70948" lon="7.07856">
        <ele>2455</ele>
        <time>2026-09-02T11:46:19Z</time>
      </trkpt>
      <trkpt lat="44.70948" lon="7.07856">
        <ele>2455</ele>
        <time>2026-09-02T11:46:24Z</time>
      </trkpt>
      <trkpt lat="44.70948" lon="7.07856">
        <ele>2455</ele>
        <time>2026-09-02T11:46:29Z</time>
      </trkpt>
      <trkpt lat="44.70952" lon="7.07851">
        <ele>2457.6</ele>
        <time>2026-09-02T11:46:35Z</time>
      </trkpt>
      <trkpt lat="44.70957" lon="7.07849">
        <ele>2460.3</ele>
        <time>2026-09-02T11:46:40Z</time>
      </trkpt>
      <trkpt lat="44.70961" lon="7.07849">
        <ele>2462.2</ele>
        <time>2026-09-02T11:46:45Z</time>
      </trkpt>
      <trkpt lat="44.70965" lon="7.0785">
        <ele>2464</ele>
        <time>2026-09-02T11:46:51Z</time>
      </trkpt>
      <trkpt lat="44.70967" lon="7.07849">
        <ele>2465.1</ele>
        <time>2026-09-02T11:46:56Z</time>
      </trkpt>
      <trkpt lat="44.70969" lon="7.07849">
        <ele>2466.1</ele>
        <time>2026-09-02T11:47:01Z</time>
      </trkpt>
      <trkpt lat="44.70973" lon="7.07851">
        <ele>2467.7</ele>
        <time>2026-09-02T11:47:07Z</time>
      </trkpt>
      <trkpt lat="44.70974" lon="7.07849">
        <ele>2468.5</ele>
        <time>2026-09-02T11:47:12Z</time>
      </trkpt>
      <trkpt lat="44.70975" lon="7.0785">
        <ele>2468.8</ele>
        <time>2026-09-02T11:47:17Z</time>
      </trkpt>
      <trkpt lat="44.70976" lon="7.0785">
        <ele>2469.3</ele>
        <time>2026-09-02T11:47:23Z</time>
      </trkpt>
      <trkpt lat="44.70976" lon="7.0785">
        <ele>2469.3</ele>
        <time>2026-09-02T11:47:28Z</time>
      </trkpt>
      <trkpt lat="44.70976" lon="7.0785">
        <ele>2469.3</ele>
        <time>2026-09-02T11:47:33Z</time>
      </trkpt>
      <trkpt lat="44.70976" lon="7.0785">
        <ele>2469.3</ele>
        <time>2026-09-02T11:47:39Z</time>
      </trkpt>
      <trkpt lat="44.7097" lon="7.07843">
        <ele>2467.3</ele>
        <time>2026-09-02T11:47:44Z</time>
      </trkpt>
      <trkpt lat="44.70969" lon="7.0784">
        <ele>2467.2</ele>
        <time>2026-09-02T11:47:49Z</time>
      </trkpt>
      <trkpt lat="44.7097" lon="7.07837">
        <ele>2468.1</ele>
        <time>2026-09-02T11:47:55Z</time>
      </trkpt>
      <trkpt lat="44.70972" lon="7.07834">
        <ele>2469.5</ele>
        <time>2026-09-02T11:48:00Z</time>
      </trkpt>
      <trkpt lat="44.70974" lon="7.07833">
        <ele>2470.5</ele>
        <time>2026-09-02T11:48:05Z</time>
      </trkpt>
      <trkpt lat="44.70977" lon="7.07833">
        <ele>2472</ele>
        <time>2026-09-02T11:48:11Z</time>
      </trkpt>
      <trkpt lat="44.70979" lon="7.07832">
        <ele>2473</ele>
        <time>2026-09-02T11:48:16Z</time>
      </trkpt>
      <trkpt lat="44.70981" lon="7.07835">
        <ele>2473.7</ele>
        <time>2026-09-02T11:48:21Z</time>
      </trkpt>
      <trkpt lat="44.70981" lon="7.07836">
        <ele>2473.5</ele>
        <time>2026-09-02T11:48:27Z</time>
      </trkpt>
      <trkpt lat="44.70983" lon="7.07838">
        <ele>2474.2</ele>
        <time>2026-09-02T11:48:32Z</time>
      </trkpt>
      <trkpt lat="44.70985" lon="7.07837">
        <ele>2475.3</ele>
        <time>2026-09-02T11:48:37Z</time>
      </trkpt>
      <trkpt lat="44.70986" lon="7.07835">
        <ele>2476.1</ele>
        <time>2026-09-02T11:48:43Z</time>
      </trkpt>
      <trkpt lat="44.70987" lon="7.07835">
        <ele>2476.5</ele>
        <time>2026-09-02T11:48:48Z</time>
      </trkpt>
      <trkpt lat="44.70992" lon="7.07834">
        <ele>2479.1</ele>
        <time>2026-09-02T11:48:53Z</time>
      </trkpt>
      <trkpt lat="44.70997" lon="7.07833">
        <ele>2481.6</ele>
        <time>2026-09-02T11:48:59Z</time>
      </trkpt>
      <trkpt lat="44.71" lon="7.07833">
        <ele>2483</ele>
        <time>2026-09-02T11:49:04Z</time>
      </trkpt>
      <trkpt lat="44.71003" lon="7.07831">
        <ele>2483.8</ele>
        <time>2026-09-02T11:49:09Z</time>
      </trkpt>
      <trkpt lat="44.71005" lon="7.0783">
        <ele>2484.4</ele>
        <time>2026-09-02T11:49:15Z</time>
      </trkpt>
      <trkpt lat="44.71006" lon="7.07831">
        <ele>2484.6</ele>
        <time>2026-09-02T11:49:20Z</time>
      </trkpt>
      <trkpt lat="44.71006" lon="7.07831">
        <ele>2484.6</ele>
        <time>2026-09-02T11:49:25Z</time>
      </trkpt>
      <trkpt lat="44.71008" lon="7.0783">
        <ele>2485.1</ele>
        <time>2026-09-02T11:49:31Z</time>
      </trkpt>
      <trkpt lat="44.71011" lon="7.0783">
        <ele>2485.8</ele>
        <time>2026-09-02T11:49:36Z</time>
      </trkpt>
      <trkpt lat="44.71013" lon="7.07832">
        <ele>2486.2</ele>
        <time>2026-09-02T11:49:41Z</time>
      </trkpt>
      <trkpt lat="44.71017" lon="7.07834">
        <ele>2487</ele>
        <time>2026-09-02T11:49:47Z</time>
      </trkpt>
      <trkpt lat="44.7102" lon="7.07837">
        <ele>2487.4</ele>
        <time>2026-09-02T11:49:52Z</time>
      </trkpt>
      <trkpt lat="44.71022" lon="7.0784">
        <ele>2487.5</ele>
        <time>2026-09-02T11:49:57Z</time>
      </trkpt>
      <trkpt lat="44.71027" lon="7.07845">
        <ele>2488.2</ele>
        <time>2026-09-02T11:50:03Z</time>
      </trkpt>
      <trkpt lat="44.71028" lon="7.07846">
        <ele>2488.4</ele>
        <time>2026-09-02T11:50:08Z</time>
      </trkpt>
      <trkpt lat="44.7103" lon="7.07846">
        <ele>2488.9</ele>
        <time>2026-09-02T11:50:13Z</time>
      </trkpt>
      <trkpt lat="44.71032" lon="7.07847">
        <ele>2489.3</ele>
        <time>2026-09-02T11:50:19Z</time>
      </trkpt>
      <trkpt lat="44.71035" lon="7.07846">
        <ele>2490.1</ele>
        <time>2026-09-02T11:50:24Z</time>
      </trkpt>
      <trkpt lat="44.71039" lon="7.07845">
        <ele>2491.2</ele>
        <time>2026-09-02T11:50:29Z</time>
      </trkpt>
      <trkpt lat="44.71043" lon="7.07846">
        <ele>2492.1</ele>
        <time>2026-09-02T11:50:35Z</time>
      </trkpt>
      <trkpt lat="44.71046" lon="7.07847">
        <ele>2492.8</ele>
        <time>2026-09-02T11:50:40Z</time>
      </trkpt>
      <trkpt lat="44.7105" lon="7.07848">
        <ele>2493.7</ele>
        <time>2026-09-02T11:50:45Z</time>
      </trkpt>
      <trkpt lat="44.71053" lon="7.07852">
        <ele>2494.1</ele>
        <time>2026-09-02T11:50:51Z</time>
      </trkpt>
      <trkpt lat="44.71055" lon="7.07857">
        <ele>2494.2</ele>
        <time>2026-09-02T11:50:56Z</time>
      </trkpt>
      <trkpt lat="44.71057" lon="7.0786">
        <ele>2494.5</ele>
        <time>2026-09-02T11:51:01Z</time>
      </trkpt>
      <trkpt lat="44.71062" lon="7.07865">
        <ele>2495.4</ele>
        <time>2026-09-02T11:51:07Z</time>
      </trkpt>
      <trkpt lat="44.71063" lon="7.07868">
        <ele>2495.4</ele>
        <time>2026-09-02T11:51:12Z</time>
      </trkpt>
      <trkpt lat="44.71066" lon="7.07872">
        <ele>2495.9</ele>
        <time>2026-09-02T11:51:17Z</time>
      </trkpt>
      <trkpt lat="44.71069" lon="7.07877">
        <ele>2496.4</ele>
        <time>2026-09-02T11:51:23Z</time>
      </trkpt>
      <trkpt lat="44.71072" lon="7.07882">
        <ele>2496.9</ele>
        <time>2026-09-02T11:51:28Z</time>
      </trkpt>
      <trkpt lat="44.71075" lon="7.07886">
        <ele>2497.5</ele>
        <time>2026-09-02T11:51:33Z</time>
      </trkpt>
      <trkpt lat="44.71077" lon="7.07888">
        <ele>2497.9</ele>
        <time>2026-09-02T11:51:39Z</time>
      </trkpt>
      <trkpt lat="44.7108" lon="7.07891">
        <ele>2498.6</ele>
        <time>2026-09-02T11:51:44Z</time>
      </trkpt>
      <trkpt lat="44.71083" lon="7.07893">
        <ele>2499.3</ele>
        <time>2026-09-02T11:51:49Z</time>
      </trkpt>
      <trkpt lat="44.71087" lon="7.07895">
        <ele>2500.3</ele>
        <time>2026-09-02T11:51:55Z</time>
      </trkpt>
      <trkpt lat="44.7109" lon="7.07897">
        <ele>2500.9</ele>
        <time>2026-09-02T11:52:00Z</time>
      </trkpt>
      <trkpt lat="44.7109" lon="7.07904">
        <ele>2500.5</ele>
        <time>2026-09-02T11:52:05Z</time>
      </trkpt>
      <trkpt lat="44.71091" lon="7.07911">
        <ele>2500.4</ele>
        <time>2026-09-02T11:52:11Z</time>
      </trkpt>
      <trkpt lat="44.7109" lon="7.07918">
        <ele>2499.8</ele>
        <time>2026-09-02T11:52:16Z</time>
      </trkpt>
      <trkpt lat="44.71091" lon="7.07924">
        <ele>2499.7</ele>
        <time>2026-09-02T11:52:21Z</time>
      </trkpt>
      <trkpt lat="44.71091" lon="7.07929">
        <ele>2499.4</ele>
        <time>2026-09-02T11:52:27Z</time>
      </trkpt>
      <trkpt lat="44.71091" lon="7.07933">
        <ele>2499.2</ele>
        <time>2026-09-02T11:52:32Z</time>
      </trkpt>
      <trkpt lat="44.71091" lon="7.07937">
        <ele>2499</ele>
        <time>2026-09-02T11:52:37Z</time>
      </trkpt>
      <trkpt lat="44.7109" lon="7.07944">
        <ele>2498.3</ele>
        <time>2026-09-02T11:52:43Z</time>
      </trkpt>
      <trkpt lat="44.71088" lon="7.07948">
        <ele>2497.5</ele>
        <time>2026-09-02T11:52:48Z</time>
      </trkpt>
      <trkpt lat="44.71087" lon="7.07955">
        <ele>2496.8</ele>
        <time>2026-09-02T11:52:53Z</time>
      </trkpt>
      <trkpt lat="44.71086" lon="7.07963">
        <ele>2496</ele>
        <time>2026-09-02T11:52:59Z</time>
      </trkpt>
      <trkpt lat="44.71085" lon="7.07966">
        <ele>2495.5</ele>
        <time>2026-09-02T11:53:04Z</time>
      </trkpt>
      <trkpt lat="44.71086" lon="7.07972">
        <ele>2495.5</ele>
        <time>2026-09-02T11:53:09Z</time>
      </trkpt>
      <trkpt lat="44.71087" lon="7.07979">
        <ele>2495.4</ele>
        <time>2026-09-02T11:53:15Z</time>
      </trkpt>
      <trkpt lat="44.71088" lon="7.07981">
        <ele>2495.6</ele>
        <time>2026-09-02T11:53:20Z</time>
      </trkpt>
      <trkpt lat="44.7109" lon="7.07981">
        <ele>2496.2</ele>
        <time>2026-09-02T11:53:25Z</time>
      </trkpt>
      <trkpt lat="44.71091" lon="7.0799">
        <ele>2496</ele>
        <time>2026-09-02T11:53:31Z</time>
      </trkpt>
      <trkpt lat="44.71093" lon="7.08">
        <ele>2496.1</ele>
        <time>2026-09-02T11:53:36Z</time>
      </trkpt>
      <trkpt lat="44.71093" lon="7.08005">
        <ele>2495.5</ele>
        <time>2026-09-02T11:53:41Z</time>
      </trkpt>
      <trkpt lat="44.71093" lon="7.08011">
        <ele>2494.7</ele>
        <time>2026-09-02T11:53:47Z</time>
      </trkpt>
      <trkpt lat="44.71093" lon="7.08012">
        <ele>2494.6</ele>
        <time>2026-09-02T11:53:52Z</time>
      </trkpt>
      <trkpt lat="44.71094" lon="7.08013">
        <ele>2494.8</ele>
        <time>2026-09-02T11:53:57Z</time>
      </trkpt>
      <trkpt lat="44.71095" lon="7.08016">
        <ele>2494.7</ele>
        <time>2026-09-02T11:54:03Z</time>
      </trkpt>
      <trkpt lat="44.71095" lon="7.08016">
        <ele>2494.7</ele>
        <time>2026-09-02T11:54:08Z</time>
      </trkpt>
      <trkpt lat="44.71095" lon="7.08016">
        <ele>2494.7</ele>
        <time>2026-09-02T11:54:13Z</time>
      </trkpt>
      <trkpt lat="44.71095" lon="7.08016">
        <ele>2494.7</ele>
        <time>2026-09-02T11:54:19Z</time>
      </trkpt>
      <trkpt lat="44.71094" lon="7.08011">
        <ele>2495</ele>
        <time>2026-09-02T11:54:24Z</time>
      </trkpt>
      <trkpt lat="44.71092" lon="7.08001">
        <ele>2495.7</ele>
        <time>2026-09-02T11:54:29Z</time>
      </trkpt>
      <trkpt lat="44.71092" lon="7.07992">
        <ele>2496.2</ele>
        <time>2026-09-02T11:54:35Z</time>
      </trkpt>
      <trkpt lat="44.71092" lon="7.07983">
        <ele>2496.7</ele>
        <time>2026-09-02T11:54:40Z</time>
      </trkpt>
      <trkpt lat="44.7109" lon="7.07976">
        <ele>2496.5</ele>
        <time>2026-09-02T11:54:45Z</time>
      </trkpt>
      <trkpt lat="44.7109" lon="7.07968">
        <ele>2497</ele>
        <time>2026-09-02T11:54:51Z</time>
      </trkpt>
      <trkpt lat="44.71089" lon="7.07961">
        <ele>2497</ele>
        <time>2026-09-02T11:54:56Z</time>
      </trkpt>
      <trkpt lat="44.71089" lon="7.07957">
        <ele>2497.3</ele>
        <time>2026-09-02T11:55:01Z</time>
      </trkpt>
      <trkpt lat="44.71092" lon="7.0796">
        <ele>2498</ele>
        <time>2026-09-02T11:55:07Z</time>
      </trkpt>
      <trkpt lat="44.71093" lon="7.07959">
        <ele>2498.4</ele>
        <time>2026-09-02T11:55:12Z</time>
      </trkpt>
      <trkpt lat="44.71098" lon="7.07957">
        <ele>2500</ele>
        <time>2026-09-02T11:55:17Z</time>
      </trkpt>
      <trkpt lat="44.711" lon="7.07958">
        <ele>2500.5</ele>
        <time>2026-09-02T11:55:23Z</time>
      </trkpt>
      <trkpt lat="44.71105" lon="7.07955">
        <ele>2502.2</ele>
        <time>2026-09-02T11:55:28Z</time>
      </trkpt>
      <trkpt lat="44.71108" lon="7.07953">
        <ele>2503.1</ele>
        <time>2026-09-02T11:55:33Z</time>
      </trkpt>
      <trkpt lat="44.71112" lon="7.07947">
        <ele>2504.6</ele>
        <time>2026-09-02T11:55:39Z</time>
      </trkpt>
      <trkpt lat="44.71114" lon="7.07945">
        <ele>2505.3</ele>
        <time>2026-09-02T11:55:44Z</time>
      </trkpt>
      <trkpt lat="44.71115" lon="7.07944">
        <ele>2505.6</ele>
        <time>2026-09-02T11:55:49Z</time>
      </trkpt>
      <trkpt lat="44.71119" lon="7.07942">
        <ele>2506.8</ele>
        <time>2026-09-02T11:55:55Z</time>
      </trkpt>
      <trkpt lat="44.71124" lon="7.0794">
        <ele>2508.4</ele>
        <time>2026-09-02T11:56:00Z</time>
      </trkpt>
      <trkpt lat="44.71124" lon="7.0794">
        <ele>2508.4</ele>
        <time>2026-09-02T11:56:05Z</time>
      </trkpt>
      <trkpt lat="44.71124" lon="7.0794">
        <ele>2508.4</ele>
        <time>2026-09-02T11:56:11Z</time>
      </trkpt>
      <trkpt lat="44.71124" lon="7.0794">
        <ele>2508.4</ele>
        <time>2026-09-02T11:56:16Z</time>
      </trkpt>
      <trkpt lat="44.71124" lon="7.0794">
        <ele>2508.4</ele>
        <time>2026-09-02T11:56:21Z</time>
      </trkpt>
      <trkpt lat="44.71129" lon="7.07943">
        <ele>2509.7</ele>
        <time>2026-09-02T11:56:27Z</time>
      </trkpt>
      <trkpt lat="44.71132" lon="7.07942">
        <ele>2510.6</ele>
        <time>2026-09-02T11:56:32Z</time>
      </trkpt>
      <trkpt lat="44.71134" lon="7.07943">
        <ele>2511.2</ele>
        <time>2026-09-02T11:56:37Z</time>
      </trkpt>
      <trkpt lat="44.71138" lon="7.07945">
        <ele>2512.3</ele>
        <time>2026-09-02T11:56:43Z</time>
      </trkpt>
      <trkpt lat="44.7114" lon="7.07946">
        <ele>2512.8</ele>
        <time>2026-09-02T11:56:48Z</time>
      </trkpt>
      <trkpt lat="44.71142" lon="7.07947">
        <ele>2513.4</ele>
        <time>2026-09-02T11:56:53Z</time>
      </trkpt>
      <trkpt lat="44.71144" lon="7.07951">
        <ele>2513.9</ele>
        <time>2026-09-02T11:56:59Z</time>
      </trkpt>
      <trkpt lat="44.71146" lon="7.07953">
        <ele>2514.4</ele>
        <time>2026-09-02T11:57:04Z</time>
      </trkpt>
      <trkpt lat="44.71147" lon="7.07955">
        <ele>2514.7</ele>
        <time>2026-09-02T11:57:09Z</time>
      </trkpt>
      <trkpt lat="44.71151" lon="7.07956">
        <ele>2515.8</ele>
        <time>2026-09-02T11:57:15Z</time>
      </trkpt>
      <trkpt lat="44.71153" lon="7.07958">
        <ele>2516.4</ele>
        <time>2026-09-02T11:57:20Z</time>
      </trkpt>
      <trkpt lat="44.71155" lon="7.07959">
        <ele>2517</ele>
        <time>2026-09-02T11:57:25Z</time>
      </trkpt>
      <trkpt lat="44.71156" lon="7.07961">
        <ele>2517.3</ele>
        <time>2026-09-02T11:57:31Z</time>
      </trkpt>
      <trkpt lat="44.71156" lon="7.07961">
        <ele>2517.3</ele>
        <time>2026-09-02T11:57:36Z</time>
      </trkpt>
      <trkpt lat="44.71156" lon="7.07961">
        <ele>2517.3</ele>
        <time>2026-09-02T11:57:41Z</time>
      </trkpt>
      <trkpt lat="44.71156" lon="7.07961">
        <ele>2517.3</ele>
        <time>2026-09-02T11:57:47Z</time>
      </trkpt>
      <trkpt lat="44.71156" lon="7.07961">
        <ele>2517.3</ele>
        <time>2026-09-02T11:57:52Z</time>
      </trkpt>
      <trkpt lat="44.71156" lon="7.07961">
        <ele>2517.3</ele>
        <time>2026-09-02T11:57:57Z</time>
      </trkpt>
      <trkpt lat="44.71156" lon="7.07961">
        <ele>2517.3</ele>
        <time>2026-09-02T11:58:03Z</time>
      </trkpt>
      <trkpt lat="44.71156" lon="7.07961">
        <ele>2517.3</ele>
        <time>2026-09-02T11:58:08Z</time>
      </trkpt>
      <trkpt lat="44.7116" lon="7.07965">
        <ele>2518.4</ele>
        <time>2026-09-02T11:58:13Z</time>
      </trkpt>
      <trkpt lat="44.71165" lon="7.07967">
        <ele>2519.9</ele>
        <time>2026-09-02T11:58:19Z</time>
      </trkpt>
      <trkpt lat="44.71167" lon="7.0797">
        <ele>2520.4</ele>
        <time>2026-09-02T11:58:24Z</time>
      </trkpt>
      <trkpt lat="44.71173" lon="7.0797">
        <ele>2522</ele>
        <time>2026-09-02T11:58:29Z</time>
      </trkpt>
      <trkpt lat="44.71177" lon="7.07974">
        <ele>2523</ele>
        <time>2026-09-02T11:58:35Z</time>
      </trkpt>
      <trkpt lat="44.71178" lon="7.07972">
        <ele>2523.3</ele>
        <time>2026-09-02T11:58:40Z</time>
      </trkpt>
      <trkpt lat="44.71182" lon="7.07968">
        <ele>2524.4</ele>
        <time>2026-09-02T11:58:45Z</time>
      </trkpt>
      <trkpt lat="44.71187" lon="7.07962">
        <ele>2525.7</ele>
        <time>2026-09-02T11:58:51Z</time>
      </trkpt>
      <trkpt lat="44.71191" lon="7.07963">
        <ele>2526.8</ele>
        <time>2026-09-02T11:58:56Z</time>
      </trkpt>
      <trkpt lat="44.71191" lon="7.07964">
        <ele>2526.8</ele>
        <time>2026-09-02T11:59:01Z</time>
      </trkpt>
      <trkpt lat="44.71194" lon="7.07964">
        <ele>2527.6</ele>
        <time>2026-09-02T11:59:07Z</time>
      </trkpt>
      <trkpt lat="44.71197" lon="7.07963">
        <ele>2528.3</ele>
        <time>2026-09-02T11:59:12Z</time>
      </trkpt>
      <trkpt lat="44.71197" lon="7.07963">
        <ele>2528.3</ele>
        <time>2026-09-02T11:59:17Z</time>
      </trkpt>
      <trkpt lat="44.71197" lon="7.07963">
        <ele>2528.3</ele>
        <time>2026-09-02T11:59:23Z</time>
      </trkpt>
      <trkpt lat="44.71197" lon="7.07963">
        <ele>2528.3</ele>
        <time>2026-09-02T11:59:28Z</time>
      </trkpt>
      <trkpt lat="44.71197" lon="7.07963">
        <ele>2528.3</ele>
        <time>2026-09-02T11:59:33Z</time>
      </trkpt>
      <trkpt lat="44.71197" lon="7.07963">
        <ele>2528.3</ele>
        <time>2026-09-02T11:59:39Z</time>
      </trkpt>
      <trkpt lat="44.71197" lon="7.07963">
        <ele>2528.3</ele>
        <time>2026-09-02T11:59:44Z</time>
      </trkpt>
      <trkpt lat="44.71197" lon="7.07963">
        <ele>2528.3</ele>
        <time>2026-09-02T11:59:49Z</time>
      </trkpt>
      <trkpt lat="44.71197" lon="7.07963">
        <ele>2528.3</ele>
        <time>2026-09-02T11:59:55Z</time>
      </trkpt>
      <trkpt lat="44.71197" lon="7.07963">
        <ele>2528.3</ele>
        <time>2026-09-02T12:00:00Z</time>
      </trkpt>
      <trkpt lat="44.71197" lon="7.07963">
        <ele>2528.3</ele>
        <time>2026-09-02T12:00:05Z</time>
      </trkpt>
      <trkpt lat="44.71197" lon="7.07963">
        <ele>2528.3</ele>
        <time>2026-09-02T12:00:11Z</time>
      </trkpt>
      <trkpt lat="44.71204" lon="7.07954">
        <ele>2530.1</ele>
        <time>2026-09-02T12:00:16Z</time>
      </trkpt>
      <trkpt lat="44.71208" lon="7.07954">
        <ele>2531.1</ele>
        <time>2026-09-02T12:00:21Z</time>
      </trkpt>
      <trkpt lat="44.71212" lon="7.07952">
        <ele>2532.1</ele>
        <time>2026-09-02T12:00:27Z</time>
      </trkpt>
      <trkpt lat="44.71215" lon="7.07953">
        <ele>2532.9</ele>
        <time>2026-09-02T12:00:32Z</time>
      </trkpt>
      <trkpt lat="44.71218" lon="7.07954">
        <ele>2533.7</ele>
        <time>2026-09-02T12:00:37Z</time>
      </trkpt>
      <trkpt lat="44.71221" lon="7.07956">
        <ele>2534.5</ele>
        <time>2026-09-02T12:00:43Z</time>
      </trkpt>
      <trkpt lat="44.71222" lon="7.07956">
        <ele>2534.7</ele>
        <time>2026-09-02T12:00:48Z</time>
      </trkpt>
      <trkpt lat="44.71222" lon="7.07956">
        <ele>2534.7</ele>
        <time>2026-09-02T12:00:53Z</time>
      </trkpt>
      <trkpt lat="44.71222" lon="7.07956">
        <ele>2534.7</ele>
        <time>2026-09-02T12:00:59Z</time>
      </trkpt>
      <trkpt lat="44.71227" lon="7.07956">
        <ele>2536</ele>
        <time>2026-09-02T12:01:04Z</time>
      </trkpt>
      <trkpt lat="44.7123" lon="7.07957">
        <ele>2536.8</ele>
        <time>2026-09-02T12:01:09Z</time>
      </trkpt>
      <trkpt lat="44.71232" lon="7.07959">
        <ele>2537.4</ele>
        <time>2026-09-02T12:01:15Z</time>
      </trkpt>
      <trkpt lat="44.71233" lon="7.07959">
        <ele>2537.6</ele>
        <time>2026-09-02T12:01:20Z</time>
      </trkpt>
      <trkpt lat="44.71234" lon="7.07961">
        <ele>2537.9</ele>
        <time>2026-09-02T12:01:25Z</time>
      </trkpt>
      <trkpt lat="44.71236" lon="7.07965">
        <ele>2538.5</ele>
        <time>2026-09-02T12:01:31Z</time>
      </trkpt>
      <trkpt lat="44.71236" lon="7.07965">
        <ele>2538.5</ele>
        <time>2026-09-02T12:01:36Z</time>
      </trkpt>
      <trkpt lat="44.71236" lon="7.07965">
        <ele>2538.5</ele>
        <time>2026-09-02T12:01:41Z</time>
      </trkpt>
      <trkpt lat="44.71236" lon="7.07965">
        <ele>2538.5</ele>
        <time>2026-09-02T12:01:47Z</time>
      </trkpt>
      <trkpt lat="44.71236" lon="7.07965">
        <ele>2538.5</ele>
        <time>2026-09-02T12:01:52Z</time>
      </trkpt>
      <trkpt lat="44.71236" lon="7.07965">
        <ele>2538.5</ele>
        <time>2026-09-02T12:01:57Z</time>
      </trkpt>
      <trkpt lat="44.71236" lon="7.07965">
        <ele>2538.5</ele>
        <time>2026-09-02T12:02:03Z</time>
      </trkpt>
      <trkpt lat="44.71242" lon="7.07969">
        <ele>2540.2</ele>
        <time>2026-09-02T12:02:08Z</time>
      </trkpt>
      <trkpt lat="44.71244" lon="7.0797">
        <ele>2540.7</ele>
        <time>2026-09-02T12:02:13Z</time>
      </trkpt>
      <trkpt lat="44.71248" lon="7.07973">
        <ele>2541.8</ele>
        <time>2026-09-02T12:02:19Z</time>
      </trkpt>
      <trkpt lat="44.71248" lon="7.07977">
        <ele>2541.9</ele>
        <time>2026-09-02T12:02:24Z</time>
      </trkpt>
      <trkpt lat="44.71247" lon="7.0798">
        <ele>2541.7</ele>
        <time>2026-09-02T12:02:29Z</time>
      </trkpt>
      <trkpt lat="44.71247" lon="7.0798">
        <ele>2541.7</ele>
        <time>2026-09-02T12:02:35Z</time>
      </trkpt>
      <trkpt lat="44.71247" lon="7.0798">
        <ele>2541.7</ele>
        <time>2026-09-02T12:02:40Z</time>
      </trkpt>
      <trkpt lat="44.71247" lon="7.0798">
        <ele>2541.7</ele>
        <time>2026-09-02T12:02:45Z</time>
      </trkpt>
      <trkpt lat="44.71246" lon="7.07985">
        <ele>2541.6</ele>
        <time>2026-09-02T12:02:51Z</time>
      </trkpt>
      <trkpt lat="44.71246" lon="7.07985">
        <ele>2541.6</ele>
        <time>2026-09-02T12:02:56Z</time>
      </trkpt>
      <trkpt lat="44.7125" lon="7.07988">
        <ele>2542.7</ele>
        <time>2026-09-02T12:03:01Z</time>
      </trkpt>
      <trkpt lat="44.71252" lon="7.07991">
        <ele>2543.4</ele>
        <time>2026-09-02T12:03:07Z</time>
      </trkpt>
      <trkpt lat="44.71255" lon="7.07993">
        <ele>2544.4</ele>
        <time>2026-09-02T12:03:12Z</time>
      </trkpt>
      <trkpt lat="44.71257" lon="7.07996">
        <ele>2545.1</ele>
        <time>2026-09-02T12:03:17Z</time>
      </trkpt>
      <trkpt lat="44.7126" lon="7.07998">
        <ele>2546.1</ele>
        <time>2026-09-02T12:03:23Z</time>
      </trkpt>
      <trkpt lat="44.71262" lon="7.08001">
        <ele>2546.6</ele>
        <time>2026-09-02T12:03:28Z</time>
      </trkpt>
      <trkpt lat="44.71264" lon="7.08001">
        <ele>2547.2</ele>
        <time>2026-09-02T12:03:33Z</time>
      </trkpt>
      <trkpt lat="44.71266" lon="7.08002">
        <ele>2547.7</ele>
        <time>2026-09-02T12:03:39Z</time>
      </trkpt>
      <trkpt lat="44.71266" lon="7.08005">
        <ele>2547.3</ele>
        <time>2026-09-02T12:03:44Z</time>
      </trkpt>
      <trkpt lat="44.71267" lon="7.08008">
        <ele>2547.3</ele>
        <time>2026-09-02T12:03:49Z</time>
      </trkpt>
      <trkpt lat="44.71267" lon="7.08008">
        <ele>2547.3</ele>
        <time>2026-09-02T12:03:55Z</time>
      </trkpt>
      <trkpt lat="44.71267" lon="7.08008">
        <ele>2547.3</ele>
        <time>2026-09-02T12:04:00Z</time>
      </trkpt>
      <trkpt lat="44.71267" lon="7.08008">
        <ele>2547.3</ele>
        <time>2026-09-02T12:04:05Z</time>
      </trkpt>
      <trkpt lat="44.71267" lon="7.08008">
        <ele>2547.3</ele>
        <time>2026-09-02T12:04:11Z</time>
      </trkpt>
      <trkpt lat="44.71267" lon="7.08008">
        <ele>2547.3</ele>
        <time>2026-09-02T12:04:16Z</time>
      </trkpt>
      <trkpt lat="44.71271" lon="7.08018">
        <ele>2547.2</ele>
        <time>2026-09-02T12:04:21Z</time>
      </trkpt>
      <trkpt lat="44.71273" lon="7.08022">
        <ele>2547.3</ele>
        <time>2026-09-02T12:04:27Z</time>
      </trkpt>
      <trkpt lat="44.71274" lon="7.08027">
        <ele>2547</ele>
        <time>2026-09-02T12:04:32Z</time>
      </trkpt>
      <trkpt lat="44.71275" lon="7.08031">
        <ele>2546.8</ele>
        <time>2026-09-02T12:04:37Z</time>
      </trkpt>
      <trkpt lat="44.71277" lon="7.08037">
        <ele>2546.7</ele>
        <time>2026-09-02T12:04:43Z</time>
      </trkpt>
      <trkpt lat="44.71279" lon="7.08037">
        <ele>2547.3</ele>
        <time>2026-09-02T12:04:48Z</time>
      </trkpt>
      <trkpt lat="44.7128" lon="7.08041">
        <ele>2547.1</ele>
        <time>2026-09-02T12:04:53Z</time>
      </trkpt>
      <trkpt lat="44.7128" lon="7.08041">
        <ele>2547.1</ele>
        <time>2026-09-02T12:04:59Z</time>
      </trkpt>
      <trkpt lat="44.71281" lon="7.08035">
        <ele>2548.2</ele>
        <time>2026-09-02T12:05:04Z</time>
      </trkpt>
      <trkpt lat="44.71284" lon="7.08031">
        <ele>2549.7</ele>
        <time>2026-09-02T12:05:09Z</time>
      </trkpt>
      <trkpt lat="44.71289" lon="7.0803">
        <ele>2551.4</ele>
        <time>2026-09-02T12:05:15Z</time>
      </trkpt>
      <trkpt lat="44.71292" lon="7.08027">
        <ele>2552.7</ele>
        <time>2026-09-02T12:05:20Z</time>
      </trkpt>
      <trkpt lat="44.71296" lon="7.08024">
        <ele>2554.3</ele>
        <time>2026-09-02T12:05:25Z</time>
      </trkpt>
      <trkpt lat="44.71296" lon="7.08024">
        <ele>2554.3</ele>
        <time>2026-09-02T12:05:31Z</time>
      </trkpt>
      <trkpt lat="44.71296" lon="7.08024">
        <ele>2554.3</ele>
        <time>2026-09-02T12:05:36Z</time>
      </trkpt>
      <trkpt lat="44.71296" lon="7.08024">
        <ele>2554.3</ele>
        <time>2026-09-02T12:05:41Z</time>
      </trkpt>
      <trkpt lat="44.71298" lon="7.08023">
        <ele>2555.1</ele>
        <time>2026-09-02T12:05:47Z</time>
      </trkpt>
      <trkpt lat="44.71302" lon="7.08021">
        <ele>2556.6</ele>
        <time>2026-09-02T12:05:52Z</time>
      </trkpt>
      <trkpt lat="44.71304" lon="7.08019">
        <ele>2557.5</ele>
        <time>2026-09-02T12:05:57Z</time>
      </trkpt>
      <trkpt lat="44.71307" lon="7.08018">
        <ele>2558.6</ele>
        <time>2026-09-02T12:06:03Z</time>
      </trkpt>
      <trkpt lat="44.71308" lon="7.08018">
        <ele>2558.9</ele>
        <time>2026-09-02T12:06:08Z</time>
      </trkpt>
      <trkpt lat="44.71309" lon="7.08017">
        <ele>2559.3</ele>
        <time>2026-09-02T12:06:13Z</time>
      </trkpt>
      <trkpt lat="44.71309" lon="7.08017">
        <ele>2559.3</ele>
        <time>2026-09-02T12:06:19Z</time>
      </trkpt>
      <trkpt lat="44.71309" lon="7.08017">
        <ele>2559.3</ele>
        <time>2026-09-02T12:06:24Z</time>
      </trkpt>
      <trkpt lat="44.71309" lon="7.08017">
        <ele>2559.3</ele>
        <time>2026-09-02T12:06:29Z</time>
      </trkpt>
      <trkpt lat="44.71309" lon="7.08017">
        <ele>2559.3</ele>
        <time>2026-09-02T12:06:35Z</time>
      </trkpt>
      <trkpt lat="44.71309" lon="7.08017">
        <ele>2559.3</ele>
        <time>2026-09-02T12:06:40Z</time>
      </trkpt>
      <trkpt lat="44.71309" lon="7.08017">
        <ele>2559.3</ele>
        <time>2026-09-02T12:06:45Z</time>
      </trkpt>
      <trkpt lat="44.71309" lon="7.08017">
        <ele>2559.3</ele>
        <time>2026-09-02T12:06:51Z</time>
      </trkpt>
      <trkpt lat="44.71309" lon="7.08017">
        <ele>2559.3</ele>
        <time>2026-09-02T12:06:56Z</time>
      </trkpt>
      <trkpt lat="44.71313" lon="7.08018">
        <ele>2560.4</ele>
        <time>2026-09-02T12:07:01Z</time>
      </trkpt>
      <trkpt lat="44.71314" lon="7.08024">
        <ele>2560</ele>
        <time>2026-09-02T12:07:07Z</time>
      </trkpt>
      <trkpt lat="44.71312" lon="7.08029">
        <ele>2558.8</ele>
        <time>2026-09-02T12:07:12Z</time>
      </trkpt>
      <trkpt lat="44.71309" lon="7.08034">
        <ele>2557.2</ele>
        <time>2026-09-02T12:07:17Z</time>
      </trkpt>
      <trkpt lat="44.71308" lon="7.08043">
        <ele>2555.8</ele>
        <time>2026-09-02T12:07:23Z</time>
      </trkpt>
      <trkpt lat="44.71307" lon="7.08048">
        <ele>2554.8</ele>
        <time>2026-09-02T12:07:28Z</time>
      </trkpt>
      <trkpt lat="44.71305" lon="7.08052">
        <ele>2553.7</ele>
        <time>2026-09-02T12:07:33Z</time>
      </trkpt>
      <trkpt lat="44.71305" lon="7.08052">
        <ele>2553.7</ele>
        <time>2026-09-02T12:07:39Z</time>
      </trkpt>
      <trkpt lat="44.71305" lon="7.08052">
        <ele>2553.7</ele>
        <time>2026-09-02T12:07:44Z</time>
      </trkpt>
      <trkpt lat="44.71305" lon="7.08052">
        <ele>2553.7</ele>
        <time>2026-09-02T12:07:49Z</time>
      </trkpt>
      <trkpt lat="44.71305" lon="7.08052">
        <ele>2553.7</ele>
        <time>2026-09-02T12:07:55Z</time>
      </trkpt>
      <trkpt lat="44.71315" lon="7.08047">
        <ele>2557.5</ele>
        <time>2026-09-02T12:08:00Z</time>
      </trkpt>
      <trkpt lat="44.71315" lon="7.08047">
        <ele>2557.5</ele>
        <time>2026-09-02T12:08:05Z</time>
      </trkpt>
      <trkpt lat="44.71316" lon="7.08042">
        <ele>2558.4</ele>
        <time>2026-09-02T12:08:11Z</time>
      </trkpt>
      <trkpt lat="44.71318" lon="7.08038">
        <ele>2559.6</ele>
        <time>2026-09-02T12:08:16Z</time>
      </trkpt>
      <trkpt lat="44.71321" lon="7.08038">
        <ele>2560.5</ele>
        <time>2026-09-02T12:08:21Z</time>
      </trkpt>
      <trkpt lat="44.71321" lon="7.08041">
        <ele>2560.2</ele>
        <time>2026-09-02T12:08:27Z</time>
      </trkpt>
      <trkpt lat="44.71324" lon="7.08046">
        <ele>2560.5</ele>
        <time>2026-09-02T12:08:32Z</time>
      </trkpt>
      <trkpt lat="44.71327" lon="7.08051">
        <ele>2560.9</ele>
        <time>2026-09-02T12:08:37Z</time>
      </trkpt>
      <trkpt lat="44.7133" lon="7.08053">
        <ele>2561.6</ele>
        <time>2026-09-02T12:08:43Z</time>
      </trkpt>
      <trkpt lat="44.71333" lon="7.08052">
        <ele>2562.7</ele>
        <time>2026-09-02T12:08:48Z</time>
      </trkpt>
      <trkpt lat="44.71337" lon="7.0805">
        <ele>2564</ele>
        <time>2026-09-02T12:08:53Z</time>
      </trkpt>
      <trkpt lat="44.71344" lon="7.0805">
        <ele>2566</ele>
        <time>2026-09-02T12:08:59Z</time>
      </trkpt>
      <trkpt lat="44.71349" lon="7.0805">
        <ele>2567.4</ele>
        <time>2026-09-02T12:09:04Z</time>
      </trkpt>
      <trkpt lat="44.71352" lon="7.08054">
        <ele>2567.8</ele>
        <time>2026-09-02T12:09:09Z</time>
      </trkpt>
      <trkpt lat="44.71352" lon="7.08054">
        <ele>2567.8</ele>
        <time>2026-09-02T12:09:15Z</time>
      </trkpt>
      <trkpt lat="44.71352" lon="7.08054">
        <ele>2567.8</ele>
        <time>2026-09-02T12:09:20Z</time>
      </trkpt>
      <trkpt lat="44.71352" lon="7.08054">
        <ele>2567.8</ele>
        <time>2026-09-02T12:09:25Z</time>
      </trkpt>
      <trkpt lat="44.71352" lon="7.08054">
        <ele>2567.8</ele>
        <time>2026-09-02T12:09:31Z</time>
      </trkpt>
      <trkpt lat="44.71352" lon="7.08054">
        <ele>2567.8</ele>
        <time>2026-09-02T12:09:36Z</time>
      </trkpt>
      <trkpt lat="44.71352" lon="7.08054">
        <ele>2567.8</ele>
        <time>2026-09-02T12:09:41Z</time>
      </trkpt>
      <trkpt lat="44.71352" lon="7.08054">
        <ele>2567.8</ele>
        <time>2026-09-02T12:09:47Z</time>
      </trkpt>
      <trkpt lat="44.71352" lon="7.08054">
        <ele>2567.8</ele>
        <time>2026-09-02T12:09:52Z</time>
      </trkpt>
      <trkpt lat="44.71352" lon="7.08054">
        <ele>2567.8</ele>
        <time>2026-09-02T12:09:57Z</time>
      </trkpt>
      <trkpt lat="44.71352" lon="7.08054">
        <ele>2567.8</ele>
        <time>2026-09-02T12:10:03Z</time>
      </trkpt>
      <trkpt lat="44.71352" lon="7.08054">
        <ele>2567.8</ele>
        <time>2026-09-02T12:10:08Z</time>
      </trkpt>
      <trkpt lat="44.71352" lon="7.08054">
        <ele>2567.8</ele>
        <time>2026-09-02T12:10:13Z</time>
      </trkpt>
      <trkpt lat="44.71352" lon="7.08054">
        <ele>2567.8</ele>
        <time>2026-09-02T12:10:19Z</time>
      </trkpt>
      <trkpt lat="44.71352" lon="7.08054">
        <ele>2567.8</ele>
        <time>2026-09-02T12:10:24Z</time>
      </trkpt>
      <trkpt lat="44.71352" lon="7.08054">
        <ele>2567.8</ele>
        <time>2026-09-02T12:10:29Z</time>
      </trkpt>
      <trkpt lat="44.71352" lon="7.08054">
        <ele>2567.8</ele>
        <time>2026-09-02T12:10:35Z</time>
      </trkpt>
      <trkpt lat="44.71352" lon="7.08054">
        <ele>2567.8</ele>
        <time>2026-09-02T12:10:40Z</time>
      </trkpt>
      <trkpt lat="44.71352" lon="7.08054">
        <ele>2567.8</ele>
        <time>2026-09-02T12:10:45Z</time>
      </trkpt>
      <trkpt lat="44.71352" lon="7.08054">
        <ele>2567.8</ele>
        <time>2026-09-02T12:10:51Z</time>
      </trkpt>
      <trkpt lat="44.71352" lon="7.08054">
        <ele>2567.8</ele>
        <time>2026-09-02T12:10:56Z</time>
      </trkpt>
      <trkpt lat="44.71352" lon="7.08054">
        <ele>2567.8</ele>
        <time>2026-09-02T12:11:01Z</time>
      </trkpt>
      <trkpt lat="44.71352" lon="7.08054">
        <ele>2567.8</ele>
        <time>2026-09-02T12:11:07Z</time>
      </trkpt>
      <trkpt lat="44.71352" lon="7.08054">
        <ele>2567.8</ele>
        <time>2026-09-02T12:11:12Z</time>
      </trkpt>
      <trkpt lat="44.71352" lon="7.08054">
        <ele>2567.8</ele>
        <time>2026-09-02T12:11:17Z</time>
      </trkpt>
      <trkpt lat="44.71352" lon="7.08054">
        <ele>2567.8</ele>
        <time>2026-09-02T12:11:23Z</time>
      </trkpt>
      <trkpt lat="44.71352" lon="7.08054">
        <ele>2567.8</ele>
        <time>2026-09-02T12:11:28Z</time>
      </trkpt>
      <trkpt lat="44.71352" lon="7.08054">
        <ele>2567.8</ele>
        <time>2026-09-02T12:11:33Z</time>
      </trkpt>
      <trkpt lat="44.71352" lon="7.08054">
        <ele>2567.8</ele>
        <time>2026-09-02T12:11:39Z</time>
      </trkpt>
      <trkpt lat="44.71352" lon="7.08054">
        <ele>2567.8</ele>
        <time>2026-09-02T12:11:44Z</time>
      </trkpt>
      <trkpt lat="44.71352" lon="7.08054">
        <ele>2567.8</ele>
        <time>2026-09-02T12:11:49Z</time>
      </trkpt>
      <trkpt lat="44.71352" lon="7.08054">
        <ele>2567.8</ele>
        <time>2026-09-02T12:11:55Z</time>
      </trkpt>
      <trkpt lat="44.71352" lon="7.08054">
        <ele>2567.8</ele>
        <time>2026-09-02T12:12:00Z</time>
      </trkpt>
      <trkpt lat="44.71352" lon="7.08054">
        <ele>2567.8</ele>
        <time>2026-09-02T12:12:05Z</time>
      </trkpt>
      <trkpt lat="44.71352" lon="7.08054">
        <ele>2567.8</ele>
        <time>2026-09-02T12:12:11Z</time>
      </trkpt>
      <trkpt lat="44.71352" lon="7.08054">
        <ele>2567.8</ele>
        <time>2026-09-02T12:12:16Z</time>
      </trkpt>
      <trkpt lat="44.71352" lon="7.08054">
        <ele>2567.8</ele>
        <time>2026-09-02T12:12:21Z</time>
      </trkpt>
      <trkpt lat="44.71352" lon="7.08054">
        <ele>2567.8</ele>
        <time>2026-09-02T12:12:27Z</time>
      </trkpt>
      <trkpt lat="44.71352" lon="7.08054">
        <ele>2567.8</ele>
        <time>2026-09-02T12:12:32Z</time>
      </trkpt>
      <trkpt lat="44.71352" lon="7.08054">
        <ele>2567.8</ele>
        <time>2026-09-02T12:12:37Z</time>
      </trkpt>
      <trkpt lat="44.71352" lon="7.08054">
        <ele>2567.8</ele>
        <time>2026-09-02T12:12:43Z</time>
      </trkpt>
      <trkpt lat="44.71352" lon="7.08054">
        <ele>2567.8</ele>
        <time>2026-09-02T12:12:48Z</time>
      </trkpt>
      <trkpt lat="44.71352" lon="7.08054">
        <ele>2567.8</ele>
        <time>2026-09-02T12:12:53Z</time>
      </trkpt>
      <trkpt lat="44.71352" lon="7.08054">
        <ele>2567.8</ele>
        <time>2026-09-02T12:12:59Z</time>
      </trkpt>
      <trkpt lat="44.71352" lon="7.08054">
        <ele>2567.8</ele>
        <time>2026-09-02T12:13:04Z</time>
      </trkpt>
      <trkpt lat="44.71352" lon="7.08054">
        <ele>2567.8</ele>
        <time>2026-09-02T12:13:09Z</time>
      </trkpt>
      <trkpt lat="44.71352" lon="7.08054">
        <ele>2567.8</ele>
        <time>2026-09-02T12:13:15Z</time>
      </trkpt>
      <trkpt lat="44.71352" lon="7.08054">
        <ele>2567.8</ele>
        <time>2026-09-02T12:13:20Z</time>
      </trkpt>
      <trkpt lat="44.71352" lon="7.08054">
        <ele>2567.8</ele>
        <time>2026-09-02T12:13:25Z</time>
      </trkpt>
      <trkpt lat="44.71352" lon="7.08054">
        <ele>2567.8</ele>
        <time>2026-09-02T12:13:31Z</time>
      </trkpt>
      <trkpt lat="44.71352" lon="7.08054">
        <ele>2567.8</ele>
        <time>2026-09-02T12:13:36Z</time>
      </trkpt>
      <trkpt lat="44.71352" lon="7.08054">
        <ele>2567.8</ele>
        <time>2026-09-02T12:13:41Z</time>
      </trkpt>
      <trkpt lat="44.71352" lon="7.08054">
        <ele>2567.8</ele>
        <time>2026-09-02T12:13:47Z</time>
      </trkpt>
      <trkpt lat="44.71352" lon="7.08054">
        <ele>2567.8</ele>
        <time>2026-09-02T12:13:52Z</time>
      </trkpt>
      <trkpt lat="44.71352" lon="7.08054">
        <ele>2567.8</ele>
        <time>2026-09-02T12:13:57Z</time>
      </trkpt>
      <trkpt lat="44.71352" lon="7.08054">
        <ele>2567.8</ele>
        <time>2026-09-02T12:14:03Z</time>
      </trkpt>
      <trkpt lat="44.71352" lon="7.08054">
        <ele>2567.8</ele>
        <time>2026-09-02T12:14:08Z</time>
      </trkpt>
      <trkpt lat="44.71352" lon="7.08054">
        <ele>2567.8</ele>
        <time>2026-09-02T12:14:13Z</time>
      </trkpt>
      <trkpt lat="44.71352" lon="7.08054">
        <ele>2567.8</ele>
        <time>2026-09-02T12:14:19Z</time>
      </trkpt>
      <trkpt lat="44.71352" lon="7.08054">
        <ele>2567.8</ele>
        <time>2026-09-02T12:14:24Z</time>
      </trkpt>
      <trkpt lat="44.71352" lon="7.08054">
        <ele>2567.8</ele>
        <time>2026-09-02T12:14:29Z</time>
      </trkpt>
      <trkpt lat="44.71352" lon="7.08054">
        <ele>2567.8</ele>
        <time>2026-09-02T12:14:35Z</time>
      </trkpt>
      <trkpt lat="44.71352" lon="7.08054">
        <ele>2567.8</ele>
        <time>2026-09-02T12:14:40Z</time>
      </trkpt>
      <trkpt lat="44.71352" lon="7.08054">
        <ele>2567.8</ele>
        <time>2026-09-02T12:14:45Z</time>
      </trkpt>
      <trkpt lat="44.71352" lon="7.08054">
        <ele>2567.8</ele>
        <time>2026-09-02T12:14:51Z</time>
      </trkpt>
      <trkpt lat="44.71352" lon="7.08054">
        <ele>2567.8</ele>
        <time>2026-09-02T12:14:56Z</time>
      </trkpt>
      <trkpt lat="44.71352" lon="7.08054">
        <ele>2567.8</ele>
        <time>2026-09-02T12:15:01Z</time>
      </trkpt>
      <trkpt lat="44.71352" lon="7.08054">
        <ele>2567.8</ele>
        <time>2026-09-02T12:15:07Z</time>
      </trkpt>
      <trkpt lat="44.71355" lon="7.08052">
        <ele>2568.9</ele>
        <time>2026-09-02T12:15:12Z</time>
      </trkpt>
      <trkpt lat="44.71359" lon="7.08054">
        <ele>2569.8</ele>
        <time>2026-09-02T12:15:17Z</time>
      </trkpt>
      <trkpt lat="44.71359" lon="7.08055">
        <ele>2569.7</ele>
        <time>2026-09-02T12:15:23Z</time>
      </trkpt>
      <trkpt lat="44.71359" lon="7.08055">
        <ele>2569.7</ele>
        <time>2026-09-02T12:15:28Z</time>
      </trkpt>
      <trkpt lat="44.71359" lon="7.08055">
        <ele>2569.7</ele>
        <time>2026-09-02T12:15:33Z</time>
      </trkpt>
      <trkpt lat="44.71363" lon="7.08059">
        <ele>2570.4</ele>
        <time>2026-09-02T12:15:39Z</time>
      </trkpt>
      <trkpt lat="44.71367" lon="7.08059">
        <ele>2571.5</ele>
        <time>2026-09-02T12:15:44Z</time>
      </trkpt>
      <trkpt lat="44.71372" lon="7.08061">
        <ele>2572.8</ele>
        <time>2026-09-02T12:15:49Z</time>
      </trkpt>
      <trkpt lat="44.71377" lon="7.08065">
        <ele>2573.8</ele>
        <time>2026-09-02T12:15:55Z</time>
      </trkpt>
      <trkpt lat="44.71379" lon="7.08066">
        <ele>2574.3</ele>
        <time>2026-09-02T12:16:00Z</time>
      </trkpt>
      <trkpt lat="44.71383" lon="7.08059">
        <ele>2576.1</ele>
        <time>2026-09-02T12:16:05Z</time>
      </trkpt>
      <trkpt lat="44.71384" lon="7.08057">
        <ele>2576.6</ele>
        <time>2026-09-02T12:16:11Z</time>
      </trkpt>
      <trkpt lat="44.71384" lon="7.08057">
        <ele>2576.6</ele>
        <time>2026-09-02T12:16:16Z</time>
      </trkpt>
      <trkpt lat="44.71384" lon="7.08055">
        <ele>2576.8</ele>
        <time>2026-09-02T12:16:21Z</time>
      </trkpt>
      <trkpt lat="44.71382" lon="7.0805">
        <ele>2576.7</ele>
        <time>2026-09-02T12:16:27Z</time>
      </trkpt>
      <trkpt lat="44.71384" lon="7.08046">
        <ele>2577.6</ele>
        <time>2026-09-02T12:16:32Z</time>
      </trkpt>
      <trkpt lat="44.71384" lon="7.08044">
        <ele>2577.8</ele>
        <time>2026-09-02T12:16:37Z</time>
      </trkpt>
      <trkpt lat="44.71386" lon="7.08041">
        <ele>2578.6</ele>
        <time>2026-09-02T12:16:43Z</time>
      </trkpt>
      <trkpt lat="44.71387" lon="7.0804">
        <ele>2579</ele>
        <time>2026-09-02T12:16:48Z</time>
      </trkpt>
      <trkpt lat="44.7139" lon="7.0804">
        <ele>2579.8</ele>
        <time>2026-09-02T12:16:53Z</time>
      </trkpt>
      <trkpt lat="44.71393" lon="7.08038">
        <ele>2580.8</ele>
        <time>2026-09-02T12:16:59Z</time>
      </trkpt>
      <trkpt lat="44.71395" lon="7.08036">
        <ele>2581.5</ele>
        <time>2026-09-02T12:17:04Z</time>
      </trkpt>
      <trkpt lat="44.714" lon="7.08037">
        <ele>2582.8</ele>
        <time>2026-09-02T12:17:09Z</time>
      </trkpt>
      <trkpt lat="44.71403" lon="7.08041">
        <ele>2583.3</ele>
        <time>2026-09-02T12:17:15Z</time>
      </trkpt>
      <trkpt lat="44.71406" lon="7.08045">
        <ele>2583.8</ele>
        <time>2026-09-02T12:17:20Z</time>
      </trkpt>
      <trkpt lat="44.71406" lon="7.0805">
        <ele>2583.4</ele>
        <time>2026-09-02T12:17:25Z</time>
      </trkpt>
      <trkpt lat="44.71408" lon="7.08055">
        <ele>2583.6</ele>
        <time>2026-09-02T12:17:31Z</time>
      </trkpt>
      <trkpt lat="44.71411" lon="7.08058">
        <ele>2584.2</ele>
        <time>2026-09-02T12:17:36Z</time>
      </trkpt>
      <trkpt lat="44.71413" lon="7.08061">
        <ele>2584.6</ele>
        <time>2026-09-02T12:17:41Z</time>
      </trkpt>
      <trkpt lat="44.71417" lon="7.08063">
        <ele>2585.6</ele>
        <time>2026-09-02T12:17:47Z</time>
      </trkpt>
      <trkpt lat="44.71419" lon="7.08066">
        <ele>2586.1</ele>
        <time>2026-09-02T12:17:52Z</time>
      </trkpt>
      <trkpt lat="44.7142" lon="7.0807">
        <ele>2586.2</ele>
        <time>2026-09-02T12:17:57Z</time>
      </trkpt>
      <trkpt lat="44.71422" lon="7.08071">
        <ele>2586.8</ele>
        <time>2026-09-02T12:18:03Z</time>
      </trkpt>
      <trkpt lat="44.71426" lon="7.08069">
        <ele>2588.4</ele>
        <time>2026-09-02T12:18:08Z</time>
      </trkpt>
      <trkpt lat="44.71429" lon="7.08071">
        <ele>2589.4</ele>
        <time>2026-09-02T12:18:13Z</time>
      </trkpt>
      <trkpt lat="44.71432" lon="7.08074">
        <ele>2590.2</ele>
        <time>2026-09-02T12:18:19Z</time>
      </trkpt>
      <trkpt lat="44.71433" lon="7.08076">
        <ele>2590.4</ele>
        <time>2026-09-02T12:18:24Z</time>
      </trkpt>
      <trkpt lat="44.71432" lon="7.08081">
        <ele>2589.7</ele>
        <time>2026-09-02T12:18:29Z</time>
      </trkpt>
      <trkpt lat="44.7143" lon="7.08086">
        <ele>2588.7</ele>
        <time>2026-09-02T12:18:35Z</time>
      </trkpt>
      <trkpt lat="44.71429" lon="7.08089">
        <ele>2588.2</ele>
        <time>2026-09-02T12:18:40Z</time>
      </trkpt>
      <trkpt lat="44.71427" lon="7.08094">
        <ele>2587.4</ele>
        <time>2026-09-02T12:18:45Z</time>
      </trkpt>
      <trkpt lat="44.71428" lon="7.08101">
        <ele>2587.5</ele>
        <time>2026-09-02T12:18:51Z</time>
      </trkpt>
      <trkpt lat="44.71427" lon="7.08104">
        <ele>2587</ele>
        <time>2026-09-02T12:18:56Z</time>
      </trkpt>
      <trkpt lat="44.71427" lon="7.08105">
        <ele>2587</ele>
        <time>2026-09-02T12:19:01Z</time>
      </trkpt>
      <trkpt lat="44.71427" lon="7.08105">
        <ele>2587</ele>
        <time>2026-09-02T12:19:07Z</time>
      </trkpt>
      <trkpt lat="44.71429" lon="7.08108">
        <ele>2587.5</ele>
        <time>2026-09-02T12:19:12Z</time>
      </trkpt>
      <trkpt lat="44.71429" lon="7.08108">
        <ele>2587.5</ele>
        <time>2026-09-02T12:19:17Z</time>
      </trkpt>
      <trkpt lat="44.71429" lon="7.08108">
        <ele>2587.5</ele>
        <time>2026-09-02T12:19:23Z</time>
      </trkpt>
      <trkpt lat="44.71433" lon="7.08113">
        <ele>2588.7</ele>
        <time>2026-09-02T12:19:28Z</time>
      </trkpt>
      <trkpt lat="44.71435" lon="7.0811">
        <ele>2589.5</ele>
        <time>2026-09-02T12:19:33Z</time>
      </trkpt>
      <trkpt lat="44.71439" lon="7.08108">
        <ele>2590.9</ele>
        <time>2026-09-02T12:19:39Z</time>
      </trkpt>
      <trkpt lat="44.7144" lon="7.08107">
        <ele>2591.3</ele>
        <time>2026-09-02T12:19:44Z</time>
      </trkpt>
      <trkpt lat="44.71442" lon="7.08103">
        <ele>2592.1</ele>
        <time>2026-09-02T12:19:49Z</time>
      </trkpt>
      <trkpt lat="44.71444" lon="7.08099">
        <ele>2593</ele>
        <time>2026-09-02T12:19:55Z</time>
      </trkpt>
      <trkpt lat="44.71445" lon="7.08097">
        <ele>2593.5</ele>
        <time>2026-09-02T12:20:00Z</time>
      </trkpt>
      <trkpt lat="44.71446" lon="7.08095">
        <ele>2593.9</ele>
        <time>2026-09-02T12:20:05Z</time>
      </trkpt>
      <trkpt lat="44.71449" lon="7.0809">
        <ele>2595.3</ele>
        <time>2026-09-02T12:20:11Z</time>
      </trkpt>
      <trkpt lat="44.71451" lon="7.08089">
        <ele>2596</ele>
        <time>2026-09-02T12:20:16Z</time>
      </trkpt>
      <trkpt lat="44.71452" lon="7.08085">
        <ele>2596.6</ele>
        <time>2026-09-02T12:20:21Z</time>
      </trkpt>
      <trkpt lat="44.71452" lon="7.08085">
        <ele>2596.6</ele>
        <time>2026-09-02T12:20:27Z</time>
      </trkpt>
      <trkpt lat="44.71455" lon="7.08082">
        <ele>2597.9</ele>
        <time>2026-09-02T12:20:32Z</time>
      </trkpt>
      <trkpt lat="44.71456" lon="7.08081">
        <ele>2598.4</ele>
        <time>2026-09-02T12:20:37Z</time>
      </trkpt>
      <trkpt lat="44.71458" lon="7.08085">
        <ele>2598.8</ele>
        <time>2026-09-02T12:20:43Z</time>
      </trkpt>
      <trkpt lat="44.7146" lon="7.08086">
        <ele>2599.4</ele>
        <time>2026-09-02T12:20:48Z</time>
      </trkpt>
      <trkpt lat="44.7146" lon="7.0809">
        <ele>2599.1</ele>
        <time>2026-09-02T12:20:53Z</time>
      </trkpt>
      <trkpt lat="44.71461" lon="7.08098">
        <ele>2599</ele>
        <time>2026-09-02T12:20:59Z</time>
      </trkpt>
      <trkpt lat="44.71462" lon="7.08103">
        <ele>2598.9</ele>
        <time>2026-09-02T12:21:04Z</time>
      </trkpt>
      <trkpt lat="44.71463" lon="7.08107">
        <ele>2599</ele>
        <time>2026-09-02T12:21:09Z</time>
      </trkpt>
      <trkpt lat="44.71467" lon="7.08111">
        <ele>2600.1</ele>
        <time>2026-09-02T12:21:15Z</time>
      </trkpt>
      <trkpt lat="44.71473" lon="7.08113">
        <ele>2601.9</ele>
        <time>2026-09-02T12:21:20Z</time>
      </trkpt>
      <trkpt lat="44.71476" lon="7.08117">
        <ele>2602.5</ele>
        <time>2026-09-02T12:21:25Z</time>
      </trkpt>
      <trkpt lat="44.7148" lon="7.0812">
        <ele>2603.6</ele>
        <time>2026-09-02T12:21:31Z</time>
      </trkpt>
      <trkpt lat="44.71482" lon="7.08124">
        <ele>2603.9</ele>
        <time>2026-09-02T12:21:36Z</time>
      </trkpt>
      <trkpt lat="44.71486" lon="7.0813">
        <ele>2604.6</ele>
        <time>2026-09-02T12:21:41Z</time>
      </trkpt>
      <trkpt lat="44.71487" lon="7.08136">
        <ele>2604.3</ele>
        <time>2026-09-02T12:21:47Z</time>
      </trkpt>
      <trkpt lat="44.71489" lon="7.0814">
        <ele>2604.5</ele>
        <time>2026-09-02T12:21:52Z</time>
      </trkpt>
      <trkpt lat="44.71488" lon="7.08143">
        <ele>2604</ele>
        <time>2026-09-02T12:21:57Z</time>
      </trkpt>
      <trkpt lat="44.71493" lon="7.08145">
        <ele>2605.3</ele>
        <time>2026-09-02T12:22:03Z</time>
      </trkpt>
      <trkpt lat="44.71492" lon="7.08148">
        <ele>2604.7</ele>
        <time>2026-09-02T12:22:08Z</time>
      </trkpt>
      <trkpt lat="44.71494" lon="7.08152">
        <ele>2604.8</ele>
        <time>2026-09-02T12:22:13Z</time>
      </trkpt>
      <trkpt lat="44.71497" lon="7.08156">
        <ele>2605.3</ele>
        <time>2026-09-02T12:22:19Z</time>
      </trkpt>
      <trkpt lat="44.71497" lon="7.08161">
        <ele>2604.8</ele>
        <time>2026-09-02T12:22:24Z</time>
      </trkpt>
      <trkpt lat="44.71496" lon="7.08165">
        <ele>2604.1</ele>
        <time>2026-09-02T12:22:29Z</time>
      </trkpt>
      <trkpt lat="44.71496" lon="7.08165">
        <ele>2604.1</ele>
        <time>2026-09-02T12:22:35Z</time>
      </trkpt>
      <trkpt lat="44.71496" lon="7.08164">
        <ele>2604.2</ele>
        <time>2026-09-02T12:22:40Z</time>
      </trkpt>
      <trkpt lat="44.71496" lon="7.08164">
        <ele>2604.2</ele>
        <time>2026-09-02T12:22:45Z</time>
      </trkpt>
      <trkpt lat="44.71496" lon="7.08164">
        <ele>2604.2</ele>
        <time>2026-09-02T12:22:51Z</time>
      </trkpt>
      <trkpt lat="44.71496" lon="7.08164">
        <ele>2604.2</ele>
        <time>2026-09-02T12:22:56Z</time>
      </trkpt>
      <trkpt lat="44.71496" lon="7.08164">
        <ele>2604.2</ele>
        <time>2026-09-02T12:23:01Z</time>
      </trkpt>
      <trkpt lat="44.71496" lon="7.08164">
        <ele>2604.2</ele>
        <time>2026-09-02T12:23:07Z</time>
      </trkpt>
      <trkpt lat="44.71496" lon="7.08164">
        <ele>2604.2</ele>
        <time>2026-09-02T12:23:12Z</time>
      </trkpt>
      <trkpt lat="44.71496" lon="7.08164">
        <ele>2604.2</ele>
        <time>2026-09-02T12:23:17Z</time>
      </trkpt>
      <trkpt lat="44.71506" lon="7.08171">
        <ele>2608.1</ele>
        <time>2026-09-02T12:23:23Z</time>
      </trkpt>
      <trkpt lat="44.71507" lon="7.08178">
        <ele>2608.2</ele>
        <time>2026-09-02T12:23:28Z</time>
      </trkpt>
      <trkpt lat="44.71509" lon="7.08181">
        <ele>2609.2</ele>
        <time>2026-09-02T12:23:33Z</time>
      </trkpt>
      <trkpt lat="44.71512" lon="7.08186">
        <ele>2610.5</ele>
        <time>2026-09-02T12:23:39Z</time>
      </trkpt>
      <trkpt lat="44.71512" lon="7.08186">
        <ele>2610.5</ele>
        <time>2026-09-02T12:23:44Z</time>
      </trkpt>
      <trkpt lat="44.71512" lon="7.08186">
        <ele>2610.5</ele>
        <time>2026-09-02T12:23:49Z</time>
      </trkpt>
      <trkpt lat="44.71512" lon="7.08186">
        <ele>2610.5</ele>
        <time>2026-09-02T12:23:55Z</time>
      </trkpt>
      <trkpt lat="44.71512" lon="7.08186">
        <ele>2610.5</ele>
        <time>2026-09-02T12:24:00Z</time>
      </trkpt>
      <trkpt lat="44.71512" lon="7.08186">
        <ele>2610.5</ele>
        <time>2026-09-02T12:24:05Z</time>
      </trkpt>
      <trkpt lat="44.71507" lon="7.08195">
        <ele>2607.2</ele>
        <time>2026-09-02T12:24:11Z</time>
      </trkpt>
      <trkpt lat="44.71507" lon="7.08203">
        <ele>2606.7</ele>
        <time>2026-09-02T12:24:16Z</time>
      </trkpt>
      <trkpt lat="44.7151" lon="7.08207">
        <ele>2608</ele>
        <time>2026-09-02T12:24:21Z</time>
      </trkpt>
      <trkpt lat="44.71516" lon="7.08212">
        <ele>2611</ele>
        <time>2026-09-02T12:24:27Z</time>
      </trkpt>
      <trkpt lat="44.71516" lon="7.08216">
        <ele>2610.7</ele>
        <time>2026-09-02T12:24:32Z</time>
      </trkpt>
      <trkpt lat="44.71515" lon="7.08223">
        <ele>2609.7</ele>
        <time>2026-09-02T12:24:37Z</time>
      </trkpt>
      <trkpt lat="44.71514" lon="7.0823">
        <ele>2608.7</ele>
        <time>2026-09-02T12:24:43Z</time>
      </trkpt>
      <trkpt lat="44.71513" lon="7.08235">
        <ele>2607.8</ele>
        <time>2026-09-02T12:24:48Z</time>
      </trkpt>
      <trkpt lat="44.71513" lon="7.0824">
        <ele>2607.5</ele>
        <time>2026-09-02T12:24:53Z</time>
      </trkpt>
      <trkpt lat="44.71514" lon="7.08243">
        <ele>2607.9</ele>
        <time>2026-09-02T12:24:59Z</time>
      </trkpt>
      <trkpt lat="44.71515" lon="7.08247">
        <ele>2608.1</ele>
        <time>2026-09-02T12:25:04Z</time>
      </trkpt>
      <trkpt lat="44.71515" lon="7.08249">
        <ele>2608</ele>
        <time>2026-09-02T12:25:09Z</time>
      </trkpt>
      <trkpt lat="44.71514" lon="7.0825">
        <ele>2607.4</ele>
        <time>2026-09-02T12:25:15Z</time>
      </trkpt>
      <trkpt lat="44.71514" lon="7.0825">
        <ele>2607.4</ele>
        <time>2026-09-02T12:25:20Z</time>
      </trkpt>
      <trkpt lat="44.71514" lon="7.0825">
        <ele>2607.4</ele>
        <time>2026-09-02T12:25:25Z</time>
      </trkpt>
      <trkpt lat="44.71514" lon="7.0825">
        <ele>2607.4</ele>
        <time>2026-09-02T12:25:31Z</time>
      </trkpt>
      <trkpt lat="44.71514" lon="7.0825">
        <ele>2607.4</ele>
        <time>2026-09-02T12:25:36Z</time>
      </trkpt>
      <trkpt lat="44.71514" lon="7.08257">
        <ele>2606.8</ele>
        <time>2026-09-02T12:25:41Z</time>
      </trkpt>
      <trkpt lat="44.71513" lon="7.08264">
        <ele>2605.8</ele>
        <time>2026-09-02T12:25:47Z</time>
      </trkpt>
      <trkpt lat="44.71512" lon="7.08269">
        <ele>2604.8</ele>
        <time>2026-09-02T12:25:52Z</time>
      </trkpt>
      <trkpt lat="44.71511" lon="7.08274">
        <ele>2603.9</ele>
        <time>2026-09-02T12:25:57Z</time>
      </trkpt>
      <trkpt lat="44.71515" lon="7.0828">
        <ele>2605.6</ele>
        <time>2026-09-02T12:26:03Z</time>
      </trkpt>
      <trkpt lat="44.71515" lon="7.08281">
        <ele>2605.5</ele>
        <time>2026-09-02T12:26:08Z</time>
      </trkpt>
      <trkpt lat="44.71516" lon="7.08282">
        <ele>2606</ele>
        <time>2026-09-02T12:26:13Z</time>
      </trkpt>
      <trkpt lat="44.71519" lon="7.08285">
        <ele>2607.4</ele>
        <time>2026-09-02T12:26:19Z</time>
      </trkpt>
      <trkpt lat="44.71522" lon="7.0829">
        <ele>2608.6</ele>
        <time>2026-09-02T12:26:24Z</time>
      </trkpt>
      <trkpt lat="44.71523" lon="7.08293">
        <ele>2609</ele>
        <time>2026-09-02T12:26:29Z</time>
      </trkpt>
      <trkpt lat="44.71523" lon="7.08299">
        <ele>2608.5</ele>
        <time>2026-09-02T12:26:35Z</time>
      </trkpt>
      <trkpt lat="44.71527" lon="7.08302">
        <ele>2610.5</ele>
        <time>2026-09-02T12:26:40Z</time>
      </trkpt>
      <trkpt lat="44.71526" lon="7.08307">
        <ele>2609.6</ele>
        <time>2026-09-02T12:26:45Z</time>
      </trkpt>
      <trkpt lat="44.71526" lon="7.0831">
        <ele>2609.4</ele>
        <time>2026-09-02T12:26:51Z</time>
      </trkpt>
      <trkpt lat="44.71525" lon="7.08311">
        <ele>2608.7</ele>
        <time>2026-09-02T12:26:56Z</time>
      </trkpt>
      <trkpt lat="44.71525" lon="7.08311">
        <ele>2608.7</ele>
        <time>2026-09-02T12:27:01Z</time>
      </trkpt>
      <trkpt lat="44.71525" lon="7.08311">
        <ele>2608.7</ele>
        <time>2026-09-02T12:27:07Z</time>
      </trkpt>
      <trkpt lat="44.71525" lon="7.08311">
        <ele>2608.7</ele>
        <time>2026-09-02T12:27:12Z</time>
      </trkpt>
      <trkpt lat="44.71525" lon="7.08311">
        <ele>2608.7</ele>
        <time>2026-09-02T12:27:17Z</time>
      </trkpt>
      <trkpt lat="44.71525" lon="7.08311">
        <ele>2608.7</ele>
        <time>2026-09-02T12:27:23Z</time>
      </trkpt>
      <trkpt lat="44.71525" lon="7.08311">
        <ele>2608.7</ele>
        <time>2026-09-02T12:27:28Z</time>
      </trkpt>
      <trkpt lat="44.71525" lon="7.08311">
        <ele>2608.7</ele>
        <time>2026-09-02T12:27:33Z</time>
      </trkpt>
      <trkpt lat="44.71525" lon="7.08311">
        <ele>2608.7</ele>
        <time>2026-09-02T12:27:39Z</time>
      </trkpt>
      <trkpt lat="44.71525" lon="7.08311">
        <ele>2608.7</ele>
        <time>2026-09-02T12:27:44Z</time>
      </trkpt>
      <trkpt lat="44.71525" lon="7.08311">
        <ele>2608.7</ele>
        <time>2026-09-02T12:27:49Z</time>
      </trkpt>
      <trkpt lat="44.71525" lon="7.08311">
        <ele>2608.7</ele>
        <time>2026-09-02T12:27:55Z</time>
      </trkpt>
      <trkpt lat="44.71525" lon="7.08311">
        <ele>2608.7</ele>
        <time>2026-09-02T12:28:00Z</time>
      </trkpt>
      <trkpt lat="44.71525" lon="7.08311">
        <ele>2608.7</ele>
        <time>2026-09-02T12:28:05Z</time>
      </trkpt>
      <trkpt lat="44.71525" lon="7.08311">
        <ele>2608.7</ele>
        <time>2026-09-02T12:28:11Z</time>
      </trkpt>
      <trkpt lat="44.71525" lon="7.08311">
        <ele>2608.7</ele>
        <time>2026-09-02T12:28:16Z</time>
      </trkpt>
      <trkpt lat="44.71529" lon="7.08326">
        <ele>2609.9</ele>
        <time>2026-09-02T12:28:21Z</time>
      </trkpt>
      <trkpt lat="44.7153" lon="7.08332">
        <ele>2610</ele>
        <time>2026-09-02T12:28:27Z</time>
      </trkpt>
      <trkpt lat="44.71533" lon="7.08336">
        <ele>2611.8</ele>
        <time>2026-09-02T12:28:32Z</time>
      </trkpt>
      <trkpt lat="44.71536" lon="7.08337">
        <ele>2613.6</ele>
        <time>2026-09-02T12:28:37Z</time>
      </trkpt>
      <trkpt lat="44.71536" lon="7.08341">
        <ele>2613.9</ele>
        <time>2026-09-02T12:28:43Z</time>
      </trkpt>
      <trkpt lat="44.71536" lon="7.08345">
        <ele>2614.1</ele>
        <time>2026-09-02T12:28:48Z</time>
      </trkpt>
      <trkpt lat="44.71539" lon="7.08348">
        <ele>2616.1</ele>
        <time>2026-09-02T12:28:53Z</time>
      </trkpt>
      <trkpt lat="44.7154" lon="7.08353">
        <ele>2617</ele>
        <time>2026-09-02T12:28:59Z</time>
      </trkpt>
      <trkpt lat="44.71537" lon="7.08355">
        <ele>2615.4</ele>
        <time>2026-09-02T12:29:04Z</time>
      </trkpt>
      <trkpt lat="44.71536" lon="7.08355">
        <ele>2614.9</ele>
        <time>2026-09-02T12:29:09Z</time>
      </trkpt>
      <trkpt lat="44.71536" lon="7.08355">
        <ele>2614.9</ele>
        <time>2026-09-02T12:29:15Z</time>
      </trkpt>
      <trkpt lat="44.71536" lon="7.08355">
        <ele>2614.9</ele>
        <time>2026-09-02T12:29:20Z</time>
      </trkpt>
      <trkpt lat="44.71536" lon="7.08355">
        <ele>2614.9</ele>
        <time>2026-09-02T12:29:25Z</time>
      </trkpt>
      <trkpt lat="44.71536" lon="7.08355">
        <ele>2614.9</ele>
        <time>2026-09-02T12:29:31Z</time>
      </trkpt>
      <trkpt lat="44.71536" lon="7.08355">
        <ele>2614.9</ele>
        <time>2026-09-02T12:29:36Z</time>
      </trkpt>
      <trkpt lat="44.71536" lon="7.08355">
        <ele>2614.9</ele>
        <time>2026-09-02T12:29:41Z</time>
      </trkpt>
      <trkpt lat="44.71537" lon="7.08363">
        <ele>2616</ele>
        <time>2026-09-02T12:29:47Z</time>
      </trkpt>
      <trkpt lat="44.7154" lon="7.08368">
        <ele>2618.1</ele>
        <time>2026-09-02T12:29:52Z</time>
      </trkpt>
      <trkpt lat="44.71544" lon="7.0837">
        <ele>2620.5</ele>
        <time>2026-09-02T12:29:57Z</time>
      </trkpt>
      <trkpt lat="44.71542" lon="7.08376">
        <ele>2619.8</ele>
        <time>2026-09-02T12:30:03Z</time>
      </trkpt>
      <trkpt lat="44.71545" lon="7.08379">
        <ele>2621.7</ele>
        <time>2026-09-02T12:30:08Z</time>
      </trkpt>
      <trkpt lat="44.71548" lon="7.08383">
        <ele>2623.6</ele>
        <time>2026-09-02T12:30:13Z</time>
      </trkpt>
      <trkpt lat="44.71548" lon="7.08383">
        <ele>2623.6</ele>
        <time>2026-09-02T12:30:19Z</time>
      </trkpt>
      <trkpt lat="44.71548" lon="7.08383">
        <ele>2623.6</ele>
        <time>2026-09-02T12:30:24Z</time>
      </trkpt>
      <trkpt lat="44.71548" lon="7.08383">
        <ele>2623.6</ele>
        <time>2026-09-02T12:30:29Z</time>
      </trkpt>
      <trkpt lat="44.71546" lon="7.08393">
        <ele>2623.2</ele>
        <time>2026-09-02T12:30:35Z</time>
      </trkpt>
      <trkpt lat="44.71545" lon="7.08397">
        <ele>2623</ele>
        <time>2026-09-02T12:30:40Z</time>
      </trkpt>
      <trkpt lat="44.71547" lon="7.08399">
        <ele>2624.2</ele>
        <time>2026-09-02T12:30:45Z</time>
      </trkpt>
      <trkpt lat="44.71547" lon="7.084">
        <ele>2624.3</ele>
        <time>2026-09-02T12:30:51Z</time>
      </trkpt>
      <trkpt lat="44.71547" lon="7.084">
        <ele>2624.3</ele>
        <time>2026-09-02T12:30:56Z</time>
      </trkpt>
      <trkpt lat="44.71547" lon="7.084">
        <ele>2624.3</ele>
        <time>2026-09-02T12:31:01Z</time>
      </trkpt>
      <trkpt lat="44.71547" lon="7.084">
        <ele>2624.3</ele>
        <time>2026-09-02T12:31:07Z</time>
      </trkpt>
      <trkpt lat="44.71547" lon="7.084">
        <ele>2624.3</ele>
        <time>2026-09-02T12:31:12Z</time>
      </trkpt>
      <trkpt lat="44.71547" lon="7.084">
        <ele>2624.3</ele>
        <time>2026-09-02T12:31:17Z</time>
      </trkpt>
      <trkpt lat="44.71547" lon="7.084">
        <ele>2624.3</ele>
        <time>2026-09-02T12:31:23Z</time>
      </trkpt>
      <trkpt lat="44.71547" lon="7.084">
        <ele>2624.3</ele>
        <time>2026-09-02T12:31:28Z</time>
      </trkpt>
      <trkpt lat="44.71547" lon="7.084">
        <ele>2624.3</ele>
        <time>2026-09-02T12:31:33Z</time>
      </trkpt>
      <trkpt lat="44.71547" lon="7.084">
        <ele>2624.3</ele>
        <time>2026-09-02T12:31:39Z</time>
      </trkpt>
      <trkpt lat="44.71549" lon="7.08407">
        <ele>2625.9</ele>
        <time>2026-09-02T12:31:44Z</time>
      </trkpt>
      <trkpt lat="44.7155" lon="7.08413">
        <ele>2626.9</ele>
        <time>2026-09-02T12:31:49Z</time>
      </trkpt>
      <trkpt lat="44.71552" lon="7.08415">
        <ele>2628.2</ele>
        <time>2026-09-02T12:31:55Z</time>
      </trkpt>
      <trkpt lat="44.71553" lon="7.08415">
        <ele>2628.8</ele>
        <time>2026-09-02T12:32:00Z</time>
      </trkpt>
      <trkpt lat="44.71555" lon="7.08418">
        <ele>2630.2</ele>
        <time>2026-09-02T12:32:05Z</time>
      </trkpt>
      <trkpt lat="44.71555" lon="7.08419">
        <ele>2630.3</ele>
        <time>2026-09-02T12:32:11Z</time>
      </trkpt>
      <trkpt lat="44.71555" lon="7.08419">
        <ele>2630.3</ele>
        <time>2026-09-02T12:32:16Z</time>
      </trkpt>
      <trkpt lat="44.71555" lon="7.08419">
        <ele>2630.3</ele>
        <time>2026-09-02T12:32:21Z</time>
      </trkpt>
      <trkpt lat="44.71555" lon="7.08419">
        <ele>2630.3</ele>
        <time>2026-09-02T12:32:27Z</time>
      </trkpt>
      <trkpt lat="44.71555" lon="7.08419">
        <ele>2630.3</ele>
        <time>2026-09-02T12:32:32Z</time>
      </trkpt>
      <trkpt lat="44.71555" lon="7.08419">
        <ele>2630.3</ele>
        <time>2026-09-02T12:32:37Z</time>
      </trkpt>
      <trkpt lat="44.71555" lon="7.08419">
        <ele>2630.3</ele>
        <time>2026-09-02T12:32:43Z</time>
      </trkpt>
      <trkpt lat="44.71555" lon="7.08419">
        <ele>2630.3</ele>
        <time>2026-09-02T12:32:48Z</time>
      </trkpt>
      <trkpt lat="44.71553" lon="7.08432">
        <ele>2630.9</ele>
        <time>2026-09-02T12:32:53Z</time>
      </trkpt>
      <trkpt lat="44.71554" lon="7.08434">
        <ele>2631.7</ele>
        <time>2026-09-02T12:32:59Z</time>
      </trkpt>
      <trkpt lat="44.71554" lon="7.08434">
        <ele>2631.7</ele>
        <time>2026-09-02T12:33:04Z</time>
      </trkpt>
      <trkpt lat="44.71562" lon="7.08438">
        <ele>2636.7</ele>
        <time>2026-09-02T12:33:09Z</time>
      </trkpt>
      <trkpt lat="44.71562" lon="7.08438">
        <ele>2636.7</ele>
        <time>2026-09-02T12:33:15Z</time>
      </trkpt>
      <trkpt lat="44.71562" lon="7.08438">
        <ele>2636.7</ele>
        <time>2026-09-02T12:33:20Z</time>
      </trkpt>
      <trkpt lat="44.71562" lon="7.08438">
        <ele>2636.7</ele>
        <time>2026-09-02T12:33:25Z</time>
      </trkpt>
      <trkpt lat="44.71562" lon="7.08438">
        <ele>2636.7</ele>
        <time>2026-09-02T12:33:31Z</time>
      </trkpt>
      <trkpt lat="44.71562" lon="7.08438">
        <ele>2636.7</ele>
        <time>2026-09-02T12:33:36Z</time>
      </trkpt>
      <trkpt lat="44.71562" lon="7.08438">
        <ele>2636.7</ele>
        <time>2026-09-02T12:33:41Z</time>
      </trkpt>
      <trkpt lat="44.71562" lon="7.08438">
        <ele>2636.7</ele>
        <time>2026-09-02T12:33:47Z</time>
      </trkpt>
      <trkpt lat="44.71562" lon="7.08438">
        <ele>2636.7</ele>
        <time>2026-09-02T12:33:52Z</time>
      </trkpt>
      <trkpt lat="44.71562" lon="7.08438">
        <ele>2636.7</ele>
        <time>2026-09-02T12:33:57Z</time>
      </trkpt>
      <trkpt lat="44.71562" lon="7.08438">
        <ele>2636.7</ele>
        <time>2026-09-02T12:34:03Z</time>
      </trkpt>
      <trkpt lat="44.71562" lon="7.08438">
        <ele>2636.7</ele>
        <time>2026-09-02T12:34:08Z</time>
      </trkpt>
      <trkpt lat="44.71562" lon="7.08438">
        <ele>2636.7</ele>
        <time>2026-09-02T12:34:13Z</time>
      </trkpt>
      <trkpt lat="44.71562" lon="7.08438">
        <ele>2636.7</ele>
        <time>2026-09-02T12:34:19Z</time>
      </trkpt>
      <trkpt lat="44.71562" lon="7.08438">
        <ele>2636.7</ele>
        <time>2026-09-02T12:34:24Z</time>
      </trkpt>
      <trkpt lat="44.71562" lon="7.08438">
        <ele>2636.7</ele>
        <time>2026-09-02T12:34:29Z</time>
      </trkpt>
      <trkpt lat="44.71562" lon="7.08438">
        <ele>2636.7</ele>
        <time>2026-09-02T12:34:35Z</time>
      </trkpt>
      <trkpt lat="44.71562" lon="7.08438">
        <ele>2636.7</ele>
        <time>2026-09-02T12:34:40Z</time>
      </trkpt>
      <trkpt lat="44.71562" lon="7.08438">
        <ele>2636.7</ele>
        <time>2026-09-02T12:34:45Z</time>
      </trkpt>
      <trkpt lat="44.71562" lon="7.08438">
        <ele>2636.7</ele>
        <time>2026-09-02T12:34:51Z</time>
      </trkpt>
      <trkpt lat="44.71562" lon="7.08438">
        <ele>2636.7</ele>
        <time>2026-09-02T12:34:56Z</time>
      </trkpt>
      <trkpt lat="44.71562" lon="7.08438">
        <ele>2636.7</ele>
        <time>2026-09-02T12:35:01Z</time>
      </trkpt>
      <trkpt lat="44.71562" lon="7.08438">
        <ele>2636.7</ele>
        <time>2026-09-02T12:35:07Z</time>
      </trkpt>
      <trkpt lat="44.71562" lon="7.08438">
        <ele>2636.7</ele>
        <time>2026-09-02T12:35:12Z</time>
      </trkpt>
      <trkpt lat="44.71562" lon="7.08438">
        <ele>2636.7</ele>
        <time>2026-09-02T12:35:17Z</time>
      </trkpt>
      <trkpt lat="44.71562" lon="7.08438">
        <ele>2636.7</ele>
        <time>2026-09-02T12:35:23Z</time>
      </trkpt>
      <trkpt lat="44.71562" lon="7.08438">
        <ele>2636.7</ele>
        <time>2026-09-02T12:35:28Z</time>
      </trkpt>
      <trkpt lat="44.71562" lon="7.08438">
        <ele>2636.7</ele>
        <time>2026-09-02T12:35:33Z</time>
      </trkpt>
      <trkpt lat="44.71562" lon="7.08438">
        <ele>2636.7</ele>
        <time>2026-09-02T12:35:39Z</time>
      </trkpt>
      <trkpt lat="44.71562" lon="7.08438">
        <ele>2636.7</ele>
        <time>2026-09-02T12:35:44Z</time>
      </trkpt>
      <trkpt lat="44.71562" lon="7.08438">
        <ele>2636.7</ele>
        <time>2026-09-02T12:35:49Z</time>
      </trkpt>
      <trkpt lat="44.71562" lon="7.08438">
        <ele>2636.7</ele>
        <time>2026-09-02T12:35:55Z</time>
      </trkpt>
      <trkpt lat="44.71564" lon="7.08441">
        <ele>2638.2</ele>
        <time>2026-09-02T12:36:00Z</time>
      </trkpt>
      <trkpt lat="44.71569" lon="7.08435">
        <ele>2640.2</ele>
        <time>2026-09-02T12:36:05Z</time>
      </trkpt>
      <trkpt lat="44.71573" lon="7.08432">
        <ele>2642.1</ele>
        <time>2026-09-02T12:36:11Z</time>
      </trkpt>
      <trkpt lat="44.71576" lon="7.08428">
        <ele>2643.2</ele>
        <time>2026-09-02T12:36:16Z</time>
      </trkpt>
      <trkpt lat="44.71581" lon="7.08425">
        <ele>2645.7</ele>
        <time>2026-09-02T12:36:21Z</time>
      </trkpt>
      <trkpt lat="44.71586" lon="7.08419">
        <ele>2647.3</ele>
        <time>2026-09-02T12:36:27Z</time>
      </trkpt>
      <trkpt lat="44.7159" lon="7.08415">
        <ele>2648.5</ele>
        <time>2026-09-02T12:36:32Z</time>
      </trkpt>
      <trkpt lat="44.71594" lon="7.0841">
        <ele>2649.8</ele>
        <time>2026-09-02T12:36:37Z</time>
      </trkpt>
      <trkpt lat="44.71598" lon="7.08407">
        <ele>2651.2</ele>
        <time>2026-09-02T12:36:43Z</time>
      </trkpt>
      <trkpt lat="44.71602" lon="7.08402">
        <ele>2652.7</ele>
        <time>2026-09-02T12:36:48Z</time>
      </trkpt>
      <trkpt lat="44.71607" lon="7.084">
        <ele>2654.7</ele>
        <time>2026-09-02T12:36:53Z</time>
      </trkpt>
      <trkpt lat="44.71613" lon="7.08397">
        <ele>2657.2</ele>
        <time>2026-09-02T12:36:59Z</time>
      </trkpt>
      <trkpt lat="44.71615" lon="7.08395">
        <ele>2658</ele>
        <time>2026-09-02T12:37:04Z</time>
      </trkpt>
      <trkpt lat="44.71617" lon="7.08393">
        <ele>2658.8</ele>
        <time>2026-09-02T12:37:09Z</time>
      </trkpt>
      <trkpt lat="44.7162" lon="7.08394">
        <ele>2660.1</ele>
        <time>2026-09-02T12:37:15Z</time>
      </trkpt>
      <trkpt lat="44.71622" lon="7.08395">
        <ele>2661</ele>
        <time>2026-09-02T12:37:20Z</time>
      </trkpt>
      <trkpt lat="44.71626" lon="7.08393">
        <ele>2662.7</ele>
        <time>2026-09-02T12:37:25Z</time>
      </trkpt>
      <trkpt lat="44.71634" lon="7.08394">
        <ele>2666.1</ele>
        <time>2026-09-02T12:37:31Z</time>
      </trkpt>
      <trkpt lat="44.7164" lon="7.08402">
        <ele>2668.4</ele>
        <time>2026-09-02T12:37:36Z</time>
      </trkpt>
      <trkpt lat="44.71646" lon="7.08408">
        <ele>2670.5</ele>
        <time>2026-09-02T12:37:41Z</time>
      </trkpt>
      <trkpt lat="44.71649" lon="7.08418">
        <ele>2671.3</ele>
        <time>2026-09-02T12:37:47Z</time>
      </trkpt>
      <trkpt lat="44.71648" lon="7.08428">
        <ele>2671.2</ele>
        <time>2026-09-02T12:37:52Z</time>
      </trkpt>
      <trkpt lat="44.71653" lon="7.08435">
        <ele>2673.3</ele>
        <time>2026-09-02T12:37:57Z</time>
      </trkpt>
      <trkpt lat="44.71658" lon="7.08443">
        <ele>2675.3</ele>
        <time>2026-09-02T12:38:03Z</time>
      </trkpt>
      <trkpt lat="44.7166" lon="7.08449">
        <ele>2676.1</ele>
        <time>2026-09-02T12:38:08Z</time>
      </trkpt>
      <trkpt lat="44.71663" lon="7.08455">
        <ele>2677.2</ele>
        <time>2026-09-02T12:38:13Z</time>
      </trkpt>
      <trkpt lat="44.71666" lon="7.08464">
        <ele>2678.4</ele>
        <time>2026-09-02T12:38:19Z</time>
      </trkpt>
      <trkpt lat="44.71671" lon="7.0847">
        <ele>2678.2</ele>
        <time>2026-09-02T12:38:24Z</time>
      </trkpt>
      <trkpt lat="44.71677" lon="7.08479">
        <ele>2677.6</ele>
        <time>2026-09-02T12:38:29Z</time>
      </trkpt>
      <trkpt lat="44.71681" lon="7.0849">
        <ele>2677.2</ele>
        <time>2026-09-02T12:38:35Z</time>
      </trkpt>
      <trkpt lat="44.71684" lon="7.085">
        <ele>2676.9</ele>
        <time>2026-09-02T12:38:40Z</time>
      </trkpt>
      <trkpt lat="44.71688" lon="7.08506">
        <ele>2677</ele>
        <time>2026-09-02T12:38:45Z</time>
      </trkpt>
      <trkpt lat="44.71692" lon="7.08515">
        <ele>2677.2</ele>
        <time>2026-09-02T12:38:51Z</time>
      </trkpt>
      <trkpt lat="44.71695" lon="7.08523">
        <ele>2677.4</ele>
        <time>2026-09-02T12:38:56Z</time>
      </trkpt>
      <trkpt lat="44.71701" lon="7.08529">
        <ele>2677</ele>
        <time>2026-09-02T12:39:01Z</time>
      </trkpt>
      <trkpt lat="44.71702" lon="7.08537">
        <ele>2677.4</ele>
        <time>2026-09-02T12:39:07Z</time>
      </trkpt>
      <trkpt lat="44.71702" lon="7.08541">
        <ele>2677.7</ele>
        <time>2026-09-02T12:39:12Z</time>
      </trkpt>
      <trkpt lat="44.71701" lon="7.08545">
        <ele>2678.2</ele>
        <time>2026-09-02T12:39:17Z</time>
      </trkpt>
      <trkpt lat="44.71702" lon="7.08546">
        <ele>2678.1</ele>
        <time>2026-09-02T12:39:23Z</time>
      </trkpt>
      <trkpt lat="44.71704" lon="7.08549">
        <ele>2678</ele>
        <time>2026-09-02T12:39:28Z</time>
      </trkpt>
      <trkpt lat="44.71705" lon="7.08552">
        <ele>2678</ele>
        <time>2026-09-02T12:39:33Z</time>
      </trkpt>
      <trkpt lat="44.71705" lon="7.08552">
        <ele>2678</ele>
        <time>2026-09-02T12:39:39Z</time>
      </trkpt>
      <trkpt lat="44.71705" lon="7.08552">
        <ele>2678</ele>
        <time>2026-09-02T12:39:44Z</time>
      </trkpt>
      <trkpt lat="44.71705" lon="7.08552">
        <ele>2678</ele>
        <time>2026-09-02T12:39:49Z</time>
      </trkpt>
      <trkpt lat="44.71706" lon="7.08556">
        <ele>2678.1</ele>
        <time>2026-09-02T12:39:55Z</time>
      </trkpt>
      <trkpt lat="44.71708" lon="7.08559">
        <ele>2678</ele>
        <time>2026-09-02T12:40:00Z</time>
      </trkpt>
      <trkpt lat="44.71709" lon="7.08561">
        <ele>2677.9</ele>
        <time>2026-09-02T12:40:05Z</time>
      </trkpt>
      <trkpt lat="44.71708" lon="7.08566">
        <ele>2678.4</ele>
        <time>2026-09-02T12:40:11Z</time>
      </trkpt>
      <trkpt lat="44.71709" lon="7.08569">
        <ele>2678.4</ele>
        <time>2026-09-02T12:40:16Z</time>
      </trkpt>
      <trkpt lat="44.71711" lon="7.08572">
        <ele>2678.2</ele>
        <time>2026-09-02T12:40:21Z</time>
      </trkpt>
      <trkpt lat="44.71714" lon="7.08577">
        <ele>2678</ele>
        <time>2026-09-02T12:40:27Z</time>
      </trkpt>
      <trkpt lat="44.71718" lon="7.08576">
        <ele>2677.1</ele>
        <time>2026-09-02T12:40:32Z</time>
      </trkpt>
      <trkpt lat="44.71721" lon="7.08571">
        <ele>2676.3</ele>
        <time>2026-09-02T12:40:37Z</time>
      </trkpt>
      <trkpt lat="44.71724" lon="7.08567">
        <ele>2675.5</ele>
        <time>2026-09-02T12:40:43Z</time>
      </trkpt>
      <trkpt lat="44.71727" lon="7.08568">
        <ele>2675</ele>
        <time>2026-09-02T12:40:48Z</time>
      </trkpt>
      <trkpt lat="44.7173" lon="7.08571">
        <ele>2674.5</ele>
        <time>2026-09-02T12:40:53Z</time>
      </trkpt>
      <trkpt lat="44.71733" lon="7.08575">
        <ele>2674.1</ele>
        <time>2026-09-02T12:40:59Z</time>
      </trkpt>
      <trkpt lat="44.71736" lon="7.08579">
        <ele>2673.7</ele>
        <time>2026-09-02T12:41:04Z</time>
      </trkpt>
      <trkpt lat="44.71738" lon="7.08581">
        <ele>2673.4</ele>
        <time>2026-09-02T12:41:09Z</time>
      </trkpt>
      <trkpt lat="44.71742" lon="7.08584">
        <ele>2672.7</ele>
        <time>2026-09-02T12:41:15Z</time>
      </trkpt>
      <trkpt lat="44.71745" lon="7.08586">
        <ele>2672.2</ele>
        <time>2026-09-02T12:41:20Z</time>
      </trkpt>
      <trkpt lat="44.71748" lon="7.08589">
        <ele>2671.7</ele>
        <time>2026-09-02T12:41:25Z</time>
      </trkpt>
      <trkpt lat="44.7175" lon="7.08592">
        <ele>2671.4</ele>
        <time>2026-09-02T12:41:31Z</time>
      </trkpt>
      <trkpt lat="44.71749" lon="7.08595">
        <ele>2671.8</ele>
        <time>2026-09-02T12:41:36Z</time>
      </trkpt>
      <trkpt lat="44.7175" lon="7.08599">
        <ele>2671.8</ele>
        <time>2026-09-02T12:41:41Z</time>
      </trkpt>
      <trkpt lat="44.71751" lon="7.08602">
        <ele>2671.6</ele>
        <time>2026-09-02T12:41:47Z</time>
      </trkpt>
      <trkpt lat="44.71753" lon="7.08606">
        <ele>2671.3</ele>
        <time>2026-09-02T12:41:52Z</time>
      </trkpt>
      <trkpt lat="44.71757" lon="7.08609">
        <ele>2670.3</ele>
        <time>2026-09-02T12:41:57Z</time>
      </trkpt>
      <trkpt lat="44.71761" lon="7.08613">
        <ele>2669.4</ele>
        <time>2026-09-02T12:42:03Z</time>
      </trkpt>
      <trkpt lat="44.71761" lon="7.08613">
        <ele>2669.4</ele>
        <time>2026-09-02T12:42:08Z</time>
      </trkpt>
      <trkpt lat="44.71761" lon="7.08613">
        <ele>2669.4</ele>
        <time>2026-09-02T12:42:13Z</time>
      </trkpt>
      <trkpt lat="44.71761" lon="7.08613">
        <ele>2669.4</ele>
        <time>2026-09-02T12:42:19Z</time>
      </trkpt>
      <trkpt lat="44.71767" lon="7.086">
        <ele>2667.1</ele>
        <time>2026-09-02T12:42:24Z</time>
      </trkpt>
      <trkpt lat="44.71772" lon="7.086">
        <ele>2665.8</ele>
        <time>2026-09-02T12:42:29Z</time>
      </trkpt>
      <trkpt lat="44.71772" lon="7.08597">
        <ele>2665.6</ele>
        <time>2026-09-02T12:42:35Z</time>
      </trkpt>
      <trkpt lat="44.71775" lon="7.08596">
        <ele>2664.8</ele>
        <time>2026-09-02T12:42:40Z</time>
      </trkpt>
      <trkpt lat="44.71775" lon="7.08596">
        <ele>2664.8</ele>
        <time>2026-09-02T12:42:45Z</time>
      </trkpt>
      <trkpt lat="44.71778" lon="7.08587">
        <ele>2663.5</ele>
        <time>2026-09-02T12:42:51Z</time>
      </trkpt>
      <trkpt lat="44.7178" lon="7.08581">
        <ele>2662.8</ele>
        <time>2026-09-02T12:42:56Z</time>
      </trkpt>
      <trkpt lat="44.71782" lon="7.08578">
        <ele>2662.3</ele>
        <time>2026-09-02T12:43:01Z</time>
      </trkpt>
      <trkpt lat="44.71785" lon="7.08573">
        <ele>2661.6</ele>
        <time>2026-09-02T12:43:07Z</time>
      </trkpt>
      <trkpt lat="44.71789" lon="7.0857">
        <ele>2660.6</ele>
        <time>2026-09-02T12:43:12Z</time>
      </trkpt>
      <trkpt lat="44.71794" lon="7.08568">
        <ele>2659.4</ele>
        <time>2026-09-02T12:43:17Z</time>
      </trkpt>
      <trkpt lat="44.71802" lon="7.08568">
        <ele>2657.3</ele>
        <time>2026-09-02T12:43:23Z</time>
      </trkpt>
      <trkpt lat="44.71808" lon="7.0857">
        <ele>2655.7</ele>
        <time>2026-09-02T12:43:28Z</time>
      </trkpt>
      <trkpt lat="44.71814" lon="7.0857">
        <ele>2654.1</ele>
        <time>2026-09-02T12:43:33Z</time>
      </trkpt>
      <trkpt lat="44.7182" lon="7.08571">
        <ele>2652.5</ele>
        <time>2026-09-02T12:43:39Z</time>
      </trkpt>
      <trkpt lat="44.71828" lon="7.08572">
        <ele>2650.3</ele>
        <time>2026-09-02T12:43:44Z</time>
      </trkpt>
      <trkpt lat="44.71833" lon="7.08577">
        <ele>2648.6</ele>
        <time>2026-09-02T12:43:49Z</time>
      </trkpt>
      <trkpt lat="44.71833" lon="7.08577">
        <ele>2648.6</ele>
        <time>2026-09-02T12:43:55Z</time>
      </trkpt>
      <trkpt lat="44.71833" lon="7.08579">
        <ele>2648.5</ele>
        <time>2026-09-02T12:44:00Z</time>
      </trkpt>
      <trkpt lat="44.71833" lon="7.08582">
        <ele>2648.2</ele>
        <time>2026-09-02T12:44:05Z</time>
      </trkpt>
      <trkpt lat="44.71834" lon="7.08589">
        <ele>2648.1</ele>
        <time>2026-09-02T12:44:11Z</time>
      </trkpt>
      <trkpt lat="44.71834" lon="7.08596">
        <ele>2648.5</ele>
        <time>2026-09-02T12:44:16Z</time>
      </trkpt>
      <trkpt lat="44.71833" lon="7.08604">
        <ele>2649.3</ele>
        <time>2026-09-02T12:44:21Z</time>
      </trkpt>
      <trkpt lat="44.71834" lon="7.08613">
        <ele>2649.6</ele>
        <time>2026-09-02T12:44:27Z</time>
      </trkpt>
      <trkpt lat="44.71835" lon="7.08621">
        <ele>2649.7</ele>
        <time>2026-09-02T12:44:32Z</time>
      </trkpt>
      <trkpt lat="44.71835" lon="7.08627">
        <ele>2650.1</ele>
        <time>2026-09-02T12:44:37Z</time>
      </trkpt>
      <trkpt lat="44.71838" lon="7.0863">
        <ele>2649.3</ele>
        <time>2026-09-02T12:44:43Z</time>
      </trkpt>
      <trkpt lat="44.71842" lon="7.08632">
        <ele>2648.2</ele>
        <time>2026-09-02T12:44:48Z</time>
      </trkpt>
      <trkpt lat="44.71847" lon="7.08635">
        <ele>2646.9</ele>
        <time>2026-09-02T12:44:53Z</time>
      </trkpt>
      <trkpt lat="44.71851" lon="7.08639">
        <ele>2645.9</ele>
        <time>2026-09-02T12:44:59Z</time>
      </trkpt>
      <trkpt lat="44.71857" lon="7.08638">
        <ele>2644</ele>
        <time>2026-09-02T12:45:04Z</time>
      </trkpt>
      <trkpt lat="44.71866" lon="7.0864">
        <ele>2641.4</ele>
        <time>2026-09-02T12:45:09Z</time>
      </trkpt>
      <trkpt lat="44.71873" lon="7.08642">
        <ele>2639.4</ele>
        <time>2026-09-02T12:45:15Z</time>
      </trkpt>
      <trkpt lat="44.71879" lon="7.08643">
        <ele>2637.6</ele>
        <time>2026-09-02T12:45:20Z</time>
      </trkpt>
      <trkpt lat="44.71885" lon="7.0864">
        <ele>2635.5</ele>
        <time>2026-09-02T12:45:25Z</time>
      </trkpt>
      <trkpt lat="44.71891" lon="7.08636">
        <ele>2633.3</ele>
        <time>2026-09-02T12:45:31Z</time>
      </trkpt>
      <trkpt lat="44.71898" lon="7.08635">
        <ele>2631</ele>
        <time>2026-09-02T12:45:36Z</time>
      </trkpt>
      <trkpt lat="44.71904" lon="7.08635">
        <ele>2629.1</ele>
        <time>2026-09-02T12:45:41Z</time>
      </trkpt>
      <trkpt lat="44.71912" lon="7.08634">
        <ele>2626.5</ele>
        <time>2026-09-02T12:45:47Z</time>
      </trkpt>
      <trkpt lat="44.71918" lon="7.08634">
        <ele>2624.8</ele>
        <time>2026-09-02T12:45:52Z</time>
      </trkpt>
      <trkpt lat="44.71923" lon="7.08633">
        <ele>2623.4</ele>
        <time>2026-09-02T12:45:57Z</time>
      </trkpt>
      <trkpt lat="44.7193" lon="7.08632">
        <ele>2621.6</ele>
        <time>2026-09-02T12:46:03Z</time>
      </trkpt>
      <trkpt lat="44.71935" lon="7.08628">
        <ele>2619.9</ele>
        <time>2026-09-02T12:46:08Z</time>
      </trkpt>
      <trkpt lat="44.7194" lon="7.08625">
        <ele>2618.4</ele>
        <time>2026-09-02T12:46:13Z</time>
      </trkpt>
      <trkpt lat="44.71947" lon="7.08624">
        <ele>2616.6</ele>
        <time>2026-09-02T12:46:19Z</time>
      </trkpt>
      <trkpt lat="44.7195" lon="7.08622">
        <ele>2615.7</ele>
        <time>2026-09-02T12:46:24Z</time>
      </trkpt>
      <trkpt lat="44.71953" lon="7.08619">
        <ele>2614.6</ele>
        <time>2026-09-02T12:46:29Z</time>
      </trkpt>
      <trkpt lat="44.71956" lon="7.08616">
        <ele>2613.6</ele>
        <time>2026-09-02T12:46:35Z</time>
      </trkpt>
      <trkpt lat="44.71958" lon="7.08613">
        <ele>2612.8</ele>
        <time>2026-09-02T12:46:40Z</time>
      </trkpt>
      <trkpt lat="44.71962" lon="7.0861">
        <ele>2611.5</ele>
        <time>2026-09-02T12:46:45Z</time>
      </trkpt>
      <trkpt lat="44.71964" lon="7.08604">
        <ele>2610.4</ele>
        <time>2026-09-02T12:46:51Z</time>
      </trkpt>
      <trkpt lat="44.71966" lon="7.08597">
        <ele>2609.2</ele>
        <time>2026-09-02T12:46:56Z</time>
      </trkpt>
      <trkpt lat="44.71964" lon="7.08589">
        <ele>2608.8</ele>
        <time>2026-09-02T12:47:01Z</time>
      </trkpt>
      <trkpt lat="44.71965" lon="7.08578">
        <ele>2607</ele>
        <time>2026-09-02T12:47:07Z</time>
      </trkpt>
      <trkpt lat="44.71963" lon="7.08568">
        <ele>2605.6</ele>
        <time>2026-09-02T12:47:12Z</time>
      </trkpt>
      <trkpt lat="44.71964" lon="7.08559">
        <ele>2603.7</ele>
        <time>2026-09-02T12:47:17Z</time>
      </trkpt>
      <trkpt lat="44.71967" lon="7.08549">
        <ele>2601</ele>
        <time>2026-09-02T12:47:23Z</time>
      </trkpt>
      <trkpt lat="44.71967" lon="7.08543">
        <ele>2599.9</ele>
        <time>2026-09-02T12:47:28Z</time>
      </trkpt>
      <trkpt lat="44.71967" lon="7.08541">
        <ele>2599.5</ele>
        <time>2026-09-02T12:47:33Z</time>
      </trkpt>
      <trkpt lat="44.71968" lon="7.0854">
        <ele>2599</ele>
        <time>2026-09-02T12:47:39Z</time>
      </trkpt>
      <trkpt lat="44.71968" lon="7.0854">
        <ele>2599</ele>
        <time>2026-09-02T12:47:44Z</time>
      </trkpt>
      <trkpt lat="44.71964" lon="7.08542">
        <ele>2600.5</ele>
        <time>2026-09-02T12:47:49Z</time>
      </trkpt>
      <trkpt lat="44.71961" lon="7.08537">
        <ele>2600.4</ele>
        <time>2026-09-02T12:47:55Z</time>
      </trkpt>
      <trkpt lat="44.71959" lon="7.08534">
        <ele>2600.4</ele>
        <time>2026-09-02T12:48:00Z</time>
      </trkpt>
      <trkpt lat="44.71957" lon="7.0853">
        <ele>2600.3</ele>
        <time>2026-09-02T12:48:05Z</time>
      </trkpt>
      <trkpt lat="44.71957" lon="7.08524">
        <ele>2599.2</ele>
        <time>2026-09-02T12:48:11Z</time>
      </trkpt>
      <trkpt lat="44.71954" lon="7.0852">
        <ele>2599.4</ele>
        <time>2026-09-02T12:48:16Z</time>
      </trkpt>
      <trkpt lat="44.71955" lon="7.08515">
        <ele>2598.2</ele>
        <time>2026-09-02T12:48:21Z</time>
      </trkpt>
      <trkpt lat="44.71954" lon="7.0851">
        <ele>2597.7</ele>
        <time>2026-09-02T12:48:27Z</time>
      </trkpt>
      <trkpt lat="44.71953" lon="7.08505">
        <ele>2597.1</ele>
        <time>2026-09-02T12:48:32Z</time>
      </trkpt>
      <trkpt lat="44.71956" lon="7.08505">
        <ele>2596.1</ele>
        <time>2026-09-02T12:48:37Z</time>
      </trkpt>
      <trkpt lat="44.71962" lon="7.08505">
        <ele>2594.2</ele>
        <time>2026-09-02T12:48:43Z</time>
      </trkpt>
      <trkpt lat="44.71965" lon="7.08507">
        <ele>2593.7</ele>
        <time>2026-09-02T12:48:48Z</time>
      </trkpt>
      <trkpt lat="44.71967" lon="7.08507">
        <ele>2593</ele>
        <time>2026-09-02T12:48:53Z</time>
      </trkpt>
      <trkpt lat="44.7197" lon="7.08507">
        <ele>2592.1</ele>
        <time>2026-09-02T12:48:59Z</time>
      </trkpt>
      <trkpt lat="44.71972" lon="7.08505">
        <ele>2591.1</ele>
        <time>2026-09-02T12:49:04Z</time>
      </trkpt>
      <trkpt lat="44.71975" lon="7.08504">
        <ele>2589.9</ele>
        <time>2026-09-02T12:49:09Z</time>
      </trkpt>
      <trkpt lat="44.7198" lon="7.08503">
        <ele>2588.1</ele>
        <time>2026-09-02T12:49:15Z</time>
      </trkpt>
      <trkpt lat="44.71984" lon="7.085">
        <ele>2586.2</ele>
        <time>2026-09-02T12:49:20Z</time>
      </trkpt>
      <trkpt lat="44.71988" lon="7.08497">
        <ele>2584.2</ele>
        <time>2026-09-02T12:49:25Z</time>
      </trkpt>
      <trkpt lat="44.71992" lon="7.08492">
        <ele>2581.8</ele>
        <time>2026-09-02T12:49:31Z</time>
      </trkpt>
      <trkpt lat="44.71995" lon="7.08487">
        <ele>2579.7</ele>
        <time>2026-09-02T12:49:36Z</time>
      </trkpt>
      <trkpt lat="44.71999" lon="7.08482">
        <ele>2577.2</ele>
        <time>2026-09-02T12:49:41Z</time>
      </trkpt>
      <trkpt lat="44.72" lon="7.08475">
        <ele>2575.3</ele>
        <time>2026-09-02T12:49:47Z</time>
      </trkpt>
      <trkpt lat="44.72" lon="7.0847">
        <ele>2574.2</ele>
        <time>2026-09-02T12:49:52Z</time>
      </trkpt>
      <trkpt lat="44.72" lon="7.08467">
        <ele>2573.5</ele>
        <time>2026-09-02T12:49:57Z</time>
      </trkpt>
      <trkpt lat="44.72002" lon="7.08462">
        <ele>2572</ele>
        <time>2026-09-02T12:50:03Z</time>
      </trkpt>
      <trkpt lat="44.72002" lon="7.08462">
        <ele>2572</ele>
        <time>2026-09-02T12:50:08Z</time>
      </trkpt>
      <trkpt lat="44.72002" lon="7.08455">
        <ele>2570.5</ele>
        <time>2026-09-02T12:50:13Z</time>
      </trkpt>
      <trkpt lat="44.72003" lon="7.08447">
        <ele>2568.6</ele>
        <time>2026-09-02T12:50:19Z</time>
      </trkpt>
      <trkpt lat="44.72002" lon="7.08444">
        <ele>2568</ele>
        <time>2026-09-02T12:50:24Z</time>
      </trkpt>
      <trkpt lat="44.72001" lon="7.08438">
        <ele>2566.8</ele>
        <time>2026-09-02T12:50:29Z</time>
      </trkpt>
      <trkpt lat="44.72002" lon="7.08437">
        <ele>2566.4</ele>
        <time>2026-09-02T12:50:35Z</time>
      </trkpt>
      <trkpt lat="44.72003" lon="7.08437">
        <ele>2566.3</ele>
        <time>2026-09-02T12:50:40Z</time>
      </trkpt>
      <trkpt lat="44.72003" lon="7.08437">
        <ele>2566.3</ele>
        <time>2026-09-02T12:50:45Z</time>
      </trkpt>
      <trkpt lat="44.72003" lon="7.08437">
        <ele>2566.3</ele>
        <time>2026-09-02T12:50:51Z</time>
      </trkpt>
      <trkpt lat="44.72008" lon="7.08429">
        <ele>2564.1</ele>
        <time>2026-09-02T12:50:56Z</time>
      </trkpt>
      <trkpt lat="44.72012" lon="7.08422">
        <ele>2562.3</ele>
        <time>2026-09-02T12:51:01Z</time>
      </trkpt>
      <trkpt lat="44.72016" lon="7.08414">
        <ele>2560.8</ele>
        <time>2026-09-02T12:51:07Z</time>
      </trkpt>
      <trkpt lat="44.7202" lon="7.08406">
        <ele>2560.4</ele>
        <time>2026-09-02T12:51:12Z</time>
      </trkpt>
      <trkpt lat="44.72024" lon="7.08397">
        <ele>2559.9</ele>
        <time>2026-09-02T12:51:17Z</time>
      </trkpt>
      <trkpt lat="44.72029" lon="7.08386">
        <ele>2559.4</ele>
        <time>2026-09-02T12:51:23Z</time>
      </trkpt>
      <trkpt lat="44.72034" lon="7.08378">
        <ele>2559</ele>
        <time>2026-09-02T12:51:28Z</time>
      </trkpt>
      <trkpt lat="44.72036" lon="7.08369">
        <ele>2558.8</ele>
        <time>2026-09-02T12:51:33Z</time>
      </trkpt>
      <trkpt lat="44.72036" lon="7.08359">
        <ele>2558.6</ele>
        <time>2026-09-02T12:51:39Z</time>
      </trkpt>
      <trkpt lat="44.72036" lon="7.0835">
        <ele>2558.5</ele>
        <time>2026-09-02T12:51:44Z</time>
      </trkpt>
      <trkpt lat="44.72036" lon="7.08341">
        <ele>2558.4</ele>
        <time>2026-09-02T12:51:49Z</time>
      </trkpt>
      <trkpt lat="44.72036" lon="7.08329">
        <ele>2558.4</ele>
        <time>2026-09-02T12:51:55Z</time>
      </trkpt>
      <trkpt lat="44.72033" lon="7.08319">
        <ele>2558.9</ele>
        <time>2026-09-02T12:52:00Z</time>
      </trkpt>
      <trkpt lat="44.72034" lon="7.0831">
        <ele>2559.1</ele>
        <time>2026-09-02T12:52:05Z</time>
      </trkpt>
      <trkpt lat="44.72036" lon="7.08305">
        <ele>2559.1</ele>
        <time>2026-09-02T12:52:11Z</time>
      </trkpt>
      <trkpt lat="44.72037" lon="7.08304">
        <ele>2559</ele>
        <time>2026-09-02T12:52:16Z</time>
      </trkpt>
      <trkpt lat="44.7204" lon="7.08302">
        <ele>2558.9</ele>
        <time>2026-09-02T12:52:21Z</time>
      </trkpt>
      <trkpt lat="44.72042" lon="7.08298">
        <ele>2558.8</ele>
        <time>2026-09-02T12:52:27Z</time>
      </trkpt>
      <trkpt lat="44.72044" lon="7.08298">
        <ele>2558.7</ele>
        <time>2026-09-02T12:52:32Z</time>
      </trkpt>
      <trkpt lat="44.72043" lon="7.08296">
        <ele>2558.8</ele>
        <time>2026-09-02T12:52:37Z</time>
      </trkpt>
      <trkpt lat="44.72043" lon="7.08296">
        <ele>2558.8</ele>
        <time>2026-09-02T12:52:43Z</time>
      </trkpt>
      <trkpt lat="44.72043" lon="7.08288">
        <ele>2559</ele>
        <time>2026-09-02T12:52:48Z</time>
      </trkpt>
      <trkpt lat="44.72043" lon="7.08283">
        <ele>2559.1</ele>
        <time>2026-09-02T12:52:53Z</time>
      </trkpt>
      <trkpt lat="44.72045" lon="7.08275">
        <ele>2559.1</ele>
        <time>2026-09-02T12:52:59Z</time>
      </trkpt>
      <trkpt lat="44.72047" lon="7.08269">
        <ele>2559</ele>
        <time>2026-09-02T12:53:04Z</time>
      </trkpt>
      <trkpt lat="44.72047" lon="7.08261">
        <ele>2559.1</ele>
        <time>2026-09-02T12:53:09Z</time>
      </trkpt>
      <trkpt lat="44.72045" lon="7.08256">
        <ele>2559.5</ele>
        <time>2026-09-02T12:53:15Z</time>
      </trkpt>
      <trkpt lat="44.72049" lon="7.0825">
        <ele>2559.1</ele>
        <time>2026-09-02T12:53:20Z</time>
      </trkpt>
      <trkpt lat="44.72051" lon="7.08241">
        <ele>2560</ele>
        <time>2026-09-02T12:53:25Z</time>
      </trkpt>
      <trkpt lat="44.72054" lon="7.08238">
        <ele>2560</ele>
        <time>2026-09-02T12:53:31Z</time>
      </trkpt>
      <trkpt lat="44.72057" lon="7.08235">
        <ele>2560</ele>
        <time>2026-09-02T12:53:36Z</time>
      </trkpt>
      <trkpt lat="44.72061" lon="7.08233">
        <ele>2559.7</ele>
        <time>2026-09-02T12:53:41Z</time>
      </trkpt>
      <trkpt lat="44.72063" lon="7.08226">
        <ele>2560.3</ele>
        <time>2026-09-02T12:53:47Z</time>
      </trkpt>
      <trkpt lat="44.72065" lon="7.08219">
        <ele>2560.9</ele>
        <time>2026-09-02T12:53:52Z</time>
      </trkpt>
      <trkpt lat="44.72066" lon="7.0821">
        <ele>2561.8</ele>
        <time>2026-09-02T12:53:57Z</time>
      </trkpt>
      <trkpt lat="44.7207" lon="7.08203">
        <ele>2562</ele>
        <time>2026-09-02T12:54:03Z</time>
      </trkpt>
      <trkpt lat="44.72072" lon="7.08198">
        <ele>2562.3</ele>
        <time>2026-09-02T12:54:08Z</time>
      </trkpt>
      <trkpt lat="44.72076" lon="7.08193">
        <ele>2562.3</ele>
        <time>2026-09-02T12:54:13Z</time>
      </trkpt>
      <trkpt lat="44.72078" lon="7.08187">
        <ele>2562.6</ele>
        <time>2026-09-02T12:54:19Z</time>
      </trkpt>
      <trkpt lat="44.72082" lon="7.08184">
        <ele>2562.3</ele>
        <time>2026-09-02T12:54:24Z</time>
      </trkpt>
      <trkpt lat="44.72084" lon="7.08176">
        <ele>2562.8</ele>
        <time>2026-09-02T12:54:29Z</time>
      </trkpt>
      <trkpt lat="44.72081" lon="7.08166">
        <ele>2564.6</ele>
        <time>2026-09-02T12:54:35Z</time>
      </trkpt>
      <trkpt lat="44.72078" lon="7.08163">
        <ele>2565.9</ele>
        <time>2026-09-02T12:54:40Z</time>
      </trkpt>
      <trkpt lat="44.72074" lon="7.08159">
        <ele>2567.7</ele>
        <time>2026-09-02T12:54:45Z</time>
      </trkpt>
      <trkpt lat="44.72075" lon="7.0816">
        <ele>2567.2</ele>
        <time>2026-09-02T12:54:51Z</time>
      </trkpt>
      <trkpt lat="44.72075" lon="7.0816">
        <ele>2567.2</ele>
        <time>2026-09-02T12:54:56Z</time>
      </trkpt>
      <trkpt lat="44.72075" lon="7.0816">
        <ele>2567.2</ele>
        <time>2026-09-02T12:55:01Z</time>
      </trkpt>
      <trkpt lat="44.72088" lon="7.08158">
        <ele>2564.9</ele>
        <time>2026-09-02T12:55:07Z</time>
      </trkpt>
      <trkpt lat="44.72088" lon="7.08154">
        <ele>2566</ele>
        <time>2026-09-02T12:55:12Z</time>
      </trkpt>
      <trkpt lat="44.72089" lon="7.0815">
        <ele>2566.8</ele>
        <time>2026-09-02T12:55:17Z</time>
      </trkpt>
      <trkpt lat="44.72097" lon="7.08152">
        <ele>2563.7</ele>
        <time>2026-09-02T12:55:23Z</time>
      </trkpt>
      <trkpt lat="44.72097" lon="7.08152">
        <ele>2563.7</ele>
        <time>2026-09-02T12:55:28Z</time>
      </trkpt>
      <trkpt lat="44.72098" lon="7.08147">
        <ele>2564.7</ele>
        <time>2026-09-02T12:55:33Z</time>
      </trkpt>
      <trkpt lat="44.72104" lon="7.08145">
        <ele>2563.3</ele>
        <time>2026-09-02T12:55:39Z</time>
      </trkpt>
      <trkpt lat="44.7211" lon="7.08143">
        <ele>2561.8</ele>
        <time>2026-09-02T12:55:44Z</time>
      </trkpt>
      <trkpt lat="44.72111" lon="7.08137">
        <ele>2562.9</ele>
        <time>2026-09-02T12:55:49Z</time>
      </trkpt>
      <trkpt lat="44.72113" lon="7.08128">
        <ele>2564.5</ele>
        <time>2026-09-02T12:55:55Z</time>
      </trkpt>
      <trkpt lat="44.72115" lon="7.08124">
        <ele>2564.7</ele>
        <time>2026-09-02T12:56:00Z</time>
      </trkpt>
      <trkpt lat="44.72117" lon="7.08117">
        <ele>2565.7</ele>
        <time>2026-09-02T12:56:05Z</time>
      </trkpt>
      <trkpt lat="44.7212" lon="7.08111">
        <ele>2566</ele>
        <time>2026-09-02T12:56:11Z</time>
      </trkpt>
      <trkpt lat="44.72118" lon="7.081">
        <ele>2569.3</ele>
        <time>2026-09-02T12:56:16Z</time>
      </trkpt>
      <trkpt lat="44.72119" lon="7.08095">
        <ele>2570.1</ele>
        <time>2026-09-02T12:56:21Z</time>
      </trkpt>
      <trkpt lat="44.72122" lon="7.08086">
        <ele>2571.1</ele>
        <time>2026-09-02T12:56:27Z</time>
      </trkpt>
      <trkpt lat="44.72124" lon="7.08081">
        <ele>2571.6</ele>
        <time>2026-09-02T12:56:32Z</time>
      </trkpt>
      <trkpt lat="44.72126" lon="7.08074">
        <ele>2572.9</ele>
        <time>2026-09-02T12:56:37Z</time>
      </trkpt>
      <trkpt lat="44.72133" lon="7.08071">
        <ele>2570.9</ele>
        <time>2026-09-02T12:56:43Z</time>
      </trkpt>
      <trkpt lat="44.72136" lon="7.08066">
        <ele>2571.1</ele>
        <time>2026-09-02T12:56:48Z</time>
      </trkpt>
      <trkpt lat="44.72138" lon="7.08057">
        <ele>2572.8</ele>
        <time>2026-09-02T12:56:53Z</time>
      </trkpt>
      <trkpt lat="44.72141" lon="7.08049">
        <ele>2573.7</ele>
        <time>2026-09-02T12:56:59Z</time>
      </trkpt>
      <trkpt lat="44.72144" lon="7.08045">
        <ele>2573.4</ele>
        <time>2026-09-02T12:57:04Z</time>
      </trkpt>
      <trkpt lat="44.72149" lon="7.08044">
        <ele>2571.4</ele>
        <time>2026-09-02T12:57:09Z</time>
      </trkpt>
      <trkpt lat="44.72152" lon="7.08042">
        <ele>2570.6</ele>
        <time>2026-09-02T12:57:15Z</time>
      </trkpt>
      <trkpt lat="44.72153" lon="7.08038">
        <ele>2571.2</ele>
        <time>2026-09-02T12:57:20Z</time>
      </trkpt>
      <trkpt lat="44.72157" lon="7.08032">
        <ele>2570.9</ele>
        <time>2026-09-02T12:57:25Z</time>
      </trkpt>
      <trkpt lat="44.72163" lon="7.0803">
        <ele>2568.5</ele>
        <time>2026-09-02T12:57:31Z</time>
      </trkpt>
      <trkpt lat="44.72165" lon="7.08027">
        <ele>2568.3</ele>
        <time>2026-09-02T12:57:36Z</time>
      </trkpt>
      <trkpt lat="44.72171" lon="7.08026">
        <ele>2565.8</ele>
        <time>2026-09-02T12:57:41Z</time>
      </trkpt>
      <trkpt lat="44.72174" lon="7.08019">
        <ele>2566.2</ele>
        <time>2026-09-02T12:57:47Z</time>
      </trkpt>
      <trkpt lat="44.72179" lon="7.08015">
        <ele>2565.1</ele>
        <time>2026-09-02T12:57:52Z</time>
      </trkpt>
      <trkpt lat="44.72185" lon="7.08011">
        <ele>2563.5</ele>
        <time>2026-09-02T12:57:57Z</time>
      </trkpt>
      <trkpt lat="44.72188" lon="7.08006">
        <ele>2563.5</ele>
        <time>2026-09-02T12:58:03Z</time>
      </trkpt>
      <trkpt lat="44.72191" lon="7.08001">
        <ele>2563.5</ele>
        <time>2026-09-02T12:58:08Z</time>
      </trkpt>
      <trkpt lat="44.72195" lon="7.07998">
        <ele>2563.4</ele>
        <time>2026-09-02T12:58:13Z</time>
      </trkpt>
      <trkpt lat="44.722" lon="7.07993">
        <ele>2564.3</ele>
        <time>2026-09-02T12:58:19Z</time>
      </trkpt>
      <trkpt lat="44.72202" lon="7.07988">
        <ele>2566.5</ele>
        <time>2026-09-02T12:58:24Z</time>
      </trkpt>
      <trkpt lat="44.72202" lon="7.07988">
        <ele>2566.5</ele>
        <time>2026-09-02T12:58:29Z</time>
      </trkpt>
      <trkpt lat="44.72202" lon="7.07988">
        <ele>2566.5</ele>
        <time>2026-09-02T12:58:35Z</time>
      </trkpt>
      <trkpt lat="44.72202" lon="7.07988">
        <ele>2566.5</ele>
        <time>2026-09-02T12:58:40Z</time>
      </trkpt>
      <trkpt lat="44.7221" lon="7.0798">
        <ele>2567.6</ele>
        <time>2026-09-02T12:58:45Z</time>
      </trkpt>
      <trkpt lat="44.72213" lon="7.07972">
        <ele>2570.8</ele>
        <time>2026-09-02T12:58:51Z</time>
      </trkpt>
      <trkpt lat="44.72216" lon="7.07966">
        <ele>2572.8</ele>
        <time>2026-09-02T12:58:56Z</time>
      </trkpt>
      <trkpt lat="44.72218" lon="7.07963">
        <ele>2573.4</ele>
        <time>2026-09-02T12:59:01Z</time>
      </trkpt>
      <trkpt lat="44.72219" lon="7.07957">
        <ele>2576.3</ele>
        <time>2026-09-02T12:59:07Z</time>
      </trkpt>
      <trkpt lat="44.72223" lon="7.07955">
        <ele>2575.3</ele>
        <time>2026-09-02T12:59:12Z</time>
      </trkpt>
      <trkpt lat="44.72224" lon="7.0795">
        <ele>2577.5</ele>
        <time>2026-09-02T12:59:17Z</time>
      </trkpt>
      <trkpt lat="44.72232" lon="7.07954">
        <ele>2570.9</ele>
        <time>2026-09-02T12:59:23Z</time>
      </trkpt>
      <trkpt lat="44.72237" lon="7.07951">
        <ele>2569.7</ele>
        <time>2026-09-02T12:59:28Z</time>
      </trkpt>
      <trkpt lat="44.72238" lon="7.07945">
        <ele>2572.2</ele>
        <time>2026-09-02T12:59:33Z</time>
      </trkpt>
      <trkpt lat="44.72245" lon="7.07947">
        <ele>2567.3</ele>
        <time>2026-09-02T12:59:39Z</time>
      </trkpt>
      <trkpt lat="44.72252" lon="7.07948">
        <ele>2563.1</ele>
        <time>2026-09-02T12:59:44Z</time>
      </trkpt>
      <trkpt lat="44.72253" lon="7.07942">
        <ele>2565.5</ele>
        <time>2026-09-02T12:59:49Z</time>
      </trkpt>
      <trkpt lat="44.72255" lon="7.07937">
        <ele>2567</ele>
        <time>2026-09-02T12:59:55Z</time>
      </trkpt>
      <trkpt lat="44.7226" lon="7.07933">
        <ele>2566.7</ele>
        <time>2026-09-02T13:00:00Z</time>
      </trkpt>
      <trkpt lat="44.72269" lon="7.07938">
        <ele>2560.4</ele>
        <time>2026-09-02T13:00:05Z</time>
      </trkpt>
      <trkpt lat="44.72273" lon="7.07939">
        <ele>2558.2</ele>
        <time>2026-09-02T13:00:11Z</time>
      </trkpt>
      <trkpt lat="44.72274" lon="7.07941">
        <ele>2556.8</ele>
        <time>2026-09-02T13:00:16Z</time>
      </trkpt>
      <trkpt lat="44.72275" lon="7.07943">
        <ele>2555.5</ele>
        <time>2026-09-02T13:00:21Z</time>
      </trkpt>
      <trkpt lat="44.72275" lon="7.07943">
        <ele>2555.5</ele>
        <time>2026-09-02T13:00:27Z</time>
      </trkpt>
      <trkpt lat="44.72275" lon="7.07943">
        <ele>2555.5</ele>
        <time>2026-09-02T13:00:32Z</time>
      </trkpt>
      <trkpt lat="44.72278" lon="7.07942">
        <ele>2554.7</ele>
        <time>2026-09-02T13:00:37Z</time>
      </trkpt>
      <trkpt lat="44.72284" lon="7.07945">
        <ele>2550.7</ele>
        <time>2026-09-02T13:00:43Z</time>
      </trkpt>
      <trkpt lat="44.72289" lon="7.07939">
        <ele>2551.2</ele>
        <time>2026-09-02T13:00:48Z</time>
      </trkpt>
      <trkpt lat="44.72292" lon="7.07932">
        <ele>2552.8</ele>
        <time>2026-09-02T13:00:53Z</time>
      </trkpt>
      <trkpt lat="44.72297" lon="7.07931">
        <ele>2551</ele>
        <time>2026-09-02T13:00:59Z</time>
      </trkpt>
      <trkpt lat="44.72295" lon="7.07918">
        <ele>2557.4</ele>
        <time>2026-09-02T13:01:04Z</time>
      </trkpt>
      <trkpt lat="44.723" lon="7.0792">
        <ele>2554.2</ele>
        <time>2026-09-02T13:01:09Z</time>
      </trkpt>
      <trkpt lat="44.72305" lon="7.07919">
        <ele>2552.3</ele>
        <time>2026-09-02T13:01:15Z</time>
      </trkpt>
      <trkpt lat="44.72309" lon="7.07916">
        <ele>2552</ele>
        <time>2026-09-02T13:01:20Z</time>
      </trkpt>
      <trkpt lat="44.72318" lon="7.07915">
        <ele>2548.8</ele>
        <time>2026-09-02T13:01:25Z</time>
      </trkpt>
      <trkpt lat="44.72329" lon="7.07915">
        <ele>2543.6</ele>
        <time>2026-09-02T13:01:31Z</time>
      </trkpt>
      <trkpt lat="44.72332" lon="7.07918">
        <ele>2540.1</ele>
        <time>2026-09-02T13:01:36Z</time>
      </trkpt>
      <trkpt lat="44.72333" lon="7.07913">
        <ele>2543.5</ele>
        <time>2026-09-02T13:01:41Z</time>
      </trkpt>
      <trkpt lat="44.72338" lon="7.0791">
        <ele>2544.7</ele>
        <time>2026-09-02T13:01:47Z</time>
      </trkpt>
      <trkpt lat="44.72342" lon="7.0791">
        <ele>2543.5</ele>
        <time>2026-09-02T13:01:52Z</time>
      </trkpt>
      <trkpt lat="44.72346" lon="7.07908">
        <ele>2544</ele>
        <time>2026-09-02T13:01:57Z</time>
      </trkpt>
      <trkpt lat="44.72353" lon="7.07906">
        <ele>2543.4</ele>
        <time>2026-09-02T13:02:03Z</time>
      </trkpt>
      <trkpt lat="44.72357" lon="7.07907">
        <ele>2541.3</ele>
        <time>2026-09-02T13:02:08Z</time>
      </trkpt>
      <trkpt lat="44.72361" lon="7.07906">
        <ele>2540.8</ele>
        <time>2026-09-02T13:02:13Z</time>
      </trkpt>
      <trkpt lat="44.72369" lon="7.07905">
        <ele>2538.9</ele>
        <time>2026-09-02T13:02:19Z</time>
      </trkpt>
      <trkpt lat="44.72371" lon="7.07903">
        <ele>2539.7</ele>
        <time>2026-09-02T13:02:24Z</time>
      </trkpt>
      <trkpt lat="44.72374" lon="7.07901">
        <ele>2540.1</ele>
        <time>2026-09-02T13:02:29Z</time>
      </trkpt>
      <trkpt lat="44.72379" lon="7.079">
        <ele>2539.1</ele>
        <time>2026-09-02T13:02:35Z</time>
      </trkpt>
      <trkpt lat="44.72382" lon="7.07901">
        <ele>2537.3</ele>
        <time>2026-09-02T13:02:40Z</time>
      </trkpt>
      <trkpt lat="44.72385" lon="7.07897">
        <ele>2538.9</ele>
        <time>2026-09-02T13:02:45Z</time>
      </trkpt>
      <trkpt lat="44.7239" lon="7.07896">
        <ele>2537.7</ele>
        <time>2026-09-02T13:02:51Z</time>
      </trkpt>
      <trkpt lat="44.72393" lon="7.07896">
        <ele>2536.6</ele>
        <time>2026-09-02T13:02:56Z</time>
      </trkpt>
      <trkpt lat="44.72392" lon="7.07891">
        <ele>2540.2</ele>
        <time>2026-09-02T13:03:01Z</time>
      </trkpt>
      <trkpt lat="44.7239" lon="7.07879">
        <ele>2548.7</ele>
        <time>2026-09-02T13:03:07Z</time>
      </trkpt>
      <trkpt lat="44.72397" lon="7.07877">
        <ele>2546.7</ele>
        <time>2026-09-02T13:03:12Z</time>
      </trkpt>
      <trkpt lat="44.72403" lon="7.07874">
        <ele>2545.6</ele>
        <time>2026-09-02T13:03:17Z</time>
      </trkpt>
      <trkpt lat="44.72411" lon="7.07873">
        <ele>2542.3</ele>
        <time>2026-09-02T13:03:23Z</time>
      </trkpt>
      <trkpt lat="44.72416" lon="7.07866">
        <ele>2543.5</ele>
        <time>2026-09-02T13:03:28Z</time>
      </trkpt>
      <trkpt lat="44.72419" lon="7.07861">
        <ele>2545.2</ele>
        <time>2026-09-02T13:03:33Z</time>
      </trkpt>
      <trkpt lat="44.72427" lon="7.0786">
        <ele>2543.7</ele>
        <time>2026-09-02T13:03:39Z</time>
      </trkpt>
      <trkpt lat="44.72431" lon="7.07858">
        <ele>2543.8</ele>
        <time>2026-09-02T13:03:44Z</time>
      </trkpt>
      <trkpt lat="44.72436" lon="7.07857">
        <ele>2543</ele>
        <time>2026-09-02T13:03:49Z</time>
      </trkpt>
      <trkpt lat="44.7244" lon="7.07853">
        <ele>2544</ele>
        <time>2026-09-02T13:03:55Z</time>
      </trkpt>
      <trkpt lat="44.72444" lon="7.07849">
        <ele>2544.9</ele>
        <time>2026-09-02T13:04:00Z</time>
      </trkpt>
      <trkpt lat="44.72446" lon="7.07846">
        <ele>2545.8</ele>
        <time>2026-09-02T13:04:05Z</time>
      </trkpt>
      <trkpt lat="44.72448" lon="7.07844">
        <ele>2546.3</ele>
        <time>2026-09-02T13:04:11Z</time>
      </trkpt>
      <trkpt lat="44.72448" lon="7.07844">
        <ele>2546.3</ele>
        <time>2026-09-02T13:04:16Z</time>
      </trkpt>
      <trkpt lat="44.72448" lon="7.07844">
        <ele>2546.3</ele>
        <time>2026-09-02T13:04:21Z</time>
      </trkpt>
      <trkpt lat="44.72449" lon="7.07842">
        <ele>2547</ele>
        <time>2026-09-02T13:04:27Z</time>
      </trkpt>
      <trkpt lat="44.72453" lon="7.07837">
        <ele>2548.3</ele>
        <time>2026-09-02T13:04:32Z</time>
      </trkpt>
      <trkpt lat="44.72458" lon="7.07832">
        <ele>2549.2</ele>
        <time>2026-09-02T13:04:37Z</time>
      </trkpt>
      <trkpt lat="44.72464" lon="7.07827">
        <ele>2550</ele>
        <time>2026-09-02T13:04:43Z</time>
      </trkpt>
      <trkpt lat="44.72469" lon="7.07822">
        <ele>2551</ele>
        <time>2026-09-02T13:04:48Z</time>
      </trkpt>
      <trkpt lat="44.72473" lon="7.07818">
        <ele>2551.7</ele>
        <time>2026-09-02T13:04:53Z</time>
      </trkpt>
      <trkpt lat="44.72476" lon="7.07814">
        <ele>2552.8</ele>
        <time>2026-09-02T13:04:59Z</time>
      </trkpt>
      <trkpt lat="44.7248" lon="7.07812">
        <ele>2552.6</ele>
        <time>2026-09-02T13:05:04Z</time>
      </trkpt>
      <trkpt lat="44.72484" lon="7.07808">
        <ele>2553.4</ele>
        <time>2026-09-02T13:05:09Z</time>
      </trkpt>
      <trkpt lat="44.72489" lon="7.07802">
        <ele>2554.8</ele>
        <time>2026-09-02T13:05:15Z</time>
      </trkpt>
      <trkpt lat="44.72494" lon="7.07796">
        <ele>2556.2</ele>
        <time>2026-09-02T13:05:20Z</time>
      </trkpt>
      <trkpt lat="44.72499" lon="7.07792">
        <ele>2556.6</ele>
        <time>2026-09-02T13:05:25Z</time>
      </trkpt>
      <trkpt lat="44.72504" lon="7.07793">
        <ele>2553.6</ele>
        <time>2026-09-02T13:05:31Z</time>
      </trkpt>
      <trkpt lat="44.72504" lon="7.07793">
        <ele>2553.6</ele>
        <time>2026-09-02T13:05:36Z</time>
      </trkpt>
      <trkpt lat="44.72504" lon="7.07793">
        <ele>2553.6</ele>
        <time>2026-09-02T13:05:41Z</time>
      </trkpt>
      <trkpt lat="44.72504" lon="7.07793">
        <ele>2553.6</ele>
        <time>2026-09-02T13:05:47Z</time>
      </trkpt>
      <trkpt lat="44.72504" lon="7.07779">
        <ele>2560.1</ele>
        <time>2026-09-02T13:05:52Z</time>
      </trkpt>
      <trkpt lat="44.72505" lon="7.07773">
        <ele>2562.3</ele>
        <time>2026-09-02T13:05:57Z</time>
      </trkpt>
      <trkpt lat="44.72508" lon="7.07764">
        <ele>2564.7</ele>
        <time>2026-09-02T13:06:03Z</time>
      </trkpt>
      <trkpt lat="44.7251" lon="7.07757">
        <ele>2566.8</ele>
        <time>2026-09-02T13:06:08Z</time>
      </trkpt>
      <trkpt lat="44.7251" lon="7.07757">
        <ele>2566.8</ele>
        <time>2026-09-02T13:06:13Z</time>
      </trkpt>
      <trkpt lat="44.7251" lon="7.07757">
        <ele>2566.8</ele>
        <time>2026-09-02T13:06:19Z</time>
      </trkpt>
      <trkpt lat="44.7251" lon="7.07757">
        <ele>2566.8</ele>
        <time>2026-09-02T13:06:24Z</time>
      </trkpt>
      <trkpt lat="44.7251" lon="7.07757">
        <ele>2566.8</ele>
        <time>2026-09-02T13:06:29Z</time>
      </trkpt>
      <trkpt lat="44.7251" lon="7.07757">
        <ele>2566.8</ele>
        <time>2026-09-02T13:06:35Z</time>
      </trkpt>
      <trkpt lat="44.7251" lon="7.07757">
        <ele>2566.8</ele>
        <time>2026-09-02T13:06:40Z</time>
      </trkpt>
      <trkpt lat="44.7251" lon="7.07757">
        <ele>2566.8</ele>
        <time>2026-09-02T13:06:45Z</time>
      </trkpt>
      <trkpt lat="44.7251" lon="7.07757">
        <ele>2566.8</ele>
        <time>2026-09-02T13:06:51Z</time>
      </trkpt>
      <trkpt lat="44.7251" lon="7.07757">
        <ele>2566.8</ele>
        <time>2026-09-02T13:06:56Z</time>
      </trkpt>
      <trkpt lat="44.7251" lon="7.07757">
        <ele>2566.8</ele>
        <time>2026-09-02T13:07:01Z</time>
      </trkpt>
      <trkpt lat="44.7251" lon="7.07757">
        <ele>2566.8</ele>
        <time>2026-09-02T13:07:07Z</time>
      </trkpt>
      <trkpt lat="44.7251" lon="7.07757">
        <ele>2566.8</ele>
        <time>2026-09-02T13:07:12Z</time>
      </trkpt>
      <trkpt lat="44.7251" lon="7.07757">
        <ele>2566.8</ele>
        <time>2026-09-02T13:07:17Z</time>
      </trkpt>
      <trkpt lat="44.7251" lon="7.07757">
        <ele>2566.8</ele>
        <time>2026-09-02T13:07:23Z</time>
      </trkpt>
      <trkpt lat="44.7251" lon="7.07757">
        <ele>2566.8</ele>
        <time>2026-09-02T13:07:28Z</time>
      </trkpt>
      <trkpt lat="44.7251" lon="7.07757">
        <ele>2566.8</ele>
        <time>2026-09-02T13:07:33Z</time>
      </trkpt>
      <trkpt lat="44.7251" lon="7.07757">
        <ele>2566.8</ele>
        <time>2026-09-02T13:07:39Z</time>
      </trkpt>
      <trkpt lat="44.7251" lon="7.07757">
        <ele>2566.8</ele>
        <time>2026-09-02T13:07:44Z</time>
      </trkpt>
      <trkpt lat="44.7251" lon="7.07757">
        <ele>2566.8</ele>
        <time>2026-09-02T13:07:49Z</time>
      </trkpt>
      <trkpt lat="44.7251" lon="7.07757">
        <ele>2566.8</ele>
        <time>2026-09-02T13:07:55Z</time>
      </trkpt>
      <trkpt lat="44.7251" lon="7.07757">
        <ele>2566.8</ele>
        <time>2026-09-02T13:08:00Z</time>
      </trkpt>
      <trkpt lat="44.7251" lon="7.07757">
        <ele>2566.8</ele>
        <time>2026-09-02T13:08:05Z</time>
      </trkpt>
      <trkpt lat="44.7251" lon="7.07757">
        <ele>2566.8</ele>
        <time>2026-09-02T13:08:11Z</time>
      </trkpt>
      <trkpt lat="44.7251" lon="7.07757">
        <ele>2566.8</ele>
        <time>2026-09-02T13:08:16Z</time>
      </trkpt>
      <trkpt lat="44.7251" lon="7.07757">
        <ele>2566.8</ele>
        <time>2026-09-02T13:08:21Z</time>
      </trkpt>
      <trkpt lat="44.7251" lon="7.07757">
        <ele>2566.8</ele>
        <time>2026-09-02T13:08:27Z</time>
      </trkpt>
      <trkpt lat="44.7251" lon="7.07757">
        <ele>2566.8</ele>
        <time>2026-09-02T13:08:32Z</time>
      </trkpt>
      <trkpt lat="44.7251" lon="7.07757">
        <ele>2566.8</ele>
        <time>2026-09-02T13:08:37Z</time>
      </trkpt>
      <trkpt lat="44.7251" lon="7.07757">
        <ele>2566.8</ele>
        <time>2026-09-02T13:08:43Z</time>
      </trkpt>
      <trkpt lat="44.7251" lon="7.07757">
        <ele>2566.8</ele>
        <time>2026-09-02T13:08:48Z</time>
      </trkpt>
      <trkpt lat="44.7251" lon="7.07757">
        <ele>2566.8</ele>
        <time>2026-09-02T13:08:53Z</time>
      </trkpt>
      <trkpt lat="44.7251" lon="7.07757">
        <ele>2566.8</ele>
        <time>2026-09-02T13:08:59Z</time>
      </trkpt>
      <trkpt lat="44.7251" lon="7.07757">
        <ele>2566.8</ele>
        <time>2026-09-02T13:09:04Z</time>
      </trkpt>
      <trkpt lat="44.7251" lon="7.07757">
        <ele>2566.8</ele>
        <time>2026-09-02T13:09:09Z</time>
      </trkpt>
      <trkpt lat="44.7251" lon="7.07757">
        <ele>2566.8</ele>
        <time>2026-09-02T13:09:15Z</time>
      </trkpt>
      <trkpt lat="44.7251" lon="7.07757">
        <ele>2566.8</ele>
        <time>2026-09-02T13:09:20Z</time>
      </trkpt>
      <trkpt lat="44.7251" lon="7.07757">
        <ele>2566.8</ele>
        <time>2026-09-02T13:09:25Z</time>
      </trkpt>
      <trkpt lat="44.7251" lon="7.07757">
        <ele>2566.8</ele>
        <time>2026-09-02T13:09:31Z</time>
      </trkpt>
      <trkpt lat="44.7251" lon="7.07757">
        <ele>2566.8</ele>
        <time>2026-09-02T13:09:36Z</time>
      </trkpt>
      <trkpt lat="44.7251" lon="7.07757">
        <ele>2566.8</ele>
        <time>2026-09-02T13:09:41Z</time>
      </trkpt>
      <trkpt lat="44.7251" lon="7.07757">
        <ele>2566.8</ele>
        <time>2026-09-02T13:09:47Z</time>
      </trkpt>
      <trkpt lat="44.7251" lon="7.07757">
        <ele>2566.8</ele>
        <time>2026-09-02T13:09:52Z</time>
      </trkpt>
      <trkpt lat="44.7251" lon="7.07757">
        <ele>2566.8</ele>
        <time>2026-09-02T13:09:57Z</time>
      </trkpt>
      <trkpt lat="44.7251" lon="7.07757">
        <ele>2566.8</ele>
        <time>2026-09-02T13:10:03Z</time>
      </trkpt>
      <trkpt lat="44.7251" lon="7.07757">
        <ele>2566.8</ele>
        <time>2026-09-02T13:10:08Z</time>
      </trkpt>
      <trkpt lat="44.7251" lon="7.07757">
        <ele>2566.8</ele>
        <time>2026-09-02T13:10:13Z</time>
      </trkpt>
      <trkpt lat="44.7251" lon="7.07757">
        <ele>2566.8</ele>
        <time>2026-09-02T13:10:19Z</time>
      </trkpt>
      <trkpt lat="44.7251" lon="7.07757">
        <ele>2566.8</ele>
        <time>2026-09-02T13:10:24Z</time>
      </trkpt>
      <trkpt lat="44.7251" lon="7.07757">
        <ele>2566.8</ele>
        <time>2026-09-02T13:10:29Z</time>
      </trkpt>
      <trkpt lat="44.72512" lon="7.07758">
        <ele>2565.1</ele>
        <time>2026-09-02T13:10:35Z</time>
      </trkpt>
      <trkpt lat="44.72512" lon="7.07757">
        <ele>2565.6</ele>
        <time>2026-09-02T13:10:40Z</time>
      </trkpt>
      <trkpt lat="44.72512" lon="7.07757">
        <ele>2565.6</ele>
        <time>2026-09-02T13:10:45Z</time>
      </trkpt>
      <trkpt lat="44.72512" lon="7.07757">
        <ele>2565.6</ele>
        <time>2026-09-02T13:10:51Z</time>
      </trkpt>
      <trkpt lat="44.72512" lon="7.07757">
        <ele>2565.6</ele>
        <time>2026-09-02T13:10:56Z</time>
      </trkpt>
      <trkpt lat="44.72516" lon="7.07749">
        <ele>2566.8</ele>
        <time>2026-09-02T13:11:01Z</time>
      </trkpt>
      <trkpt lat="44.72516" lon="7.0774">
        <ele>2570.2</ele>
        <time>2026-09-02T13:11:07Z</time>
      </trkpt>
      <trkpt lat="44.72519" lon="7.07734">
        <ele>2570.8</ele>
        <time>2026-09-02T13:11:12Z</time>
      </trkpt>
      <trkpt lat="44.72526" lon="7.07736">
        <ele>2566</ele>
        <time>2026-09-02T13:11:17Z</time>
      </trkpt>
      <trkpt lat="44.72534" lon="7.07738">
        <ele>2560.6</ele>
        <time>2026-09-02T13:11:23Z</time>
      </trkpt>
      <trkpt lat="44.72536" lon="7.07732">
        <ele>2562</ele>
        <time>2026-09-02T13:11:28Z</time>
      </trkpt>
      <trkpt lat="44.72536" lon="7.07726">
        <ele>2564.5</ele>
        <time>2026-09-02T13:11:33Z</time>
      </trkpt>
      <trkpt lat="44.72532" lon="7.07717">
        <ele>2570.4</ele>
        <time>2026-09-02T13:11:39Z</time>
      </trkpt>
      <trkpt lat="44.72531" lon="7.07714">
        <ele>2572.2</ele>
        <time>2026-09-02T13:11:44Z</time>
      </trkpt>
      <trkpt lat="44.7253" lon="7.07711">
        <ele>2573.9</ele>
        <time>2026-09-02T13:11:49Z</time>
      </trkpt>
      <trkpt lat="44.72529" lon="7.07708">
        <ele>2575.7</ele>
        <time>2026-09-02T13:11:55Z</time>
      </trkpt>
      <trkpt lat="44.72531" lon="7.07706">
        <ele>2575.5</ele>
        <time>2026-09-02T13:12:00Z</time>
      </trkpt>
      <trkpt lat="44.72533" lon="7.07704">
        <ele>2575.3</ele>
        <time>2026-09-02T13:12:05Z</time>
      </trkpt>
      <trkpt lat="44.72536" lon="7.07701">
        <ele>2575</ele>
        <time>2026-09-02T13:12:11Z</time>
      </trkpt>
      <trkpt lat="44.72542" lon="7.077">
        <ele>2572.4</ele>
        <time>2026-09-02T13:12:16Z</time>
      </trkpt>
      <trkpt lat="44.72547" lon="7.07697">
        <ele>2571.3</ele>
        <time>2026-09-02T13:12:21Z</time>
      </trkpt>
      <trkpt lat="44.72552" lon="7.07694">
        <ele>2570.2</ele>
        <time>2026-09-02T13:12:27Z</time>
      </trkpt>
      <trkpt lat="44.72559" lon="7.07696">
        <ele>2565.8</ele>
        <time>2026-09-02T13:12:32Z</time>
      </trkpt>
      <trkpt lat="44.72564" lon="7.07693">
        <ele>2564.8</ele>
        <time>2026-09-02T13:12:37Z</time>
      </trkpt>
      <trkpt lat="44.72564" lon="7.07685">
        <ele>2568.6</ele>
        <time>2026-09-02T13:12:43Z</time>
      </trkpt>
      <trkpt lat="44.72565" lon="7.0768">
        <ele>2570.5</ele>
        <time>2026-09-02T13:12:48Z</time>
      </trkpt>
      <trkpt lat="44.72564" lon="7.07676">
        <ele>2572.9</ele>
        <time>2026-09-02T13:12:53Z</time>
      </trkpt>
      <trkpt lat="44.72576" lon="7.07685">
        <ele>2563</ele>
        <time>2026-09-02T13:12:59Z</time>
      </trkpt>
      <trkpt lat="44.72582" lon="7.07685">
        <ele>2560.2</ele>
        <time>2026-09-02T13:13:04Z</time>
      </trkpt>
      <trkpt lat="44.72583" lon="7.07677">
        <ele>2563.8</ele>
        <time>2026-09-02T13:13:09Z</time>
      </trkpt>
      <trkpt lat="44.72583" lon="7.07669">
        <ele>2567.9</ele>
        <time>2026-09-02T13:13:15Z</time>
      </trkpt>
      <trkpt lat="44.72583" lon="7.07664">
        <ele>2569.9</ele>
        <time>2026-09-02T13:13:20Z</time>
      </trkpt>
      <trkpt lat="44.72586" lon="7.07659">
        <ele>2569.1</ele>
        <time>2026-09-02T13:13:25Z</time>
      </trkpt>
      <trkpt lat="44.72593" lon="7.07657">
        <ele>2563.9</ele>
        <time>2026-09-02T13:13:31Z</time>
      </trkpt>
      <trkpt lat="44.72604" lon="7.0766">
        <ele>2553.6</ele>
        <time>2026-09-02T13:13:36Z</time>
      </trkpt>
      <trkpt lat="44.72611" lon="7.07657">
        <ele>2549</ele>
        <time>2026-09-02T13:13:41Z</time>
      </trkpt>
      <trkpt lat="44.72618" lon="7.07653">
        <ele>2544.9</ele>
        <time>2026-09-02T13:13:47Z</time>
      </trkpt>
      <trkpt lat="44.72619" lon="7.07652">
        <ele>2544.5</ele>
        <time>2026-09-02T13:13:52Z</time>
      </trkpt>
      <trkpt lat="44.72619" lon="7.0765">
        <ele>2545.3</ele>
        <time>2026-09-02T13:13:57Z</time>
      </trkpt>
      <trkpt lat="44.72623" lon="7.07648">
        <ele>2543</ele>
        <time>2026-09-02T13:14:03Z</time>
      </trkpt>
      <trkpt lat="44.72622" lon="7.07645">
        <ele>2545.1</ele>
        <time>2026-09-02T13:14:08Z</time>
      </trkpt>
      <trkpt lat="44.7262" lon="7.07638">
        <ele>2549.7</ele>
        <time>2026-09-02T13:14:13Z</time>
      </trkpt>
      <trkpt lat="44.7262" lon="7.07632">
        <ele>2552.3</ele>
        <time>2026-09-02T13:14:19Z</time>
      </trkpt>
      <trkpt lat="44.72628" lon="7.07639">
        <ele>2543.2</ele>
        <time>2026-09-02T13:14:24Z</time>
      </trkpt>
      <trkpt lat="44.72631" lon="7.07639">
        <ele>2540.9</ele>
        <time>2026-09-02T13:14:29Z</time>
      </trkpt>
      <trkpt lat="44.72636" lon="7.0764">
        <ele>2536.6</ele>
        <time>2026-09-02T13:14:35Z</time>
      </trkpt>
      <trkpt lat="44.72639" lon="7.07638">
        <ele>2535.2</ele>
        <time>2026-09-02T13:14:40Z</time>
      </trkpt>
      <trkpt lat="44.72643" lon="7.07635">
        <ele>2533.7</ele>
        <time>2026-09-02T13:14:45Z</time>
      </trkpt>
      <trkpt lat="44.72642" lon="7.0763">
        <ele>2537.1</ele>
        <time>2026-09-02T13:14:51Z</time>
      </trkpt>
      <trkpt lat="44.72647" lon="7.0763">
        <ele>2533.4</ele>
        <time>2026-09-02T13:14:56Z</time>
      </trkpt>
      <trkpt lat="44.72651" lon="7.07628">
        <ele>2531.6</ele>
        <time>2026-09-02T13:15:01Z</time>
      </trkpt>
      <trkpt lat="44.72657" lon="7.07625">
        <ele>2528.9</ele>
        <time>2026-09-02T13:15:07Z</time>
      </trkpt>
      <trkpt lat="44.72665" lon="7.07628">
        <ele>2521.4</ele>
        <time>2026-09-02T13:15:12Z</time>
      </trkpt>
      <trkpt lat="44.7267" lon="7.07629">
        <ele>2517.9</ele>
        <time>2026-09-02T13:15:17Z</time>
      </trkpt>
      <trkpt lat="44.72675" lon="7.07624">
        <ele>2518.3</ele>
        <time>2026-09-02T13:15:23Z</time>
      </trkpt>
      <trkpt lat="44.72676" lon="7.07623">
        <ele>2518.4</ele>
        <time>2026-09-02T13:15:28Z</time>
      </trkpt>
      <trkpt lat="44.72677" lon="7.07619">
        <ele>2520.2</ele>
        <time>2026-09-02T13:15:33Z</time>
      </trkpt>
      <trkpt lat="44.7268" lon="7.07619">
        <ele>2518.6</ele>
        <time>2026-09-02T13:15:39Z</time>
      </trkpt>
      <trkpt lat="44.72681" lon="7.07616">
        <ele>2519.8</ele>
        <time>2026-09-02T13:15:44Z</time>
      </trkpt>
      <trkpt lat="44.72683" lon="7.07613">
        <ele>2520.4</ele>
        <time>2026-09-02T13:15:49Z</time>
      </trkpt>
      <trkpt lat="44.72687" lon="7.07614">
        <ele>2517.7</ele>
        <time>2026-09-02T13:15:55Z</time>
      </trkpt>
      <trkpt lat="44.72689" lon="7.07613">
        <ele>2517.2</ele>
        <time>2026-09-02T13:16:00Z</time>
      </trkpt>
      <trkpt lat="44.72687" lon="7.07617">
        <ele>2516.1</ele>
        <time>2026-09-02T13:16:05Z</time>
      </trkpt>
      <trkpt lat="44.72691" lon="7.07622">
        <ele>2511.2</ele>
        <time>2026-09-02T13:16:11Z</time>
      </trkpt>
      <trkpt lat="44.72695" lon="7.07623">
        <ele>2508.6</ele>
        <time>2026-09-02T13:16:16Z</time>
      </trkpt>
      <trkpt lat="44.72697" lon="7.07619">
        <ele>2509.7</ele>
        <time>2026-09-02T13:16:21Z</time>
      </trkpt>
      <trkpt lat="44.727" lon="7.07616">
        <ele>2509.8</ele>
        <time>2026-09-02T13:16:27Z</time>
      </trkpt>
      <trkpt lat="44.72704" lon="7.07614">
        <ele>2508.7</ele>
        <time>2026-09-02T13:16:32Z</time>
      </trkpt>
      <trkpt lat="44.72707" lon="7.07612">
        <ele>2508.1</ele>
        <time>2026-09-02T13:16:37Z</time>
      </trkpt>
      <trkpt lat="44.72712" lon="7.07609">
        <ele>2506.9</ele>
        <time>2026-09-02T13:16:43Z</time>
      </trkpt>
      <trkpt lat="44.72716" lon="7.07605">
        <ele>2506.7</ele>
        <time>2026-09-02T13:16:48Z</time>
      </trkpt>
      <trkpt lat="44.72719" lon="7.076">
        <ele>2507.5</ele>
        <time>2026-09-02T13:16:53Z</time>
      </trkpt>
      <trkpt lat="44.72722" lon="7.07598">
        <ele>2506.8</ele>
        <time>2026-09-02T13:16:59Z</time>
      </trkpt>
      <trkpt lat="44.72726" lon="7.07597">
        <ele>2505</ele>
        <time>2026-09-02T13:17:04Z</time>
      </trkpt>
      <trkpt lat="44.72727" lon="7.07592">
        <ele>2506.7</ele>
        <time>2026-09-02T13:17:09Z</time>
      </trkpt>
      <trkpt lat="44.72729" lon="7.07585">
        <ele>2508.8</ele>
        <time>2026-09-02T13:17:15Z</time>
      </trkpt>
      <trkpt lat="44.72732" lon="7.07584">
        <ele>2507.5</ele>
        <time>2026-09-02T13:17:20Z</time>
      </trkpt>
      <trkpt lat="44.72732" lon="7.07584">
        <ele>2507.5</ele>
        <time>2026-09-02T13:17:25Z</time>
      </trkpt>
      <trkpt lat="44.72732" lon="7.07584">
        <ele>2507.5</ele>
        <time>2026-09-02T13:17:31Z</time>
      </trkpt>
      <trkpt lat="44.72733" lon="7.07582">
        <ele>2507.5</ele>
        <time>2026-09-02T13:17:36Z</time>
      </trkpt>
      <trkpt lat="44.72737" lon="7.0758">
        <ele>2505.6</ele>
        <time>2026-09-02T13:17:41Z</time>
      </trkpt>
      <trkpt lat="44.72741" lon="7.07578">
        <ele>2503.7</ele>
        <time>2026-09-02T13:17:47Z</time>
      </trkpt>
      <trkpt lat="44.72745" lon="7.07576">
        <ele>2501.9</ele>
        <time>2026-09-02T13:17:52Z</time>
      </trkpt>
      <trkpt lat="44.72746" lon="7.07573">
        <ele>2502.1</ele>
        <time>2026-09-02T13:17:57Z</time>
      </trkpt>
      <trkpt lat="44.72751" lon="7.07571">
        <ele>2499.8</ele>
        <time>2026-09-02T13:18:03Z</time>
      </trkpt>
      <trkpt lat="44.72754" lon="7.07569">
        <ele>2498.9</ele>
        <time>2026-09-02T13:18:08Z</time>
      </trkpt>
      <trkpt lat="44.72756" lon="7.07564">
        <ele>2499.2</ele>
        <time>2026-09-02T13:18:13Z</time>
      </trkpt>
      <trkpt lat="44.7276" lon="7.07561">
        <ele>2498</ele>
        <time>2026-09-02T13:18:19Z</time>
      </trkpt>
      <trkpt lat="44.72764" lon="7.0756">
        <ele>2496.3</ele>
        <time>2026-09-02T13:18:24Z</time>
      </trkpt>
      <trkpt lat="44.72768" lon="7.07558">
        <ele>2494.9</ele>
        <time>2026-09-02T13:18:29Z</time>
      </trkpt>
      <trkpt lat="44.72774" lon="7.07551">
        <ele>2493.6</ele>
        <time>2026-09-02T13:18:35Z</time>
      </trkpt>
      <trkpt lat="44.72778" lon="7.07545">
        <ele>2493.1</ele>
        <time>2026-09-02T13:18:40Z</time>
      </trkpt>
      <trkpt lat="44.72784" lon="7.07541">
        <ele>2491</ele>
        <time>2026-09-02T13:18:45Z</time>
      </trkpt>
      <trkpt lat="44.72791" lon="7.07535">
        <ele>2488.9</ele>
        <time>2026-09-02T13:18:51Z</time>
      </trkpt>
      <trkpt lat="44.72795" lon="7.07528">
        <ele>2488.4</ele>
        <time>2026-09-02T13:18:56Z</time>
      </trkpt>
      <trkpt lat="44.72797" lon="7.0752">
        <ele>2489.2</ele>
        <time>2026-09-02T13:19:01Z</time>
      </trkpt>
      <trkpt lat="44.72802" lon="7.07515">
        <ele>2487.6</ele>
        <time>2026-09-02T13:19:07Z</time>
      </trkpt>
      <trkpt lat="44.72802" lon="7.07515">
        <ele>2487.6</ele>
        <time>2026-09-02T13:19:12Z</time>
      </trkpt>
      <trkpt lat="44.72802" lon="7.07515">
        <ele>2487.6</ele>
        <time>2026-09-02T13:19:17Z</time>
      </trkpt>
      <trkpt lat="44.72806" lon="7.07512">
        <ele>2486.2</ele>
        <time>2026-09-02T13:19:23Z</time>
      </trkpt>
      <trkpt lat="44.72808" lon="7.07512">
        <ele>2485.1</ele>
        <time>2026-09-02T13:19:28Z</time>
      </trkpt>
      <trkpt lat="44.72808" lon="7.07512">
        <ele>2485.1</ele>
        <time>2026-09-02T13:19:33Z</time>
      </trkpt>
      <trkpt lat="44.72808" lon="7.07512">
        <ele>2485.1</ele>
        <time>2026-09-02T13:19:39Z</time>
      </trkpt>
      <trkpt lat="44.72811" lon="7.07511">
        <ele>2483.7</ele>
        <time>2026-09-02T13:19:44Z</time>
      </trkpt>
      <trkpt lat="44.72815" lon="7.07509">
        <ele>2482</ele>
        <time>2026-09-02T13:19:49Z</time>
      </trkpt>
      <trkpt lat="44.72821" lon="7.07507">
        <ele>2479.2</ele>
        <time>2026-09-02T13:19:55Z</time>
      </trkpt>
      <trkpt lat="44.72825" lon="7.07507">
        <ele>2477.1</ele>
        <time>2026-09-02T13:20:00Z</time>
      </trkpt>
      <trkpt lat="44.7283" lon="7.07506">
        <ele>2474.6</ele>
        <time>2026-09-02T13:20:05Z</time>
      </trkpt>
      <trkpt lat="44.72835" lon="7.07507">
        <ele>2472</ele>
        <time>2026-09-02T13:20:11Z</time>
      </trkpt>
      <trkpt lat="44.7284" lon="7.07504">
        <ele>2470.6</ele>
        <time>2026-09-02T13:20:16Z</time>
      </trkpt>
      <trkpt lat="44.72845" lon="7.075">
        <ele>2469.2</ele>
        <time>2026-09-02T13:20:21Z</time>
      </trkpt>
      <trkpt lat="44.72849" lon="7.07498">
        <ele>2468.2</ele>
        <time>2026-09-02T13:20:27Z</time>
      </trkpt>
      <trkpt lat="44.72852" lon="7.07496">
        <ele>2467.6</ele>
        <time>2026-09-02T13:20:32Z</time>
      </trkpt>
      <trkpt lat="44.72858" lon="7.07498">
        <ele>2464.5</ele>
        <time>2026-09-02T13:20:37Z</time>
      </trkpt>
      <trkpt lat="44.72863" lon="7.07503">
        <ele>2461.6</ele>
        <time>2026-09-02T13:20:43Z</time>
      </trkpt>
      <trkpt lat="44.72867" lon="7.07504">
        <ele>2459.9</ele>
        <time>2026-09-02T13:20:48Z</time>
      </trkpt>
      <trkpt lat="44.72872" lon="7.07502">
        <ele>2458.1</ele>
        <time>2026-09-02T13:20:53Z</time>
      </trkpt>
      <trkpt lat="44.72879" lon="7.07503">
        <ele>2455.2</ele>
        <time>2026-09-02T13:20:59Z</time>
      </trkpt>
      <trkpt lat="44.7288" lon="7.075">
        <ele>2455</ele>
        <time>2026-09-02T13:21:04Z</time>
      </trkpt>
      <trkpt lat="44.7288" lon="7.075">
        <ele>2455</ele>
        <time>2026-09-02T13:21:09Z</time>
      </trkpt>
      <trkpt lat="44.7288" lon="7.075">
        <ele>2455</ele>
        <time>2026-09-02T13:21:15Z</time>
      </trkpt>
      <trkpt lat="44.7288" lon="7.075">
        <ele>2455</ele>
        <time>2026-09-02T13:21:20Z</time>
      </trkpt>
      <trkpt lat="44.7288" lon="7.075">
        <ele>2455</ele>
        <time>2026-09-02T13:21:25Z</time>
      </trkpt>
      <trkpt lat="44.7288" lon="7.075">
        <ele>2455</ele>
        <time>2026-09-02T13:21:31Z</time>
      </trkpt>
      <trkpt lat="44.7289" lon="7.07495">
        <ele>2451.8</ele>
        <time>2026-09-02T13:21:36Z</time>
      </trkpt>
      <trkpt lat="44.72891" lon="7.07494">
        <ele>2451.6</ele>
        <time>2026-09-02T13:21:41Z</time>
      </trkpt>
      <trkpt lat="44.72892" lon="7.07491">
        <ele>2451.8</ele>
        <time>2026-09-02T13:21:47Z</time>
      </trkpt>
      <trkpt lat="44.72891" lon="7.07486">
        <ele>2453.1</ele>
        <time>2026-09-02T13:21:52Z</time>
      </trkpt>
      <trkpt lat="44.72893" lon="7.07485">
        <ele>2452.4</ele>
        <time>2026-09-02T13:21:57Z</time>
      </trkpt>
      <trkpt lat="44.72896" lon="7.07487">
        <ele>2450.7</ele>
        <time>2026-09-02T13:22:03Z</time>
      </trkpt>
      <trkpt lat="44.729" lon="7.07493">
        <ele>2448</ele>
        <time>2026-09-02T13:22:08Z</time>
      </trkpt>
      <trkpt lat="44.729" lon="7.07496">
        <ele>2447.5</ele>
        <time>2026-09-02T13:22:13Z</time>
      </trkpt>
      <trkpt lat="44.729" lon="7.07496">
        <ele>2447.5</ele>
        <time>2026-09-02T13:22:19Z</time>
      </trkpt>
      <trkpt lat="44.729" lon="7.07496">
        <ele>2447.5</ele>
        <time>2026-09-02T13:22:24Z</time>
      </trkpt>
      <trkpt lat="44.729" lon="7.07496">
        <ele>2447.5</ele>
        <time>2026-09-02T13:22:29Z</time>
      </trkpt>
      <trkpt lat="44.729" lon="7.07496">
        <ele>2447.5</ele>
        <time>2026-09-02T13:22:35Z</time>
      </trkpt>
      <trkpt lat="44.729" lon="7.07496">
        <ele>2447.5</ele>
        <time>2026-09-02T13:22:40Z</time>
      </trkpt>
      <trkpt lat="44.72907" lon="7.07485">
        <ele>2446.1</ele>
        <time>2026-09-02T13:22:45Z</time>
      </trkpt>
      <trkpt lat="44.7291" lon="7.07485">
        <ele>2444.8</ele>
        <time>2026-09-02T13:22:51Z</time>
      </trkpt>
      <trkpt lat="44.72912" lon="7.07482">
        <ele>2444.3</ele>
        <time>2026-09-02T13:22:56Z</time>
      </trkpt>
      <trkpt lat="44.72914" lon="7.07481">
        <ele>2443.5</ele>
        <time>2026-09-02T13:23:01Z</time>
      </trkpt>
      <trkpt lat="44.72917" lon="7.07482">
        <ele>2442.1</ele>
        <time>2026-09-02T13:23:07Z</time>
      </trkpt>
      <trkpt lat="44.7292" lon="7.07482">
        <ele>2441.2</ele>
        <time>2026-09-02T13:23:12Z</time>
      </trkpt>
      <trkpt lat="44.72925" lon="7.07481">
        <ele>2439.8</ele>
        <time>2026-09-02T13:23:17Z</time>
      </trkpt>
      <trkpt lat="44.72928" lon="7.07479">
        <ele>2439.1</ele>
        <time>2026-09-02T13:23:23Z</time>
      </trkpt>
      <trkpt lat="44.72931" lon="7.07478">
        <ele>2438.3</ele>
        <time>2026-09-02T13:23:28Z</time>
      </trkpt>
      <trkpt lat="44.72936" lon="7.07478">
        <ele>2436.8</ele>
        <time>2026-09-02T13:23:33Z</time>
      </trkpt>
      <trkpt lat="44.72943" lon="7.07476">
        <ele>2434.8</ele>
        <time>2026-09-02T13:23:39Z</time>
      </trkpt>
      <trkpt lat="44.72943" lon="7.07472">
        <ele>2435.2</ele>
        <time>2026-09-02T13:23:44Z</time>
      </trkpt>
      <trkpt lat="44.72948" lon="7.07471">
        <ele>2433.8</ele>
        <time>2026-09-02T13:23:49Z</time>
      </trkpt>
      <trkpt lat="44.72954" lon="7.07467">
        <ele>2432.3</ele>
        <time>2026-09-02T13:23:55Z</time>
      </trkpt>
      <trkpt lat="44.72955" lon="7.07466">
        <ele>2432.1</ele>
        <time>2026-09-02T13:24:00Z</time>
      </trkpt>
      <trkpt lat="44.72954" lon="7.07465">
        <ele>2432.5</ele>
        <time>2026-09-02T13:24:05Z</time>
      </trkpt>
      <trkpt lat="44.72954" lon="7.07465">
        <ele>2432.5</ele>
        <time>2026-09-02T13:24:11Z</time>
      </trkpt>
      <trkpt lat="44.72954" lon="7.07465">
        <ele>2432.5</ele>
        <time>2026-09-02T13:24:16Z</time>
      </trkpt>
      <trkpt lat="44.72954" lon="7.07465">
        <ele>2432.5</ele>
        <time>2026-09-02T13:24:21Z</time>
      </trkpt>
      <trkpt lat="44.72954" lon="7.07465">
        <ele>2432.5</ele>
        <time>2026-09-02T13:24:27Z</time>
      </trkpt>
      <trkpt lat="44.72954" lon="7.07465">
        <ele>2432.5</ele>
        <time>2026-09-02T13:24:32Z</time>
      </trkpt>
      <trkpt lat="44.72954" lon="7.07465">
        <ele>2432.5</ele>
        <time>2026-09-02T13:24:37Z</time>
      </trkpt>
      <trkpt lat="44.72949" lon="7.0745">
        <ele>2435.5</ele>
        <time>2026-09-02T13:24:43Z</time>
      </trkpt>
      <trkpt lat="44.72947" lon="7.07447">
        <ele>2436.5</ele>
        <time>2026-09-02T13:24:48Z</time>
      </trkpt>
      <trkpt lat="44.72944" lon="7.07445">
        <ele>2437.6</ele>
        <time>2026-09-02T13:24:53Z</time>
      </trkpt>
      <trkpt lat="44.72942" lon="7.07445">
        <ele>2438.3</ele>
        <time>2026-09-02T13:24:59Z</time>
      </trkpt>
      <trkpt lat="44.72942" lon="7.07445">
        <ele>2438.3</ele>
        <time>2026-09-02T13:25:04Z</time>
      </trkpt>
      <trkpt lat="44.72942" lon="7.07445">
        <ele>2438.3</ele>
        <time>2026-09-02T13:25:09Z</time>
      </trkpt>
      <trkpt lat="44.72942" lon="7.07445">
        <ele>2438.3</ele>
        <time>2026-09-02T13:25:15Z</time>
      </trkpt>
      <trkpt lat="44.72942" lon="7.07445">
        <ele>2438.3</ele>
        <time>2026-09-02T13:25:20Z</time>
      </trkpt>
      <trkpt lat="44.72942" lon="7.07445">
        <ele>2438.3</ele>
        <time>2026-09-02T13:25:25Z</time>
      </trkpt>
      <trkpt lat="44.7294" lon="7.07434">
        <ele>2440.1</ele>
        <time>2026-09-02T13:25:31Z</time>
      </trkpt>
      <trkpt lat="44.7294" lon="7.0743">
        <ele>2440.5</ele>
        <time>2026-09-02T13:25:36Z</time>
      </trkpt>
      <trkpt lat="44.72939" lon="7.07428">
        <ele>2441.1</ele>
        <time>2026-09-02T13:25:41Z</time>
      </trkpt>
      <trkpt lat="44.72939" lon="7.07428">
        <ele>2441.1</ele>
        <time>2026-09-02T13:25:47Z</time>
      </trkpt>
      <trkpt lat="44.72939" lon="7.07428">
        <ele>2441.1</ele>
        <time>2026-09-02T13:25:52Z</time>
      </trkpt>
      <trkpt lat="44.72939" lon="7.07428">
        <ele>2441.1</ele>
        <time>2026-09-02T13:25:57Z</time>
      </trkpt>
      <trkpt lat="44.72939" lon="7.07425">
        <ele>2441.4</ele>
        <time>2026-09-02T13:26:03Z</time>
      </trkpt>
      <trkpt lat="44.7294" lon="7.07421">
        <ele>2441.4</ele>
        <time>2026-09-02T13:26:08Z</time>
      </trkpt>
      <trkpt lat="44.72942" lon="7.07417">
        <ele>2441.2</ele>
        <time>2026-09-02T13:26:13Z</time>
      </trkpt>
      <trkpt lat="44.72942" lon="7.07414">
        <ele>2442.2</ele>
        <time>2026-09-02T13:26:19Z</time>
      </trkpt>
      <trkpt lat="44.72942" lon="7.07412">
        <ele>2443</ele>
        <time>2026-09-02T13:26:24Z</time>
      </trkpt>
      <trkpt lat="44.72941" lon="7.0741">
        <ele>2444.2</ele>
        <time>2026-09-02T13:26:29Z</time>
      </trkpt>
      <trkpt lat="44.72941" lon="7.0741">
        <ele>2444.2</ele>
        <time>2026-09-02T13:26:35Z</time>
      </trkpt>
      <trkpt lat="44.72941" lon="7.0741">
        <ele>2444.2</ele>
        <time>2026-09-02T13:26:40Z</time>
      </trkpt>
      <trkpt lat="44.72941" lon="7.0741">
        <ele>2444.2</ele>
        <time>2026-09-02T13:26:45Z</time>
      </trkpt>
      <trkpt lat="44.72941" lon="7.0741">
        <ele>2444.2</ele>
        <time>2026-09-02T13:26:51Z</time>
      </trkpt>
      <trkpt lat="44.72941" lon="7.0741">
        <ele>2444.2</ele>
        <time>2026-09-02T13:26:56Z</time>
      </trkpt>
      <trkpt lat="44.72941" lon="7.0741">
        <ele>2444.2</ele>
        <time>2026-09-02T13:27:01Z</time>
      </trkpt>
      <trkpt lat="44.72941" lon="7.0741">
        <ele>2444.2</ele>
        <time>2026-09-02T13:27:07Z</time>
      </trkpt>
      <trkpt lat="44.72941" lon="7.0741">
        <ele>2444.2</ele>
        <time>2026-09-02T13:27:12Z</time>
      </trkpt>
      <trkpt lat="44.7294" lon="7.07396">
        <ele>2450</ele>
        <time>2026-09-02T13:27:17Z</time>
      </trkpt>
      <trkpt lat="44.72939" lon="7.07394">
        <ele>2451.2</ele>
        <time>2026-09-02T13:27:23Z</time>
      </trkpt>
      <trkpt lat="44.72939" lon="7.07387">
        <ele>2454</ele>
        <time>2026-09-02T13:27:28Z</time>
      </trkpt>
      <trkpt lat="44.72939" lon="7.07384">
        <ele>2455.2</ele>
        <time>2026-09-02T13:27:33Z</time>
      </trkpt>
      <trkpt lat="44.72939" lon="7.07384">
        <ele>2455.2</ele>
        <time>2026-09-02T13:27:39Z</time>
      </trkpt>
      <trkpt lat="44.72939" lon="7.07384">
        <ele>2455.2</ele>
        <time>2026-09-02T13:27:44Z</time>
      </trkpt>
      <trkpt lat="44.72939" lon="7.07384">
        <ele>2455.2</ele>
        <time>2026-09-02T13:27:49Z</time>
      </trkpt>
      <trkpt lat="44.72939" lon="7.07384">
        <ele>2455.2</ele>
        <time>2026-09-02T13:27:55Z</time>
      </trkpt>
      <trkpt lat="44.72939" lon="7.07384">
        <ele>2455.2</ele>
        <time>2026-09-02T13:28:00Z</time>
      </trkpt>
      <trkpt lat="44.72939" lon="7.07384">
        <ele>2455.2</ele>
        <time>2026-09-02T13:28:05Z</time>
      </trkpt>
      <trkpt lat="44.72939" lon="7.07384">
        <ele>2455.2</ele>
        <time>2026-09-02T13:28:11Z</time>
      </trkpt>
      <trkpt lat="44.72939" lon="7.07384">
        <ele>2455.2</ele>
        <time>2026-09-02T13:28:16Z</time>
      </trkpt>
      <trkpt lat="44.72939" lon="7.07384">
        <ele>2455.2</ele>
        <time>2026-09-02T13:28:21Z</time>
      </trkpt>
      <trkpt lat="44.72939" lon="7.07384">
        <ele>2455.2</ele>
        <time>2026-09-02T13:28:27Z</time>
      </trkpt>
      <trkpt lat="44.72939" lon="7.07384">
        <ele>2455.2</ele>
        <time>2026-09-02T13:28:32Z</time>
      </trkpt>
      <trkpt lat="44.72938" lon="7.07373">
        <ele>2460</ele>
        <time>2026-09-02T13:28:37Z</time>
      </trkpt>
      <trkpt lat="44.72938" lon="7.07369">
        <ele>2461.6</ele>
        <time>2026-09-02T13:28:43Z</time>
      </trkpt>
      <trkpt lat="44.72938" lon="7.07365">
        <ele>2463.2</ele>
        <time>2026-09-02T13:28:48Z</time>
      </trkpt>
      <trkpt lat="44.7294" lon="7.07362">
        <ele>2463.5</ele>
        <time>2026-09-02T13:28:53Z</time>
      </trkpt>
      <trkpt lat="44.72941" lon="7.07358">
        <ele>2464.6</ele>
        <time>2026-09-02T13:28:59Z</time>
      </trkpt>
      <trkpt lat="44.7294" lon="7.07356">
        <ele>2465.8</ele>
        <time>2026-09-02T13:29:04Z</time>
      </trkpt>
      <trkpt lat="44.7294" lon="7.07354">
        <ele>2466.6</ele>
        <time>2026-09-02T13:29:09Z</time>
      </trkpt>
      <trkpt lat="44.7294" lon="7.07353">
        <ele>2467</ele>
        <time>2026-09-02T13:29:15Z</time>
      </trkpt>
      <trkpt lat="44.7294" lon="7.07353">
        <ele>2467</ele>
        <time>2026-09-02T13:29:20Z</time>
      </trkpt>
      <trkpt lat="44.7294" lon="7.07353">
        <ele>2467</ele>
        <time>2026-09-02T13:29:25Z</time>
      </trkpt>
      <trkpt lat="44.7294" lon="7.07353">
        <ele>2467</ele>
        <time>2026-09-02T13:29:31Z</time>
      </trkpt>
      <trkpt lat="44.7294" lon="7.07353">
        <ele>2467</ele>
        <time>2026-09-02T13:29:36Z</time>
      </trkpt>
      <trkpt lat="44.7294" lon="7.07353">
        <ele>2467</ele>
        <time>2026-09-02T13:29:41Z</time>
      </trkpt>
      <trkpt lat="44.7294" lon="7.07353">
        <ele>2467</ele>
        <time>2026-09-02T13:29:47Z</time>
      </trkpt>
      <trkpt lat="44.7294" lon="7.07353">
        <ele>2467</ele>
        <time>2026-09-02T13:29:52Z</time>
      </trkpt>
      <trkpt lat="44.72949" lon="7.07343">
        <ele>2466.8</ele>
        <time>2026-09-02T13:29:57Z</time>
      </trkpt>
      <trkpt lat="44.72949" lon="7.07343">
        <ele>2466.8</ele>
        <time>2026-09-02T13:30:03Z</time>
      </trkpt>
      <trkpt lat="44.72949" lon="7.07341">
        <ele>2467.6</ele>
        <time>2026-09-02T13:30:08Z</time>
      </trkpt>
      <trkpt lat="44.72951" lon="7.07337">
        <ele>2468.1</ele>
        <time>2026-09-02T13:30:13Z</time>
      </trkpt>
      <trkpt lat="44.72952" lon="7.07337">
        <ele>2467.7</ele>
        <time>2026-09-02T13:30:19Z</time>
      </trkpt>
      <trkpt lat="44.72953" lon="7.07336">
        <ele>2467.6</ele>
        <time>2026-09-02T13:30:24Z</time>
      </trkpt>
      <trkpt lat="44.72953" lon="7.07336">
        <ele>2467.6</ele>
        <time>2026-09-02T13:30:29Z</time>
      </trkpt>
      <trkpt lat="44.72953" lon="7.07336">
        <ele>2467.6</ele>
        <time>2026-09-02T13:30:35Z</time>
      </trkpt>
      <trkpt lat="44.72953" lon="7.07336">
        <ele>2467.6</ele>
        <time>2026-09-02T13:30:40Z</time>
      </trkpt>
      <trkpt lat="44.72953" lon="7.07336">
        <ele>2467.6</ele>
        <time>2026-09-02T13:30:45Z</time>
      </trkpt>
      <trkpt lat="44.72953" lon="7.07336">
        <ele>2467.6</ele>
        <time>2026-09-02T13:30:51Z</time>
      </trkpt>
      <trkpt lat="44.72953" lon="7.07336">
        <ele>2467.6</ele>
        <time>2026-09-02T13:30:56Z</time>
      </trkpt>
      <trkpt lat="44.72953" lon="7.07336">
        <ele>2467.6</ele>
        <time>2026-09-02T13:31:01Z</time>
      </trkpt>
      <trkpt lat="44.72953" lon="7.07336">
        <ele>2467.6</ele>
        <time>2026-09-02T13:31:07Z</time>
      </trkpt>
      <trkpt lat="44.72961" lon="7.07326">
        <ele>2465.9</ele>
        <time>2026-09-02T13:31:12Z</time>
      </trkpt>
      <trkpt lat="44.72962" lon="7.07322">
        <ele>2466.1</ele>
        <time>2026-09-02T13:31:17Z</time>
      </trkpt>
      <trkpt lat="44.72966" lon="7.07317">
        <ele>2465.1</ele>
        <time>2026-09-02T13:31:23Z</time>
      </trkpt>
      <trkpt lat="44.72967" lon="7.07313">
        <ele>2465.3</ele>
        <time>2026-09-02T13:31:28Z</time>
      </trkpt>
      <trkpt lat="44.72969" lon="7.0731">
        <ele>2464.9</ele>
        <time>2026-09-02T13:31:33Z</time>
      </trkpt>
      <trkpt lat="44.7297" lon="7.07305">
        <ele>2465.3</ele>
        <time>2026-09-02T13:31:39Z</time>
      </trkpt>
      <trkpt lat="44.72968" lon="7.07306">
        <ele>2466.1</ele>
        <time>2026-09-02T13:31:44Z</time>
      </trkpt>
      <trkpt lat="44.72967" lon="7.07307">
        <ele>2466.3</ele>
        <time>2026-09-02T13:31:49Z</time>
      </trkpt>
      <trkpt lat="44.72967" lon="7.07307">
        <ele>2466.3</ele>
        <time>2026-09-02T13:31:55Z</time>
      </trkpt>
      <trkpt lat="44.72967" lon="7.07307">
        <ele>2466.3</ele>
        <time>2026-09-02T13:32:00Z</time>
      </trkpt>
      <trkpt lat="44.72965" lon="7.07302">
        <ele>2468.1</ele>
        <time>2026-09-02T13:32:05Z</time>
      </trkpt>
      <trkpt lat="44.72966" lon="7.073">
        <ele>2468</ele>
        <time>2026-09-02T13:32:11Z</time>
      </trkpt>
      <trkpt lat="44.72967" lon="7.07296">
        <ele>2468.2</ele>
        <time>2026-09-02T13:32:16Z</time>
      </trkpt>
      <trkpt lat="44.72967" lon="7.07295">
        <ele>2468.4</ele>
        <time>2026-09-02T13:32:21Z</time>
      </trkpt>
      <trkpt lat="44.72967" lon="7.07295">
        <ele>2468.4</ele>
        <time>2026-09-02T13:32:27Z</time>
      </trkpt>
      <trkpt lat="44.72967" lon="7.07295">
        <ele>2468.4</ele>
        <time>2026-09-02T13:32:32Z</time>
      </trkpt>
      <trkpt lat="44.72967" lon="7.07295">
        <ele>2468.4</ele>
        <time>2026-09-02T13:32:37Z</time>
      </trkpt>
      <trkpt lat="44.72967" lon="7.07295">
        <ele>2468.4</ele>
        <time>2026-09-02T13:32:43Z</time>
      </trkpt>
      <trkpt lat="44.72964" lon="7.07284">
        <ele>2471.6</ele>
        <time>2026-09-02T13:32:48Z</time>
      </trkpt>
      <trkpt lat="44.72962" lon="7.07283">
        <ele>2472.6</ele>
        <time>2026-09-02T13:32:53Z</time>
      </trkpt>
      <trkpt lat="44.72959" lon="7.07282">
        <ele>2474</ele>
        <time>2026-09-02T13:32:59Z</time>
      </trkpt>
      <trkpt lat="44.72956" lon="7.0728">
        <ele>2475.6</ele>
        <time>2026-09-02T13:33:04Z</time>
      </trkpt>
      <trkpt lat="44.72955" lon="7.07278">
        <ele>2476.4</ele>
        <time>2026-09-02T13:33:09Z</time>
      </trkpt>
      <trkpt lat="44.72953" lon="7.07273">
        <ele>2478</ele>
        <time>2026-09-02T13:33:15Z</time>
      </trkpt>
      <trkpt lat="44.72954" lon="7.07267">
        <ele>2478.5</ele>
        <time>2026-09-02T13:33:20Z</time>
      </trkpt>
      <trkpt lat="44.72956" lon="7.0726">
        <ele>2478.8</ele>
        <time>2026-09-02T13:33:25Z</time>
      </trkpt>
      <trkpt lat="44.72957" lon="7.07254">
        <ele>2479.4</ele>
        <time>2026-09-02T13:33:31Z</time>
      </trkpt>
      <trkpt lat="44.72959" lon="7.07249">
        <ele>2479.2</ele>
        <time>2026-09-02T13:33:36Z</time>
      </trkpt>
      <trkpt lat="44.7296" lon="7.07243">
        <ele>2478.5</ele>
        <time>2026-09-02T13:33:41Z</time>
      </trkpt>
      <trkpt lat="44.72959" lon="7.07238">
        <ele>2478.6</ele>
        <time>2026-09-02T13:33:47Z</time>
      </trkpt>
      <trkpt lat="44.72958" lon="7.07232">
        <ele>2478.7</ele>
        <time>2026-09-02T13:33:52Z</time>
      </trkpt>
      <trkpt lat="44.72959" lon="7.07228">
        <ele>2478.1</ele>
        <time>2026-09-02T13:33:57Z</time>
      </trkpt>
      <trkpt lat="44.72958" lon="7.07219">
        <ele>2477.9</ele>
        <time>2026-09-02T13:34:03Z</time>
      </trkpt>
      <trkpt lat="44.72958" lon="7.07212">
        <ele>2477.6</ele>
        <time>2026-09-02T13:34:08Z</time>
      </trkpt>
      <trkpt lat="44.72958" lon="7.07208">
        <ele>2477.3</ele>
        <time>2026-09-02T13:34:13Z</time>
      </trkpt>
      <trkpt lat="44.72958" lon="7.072">
        <ele>2476.9</ele>
        <time>2026-09-02T13:34:19Z</time>
      </trkpt>
      <trkpt lat="44.7296" lon="7.07197">
        <ele>2476.1</ele>
        <time>2026-09-02T13:34:24Z</time>
      </trkpt>
      <trkpt lat="44.7296" lon="7.07194">
        <ele>2475.9</ele>
        <time>2026-09-02T13:34:29Z</time>
      </trkpt>
      <trkpt lat="44.7296" lon="7.0719">
        <ele>2475.7</ele>
        <time>2026-09-02T13:34:35Z</time>
      </trkpt>
      <trkpt lat="44.72961" lon="7.07188">
        <ele>2475.3</ele>
        <time>2026-09-02T13:34:40Z</time>
      </trkpt>
      <trkpt lat="44.72961" lon="7.07185">
        <ele>2475.1</ele>
        <time>2026-09-02T13:34:45Z</time>
      </trkpt>
      <trkpt lat="44.72963" lon="7.07182">
        <ele>2474.3</ele>
        <time>2026-09-02T13:34:51Z</time>
      </trkpt>
      <trkpt lat="44.72963" lon="7.07179">
        <ele>2474.2</ele>
        <time>2026-09-02T13:34:56Z</time>
      </trkpt>
      <trkpt lat="44.72963" lon="7.07179">
        <ele>2474.2</ele>
        <time>2026-09-02T13:35:01Z</time>
      </trkpt>
      <trkpt lat="44.72962" lon="7.07175">
        <ele>2474.3</ele>
        <time>2026-09-02T13:35:07Z</time>
      </trkpt>
      <trkpt lat="44.72963" lon="7.07171">
        <ele>2473.8</ele>
        <time>2026-09-02T13:35:12Z</time>
      </trkpt>
      <trkpt lat="44.72962" lon="7.07166">
        <ele>2473.9</ele>
        <time>2026-09-02T13:35:17Z</time>
      </trkpt>
      <trkpt lat="44.72959" lon="7.07165">
        <ele>2474.8</ele>
        <time>2026-09-02T13:35:23Z</time>
      </trkpt>
      <trkpt lat="44.72957" lon="7.07163">
        <ele>2475.4</ele>
        <time>2026-09-02T13:35:28Z</time>
      </trkpt>
      <trkpt lat="44.72955" lon="7.07158">
        <ele>2476</ele>
        <time>2026-09-02T13:35:33Z</time>
      </trkpt>
      <trkpt lat="44.72954" lon="7.07157">
        <ele>2476.2</ele>
        <time>2026-09-02T13:35:39Z</time>
      </trkpt>
      <trkpt lat="44.72953" lon="7.07156">
        <ele>2476.5</ele>
        <time>2026-09-02T13:35:44Z</time>
      </trkpt>
      <trkpt lat="44.72953" lon="7.07156">
        <ele>2476.5</ele>
        <time>2026-09-02T13:35:49Z</time>
      </trkpt>
      <trkpt lat="44.72953" lon="7.07156">
        <ele>2476.5</ele>
        <time>2026-09-02T13:35:55Z</time>
      </trkpt>
      <trkpt lat="44.72953" lon="7.07156">
        <ele>2476.5</ele>
        <time>2026-09-02T13:36:00Z</time>
      </trkpt>
      <trkpt lat="44.72953" lon="7.07156">
        <ele>2476.5</ele>
        <time>2026-09-02T13:36:05Z</time>
      </trkpt>
      <trkpt lat="44.72953" lon="7.07156">
        <ele>2476.5</ele>
        <time>2026-09-02T13:36:11Z</time>
      </trkpt>
      <trkpt lat="44.72953" lon="7.07156">
        <ele>2476.5</ele>
        <time>2026-09-02T13:36:16Z</time>
      </trkpt>
      <trkpt lat="44.72953" lon="7.07156">
        <ele>2476.5</ele>
        <time>2026-09-02T13:36:21Z</time>
      </trkpt>
      <trkpt lat="44.72953" lon="7.07156">
        <ele>2476.5</ele>
        <time>2026-09-02T13:36:27Z</time>
      </trkpt>
      <trkpt lat="44.72953" lon="7.07156">
        <ele>2476.5</ele>
        <time>2026-09-02T13:36:32Z</time>
      </trkpt>
      <trkpt lat="44.72953" lon="7.07156">
        <ele>2476.5</ele>
        <time>2026-09-02T13:36:37Z</time>
      </trkpt>
      <trkpt lat="44.72953" lon="7.07156">
        <ele>2476.5</ele>
        <time>2026-09-02T13:36:43Z</time>
      </trkpt>
      <trkpt lat="44.72953" lon="7.07156">
        <ele>2476.5</ele>
        <time>2026-09-02T13:36:48Z</time>
      </trkpt>
      <trkpt lat="44.72953" lon="7.07156">
        <ele>2476.5</ele>
        <time>2026-09-02T13:36:53Z</time>
      </trkpt>
      <trkpt lat="44.72953" lon="7.07156">
        <ele>2476.5</ele>
        <time>2026-09-02T13:36:59Z</time>
      </trkpt>
      <trkpt lat="44.7295" lon="7.07147">
        <ele>2477.3</ele>
        <time>2026-09-02T13:37:04Z</time>
      </trkpt>
      <trkpt lat="44.7295" lon="7.07143">
        <ele>2477.2</ele>
        <time>2026-09-02T13:37:09Z</time>
      </trkpt>
      <trkpt lat="44.72952" lon="7.07136">
        <ele>2476.5</ele>
        <time>2026-09-02T13:37:15Z</time>
      </trkpt>
      <trkpt lat="44.72954" lon="7.07131">
        <ele>2475.9</ele>
        <time>2026-09-02T13:37:20Z</time>
      </trkpt>
      <trkpt lat="44.72953" lon="7.07128">
        <ele>2476.2</ele>
        <time>2026-09-02T13:37:25Z</time>
      </trkpt>
      <trkpt lat="44.72953" lon="7.07128">
        <ele>2476.2</ele>
        <time>2026-09-02T13:37:31Z</time>
      </trkpt>
      <trkpt lat="44.72953" lon="7.07128">
        <ele>2476.2</ele>
        <time>2026-09-02T13:37:36Z</time>
      </trkpt>
      <trkpt lat="44.72953" lon="7.07128">
        <ele>2476.2</ele>
        <time>2026-09-02T13:37:41Z</time>
      </trkpt>
      <trkpt lat="44.72953" lon="7.07128">
        <ele>2476.2</ele>
        <time>2026-09-02T13:37:47Z</time>
      </trkpt>
      <trkpt lat="44.72953" lon="7.07128">
        <ele>2476.2</ele>
        <time>2026-09-02T13:37:52Z</time>
      </trkpt>
      <trkpt lat="44.72953" lon="7.07128">
        <ele>2476.2</ele>
        <time>2026-09-02T13:37:57Z</time>
      </trkpt>
      <trkpt lat="44.72953" lon="7.07128">
        <ele>2476.2</ele>
        <time>2026-09-02T13:38:03Z</time>
      </trkpt>
      <trkpt lat="44.72953" lon="7.07128">
        <ele>2476.2</ele>
        <time>2026-09-02T13:38:08Z</time>
      </trkpt>
      <trkpt lat="44.72953" lon="7.07128">
        <ele>2476.2</ele>
        <time>2026-09-02T13:38:13Z</time>
      </trkpt>
      <trkpt lat="44.72953" lon="7.07128">
        <ele>2476.2</ele>
        <time>2026-09-02T13:38:19Z</time>
      </trkpt>
      <trkpt lat="44.7295" lon="7.07109">
        <ele>2476.6</ele>
        <time>2026-09-02T13:38:24Z</time>
      </trkpt>
      <trkpt lat="44.72947" lon="7.07109">
        <ele>2477.3</ele>
        <time>2026-09-02T13:38:29Z</time>
      </trkpt>
      <trkpt lat="44.72944" lon="7.07108">
        <ele>2478</ele>
        <time>2026-09-02T13:38:35Z</time>
      </trkpt>
      <trkpt lat="44.72946" lon="7.07106">
        <ele>2477.5</ele>
        <time>2026-09-02T13:38:40Z</time>
      </trkpt>
      <trkpt lat="44.72948" lon="7.07103">
        <ele>2477</ele>
        <time>2026-09-02T13:38:45Z</time>
      </trkpt>
      <trkpt lat="44.72948" lon="7.07099">
        <ele>2476.9</ele>
        <time>2026-09-02T13:38:51Z</time>
      </trkpt>
      <trkpt lat="44.7295" lon="7.07096">
        <ele>2476.4</ele>
        <time>2026-09-02T13:38:56Z</time>
      </trkpt>
      <trkpt lat="44.72952" lon="7.07093">
        <ele>2475.9</ele>
        <time>2026-09-02T13:39:01Z</time>
      </trkpt>
      <trkpt lat="44.72954" lon="7.07089">
        <ele>2475.4</ele>
        <time>2026-09-02T13:39:07Z</time>
      </trkpt>
      <trkpt lat="44.72958" lon="7.07089">
        <ele>2474.6</ele>
        <time>2026-09-02T13:39:12Z</time>
      </trkpt>
      <trkpt lat="44.72962" lon="7.07089">
        <ele>2473.8</ele>
        <time>2026-09-02T13:39:17Z</time>
      </trkpt>
      <trkpt lat="44.72962" lon="7.07086">
        <ele>2473.8</ele>
        <time>2026-09-02T13:39:23Z</time>
      </trkpt>
      <trkpt lat="44.7296" lon="7.07085">
        <ele>2474.2</ele>
        <time>2026-09-02T13:39:28Z</time>
      </trkpt>
      <trkpt lat="44.7296" lon="7.07085">
        <ele>2474.2</ele>
        <time>2026-09-02T13:39:33Z</time>
      </trkpt>
      <trkpt lat="44.7296" lon="7.07085">
        <ele>2474.2</ele>
        <time>2026-09-02T13:39:39Z</time>
      </trkpt>
      <trkpt lat="44.7296" lon="7.07085">
        <ele>2474.2</ele>
        <time>2026-09-02T13:39:44Z</time>
      </trkpt>
      <trkpt lat="44.72955" lon="7.07087">
        <ele>2475.2</ele>
        <time>2026-09-02T13:39:49Z</time>
      </trkpt>
      <trkpt lat="44.72953" lon="7.07086">
        <ele>2475.6</ele>
        <time>2026-09-02T13:39:55Z</time>
      </trkpt>
      <trkpt lat="44.72951" lon="7.07086">
        <ele>2476</ele>
        <time>2026-09-02T13:40:00Z</time>
      </trkpt>
      <trkpt lat="44.72949" lon="7.07083">
        <ele>2476.5</ele>
        <time>2026-09-02T13:40:05Z</time>
      </trkpt>
      <trkpt lat="44.72948" lon="7.07079">
        <ele>2477.5</ele>
        <time>2026-09-02T13:40:11Z</time>
      </trkpt>
      <trkpt lat="44.72946" lon="7.07079">
        <ele>2477.9</ele>
        <time>2026-09-02T13:40:16Z</time>
      </trkpt>
      <trkpt lat="44.72944" lon="7.07078">
        <ele>2478.5</ele>
        <time>2026-09-02T13:40:21Z</time>
      </trkpt>
      <trkpt lat="44.72944" lon="7.07078">
        <ele>2478.5</ele>
        <time>2026-09-02T13:40:27Z</time>
      </trkpt>
      <trkpt lat="44.72943" lon="7.07071">
        <ele>2480.2</ele>
        <time>2026-09-02T13:40:32Z</time>
      </trkpt>
      <trkpt lat="44.72943" lon="7.07067">
        <ele>2481</ele>
        <time>2026-09-02T13:40:37Z</time>
      </trkpt>
      <trkpt lat="44.72945" lon="7.07066">
        <ele>2480.8</ele>
        <time>2026-09-02T13:40:43Z</time>
      </trkpt>
      <trkpt lat="44.72945" lon="7.07066">
        <ele>2480.8</ele>
        <time>2026-09-02T13:40:48Z</time>
      </trkpt>
      <trkpt lat="44.72945" lon="7.07066">
        <ele>2480.8</ele>
        <time>2026-09-02T13:40:53Z</time>
      </trkpt>
      <trkpt lat="44.72945" lon="7.07066">
        <ele>2480.8</ele>
        <time>2026-09-02T13:40:59Z</time>
      </trkpt>
      <trkpt lat="44.72945" lon="7.07066">
        <ele>2480.8</ele>
        <time>2026-09-02T13:41:04Z</time>
      </trkpt>
      <trkpt lat="44.72945" lon="7.07066">
        <ele>2480.8</ele>
        <time>2026-09-02T13:41:09Z</time>
      </trkpt>
      <trkpt lat="44.72945" lon="7.07066">
        <ele>2480.8</ele>
        <time>2026-09-02T13:41:15Z</time>
      </trkpt>
      <trkpt lat="44.72945" lon="7.07066">
        <ele>2480.8</ele>
        <time>2026-09-02T13:41:20Z</time>
      </trkpt>
      <trkpt lat="44.72945" lon="7.07066">
        <ele>2480.8</ele>
        <time>2026-09-02T13:41:25Z</time>
      </trkpt>
      <trkpt lat="44.72945" lon="7.07066">
        <ele>2480.8</ele>
        <time>2026-09-02T13:41:31Z</time>
      </trkpt>
      <trkpt lat="44.72935" lon="7.07054">
        <ele>2484.7</ele>
        <time>2026-09-02T13:41:36Z</time>
      </trkpt>
      <trkpt lat="44.72936" lon="7.07052">
        <ele>2485</ele>
        <time>2026-09-02T13:41:41Z</time>
      </trkpt>
      <trkpt lat="44.72934" lon="7.07046">
        <ele>2486.3</ele>
        <time>2026-09-02T13:41:47Z</time>
      </trkpt>
      <trkpt lat="44.72934" lon="7.07046">
        <ele>2486.3</ele>
        <time>2026-09-02T13:41:52Z</time>
      </trkpt>
      <trkpt lat="44.72934" lon="7.07046">
        <ele>2486.3</ele>
        <time>2026-09-02T13:41:57Z</time>
      </trkpt>
      <trkpt lat="44.72934" lon="7.07046">
        <ele>2486.3</ele>
        <time>2026-09-02T13:42:03Z</time>
      </trkpt>
      <trkpt lat="44.72934" lon="7.07046">
        <ele>2486.3</ele>
        <time>2026-09-02T13:42:08Z</time>
      </trkpt>
      <trkpt lat="44.72934" lon="7.07046">
        <ele>2486.3</ele>
        <time>2026-09-02T13:42:13Z</time>
      </trkpt>
      <trkpt lat="44.72934" lon="7.07046">
        <ele>2486.3</ele>
        <time>2026-09-02T13:42:19Z</time>
      </trkpt>
      <trkpt lat="44.72934" lon="7.07046">
        <ele>2486.3</ele>
        <time>2026-09-02T13:42:24Z</time>
      </trkpt>
      <trkpt lat="44.72934" lon="7.07046">
        <ele>2486.3</ele>
        <time>2026-09-02T13:42:29Z</time>
      </trkpt>
      <trkpt lat="44.72934" lon="7.07046">
        <ele>2486.3</ele>
        <time>2026-09-02T13:42:35Z</time>
      </trkpt>
      <trkpt lat="44.72934" lon="7.07046">
        <ele>2486.3</ele>
        <time>2026-09-02T13:42:40Z</time>
      </trkpt>
      <trkpt lat="44.72934" lon="7.07046">
        <ele>2486.3</ele>
        <time>2026-09-02T13:42:45Z</time>
      </trkpt>
      <trkpt lat="44.72931" lon="7.07033">
        <ele>2489</ele>
        <time>2026-09-02T13:42:51Z</time>
      </trkpt>
      <trkpt lat="44.72931" lon="7.07033">
        <ele>2489</ele>
        <time>2026-09-02T13:42:56Z</time>
      </trkpt>
      <trkpt lat="44.72931" lon="7.07033">
        <ele>2489</ele>
        <time>2026-09-02T13:43:01Z</time>
      </trkpt>
      <trkpt lat="44.72931" lon="7.07033">
        <ele>2489</ele>
        <time>2026-09-02T13:43:07Z</time>
      </trkpt>
      <trkpt lat="44.72931" lon="7.07033">
        <ele>2489</ele>
        <time>2026-09-02T13:43:12Z</time>
      </trkpt>
      <trkpt lat="44.72931" lon="7.07033">
        <ele>2489</ele>
        <time>2026-09-02T13:43:17Z</time>
      </trkpt>
      <trkpt lat="44.72931" lon="7.07033">
        <ele>2489</ele>
        <time>2026-09-02T13:43:23Z</time>
      </trkpt>
      <trkpt lat="44.72931" lon="7.07033">
        <ele>2489</ele>
        <time>2026-09-02T13:43:28Z</time>
      </trkpt>
      <trkpt lat="44.72931" lon="7.07033">
        <ele>2489</ele>
        <time>2026-09-02T13:43:33Z</time>
      </trkpt>
      <trkpt lat="44.72927" lon="7.07023">
        <ele>2491</ele>
        <time>2026-09-02T13:43:39Z</time>
      </trkpt>
      <trkpt lat="44.72925" lon="7.07021">
        <ele>2491.5</ele>
        <time>2026-09-02T13:43:44Z</time>
      </trkpt>
      <trkpt lat="44.72928" lon="7.07019">
        <ele>2491.6</ele>
        <time>2026-09-02T13:43:49Z</time>
      </trkpt>
      <trkpt lat="44.72928" lon="7.07014">
        <ele>2492.5</ele>
        <time>2026-09-02T13:43:55Z</time>
      </trkpt>
      <trkpt lat="44.72925" lon="7.07013">
        <ele>2492.8</ele>
        <time>2026-09-02T13:44:00Z</time>
      </trkpt>
      <trkpt lat="44.72923" lon="7.07013">
        <ele>2492.9</ele>
        <time>2026-09-02T13:44:05Z</time>
      </trkpt>
      <trkpt lat="44.72923" lon="7.07013">
        <ele>2492.9</ele>
        <time>2026-09-02T13:44:11Z</time>
      </trkpt>
      <trkpt lat="44.72923" lon="7.07013">
        <ele>2492.9</ele>
        <time>2026-09-02T13:44:16Z</time>
      </trkpt>
      <trkpt lat="44.72923" lon="7.07013">
        <ele>2492.9</ele>
        <time>2026-09-02T13:44:21Z</time>
      </trkpt>
      <trkpt lat="44.7292" lon="7.07004">
        <ele>2494.4</ele>
        <time>2026-09-02T13:44:27Z</time>
      </trkpt>
      <trkpt lat="44.72918" lon="7.07001">
        <ele>2494.8</ele>
        <time>2026-09-02T13:44:32Z</time>
      </trkpt>
      <trkpt lat="44.72918" lon="7.07">
        <ele>2495</ele>
        <time>2026-09-02T13:44:37Z</time>
      </trkpt>
      <trkpt lat="44.72918" lon="7.06998">
        <ele>2496.1</ele>
        <time>2026-09-02T13:44:43Z</time>
      </trkpt>
      <trkpt lat="44.72918" lon="7.06998">
        <ele>2496.1</ele>
        <time>2026-09-02T13:44:48Z</time>
      </trkpt>
      <trkpt lat="44.72915" lon="7.06994">
        <ele>2499.1</ele>
        <time>2026-09-02T13:44:53Z</time>
      </trkpt>
      <trkpt lat="44.72915" lon="7.06994">
        <ele>2499.1</ele>
        <time>2026-09-02T13:44:59Z</time>
      </trkpt>
      <trkpt lat="44.72915" lon="7.06994">
        <ele>2499.1</ele>
        <time>2026-09-02T13:45:04Z</time>
      </trkpt>
      <trkpt lat="44.72915" lon="7.06994">
        <ele>2499.1</ele>
        <time>2026-09-02T13:45:09Z</time>
      </trkpt>
      <trkpt lat="44.72915" lon="7.06994">
        <ele>2499.1</ele>
        <time>2026-09-02T13:45:15Z</time>
      </trkpt>
      <trkpt lat="44.72915" lon="7.06994">
        <ele>2499.1</ele>
        <time>2026-09-02T13:45:20Z</time>
      </trkpt>
      <trkpt lat="44.72915" lon="7.06994">
        <ele>2499.1</ele>
        <time>2026-09-02T13:45:25Z</time>
      </trkpt>
      <trkpt lat="44.72915" lon="7.06994">
        <ele>2499.1</ele>
        <time>2026-09-02T13:45:31Z</time>
      </trkpt>
      <trkpt lat="44.72907" lon="7.06989">
        <ele>2505.8</ele>
        <time>2026-09-02T13:45:36Z</time>
      </trkpt>
      <trkpt lat="44.72907" lon="7.06989">
        <ele>2505.8</ele>
        <time>2026-09-02T13:45:41Z</time>
      </trkpt>
      <trkpt lat="44.72907" lon="7.06989">
        <ele>2505.8</ele>
        <time>2026-09-02T13:45:47Z</time>
      </trkpt>
      <trkpt lat="44.72907" lon="7.06989">
        <ele>2505.8</ele>
        <time>2026-09-02T13:45:52Z</time>
      </trkpt>
      <trkpt lat="44.72907" lon="7.06989">
        <ele>2505.8</ele>
        <time>2026-09-02T13:45:57Z</time>
      </trkpt>
      <trkpt lat="44.72907" lon="7.06989">
        <ele>2505.8</ele>
        <time>2026-09-02T13:46:03Z</time>
      </trkpt>
      <trkpt lat="44.72908" lon="7.06981">
        <ele>2509.8</ele>
        <time>2026-09-02T13:46:08Z</time>
      </trkpt>
      <trkpt lat="44.7291" lon="7.0698">
        <ele>2509.3</ele>
        <time>2026-09-02T13:46:13Z</time>
      </trkpt>
      <trkpt lat="44.72914" lon="7.0698">
        <ele>2507.2</ele>
        <time>2026-09-02T13:46:19Z</time>
      </trkpt>
      <trkpt lat="44.72916" lon="7.0698">
        <ele>2506.2</ele>
        <time>2026-09-02T13:46:24Z</time>
      </trkpt>
      <trkpt lat="44.72919" lon="7.06981">
        <ele>2505.1</ele>
        <time>2026-09-02T13:46:29Z</time>
      </trkpt>
      <trkpt lat="44.7292" lon="7.06979">
        <ele>2506.2</ele>
        <time>2026-09-02T13:46:35Z</time>
      </trkpt>
      <trkpt lat="44.7292" lon="7.06979">
        <ele>2506.2</ele>
        <time>2026-09-02T13:46:40Z</time>
      </trkpt>
      <trkpt lat="44.7292" lon="7.06979">
        <ele>2506.2</ele>
        <time>2026-09-02T13:46:45Z</time>
      </trkpt>
      <trkpt lat="44.72915" lon="7.06975">
        <ele>2509.4</ele>
        <time>2026-09-02T13:46:51Z</time>
      </trkpt>
      <trkpt lat="44.72915" lon="7.06975">
        <ele>2509.4</ele>
        <time>2026-09-02T13:46:56Z</time>
      </trkpt>
      <trkpt lat="44.72915" lon="7.06975">
        <ele>2509.4</ele>
        <time>2026-09-02T13:47:01Z</time>
      </trkpt>
      <trkpt lat="44.72915" lon="7.06975">
        <ele>2509.4</ele>
        <time>2026-09-02T13:47:07Z</time>
      </trkpt>
      <trkpt lat="44.72915" lon="7.06975">
        <ele>2509.4</ele>
        <time>2026-09-02T13:47:12Z</time>
      </trkpt>
      <trkpt lat="44.72915" lon="7.06975">
        <ele>2509.4</ele>
        <time>2026-09-02T13:47:17Z</time>
      </trkpt>
      <trkpt lat="44.72915" lon="7.06975">
        <ele>2509.4</ele>
        <time>2026-09-02T13:47:23Z</time>
      </trkpt>
      <trkpt lat="44.72915" lon="7.06975">
        <ele>2509.4</ele>
        <time>2026-09-02T13:47:28Z</time>
      </trkpt>
      <trkpt lat="44.72915" lon="7.06975">
        <ele>2509.4</ele>
        <time>2026-09-02T13:47:33Z</time>
      </trkpt>
      <trkpt lat="44.72915" lon="7.06975">
        <ele>2509.4</ele>
        <time>2026-09-02T13:47:39Z</time>
      </trkpt>
      <trkpt lat="44.72915" lon="7.06975">
        <ele>2509.4</ele>
        <time>2026-09-02T13:47:44Z</time>
      </trkpt>
      <trkpt lat="44.72915" lon="7.06975">
        <ele>2509.4</ele>
        <time>2026-09-02T13:47:49Z</time>
      </trkpt>
      <trkpt lat="44.72923" lon="7.06968">
        <ele>2511.8</ele>
        <time>2026-09-02T13:47:55Z</time>
      </trkpt>
      <trkpt lat="44.72923" lon="7.06964">
        <ele>2513.9</ele>
        <time>2026-09-02T13:48:00Z</time>
      </trkpt>
      <trkpt lat="44.72923" lon="7.06963">
        <ele>2514.4</ele>
        <time>2026-09-02T13:48:05Z</time>
      </trkpt>
      <trkpt lat="44.72923" lon="7.06963">
        <ele>2514.4</ele>
        <time>2026-09-02T13:48:11Z</time>
      </trkpt>
      <trkpt lat="44.72923" lon="7.06963">
        <ele>2514.4</ele>
        <time>2026-09-02T13:48:16Z</time>
      </trkpt>
      <trkpt lat="44.72917" lon="7.06957">
        <ele>2518.2</ele>
        <time>2026-09-02T13:48:21Z</time>
      </trkpt>
      <trkpt lat="44.72916" lon="7.06956">
        <ele>2519.2</ele>
        <time>2026-09-02T13:48:27Z</time>
      </trkpt>
      <trkpt lat="44.72918" lon="7.06956">
        <ele>2518.6</ele>
        <time>2026-09-02T13:48:32Z</time>
      </trkpt>
      <trkpt lat="44.72918" lon="7.06956">
        <ele>2518.6</ele>
        <time>2026-09-02T13:48:37Z</time>
      </trkpt>
      <trkpt lat="44.72918" lon="7.06956">
        <ele>2518.6</ele>
        <time>2026-09-02T13:48:43Z</time>
      </trkpt>
      <trkpt lat="44.72918" lon="7.06956">
        <ele>2518.6</ele>
        <time>2026-09-02T13:48:48Z</time>
      </trkpt>
      <trkpt lat="44.72918" lon="7.06956">
        <ele>2518.6</ele>
        <time>2026-09-02T13:48:53Z</time>
      </trkpt>
      <trkpt lat="44.72918" lon="7.06956">
        <ele>2518.6</ele>
        <time>2026-09-02T13:48:59Z</time>
      </trkpt>
      <trkpt lat="44.72918" lon="7.06956">
        <ele>2518.6</ele>
        <time>2026-09-02T13:49:04Z</time>
      </trkpt>
      <trkpt lat="44.72918" lon="7.06956">
        <ele>2518.6</ele>
        <time>2026-09-02T13:49:09Z</time>
      </trkpt>
      <trkpt lat="44.72918" lon="7.06956">
        <ele>2518.6</ele>
        <time>2026-09-02T13:49:15Z</time>
      </trkpt>
      <trkpt lat="44.72922" lon="7.06952">
        <ele>2520.3</ele>
        <time>2026-09-02T13:49:20Z</time>
      </trkpt>
      <trkpt lat="44.72925" lon="7.0695">
        <ele>2521.1</ele>
        <time>2026-09-02T13:49:25Z</time>
      </trkpt>
      <trkpt lat="44.72927" lon="7.06948">
        <ele>2521.9</ele>
        <time>2026-09-02T13:49:31Z</time>
      </trkpt>
      <trkpt lat="44.72929" lon="7.06945">
        <ele>2523.2</ele>
        <time>2026-09-02T13:49:36Z</time>
      </trkpt>
      <trkpt lat="44.72929" lon="7.06944">
        <ele>2523.7</ele>
        <time>2026-09-02T13:49:41Z</time>
      </trkpt>
      <trkpt lat="44.72927" lon="7.06941">
        <ele>2525.5</ele>
        <time>2026-09-02T13:49:47Z</time>
      </trkpt>
      <trkpt lat="44.72926" lon="7.06941">
        <ele>2525.6</ele>
        <time>2026-09-02T13:49:52Z</time>
      </trkpt>
      <trkpt lat="44.72925" lon="7.06941">
        <ele>2525.8</ele>
        <time>2026-09-02T13:49:57Z</time>
      </trkpt>
      <trkpt lat="44.72921" lon="7.06937">
        <ele>2528.4</ele>
        <time>2026-09-02T13:50:03Z</time>
      </trkpt>
      <trkpt lat="44.72921" lon="7.06937">
        <ele>2528.4</ele>
        <time>2026-09-02T13:50:08Z</time>
      </trkpt>
      <trkpt lat="44.72921" lon="7.06937">
        <ele>2528.4</ele>
        <time>2026-09-02T13:50:13Z</time>
      </trkpt>
      <trkpt lat="44.72921" lon="7.06937">
        <ele>2528.4</ele>
        <time>2026-09-02T13:50:19Z</time>
      </trkpt>
      <trkpt lat="44.72921" lon="7.06937">
        <ele>2528.4</ele>
        <time>2026-09-02T13:50:24Z</time>
      </trkpt>
      <trkpt lat="44.72921" lon="7.06937">
        <ele>2528.4</ele>
        <time>2026-09-02T13:50:29Z</time>
      </trkpt>
      <trkpt lat="44.72921" lon="7.06937">
        <ele>2528.4</ele>
        <time>2026-09-02T13:50:35Z</time>
      </trkpt>
      <trkpt lat="44.72921" lon="7.06937">
        <ele>2528.4</ele>
        <time>2026-09-02T13:50:40Z</time>
      </trkpt>
      <trkpt lat="44.72921" lon="7.06937">
        <ele>2528.4</ele>
        <time>2026-09-02T13:50:45Z</time>
      </trkpt>
      <trkpt lat="44.72921" lon="7.06937">
        <ele>2528.4</ele>
        <time>2026-09-02T13:50:51Z</time>
      </trkpt>
      <trkpt lat="44.72921" lon="7.06937">
        <ele>2528.4</ele>
        <time>2026-09-02T13:50:56Z</time>
      </trkpt>
      <trkpt lat="44.72921" lon="7.06937">
        <ele>2528.4</ele>
        <time>2026-09-02T13:51:01Z</time>
      </trkpt>
      <trkpt lat="44.72921" lon="7.06937">
        <ele>2528.4</ele>
        <time>2026-09-02T13:51:07Z</time>
      </trkpt>
      <trkpt lat="44.72921" lon="7.06937">
        <ele>2528.4</ele>
        <time>2026-09-02T13:51:12Z</time>
      </trkpt>
      <trkpt lat="44.72921" lon="7.06937">
        <ele>2528.4</ele>
        <time>2026-09-02T13:51:17Z</time>
      </trkpt>
      <trkpt lat="44.72921" lon="7.06937">
        <ele>2528.4</ele>
        <time>2026-09-02T13:51:23Z</time>
      </trkpt>
      <trkpt lat="44.72921" lon="7.06937">
        <ele>2528.4</ele>
        <time>2026-09-02T13:51:28Z</time>
      </trkpt>
      <trkpt lat="44.7292" lon="7.06924">
        <ele>2535.5</ele>
        <time>2026-09-02T13:51:33Z</time>
      </trkpt>
      <trkpt lat="44.7292" lon="7.06924">
        <ele>2535.5</ele>
        <time>2026-09-02T13:51:39Z</time>
      </trkpt>
      <trkpt lat="44.7292" lon="7.06924">
        <ele>2535.5</ele>
        <time>2026-09-02T13:51:44Z</time>
      </trkpt>
      <trkpt lat="44.72917" lon="7.06921">
        <ele>2537.6</ele>
        <time>2026-09-02T13:51:49Z</time>
      </trkpt>
      <trkpt lat="44.72916" lon="7.06916">
        <ele>2541</ele>
        <time>2026-09-02T13:51:55Z</time>
      </trkpt>
      <trkpt lat="44.72916" lon="7.06915">
        <ele>2541.7</ele>
        <time>2026-09-02T13:52:00Z</time>
      </trkpt>
      <trkpt lat="44.72916" lon="7.06915">
        <ele>2541.7</ele>
        <time>2026-09-02T13:52:05Z</time>
      </trkpt>
      <trkpt lat="44.72916" lon="7.06915">
        <ele>2541.7</ele>
        <time>2026-09-02T13:52:11Z</time>
      </trkpt>
      <trkpt lat="44.72916" lon="7.06915">
        <ele>2541.7</ele>
        <time>2026-09-02T13:52:16Z</time>
      </trkpt>
      <trkpt lat="44.72916" lon="7.06915">
        <ele>2541.7</ele>
        <time>2026-09-02T13:52:21Z</time>
      </trkpt>
      <trkpt lat="44.72916" lon="7.06915">
        <ele>2541.7</ele>
        <time>2026-09-02T13:52:27Z</time>
      </trkpt>
      <trkpt lat="44.72916" lon="7.06915">
        <ele>2541.7</ele>
        <time>2026-09-02T13:52:32Z</time>
      </trkpt>
      <trkpt lat="44.72916" lon="7.06915">
        <ele>2541.7</ele>
        <time>2026-09-02T13:52:37Z</time>
      </trkpt>
      <trkpt lat="44.72916" lon="7.06915">
        <ele>2541.7</ele>
        <time>2026-09-02T13:52:43Z</time>
      </trkpt>
      <trkpt lat="44.72916" lon="7.06915">
        <ele>2541.7</ele>
        <time>2026-09-02T13:52:48Z</time>
      </trkpt>
      <trkpt lat="44.72916" lon="7.06915">
        <ele>2541.7</ele>
        <time>2026-09-02T13:52:53Z</time>
      </trkpt>
      <trkpt lat="44.72916" lon="7.06915">
        <ele>2541.7</ele>
        <time>2026-09-02T13:52:59Z</time>
      </trkpt>
      <trkpt lat="44.72916" lon="7.06915">
        <ele>2541.7</ele>
        <time>2026-09-02T13:53:04Z</time>
      </trkpt>
      <trkpt lat="44.72916" lon="7.06915">
        <ele>2541.7</ele>
        <time>2026-09-02T13:53:09Z</time>
      </trkpt>
      <trkpt lat="44.72916" lon="7.06915">
        <ele>2541.7</ele>
        <time>2026-09-02T13:53:15Z</time>
      </trkpt>
      <trkpt lat="44.72916" lon="7.06915">
        <ele>2541.7</ele>
        <time>2026-09-02T13:53:20Z</time>
      </trkpt>
      <trkpt lat="44.72922" lon="7.06899">
        <ele>2552.2</ele>
        <time>2026-09-02T13:53:25Z</time>
      </trkpt>
      <trkpt lat="44.72922" lon="7.06899">
        <ele>2552.2</ele>
        <time>2026-09-02T13:53:31Z</time>
      </trkpt>
      <trkpt lat="44.72922" lon="7.06899">
        <ele>2552.2</ele>
        <time>2026-09-02T13:53:36Z</time>
      </trkpt>
      <trkpt lat="44.72922" lon="7.06899">
        <ele>2552.2</ele>
        <time>2026-09-02T13:53:41Z</time>
      </trkpt>
      <trkpt lat="44.72922" lon="7.06899">
        <ele>2552.2</ele>
        <time>2026-09-02T13:53:47Z</time>
      </trkpt>
      <trkpt lat="44.72922" lon="7.06899">
        <ele>2552.2</ele>
        <time>2026-09-02T13:53:52Z</time>
      </trkpt>
      <trkpt lat="44.72922" lon="7.06899">
        <ele>2552.2</ele>
        <time>2026-09-02T13:53:57Z</time>
      </trkpt>
      <trkpt lat="44.72922" lon="7.06899">
        <ele>2552.2</ele>
        <time>2026-09-02T13:54:03Z</time>
      </trkpt>
      <trkpt lat="44.72922" lon="7.06899">
        <ele>2552.2</ele>
        <time>2026-09-02T13:54:08Z</time>
      </trkpt>
      <trkpt lat="44.72922" lon="7.06899">
        <ele>2552.2</ele>
        <time>2026-09-02T13:54:13Z</time>
      </trkpt>
      <trkpt lat="44.72922" lon="7.06899">
        <ele>2552.2</ele>
        <time>2026-09-02T13:54:19Z</time>
      </trkpt>
      <trkpt lat="44.72922" lon="7.06899">
        <ele>2552.2</ele>
        <time>2026-09-02T13:54:24Z</time>
      </trkpt>
      <trkpt lat="44.72922" lon="7.06899">
        <ele>2552.2</ele>
        <time>2026-09-02T13:54:29Z</time>
      </trkpt>
      <trkpt lat="44.72921" lon="7.06892">
        <ele>2557.7</ele>
        <time>2026-09-02T13:54:35Z</time>
      </trkpt>
      <trkpt lat="44.72921" lon="7.06892">
        <ele>2557.7</ele>
        <time>2026-09-02T13:54:40Z</time>
      </trkpt>
      <trkpt lat="44.72921" lon="7.06892">
        <ele>2557.7</ele>
        <time>2026-09-02T13:54:45Z</time>
      </trkpt>
      <trkpt lat="44.72921" lon="7.06892">
        <ele>2557.7</ele>
        <time>2026-09-02T13:54:51Z</time>
      </trkpt>
      <trkpt lat="44.72921" lon="7.06892">
        <ele>2557.7</ele>
        <time>2026-09-02T13:54:56Z</time>
      </trkpt>
      <trkpt lat="44.72921" lon="7.06892">
        <ele>2557.7</ele>
        <time>2026-09-02T13:55:01Z</time>
      </trkpt>
      <trkpt lat="44.72921" lon="7.06892">
        <ele>2557.7</ele>
        <time>2026-09-02T13:55:07Z</time>
      </trkpt>
      <trkpt lat="44.72921" lon="7.06892">
        <ele>2557.7</ele>
        <time>2026-09-02T13:55:12Z</time>
      </trkpt>
      <trkpt lat="44.72921" lon="7.06892">
        <ele>2557.7</ele>
        <time>2026-09-02T13:55:17Z</time>
      </trkpt>
      <trkpt lat="44.72921" lon="7.06892">
        <ele>2557.7</ele>
        <time>2026-09-02T13:55:23Z</time>
      </trkpt>
      <trkpt lat="44.72921" lon="7.06892">
        <ele>2557.7</ele>
        <time>2026-09-02T13:55:28Z</time>
      </trkpt>
      <trkpt lat="44.72921" lon="7.06892">
        <ele>2557.7</ele>
        <time>2026-09-02T13:55:33Z</time>
      </trkpt>
      <trkpt lat="44.72921" lon="7.06892">
        <ele>2557.7</ele>
        <time>2026-09-02T13:55:39Z</time>
      </trkpt>
      <trkpt lat="44.72919" lon="7.06882">
        <ele>2565.9</ele>
        <time>2026-09-02T13:55:44Z</time>
      </trkpt>
      <trkpt lat="44.72919" lon="7.06882">
        <ele>2565.9</ele>
        <time>2026-09-02T13:55:49Z</time>
      </trkpt>
      <trkpt lat="44.72919" lon="7.06882">
        <ele>2565.9</ele>
        <time>2026-09-02T13:55:55Z</time>
      </trkpt>
      <trkpt lat="44.72919" lon="7.06882">
        <ele>2565.9</ele>
        <time>2026-09-02T13:56:00Z</time>
      </trkpt>
      <trkpt lat="44.72919" lon="7.06882">
        <ele>2565.9</ele>
        <time>2026-09-02T13:56:05Z</time>
      </trkpt>
      <trkpt lat="44.72919" lon="7.06882">
        <ele>2565.9</ele>
        <time>2026-09-02T13:56:11Z</time>
      </trkpt>
      <trkpt lat="44.72922" lon="7.06874">
        <ele>2570.9</ele>
        <time>2026-09-02T13:56:16Z</time>
      </trkpt>
      <trkpt lat="44.72922" lon="7.06874">
        <ele>2570.9</ele>
        <time>2026-09-02T13:56:21Z</time>
      </trkpt>
      <trkpt lat="44.72922" lon="7.06874">
        <ele>2570.9</ele>
        <time>2026-09-02T13:56:27Z</time>
      </trkpt>
      <trkpt lat="44.72919" lon="7.06866">
        <ele>2578</ele>
        <time>2026-09-02T13:56:32Z</time>
      </trkpt>
      <trkpt lat="44.7292" lon="7.06865">
        <ele>2578.4</ele>
        <time>2026-09-02T13:56:37Z</time>
      </trkpt>
      <trkpt lat="44.7292" lon="7.06865">
        <ele>2578.4</ele>
        <time>2026-09-02T13:56:43Z</time>
      </trkpt>
      <trkpt lat="44.7292" lon="7.06865">
        <ele>2578.4</ele>
        <time>2026-09-02T13:56:48Z</time>
      </trkpt>
      <trkpt lat="44.7292" lon="7.06865">
        <ele>2578.4</ele>
        <time>2026-09-02T13:56:53Z</time>
      </trkpt>
      <trkpt lat="44.7292" lon="7.06865">
        <ele>2578.4</ele>
        <time>2026-09-02T13:56:59Z</time>
      </trkpt>
      <trkpt lat="44.7292" lon="7.06865">
        <ele>2578.4</ele>
        <time>2026-09-02T13:57:04Z</time>
      </trkpt>
      <trkpt lat="44.7292" lon="7.06865">
        <ele>2578.4</ele>
        <time>2026-09-02T13:57:09Z</time>
      </trkpt>
      <trkpt lat="44.7292" lon="7.06865">
        <ele>2578.4</ele>
        <time>2026-09-02T13:57:15Z</time>
      </trkpt>
      <trkpt lat="44.7292" lon="7.06865">
        <ele>2578.4</ele>
        <time>2026-09-02T13:57:20Z</time>
      </trkpt>
      <trkpt lat="44.7292" lon="7.06865">
        <ele>2578.4</ele>
        <time>2026-09-02T13:57:25Z</time>
      </trkpt>
      <trkpt lat="44.7292" lon="7.06865">
        <ele>2578.4</ele>
        <time>2026-09-02T13:57:31Z</time>
      </trkpt>
      <trkpt lat="44.7292" lon="7.06865">
        <ele>2578.4</ele>
        <time>2026-09-02T13:57:36Z</time>
      </trkpt>
      <trkpt lat="44.7292" lon="7.06865">
        <ele>2578.4</ele>
        <time>2026-09-02T13:57:41Z</time>
      </trkpt>
      <trkpt lat="44.7292" lon="7.06865">
        <ele>2578.4</ele>
        <time>2026-09-02T13:57:47Z</time>
      </trkpt>
      <trkpt lat="44.7292" lon="7.06865">
        <ele>2578.4</ele>
        <time>2026-09-02T13:57:52Z</time>
      </trkpt>
      <trkpt lat="44.7292" lon="7.06865">
        <ele>2578.4</ele>
        <time>2026-09-02T13:57:57Z</time>
      </trkpt>
      <trkpt lat="44.7292" lon="7.06865">
        <ele>2578.4</ele>
        <time>2026-09-02T13:58:03Z</time>
      </trkpt>
      <trkpt lat="44.7292" lon="7.06865">
        <ele>2578.4</ele>
        <time>2026-09-02T13:58:08Z</time>
      </trkpt>
      <trkpt lat="44.7292" lon="7.06865">
        <ele>2578.4</ele>
        <time>2026-09-02T13:58:13Z</time>
      </trkpt>
      <trkpt lat="44.72919" lon="7.06853">
        <ele>2587.9</ele>
        <time>2026-09-02T13:58:19Z</time>
      </trkpt>
      <trkpt lat="44.72919" lon="7.06852">
        <ele>2588.6</ele>
        <time>2026-09-02T13:58:24Z</time>
      </trkpt>
      <trkpt lat="44.72917" lon="7.06849">
        <ele>2591.8</ele>
        <time>2026-09-02T13:58:29Z</time>
      </trkpt>
      <trkpt lat="44.72915" lon="7.06849">
        <ele>2593.1</ele>
        <time>2026-09-02T13:58:35Z</time>
      </trkpt>
      <trkpt lat="44.72915" lon="7.06849">
        <ele>2593.1</ele>
        <time>2026-09-02T13:58:40Z</time>
      </trkpt>
      <trkpt lat="44.72915" lon="7.06849">
        <ele>2593.1</ele>
        <time>2026-09-02T13:58:45Z</time>
      </trkpt>
      <trkpt lat="44.72915" lon="7.06849">
        <ele>2593.1</ele>
        <time>2026-09-02T13:58:51Z</time>
      </trkpt>
      <trkpt lat="44.72915" lon="7.06849">
        <ele>2593.1</ele>
        <time>2026-09-02T13:58:56Z</time>
      </trkpt>
      <trkpt lat="44.72915" lon="7.06849">
        <ele>2593.1</ele>
        <time>2026-09-02T13:59:01Z</time>
      </trkpt>
      <trkpt lat="44.72915" lon="7.06849">
        <ele>2593.1</ele>
        <time>2026-09-02T13:59:07Z</time>
      </trkpt>
      <trkpt lat="44.72915" lon="7.06849">
        <ele>2593.1</ele>
        <time>2026-09-02T13:59:12Z</time>
      </trkpt>
      <trkpt lat="44.72915" lon="7.06849">
        <ele>2593.1</ele>
        <time>2026-09-02T13:59:17Z</time>
      </trkpt>
      <trkpt lat="44.72923" lon="7.0684">
        <ele>2595.8</ele>
        <time>2026-09-02T13:59:23Z</time>
      </trkpt>
      <trkpt lat="44.72923" lon="7.06839">
        <ele>2596.5</ele>
        <time>2026-09-02T13:59:28Z</time>
      </trkpt>
      <trkpt lat="44.72923" lon="7.06839">
        <ele>2596.5</ele>
        <time>2026-09-02T13:59:33Z</time>
      </trkpt>
      <trkpt lat="44.72923" lon="7.06839">
        <ele>2596.5</ele>
        <time>2026-09-02T13:59:39Z</time>
      </trkpt>
      <trkpt lat="44.72923" lon="7.06839">
        <ele>2596.5</ele>
        <time>2026-09-02T13:59:44Z</time>
      </trkpt>
      <trkpt lat="44.72923" lon="7.06839">
        <ele>2596.5</ele>
        <time>2026-09-02T13:59:49Z</time>
      </trkpt>
      <trkpt lat="44.72923" lon="7.06839">
        <ele>2596.5</ele>
        <time>2026-09-02T13:59:55Z</time>
      </trkpt>
      <trkpt lat="44.72917" lon="7.06835">
        <ele>2602.6</ele>
        <time>2026-09-02T14:00:00Z</time>
      </trkpt>
      <trkpt lat="44.72916" lon="7.06831">
        <ele>2605.5</ele>
        <time>2026-09-02T14:00:05Z</time>
      </trkpt>
      <trkpt lat="44.72918" lon="7.06829">
        <ele>2605.3</ele>
        <time>2026-09-02T14:00:11Z</time>
      </trkpt>
      <trkpt lat="44.72918" lon="7.06829">
        <ele>2605.3</ele>
        <time>2026-09-02T14:00:16Z</time>
      </trkpt>
      <trkpt lat="44.72918" lon="7.06829">
        <ele>2605.3</ele>
        <time>2026-09-02T14:00:21Z</time>
      </trkpt>
      <trkpt lat="44.72918" lon="7.06829">
        <ele>2605.3</ele>
        <time>2026-09-02T14:00:27Z</time>
      </trkpt>
      <trkpt lat="44.72918" lon="7.06829">
        <ele>2605.3</ele>
        <time>2026-09-02T14:00:32Z</time>
      </trkpt>
      <trkpt lat="44.72918" lon="7.06822">
        <ele>2608.5</ele>
        <time>2026-09-02T14:00:37Z</time>
      </trkpt>
      <trkpt lat="44.72918" lon="7.06822">
        <ele>2608.5</ele>
        <time>2026-09-02T14:00:43Z</time>
      </trkpt>
      <trkpt lat="44.72918" lon="7.06822">
        <ele>2608.5</ele>
        <time>2026-09-02T14:00:48Z</time>
      </trkpt>
      <trkpt lat="44.72918" lon="7.06822">
        <ele>2608.5</ele>
        <time>2026-09-02T14:00:53Z</time>
      </trkpt>
      <trkpt lat="44.72918" lon="7.06822">
        <ele>2608.5</ele>
        <time>2026-09-02T14:00:59Z</time>
      </trkpt>
      <trkpt lat="44.72918" lon="7.06822">
        <ele>2608.5</ele>
        <time>2026-09-02T14:01:04Z</time>
      </trkpt>
      <trkpt lat="44.72918" lon="7.06822">
        <ele>2608.5</ele>
        <time>2026-09-02T14:01:09Z</time>
      </trkpt>
      <trkpt lat="44.72916" lon="7.06821">
        <ele>2610</ele>
        <time>2026-09-02T14:01:15Z</time>
      </trkpt>
      <trkpt lat="44.72916" lon="7.06817">
        <ele>2611.9</ele>
        <time>2026-09-02T14:01:20Z</time>
      </trkpt>
      <trkpt lat="44.72916" lon="7.06816">
        <ele>2612.3</ele>
        <time>2026-09-02T14:01:25Z</time>
      </trkpt>
      <trkpt lat="44.72916" lon="7.06816">
        <ele>2612.3</ele>
        <time>2026-09-02T14:01:31Z</time>
      </trkpt>
      <trkpt lat="44.72916" lon="7.06816">
        <ele>2612.3</ele>
        <time>2026-09-02T14:01:36Z</time>
      </trkpt>
      <trkpt lat="44.72916" lon="7.06816">
        <ele>2612.3</ele>
        <time>2026-09-02T14:01:41Z</time>
      </trkpt>
      <trkpt lat="44.72916" lon="7.06816">
        <ele>2612.3</ele>
        <time>2026-09-02T14:01:47Z</time>
      </trkpt>
      <trkpt lat="44.72916" lon="7.06816">
        <ele>2612.3</ele>
        <time>2026-09-02T14:01:52Z</time>
      </trkpt>
      <trkpt lat="44.72916" lon="7.06816">
        <ele>2612.3</ele>
        <time>2026-09-02T14:01:57Z</time>
      </trkpt>
      <trkpt lat="44.72916" lon="7.06816">
        <ele>2612.3</ele>
        <time>2026-09-02T14:02:03Z</time>
      </trkpt>
      <trkpt lat="44.72916" lon="7.06816">
        <ele>2612.3</ele>
        <time>2026-09-02T14:02:08Z</time>
      </trkpt>
      <trkpt lat="44.72916" lon="7.06816">
        <ele>2612.3</ele>
        <time>2026-09-02T14:02:13Z</time>
      </trkpt>
      <trkpt lat="44.72916" lon="7.06816">
        <ele>2612.3</ele>
        <time>2026-09-02T14:02:19Z</time>
      </trkpt>
      <trkpt lat="44.72916" lon="7.06816">
        <ele>2612.3</ele>
        <time>2026-09-02T14:02:24Z</time>
      </trkpt>
      <trkpt lat="44.72916" lon="7.06816">
        <ele>2612.3</ele>
        <time>2026-09-02T14:02:29Z</time>
      </trkpt>
      <trkpt lat="44.72916" lon="7.06816">
        <ele>2612.3</ele>
        <time>2026-09-02T14:02:35Z</time>
      </trkpt>
      <trkpt lat="44.72916" lon="7.06816">
        <ele>2612.3</ele>
        <time>2026-09-02T14:02:40Z</time>
      </trkpt>
      <trkpt lat="44.72916" lon="7.06816">
        <ele>2612.3</ele>
        <time>2026-09-02T14:02:45Z</time>
      </trkpt>
      <trkpt lat="44.72916" lon="7.06816">
        <ele>2612.3</ele>
        <time>2026-09-02T14:02:51Z</time>
      </trkpt>
      <trkpt lat="44.72916" lon="7.06816">
        <ele>2612.3</ele>
        <time>2026-09-02T14:02:56Z</time>
      </trkpt>
      <trkpt lat="44.72916" lon="7.06816">
        <ele>2612.3</ele>
        <time>2026-09-02T14:03:01Z</time>
      </trkpt>
      <trkpt lat="44.72916" lon="7.06816">
        <ele>2612.3</ele>
        <time>2026-09-02T14:03:07Z</time>
      </trkpt>
      <trkpt lat="44.72916" lon="7.06816">
        <ele>2612.3</ele>
        <time>2026-09-02T14:03:12Z</time>
      </trkpt>
      <trkpt lat="44.72909" lon="7.06807">
        <ele>2620.4</ele>
        <time>2026-09-02T14:03:17Z</time>
      </trkpt>
      <trkpt lat="44.72909" lon="7.06807">
        <ele>2620.4</ele>
        <time>2026-09-02T14:03:23Z</time>
      </trkpt>
      <trkpt lat="44.72909" lon="7.06807">
        <ele>2620.4</ele>
        <time>2026-09-02T14:03:28Z</time>
      </trkpt>
      <trkpt lat="44.72909" lon="7.06807">
        <ele>2620.4</ele>
        <time>2026-09-02T14:03:33Z</time>
      </trkpt>
      <trkpt lat="44.72909" lon="7.06807">
        <ele>2620.4</ele>
        <time>2026-09-02T14:03:39Z</time>
      </trkpt>
      <trkpt lat="44.72909" lon="7.06807">
        <ele>2620.4</ele>
        <time>2026-09-02T14:03:44Z</time>
      </trkpt>
      <trkpt lat="44.72909" lon="7.06807">
        <ele>2620.4</ele>
        <time>2026-09-02T14:03:49Z</time>
      </trkpt>
      <trkpt lat="44.72909" lon="7.06807">
        <ele>2620.4</ele>
        <time>2026-09-02T14:03:55Z</time>
      </trkpt>
      <trkpt lat="44.72909" lon="7.06807">
        <ele>2620.4</ele>
        <time>2026-09-02T14:04:00Z</time>
      </trkpt>
      <trkpt lat="44.72909" lon="7.06807">
        <ele>2620.4</ele>
        <time>2026-09-02T14:04:05Z</time>
      </trkpt>
      <trkpt lat="44.72909" lon="7.06807">
        <ele>2620.4</ele>
        <time>2026-09-02T14:04:11Z</time>
      </trkpt>
      <trkpt lat="44.72909" lon="7.06807">
        <ele>2620.4</ele>
        <time>2026-09-02T14:04:16Z</time>
      </trkpt>
      <trkpt lat="44.72902" lon="7.06798">
        <ele>2628.1</ele>
        <time>2026-09-02T14:04:21Z</time>
      </trkpt>
      <trkpt lat="44.72902" lon="7.06798">
        <ele>2628.1</ele>
        <time>2026-09-02T14:04:27Z</time>
      </trkpt>
      <trkpt lat="44.72902" lon="7.06798">
        <ele>2628.1</ele>
        <time>2026-09-02T14:04:32Z</time>
      </trkpt>
      <trkpt lat="44.72902" lon="7.06798">
        <ele>2628.1</ele>
        <time>2026-09-02T14:04:37Z</time>
      </trkpt>
      <trkpt lat="44.72902" lon="7.06798">
        <ele>2628.1</ele>
        <time>2026-09-02T14:04:43Z</time>
      </trkpt>
      <trkpt lat="44.72902" lon="7.06798">
        <ele>2628.1</ele>
        <time>2026-09-02T14:04:48Z</time>
      </trkpt>
      <trkpt lat="44.72902" lon="7.06798">
        <ele>2628.1</ele>
        <time>2026-09-02T14:04:53Z</time>
      </trkpt>
      <trkpt lat="44.72902" lon="7.06798">
        <ele>2628.1</ele>
        <time>2026-09-02T14:04:59Z</time>
      </trkpt>
      <trkpt lat="44.72902" lon="7.06798">
        <ele>2628.1</ele>
        <time>2026-09-02T14:05:04Z</time>
      </trkpt>
      <trkpt lat="44.72902" lon="7.06798">
        <ele>2628.1</ele>
        <time>2026-09-02T14:05:09Z</time>
      </trkpt>
      <trkpt lat="44.72902" lon="7.06798">
        <ele>2628.1</ele>
        <time>2026-09-02T14:05:15Z</time>
      </trkpt>
      <trkpt lat="44.72902" lon="7.06798">
        <ele>2628.1</ele>
        <time>2026-09-02T14:05:20Z</time>
      </trkpt>
      <trkpt lat="44.72902" lon="7.06798">
        <ele>2628.1</ele>
        <time>2026-09-02T14:05:25Z</time>
      </trkpt>
      <trkpt lat="44.72902" lon="7.06798">
        <ele>2628.1</ele>
        <time>2026-09-02T14:05:31Z</time>
      </trkpt>
      <trkpt lat="44.72895" lon="7.06798">
        <ele>2631.9</ele>
        <time>2026-09-02T14:05:36Z</time>
      </trkpt>
      <trkpt lat="44.72895" lon="7.06798">
        <ele>2631.9</ele>
        <time>2026-09-02T14:05:41Z</time>
      </trkpt>
      <trkpt lat="44.72895" lon="7.06798">
        <ele>2631.9</ele>
        <time>2026-09-02T14:05:47Z</time>
      </trkpt>
      <trkpt lat="44.72895" lon="7.06798">
        <ele>2631.9</ele>
        <time>2026-09-02T14:05:52Z</time>
      </trkpt>
      <trkpt lat="44.72895" lon="7.06798">
        <ele>2631.9</ele>
        <time>2026-09-02T14:05:57Z</time>
      </trkpt>
      <trkpt lat="44.72895" lon="7.06798">
        <ele>2631.9</ele>
        <time>2026-09-02T14:06:03Z</time>
      </trkpt>
      <trkpt lat="44.72895" lon="7.06798">
        <ele>2631.9</ele>
        <time>2026-09-02T14:06:08Z</time>
      </trkpt>
      <trkpt lat="44.72895" lon="7.06798">
        <ele>2631.9</ele>
        <time>2026-09-02T14:06:13Z</time>
      </trkpt>
      <trkpt lat="44.72895" lon="7.06798">
        <ele>2631.9</ele>
        <time>2026-09-02T14:06:19Z</time>
      </trkpt>
      <trkpt lat="44.72895" lon="7.06798">
        <ele>2631.9</ele>
        <time>2026-09-02T14:06:24Z</time>
      </trkpt>
      <trkpt lat="44.72895" lon="7.06798">
        <ele>2631.9</ele>
        <time>2026-09-02T14:06:29Z</time>
      </trkpt>
      <trkpt lat="44.72895" lon="7.06798">
        <ele>2631.9</ele>
        <time>2026-09-02T14:06:35Z</time>
      </trkpt>
      <trkpt lat="44.72895" lon="7.06798">
        <ele>2631.9</ele>
        <time>2026-09-02T14:06:40Z</time>
      </trkpt>
      <trkpt lat="44.72895" lon="7.06798">
        <ele>2631.9</ele>
        <time>2026-09-02T14:06:45Z</time>
      </trkpt>
      <trkpt lat="44.72895" lon="7.06798">
        <ele>2631.9</ele>
        <time>2026-09-02T14:06:51Z</time>
      </trkpt>
      <trkpt lat="44.72895" lon="7.06798">
        <ele>2631.9</ele>
        <time>2026-09-02T14:06:56Z</time>
      </trkpt>
      <trkpt lat="44.72889" lon="7.06786">
        <ele>2639.5</ele>
        <time>2026-09-02T14:07:01Z</time>
      </trkpt>
      <trkpt lat="44.7289" lon="7.06783">
        <ele>2640</ele>
        <time>2026-09-02T14:07:07Z</time>
      </trkpt>
      <trkpt lat="44.7289" lon="7.06783">
        <ele>2640</ele>
        <time>2026-09-02T14:07:12Z</time>
      </trkpt>
      <trkpt lat="44.7289" lon="7.06783">
        <ele>2640</ele>
        <time>2026-09-02T14:07:17Z</time>
      </trkpt>
      <trkpt lat="44.7289" lon="7.06783">
        <ele>2640</ele>
        <time>2026-09-02T14:07:23Z</time>
      </trkpt>
      <trkpt lat="44.7289" lon="7.06783">
        <ele>2640</ele>
        <time>2026-09-02T14:07:28Z</time>
      </trkpt>
      <trkpt lat="44.72885" lon="7.06791">
        <ele>2639.8</ele>
        <time>2026-09-02T14:07:33Z</time>
      </trkpt>
      <trkpt lat="44.72885" lon="7.06791">
        <ele>2639.8</ele>
        <time>2026-09-02T14:07:39Z</time>
      </trkpt>
      <trkpt lat="44.72885" lon="7.06791">
        <ele>2639.8</ele>
        <time>2026-09-02T14:07:44Z</time>
      </trkpt>
      <trkpt lat="44.72885" lon="7.06791">
        <ele>2639.8</ele>
        <time>2026-09-02T14:07:49Z</time>
      </trkpt>
      <trkpt lat="44.72879" lon="7.06793">
        <ele>2642.2</ele>
        <time>2026-09-02T14:07:55Z</time>
      </trkpt>
      <trkpt lat="44.72876" lon="7.06794">
        <ele>2643.5</ele>
        <time>2026-09-02T14:08:00Z</time>
      </trkpt>
      <trkpt lat="44.72875" lon="7.06792">
        <ele>2644.6</ele>
        <time>2026-09-02T14:08:05Z</time>
      </trkpt>
      <trkpt lat="44.72875" lon="7.06791">
        <ele>2645</ele>
        <time>2026-09-02T14:08:11Z</time>
      </trkpt>
      <trkpt lat="44.72875" lon="7.06791">
        <ele>2645</ele>
        <time>2026-09-02T14:08:16Z</time>
      </trkpt>
      <trkpt lat="44.72875" lon="7.06791">
        <ele>2645</ele>
        <time>2026-09-02T14:08:21Z</time>
      </trkpt>
      <trkpt lat="44.72875" lon="7.06791">
        <ele>2645</ele>
        <time>2026-09-02T14:08:27Z</time>
      </trkpt>
      <trkpt lat="44.72875" lon="7.06791">
        <ele>2645</ele>
        <time>2026-09-02T14:08:32Z</time>
      </trkpt>
      <trkpt lat="44.72875" lon="7.06791">
        <ele>2645</ele>
        <time>2026-09-02T14:08:37Z</time>
      </trkpt>
      <trkpt lat="44.72878" lon="7.06778">
        <ele>2647.5</ele>
        <time>2026-09-02T14:08:43Z</time>
      </trkpt>
      <trkpt lat="44.72878" lon="7.06777">
        <ele>2647.8</ele>
        <time>2026-09-02T14:08:48Z</time>
      </trkpt>
      <trkpt lat="44.72878" lon="7.06777">
        <ele>2647.8</ele>
        <time>2026-09-02T14:08:53Z</time>
      </trkpt>
      <trkpt lat="44.72878" lon="7.06777">
        <ele>2647.8</ele>
        <time>2026-09-02T14:08:59Z</time>
      </trkpt>
      <trkpt lat="44.72878" lon="7.06777">
        <ele>2647.8</ele>
        <time>2026-09-02T14:09:04Z</time>
      </trkpt>
      <trkpt lat="44.72878" lon="7.06777">
        <ele>2647.8</ele>
        <time>2026-09-02T14:09:09Z</time>
      </trkpt>
      <trkpt lat="44.72878" lon="7.06777">
        <ele>2647.8</ele>
        <time>2026-09-02T14:09:15Z</time>
      </trkpt>
      <trkpt lat="44.72878" lon="7.06777">
        <ele>2647.8</ele>
        <time>2026-09-02T14:09:20Z</time>
      </trkpt>
      <trkpt lat="44.72878" lon="7.06777">
        <ele>2647.8</ele>
        <time>2026-09-02T14:09:25Z</time>
      </trkpt>
      <trkpt lat="44.72878" lon="7.06777">
        <ele>2647.8</ele>
        <time>2026-09-02T14:09:31Z</time>
      </trkpt>
      <trkpt lat="44.72878" lon="7.06777">
        <ele>2647.8</ele>
        <time>2026-09-02T14:09:36Z</time>
      </trkpt>
      <trkpt lat="44.72878" lon="7.06777">
        <ele>2647.8</ele>
        <time>2026-09-02T14:09:41Z</time>
      </trkpt>
      <trkpt lat="44.72878" lon="7.06777">
        <ele>2647.8</ele>
        <time>2026-09-02T14:09:47Z</time>
      </trkpt>
      <trkpt lat="44.72878" lon="7.06777">
        <ele>2647.8</ele>
        <time>2026-09-02T14:09:52Z</time>
      </trkpt>
      <trkpt lat="44.72878" lon="7.06777">
        <ele>2647.8</ele>
        <time>2026-09-02T14:09:57Z</time>
      </trkpt>
      <trkpt lat="44.72878" lon="7.06777">
        <ele>2647.8</ele>
        <time>2026-09-02T14:10:03Z</time>
      </trkpt>
      <trkpt lat="44.72878" lon="7.06777">
        <ele>2647.8</ele>
        <time>2026-09-02T14:10:08Z</time>
      </trkpt>
      <trkpt lat="44.72878" lon="7.06777">
        <ele>2647.8</ele>
        <time>2026-09-02T14:10:13Z</time>
      </trkpt>
      <trkpt lat="44.72878" lon="7.06777">
        <ele>2647.8</ele>
        <time>2026-09-02T14:10:19Z</time>
      </trkpt>
      <trkpt lat="44.72878" lon="7.06777">
        <ele>2647.8</ele>
        <time>2026-09-02T14:10:24Z</time>
      </trkpt>
      <trkpt lat="44.72878" lon="7.06777">
        <ele>2647.8</ele>
        <time>2026-09-02T14:10:29Z</time>
      </trkpt>
      <trkpt lat="44.72878" lon="7.06777">
        <ele>2647.8</ele>
        <time>2026-09-02T14:10:35Z</time>
      </trkpt>
      <trkpt lat="44.72878" lon="7.06777">
        <ele>2647.8</ele>
        <time>2026-09-02T14:10:40Z</time>
      </trkpt>
      <trkpt lat="44.72878" lon="7.06777">
        <ele>2647.8</ele>
        <time>2026-09-02T14:10:45Z</time>
      </trkpt>
      <trkpt lat="44.72878" lon="7.06777">
        <ele>2647.8</ele>
        <time>2026-09-02T14:10:51Z</time>
      </trkpt>
      <trkpt lat="44.72878" lon="7.06777">
        <ele>2647.8</ele>
        <time>2026-09-02T14:10:56Z</time>
      </trkpt>
      <trkpt lat="44.72878" lon="7.06777">
        <ele>2647.8</ele>
        <time>2026-09-02T14:11:01Z</time>
      </trkpt>
      <trkpt lat="44.72878" lon="7.06777">
        <ele>2647.8</ele>
        <time>2026-09-02T14:11:07Z</time>
      </trkpt>
      <trkpt lat="44.72878" lon="7.06777">
        <ele>2647.8</ele>
        <time>2026-09-02T14:11:12Z</time>
      </trkpt>
      <trkpt lat="44.72878" lon="7.06777">
        <ele>2647.8</ele>
        <time>2026-09-02T14:11:17Z</time>
      </trkpt>
      <trkpt lat="44.72878" lon="7.06777">
        <ele>2647.8</ele>
        <time>2026-09-02T14:11:23Z</time>
      </trkpt>
      <trkpt lat="44.72878" lon="7.06777">
        <ele>2647.8</ele>
        <time>2026-09-02T14:11:28Z</time>
      </trkpt>
      <trkpt lat="44.72878" lon="7.06777">
        <ele>2647.8</ele>
        <time>2026-09-02T14:11:33Z</time>
      </trkpt>
      <trkpt lat="44.72878" lon="7.06777">
        <ele>2647.8</ele>
        <time>2026-09-02T14:11:39Z</time>
      </trkpt>
      <trkpt lat="44.72878" lon="7.06777">
        <ele>2647.8</ele>
        <time>2026-09-02T14:11:44Z</time>
      </trkpt>
      <trkpt lat="44.72878" lon="7.06777">
        <ele>2647.8</ele>
        <time>2026-09-02T14:11:49Z</time>
      </trkpt>
      <trkpt lat="44.72878" lon="7.06777">
        <ele>2647.8</ele>
        <time>2026-09-02T14:11:55Z</time>
      </trkpt>
      <trkpt lat="44.72878" lon="7.06777">
        <ele>2647.8</ele>
        <time>2026-09-02T14:12:00Z</time>
      </trkpt>
      <trkpt lat="44.72873" lon="7.06759">
        <ele>2655.6</ele>
        <time>2026-09-02T14:12:05Z</time>
      </trkpt>
      <trkpt lat="44.72875" lon="7.06756">
        <ele>2655.7</ele>
        <time>2026-09-02T14:12:11Z</time>
      </trkpt>
      <trkpt lat="44.72874" lon="7.06757">
        <ele>2655.8</ele>
        <time>2026-09-02T14:12:16Z</time>
      </trkpt>
      <trkpt lat="44.72874" lon="7.06757">
        <ele>2655.8</ele>
        <time>2026-09-02T14:12:21Z</time>
      </trkpt>
      <trkpt lat="44.72874" lon="7.06757">
        <ele>2655.8</ele>
        <time>2026-09-02T14:12:27Z</time>
      </trkpt>
      <trkpt lat="44.72874" lon="7.06757">
        <ele>2655.8</ele>
        <time>2026-09-02T14:12:32Z</time>
      </trkpt>
      <trkpt lat="44.72874" lon="7.06757">
        <ele>2655.8</ele>
        <time>2026-09-02T14:12:37Z</time>
      </trkpt>
      <trkpt lat="44.72874" lon="7.06757">
        <ele>2655.8</ele>
        <time>2026-09-02T14:12:43Z</time>
      </trkpt>
      <trkpt lat="44.72874" lon="7.06757">
        <ele>2655.8</ele>
        <time>2026-09-02T14:12:48Z</time>
      </trkpt>
      <trkpt lat="44.72874" lon="7.06757">
        <ele>2655.8</ele>
        <time>2026-09-02T14:12:53Z</time>
      </trkpt>
      <trkpt lat="44.72874" lon="7.06757">
        <ele>2655.8</ele>
        <time>2026-09-02T14:12:59Z</time>
      </trkpt>
      <trkpt lat="44.72874" lon="7.06757">
        <ele>2655.8</ele>
        <time>2026-09-02T14:13:04Z</time>
      </trkpt>
      <trkpt lat="44.72874" lon="7.06757">
        <ele>2655.8</ele>
        <time>2026-09-02T14:13:09Z</time>
      </trkpt>
      <trkpt lat="44.72874" lon="7.06757">
        <ele>2655.8</ele>
        <time>2026-09-02T14:13:15Z</time>
      </trkpt>
      <trkpt lat="44.72874" lon="7.06757">
        <ele>2655.8</ele>
        <time>2026-09-02T14:13:20Z</time>
      </trkpt>
      <trkpt lat="44.72874" lon="7.06757">
        <ele>2655.8</ele>
        <time>2026-09-02T14:13:25Z</time>
      </trkpt>
      <trkpt lat="44.72874" lon="7.06757">
        <ele>2655.8</ele>
        <time>2026-09-02T14:13:31Z</time>
      </trkpt>
      <trkpt lat="44.72874" lon="7.06757">
        <ele>2655.8</ele>
        <time>2026-09-02T14:13:36Z</time>
      </trkpt>
      <trkpt lat="44.72874" lon="7.06757">
        <ele>2655.8</ele>
        <time>2026-09-02T14:13:41Z</time>
      </trkpt>
      <trkpt lat="44.72865" lon="7.06762">
        <ele>2658</ele>
        <time>2026-09-02T14:13:47Z</time>
      </trkpt>
      <trkpt lat="44.72865" lon="7.06762">
        <ele>2658</ele>
        <time>2026-09-02T14:13:52Z</time>
      </trkpt>
      <trkpt lat="44.72865" lon="7.06762">
        <ele>2658</ele>
        <time>2026-09-02T14:13:57Z</time>
      </trkpt>
      <trkpt lat="44.72865" lon="7.06762">
        <ele>2658</ele>
        <time>2026-09-02T14:14:03Z</time>
      </trkpt>
      <trkpt lat="44.72865" lon="7.06762">
        <ele>2658</ele>
        <time>2026-09-02T14:14:08Z</time>
      </trkpt>
      <trkpt lat="44.72865" lon="7.06762">
        <ele>2658</ele>
        <time>2026-09-02T14:14:13Z</time>
      </trkpt>
      <trkpt lat="44.72865" lon="7.06762">
        <ele>2658</ele>
        <time>2026-09-02T14:14:19Z</time>
      </trkpt>
      <trkpt lat="44.72865" lon="7.06762">
        <ele>2658</ele>
        <time>2026-09-02T14:14:24Z</time>
      </trkpt>
      <trkpt lat="44.72865" lon="7.06762">
        <ele>2658</ele>
        <time>2026-09-02T14:14:29Z</time>
      </trkpt>
      <trkpt lat="44.72865" lon="7.06762">
        <ele>2658</ele>
        <time>2026-09-02T14:14:35Z</time>
      </trkpt>
      <trkpt lat="44.72865" lon="7.06762">
        <ele>2658</ele>
        <time>2026-09-02T14:14:40Z</time>
      </trkpt>
      <trkpt lat="44.72865" lon="7.06762">
        <ele>2658</ele>
        <time>2026-09-02T14:14:45Z</time>
      </trkpt>
      <trkpt lat="44.72865" lon="7.06762">
        <ele>2658</ele>
        <time>2026-09-02T14:14:51Z</time>
      </trkpt>
      <trkpt lat="44.72865" lon="7.06762">
        <ele>2658</ele>
        <time>2026-09-02T14:14:56Z</time>
      </trkpt>
      <trkpt lat="44.72856" lon="7.06756">
        <ele>2663.1</ele>
        <time>2026-09-02T14:15:01Z</time>
      </trkpt>
      <trkpt lat="44.72855" lon="7.06757">
        <ele>2663.3</ele>
        <time>2026-09-02T14:15:07Z</time>
      </trkpt>
      <trkpt lat="44.72855" lon="7.06757">
        <ele>2663.3</ele>
        <time>2026-09-02T14:15:12Z</time>
      </trkpt>
      <trkpt lat="44.72855" lon="7.06757">
        <ele>2663.3</ele>
        <time>2026-09-02T14:15:17Z</time>
      </trkpt>
      <trkpt lat="44.72855" lon="7.06757">
        <ele>2663.3</ele>
        <time>2026-09-02T14:15:23Z</time>
      </trkpt>
      <trkpt lat="44.72855" lon="7.06757">
        <ele>2663.3</ele>
        <time>2026-09-02T14:15:28Z</time>
      </trkpt>
      <trkpt lat="44.72855" lon="7.06757">
        <ele>2663.3</ele>
        <time>2026-09-02T14:15:33Z</time>
      </trkpt>
      <trkpt lat="44.72851" lon="7.06761">
        <ele>2664</ele>
        <time>2026-09-02T14:15:39Z</time>
      </trkpt>
      <trkpt lat="44.72851" lon="7.06761">
        <ele>2664</ele>
        <time>2026-09-02T14:15:44Z</time>
      </trkpt>
      <trkpt lat="44.72851" lon="7.06761">
        <ele>2664</ele>
        <time>2026-09-02T14:15:49Z</time>
      </trkpt>
      <trkpt lat="44.72851" lon="7.06761">
        <ele>2664</ele>
        <time>2026-09-02T14:15:55Z</time>
      </trkpt>
      <trkpt lat="44.72851" lon="7.06761">
        <ele>2664</ele>
        <time>2026-09-02T14:16:00Z</time>
      </trkpt>
      <trkpt lat="44.72851" lon="7.06761">
        <ele>2664</ele>
        <time>2026-09-02T14:16:05Z</time>
      </trkpt>
      <trkpt lat="44.72851" lon="7.06761">
        <ele>2664</ele>
        <time>2026-09-02T14:16:11Z</time>
      </trkpt>
      <trkpt lat="44.72851" lon="7.06761">
        <ele>2664</ele>
        <time>2026-09-02T14:16:16Z</time>
      </trkpt>
      <trkpt lat="44.72851" lon="7.06761">
        <ele>2664</ele>
        <time>2026-09-02T14:16:21Z</time>
      </trkpt>
      <trkpt lat="44.72851" lon="7.06761">
        <ele>2664</ele>
        <time>2026-09-02T14:16:27Z</time>
      </trkpt>
      <trkpt lat="44.72851" lon="7.06761">
        <ele>2664</ele>
        <time>2026-09-02T14:16:32Z</time>
      </trkpt>
      <trkpt lat="44.72851" lon="7.06761">
        <ele>2664</ele>
        <time>2026-09-02T14:16:37Z</time>
      </trkpt>
      <trkpt lat="44.72851" lon="7.06761">
        <ele>2664</ele>
        <time>2026-09-02T14:16:43Z</time>
      </trkpt>
      <trkpt lat="44.72851" lon="7.06761">
        <ele>2664</ele>
        <time>2026-09-02T14:16:48Z</time>
      </trkpt>
      <trkpt lat="44.72851" lon="7.06761">
        <ele>2664</ele>
        <time>2026-09-02T14:16:53Z</time>
      </trkpt>
      <trkpt lat="44.72851" lon="7.06761">
        <ele>2664</ele>
        <time>2026-09-02T14:16:59Z</time>
      </trkpt>
      <trkpt lat="44.72851" lon="7.06761">
        <ele>2664</ele>
        <time>2026-09-02T14:17:04Z</time>
      </trkpt>
      <trkpt lat="44.72851" lon="7.06761">
        <ele>2664</ele>
        <time>2026-09-02T14:17:09Z</time>
      </trkpt>
      <trkpt lat="44.72849" lon="7.06749">
        <ele>2667.2</ele>
        <time>2026-09-02T14:17:15Z</time>
      </trkpt>
      <trkpt lat="44.72849" lon="7.06749">
        <ele>2667.2</ele>
        <time>2026-09-02T14:17:20Z</time>
      </trkpt>
      <trkpt lat="44.72849" lon="7.06749">
        <ele>2667.2</ele>
        <time>2026-09-02T14:17:25Z</time>
      </trkpt>
      <trkpt lat="44.72849" lon="7.06749">
        <ele>2667.2</ele>
        <time>2026-09-02T14:17:31Z</time>
      </trkpt>
      <trkpt lat="44.72849" lon="7.06749">
        <ele>2667.2</ele>
        <time>2026-09-02T14:17:36Z</time>
      </trkpt>
      <trkpt lat="44.72849" lon="7.06749">
        <ele>2667.2</ele>
        <time>2026-09-02T14:17:41Z</time>
      </trkpt>
      <trkpt lat="44.72849" lon="7.06749">
        <ele>2667.2</ele>
        <time>2026-09-02T14:17:47Z</time>
      </trkpt>
      <trkpt lat="44.72849" lon="7.06749">
        <ele>2667.2</ele>
        <time>2026-09-02T14:17:52Z</time>
      </trkpt>
      <trkpt lat="44.72849" lon="7.06749">
        <ele>2667.2</ele>
        <time>2026-09-02T14:17:57Z</time>
      </trkpt>
      <trkpt lat="44.72849" lon="7.06749">
        <ele>2667.2</ele>
        <time>2026-09-02T14:18:03Z</time>
      </trkpt>
      <trkpt lat="44.72849" lon="7.06749">
        <ele>2667.2</ele>
        <time>2026-09-02T14:18:08Z</time>
      </trkpt>
      <trkpt lat="44.72849" lon="7.06749">
        <ele>2667.2</ele>
        <time>2026-09-02T14:18:13Z</time>
      </trkpt>
      <trkpt lat="44.72849" lon="7.06749">
        <ele>2667.2</ele>
        <time>2026-09-02T14:18:19Z</time>
      </trkpt>
      <trkpt lat="44.72849" lon="7.06749">
        <ele>2667.2</ele>
        <time>2026-09-02T14:18:24Z</time>
      </trkpt>
      <trkpt lat="44.72849" lon="7.06749">
        <ele>2667.2</ele>
        <time>2026-09-02T14:18:29Z</time>
      </trkpt>
      <trkpt lat="44.72849" lon="7.06749">
        <ele>2667.2</ele>
        <time>2026-09-02T14:18:35Z</time>
      </trkpt>
      <trkpt lat="44.72843" lon="7.0674">
        <ele>2669.1</ele>
        <time>2026-09-02T14:18:40Z</time>
      </trkpt>
      <trkpt lat="44.72843" lon="7.0674">
        <ele>2669.1</ele>
        <time>2026-09-02T14:18:45Z</time>
      </trkpt>
      <trkpt lat="44.72843" lon="7.0674">
        <ele>2669.1</ele>
        <time>2026-09-02T14:18:51Z</time>
      </trkpt>
      <trkpt lat="44.72843" lon="7.0674">
        <ele>2669.1</ele>
        <time>2026-09-02T14:18:56Z</time>
      </trkpt>
      <trkpt lat="44.72843" lon="7.0674">
        <ele>2669.1</ele>
        <time>2026-09-02T14:19:01Z</time>
      </trkpt>
      <trkpt lat="44.72843" lon="7.0674">
        <ele>2669.1</ele>
        <time>2026-09-02T14:19:07Z</time>
      </trkpt>
      <trkpt lat="44.72843" lon="7.0674">
        <ele>2669.1</ele>
        <time>2026-09-02T14:19:12Z</time>
      </trkpt>
      <trkpt lat="44.72843" lon="7.0674">
        <ele>2669.1</ele>
        <time>2026-09-02T14:19:17Z</time>
      </trkpt>
      <trkpt lat="44.72843" lon="7.0674">
        <ele>2669.1</ele>
        <time>2026-09-02T14:19:23Z</time>
      </trkpt>
      <trkpt lat="44.72843" lon="7.0674">
        <ele>2669.1</ele>
        <time>2026-09-02T14:19:28Z</time>
      </trkpt>
      <trkpt lat="44.72843" lon="7.0674">
        <ele>2669.1</ele>
        <time>2026-09-02T14:19:33Z</time>
      </trkpt>
      <trkpt lat="44.72843" lon="7.0674">
        <ele>2669.1</ele>
        <time>2026-09-02T14:19:39Z</time>
      </trkpt>
      <trkpt lat="44.72843" lon="7.0674">
        <ele>2669.1</ele>
        <time>2026-09-02T14:19:44Z</time>
      </trkpt>
      <trkpt lat="44.72843" lon="7.0674">
        <ele>2669.1</ele>
        <time>2026-09-02T14:19:49Z</time>
      </trkpt>
      <trkpt lat="44.72843" lon="7.0674">
        <ele>2669.1</ele>
        <time>2026-09-02T14:19:55Z</time>
      </trkpt>
      <trkpt lat="44.72843" lon="7.0674">
        <ele>2669.1</ele>
        <time>2026-09-02T14:20:00Z</time>
      </trkpt>
      <trkpt lat="44.72843" lon="7.0674">
        <ele>2669.1</ele>
        <time>2026-09-02T14:20:05Z</time>
      </trkpt>
      <trkpt lat="44.72843" lon="7.0674">
        <ele>2669.1</ele>
        <time>2026-09-02T14:20:11Z</time>
      </trkpt>
      <trkpt lat="44.72843" lon="7.0674">
        <ele>2669.1</ele>
        <time>2026-09-02T14:20:16Z</time>
      </trkpt>
      <trkpt lat="44.7284" lon="7.06742">
        <ele>2670</ele>
        <time>2026-09-02T14:20:21Z</time>
      </trkpt>
      <trkpt lat="44.72838" lon="7.06741">
        <ele>2670.5</ele>
        <time>2026-09-02T14:20:27Z</time>
      </trkpt>
      <trkpt lat="44.72837" lon="7.06741">
        <ele>2670.8</ele>
        <time>2026-09-02T14:20:32Z</time>
      </trkpt>
      <trkpt lat="44.72836" lon="7.06739">
        <ele>2670.9</ele>
        <time>2026-09-02T14:20:37Z</time>
      </trkpt>
      <trkpt lat="44.72835" lon="7.06736">
        <ele>2670.8</ele>
        <time>2026-09-02T14:20:43Z</time>
      </trkpt>
      <trkpt lat="44.72835" lon="7.06736">
        <ele>2670.8</ele>
        <time>2026-09-02T14:20:48Z</time>
      </trkpt>
      <trkpt lat="44.72835" lon="7.06736">
        <ele>2670.8</ele>
        <time>2026-09-02T14:20:53Z</time>
      </trkpt>
      <trkpt lat="44.72835" lon="7.06736">
        <ele>2670.8</ele>
        <time>2026-09-02T14:20:59Z</time>
      </trkpt>
      <trkpt lat="44.72835" lon="7.06736">
        <ele>2670.8</ele>
        <time>2026-09-02T14:21:04Z</time>
      </trkpt>
      <trkpt lat="44.72835" lon="7.06736">
        <ele>2670.8</ele>
        <time>2026-09-02T14:21:09Z</time>
      </trkpt>
      <trkpt lat="44.72835" lon="7.06736">
        <ele>2670.8</ele>
        <time>2026-09-02T14:21:15Z</time>
      </trkpt>
      <trkpt lat="44.72835" lon="7.06736">
        <ele>2670.8</ele>
        <time>2026-09-02T14:21:20Z</time>
      </trkpt>
      <trkpt lat="44.72835" lon="7.06736">
        <ele>2670.8</ele>
        <time>2026-09-02T14:21:25Z</time>
      </trkpt>
      <trkpt lat="44.72832" lon="7.06729">
        <ele>2669.5</ele>
        <time>2026-09-02T14:21:31Z</time>
      </trkpt>
      <trkpt lat="44.7283" lon="7.0673">
        <ele>2668.6</ele>
        <time>2026-09-02T14:21:36Z</time>
      </trkpt>
      <trkpt lat="44.7283" lon="7.06731">
        <ele>2668.7</ele>
        <time>2026-09-02T14:21:41Z</time>
      </trkpt>
      <trkpt lat="44.7283" lon="7.06731">
        <ele>2668.7</ele>
        <time>2026-09-02T14:21:47Z</time>
      </trkpt>
      <trkpt lat="44.7283" lon="7.06731">
        <ele>2668.7</ele>
        <time>2026-09-02T14:21:52Z</time>
      </trkpt>
      <trkpt lat="44.7283" lon="7.06731">
        <ele>2668.7</ele>
        <time>2026-09-02T14:21:57Z</time>
      </trkpt>
      <trkpt lat="44.7283" lon="7.06731">
        <ele>2668.7</ele>
        <time>2026-09-02T14:22:03Z</time>
      </trkpt>
      <trkpt lat="44.7283" lon="7.06731">
        <ele>2668.7</ele>
        <time>2026-09-02T14:22:08Z</time>
      </trkpt>
      <trkpt lat="44.7283" lon="7.06731">
        <ele>2668.7</ele>
        <time>2026-09-02T14:22:13Z</time>
      </trkpt>
      <trkpt lat="44.7283" lon="7.06731">
        <ele>2668.7</ele>
        <time>2026-09-02T14:22:19Z</time>
      </trkpt>
      <trkpt lat="44.7283" lon="7.06731">
        <ele>2668.7</ele>
        <time>2026-09-02T14:22:24Z</time>
      </trkpt>
      <trkpt lat="44.7283" lon="7.06731">
        <ele>2668.7</ele>
        <time>2026-09-02T14:22:29Z</time>
      </trkpt>
      <trkpt lat="44.7283" lon="7.06731">
        <ele>2668.7</ele>
        <time>2026-09-02T14:22:35Z</time>
      </trkpt>
      <trkpt lat="44.7283" lon="7.06731">
        <ele>2668.7</ele>
        <time>2026-09-02T14:22:40Z</time>
      </trkpt>
      <trkpt lat="44.7283" lon="7.06731">
        <ele>2668.7</ele>
        <time>2026-09-02T14:22:45Z</time>
      </trkpt>
      <trkpt lat="44.7283" lon="7.06731">
        <ele>2668.7</ele>
        <time>2026-09-02T14:22:51Z</time>
      </trkpt>
      <trkpt lat="44.7283" lon="7.06731">
        <ele>2668.7</ele>
        <time>2026-09-02T14:22:56Z</time>
      </trkpt>
      <trkpt lat="44.7283" lon="7.06731">
        <ele>2668.7</ele>
        <time>2026-09-02T14:23:01Z</time>
      </trkpt>
      <trkpt lat="44.7283" lon="7.06731">
        <ele>2668.7</ele>
        <time>2026-09-02T14:23:07Z</time>
      </trkpt>
      <trkpt lat="44.7283" lon="7.06731">
        <ele>2668.7</ele>
        <time>2026-09-02T14:23:12Z</time>
      </trkpt>
      <trkpt lat="44.7283" lon="7.06731">
        <ele>2668.7</ele>
        <time>2026-09-02T14:23:17Z</time>
      </trkpt>
      <trkpt lat="44.7283" lon="7.06731">
        <ele>2668.7</ele>
        <time>2026-09-02T14:23:23Z</time>
      </trkpt>
      <trkpt lat="44.7283" lon="7.06731">
        <ele>2668.7</ele>
        <time>2026-09-02T14:23:28Z</time>
      </trkpt>
      <trkpt lat="44.7283" lon="7.06731">
        <ele>2668.7</ele>
        <time>2026-09-02T14:23:33Z</time>
      </trkpt>
      <trkpt lat="44.7283" lon="7.06731">
        <ele>2668.7</ele>
        <time>2026-09-02T14:23:39Z</time>
      </trkpt>
      <trkpt lat="44.72819" lon="7.06733">
        <ele>2663.2</ele>
        <time>2026-09-02T14:23:44Z</time>
      </trkpt>
      <trkpt lat="44.72819" lon="7.06733">
        <ele>2663.2</ele>
        <time>2026-09-02T14:23:49Z</time>
      </trkpt>
      <trkpt lat="44.72819" lon="7.06733">
        <ele>2663.2</ele>
        <time>2026-09-02T14:23:55Z</time>
      </trkpt>
      <trkpt lat="44.72819" lon="7.06733">
        <ele>2663.2</ele>
        <time>2026-09-02T14:24:00Z</time>
      </trkpt>
      <trkpt lat="44.72819" lon="7.06733">
        <ele>2663.2</ele>
        <time>2026-09-02T14:24:05Z</time>
      </trkpt>
      <trkpt lat="44.72819" lon="7.06733">
        <ele>2663.2</ele>
        <time>2026-09-02T14:24:11Z</time>
      </trkpt>
      <trkpt lat="44.72819" lon="7.06733">
        <ele>2663.2</ele>
        <time>2026-09-02T14:24:16Z</time>
      </trkpt>
      <trkpt lat="44.72819" lon="7.06733">
        <ele>2663.2</ele>
        <time>2026-09-02T14:24:21Z</time>
      </trkpt>
      <trkpt lat="44.72819" lon="7.06733">
        <ele>2663.2</ele>
        <time>2026-09-02T14:24:27Z</time>
      </trkpt>
      <trkpt lat="44.72819" lon="7.06733">
        <ele>2663.2</ele>
        <time>2026-09-02T14:24:32Z</time>
      </trkpt>
      <trkpt lat="44.72819" lon="7.06733">
        <ele>2663.2</ele>
        <time>2026-09-02T14:24:37Z</time>
      </trkpt>
      <trkpt lat="44.72822" lon="7.06747">
        <ele>2666.8</ele>
        <time>2026-09-02T14:24:43Z</time>
      </trkpt>
      <trkpt lat="44.72822" lon="7.06747">
        <ele>2666.8</ele>
        <time>2026-09-02T14:24:48Z</time>
      </trkpt>
      <trkpt lat="44.72822" lon="7.06747">
        <ele>2666.8</ele>
        <time>2026-09-02T14:24:53Z</time>
      </trkpt>
      <trkpt lat="44.72822" lon="7.06747">
        <ele>2666.8</ele>
        <time>2026-09-02T14:24:59Z</time>
      </trkpt>
      <trkpt lat="44.72822" lon="7.06747">
        <ele>2666.8</ele>
        <time>2026-09-02T14:25:04Z</time>
      </trkpt>
      <trkpt lat="44.72822" lon="7.06747">
        <ele>2666.8</ele>
        <time>2026-09-02T14:25:09Z</time>
      </trkpt>
      <trkpt lat="44.72822" lon="7.06747">
        <ele>2666.8</ele>
        <time>2026-09-02T14:25:15Z</time>
      </trkpt>
      <trkpt lat="44.72822" lon="7.06747">
        <ele>2666.8</ele>
        <time>2026-09-02T14:25:20Z</time>
      </trkpt>
      <trkpt lat="44.72822" lon="7.06747">
        <ele>2666.8</ele>
        <time>2026-09-02T14:25:25Z</time>
      </trkpt>
      <trkpt lat="44.72822" lon="7.06747">
        <ele>2666.8</ele>
        <time>2026-09-02T14:25:31Z</time>
      </trkpt>
      <trkpt lat="44.72822" lon="7.06747">
        <ele>2666.8</ele>
        <time>2026-09-02T14:25:36Z</time>
      </trkpt>
      <trkpt lat="44.72822" lon="7.06747">
        <ele>2666.8</ele>
        <time>2026-09-02T14:25:41Z</time>
      </trkpt>
      <trkpt lat="44.72822" lon="7.06747">
        <ele>2666.8</ele>
        <time>2026-09-02T14:25:47Z</time>
      </trkpt>
      <trkpt lat="44.72822" lon="7.06747">
        <ele>2666.8</ele>
        <time>2026-09-02T14:25:52Z</time>
      </trkpt>
      <trkpt lat="44.72822" lon="7.06747">
        <ele>2666.8</ele>
        <time>2026-09-02T14:25:57Z</time>
      </trkpt>
      <trkpt lat="44.72822" lon="7.06747">
        <ele>2666.8</ele>
        <time>2026-09-02T14:26:03Z</time>
      </trkpt>
      <trkpt lat="44.72822" lon="7.06747">
        <ele>2666.8</ele>
        <time>2026-09-02T14:26:08Z</time>
      </trkpt>
      <trkpt lat="44.72822" lon="7.06747">
        <ele>2666.8</ele>
        <time>2026-09-02T14:26:13Z</time>
      </trkpt>
      <trkpt lat="44.72822" lon="7.06747">
        <ele>2666.8</ele>
        <time>2026-09-02T14:26:19Z</time>
      </trkpt>
      <trkpt lat="44.72822" lon="7.06747">
        <ele>2666.8</ele>
        <time>2026-09-02T14:26:24Z</time>
      </trkpt>
      <trkpt lat="44.72822" lon="7.06747">
        <ele>2666.8</ele>
        <time>2026-09-02T14:26:29Z</time>
      </trkpt>
      <trkpt lat="44.72822" lon="7.06747">
        <ele>2666.8</ele>
        <time>2026-09-02T14:26:35Z</time>
      </trkpt>
      <trkpt lat="44.72822" lon="7.06747">
        <ele>2666.8</ele>
        <time>2026-09-02T14:26:40Z</time>
      </trkpt>
      <trkpt lat="44.72815" lon="7.06756">
        <ele>2663.3</ele>
        <time>2026-09-02T14:26:45Z</time>
      </trkpt>
      <trkpt lat="44.72815" lon="7.06756">
        <ele>2663.3</ele>
        <time>2026-09-02T14:26:51Z</time>
      </trkpt>
      <trkpt lat="44.72815" lon="7.06756">
        <ele>2663.3</ele>
        <time>2026-09-02T14:26:56Z</time>
      </trkpt>
      <trkpt lat="44.72815" lon="7.06756">
        <ele>2663.3</ele>
        <time>2026-09-02T14:27:01Z</time>
      </trkpt>
      <trkpt lat="44.72815" lon="7.06756">
        <ele>2663.3</ele>
        <time>2026-09-02T14:27:07Z</time>
      </trkpt>
      <trkpt lat="44.72815" lon="7.06756">
        <ele>2663.3</ele>
        <time>2026-09-02T14:27:12Z</time>
      </trkpt>
      <trkpt lat="44.72815" lon="7.06756">
        <ele>2663.3</ele>
        <time>2026-09-02T14:27:17Z</time>
      </trkpt>
      <trkpt lat="44.72815" lon="7.06756">
        <ele>2663.3</ele>
        <time>2026-09-02T14:27:23Z</time>
      </trkpt>
      <trkpt lat="44.72815" lon="7.06756">
        <ele>2663.3</ele>
        <time>2026-09-02T14:27:28Z</time>
      </trkpt>
      <trkpt lat="44.72815" lon="7.06756">
        <ele>2663.3</ele>
        <time>2026-09-02T14:27:33Z</time>
      </trkpt>
      <trkpt lat="44.72815" lon="7.06756">
        <ele>2663.3</ele>
        <time>2026-09-02T14:27:39Z</time>
      </trkpt>
      <trkpt lat="44.72815" lon="7.06756">
        <ele>2663.3</ele>
        <time>2026-09-02T14:27:44Z</time>
      </trkpt>
      <trkpt lat="44.72815" lon="7.06756">
        <ele>2663.3</ele>
        <time>2026-09-02T14:27:49Z</time>
      </trkpt>
      <trkpt lat="44.72812" lon="7.06769">
        <ele>2661.2</ele>
        <time>2026-09-02T14:27:55Z</time>
      </trkpt>
      <trkpt lat="44.72812" lon="7.0677">
        <ele>2661.2</ele>
        <time>2026-09-02T14:28:00Z</time>
      </trkpt>
      <trkpt lat="44.72812" lon="7.0677">
        <ele>2661.2</ele>
        <time>2026-09-02T14:28:05Z</time>
      </trkpt>
      <trkpt lat="44.72812" lon="7.0677">
        <ele>2661.2</ele>
        <time>2026-09-02T14:28:11Z</time>
      </trkpt>
      <trkpt lat="44.72812" lon="7.0677">
        <ele>2661.2</ele>
        <time>2026-09-02T14:28:16Z</time>
      </trkpt>
      <trkpt lat="44.72812" lon="7.0677">
        <ele>2661.2</ele>
        <time>2026-09-02T14:28:21Z</time>
      </trkpt>
      <trkpt lat="44.72812" lon="7.0677">
        <ele>2661.2</ele>
        <time>2026-09-02T14:28:27Z</time>
      </trkpt>
      <trkpt lat="44.72812" lon="7.0677">
        <ele>2661.2</ele>
        <time>2026-09-02T14:28:32Z</time>
      </trkpt>
      <trkpt lat="44.72812" lon="7.0677">
        <ele>2661.2</ele>
        <time>2026-09-02T14:28:37Z</time>
      </trkpt>
      <trkpt lat="44.72806" lon="7.0678">
        <ele>2658.4</ele>
        <time>2026-09-02T14:28:43Z</time>
      </trkpt>
      <trkpt lat="44.72806" lon="7.0678">
        <ele>2658.4</ele>
        <time>2026-09-02T14:28:48Z</time>
      </trkpt>
      <trkpt lat="44.72806" lon="7.0678">
        <ele>2658.4</ele>
        <time>2026-09-02T14:28:53Z</time>
      </trkpt>
      <trkpt lat="44.72806" lon="7.0678">
        <ele>2658.4</ele>
        <time>2026-09-02T14:28:59Z</time>
      </trkpt>
      <trkpt lat="44.72806" lon="7.0678">
        <ele>2658.4</ele>
        <time>2026-09-02T14:29:04Z</time>
      </trkpt>
      <trkpt lat="44.72806" lon="7.0678">
        <ele>2658.4</ele>
        <time>2026-09-02T14:29:09Z</time>
      </trkpt>
      <trkpt lat="44.72806" lon="7.0678">
        <ele>2658.4</ele>
        <time>2026-09-02T14:29:15Z</time>
      </trkpt>
      <trkpt lat="44.72806" lon="7.0678">
        <ele>2658.4</ele>
        <time>2026-09-02T14:29:20Z</time>
      </trkpt>
      <trkpt lat="44.72806" lon="7.0678">
        <ele>2658.4</ele>
        <time>2026-09-02T14:29:25Z</time>
      </trkpt>
      <trkpt lat="44.72806" lon="7.0678">
        <ele>2658.4</ele>
        <time>2026-09-02T14:29:31Z</time>
      </trkpt>
      <trkpt lat="44.72806" lon="7.0678">
        <ele>2658.4</ele>
        <time>2026-09-02T14:29:36Z</time>
      </trkpt>
      <trkpt lat="44.72806" lon="7.0678">
        <ele>2658.4</ele>
        <time>2026-09-02T14:29:41Z</time>
      </trkpt>
      <trkpt lat="44.72806" lon="7.0678">
        <ele>2658.4</ele>
        <time>2026-09-02T14:29:47Z</time>
      </trkpt>
      <trkpt lat="44.72806" lon="7.0678">
        <ele>2658.4</ele>
        <time>2026-09-02T14:29:52Z</time>
      </trkpt>
      <trkpt lat="44.72806" lon="7.0678">
        <ele>2658.4</ele>
        <time>2026-09-02T14:29:57Z</time>
      </trkpt>
      <trkpt lat="44.72799" lon="7.06779">
        <ele>2655.9</ele>
        <time>2026-09-02T14:30:03Z</time>
      </trkpt>
      <trkpt lat="44.72799" lon="7.06779">
        <ele>2655.9</ele>
        <time>2026-09-02T14:30:08Z</time>
      </trkpt>
      <trkpt lat="44.72799" lon="7.06779">
        <ele>2655.9</ele>
        <time>2026-09-02T14:30:13Z</time>
      </trkpt>
      <trkpt lat="44.72799" lon="7.06779">
        <ele>2655.9</ele>
        <time>2026-09-02T14:30:19Z</time>
      </trkpt>
      <trkpt lat="44.72799" lon="7.06779">
        <ele>2655.9</ele>
        <time>2026-09-02T14:30:24Z</time>
      </trkpt>
      <trkpt lat="44.72799" lon="7.06779">
        <ele>2655.9</ele>
        <time>2026-09-02T14:30:29Z</time>
      </trkpt>
      <trkpt lat="44.72799" lon="7.06779">
        <ele>2655.9</ele>
        <time>2026-09-02T14:30:35Z</time>
      </trkpt>
      <trkpt lat="44.72799" lon="7.06779">
        <ele>2655.9</ele>
        <time>2026-09-02T14:30:40Z</time>
      </trkpt>
      <trkpt lat="44.72799" lon="7.06779">
        <ele>2655.9</ele>
        <time>2026-09-02T14:30:45Z</time>
      </trkpt>
      <trkpt lat="44.72799" lon="7.06779">
        <ele>2655.9</ele>
        <time>2026-09-02T14:30:51Z</time>
      </trkpt>
      <trkpt lat="44.72799" lon="7.06779">
        <ele>2655.9</ele>
        <time>2026-09-02T14:30:56Z</time>
      </trkpt>
      <trkpt lat="44.72799" lon="7.06779">
        <ele>2655.9</ele>
        <time>2026-09-02T14:31:01Z</time>
      </trkpt>
      <trkpt lat="44.72799" lon="7.06779">
        <ele>2655.9</ele>
        <time>2026-09-02T14:31:07Z</time>
      </trkpt>
      <trkpt lat="44.72799" lon="7.06779">
        <ele>2655.9</ele>
        <time>2026-09-02T14:31:12Z</time>
      </trkpt>
      <trkpt lat="44.72799" lon="7.06779">
        <ele>2655.9</ele>
        <time>2026-09-02T14:31:17Z</time>
      </trkpt>
      <trkpt lat="44.72799" lon="7.06779">
        <ele>2655.9</ele>
        <time>2026-09-02T14:31:23Z</time>
      </trkpt>
      <trkpt lat="44.72799" lon="7.06779">
        <ele>2655.9</ele>
        <time>2026-09-02T14:31:28Z</time>
      </trkpt>
      <trkpt lat="44.72799" lon="7.06779">
        <ele>2655.9</ele>
        <time>2026-09-02T14:31:33Z</time>
      </trkpt>
      <trkpt lat="44.72791" lon="7.06776">
        <ele>2652.8</ele>
        <time>2026-09-02T14:31:39Z</time>
      </trkpt>
      <trkpt lat="44.7279" lon="7.06775">
        <ele>2652.4</ele>
        <time>2026-09-02T14:31:44Z</time>
      </trkpt>
      <trkpt lat="44.7279" lon="7.06775">
        <ele>2652.4</ele>
        <time>2026-09-02T14:31:49Z</time>
      </trkpt>
      <trkpt lat="44.7279" lon="7.06775">
        <ele>2652.4</ele>
        <time>2026-09-02T14:31:55Z</time>
      </trkpt>
      <trkpt lat="44.7279" lon="7.06775">
        <ele>2652.4</ele>
        <time>2026-09-02T14:32:00Z</time>
      </trkpt>
      <trkpt lat="44.7279" lon="7.06775">
        <ele>2652.4</ele>
        <time>2026-09-02T14:32:05Z</time>
      </trkpt>
      <trkpt lat="44.7279" lon="7.06775">
        <ele>2652.4</ele>
        <time>2026-09-02T14:32:11Z</time>
      </trkpt>
      <trkpt lat="44.72787" lon="7.06767">
        <ele>2650.7</ele>
        <time>2026-09-02T14:32:16Z</time>
      </trkpt>
      <trkpt lat="44.72785" lon="7.06764">
        <ele>2649.7</ele>
        <time>2026-09-02T14:32:21Z</time>
      </trkpt>
      <trkpt lat="44.72784" lon="7.06765">
        <ele>2649.3</ele>
        <time>2026-09-02T14:32:27Z</time>
      </trkpt>
      <trkpt lat="44.72784" lon="7.06765">
        <ele>2649.3</ele>
        <time>2026-09-02T14:32:32Z</time>
      </trkpt>
      <trkpt lat="44.72784" lon="7.06765">
        <ele>2649.3</ele>
        <time>2026-09-02T14:32:37Z</time>
      </trkpt>
      <trkpt lat="44.72784" lon="7.06765">
        <ele>2649.3</ele>
        <time>2026-09-02T14:32:43Z</time>
      </trkpt>
      <trkpt lat="44.72784" lon="7.06765">
        <ele>2649.3</ele>
        <time>2026-09-02T14:32:48Z</time>
      </trkpt>
      <trkpt lat="44.72784" lon="7.06765">
        <ele>2649.3</ele>
        <time>2026-09-02T14:32:53Z</time>
      </trkpt>
      <trkpt lat="44.72784" lon="7.06765">
        <ele>2649.3</ele>
        <time>2026-09-02T14:32:59Z</time>
      </trkpt>
      <trkpt lat="44.72784" lon="7.06765">
        <ele>2649.3</ele>
        <time>2026-09-02T14:33:04Z</time>
      </trkpt>
      <trkpt lat="44.72784" lon="7.06765">
        <ele>2649.3</ele>
        <time>2026-09-02T14:33:09Z</time>
      </trkpt>
      <trkpt lat="44.72784" lon="7.06765">
        <ele>2649.3</ele>
        <time>2026-09-02T14:33:15Z</time>
      </trkpt>
      <trkpt lat="44.72784" lon="7.06765">
        <ele>2649.3</ele>
        <time>2026-09-02T14:33:20Z</time>
      </trkpt>
      <trkpt lat="44.72784" lon="7.06765">
        <ele>2649.3</ele>
        <time>2026-09-02T14:33:25Z</time>
      </trkpt>
      <trkpt lat="44.72784" lon="7.06765">
        <ele>2649.3</ele>
        <time>2026-09-02T14:33:31Z</time>
      </trkpt>
      <trkpt lat="44.72784" lon="7.06765">
        <ele>2649.3</ele>
        <time>2026-09-02T14:33:36Z</time>
      </trkpt>
      <trkpt lat="44.72784" lon="7.06765">
        <ele>2649.3</ele>
        <time>2026-09-02T14:33:41Z</time>
      </trkpt>
      <trkpt lat="44.72784" lon="7.06765">
        <ele>2649.3</ele>
        <time>2026-09-02T14:33:47Z</time>
      </trkpt>
      <trkpt lat="44.72784" lon="7.06765">
        <ele>2649.3</ele>
        <time>2026-09-02T14:33:52Z</time>
      </trkpt>
      <trkpt lat="44.72784" lon="7.06765">
        <ele>2649.3</ele>
        <time>2026-09-02T14:33:57Z</time>
      </trkpt>
      <trkpt lat="44.72784" lon="7.06765">
        <ele>2649.3</ele>
        <time>2026-09-02T14:34:03Z</time>
      </trkpt>
      <trkpt lat="44.72784" lon="7.06765">
        <ele>2649.3</ele>
        <time>2026-09-02T14:34:08Z</time>
      </trkpt>
      <trkpt lat="44.72784" lon="7.06765">
        <ele>2649.3</ele>
        <time>2026-09-02T14:34:13Z</time>
      </trkpt>
      <trkpt lat="44.72784" lon="7.06765">
        <ele>2649.3</ele>
        <time>2026-09-02T14:34:19Z</time>
      </trkpt>
      <trkpt lat="44.72784" lon="7.06765">
        <ele>2649.3</ele>
        <time>2026-09-02T14:34:24Z</time>
      </trkpt>
      <trkpt lat="44.72784" lon="7.06765">
        <ele>2649.3</ele>
        <time>2026-09-02T14:34:29Z</time>
      </trkpt>
      <trkpt lat="44.72779" lon="7.06768">
        <ele>2647.5</ele>
        <time>2026-09-02T14:34:35Z</time>
      </trkpt>
      <trkpt lat="44.72779" lon="7.06769">
        <ele>2647.6</ele>
        <time>2026-09-02T14:34:40Z</time>
      </trkpt>
      <trkpt lat="44.72779" lon="7.06769">
        <ele>2647.6</ele>
        <time>2026-09-02T14:34:45Z</time>
      </trkpt>
      <trkpt lat="44.72779" lon="7.06769">
        <ele>2647.6</ele>
        <time>2026-09-02T14:34:51Z</time>
      </trkpt>
      <trkpt lat="44.72779" lon="7.06769">
        <ele>2647.6</ele>
        <time>2026-09-02T14:34:56Z</time>
      </trkpt>
      <trkpt lat="44.72779" lon="7.06769">
        <ele>2647.6</ele>
        <time>2026-09-02T14:35:01Z</time>
      </trkpt>
      <trkpt lat="44.72779" lon="7.06769">
        <ele>2647.6</ele>
        <time>2026-09-02T14:35:07Z</time>
      </trkpt>
      <trkpt lat="44.72779" lon="7.06769">
        <ele>2647.6</ele>
        <time>2026-09-02T14:35:12Z</time>
      </trkpt>
      <trkpt lat="44.72779" lon="7.06769">
        <ele>2647.6</ele>
        <time>2026-09-02T14:35:17Z</time>
      </trkpt>
      <trkpt lat="44.72779" lon="7.06769">
        <ele>2647.6</ele>
        <time>2026-09-02T14:35:23Z</time>
      </trkpt>
      <trkpt lat="44.72772" lon="7.06771">
        <ele>2644.9</ele>
        <time>2026-09-02T14:35:28Z</time>
      </trkpt>
      <trkpt lat="44.7277" lon="7.0677">
        <ele>2644</ele>
        <time>2026-09-02T14:35:33Z</time>
      </trkpt>
      <trkpt lat="44.7277" lon="7.06768">
        <ele>2643.7</ele>
        <time>2026-09-02T14:35:39Z</time>
      </trkpt>
      <trkpt lat="44.7277" lon="7.06768">
        <ele>2643.7</ele>
        <time>2026-09-02T14:35:44Z</time>
      </trkpt>
      <trkpt lat="44.72766" lon="7.06766">
        <ele>2641.7</ele>
        <time>2026-09-02T14:35:49Z</time>
      </trkpt>
      <trkpt lat="44.72766" lon="7.06766">
        <ele>2641.7</ele>
        <time>2026-09-02T14:35:55Z</time>
      </trkpt>
      <trkpt lat="44.72766" lon="7.06766">
        <ele>2641.7</ele>
        <time>2026-09-02T14:36:00Z</time>
      </trkpt>
      <trkpt lat="44.72766" lon="7.06766">
        <ele>2641.7</ele>
        <time>2026-09-02T14:36:05Z</time>
      </trkpt>
      <trkpt lat="44.72766" lon="7.06766">
        <ele>2641.7</ele>
        <time>2026-09-02T14:36:11Z</time>
      </trkpt>
      <trkpt lat="44.72766" lon="7.06766">
        <ele>2641.7</ele>
        <time>2026-09-02T14:36:16Z</time>
      </trkpt>
      <trkpt lat="44.72766" lon="7.06766">
        <ele>2641.7</ele>
        <time>2026-09-02T14:36:21Z</time>
      </trkpt>
      <trkpt lat="44.72757" lon="7.06767">
        <ele>2638</ele>
        <time>2026-09-02T14:36:27Z</time>
      </trkpt>
      <trkpt lat="44.72757" lon="7.06766">
        <ele>2637.8</ele>
        <time>2026-09-02T14:36:32Z</time>
      </trkpt>
      <trkpt lat="44.72757" lon="7.06766">
        <ele>2637.8</ele>
        <time>2026-09-02T14:36:37Z</time>
      </trkpt>
      <trkpt lat="44.72757" lon="7.06766">
        <ele>2637.8</ele>
        <time>2026-09-02T14:36:43Z</time>
      </trkpt>
      <trkpt lat="44.72757" lon="7.06766">
        <ele>2637.8</ele>
        <time>2026-09-02T14:36:48Z</time>
      </trkpt>
      <trkpt lat="44.72757" lon="7.06766">
        <ele>2637.8</ele>
        <time>2026-09-02T14:36:53Z</time>
      </trkpt>
      <trkpt lat="44.72757" lon="7.06766">
        <ele>2637.8</ele>
        <time>2026-09-02T14:36:59Z</time>
      </trkpt>
      <trkpt lat="44.72757" lon="7.06766">
        <ele>2637.8</ele>
        <time>2026-09-02T14:37:04Z</time>
      </trkpt>
      <trkpt lat="44.72757" lon="7.06766">
        <ele>2637.8</ele>
        <time>2026-09-02T14:37:09Z</time>
      </trkpt>
      <trkpt lat="44.72757" lon="7.06766">
        <ele>2637.8</ele>
        <time>2026-09-02T14:37:15Z</time>
      </trkpt>
      <trkpt lat="44.72757" lon="7.06766">
        <ele>2637.8</ele>
        <time>2026-09-02T14:37:20Z</time>
      </trkpt>
      <trkpt lat="44.72757" lon="7.06766">
        <ele>2637.8</ele>
        <time>2026-09-02T14:37:25Z</time>
      </trkpt>
      <trkpt lat="44.72746" lon="7.06768">
        <ele>2633.6</ele>
        <time>2026-09-02T14:37:31Z</time>
      </trkpt>
      <trkpt lat="44.72746" lon="7.06768">
        <ele>2633.6</ele>
        <time>2026-09-02T14:37:36Z</time>
      </trkpt>
      <trkpt lat="44.72746" lon="7.06768">
        <ele>2633.6</ele>
        <time>2026-09-02T14:37:41Z</time>
      </trkpt>
      <trkpt lat="44.72746" lon="7.06768">
        <ele>2633.6</ele>
        <time>2026-09-02T14:37:47Z</time>
      </trkpt>
      <trkpt lat="44.72746" lon="7.06768">
        <ele>2633.6</ele>
        <time>2026-09-02T14:37:52Z</time>
      </trkpt>
      <trkpt lat="44.72737" lon="7.06769">
        <ele>2630</ele>
        <time>2026-09-02T14:37:57Z</time>
      </trkpt>
      <trkpt lat="44.72736" lon="7.06772">
        <ele>2630.4</ele>
        <time>2026-09-02T14:38:03Z</time>
      </trkpt>
      <trkpt lat="44.72733" lon="7.06771">
        <ele>2628.9</ele>
        <time>2026-09-02T14:38:08Z</time>
      </trkpt>
      <trkpt lat="44.72731" lon="7.06772">
        <ele>2628.3</ele>
        <time>2026-09-02T14:38:13Z</time>
      </trkpt>
      <trkpt lat="44.7273" lon="7.06772">
        <ele>2627.8</ele>
        <time>2026-09-02T14:38:19Z</time>
      </trkpt>
      <trkpt lat="44.72727" lon="7.06775">
        <ele>2627.4</ele>
        <time>2026-09-02T14:38:24Z</time>
      </trkpt>
      <trkpt lat="44.72724" lon="7.06779">
        <ele>2627.2</ele>
        <time>2026-09-02T14:38:29Z</time>
      </trkpt>
      <trkpt lat="44.7272" lon="7.0678">
        <ele>2625.8</ele>
        <time>2026-09-02T14:38:35Z</time>
      </trkpt>
      <trkpt lat="44.72717" lon="7.06782">
        <ele>2625.1</ele>
        <time>2026-09-02T14:38:40Z</time>
      </trkpt>
      <trkpt lat="44.72715" lon="7.06783">
        <ele>2624.5</ele>
        <time>2026-09-02T14:38:45Z</time>
      </trkpt>
      <trkpt lat="44.72712" lon="7.06788">
        <ele>2624.7</ele>
        <time>2026-09-02T14:38:51Z</time>
      </trkpt>
      <trkpt lat="44.72713" lon="7.06792">
        <ele>2626.2</ele>
        <time>2026-09-02T14:38:56Z</time>
      </trkpt>
      <trkpt lat="44.72713" lon="7.06792">
        <ele>2626.2</ele>
        <time>2026-09-02T14:39:01Z</time>
      </trkpt>
      <trkpt lat="44.72713" lon="7.06792">
        <ele>2626.2</ele>
        <time>2026-09-02T14:39:07Z</time>
      </trkpt>
      <trkpt lat="44.72713" lon="7.06792">
        <ele>2626.2</ele>
        <time>2026-09-02T14:39:12Z</time>
      </trkpt>
      <trkpt lat="44.72713" lon="7.06792">
        <ele>2626.2</ele>
        <time>2026-09-02T14:39:17Z</time>
      </trkpt>
      <trkpt lat="44.72713" lon="7.06792">
        <ele>2626.2</ele>
        <time>2026-09-02T14:39:23Z</time>
      </trkpt>
      <trkpt lat="44.72707" lon="7.06784">
        <ele>2621.5</ele>
        <time>2026-09-02T14:39:28Z</time>
      </trkpt>
      <trkpt lat="44.72706" lon="7.0678">
        <ele>2620</ele>
        <time>2026-09-02T14:39:33Z</time>
      </trkpt>
      <trkpt lat="44.72706" lon="7.06777">
        <ele>2619.1</ele>
        <time>2026-09-02T14:39:39Z</time>
      </trkpt>
      <trkpt lat="44.72707" lon="7.06775">
        <ele>2619</ele>
        <time>2026-09-02T14:39:44Z</time>
      </trkpt>
      <trkpt lat="44.72708" lon="7.06773">
        <ele>2618.8</ele>
        <time>2026-09-02T14:39:49Z</time>
      </trkpt>
      <trkpt lat="44.72708" lon="7.06767">
        <ele>2617.2</ele>
        <time>2026-09-02T14:39:55Z</time>
      </trkpt>
      <trkpt lat="44.72707" lon="7.06764">
        <ele>2615.9</ele>
        <time>2026-09-02T14:40:00Z</time>
      </trkpt>
      <trkpt lat="44.72708" lon="7.06762">
        <ele>2615.7</ele>
        <time>2026-09-02T14:40:05Z</time>
      </trkpt>
      <trkpt lat="44.72709" lon="7.06763">
        <ele>2616.5</ele>
        <time>2026-09-02T14:40:11Z</time>
      </trkpt>
      <trkpt lat="44.72709" lon="7.06763">
        <ele>2616.5</ele>
        <time>2026-09-02T14:40:16Z</time>
      </trkpt>
      <trkpt lat="44.72709" lon="7.06763">
        <ele>2616.5</ele>
        <time>2026-09-02T14:40:21Z</time>
      </trkpt>
      <trkpt lat="44.72709" lon="7.06763">
        <ele>2616.5</ele>
        <time>2026-09-02T14:40:27Z</time>
      </trkpt>
      <trkpt lat="44.72711" lon="7.06753">
        <ele>2614.5</ele>
        <time>2026-09-02T14:40:32Z</time>
      </trkpt>
      <trkpt lat="44.7271" lon="7.0675">
        <ele>2613.2</ele>
        <time>2026-09-02T14:40:37Z</time>
      </trkpt>
      <trkpt lat="44.72711" lon="7.06747">
        <ele>2613.1</ele>
        <time>2026-09-02T14:40:43Z</time>
      </trkpt>
      <trkpt lat="44.72714" lon="7.06745">
        <ele>2614</ele>
        <time>2026-09-02T14:40:48Z</time>
      </trkpt>
      <trkpt lat="44.72716" lon="7.06742">
        <ele>2614.3</ele>
        <time>2026-09-02T14:40:53Z</time>
      </trkpt>
      <trkpt lat="44.72717" lon="7.06738">
        <ele>2613.9</ele>
        <time>2026-09-02T14:40:59Z</time>
      </trkpt>
      <trkpt lat="44.72718" lon="7.06733">
        <ele>2613.3</ele>
        <time>2026-09-02T14:41:04Z</time>
      </trkpt>
      <trkpt lat="44.7272" lon="7.06727">
        <ele>2612.9</ele>
        <time>2026-09-02T14:41:09Z</time>
      </trkpt>
      <trkpt lat="44.72722" lon="7.06721">
        <ele>2612.4</ele>
        <time>2026-09-02T14:41:15Z</time>
      </trkpt>
      <trkpt lat="44.72722" lon="7.06717">
        <ele>2611.6</ele>
        <time>2026-09-02T14:41:20Z</time>
      </trkpt>
      <trkpt lat="44.72723" lon="7.06713">
        <ele>2611.1</ele>
        <time>2026-09-02T14:41:25Z</time>
      </trkpt>
      <trkpt lat="44.72725" lon="7.06709">
        <ele>2611.1</ele>
        <time>2026-09-02T14:41:31Z</time>
      </trkpt>
      <trkpt lat="44.72726" lon="7.06703">
        <ele>2610.2</ele>
        <time>2026-09-02T14:41:36Z</time>
      </trkpt>
      <trkpt lat="44.72725" lon="7.06699">
        <ele>2608.9</ele>
        <time>2026-09-02T14:41:41Z</time>
      </trkpt>
      <trkpt lat="44.72723" lon="7.06695">
        <ele>2607.3</ele>
        <time>2026-09-02T14:41:47Z</time>
      </trkpt>
      <trkpt lat="44.72723" lon="7.06693">
        <ele>2606.9</ele>
        <time>2026-09-02T14:41:52Z</time>
      </trkpt>
      <trkpt lat="44.72723" lon="7.0669">
        <ele>2606.2</ele>
        <time>2026-09-02T14:41:57Z</time>
      </trkpt>
      <trkpt lat="44.72726" lon="7.06687">
        <ele>2606.7</ele>
        <time>2026-09-02T14:42:03Z</time>
      </trkpt>
      <trkpt lat="44.72728" lon="7.06684">
        <ele>2606.9</ele>
        <time>2026-09-02T14:42:08Z</time>
      </trkpt>
      <trkpt lat="44.72728" lon="7.06678">
        <ele>2605.5</ele>
        <time>2026-09-02T14:42:13Z</time>
      </trkpt>
      <trkpt lat="44.72729" lon="7.06672">
        <ele>2604.6</ele>
        <time>2026-09-02T14:42:19Z</time>
      </trkpt>
      <trkpt lat="44.72728" lon="7.06668">
        <ele>2603.4</ele>
        <time>2026-09-02T14:42:24Z</time>
      </trkpt>
      <trkpt lat="44.72729" lon="7.06663">
        <ele>2603</ele>
        <time>2026-09-02T14:42:29Z</time>
      </trkpt>
      <trkpt lat="44.72732" lon="7.06659">
        <ele>2603.7</ele>
        <time>2026-09-02T14:42:35Z</time>
      </trkpt>
      <trkpt lat="44.72733" lon="7.06652">
        <ele>2603.3</ele>
        <time>2026-09-02T14:42:40Z</time>
      </trkpt>
      <trkpt lat="44.72735" lon="7.06649">
        <ele>2603.6</ele>
        <time>2026-09-02T14:42:45Z</time>
      </trkpt>
      <trkpt lat="44.72735" lon="7.06645">
        <ele>2603.2</ele>
        <time>2026-09-02T14:42:51Z</time>
      </trkpt>
      <trkpt lat="44.72735" lon="7.0664">
        <ele>2602.6</ele>
        <time>2026-09-02T14:42:56Z</time>
      </trkpt>
      <trkpt lat="44.72736" lon="7.06634">
        <ele>2602.3</ele>
        <time>2026-09-02T14:43:01Z</time>
      </trkpt>
      <trkpt lat="44.72737" lon="7.06629">
        <ele>2602.1</ele>
        <time>2026-09-02T14:43:07Z</time>
      </trkpt>
      <trkpt lat="44.72736" lon="7.06624">
        <ele>2601.2</ele>
        <time>2026-09-02T14:43:12Z</time>
      </trkpt>
      <trkpt lat="44.72736" lon="7.06618">
        <ele>2600.5</ele>
        <time>2026-09-02T14:43:17Z</time>
      </trkpt>
      <trkpt lat="44.72738" lon="7.0661">
        <ele>2600.3</ele>
        <time>2026-09-02T14:43:23Z</time>
      </trkpt>
      <trkpt lat="44.72737" lon="7.06606">
        <ele>2599.5</ele>
        <time>2026-09-02T14:43:28Z</time>
      </trkpt>
      <trkpt lat="44.72738" lon="7.06602">
        <ele>2599.4</ele>
        <time>2026-09-02T14:43:33Z</time>
      </trkpt>
      <trkpt lat="44.72738" lon="7.06599">
        <ele>2599</ele>
        <time>2026-09-02T14:43:39Z</time>
      </trkpt>
      <trkpt lat="44.72737" lon="7.06595">
        <ele>2598.3</ele>
        <time>2026-09-02T14:43:44Z</time>
      </trkpt>
      <trkpt lat="44.72738" lon="7.06591">
        <ele>2598.1</ele>
        <time>2026-09-02T14:43:49Z</time>
      </trkpt>
      <trkpt lat="44.72737" lon="7.06589">
        <ele>2597.6</ele>
        <time>2026-09-02T14:43:55Z</time>
      </trkpt>
      <trkpt lat="44.72736" lon="7.06587">
        <ele>2597</ele>
        <time>2026-09-02T14:44:00Z</time>
      </trkpt>
      <trkpt lat="44.72734" lon="7.0659">
        <ele>2596.7</ele>
        <time>2026-09-02T14:44:05Z</time>
      </trkpt>
      <trkpt lat="44.72732" lon="7.06592">
        <ele>2596.3</ele>
        <time>2026-09-02T14:44:11Z</time>
      </trkpt>
      <trkpt lat="44.72732" lon="7.06597">
        <ele>2596.9</ele>
        <time>2026-09-02T14:44:16Z</time>
      </trkpt>
      <trkpt lat="44.72729" lon="7.066">
        <ele>2596.2</ele>
        <time>2026-09-02T14:44:21Z</time>
      </trkpt>
      <trkpt lat="44.72727" lon="7.06604">
        <ele>2596</ele>
        <time>2026-09-02T14:44:27Z</time>
      </trkpt>
      <trkpt lat="44.72725" lon="7.06609">
        <ele>2595.9</ele>
        <time>2026-09-02T14:44:32Z</time>
      </trkpt>
      <trkpt lat="44.72726" lon="7.06611">
        <ele>2596.4</ele>
        <time>2026-09-02T14:44:37Z</time>
      </trkpt>
      <trkpt lat="44.72723" lon="7.0661">
        <ele>2595.4</ele>
        <time>2026-09-02T14:44:43Z</time>
      </trkpt>
      <trkpt lat="44.72718" lon="7.06615">
        <ele>2594.2</ele>
        <time>2026-09-02T14:44:48Z</time>
      </trkpt>
      <trkpt lat="44.72716" lon="7.0662">
        <ele>2594.1</ele>
        <time>2026-09-02T14:44:53Z</time>
      </trkpt>
      <trkpt lat="44.72717" lon="7.06626">
        <ele>2595</ele>
        <time>2026-09-02T14:44:59Z</time>
      </trkpt>
      <trkpt lat="44.72714" lon="7.06629">
        <ele>2594.3</ele>
        <time>2026-09-02T14:45:04Z</time>
      </trkpt>
      <trkpt lat="44.72713" lon="7.06632">
        <ele>2594.3</ele>
        <time>2026-09-02T14:45:09Z</time>
      </trkpt>
      <trkpt lat="44.72711" lon="7.06634">
        <ele>2593.8</ele>
        <time>2026-09-02T14:45:15Z</time>
      </trkpt>
      <trkpt lat="44.72709" lon="7.06636">
        <ele>2593.3</ele>
        <time>2026-09-02T14:45:20Z</time>
      </trkpt>
      <trkpt lat="44.72705" lon="7.06643">
        <ele>2592.6</ele>
        <time>2026-09-02T14:45:25Z</time>
      </trkpt>
      <trkpt lat="44.72703" lon="7.06653">
        <ele>2592.8</ele>
        <time>2026-09-02T14:45:31Z</time>
      </trkpt>
      <trkpt lat="44.727" lon="7.06657">
        <ele>2592.1</ele>
        <time>2026-09-02T14:45:36Z</time>
      </trkpt>
      <trkpt lat="44.7269" lon="7.06658">
        <ele>2588.7</ele>
        <time>2026-09-02T14:45:41Z</time>
      </trkpt>
      <trkpt lat="44.72688" lon="7.06662">
        <ele>2588.3</ele>
        <time>2026-09-02T14:45:47Z</time>
      </trkpt>
      <trkpt lat="44.72688" lon="7.06665">
        <ele>2588.5</ele>
        <time>2026-09-02T14:45:52Z</time>
      </trkpt>
      <trkpt lat="44.72689" lon="7.06668">
        <ele>2589.3</ele>
        <time>2026-09-02T14:45:57Z</time>
      </trkpt>
      <trkpt lat="44.72685" lon="7.06674">
        <ele>2588.9</ele>
        <time>2026-09-02T14:46:03Z</time>
      </trkpt>
      <trkpt lat="44.72684" lon="7.06675">
        <ele>2588.7</ele>
        <time>2026-09-02T14:46:08Z</time>
      </trkpt>
      <trkpt lat="44.7268" lon="7.06678">
        <ele>2587.7</ele>
        <time>2026-09-02T14:46:13Z</time>
      </trkpt>
      <trkpt lat="44.72679" lon="7.06678">
        <ele>2587.3</ele>
        <time>2026-09-02T14:46:19Z</time>
      </trkpt>
      <trkpt lat="44.72676" lon="7.06677">
        <ele>2586.1</ele>
        <time>2026-09-02T14:46:24Z</time>
      </trkpt>
      <trkpt lat="44.72676" lon="7.06677">
        <ele>2586.1</ele>
        <time>2026-09-02T14:46:29Z</time>
      </trkpt>
      <trkpt lat="44.72676" lon="7.06677">
        <ele>2586.1</ele>
        <time>2026-09-02T14:46:35Z</time>
      </trkpt>
      <trkpt lat="44.72672" lon="7.06681">
        <ele>2585.2</ele>
        <time>2026-09-02T14:46:40Z</time>
      </trkpt>
      <trkpt lat="44.72671" lon="7.06684">
        <ele>2585.3</ele>
        <time>2026-09-02T14:46:45Z</time>
      </trkpt>
      <trkpt lat="44.72669" lon="7.06687">
        <ele>2585.1</ele>
        <time>2026-09-02T14:46:51Z</time>
      </trkpt>
      <trkpt lat="44.72662" lon="7.06692">
        <ele>2585.2</ele>
        <time>2026-09-02T14:46:56Z</time>
      </trkpt>
      <trkpt lat="44.72662" lon="7.06696">
        <ele>2585.8</ele>
        <time>2026-09-02T14:47:01Z</time>
      </trkpt>
      <trkpt lat="44.7266" lon="7.06699">
        <ele>2586.3</ele>
        <time>2026-09-02T14:47:07Z</time>
      </trkpt>
      <trkpt lat="44.72658" lon="7.06703">
        <ele>2587</ele>
        <time>2026-09-02T14:47:12Z</time>
      </trkpt>
      <trkpt lat="44.72656" lon="7.06709">
        <ele>2588.1</ele>
        <time>2026-09-02T14:47:17Z</time>
      </trkpt>
      <trkpt lat="44.72653" lon="7.06713">
        <ele>2588.8</ele>
        <time>2026-09-02T14:47:23Z</time>
      </trkpt>
      <trkpt lat="44.72649" lon="7.06716">
        <ele>2589.4</ele>
        <time>2026-09-02T14:47:28Z</time>
      </trkpt>
      <trkpt lat="44.72647" lon="7.06723">
        <ele>2590.6</ele>
        <time>2026-09-02T14:47:33Z</time>
      </trkpt>
      <trkpt lat="44.72641" lon="7.06723">
        <ele>2590.8</ele>
        <time>2026-09-02T14:47:39Z</time>
      </trkpt>
      <trkpt lat="44.72641" lon="7.0672">
        <ele>2590.4</ele>
        <time>2026-09-02T14:47:44Z</time>
      </trkpt>
      <trkpt lat="44.72641" lon="7.06717">
        <ele>2589.9</ele>
        <time>2026-09-02T14:47:49Z</time>
      </trkpt>
      <trkpt lat="44.72644" lon="7.0671">
        <ele>2588.7</ele>
        <time>2026-09-02T14:47:55Z</time>
      </trkpt>
      <trkpt lat="44.72647" lon="7.06705">
        <ele>2587.8</ele>
        <time>2026-09-02T14:48:00Z</time>
      </trkpt>
      <trkpt lat="44.72649" lon="7.06698">
        <ele>2586.7</ele>
        <time>2026-09-02T14:48:05Z</time>
      </trkpt>
      <trkpt lat="44.7265" lon="7.06693">
        <ele>2585.8</ele>
        <time>2026-09-02T14:48:11Z</time>
      </trkpt>
      <trkpt lat="44.72647" lon="7.06689">
        <ele>2585.4</ele>
        <time>2026-09-02T14:48:16Z</time>
      </trkpt>
      <trkpt lat="44.72648" lon="7.06684">
        <ele>2584.6</ele>
        <time>2026-09-02T14:48:21Z</time>
      </trkpt>
      <trkpt lat="44.72646" lon="7.06677">
        <ele>2583.6</ele>
        <time>2026-09-02T14:48:27Z</time>
      </trkpt>
      <trkpt lat="44.72647" lon="7.06671">
        <ele>2582.6</ele>
        <time>2026-09-02T14:48:32Z</time>
      </trkpt>
      <trkpt lat="44.72652" lon="7.06666">
        <ele>2581.6</ele>
        <time>2026-09-02T14:48:37Z</time>
      </trkpt>
      <trkpt lat="44.72654" lon="7.06657">
        <ele>2580.8</ele>
        <time>2026-09-02T14:48:43Z</time>
      </trkpt>
      <trkpt lat="44.72654" lon="7.06648">
        <ele>2580</ele>
        <time>2026-09-02T14:48:48Z</time>
      </trkpt>
      <trkpt lat="44.72655" lon="7.06642">
        <ele>2579.5</ele>
        <time>2026-09-02T14:48:53Z</time>
      </trkpt>
      <trkpt lat="44.72657" lon="7.06636">
        <ele>2579</ele>
        <time>2026-09-02T14:48:59Z</time>
      </trkpt>
      <trkpt lat="44.72657" lon="7.06629">
        <ele>2578.4</ele>
        <time>2026-09-02T14:49:04Z</time>
      </trkpt>
      <trkpt lat="44.72657" lon="7.06621">
        <ele>2577.7</ele>
        <time>2026-09-02T14:49:09Z</time>
      </trkpt>
      <trkpt lat="44.72658" lon="7.06616">
        <ele>2577.3</ele>
        <time>2026-09-02T14:49:15Z</time>
      </trkpt>
      <trkpt lat="44.72659" lon="7.06609">
        <ele>2576.8</ele>
        <time>2026-09-02T14:49:20Z</time>
      </trkpt>
      <trkpt lat="44.72658" lon="7.06603">
        <ele>2576.3</ele>
        <time>2026-09-02T14:49:25Z</time>
      </trkpt>
      <trkpt lat="44.72658" lon="7.06596">
        <ele>2575.7</ele>
        <time>2026-09-02T14:49:31Z</time>
      </trkpt>
      <trkpt lat="44.72657" lon="7.06588">
        <ele>2575</ele>
        <time>2026-09-02T14:49:36Z</time>
      </trkpt>
      <trkpt lat="44.72656" lon="7.06583">
        <ele>2574.6</ele>
        <time>2026-09-02T14:49:41Z</time>
      </trkpt>
      <trkpt lat="44.72655" lon="7.06575">
        <ele>2575</ele>
        <time>2026-09-02T14:49:47Z</time>
      </trkpt>
      <trkpt lat="44.72653" lon="7.06567">
        <ele>2575.4</ele>
        <time>2026-09-02T14:49:52Z</time>
      </trkpt>
      <trkpt lat="44.72651" lon="7.0656">
        <ele>2575.6</ele>
        <time>2026-09-02T14:49:57Z</time>
      </trkpt>
      <trkpt lat="44.7265" lon="7.06552">
        <ele>2576</ele>
        <time>2026-09-02T14:50:03Z</time>
      </trkpt>
      <trkpt lat="44.72652" lon="7.06543">
        <ele>2576.6</ele>
        <time>2026-09-02T14:50:08Z</time>
      </trkpt>
      <trkpt lat="44.72655" lon="7.06537">
        <ele>2577</ele>
        <time>2026-09-02T14:50:13Z</time>
      </trkpt>
      <trkpt lat="44.72654" lon="7.06528">
        <ele>2577.5</ele>
        <time>2026-09-02T14:50:19Z</time>
      </trkpt>
      <trkpt lat="44.72655" lon="7.06518">
        <ele>2578.1</ele>
        <time>2026-09-02T14:50:24Z</time>
      </trkpt>
      <trkpt lat="44.72657" lon="7.06508">
        <ele>2578.8</ele>
        <time>2026-09-02T14:50:29Z</time>
      </trkpt>
      <trkpt lat="44.72655" lon="7.06499">
        <ele>2579.1</ele>
        <time>2026-09-02T14:50:35Z</time>
      </trkpt>
      <trkpt lat="44.72656" lon="7.06492">
        <ele>2579.9</ele>
        <time>2026-09-02T14:50:40Z</time>
      </trkpt>
      <trkpt lat="44.72656" lon="7.06483">
        <ele>2580.9</ele>
        <time>2026-09-02T14:50:45Z</time>
      </trkpt>
      <trkpt lat="44.72656" lon="7.06474">
        <ele>2581.8</ele>
        <time>2026-09-02T14:50:51Z</time>
      </trkpt>
      <trkpt lat="44.72658" lon="7.06468">
        <ele>2582.6</ele>
        <time>2026-09-02T14:50:56Z</time>
      </trkpt>
      <trkpt lat="44.72659" lon="7.06464">
        <ele>2583.2</ele>
        <time>2026-09-02T14:51:01Z</time>
      </trkpt>
      <trkpt lat="44.7266" lon="7.06458">
        <ele>2583.9</ele>
        <time>2026-09-02T14:51:07Z</time>
      </trkpt>
      <trkpt lat="44.72659" lon="7.06454">
        <ele>2584.2</ele>
        <time>2026-09-02T14:51:12Z</time>
      </trkpt>
      <trkpt lat="44.72659" lon="7.06449">
        <ele>2584.8</ele>
        <time>2026-09-02T14:51:17Z</time>
      </trkpt>
      <trkpt lat="44.72658" lon="7.06443">
        <ele>2585.3</ele>
        <time>2026-09-02T14:51:23Z</time>
      </trkpt>
      <trkpt lat="44.72658" lon="7.06441">
        <ele>2585.5</ele>
        <time>2026-09-02T14:51:28Z</time>
      </trkpt>
      <trkpt lat="44.72658" lon="7.06437">
        <ele>2585.9</ele>
        <time>2026-09-02T14:51:33Z</time>
      </trkpt>
      <trkpt lat="44.7266" lon="7.06434">
        <ele>2586.4</ele>
        <time>2026-09-02T14:51:39Z</time>
      </trkpt>
      <trkpt lat="44.72661" lon="7.0643">
        <ele>2587</ele>
        <time>2026-09-02T14:51:44Z</time>
      </trkpt>
      <trkpt lat="44.7266" lon="7.06425">
        <ele>2587.4</ele>
        <time>2026-09-02T14:51:49Z</time>
      </trkpt>
      <trkpt lat="44.72661" lon="7.06422">
        <ele>2587.8</ele>
        <time>2026-09-02T14:51:55Z</time>
      </trkpt>
      <trkpt lat="44.72661" lon="7.06417">
        <ele>2588.4</ele>
        <time>2026-09-02T14:52:00Z</time>
      </trkpt>
      <trkpt lat="44.7266" lon="7.0641">
        <ele>2588.7</ele>
        <time>2026-09-02T14:52:05Z</time>
      </trkpt>
      <trkpt lat="44.72658" lon="7.06402">
        <ele>2588.9</ele>
        <time>2026-09-02T14:52:11Z</time>
      </trkpt>
      <trkpt lat="44.72656" lon="7.06396">
        <ele>2589</ele>
        <time>2026-09-02T14:52:16Z</time>
      </trkpt>
      <trkpt lat="44.72657" lon="7.0639">
        <ele>2589.4</ele>
        <time>2026-09-02T14:52:21Z</time>
      </trkpt>
      <trkpt lat="44.72658" lon="7.06381">
        <ele>2590.1</ele>
        <time>2026-09-02T14:52:27Z</time>
      </trkpt>
      <trkpt lat="44.72659" lon="7.06374">
        <ele>2590.6</ele>
        <time>2026-09-02T14:52:32Z</time>
      </trkpt>
      <trkpt lat="44.72663" lon="7.06367">
        <ele>2591.5</ele>
        <time>2026-09-02T14:52:37Z</time>
      </trkpt>
      <trkpt lat="44.72663" lon="7.06366">
        <ele>2591.6</ele>
        <time>2026-09-02T14:52:43Z</time>
      </trkpt>
      <trkpt lat="44.72662" lon="7.06365">
        <ele>2591.5</ele>
        <time>2026-09-02T14:52:48Z</time>
      </trkpt>
      <trkpt lat="44.72665" lon="7.06358">
        <ele>2592.3</ele>
        <time>2026-09-02T14:52:53Z</time>
      </trkpt>
      <trkpt lat="44.72669" lon="7.06346">
        <ele>2593.1</ele>
        <time>2026-09-02T14:52:59Z</time>
      </trkpt>
      <trkpt lat="44.72674" lon="7.06338">
        <ele>2593.3</ele>
        <time>2026-09-02T14:53:04Z</time>
      </trkpt>
      <trkpt lat="44.72676" lon="7.06332">
        <ele>2593.3</ele>
        <time>2026-09-02T14:53:09Z</time>
      </trkpt>
      <trkpt lat="44.7267" lon="7.06329">
        <ele>2593.3</ele>
        <time>2026-09-02T14:53:15Z</time>
      </trkpt>
      <trkpt lat="44.72668" lon="7.06324">
        <ele>2592.9</ele>
        <time>2026-09-02T14:53:20Z</time>
      </trkpt>
      <trkpt lat="44.72669" lon="7.0632">
        <ele>2592.4</ele>
        <time>2026-09-02T14:53:25Z</time>
      </trkpt>
      <trkpt lat="44.72672" lon="7.06314">
        <ele>2591.6</ele>
        <time>2026-09-02T14:53:31Z</time>
      </trkpt>
      <trkpt lat="44.72671" lon="7.06307">
        <ele>2590.9</ele>
        <time>2026-09-02T14:53:36Z</time>
      </trkpt>
      <trkpt lat="44.72667" lon="7.06298">
        <ele>2590.2</ele>
        <time>2026-09-02T14:53:41Z</time>
      </trkpt>
      <trkpt lat="44.72662" lon="7.06287">
        <ele>2588.4</ele>
        <time>2026-09-02T14:53:47Z</time>
      </trkpt>
      <trkpt lat="44.72658" lon="7.06278">
        <ele>2587.1</ele>
        <time>2026-09-02T14:53:52Z</time>
      </trkpt>
      <trkpt lat="44.72657" lon="7.06267">
        <ele>2585.8</ele>
        <time>2026-09-02T14:53:57Z</time>
      </trkpt>
      <trkpt lat="44.72659" lon="7.06257">
        <ele>2585</ele>
        <time>2026-09-02T14:54:03Z</time>
      </trkpt>
      <trkpt lat="44.7266" lon="7.06248">
        <ele>2584</ele>
        <time>2026-09-02T14:54:08Z</time>
      </trkpt>
      <trkpt lat="44.72662" lon="7.06241">
        <ele>2583.1</ele>
        <time>2026-09-02T14:54:13Z</time>
      </trkpt>
      <trkpt lat="44.7266" lon="7.06234">
        <ele>2581.8</ele>
        <time>2026-09-02T14:54:19Z</time>
      </trkpt>
      <trkpt lat="44.72657" lon="7.06231">
        <ele>2581</ele>
        <time>2026-09-02T14:54:24Z</time>
      </trkpt>
      <trkpt lat="44.72656" lon="7.06227">
        <ele>2580.3</ele>
        <time>2026-09-02T14:54:29Z</time>
      </trkpt>
      <trkpt lat="44.72655" lon="7.06223">
        <ele>2579.6</ele>
        <time>2026-09-02T14:54:35Z</time>
      </trkpt>
      <trkpt lat="44.72655" lon="7.06218">
        <ele>2578.8</ele>
        <time>2026-09-02T14:54:40Z</time>
      </trkpt>
      <trkpt lat="44.72657" lon="7.06215">
        <ele>2578.5</ele>
        <time>2026-09-02T14:54:45Z</time>
      </trkpt>
      <trkpt lat="44.72658" lon="7.06209">
        <ele>2577.6</ele>
        <time>2026-09-02T14:54:51Z</time>
      </trkpt>
      <trkpt lat="44.72659" lon="7.06204">
        <ele>2576.8</ele>
        <time>2026-09-02T14:54:56Z</time>
      </trkpt>
      <trkpt lat="44.72661" lon="7.06201">
        <ele>2576.5</ele>
        <time>2026-09-02T14:55:01Z</time>
      </trkpt>
      <trkpt lat="44.72661" lon="7.06194">
        <ele>2575.3</ele>
        <time>2026-09-02T14:55:07Z</time>
      </trkpt>
      <trkpt lat="44.72661" lon="7.06189">
        <ele>2574.5</ele>
        <time>2026-09-02T14:55:12Z</time>
      </trkpt>
      <trkpt lat="44.72659" lon="7.06186">
        <ele>2573.9</ele>
        <time>2026-09-02T14:55:17Z</time>
      </trkpt>
      <trkpt lat="44.72659" lon="7.06186">
        <ele>2573.9</ele>
        <time>2026-09-02T14:55:23Z</time>
      </trkpt>
      <trkpt lat="44.72659" lon="7.06186">
        <ele>2573.9</ele>
        <time>2026-09-02T14:55:28Z</time>
      </trkpt>
      <trkpt lat="44.72659" lon="7.06186">
        <ele>2573.9</ele>
        <time>2026-09-02T14:55:33Z</time>
      </trkpt>
      <trkpt lat="44.72659" lon="7.06186">
        <ele>2573.9</ele>
        <time>2026-09-02T14:55:39Z</time>
      </trkpt>
      <trkpt lat="44.72657" lon="7.06178">
        <ele>2572.6</ele>
        <time>2026-09-02T14:55:44Z</time>
      </trkpt>
      <trkpt lat="44.72657" lon="7.06173">
        <ele>2571.8</ele>
        <time>2026-09-02T14:55:49Z</time>
      </trkpt>
      <trkpt lat="44.72657" lon="7.06171">
        <ele>2571.5</ele>
        <time>2026-09-02T14:55:55Z</time>
      </trkpt>
      <trkpt lat="44.72657" lon="7.06166">
        <ele>2570.6</ele>
        <time>2026-09-02T14:56:00Z</time>
      </trkpt>
      <trkpt lat="44.72658" lon="7.06166">
        <ele>2570.6</ele>
        <time>2026-09-02T14:56:05Z</time>
      </trkpt>
      <trkpt lat="44.72658" lon="7.06166">
        <ele>2570.6</ele>
        <time>2026-09-02T14:56:11Z</time>
      </trkpt>
      <trkpt lat="44.72658" lon="7.06166">
        <ele>2570.6</ele>
        <time>2026-09-02T14:56:16Z</time>
      </trkpt>
      <trkpt lat="44.72656" lon="7.06162">
        <ele>2569.6</ele>
        <time>2026-09-02T14:56:21Z</time>
      </trkpt>
      <trkpt lat="44.72652" lon="7.06158">
        <ele>2568.6</ele>
        <time>2026-09-02T14:56:27Z</time>
      </trkpt>
      <trkpt lat="44.72648" lon="7.06154">
        <ele>2567.6</ele>
        <time>2026-09-02T14:56:32Z</time>
      </trkpt>
      <trkpt lat="44.72645" lon="7.06151">
        <ele>2566.8</ele>
        <time>2026-09-02T14:56:37Z</time>
      </trkpt>
      <trkpt lat="44.72642" lon="7.06148">
        <ele>2566.1</ele>
        <time>2026-09-02T14:56:43Z</time>
      </trkpt>
      <trkpt lat="44.72644" lon="7.06145">
        <ele>2565.4</ele>
        <time>2026-09-02T14:56:48Z</time>
      </trkpt>
      <trkpt lat="44.72648" lon="7.06142">
        <ele>2564.8</ele>
        <time>2026-09-02T14:56:53Z</time>
      </trkpt>
      <trkpt lat="44.72652" lon="7.06138">
        <ele>2563.9</ele>
        <time>2026-09-02T14:56:59Z</time>
      </trkpt>
      <trkpt lat="44.72653" lon="7.06134">
        <ele>2563</ele>
        <time>2026-09-02T14:57:04Z</time>
      </trkpt>
      <trkpt lat="44.72651" lon="7.0613">
        <ele>2562</ele>
        <time>2026-09-02T14:57:09Z</time>
      </trkpt>
      <trkpt lat="44.72654" lon="7.06124">
        <ele>2560.6</ele>
        <time>2026-09-02T14:57:15Z</time>
      </trkpt>
      <trkpt lat="44.72656" lon="7.06123">
        <ele>2560.4</ele>
        <time>2026-09-02T14:57:20Z</time>
      </trkpt>
      <trkpt lat="44.72656" lon="7.06123">
        <ele>2560.4</ele>
        <time>2026-09-02T14:57:25Z</time>
      </trkpt>
      <trkpt lat="44.72656" lon="7.06123">
        <ele>2560.4</ele>
        <time>2026-09-02T14:57:31Z</time>
      </trkpt>
      <trkpt lat="44.72656" lon="7.06123">
        <ele>2560.4</ele>
        <time>2026-09-02T14:57:36Z</time>
      </trkpt>
      <trkpt lat="44.72655" lon="7.06112">
        <ele>2557.8</ele>
        <time>2026-09-02T14:57:41Z</time>
      </trkpt>
      <trkpt lat="44.72656" lon="7.06104">
        <ele>2555.9</ele>
        <time>2026-09-02T14:57:47Z</time>
      </trkpt>
      <trkpt lat="44.72657" lon="7.06103">
        <ele>2555.7</ele>
        <time>2026-09-02T14:57:52Z</time>
      </trkpt>
      <trkpt lat="44.72656" lon="7.06099">
        <ele>2554.7</ele>
        <time>2026-09-02T14:57:57Z</time>
      </trkpt>
      <trkpt lat="44.72656" lon="7.06092">
        <ele>2553.1</ele>
        <time>2026-09-02T14:58:03Z</time>
      </trkpt>
      <trkpt lat="44.72655" lon="7.06084">
        <ele>2551.2</ele>
        <time>2026-09-02T14:58:08Z</time>
      </trkpt>
      <trkpt lat="44.72653" lon="7.06076">
        <ele>2549.3</ele>
        <time>2026-09-02T14:58:13Z</time>
      </trkpt>
      <trkpt lat="44.72652" lon="7.06066">
        <ele>2547</ele>
        <time>2026-09-02T14:58:19Z</time>
      </trkpt>
      <trkpt lat="44.72652" lon="7.06056">
        <ele>2544.7</ele>
        <time>2026-09-02T14:58:24Z</time>
      </trkpt>
      <trkpt lat="44.72653" lon="7.06049">
        <ele>2543.1</ele>
        <time>2026-09-02T14:58:29Z</time>
      </trkpt>
      <trkpt lat="44.72654" lon="7.06042">
        <ele>2541.5</ele>
        <time>2026-09-02T14:58:35Z</time>
      </trkpt>
      <trkpt lat="44.72653" lon="7.06035">
        <ele>2539.9</ele>
        <time>2026-09-02T14:58:40Z</time>
      </trkpt>
      <trkpt lat="44.72654" lon="7.06026">
        <ele>2537.8</ele>
        <time>2026-09-02T14:58:45Z</time>
      </trkpt>
      <trkpt lat="44.72654" lon="7.06017">
        <ele>2535.7</ele>
        <time>2026-09-02T14:58:51Z</time>
      </trkpt>
      <trkpt lat="44.72652" lon="7.0601">
        <ele>2534.2</ele>
        <time>2026-09-02T14:58:56Z</time>
      </trkpt>
      <trkpt lat="44.72652" lon="7.06003">
        <ele>2532.6</ele>
        <time>2026-09-02T14:59:01Z</time>
      </trkpt>
      <trkpt lat="44.72653" lon="7.05993">
        <ele>2529.5</ele>
        <time>2026-09-02T14:59:07Z</time>
      </trkpt>
      <trkpt lat="44.72654" lon="7.05986">
        <ele>2527.1</ele>
        <time>2026-09-02T14:59:12Z</time>
      </trkpt>
      <trkpt lat="44.72654" lon="7.05981">
        <ele>2525.5</ele>
        <time>2026-09-02T14:59:17Z</time>
      </trkpt>
      <trkpt lat="44.72654" lon="7.05973">
        <ele>2522.8</ele>
        <time>2026-09-02T14:59:23Z</time>
      </trkpt>
      <trkpt lat="44.72654" lon="7.05963">
        <ele>2519.5</ele>
        <time>2026-09-02T14:59:28Z</time>
      </trkpt>
      <trkpt lat="44.72654" lon="7.05956">
        <ele>2517.2</ele>
        <time>2026-09-02T14:59:33Z</time>
      </trkpt>
      <trkpt lat="44.72651" lon="7.05948">
        <ele>2514.8</ele>
        <time>2026-09-02T14:59:39Z</time>
      </trkpt>
      <trkpt lat="44.72648" lon="7.05942">
        <ele>2513.1</ele>
        <time>2026-09-02T14:59:44Z</time>
      </trkpt>
      <trkpt lat="44.72646" lon="7.05938">
        <ele>2512</ele>
        <time>2026-09-02T14:59:49Z</time>
      </trkpt>
      <trkpt lat="44.72647" lon="7.0593">
        <ele>2509.3</ele>
        <time>2026-09-02T14:59:55Z</time>
      </trkpt>
      <trkpt lat="44.72647" lon="7.05921">
        <ele>2506.3</ele>
        <time>2026-09-02T15:00:00Z</time>
      </trkpt>
      <trkpt lat="44.72646" lon="7.05915">
        <ele>2504.5</ele>
        <time>2026-09-02T15:00:05Z</time>
      </trkpt>
      <trkpt lat="44.72646" lon="7.05908">
        <ele>2502.3</ele>
        <time>2026-09-02T15:00:11Z</time>
      </trkpt>
      <trkpt lat="44.72647" lon="7.05901">
        <ele>2500.1</ele>
        <time>2026-09-02T15:00:16Z</time>
      </trkpt>
      <trkpt lat="44.72649" lon="7.05895">
        <ele>2498.1</ele>
        <time>2026-09-02T15:00:21Z</time>
      </trkpt>
      <trkpt lat="44.72652" lon="7.05887">
        <ele>2495.7</ele>
        <time>2026-09-02T15:00:27Z</time>
      </trkpt>
      <trkpt lat="44.72653" lon="7.05877">
        <ele>2492.8</ele>
        <time>2026-09-02T15:00:32Z</time>
      </trkpt>
      <trkpt lat="44.72656" lon="7.0587">
        <ele>2490.8</ele>
        <time>2026-09-02T15:00:37Z</time>
      </trkpt>
      <trkpt lat="44.72659" lon="7.05864">
        <ele>2489.3</ele>
        <time>2026-09-02T15:00:43Z</time>
      </trkpt>
      <trkpt lat="44.7266" lon="7.05856">
        <ele>2487.2</ele>
        <time>2026-09-02T15:00:48Z</time>
      </trkpt>
      <trkpt lat="44.7266" lon="7.0585">
        <ele>2485.6</ele>
        <time>2026-09-02T15:00:53Z</time>
      </trkpt>
      <trkpt lat="44.7266" lon="7.05844">
        <ele>2483.9</ele>
        <time>2026-09-02T15:00:59Z</time>
      </trkpt>
      <trkpt lat="44.72661" lon="7.0584">
        <ele>2483</ele>
        <time>2026-09-02T15:01:04Z</time>
      </trkpt>
      <trkpt lat="44.72661" lon="7.05833">
        <ele>2481.1</ele>
        <time>2026-09-02T15:01:09Z</time>
      </trkpt>
      <trkpt lat="44.72663" lon="7.05826">
        <ele>2479.9</ele>
        <time>2026-09-02T15:01:15Z</time>
      </trkpt>
      <trkpt lat="44.72664" lon="7.05822">
        <ele>2479.3</ele>
        <time>2026-09-02T15:01:20Z</time>
      </trkpt>
      <trkpt lat="44.72664" lon="7.05816">
        <ele>2478</ele>
        <time>2026-09-02T15:01:25Z</time>
      </trkpt>
      <trkpt lat="44.72665" lon="7.05805">
        <ele>2475.9</ele>
        <time>2026-09-02T15:01:31Z</time>
      </trkpt>
      <trkpt lat="44.72665" lon="7.05799">
        <ele>2474.7</ele>
        <time>2026-09-02T15:01:36Z</time>
      </trkpt>
      <trkpt lat="44.72661" lon="7.05792">
        <ele>2472.5</ele>
        <time>2026-09-02T15:01:41Z</time>
      </trkpt>
      <trkpt lat="44.72659" lon="7.05784">
        <ele>2470.4</ele>
        <time>2026-09-02T15:01:47Z</time>
      </trkpt>
      <trkpt lat="44.7266" lon="7.05778">
        <ele>2469.3</ele>
        <time>2026-09-02T15:01:52Z</time>
      </trkpt>
      <trkpt lat="44.72661" lon="7.05773">
        <ele>2468.5</ele>
        <time>2026-09-02T15:01:57Z</time>
      </trkpt>
      <trkpt lat="44.72661" lon="7.05766">
        <ele>2467</ele>
        <time>2026-09-02T15:02:03Z</time>
      </trkpt>
      <trkpt lat="44.72662" lon="7.05761">
        <ele>2466.2</ele>
        <time>2026-09-02T15:02:08Z</time>
      </trkpt>
      <trkpt lat="44.72664" lon="7.05757">
        <ele>2465.8</ele>
        <time>2026-09-02T15:02:13Z</time>
      </trkpt>
      <trkpt lat="44.72666" lon="7.05751">
        <ele>2465</ele>
        <time>2026-09-02T15:02:19Z</time>
      </trkpt>
      <trkpt lat="44.72669" lon="7.05744">
        <ele>2465.5</ele>
        <time>2026-09-02T15:02:24Z</time>
      </trkpt>
      <trkpt lat="44.7267" lon="7.05737">
        <ele>2465.2</ele>
        <time>2026-09-02T15:02:29Z</time>
      </trkpt>
      <trkpt lat="44.72672" lon="7.05729">
        <ele>2465.2</ele>
        <time>2026-09-02T15:02:35Z</time>
      </trkpt>
      <trkpt lat="44.72676" lon="7.05722">
        <ele>2466.3</ele>
        <time>2026-09-02T15:02:40Z</time>
      </trkpt>
      <trkpt lat="44.72677" lon="7.05713">
        <ele>2465.7</ele>
        <time>2026-09-02T15:02:45Z</time>
      </trkpt>
      <trkpt lat="44.7268" lon="7.05708">
        <ele>2466.5</ele>
        <time>2026-09-02T15:02:51Z</time>
      </trkpt>
      <trkpt lat="44.72683" lon="7.05701">
        <ele>2467.1</ele>
        <time>2026-09-02T15:02:56Z</time>
      </trkpt>
      <trkpt lat="44.72686" lon="7.05698">
        <ele>2468.1</ele>
        <time>2026-09-02T15:03:01Z</time>
      </trkpt>
      <trkpt lat="44.72689" lon="7.0569">
        <ele>2468.4</ele>
        <time>2026-09-02T15:03:07Z</time>
      </trkpt>
      <trkpt lat="44.7269" lon="7.0568">
        <ele>2467.5</ele>
        <time>2026-09-02T15:03:12Z</time>
      </trkpt>
      <trkpt lat="44.72692" lon="7.05677">
        <ele>2468</ele>
        <time>2026-09-02T15:03:17Z</time>
      </trkpt>
      <trkpt lat="44.72691" lon="7.05669">
        <ele>2466.4</ele>
        <time>2026-09-02T15:03:23Z</time>
      </trkpt>
      <trkpt lat="44.7269" lon="7.05664">
        <ele>2465.4</ele>
        <time>2026-09-02T15:03:28Z</time>
      </trkpt>
      <trkpt lat="44.72688" lon="7.0566">
        <ele>2464.1</ele>
        <time>2026-09-02T15:03:33Z</time>
      </trkpt>
      <trkpt lat="44.7269" lon="7.05655">
        <ele>2464.5</ele>
        <time>2026-09-02T15:03:39Z</time>
      </trkpt>
      <trkpt lat="44.72691" lon="7.05647">
        <ele>2464.2</ele>
        <time>2026-09-02T15:03:44Z</time>
      </trkpt>
      <trkpt lat="44.72694" lon="7.0564">
        <ele>2464.9</ele>
        <time>2026-09-02T15:03:49Z</time>
      </trkpt>
      <trkpt lat="44.72695" lon="7.05631">
        <ele>2464.5</ele>
        <time>2026-09-02T15:03:55Z</time>
      </trkpt>
      <trkpt lat="44.72696" lon="7.05623">
        <ele>2464.2</ele>
        <time>2026-09-02T15:04:00Z</time>
      </trkpt>
      <trkpt lat="44.72697" lon="7.05617">
        <ele>2464</ele>
        <time>2026-09-02T15:04:05Z</time>
      </trkpt>
      <trkpt lat="44.72699" lon="7.05607">
        <ele>2463.9</ele>
        <time>2026-09-02T15:04:11Z</time>
      </trkpt>
      <trkpt lat="44.72699" lon="7.05602">
        <ele>2463.4</ele>
        <time>2026-09-02T15:04:16Z</time>
      </trkpt>
      <trkpt lat="44.72699" lon="7.05596">
        <ele>2462.8</ele>
        <time>2026-09-02T15:04:21Z</time>
      </trkpt>
      <trkpt lat="44.727" lon="7.05587">
        <ele>2462.4</ele>
        <time>2026-09-02T15:04:27Z</time>
      </trkpt>
      <trkpt lat="44.72702" lon="7.05578">
        <ele>2462.3</ele>
        <time>2026-09-02T15:04:32Z</time>
      </trkpt>
      <trkpt lat="44.72703" lon="7.05571">
        <ele>2462</ele>
        <time>2026-09-02T15:04:37Z</time>
      </trkpt>
      <trkpt lat="44.72705" lon="7.05563">
        <ele>2462</ele>
        <time>2026-09-02T15:04:43Z</time>
      </trkpt>
      <trkpt lat="44.72708" lon="7.05558">
        <ele>2462.8</ele>
        <time>2026-09-02T15:04:48Z</time>
      </trkpt>
      <trkpt lat="44.7271" lon="7.0555">
        <ele>2462.8</ele>
        <time>2026-09-02T15:04:53Z</time>
      </trkpt>
      <trkpt lat="44.72708" lon="7.05542">
        <ele>2461.1</ele>
        <time>2026-09-02T15:04:59Z</time>
      </trkpt>
      <trkpt lat="44.7271" lon="7.05533">
        <ele>2461.1</ele>
        <time>2026-09-02T15:05:04Z</time>
      </trkpt>
      <trkpt lat="44.72712" lon="7.05527">
        <ele>2461.4</ele>
        <time>2026-09-02T15:05:09Z</time>
      </trkpt>
      <trkpt lat="44.72715" lon="7.05517">
        <ele>2461.7</ele>
        <time>2026-09-02T15:05:15Z</time>
      </trkpt>
      <trkpt lat="44.72715" lon="7.05507">
        <ele>2460.7</ele>
        <time>2026-09-02T15:05:20Z</time>
      </trkpt>
      <trkpt lat="44.72713" lon="7.055">
        <ele>2459.1</ele>
        <time>2026-09-02T15:05:25Z</time>
      </trkpt>
      <trkpt lat="44.72712" lon="7.05491">
        <ele>2457.9</ele>
        <time>2026-09-02T15:05:31Z</time>
      </trkpt>
      <trkpt lat="44.72711" lon="7.05483">
        <ele>2456.7</ele>
        <time>2026-09-02T15:05:36Z</time>
      </trkpt>
      <trkpt lat="44.72711" lon="7.05476">
        <ele>2456.1</ele>
        <time>2026-09-02T15:05:41Z</time>
      </trkpt>
      <trkpt lat="44.72713" lon="7.05469">
        <ele>2456.4</ele>
        <time>2026-09-02T15:05:47Z</time>
      </trkpt>
      <trkpt lat="44.72713" lon="7.05461">
        <ele>2455.6</ele>
        <time>2026-09-02T15:05:52Z</time>
      </trkpt>
      <trkpt lat="44.72714" lon="7.05454">
        <ele>2455.5</ele>
        <time>2026-09-02T15:05:57Z</time>
      </trkpt>
      <trkpt lat="44.72713" lon="7.05444">
        <ele>2454.1</ele>
        <time>2026-09-02T15:06:03Z</time>
      </trkpt>
      <trkpt lat="44.72715" lon="7.05437">
        <ele>2454.4</ele>
        <time>2026-09-02T15:06:08Z</time>
      </trkpt>
      <trkpt lat="44.72717" lon="7.05432">
        <ele>2454.9</ele>
        <time>2026-09-02T15:06:13Z</time>
      </trkpt>
      <trkpt lat="44.72718" lon="7.05423">
        <ele>2454.6</ele>
        <time>2026-09-02T15:06:19Z</time>
      </trkpt>
      <trkpt lat="44.72721" lon="7.05418">
        <ele>2455.5</ele>
        <time>2026-09-02T15:06:24Z</time>
      </trkpt>
      <trkpt lat="44.72725" lon="7.05412">
        <ele>2456.7</ele>
        <time>2026-09-02T15:06:29Z</time>
      </trkpt>
      <trkpt lat="44.72728" lon="7.05404">
        <ele>2457</ele>
        <time>2026-09-02T15:06:35Z</time>
      </trkpt>
      <trkpt lat="44.7273" lon="7.05397">
        <ele>2456.9</ele>
        <time>2026-09-02T15:06:40Z</time>
      </trkpt>
      <trkpt lat="44.72734" lon="7.05391">
        <ele>2458</ele>
        <time>2026-09-02T15:06:45Z</time>
      </trkpt>
      <trkpt lat="44.72737" lon="7.05386">
        <ele>2458.8</ele>
        <time>2026-09-02T15:06:51Z</time>
      </trkpt>
      <trkpt lat="44.72737" lon="7.05386">
        <ele>2458.8</ele>
        <time>2026-09-02T15:06:56Z</time>
      </trkpt>
      <trkpt lat="44.72737" lon="7.05386">
        <ele>2458.8</ele>
        <time>2026-09-02T15:07:01Z</time>
      </trkpt>
      <trkpt lat="44.72736" lon="7.05383">
        <ele>2457.9</ele>
        <time>2026-09-02T15:07:07Z</time>
      </trkpt>
      <trkpt lat="44.72741" lon="7.05376">
        <ele>2459.3</ele>
        <time>2026-09-02T15:07:12Z</time>
      </trkpt>
      <trkpt lat="44.72744" lon="7.05375">
        <ele>2460.6</ele>
        <time>2026-09-02T15:07:17Z</time>
      </trkpt>
      <trkpt lat="44.72751" lon="7.05374">
        <ele>2463.7</ele>
        <time>2026-09-02T15:07:23Z</time>
      </trkpt>
      <trkpt lat="44.72754" lon="7.05366">
        <ele>2463.8</ele>
        <time>2026-09-02T15:07:28Z</time>
      </trkpt>
      <trkpt lat="44.72757" lon="7.0536">
        <ele>2464</ele>
        <time>2026-09-02T15:07:33Z</time>
      </trkpt>
      <trkpt lat="44.72761" lon="7.05354">
        <ele>2464.7</ele>
        <time>2026-09-02T15:07:39Z</time>
      </trkpt>
      <trkpt lat="44.72763" lon="7.05346">
        <ele>2464.3</ele>
        <time>2026-09-02T15:07:44Z</time>
      </trkpt>
      <trkpt lat="44.72767" lon="7.0534">
        <ele>2464.8</ele>
        <time>2026-09-02T15:07:49Z</time>
      </trkpt>
      <trkpt lat="44.72767" lon="7.05329">
        <ele>2463</ele>
        <time>2026-09-02T15:07:55Z</time>
      </trkpt>
      <trkpt lat="44.72769" lon="7.05321">
        <ele>2461.9</ele>
        <time>2026-09-02T15:08:00Z</time>
      </trkpt>
      <trkpt lat="44.72767" lon="7.05313">
        <ele>2459.4</ele>
        <time>2026-09-02T15:08:05Z</time>
      </trkpt>
      <trkpt lat="44.72767" lon="7.05305">
        <ele>2457.7</ele>
        <time>2026-09-02T15:08:11Z</time>
      </trkpt>
      <trkpt lat="44.72764" lon="7.05299">
        <ele>2455.3</ele>
        <time>2026-09-02T15:08:16Z</time>
      </trkpt>
      <trkpt lat="44.72764" lon="7.05296">
        <ele>2454.6</ele>
        <time>2026-09-02T15:08:21Z</time>
      </trkpt>
      <trkpt lat="44.72764" lon="7.0529">
        <ele>2453.3</ele>
        <time>2026-09-02T15:08:27Z</time>
      </trkpt>
      <trkpt lat="44.72766" lon="7.05287">
        <ele>2453.3</ele>
        <time>2026-09-02T15:08:32Z</time>
      </trkpt>
      <trkpt lat="44.72767" lon="7.05283">
        <ele>2452.8</ele>
        <time>2026-09-02T15:08:37Z</time>
      </trkpt>
      <trkpt lat="44.72766" lon="7.05281">
        <ele>2452</ele>
        <time>2026-09-02T15:08:43Z</time>
      </trkpt>
      <trkpt lat="44.72767" lon="7.05281">
        <ele>2452.4</ele>
        <time>2026-09-02T15:08:48Z</time>
      </trkpt>
      <trkpt lat="44.72767" lon="7.05281">
        <ele>2452.4</ele>
        <time>2026-09-02T15:08:53Z</time>
      </trkpt>
      <trkpt lat="44.72768" lon="7.05278">
        <ele>2452.1</ele>
        <time>2026-09-02T15:08:59Z</time>
      </trkpt>
      <trkpt lat="44.72772" lon="7.05277">
        <ele>2453.3</ele>
        <time>2026-09-02T15:09:04Z</time>
      </trkpt>
      <trkpt lat="44.72773" lon="7.05273">
        <ele>2452.8</ele>
        <time>2026-09-02T15:09:09Z</time>
      </trkpt>
      <trkpt lat="44.72772" lon="7.05266">
        <ele>2450.9</ele>
        <time>2026-09-02T15:09:15Z</time>
      </trkpt>
      <trkpt lat="44.72772" lon="7.05261">
        <ele>2449.9</ele>
        <time>2026-09-02T15:09:20Z</time>
      </trkpt>
      <trkpt lat="44.72771" lon="7.05254">
        <ele>2447.9</ele>
        <time>2026-09-02T15:09:25Z</time>
      </trkpt>
      <trkpt lat="44.72769" lon="7.05247">
        <ele>2445.6</ele>
        <time>2026-09-02T15:09:31Z</time>
      </trkpt>
      <trkpt lat="44.72765" lon="7.05243">
        <ele>2443.1</ele>
        <time>2026-09-02T15:09:36Z</time>
      </trkpt>
      <trkpt lat="44.72763" lon="7.05239">
        <ele>2441.4</ele>
        <time>2026-09-02T15:09:41Z</time>
      </trkpt>
      <trkpt lat="44.72763" lon="7.05233">
        <ele>2440</ele>
        <time>2026-09-02T15:09:47Z</time>
      </trkpt>
      <trkpt lat="44.72763" lon="7.05233">
        <ele>2440</ele>
        <time>2026-09-02T15:09:52Z</time>
      </trkpt>
      <trkpt lat="44.72763" lon="7.05233">
        <ele>2440</ele>
        <time>2026-09-02T15:09:57Z</time>
      </trkpt>
      <trkpt lat="44.72763" lon="7.05233">
        <ele>2440</ele>
        <time>2026-09-02T15:10:03Z</time>
      </trkpt>
      <trkpt lat="44.72763" lon="7.05233">
        <ele>2440</ele>
        <time>2026-09-02T15:10:08Z</time>
      </trkpt>
      <trkpt lat="44.72763" lon="7.05233">
        <ele>2440</ele>
        <time>2026-09-02T15:10:13Z</time>
      </trkpt>
      <trkpt lat="44.72763" lon="7.05233">
        <ele>2440</ele>
        <time>2026-09-02T15:10:19Z</time>
      </trkpt>
      <trkpt lat="44.72767" lon="7.05219">
        <ele>2438.1</ele>
        <time>2026-09-02T15:10:24Z</time>
      </trkpt>
      <trkpt lat="44.72765" lon="7.05216">
        <ele>2436.6</ele>
        <time>2026-09-02T15:10:29Z</time>
      </trkpt>
      <trkpt lat="44.72767" lon="7.05214">
        <ele>2436.9</ele>
        <time>2026-09-02T15:10:35Z</time>
      </trkpt>
      <trkpt lat="44.72769" lon="7.05211">
        <ele>2436.9</ele>
        <time>2026-09-02T15:10:40Z</time>
      </trkpt>
      <trkpt lat="44.72768" lon="7.05209">
        <ele>2436</ele>
        <time>2026-09-02T15:10:45Z</time>
      </trkpt>
      <trkpt lat="44.72767" lon="7.05207">
        <ele>2435.2</ele>
        <time>2026-09-02T15:10:51Z</time>
      </trkpt>
      <trkpt lat="44.72762" lon="7.05206">
        <ele>2433.2</ele>
        <time>2026-09-02T15:10:56Z</time>
      </trkpt>
      <trkpt lat="44.72761" lon="7.05201">
        <ele>2431.7</ele>
        <time>2026-09-02T15:11:01Z</time>
      </trkpt>
      <trkpt lat="44.72765" lon="7.05196">
        <ele>2431.9</ele>
        <time>2026-09-02T15:11:07Z</time>
      </trkpt>
      <trkpt lat="44.72765" lon="7.05191">
        <ele>2430.7</ele>
        <time>2026-09-02T15:11:12Z</time>
      </trkpt>
      <trkpt lat="44.72762" lon="7.05189">
        <ele>2429.2</ele>
        <time>2026-09-02T15:11:17Z</time>
      </trkpt>
      <trkpt lat="44.72757" lon="7.05186">
        <ele>2426.8</ele>
        <time>2026-09-02T15:11:23Z</time>
      </trkpt>
      <trkpt lat="44.72756" lon="7.05183">
        <ele>2425.7</ele>
        <time>2026-09-02T15:11:28Z</time>
      </trkpt>
      <trkpt lat="44.72757" lon="7.05179">
        <ele>2425.1</ele>
        <time>2026-09-02T15:11:33Z</time>
      </trkpt>
      <trkpt lat="44.7276" lon="7.05173">
        <ele>2424.7</ele>
        <time>2026-09-02T15:11:39Z</time>
      </trkpt>
      <trkpt lat="44.72761" lon="7.05167">
        <ele>2423.6</ele>
        <time>2026-09-02T15:11:44Z</time>
      </trkpt>
      <trkpt lat="44.72764" lon="7.05163">
        <ele>2423.9</ele>
        <time>2026-09-02T15:11:49Z</time>
      </trkpt>
      <trkpt lat="44.72767" lon="7.0516">
        <ele>2424.3</ele>
        <time>2026-09-02T15:11:55Z</time>
      </trkpt>
      <trkpt lat="44.72771" lon="7.05158">
        <ele>2425.2</ele>
        <time>2026-09-02T15:12:00Z</time>
      </trkpt>
      <trkpt lat="44.72772" lon="7.05155">
        <ele>2425</ele>
        <time>2026-09-02T15:12:05Z</time>
      </trkpt>
      <trkpt lat="44.72773" lon="7.05151">
        <ele>2424.6</ele>
        <time>2026-09-02T15:12:11Z</time>
      </trkpt>
      <trkpt lat="44.72778" lon="7.05148">
        <ele>2425.6</ele>
        <time>2026-09-02T15:12:16Z</time>
      </trkpt>
      <trkpt lat="44.7278" lon="7.05147">
        <ele>2426.1</ele>
        <time>2026-09-02T15:12:21Z</time>
      </trkpt>
      <trkpt lat="44.72785" lon="7.05143">
        <ele>2427</ele>
        <time>2026-09-02T15:12:27Z</time>
      </trkpt>
      <trkpt lat="44.7279" lon="7.0514">
        <ele>2428</ele>
        <time>2026-09-02T15:12:32Z</time>
      </trkpt>
      <trkpt lat="44.7279" lon="7.05133">
        <ele>2426.7</ele>
        <time>2026-09-02T15:12:37Z</time>
      </trkpt>
      <trkpt lat="44.72791" lon="7.05128">
        <ele>2426.1</ele>
        <time>2026-09-02T15:12:43Z</time>
      </trkpt>
      <trkpt lat="44.72793" lon="7.05124">
        <ele>2426</ele>
        <time>2026-09-02T15:12:48Z</time>
      </trkpt>
      <trkpt lat="44.72795" lon="7.05122">
        <ele>2426.3</ele>
        <time>2026-09-02T15:12:53Z</time>
      </trkpt>
      <trkpt lat="44.72799" lon="7.05118">
        <ele>2426.8</ele>
        <time>2026-09-02T15:12:59Z</time>
      </trkpt>
      <trkpt lat="44.72799" lon="7.05118">
        <ele>2426.8</ele>
        <time>2026-09-02T15:13:04Z</time>
      </trkpt>
      <trkpt lat="44.72799" lon="7.05118">
        <ele>2426.8</ele>
        <time>2026-09-02T15:13:09Z</time>
      </trkpt>
      <trkpt lat="44.72799" lon="7.05118">
        <ele>2426.8</ele>
        <time>2026-09-02T15:13:15Z</time>
      </trkpt>
      <trkpt lat="44.72792" lon="7.05107">
        <ele>2422.5</ele>
        <time>2026-09-02T15:13:20Z</time>
      </trkpt>
      <trkpt lat="44.72792" lon="7.05104">
        <ele>2421.9</ele>
        <time>2026-09-02T15:13:25Z</time>
      </trkpt>
      <trkpt lat="44.72787" lon="7.05101">
        <ele>2419.8</ele>
        <time>2026-09-02T15:13:31Z</time>
      </trkpt>
      <trkpt lat="44.72788" lon="7.05097">
        <ele>2419.4</ele>
        <time>2026-09-02T15:13:36Z</time>
      </trkpt>
      <trkpt lat="44.7279" lon="7.05093">
        <ele>2419.3</ele>
        <time>2026-09-02T15:13:41Z</time>
      </trkpt>
      <trkpt lat="44.7279" lon="7.05086">
        <ele>2418</ele>
        <time>2026-09-02T15:13:47Z</time>
      </trkpt>
      <trkpt lat="44.72789" lon="7.05078">
        <ele>2416.5</ele>
        <time>2026-09-02T15:13:52Z</time>
      </trkpt>
      <trkpt lat="44.72789" lon="7.05072">
        <ele>2415.9</ele>
        <time>2026-09-02T15:13:57Z</time>
      </trkpt>
      <trkpt lat="44.72788" lon="7.05066">
        <ele>2414.9</ele>
        <time>2026-09-02T15:14:03Z</time>
      </trkpt>
      <trkpt lat="44.72788" lon="7.05061">
        <ele>2414.3</ele>
        <time>2026-09-02T15:14:08Z</time>
      </trkpt>
      <trkpt lat="44.72784" lon="7.0506">
        <ele>2413.1</ele>
        <time>2026-09-02T15:14:13Z</time>
      </trkpt>
      <trkpt lat="44.7278" lon="7.05055">
        <ele>2411.4</ele>
        <time>2026-09-02T15:14:19Z</time>
      </trkpt>
      <trkpt lat="44.7278" lon="7.05053">
        <ele>2411.2</ele>
        <time>2026-09-02T15:14:24Z</time>
      </trkpt>
      <trkpt lat="44.72783" lon="7.05048">
        <ele>2411.5</ele>
        <time>2026-09-02T15:14:29Z</time>
      </trkpt>
      <trkpt lat="44.7278" lon="7.05041">
        <ele>2410</ele>
        <time>2026-09-02T15:14:35Z</time>
      </trkpt>
      <trkpt lat="44.72777" lon="7.05038">
        <ele>2408.9</ele>
        <time>2026-09-02T15:14:40Z</time>
      </trkpt>
      <trkpt lat="44.72773" lon="7.05036">
        <ele>2407.8</ele>
        <time>2026-09-02T15:14:45Z</time>
      </trkpt>
      <trkpt lat="44.72773" lon="7.05033">
        <ele>2407.5</ele>
        <time>2026-09-02T15:14:51Z</time>
      </trkpt>
      <trkpt lat="44.72774" lon="7.05031">
        <ele>2407.5</ele>
        <time>2026-09-02T15:14:56Z</time>
      </trkpt>
      <trkpt lat="44.72774" lon="7.05026">
        <ele>2407.1</ele>
        <time>2026-09-02T15:15:01Z</time>
      </trkpt>
      <trkpt lat="44.72771" lon="7.05021">
        <ele>2405.9</ele>
        <time>2026-09-02T15:15:07Z</time>
      </trkpt>
      <trkpt lat="44.72769" lon="7.05019">
        <ele>2405.3</ele>
        <time>2026-09-02T15:15:12Z</time>
      </trkpt>
      <trkpt lat="44.72765" lon="7.0502">
        <ele>2404.5</ele>
        <time>2026-09-02T15:15:17Z</time>
      </trkpt>
      <trkpt lat="44.7276" lon="7.05019">
        <ele>2403.3</ele>
        <time>2026-09-02T15:15:23Z</time>
      </trkpt>
      <trkpt lat="44.72759" lon="7.05014">
        <ele>2402.7</ele>
        <time>2026-09-02T15:15:28Z</time>
      </trkpt>
      <trkpt lat="44.7276" lon="7.05012">
        <ele>2402.8</ele>
        <time>2026-09-02T15:15:33Z</time>
      </trkpt>
      <trkpt lat="44.72757" lon="7.05009">
        <ele>2402</ele>
        <time>2026-09-02T15:15:39Z</time>
      </trkpt>
      <trkpt lat="44.72754" lon="7.05008">
        <ele>2401.3</ele>
        <time>2026-09-02T15:15:44Z</time>
      </trkpt>
      <trkpt lat="44.72753" lon="7.05005">
        <ele>2400.9</ele>
        <time>2026-09-02T15:15:49Z</time>
      </trkpt>
      <trkpt lat="44.72751" lon="7.05001">
        <ele>2400.3</ele>
        <time>2026-09-02T15:15:55Z</time>
      </trkpt>
      <trkpt lat="44.72752" lon="7.04997">
        <ele>2400.3</ele>
        <time>2026-09-02T15:16:00Z</time>
      </trkpt>
      <trkpt lat="44.72754" lon="7.04993">
        <ele>2400.7</ele>
        <time>2026-09-02T15:16:05Z</time>
      </trkpt>
      <trkpt lat="44.72756" lon="7.0499">
        <ele>2401</ele>
        <time>2026-09-02T15:16:11Z</time>
      </trkpt>
      <trkpt lat="44.72759" lon="7.04988">
        <ele>2401.5</ele>
        <time>2026-09-02T15:16:16Z</time>
      </trkpt>
      <trkpt lat="44.7276" lon="7.0498">
        <ele>2401.6</ele>
        <time>2026-09-02T15:16:21Z</time>
      </trkpt>
      <trkpt lat="44.72759" lon="7.04969">
        <ele>2401.2</ele>
        <time>2026-09-02T15:16:27Z</time>
      </trkpt>
      <trkpt lat="44.7276" lon="7.04963">
        <ele>2401.3</ele>
        <time>2026-09-02T15:16:32Z</time>
      </trkpt>
      <trkpt lat="44.72759" lon="7.04953">
        <ele>2400.9</ele>
        <time>2026-09-02T15:16:37Z</time>
      </trkpt>
      <trkpt lat="44.72758" lon="7.04943">
        <ele>2400.6</ele>
        <time>2026-09-02T15:16:43Z</time>
      </trkpt>
      <trkpt lat="44.72757" lon="7.04936">
        <ele>2400.3</ele>
        <time>2026-09-02T15:16:48Z</time>
      </trkpt>
      <trkpt lat="44.72759" lon="7.04933">
        <ele>2400.6</ele>
        <time>2026-09-02T15:16:53Z</time>
      </trkpt>
      <trkpt lat="44.7276" lon="7.04929">
        <ele>2400.7</ele>
        <time>2026-09-02T15:16:59Z</time>
      </trkpt>
      <trkpt lat="44.7276" lon="7.04924">
        <ele>2400.6</ele>
        <time>2026-09-02T15:17:04Z</time>
      </trkpt>
      <trkpt lat="44.72761" lon="7.04914">
        <ele>2400.6</ele>
        <time>2026-09-02T15:17:09Z</time>
      </trkpt>
      <trkpt lat="44.72761" lon="7.04904">
        <ele>2400.7</ele>
        <time>2026-09-02T15:17:15Z</time>
      </trkpt>
      <trkpt lat="44.72761" lon="7.04897">
        <ele>2400.8</ele>
        <time>2026-09-02T15:17:20Z</time>
      </trkpt>
      <trkpt lat="44.7276" lon="7.04887">
        <ele>2400.9</ele>
        <time>2026-09-02T15:17:25Z</time>
      </trkpt>
      <trkpt lat="44.72757" lon="7.04878">
        <ele>2400.7</ele>
        <time>2026-09-02T15:17:31Z</time>
      </trkpt>
      <trkpt lat="44.72758" lon="7.04872">
        <ele>2400.9</ele>
        <time>2026-09-02T15:17:36Z</time>
      </trkpt>
      <trkpt lat="44.72757" lon="7.04863">
        <ele>2400.9</ele>
        <time>2026-09-02T15:17:41Z</time>
      </trkpt>
      <trkpt lat="44.72759" lon="7.04855">
        <ele>2401.2</ele>
        <time>2026-09-02T15:17:47Z</time>
      </trkpt>
      <trkpt lat="44.7276" lon="7.04847">
        <ele>2401.4</ele>
        <time>2026-09-02T15:17:52Z</time>
      </trkpt>
      <trkpt lat="44.72761" lon="7.04841">
        <ele>2401.6</ele>
        <time>2026-09-02T15:17:57Z</time>
      </trkpt>
      <trkpt lat="44.7276" lon="7.04831">
        <ele>2401.3</ele>
        <time>2026-09-02T15:18:03Z</time>
      </trkpt>
      <trkpt lat="44.7276" lon="7.04831">
        <ele>2401.3</ele>
        <time>2026-09-02T15:18:08Z</time>
      </trkpt>
      <trkpt lat="44.72761" lon="7.04831">
        <ele>2401.4</ele>
        <time>2026-09-02T15:18:13Z</time>
      </trkpt>
      <trkpt lat="44.72761" lon="7.04822">
        <ele>2400.3</ele>
        <time>2026-09-02T15:18:19Z</time>
      </trkpt>
      <trkpt lat="44.72761" lon="7.04816">
        <ele>2399.6</ele>
        <time>2026-09-02T15:18:24Z</time>
      </trkpt>
      <trkpt lat="44.72762" lon="7.0481">
        <ele>2399</ele>
        <time>2026-09-02T15:18:29Z</time>
      </trkpt>
      <trkpt lat="44.72761" lon="7.04804">
        <ele>2398.2</ele>
        <time>2026-09-02T15:18:35Z</time>
      </trkpt>
      <trkpt lat="44.72761" lon="7.04798">
        <ele>2397.5</ele>
        <time>2026-09-02T15:18:40Z</time>
      </trkpt>
      <trkpt lat="44.72761" lon="7.04791">
        <ele>2396.6</ele>
        <time>2026-09-02T15:18:45Z</time>
      </trkpt>
      <trkpt lat="44.7276" lon="7.04787">
        <ele>2396.1</ele>
        <time>2026-09-02T15:18:51Z</time>
      </trkpt>
      <trkpt lat="44.72764" lon="7.04784">
        <ele>2396</ele>
        <time>2026-09-02T15:18:56Z</time>
      </trkpt>
      <trkpt lat="44.72767" lon="7.04783">
        <ele>2396.1</ele>
        <time>2026-09-02T15:19:01Z</time>
      </trkpt>
      <trkpt lat="44.72771" lon="7.04779">
        <ele>2395.9</ele>
        <time>2026-09-02T15:19:07Z</time>
      </trkpt>
      <trkpt lat="44.72775" lon="7.04775">
        <ele>2395.7</ele>
        <time>2026-09-02T15:19:12Z</time>
      </trkpt>
      <trkpt lat="44.7278" lon="7.04769">
        <ele>2395.4</ele>
        <time>2026-09-02T15:19:17Z</time>
      </trkpt>
      <trkpt lat="44.72781" lon="7.04764">
        <ele>2394.8</ele>
        <time>2026-09-02T15:19:23Z</time>
      </trkpt>
      <trkpt lat="44.72783" lon="7.0476">
        <ele>2394.5</ele>
        <time>2026-09-02T15:19:28Z</time>
      </trkpt>
      <trkpt lat="44.72784" lon="7.04755">
        <ele>2394</ele>
        <time>2026-09-02T15:19:33Z</time>
      </trkpt>
      <trkpt lat="44.72786" lon="7.0475">
        <ele>2393.6</ele>
        <time>2026-09-02T15:19:39Z</time>
      </trkpt>
      <trkpt lat="44.72786" lon="7.04746">
        <ele>2393.1</ele>
        <time>2026-09-02T15:19:44Z</time>
      </trkpt>
      <trkpt lat="44.72787" lon="7.04741">
        <ele>2392.6</ele>
        <time>2026-09-02T15:19:49Z</time>
      </trkpt>
      <trkpt lat="44.72788" lon="7.04737">
        <ele>2392.2</ele>
        <time>2026-09-02T15:19:55Z</time>
      </trkpt>
      <trkpt lat="44.72788" lon="7.04731">
        <ele>2391.5</ele>
        <time>2026-09-02T15:20:00Z</time>
      </trkpt>
      <trkpt lat="44.72788" lon="7.04725">
        <ele>2390.7</ele>
        <time>2026-09-02T15:20:05Z</time>
      </trkpt>
      <trkpt lat="44.72789" lon="7.0472">
        <ele>2390.2</ele>
        <time>2026-09-02T15:20:11Z</time>
      </trkpt>
      <trkpt lat="44.72789" lon="7.04716">
        <ele>2389.7</ele>
        <time>2026-09-02T15:20:16Z</time>
      </trkpt>
      <trkpt lat="44.72788" lon="7.0471">
        <ele>2388.9</ele>
        <time>2026-09-02T15:20:21Z</time>
      </trkpt>
      <trkpt lat="44.72788" lon="7.04708">
        <ele>2388.7</ele>
        <time>2026-09-02T15:20:27Z</time>
      </trkpt>
      <trkpt lat="44.72788" lon="7.04708">
        <ele>2388.7</ele>
        <time>2026-09-02T15:20:32Z</time>
      </trkpt>
      <trkpt lat="44.72789" lon="7.04701">
        <ele>2387.9</ele>
        <time>2026-09-02T15:20:37Z</time>
      </trkpt>
      <trkpt lat="44.72789" lon="7.04694">
        <ele>2387.1</ele>
        <time>2026-09-02T15:20:43Z</time>
      </trkpt>
      <trkpt lat="44.72788" lon="7.04687">
        <ele>2386.2</ele>
        <time>2026-09-02T15:20:48Z</time>
      </trkpt>
      <trkpt lat="44.72788" lon="7.04681">
        <ele>2385.5</ele>
        <time>2026-09-02T15:20:53Z</time>
      </trkpt>
      <trkpt lat="44.72788" lon="7.04675">
        <ele>2384.7</ele>
        <time>2026-09-02T15:20:59Z</time>
      </trkpt>
      <trkpt lat="44.72787" lon="7.04671">
        <ele>2384.2</ele>
        <time>2026-09-02T15:21:04Z</time>
      </trkpt>
      <trkpt lat="44.72786" lon="7.04665">
        <ele>2383.4</ele>
        <time>2026-09-02T15:21:09Z</time>
      </trkpt>
      <trkpt lat="44.72786" lon="7.0466">
        <ele>2382.7</ele>
        <time>2026-09-02T15:21:15Z</time>
      </trkpt>
      <trkpt lat="44.72788" lon="7.04657">
        <ele>2382.5</ele>
        <time>2026-09-02T15:21:20Z</time>
      </trkpt>
      <trkpt lat="44.72787" lon="7.04651">
        <ele>2381.6</ele>
        <time>2026-09-02T15:21:25Z</time>
      </trkpt>
      <trkpt lat="44.72787" lon="7.04645">
        <ele>2380.9</ele>
        <time>2026-09-02T15:21:31Z</time>
      </trkpt>
      <trkpt lat="44.72787" lon="7.04638">
        <ele>2380</ele>
        <time>2026-09-02T15:21:36Z</time>
      </trkpt>
      <trkpt lat="44.72788" lon="7.04633">
        <ele>2379.4</ele>
        <time>2026-09-02T15:21:41Z</time>
      </trkpt>
      <trkpt lat="44.72788" lon="7.04627">
        <ele>2378.6</ele>
        <time>2026-09-02T15:21:47Z</time>
      </trkpt>
      <trkpt lat="44.72789" lon="7.04621">
        <ele>2378</ele>
        <time>2026-09-02T15:21:52Z</time>
      </trkpt>
      <trkpt lat="44.7279" lon="7.04616">
        <ele>2377.4</ele>
        <time>2026-09-02T15:21:57Z</time>
      </trkpt>
      <trkpt lat="44.72795" lon="7.04611">
        <ele>2377.4</ele>
        <time>2026-09-02T15:22:03Z</time>
      </trkpt>
      <trkpt lat="44.72798" lon="7.04606">
        <ele>2377.1</ele>
        <time>2026-09-02T15:22:08Z</time>
      </trkpt>
      <trkpt lat="44.72801" lon="7.04603">
        <ele>2377.1</ele>
        <time>2026-09-02T15:22:13Z</time>
      </trkpt>
      <trkpt lat="44.72802" lon="7.04599">
        <ele>2376.7</ele>
        <time>2026-09-02T15:22:19Z</time>
      </trkpt>
      <trkpt lat="44.72806" lon="7.04595">
        <ele>2376.7</ele>
        <time>2026-09-02T15:22:24Z</time>
      </trkpt>
      <trkpt lat="44.7281" lon="7.04592">
        <ele>2376.9</ele>
        <time>2026-09-02T15:22:29Z</time>
      </trkpt>
      <trkpt lat="44.72815" lon="7.04588">
        <ele>2377.1</ele>
        <time>2026-09-02T15:22:35Z</time>
      </trkpt>
      <trkpt lat="44.72814" lon="7.04584">
        <ele>2376.5</ele>
        <time>2026-09-02T15:22:40Z</time>
      </trkpt>
      <trkpt lat="44.72812" lon="7.04581">
        <ele>2376</ele>
        <time>2026-09-02T15:22:45Z</time>
      </trkpt>
      <trkpt lat="44.72811" lon="7.04575">
        <ele>2375.4</ele>
        <time>2026-09-02T15:22:51Z</time>
      </trkpt>
      <trkpt lat="44.72809" lon="7.0457">
        <ele>2374.7</ele>
        <time>2026-09-02T15:22:56Z</time>
      </trkpt>
      <trkpt lat="44.72805" lon="7.04569">
        <ele>2374.1</ele>
        <time>2026-09-02T15:23:01Z</time>
      </trkpt>
      <trkpt lat="44.72802" lon="7.04569">
        <ele>2373.7</ele>
        <time>2026-09-02T15:23:07Z</time>
      </trkpt>
      <trkpt lat="44.72802" lon="7.04569">
        <ele>2373.7</ele>
        <time>2026-09-02T15:23:12Z</time>
      </trkpt>
      <trkpt lat="44.72802" lon="7.04569">
        <ele>2373.7</ele>
        <time>2026-09-02T15:23:17Z</time>
      </trkpt>
      <trkpt lat="44.72802" lon="7.04569">
        <ele>2373.7</ele>
        <time>2026-09-02T15:23:23Z</time>
      </trkpt>
      <trkpt lat="44.72804" lon="7.0456">
        <ele>2373.2</ele>
        <time>2026-09-02T15:23:28Z</time>
      </trkpt>
      <trkpt lat="44.72809" lon="7.04557">
        <ele>2373.6</ele>
        <time>2026-09-02T15:23:33Z</time>
      </trkpt>
      <trkpt lat="44.72815" lon="7.04552">
        <ele>2373.9</ele>
        <time>2026-09-02T15:23:39Z</time>
      </trkpt>
      <trkpt lat="44.7282" lon="7.04548">
        <ele>2374.3</ele>
        <time>2026-09-02T15:23:44Z</time>
      </trkpt>
      <trkpt lat="44.72823" lon="7.04544">
        <ele>2374.3</ele>
        <time>2026-09-02T15:23:49Z</time>
      </trkpt>
      <trkpt lat="44.72827" lon="7.04539">
        <ele>2374.4</ele>
        <time>2026-09-02T15:23:55Z</time>
      </trkpt>
      <trkpt lat="44.7283" lon="7.04534">
        <ele>2374.4</ele>
        <time>2026-09-02T15:24:00Z</time>
      </trkpt>
      <trkpt lat="44.72828" lon="7.04537">
        <ele>2374.4</ele>
        <time>2026-09-02T15:24:05Z</time>
      </trkpt>
      <trkpt lat="44.72823" lon="7.0454">
        <ele>2374</ele>
        <time>2026-09-02T15:24:11Z</time>
      </trkpt>
      <trkpt lat="44.72819" lon="7.04541">
        <ele>2373.6</ele>
        <time>2026-09-02T15:24:16Z</time>
      </trkpt>
      <trkpt lat="44.72816" lon="7.04537">
        <ele>2372.8</ele>
        <time>2026-09-02T15:24:21Z</time>
      </trkpt>
      <trkpt lat="44.72815" lon="7.04536">
        <ele>2372.6</ele>
        <time>2026-09-02T15:24:27Z</time>
      </trkpt>
      <trkpt lat="44.72814" lon="7.04536">
        <ele>2372.5</ele>
        <time>2026-09-02T15:24:32Z</time>
      </trkpt>
      <trkpt lat="44.72811" lon="7.04527">
        <ele>2371.3</ele>
        <time>2026-09-03T05:43:24Z</time>
      </trkpt>
      <trkpt lat="44.7281" lon="7.04529">
        <ele>2371.4</ele>
        <time>2026-09-03T05:43:30Z</time>
      </trkpt>
      <trkpt lat="44.72805" lon="7.04545">
        <ele>2372</ele>
        <time>2026-09-03T05:43:35Z</time>
      </trkpt>
      <trkpt lat="44.72805" lon="7.04545">
        <ele>2372</ele>
        <time>2026-09-03T05:43:40Z</time>
      </trkpt>
      <trkpt lat="44.72805" lon="7.04545">
        <ele>2372</ele>
        <time>2026-09-03T05:43:46Z</time>
      </trkpt>
      <trkpt lat="44.72805" lon="7.04545">
        <ele>2372</ele>
        <time>2026-09-03T05:43:51Z</time>
      </trkpt>
      <trkpt lat="44.72805" lon="7.04545">
        <ele>2372</ele>
        <time>2026-09-03T05:43:56Z</time>
      </trkpt>
      <trkpt lat="44.72805" lon="7.04545">
        <ele>2372</ele>
        <time>2026-09-03T05:44:02Z</time>
      </trkpt>
      <trkpt lat="44.72805" lon="7.04545">
        <ele>2372</ele>
        <time>2026-09-03T05:44:07Z</time>
      </trkpt>
      <trkpt lat="44.72795" lon="7.04547">
        <ele>2370.9</ele>
        <time>2026-09-03T05:44:12Z</time>
      </trkpt>
      <trkpt lat="44.7279" lon="7.04548">
        <ele>2370.3</ele>
        <time>2026-09-03T05:44:18Z</time>
      </trkpt>
      <trkpt lat="44.72785" lon="7.04553">
        <ele>2370.1</ele>
        <time>2026-09-03T05:44:23Z</time>
      </trkpt>
      <trkpt lat="44.7278" lon="7.04557">
        <ele>2369.7</ele>
        <time>2026-09-03T05:44:28Z</time>
      </trkpt>
      <trkpt lat="44.72774" lon="7.04557">
        <ele>2369</ele>
        <time>2026-09-03T05:44:34Z</time>
      </trkpt>
      <trkpt lat="44.72773" lon="7.04552">
        <ele>2368.4</ele>
        <time>2026-09-03T05:44:39Z</time>
      </trkpt>
      <trkpt lat="44.72767" lon="7.04553">
        <ele>2367.7</ele>
        <time>2026-09-03T05:44:44Z</time>
      </trkpt>
      <trkpt lat="44.72762" lon="7.04547">
        <ele>2366.5</ele>
        <time>2026-09-03T05:44:50Z</time>
      </trkpt>
      <trkpt lat="44.72759" lon="7.04544">
        <ele>2365.9</ele>
        <time>2026-09-03T05:44:55Z</time>
      </trkpt>
      <trkpt lat="44.72758" lon="7.04543">
        <ele>2365.7</ele>
        <time>2026-09-03T05:45:00Z</time>
      </trkpt>
      <trkpt lat="44.72755" lon="7.04544">
        <ele>2365.4</ele>
        <time>2026-09-03T05:45:06Z</time>
      </trkpt>
      <trkpt lat="44.72754" lon="7.04543">
        <ele>2365.1</ele>
        <time>2026-09-03T05:45:11Z</time>
      </trkpt>
      <trkpt lat="44.72755" lon="7.04538">
        <ele>2364.9</ele>
        <time>2026-09-03T05:45:16Z</time>
      </trkpt>
      <trkpt lat="44.72752" lon="7.04531">
        <ele>2363.9</ele>
        <time>2026-09-03T05:45:22Z</time>
      </trkpt>
      <trkpt lat="44.72751" lon="7.04526">
        <ele>2363.3</ele>
        <time>2026-09-03T05:45:27Z</time>
      </trkpt>
      <trkpt lat="44.72748" lon="7.04524">
        <ele>2363</ele>
        <time>2026-09-03T05:45:32Z</time>
      </trkpt>
      <trkpt lat="44.72745" lon="7.04518">
        <ele>2362.6</ele>
        <time>2026-09-03T05:45:38Z</time>
      </trkpt>
      <trkpt lat="44.72745" lon="7.04518">
        <ele>2362.6</ele>
        <time>2026-09-03T05:45:43Z</time>
      </trkpt>
      <trkpt lat="44.72745" lon="7.04518">
        <ele>2362.6</ele>
        <time>2026-09-03T05:45:48Z</time>
      </trkpt>
      <trkpt lat="44.72746" lon="7.04513">
        <ele>2362.2</ele>
        <time>2026-09-03T05:45:54Z</time>
      </trkpt>
      <trkpt lat="44.72745" lon="7.04507">
        <ele>2361.8</ele>
        <time>2026-09-03T05:45:59Z</time>
      </trkpt>
      <trkpt lat="44.72746" lon="7.04502">
        <ele>2361.3</ele>
        <time>2026-09-03T05:46:04Z</time>
      </trkpt>
      <trkpt lat="44.72748" lon="7.04497">
        <ele>2361.1</ele>
        <time>2026-09-03T05:46:10Z</time>
      </trkpt>
      <trkpt lat="44.7275" lon="7.0449">
        <ele>2360.9</ele>
        <time>2026-09-03T05:46:15Z</time>
      </trkpt>
      <trkpt lat="44.72752" lon="7.04484">
        <ele>2361</ele>
        <time>2026-09-03T05:46:20Z</time>
      </trkpt>
      <trkpt lat="44.72752" lon="7.04475">
        <ele>2360.9</ele>
        <time>2026-09-03T05:46:26Z</time>
      </trkpt>
      <trkpt lat="44.72751" lon="7.04466">
        <ele>2360.7</ele>
        <time>2026-09-03T05:46:31Z</time>
      </trkpt>
      <trkpt lat="44.72755" lon="7.0446">
        <ele>2360.9</ele>
        <time>2026-09-03T05:46:36Z</time>
      </trkpt>
      <trkpt lat="44.72755" lon="7.0446">
        <ele>2360.9</ele>
        <time>2026-09-03T05:46:42Z</time>
      </trkpt>
      <trkpt lat="44.72755" lon="7.0446">
        <ele>2360.9</ele>
        <time>2026-09-03T05:46:47Z</time>
      </trkpt>
      <trkpt lat="44.72755" lon="7.0446">
        <ele>2360.9</ele>
        <time>2026-09-03T05:46:52Z</time>
      </trkpt>
      <trkpt lat="44.72755" lon="7.0446">
        <ele>2360.9</ele>
        <time>2026-09-03T05:46:58Z</time>
      </trkpt>
      <trkpt lat="44.72755" lon="7.0446">
        <ele>2360.9</ele>
        <time>2026-09-03T05:47:03Z</time>
      </trkpt>
      <trkpt lat="44.72755" lon="7.0446">
        <ele>2360.9</ele>
        <time>2026-09-03T05:47:08Z</time>
      </trkpt>
      <trkpt lat="44.72746" lon="7.04447">
        <ele>2360.9</ele>
        <time>2026-09-03T05:47:14Z</time>
      </trkpt>
      <trkpt lat="44.72746" lon="7.04447">
        <ele>2360.9</ele>
        <time>2026-09-03T05:47:19Z</time>
      </trkpt>
      <trkpt lat="44.72746" lon="7.04447">
        <ele>2360.9</ele>
        <time>2026-09-03T05:47:24Z</time>
      </trkpt>
      <trkpt lat="44.72738" lon="7.04437">
        <ele>2362</ele>
        <time>2026-09-03T05:47:30Z</time>
      </trkpt>
      <trkpt lat="44.72738" lon="7.04435">
        <ele>2362</ele>
        <time>2026-09-03T05:47:35Z</time>
      </trkpt>
      <trkpt lat="44.72738" lon="7.04435">
        <ele>2362</ele>
        <time>2026-09-03T05:47:40Z</time>
      </trkpt>
      <trkpt lat="44.72738" lon="7.04435">
        <ele>2362</ele>
        <time>2026-09-03T05:47:46Z</time>
      </trkpt>
      <trkpt lat="44.72738" lon="7.04435">
        <ele>2362</ele>
        <time>2026-09-03T05:47:51Z</time>
      </trkpt>
      <trkpt lat="44.72738" lon="7.04435">
        <ele>2362</ele>
        <time>2026-09-03T05:47:56Z</time>
      </trkpt>
      <trkpt lat="44.72738" lon="7.04435">
        <ele>2362</ele>
        <time>2026-09-03T05:48:02Z</time>
      </trkpt>
      <trkpt lat="44.72738" lon="7.04435">
        <ele>2362</ele>
        <time>2026-09-03T05:48:07Z</time>
      </trkpt>
      <trkpt lat="44.72738" lon="7.04435">
        <ele>2362</ele>
        <time>2026-09-03T05:48:12Z</time>
      </trkpt>
      <trkpt lat="44.72738" lon="7.04435">
        <ele>2362</ele>
        <time>2026-09-03T05:48:18Z</time>
      </trkpt>
      <trkpt lat="44.72738" lon="7.04435">
        <ele>2362</ele>
        <time>2026-09-03T05:48:23Z</time>
      </trkpt>
      <trkpt lat="44.72738" lon="7.04435">
        <ele>2362</ele>
        <time>2026-09-03T05:48:28Z</time>
      </trkpt>
      <trkpt lat="44.72738" lon="7.04435">
        <ele>2362</ele>
        <time>2026-09-03T05:48:34Z</time>
      </trkpt>
      <trkpt lat="44.72733" lon="7.04437">
        <ele>2362.8</ele>
        <time>2026-09-03T05:48:39Z</time>
      </trkpt>
      <trkpt lat="44.72733" lon="7.04437">
        <ele>2362.8</ele>
        <time>2026-09-03T05:48:44Z</time>
      </trkpt>
      <trkpt lat="44.72733" lon="7.04437">
        <ele>2362.8</ele>
        <time>2026-09-03T05:48:50Z</time>
      </trkpt>
      <trkpt lat="44.72733" lon="7.04437">
        <ele>2362.8</ele>
        <time>2026-09-03T05:48:55Z</time>
      </trkpt>
      <trkpt lat="44.72733" lon="7.04437">
        <ele>2362.8</ele>
        <time>2026-09-03T05:49:00Z</time>
      </trkpt>
      <trkpt lat="44.72731" lon="7.04438">
        <ele>2363</ele>
        <time>2026-09-03T05:49:06Z</time>
      </trkpt>
      <trkpt lat="44.72725" lon="7.04437">
        <ele>2363.9</ele>
        <time>2026-09-03T05:49:11Z</time>
      </trkpt>
      <trkpt lat="44.7272" lon="7.04437">
        <ele>2364.7</ele>
        <time>2026-09-03T05:49:16Z</time>
      </trkpt>
      <trkpt lat="44.72713" lon="7.04438">
        <ele>2365.7</ele>
        <time>2026-09-03T05:49:22Z</time>
      </trkpt>
      <trkpt lat="44.72709" lon="7.04437">
        <ele>2366.3</ele>
        <time>2026-09-03T05:49:27Z</time>
      </trkpt>
      <trkpt lat="44.72702" lon="7.04436">
        <ele>2367.4</ele>
        <time>2026-09-03T05:49:32Z</time>
      </trkpt>
      <trkpt lat="44.72696" lon="7.04434">
        <ele>2368.4</ele>
        <time>2026-09-03T05:49:38Z</time>
      </trkpt>
      <trkpt lat="44.7269" lon="7.04432">
        <ele>2369.5</ele>
        <time>2026-09-03T05:49:43Z</time>
      </trkpt>
      <trkpt lat="44.72687" lon="7.0443">
        <ele>2370.2</ele>
        <time>2026-09-03T05:49:48Z</time>
      </trkpt>
      <trkpt lat="44.72685" lon="7.04429">
        <ele>2370.6</ele>
        <time>2026-09-03T05:49:54Z</time>
      </trkpt>
      <trkpt lat="44.72686" lon="7.04433">
        <ele>2370.1</ele>
        <time>2026-09-03T05:49:59Z</time>
      </trkpt>
      <trkpt lat="44.72685" lon="7.04434">
        <ele>2370.1</ele>
        <time>2026-09-03T05:50:04Z</time>
      </trkpt>
      <trkpt lat="44.72685" lon="7.04434">
        <ele>2370.1</ele>
        <time>2026-09-03T05:50:10Z</time>
      </trkpt>
      <trkpt lat="44.72685" lon="7.04434">
        <ele>2370.1</ele>
        <time>2026-09-03T05:50:15Z</time>
      </trkpt>
      <trkpt lat="44.72685" lon="7.04434">
        <ele>2370.1</ele>
        <time>2026-09-03T05:50:20Z</time>
      </trkpt>
      <trkpt lat="44.72685" lon="7.04434">
        <ele>2370.1</ele>
        <time>2026-09-03T05:50:26Z</time>
      </trkpt>
      <trkpt lat="44.72676" lon="7.04428">
        <ele>2372.1</ele>
        <time>2026-09-03T05:50:31Z</time>
      </trkpt>
      <trkpt lat="44.72669" lon="7.04425">
        <ele>2373.6</ele>
        <time>2026-09-03T05:50:36Z</time>
      </trkpt>
      <trkpt lat="44.72662" lon="7.04422">
        <ele>2377.6</ele>
        <time>2026-09-03T05:50:42Z</time>
      </trkpt>
      <trkpt lat="44.72657" lon="7.0442">
        <ele>2381.4</ele>
        <time>2026-09-03T05:50:47Z</time>
      </trkpt>
      <trkpt lat="44.72655" lon="7.04423">
        <ele>2382.4</ele>
        <time>2026-09-03T05:50:52Z</time>
      </trkpt>
      <trkpt lat="44.72655" lon="7.04424">
        <ele>2382.2</ele>
        <time>2026-09-03T05:50:58Z</time>
      </trkpt>
      <trkpt lat="44.72655" lon="7.04424">
        <ele>2382.2</ele>
        <time>2026-09-03T05:51:03Z</time>
      </trkpt>
      <trkpt lat="44.72655" lon="7.04424">
        <ele>2382.2</ele>
        <time>2026-09-03T05:51:08Z</time>
      </trkpt>
      <trkpt lat="44.72655" lon="7.04424">
        <ele>2382.2</ele>
        <time>2026-09-03T05:51:14Z</time>
      </trkpt>
      <trkpt lat="44.72655" lon="7.04424">
        <ele>2382.2</ele>
        <time>2026-09-03T05:51:19Z</time>
      </trkpt>
      <trkpt lat="44.72655" lon="7.04424">
        <ele>2382.2</ele>
        <time>2026-09-03T05:51:24Z</time>
      </trkpt>
      <trkpt lat="44.72655" lon="7.04424">
        <ele>2382.2</ele>
        <time>2026-09-03T05:51:30Z</time>
      </trkpt>
      <trkpt lat="44.72655" lon="7.04424">
        <ele>2382.2</ele>
        <time>2026-09-03T05:51:35Z</time>
      </trkpt>
      <trkpt lat="44.72655" lon="7.04424">
        <ele>2382.2</ele>
        <time>2026-09-03T05:51:40Z</time>
      </trkpt>
      <trkpt lat="44.72655" lon="7.04424">
        <ele>2382.2</ele>
        <time>2026-09-03T05:51:46Z</time>
      </trkpt>
      <trkpt lat="44.72655" lon="7.04424">
        <ele>2382.2</ele>
        <time>2026-09-03T05:51:51Z</time>
      </trkpt>
      <trkpt lat="44.72655" lon="7.04424">
        <ele>2382.2</ele>
        <time>2026-09-03T05:51:56Z</time>
      </trkpt>
      <trkpt lat="44.72655" lon="7.04424">
        <ele>2382.2</ele>
        <time>2026-09-03T05:52:02Z</time>
      </trkpt>
      <trkpt lat="44.72649" lon="7.04426">
        <ele>2386.1</ele>
        <time>2026-09-03T05:52:07Z</time>
      </trkpt>
      <trkpt lat="44.72644" lon="7.04427">
        <ele>2389.4</ele>
        <time>2026-09-03T05:52:12Z</time>
      </trkpt>
      <trkpt lat="44.72641" lon="7.04431">
        <ele>2390.8</ele>
        <time>2026-09-03T05:52:18Z</time>
      </trkpt>
      <trkpt lat="44.72638" lon="7.04433">
        <ele>2392.5</ele>
        <time>2026-09-03T05:52:23Z</time>
      </trkpt>
      <trkpt lat="44.72632" lon="7.04434">
        <ele>2396.4</ele>
        <time>2026-09-03T05:52:28Z</time>
      </trkpt>
      <trkpt lat="44.72628" lon="7.04432">
        <ele>2399.5</ele>
        <time>2026-09-03T05:52:34Z</time>
      </trkpt>
      <trkpt lat="44.72626" lon="7.0443">
        <ele>2401.3</ele>
        <time>2026-09-03T05:52:39Z</time>
      </trkpt>
      <trkpt lat="44.72625" lon="7.04428">
        <ele>2402.3</ele>
        <time>2026-09-03T05:52:44Z</time>
      </trkpt>
      <trkpt lat="44.7262" lon="7.04426">
        <ele>2406.2</ele>
        <time>2026-09-03T05:52:50Z</time>
      </trkpt>
      <trkpt lat="44.72618" lon="7.04428">
        <ele>2407.1</ele>
        <time>2026-09-03T05:52:55Z</time>
      </trkpt>
      <trkpt lat="44.72614" lon="7.04431">
        <ele>2409.3</ele>
        <time>2026-09-03T05:53:00Z</time>
      </trkpt>
      <trkpt lat="44.72609" lon="7.04433">
        <ele>2412.2</ele>
        <time>2026-09-03T05:53:06Z</time>
      </trkpt>
      <trkpt lat="44.72604" lon="7.04432">
        <ele>2415.9</ele>
        <time>2026-09-03T05:53:11Z</time>
      </trkpt>
      <trkpt lat="44.72601" lon="7.04428">
        <ele>2418.8</ele>
        <time>2026-09-03T05:53:16Z</time>
      </trkpt>
      <trkpt lat="44.72601" lon="7.04426">
        <ele>2419.3</ele>
        <time>2026-09-03T05:53:22Z</time>
      </trkpt>
      <trkpt lat="44.72601" lon="7.04426">
        <ele>2419.3</ele>
        <time>2026-09-03T05:53:27Z</time>
      </trkpt>
      <trkpt lat="44.72601" lon="7.04426">
        <ele>2419.3</ele>
        <time>2026-09-03T05:53:32Z</time>
      </trkpt>
      <trkpt lat="44.72601" lon="7.04426">
        <ele>2419.3</ele>
        <time>2026-09-03T05:53:38Z</time>
      </trkpt>
      <trkpt lat="44.72601" lon="7.04426">
        <ele>2419.3</ele>
        <time>2026-09-03T05:53:43Z</time>
      </trkpt>
      <trkpt lat="44.72601" lon="7.04426">
        <ele>2419.3</ele>
        <time>2026-09-03T05:53:48Z</time>
      </trkpt>
      <trkpt lat="44.72597" lon="7.04424">
        <ele>2422.6</ele>
        <time>2026-09-03T05:53:54Z</time>
      </trkpt>
      <trkpt lat="44.72595" lon="7.04418">
        <ele>2425.4</ele>
        <time>2026-09-03T05:53:59Z</time>
      </trkpt>
      <trkpt lat="44.72594" lon="7.04418">
        <ele>2426.1</ele>
        <time>2026-09-03T05:54:04Z</time>
      </trkpt>
      <trkpt lat="44.72592" lon="7.04415">
        <ele>2427.8</ele>
        <time>2026-09-03T05:54:10Z</time>
      </trkpt>
      <trkpt lat="44.7259" lon="7.04413">
        <ele>2429.2</ele>
        <time>2026-09-03T05:54:15Z</time>
      </trkpt>
      <trkpt lat="44.72587" lon="7.0441">
        <ele>2431.3</ele>
        <time>2026-09-03T05:54:20Z</time>
      </trkpt>
      <trkpt lat="44.72584" lon="7.04405">
        <ele>2433.3</ele>
        <time>2026-09-03T05:54:26Z</time>
      </trkpt>
      <trkpt lat="44.72583" lon="7.04404">
        <ele>2433.9</ele>
        <time>2026-09-03T05:54:31Z</time>
      </trkpt>
      <trkpt lat="44.72581" lon="7.04402">
        <ele>2434.7</ele>
        <time>2026-09-03T05:54:36Z</time>
      </trkpt>
      <trkpt lat="44.7258" lon="7.04403">
        <ele>2435.2</ele>
        <time>2026-09-03T05:54:42Z</time>
      </trkpt>
      <trkpt lat="44.72578" lon="7.04406">
        <ele>2436.3</ele>
        <time>2026-09-03T05:54:47Z</time>
      </trkpt>
      <trkpt lat="44.72578" lon="7.04407">
        <ele>2436.3</ele>
        <time>2026-09-03T05:54:52Z</time>
      </trkpt>
      <trkpt lat="44.72577" lon="7.04408">
        <ele>2436.8</ele>
        <time>2026-09-03T05:54:58Z</time>
      </trkpt>
      <trkpt lat="44.72575" lon="7.04409">
        <ele>2437.8</ele>
        <time>2026-09-03T05:55:03Z</time>
      </trkpt>
      <trkpt lat="44.72572" lon="7.04408">
        <ele>2439.2</ele>
        <time>2026-09-03T05:55:08Z</time>
      </trkpt>
      <trkpt lat="44.72568" lon="7.04409">
        <ele>2441.2</ele>
        <time>2026-09-03T05:55:14Z</time>
      </trkpt>
      <trkpt lat="44.72566" lon="7.04411">
        <ele>2442.2</ele>
        <time>2026-09-03T05:55:19Z</time>
      </trkpt>
      <trkpt lat="44.72564" lon="7.04412">
        <ele>2443.3</ele>
        <time>2026-09-03T05:55:24Z</time>
      </trkpt>
      <trkpt lat="44.72561" lon="7.04412">
        <ele>2444.7</ele>
        <time>2026-09-03T05:55:30Z</time>
      </trkpt>
      <trkpt lat="44.72559" lon="7.04413">
        <ele>2445.7</ele>
        <time>2026-09-03T05:55:35Z</time>
      </trkpt>
      <trkpt lat="44.72558" lon="7.04413">
        <ele>2446.2</ele>
        <time>2026-09-03T05:55:40Z</time>
      </trkpt>
      <trkpt lat="44.72558" lon="7.04414">
        <ele>2446.3</ele>
        <time>2026-09-03T05:55:46Z</time>
      </trkpt>
      <trkpt lat="44.72558" lon="7.04414">
        <ele>2446.3</ele>
        <time>2026-09-03T05:55:51Z</time>
      </trkpt>
      <trkpt lat="44.72558" lon="7.04414">
        <ele>2446.3</ele>
        <time>2026-09-03T05:55:56Z</time>
      </trkpt>
      <trkpt lat="44.72558" lon="7.04414">
        <ele>2446.3</ele>
        <time>2026-09-03T05:56:02Z</time>
      </trkpt>
      <trkpt lat="44.72558" lon="7.04414">
        <ele>2446.3</ele>
        <time>2026-09-03T05:56:07Z</time>
      </trkpt>
      <trkpt lat="44.72548" lon="7.04416">
        <ele>2451.3</ele>
        <time>2026-09-03T05:56:12Z</time>
      </trkpt>
      <trkpt lat="44.72548" lon="7.04416">
        <ele>2451.3</ele>
        <time>2026-09-03T05:56:18Z</time>
      </trkpt>
      <trkpt lat="44.72548" lon="7.04416">
        <ele>2451.3</ele>
        <time>2026-09-03T05:56:23Z</time>
      </trkpt>
      <trkpt lat="44.72548" lon="7.04416">
        <ele>2451.3</ele>
        <time>2026-09-03T05:56:28Z</time>
      </trkpt>
      <trkpt lat="44.72548" lon="7.04416">
        <ele>2451.3</ele>
        <time>2026-09-03T05:56:34Z</time>
      </trkpt>
      <trkpt lat="44.72548" lon="7.04416">
        <ele>2451.3</ele>
        <time>2026-09-03T05:56:39Z</time>
      </trkpt>
      <trkpt lat="44.72548" lon="7.04416">
        <ele>2451.3</ele>
        <time>2026-09-03T05:56:44Z</time>
      </trkpt>
      <trkpt lat="44.72548" lon="7.04416">
        <ele>2451.3</ele>
        <time>2026-09-03T05:56:50Z</time>
      </trkpt>
      <trkpt lat="44.72548" lon="7.04416">
        <ele>2451.3</ele>
        <time>2026-09-03T05:56:55Z</time>
      </trkpt>
      <trkpt lat="44.72548" lon="7.04416">
        <ele>2451.3</ele>
        <time>2026-09-03T05:57:00Z</time>
      </trkpt>
      <trkpt lat="44.72545" lon="7.04423">
        <ele>2452.2</ele>
        <time>2026-09-03T05:57:06Z</time>
      </trkpt>
      <trkpt lat="44.7254" lon="7.04426">
        <ele>2454.5</ele>
        <time>2026-09-03T05:57:11Z</time>
      </trkpt>
      <trkpt lat="44.72538" lon="7.04429">
        <ele>2455.3</ele>
        <time>2026-09-03T05:57:16Z</time>
      </trkpt>
      <trkpt lat="44.72534" lon="7.04434">
        <ele>2457.1</ele>
        <time>2026-09-03T05:57:22Z</time>
      </trkpt>
      <trkpt lat="44.72532" lon="7.04437">
        <ele>2458.1</ele>
        <time>2026-09-03T05:57:27Z</time>
      </trkpt>
      <trkpt lat="44.72528" lon="7.0444">
        <ele>2460.3</ele>
        <time>2026-09-03T05:57:32Z</time>
      </trkpt>
      <trkpt lat="44.72525" lon="7.04444">
        <ele>2461.9</ele>
        <time>2026-09-03T05:57:38Z</time>
      </trkpt>
      <trkpt lat="44.72523" lon="7.04446">
        <ele>2463.1</ele>
        <time>2026-09-03T05:57:43Z</time>
      </trkpt>
      <trkpt lat="44.72522" lon="7.04448">
        <ele>2463.7</ele>
        <time>2026-09-03T05:57:48Z</time>
      </trkpt>
      <trkpt lat="44.72522" lon="7.04448">
        <ele>2463.7</ele>
        <time>2026-09-03T05:57:54Z</time>
      </trkpt>
      <trkpt lat="44.72519" lon="7.0445">
        <ele>2465.5</ele>
        <time>2026-09-03T05:57:59Z</time>
      </trkpt>
      <trkpt lat="44.72519" lon="7.04454">
        <ele>2465.5</ele>
        <time>2026-09-03T05:58:04Z</time>
      </trkpt>
      <trkpt lat="44.72518" lon="7.04455">
        <ele>2466.1</ele>
        <time>2026-09-03T05:58:10Z</time>
      </trkpt>
      <trkpt lat="44.72518" lon="7.04455">
        <ele>2466.1</ele>
        <time>2026-09-03T05:58:15Z</time>
      </trkpt>
      <trkpt lat="44.72518" lon="7.04455">
        <ele>2466.1</ele>
        <time>2026-09-03T05:58:20Z</time>
      </trkpt>
      <trkpt lat="44.72514" lon="7.04455">
        <ele>2468.7</ele>
        <time>2026-09-03T05:58:26Z</time>
      </trkpt>
      <trkpt lat="44.72512" lon="7.04458">
        <ele>2470.1</ele>
        <time>2026-09-03T05:58:31Z</time>
      </trkpt>
      <trkpt lat="44.7251" lon="7.04464">
        <ele>2471.6</ele>
        <time>2026-09-03T05:58:36Z</time>
      </trkpt>
      <trkpt lat="44.72508" lon="7.04467">
        <ele>2473.1</ele>
        <time>2026-09-03T05:58:42Z</time>
      </trkpt>
      <trkpt lat="44.72505" lon="7.04469">
        <ele>2475.3</ele>
        <time>2026-09-03T05:58:47Z</time>
      </trkpt>
      <trkpt lat="44.72504" lon="7.04471">
        <ele>2476.1</ele>
        <time>2026-09-03T05:58:52Z</time>
      </trkpt>
      <trkpt lat="44.72502" lon="7.04474">
        <ele>2477.7</ele>
        <time>2026-09-03T05:58:58Z</time>
      </trkpt>
      <trkpt lat="44.72501" lon="7.04477">
        <ele>2478.6</ele>
        <time>2026-09-03T05:59:03Z</time>
      </trkpt>
      <trkpt lat="44.72499" lon="7.04478">
        <ele>2479.8</ele>
        <time>2026-09-03T05:59:08Z</time>
      </trkpt>
      <trkpt lat="44.72497" lon="7.0448">
        <ele>2480.8</ele>
        <time>2026-09-03T05:59:14Z</time>
      </trkpt>
      <trkpt lat="44.72497" lon="7.0448">
        <ele>2480.8</ele>
        <time>2026-09-03T05:59:19Z</time>
      </trkpt>
      <trkpt lat="44.72497" lon="7.0448">
        <ele>2480.8</ele>
        <time>2026-09-03T05:59:24Z</time>
      </trkpt>
      <trkpt lat="44.72497" lon="7.0448">
        <ele>2480.8</ele>
        <time>2026-09-03T05:59:30Z</time>
      </trkpt>
      <trkpt lat="44.72496" lon="7.04487">
        <ele>2481.7</ele>
        <time>2026-09-03T05:59:35Z</time>
      </trkpt>
      <trkpt lat="44.72495" lon="7.04488">
        <ele>2482.2</ele>
        <time>2026-09-03T05:59:40Z</time>
      </trkpt>
      <trkpt lat="44.72495" lon="7.0449">
        <ele>2482.4</ele>
        <time>2026-09-03T05:59:46Z</time>
      </trkpt>
      <trkpt lat="44.72495" lon="7.0449">
        <ele>2482.4</ele>
        <time>2026-09-03T05:59:51Z</time>
      </trkpt>
      <trkpt lat="44.72495" lon="7.0449">
        <ele>2482.4</ele>
        <time>2026-09-03T05:59:56Z</time>
      </trkpt>
      <trkpt lat="44.72495" lon="7.0449">
        <ele>2482.4</ele>
        <time>2026-09-03T06:00:02Z</time>
      </trkpt>
      <trkpt lat="44.72495" lon="7.0449">
        <ele>2482.4</ele>
        <time>2026-09-03T06:00:07Z</time>
      </trkpt>
      <trkpt lat="44.7249" lon="7.04499">
        <ele>2485.2</ele>
        <time>2026-09-03T06:00:12Z</time>
      </trkpt>
      <trkpt lat="44.72488" lon="7.04503">
        <ele>2486.1</ele>
        <time>2026-09-03T06:00:18Z</time>
      </trkpt>
      <trkpt lat="44.72487" lon="7.04505">
        <ele>2486.5</ele>
        <time>2026-09-03T06:00:23Z</time>
      </trkpt>
      <trkpt lat="44.72487" lon="7.04507">
        <ele>2486.4</ele>
        <time>2026-09-03T06:00:28Z</time>
      </trkpt>
      <trkpt lat="44.72487" lon="7.04507">
        <ele>2486.4</ele>
        <time>2026-09-03T06:00:34Z</time>
      </trkpt>
      <trkpt lat="44.72487" lon="7.04507">
        <ele>2486.4</ele>
        <time>2026-09-03T06:00:39Z</time>
      </trkpt>
      <trkpt lat="44.72487" lon="7.04507">
        <ele>2486.4</ele>
        <time>2026-09-03T06:00:44Z</time>
      </trkpt>
      <trkpt lat="44.72487" lon="7.04507">
        <ele>2486.4</ele>
        <time>2026-09-03T06:00:50Z</time>
      </trkpt>
      <trkpt lat="44.72487" lon="7.04507">
        <ele>2486.4</ele>
        <time>2026-09-03T06:00:55Z</time>
      </trkpt>
      <trkpt lat="44.72487" lon="7.04507">
        <ele>2486.4</ele>
        <time>2026-09-03T06:01:00Z</time>
      </trkpt>
      <trkpt lat="44.72487" lon="7.04507">
        <ele>2486.4</ele>
        <time>2026-09-03T06:01:06Z</time>
      </trkpt>
      <trkpt lat="44.72488" lon="7.04521">
        <ele>2485.4</ele>
        <time>2026-09-03T06:01:11Z</time>
      </trkpt>
      <trkpt lat="44.72487" lon="7.04521">
        <ele>2485.9</ele>
        <time>2026-09-03T06:01:16Z</time>
      </trkpt>
      <trkpt lat="44.72484" lon="7.04524">
        <ele>2487.3</ele>
        <time>2026-09-03T06:01:22Z</time>
      </trkpt>
      <trkpt lat="44.72483" lon="7.0453">
        <ele>2487.7</ele>
        <time>2026-09-03T06:01:27Z</time>
      </trkpt>
      <trkpt lat="44.72481" lon="7.04533">
        <ele>2488.7</ele>
        <time>2026-09-03T06:01:32Z</time>
      </trkpt>
      <trkpt lat="44.72479" lon="7.04538">
        <ele>2489.7</ele>
        <time>2026-09-03T06:01:38Z</time>
      </trkpt>
      <trkpt lat="44.72477" lon="7.04541">
        <ele>2490.8</ele>
        <time>2026-09-03T06:01:43Z</time>
      </trkpt>
      <trkpt lat="44.72478" lon="7.04546">
        <ele>2490.3</ele>
        <time>2026-09-03T06:01:48Z</time>
      </trkpt>
      <trkpt lat="44.72474" lon="7.04545">
        <ele>2492.5</ele>
        <time>2026-09-03T06:01:54Z</time>
      </trkpt>
      <trkpt lat="44.72473" lon="7.04548">
        <ele>2493.1</ele>
        <time>2026-09-03T06:01:59Z</time>
      </trkpt>
      <trkpt lat="44.72473" lon="7.04548">
        <ele>2493.1</ele>
        <time>2026-09-03T06:02:04Z</time>
      </trkpt>
      <trkpt lat="44.72472" lon="7.04554">
        <ele>2493.8</ele>
        <time>2026-09-03T06:02:10Z</time>
      </trkpt>
      <trkpt lat="44.72471" lon="7.04557">
        <ele>2494.4</ele>
        <time>2026-09-03T06:02:15Z</time>
      </trkpt>
      <trkpt lat="44.72472" lon="7.04558">
        <ele>2493.8</ele>
        <time>2026-09-03T06:02:20Z</time>
      </trkpt>
      <trkpt lat="44.72471" lon="7.04562">
        <ele>2494.5</ele>
        <time>2026-09-03T06:02:26Z</time>
      </trkpt>
      <trkpt lat="44.72469" lon="7.04565">
        <ele>2495.8</ele>
        <time>2026-09-03T06:02:31Z</time>
      </trkpt>
      <trkpt lat="44.72466" lon="7.04565">
        <ele>2497.7</ele>
        <time>2026-09-03T06:02:36Z</time>
      </trkpt>
      <trkpt lat="44.72464" lon="7.04566">
        <ele>2499</ele>
        <time>2026-09-03T06:02:42Z</time>
      </trkpt>
      <trkpt lat="44.72463" lon="7.04567">
        <ele>2499.7</ele>
        <time>2026-09-03T06:02:47Z</time>
      </trkpt>
      <trkpt lat="44.72461" lon="7.0457">
        <ele>2501.1</ele>
        <time>2026-09-03T06:02:52Z</time>
      </trkpt>
      <trkpt lat="44.72458" lon="7.04574">
        <ele>2503.2</ele>
        <time>2026-09-03T06:02:58Z</time>
      </trkpt>
      <trkpt lat="44.72456" lon="7.04577">
        <ele>2504.7</ele>
        <time>2026-09-03T06:03:03Z</time>
      </trkpt>
      <trkpt lat="44.72456" lon="7.04577">
        <ele>2504.7</ele>
        <time>2026-09-03T06:03:08Z</time>
      </trkpt>
      <trkpt lat="44.72456" lon="7.04577">
        <ele>2504.7</ele>
        <time>2026-09-03T06:03:14Z</time>
      </trkpt>
      <trkpt lat="44.72456" lon="7.04577">
        <ele>2504.7</ele>
        <time>2026-09-03T06:03:19Z</time>
      </trkpt>
      <trkpt lat="44.72456" lon="7.04577">
        <ele>2504.7</ele>
        <time>2026-09-03T06:03:24Z</time>
      </trkpt>
      <trkpt lat="44.72456" lon="7.04577">
        <ele>2504.7</ele>
        <time>2026-09-03T06:03:30Z</time>
      </trkpt>
      <trkpt lat="44.72456" lon="7.04577">
        <ele>2504.7</ele>
        <time>2026-09-03T06:03:35Z</time>
      </trkpt>
      <trkpt lat="44.72456" lon="7.04577">
        <ele>2504.7</ele>
        <time>2026-09-03T06:03:40Z</time>
      </trkpt>
      <trkpt lat="44.72456" lon="7.04577">
        <ele>2504.7</ele>
        <time>2026-09-03T06:03:46Z</time>
      </trkpt>
      <trkpt lat="44.72456" lon="7.04577">
        <ele>2504.7</ele>
        <time>2026-09-03T06:03:51Z</time>
      </trkpt>
      <trkpt lat="44.72453" lon="7.04585">
        <ele>2507</ele>
        <time>2026-09-03T06:03:56Z</time>
      </trkpt>
      <trkpt lat="44.72453" lon="7.04588">
        <ele>2506.9</ele>
        <time>2026-09-03T06:04:02Z</time>
      </trkpt>
      <trkpt lat="44.72452" lon="7.04588">
        <ele>2507.6</ele>
        <time>2026-09-03T06:04:07Z</time>
      </trkpt>
      <trkpt lat="44.72452" lon="7.04588">
        <ele>2507.6</ele>
        <time>2026-09-03T06:04:12Z</time>
      </trkpt>
      <trkpt lat="44.72451" lon="7.04594">
        <ele>2507.9</ele>
        <time>2026-09-03T06:04:18Z</time>
      </trkpt>
      <trkpt lat="44.72451" lon="7.04597">
        <ele>2507.7</ele>
        <time>2026-09-03T06:04:23Z</time>
      </trkpt>
      <trkpt lat="44.7245" lon="7.04597">
        <ele>2508.4</ele>
        <time>2026-09-03T06:04:28Z</time>
      </trkpt>
      <trkpt lat="44.72446" lon="7.04596">
        <ele>2511.3</ele>
        <time>2026-09-03T06:04:34Z</time>
      </trkpt>
      <trkpt lat="44.72443" lon="7.04594">
        <ele>2513.4</ele>
        <time>2026-09-03T06:04:39Z</time>
      </trkpt>
      <trkpt lat="44.72443" lon="7.04594">
        <ele>2513.4</ele>
        <time>2026-09-03T06:04:44Z</time>
      </trkpt>
      <trkpt lat="44.72443" lon="7.04594">
        <ele>2513.4</ele>
        <time>2026-09-03T06:04:50Z</time>
      </trkpt>
      <trkpt lat="44.72443" lon="7.04594">
        <ele>2513.4</ele>
        <time>2026-09-03T06:04:55Z</time>
      </trkpt>
      <trkpt lat="44.72443" lon="7.04594">
        <ele>2513.4</ele>
        <time>2026-09-03T06:05:00Z</time>
      </trkpt>
      <trkpt lat="44.72445" lon="7.04599">
        <ele>2511.8</ele>
        <time>2026-09-03T06:05:06Z</time>
      </trkpt>
      <trkpt lat="44.72445" lon="7.04599">
        <ele>2511.8</ele>
        <time>2026-09-03T06:05:11Z</time>
      </trkpt>
      <trkpt lat="44.72445" lon="7.04599">
        <ele>2511.8</ele>
        <time>2026-09-03T06:05:16Z</time>
      </trkpt>
      <trkpt lat="44.72445" lon="7.04599">
        <ele>2511.8</ele>
        <time>2026-09-03T06:05:22Z</time>
      </trkpt>
      <trkpt lat="44.72445" lon="7.04599">
        <ele>2511.8</ele>
        <time>2026-09-03T06:05:27Z</time>
      </trkpt>
      <trkpt lat="44.72445" lon="7.04599">
        <ele>2511.8</ele>
        <time>2026-09-03T06:05:32Z</time>
      </trkpt>
      <trkpt lat="44.72445" lon="7.04599">
        <ele>2511.8</ele>
        <time>2026-09-03T06:05:38Z</time>
      </trkpt>
      <trkpt lat="44.72445" lon="7.04599">
        <ele>2511.8</ele>
        <time>2026-09-03T06:05:43Z</time>
      </trkpt>
      <trkpt lat="44.72445" lon="7.04599">
        <ele>2511.8</ele>
        <time>2026-09-03T06:05:48Z</time>
      </trkpt>
      <trkpt lat="44.72445" lon="7.04599">
        <ele>2511.8</ele>
        <time>2026-09-03T06:05:54Z</time>
      </trkpt>
      <trkpt lat="44.72445" lon="7.04599">
        <ele>2511.8</ele>
        <time>2026-09-03T06:05:59Z</time>
      </trkpt>
      <trkpt lat="44.72445" lon="7.04599">
        <ele>2511.8</ele>
        <time>2026-09-03T06:06:04Z</time>
      </trkpt>
      <trkpt lat="44.72445" lon="7.04599">
        <ele>2511.8</ele>
        <time>2026-09-03T06:06:10Z</time>
      </trkpt>
      <trkpt lat="44.72445" lon="7.04599">
        <ele>2511.8</ele>
        <time>2026-09-03T06:06:15Z</time>
      </trkpt>
      <trkpt lat="44.72445" lon="7.04599">
        <ele>2511.8</ele>
        <time>2026-09-03T06:06:20Z</time>
      </trkpt>
      <trkpt lat="44.72445" lon="7.04599">
        <ele>2511.8</ele>
        <time>2026-09-03T06:06:26Z</time>
      </trkpt>
      <trkpt lat="44.72445" lon="7.04599">
        <ele>2511.8</ele>
        <time>2026-09-03T06:06:31Z</time>
      </trkpt>
      <trkpt lat="44.72445" lon="7.04599">
        <ele>2511.8</ele>
        <time>2026-09-03T06:06:36Z</time>
      </trkpt>
      <trkpt lat="44.72445" lon="7.04599">
        <ele>2511.8</ele>
        <time>2026-09-03T06:06:42Z</time>
      </trkpt>
      <trkpt lat="44.72445" lon="7.04599">
        <ele>2511.8</ele>
        <time>2026-09-03T06:06:47Z</time>
      </trkpt>
      <trkpt lat="44.72445" lon="7.04599">
        <ele>2511.8</ele>
        <time>2026-09-03T06:06:52Z</time>
      </trkpt>
      <trkpt lat="44.72445" lon="7.04599">
        <ele>2511.8</ele>
        <time>2026-09-03T06:06:58Z</time>
      </trkpt>
      <trkpt lat="44.72445" lon="7.04599">
        <ele>2511.8</ele>
        <time>2026-09-03T06:07:03Z</time>
      </trkpt>
      <trkpt lat="44.72445" lon="7.04599">
        <ele>2511.8</ele>
        <time>2026-09-03T06:07:08Z</time>
      </trkpt>
      <trkpt lat="44.72445" lon="7.04599">
        <ele>2511.8</ele>
        <time>2026-09-03T06:07:14Z</time>
      </trkpt>
      <trkpt lat="44.72445" lon="7.04599">
        <ele>2511.8</ele>
        <time>2026-09-03T06:07:19Z</time>
      </trkpt>
      <trkpt lat="44.72445" lon="7.04599">
        <ele>2511.8</ele>
        <time>2026-09-03T06:07:24Z</time>
      </trkpt>
      <trkpt lat="44.72445" lon="7.04599">
        <ele>2511.8</ele>
        <time>2026-09-03T06:07:30Z</time>
      </trkpt>
      <trkpt lat="44.72445" lon="7.04599">
        <ele>2511.8</ele>
        <time>2026-09-03T06:07:35Z</time>
      </trkpt>
      <trkpt lat="44.72445" lon="7.04599">
        <ele>2511.8</ele>
        <time>2026-09-03T06:07:40Z</time>
      </trkpt>
      <trkpt lat="44.72445" lon="7.04599">
        <ele>2511.8</ele>
        <time>2026-09-03T06:07:46Z</time>
      </trkpt>
      <trkpt lat="44.72445" lon="7.04599">
        <ele>2511.8</ele>
        <time>2026-09-03T06:07:51Z</time>
      </trkpt>
      <trkpt lat="44.72443" lon="7.04611">
        <ele>2512.6</ele>
        <time>2026-09-03T06:07:56Z</time>
      </trkpt>
      <trkpt lat="44.72442" lon="7.04612">
        <ele>2513.3</ele>
        <time>2026-09-03T06:08:02Z</time>
      </trkpt>
      <trkpt lat="44.72442" lon="7.04612">
        <ele>2513.3</ele>
        <time>2026-09-03T06:08:07Z</time>
      </trkpt>
      <trkpt lat="44.72442" lon="7.04612">
        <ele>2513.3</ele>
        <time>2026-09-03T06:08:12Z</time>
      </trkpt>
      <trkpt lat="44.72444" lon="7.04617">
        <ele>2511.6</ele>
        <time>2026-09-03T06:08:18Z</time>
      </trkpt>
      <trkpt lat="44.72443" lon="7.04618">
        <ele>2512.2</ele>
        <time>2026-09-03T06:08:23Z</time>
      </trkpt>
      <trkpt lat="44.7244" lon="7.04618">
        <ele>2514.4</ele>
        <time>2026-09-03T06:08:28Z</time>
      </trkpt>
      <trkpt lat="44.72437" lon="7.04619">
        <ele>2516.5</ele>
        <time>2026-09-03T06:08:34Z</time>
      </trkpt>
      <trkpt lat="44.72437" lon="7.04621">
        <ele>2516.4</ele>
        <time>2026-09-03T06:08:39Z</time>
      </trkpt>
      <trkpt lat="44.72437" lon="7.04621">
        <ele>2516.4</ele>
        <time>2026-09-03T06:08:44Z</time>
      </trkpt>
      <trkpt lat="44.72437" lon="7.04621">
        <ele>2516.4</ele>
        <time>2026-09-03T06:08:50Z</time>
      </trkpt>
      <trkpt lat="44.72437" lon="7.04621">
        <ele>2516.4</ele>
        <time>2026-09-03T06:08:55Z</time>
      </trkpt>
      <trkpt lat="44.72444" lon="7.04624">
        <ele>2511.2</ele>
        <time>2026-09-03T06:09:00Z</time>
      </trkpt>
      <trkpt lat="44.72444" lon="7.04624">
        <ele>2511.2</ele>
        <time>2026-09-03T06:09:06Z</time>
      </trkpt>
      <trkpt lat="44.72444" lon="7.04624">
        <ele>2511.2</ele>
        <time>2026-09-03T06:09:11Z</time>
      </trkpt>
      <trkpt lat="44.72444" lon="7.04624">
        <ele>2511.2</ele>
        <time>2026-09-03T06:09:16Z</time>
      </trkpt>
      <trkpt lat="44.72434" lon="7.04618">
        <ele>2518.7</ele>
        <time>2026-09-03T06:09:22Z</time>
      </trkpt>
      <trkpt lat="44.72434" lon="7.04618">
        <ele>2518.7</ele>
        <time>2026-09-03T06:09:27Z</time>
      </trkpt>
      <trkpt lat="44.72434" lon="7.04618">
        <ele>2518.7</ele>
        <time>2026-09-03T06:09:32Z</time>
      </trkpt>
      <trkpt lat="44.72434" lon="7.04618">
        <ele>2518.7</ele>
        <time>2026-09-03T06:09:38Z</time>
      </trkpt>
      <trkpt lat="44.72434" lon="7.04618">
        <ele>2518.7</ele>
        <time>2026-09-03T06:09:43Z</time>
      </trkpt>
      <trkpt lat="44.72434" lon="7.04618">
        <ele>2518.7</ele>
        <time>2026-09-03T06:09:48Z</time>
      </trkpt>
      <trkpt lat="44.72434" lon="7.04618">
        <ele>2518.7</ele>
        <time>2026-09-03T06:09:54Z</time>
      </trkpt>
      <trkpt lat="44.72434" lon="7.04618">
        <ele>2518.7</ele>
        <time>2026-09-03T06:09:59Z</time>
      </trkpt>
      <trkpt lat="44.72434" lon="7.04618">
        <ele>2518.7</ele>
        <time>2026-09-03T06:10:04Z</time>
      </trkpt>
      <trkpt lat="44.72434" lon="7.04618">
        <ele>2518.7</ele>
        <time>2026-09-03T06:10:10Z</time>
      </trkpt>
      <trkpt lat="44.72434" lon="7.04618">
        <ele>2518.7</ele>
        <time>2026-09-03T06:10:15Z</time>
      </trkpt>
      <trkpt lat="44.72434" lon="7.04618">
        <ele>2518.7</ele>
        <time>2026-09-03T06:10:20Z</time>
      </trkpt>
      <trkpt lat="44.72434" lon="7.04618">
        <ele>2518.7</ele>
        <time>2026-09-03T06:10:26Z</time>
      </trkpt>
      <trkpt lat="44.72434" lon="7.04618">
        <ele>2518.7</ele>
        <time>2026-09-03T06:10:31Z</time>
      </trkpt>
      <trkpt lat="44.72434" lon="7.04618">
        <ele>2518.7</ele>
        <time>2026-09-03T06:10:36Z</time>
      </trkpt>
      <trkpt lat="44.72434" lon="7.04618">
        <ele>2518.7</ele>
        <time>2026-09-03T06:10:42Z</time>
      </trkpt>
      <trkpt lat="44.72434" lon="7.04618">
        <ele>2518.7</ele>
        <time>2026-09-03T06:10:47Z</time>
      </trkpt>
      <trkpt lat="44.72434" lon="7.04618">
        <ele>2518.7</ele>
        <time>2026-09-03T06:10:52Z</time>
      </trkpt>
      <trkpt lat="44.72434" lon="7.04618">
        <ele>2518.7</ele>
        <time>2026-09-03T06:10:58Z</time>
      </trkpt>
      <trkpt lat="44.72434" lon="7.04618">
        <ele>2518.7</ele>
        <time>2026-09-03T06:11:03Z</time>
      </trkpt>
      <trkpt lat="44.72429" lon="7.04629">
        <ele>2521.9</ele>
        <time>2026-09-03T06:11:08Z</time>
      </trkpt>
      <trkpt lat="44.72429" lon="7.0463">
        <ele>2521.9</ele>
        <time>2026-09-03T06:11:14Z</time>
      </trkpt>
      <trkpt lat="44.72429" lon="7.0463">
        <ele>2521.9</ele>
        <time>2026-09-03T06:11:19Z</time>
      </trkpt>
      <trkpt lat="44.72429" lon="7.0463">
        <ele>2521.9</ele>
        <time>2026-09-03T06:11:24Z</time>
      </trkpt>
      <trkpt lat="44.72429" lon="7.0463">
        <ele>2521.9</ele>
        <time>2026-09-03T06:11:30Z</time>
      </trkpt>
      <trkpt lat="44.72429" lon="7.0463">
        <ele>2521.9</ele>
        <time>2026-09-03T06:11:35Z</time>
      </trkpt>
      <trkpt lat="44.72429" lon="7.0463">
        <ele>2521.9</ele>
        <time>2026-09-03T06:11:40Z</time>
      </trkpt>
      <trkpt lat="44.72429" lon="7.0463">
        <ele>2521.9</ele>
        <time>2026-09-03T06:11:46Z</time>
      </trkpt>
      <trkpt lat="44.72429" lon="7.0463">
        <ele>2521.9</ele>
        <time>2026-09-03T06:11:51Z</time>
      </trkpt>
      <trkpt lat="44.72429" lon="7.0463">
        <ele>2521.9</ele>
        <time>2026-09-03T06:11:56Z</time>
      </trkpt>
      <trkpt lat="44.72429" lon="7.0463">
        <ele>2521.9</ele>
        <time>2026-09-03T06:12:02Z</time>
      </trkpt>
      <trkpt lat="44.72422" lon="7.04639">
        <ele>2526.7</ele>
        <time>2026-09-03T06:12:07Z</time>
      </trkpt>
      <trkpt lat="44.72422" lon="7.04639">
        <ele>2526.7</ele>
        <time>2026-09-03T06:12:12Z</time>
      </trkpt>
      <trkpt lat="44.72422" lon="7.04639">
        <ele>2526.7</ele>
        <time>2026-09-03T06:12:18Z</time>
      </trkpt>
      <trkpt lat="44.72422" lon="7.04639">
        <ele>2526.7</ele>
        <time>2026-09-03T06:12:23Z</time>
      </trkpt>
      <trkpt lat="44.72422" lon="7.04639">
        <ele>2526.7</ele>
        <time>2026-09-03T06:12:28Z</time>
      </trkpt>
      <trkpt lat="44.72421" lon="7.04645">
        <ele>2527.3</ele>
        <time>2026-09-03T06:12:34Z</time>
      </trkpt>
      <trkpt lat="44.7242" lon="7.04647">
        <ele>2528</ele>
        <time>2026-09-03T06:12:39Z</time>
      </trkpt>
      <trkpt lat="44.72418" lon="7.04646">
        <ele>2529.5</ele>
        <time>2026-09-03T06:12:44Z</time>
      </trkpt>
      <trkpt lat="44.72418" lon="7.04646">
        <ele>2529.5</ele>
        <time>2026-09-03T06:12:50Z</time>
      </trkpt>
      <trkpt lat="44.72418" lon="7.04646">
        <ele>2529.5</ele>
        <time>2026-09-03T06:12:55Z</time>
      </trkpt>
      <trkpt lat="44.72418" lon="7.04646">
        <ele>2529.5</ele>
        <time>2026-09-03T06:13:00Z</time>
      </trkpt>
      <trkpt lat="44.72418" lon="7.04646">
        <ele>2529.5</ele>
        <time>2026-09-03T06:13:06Z</time>
      </trkpt>
      <trkpt lat="44.72418" lon="7.04646">
        <ele>2529.5</ele>
        <time>2026-09-03T06:13:11Z</time>
      </trkpt>
      <trkpt lat="44.72418" lon="7.04646">
        <ele>2529.5</ele>
        <time>2026-09-03T06:13:16Z</time>
      </trkpt>
      <trkpt lat="44.72415" lon="7.04647">
        <ele>2531.3</ele>
        <time>2026-09-03T06:13:22Z</time>
      </trkpt>
      <trkpt lat="44.72411" lon="7.04645">
        <ele>2533.2</ele>
        <time>2026-09-03T06:13:27Z</time>
      </trkpt>
      <trkpt lat="44.7241" lon="7.04644">
        <ele>2533.7</ele>
        <time>2026-09-03T06:13:32Z</time>
      </trkpt>
      <trkpt lat="44.72409" lon="7.04645">
        <ele>2534.2</ele>
        <time>2026-09-03T06:13:38Z</time>
      </trkpt>
      <trkpt lat="44.72409" lon="7.04646">
        <ele>2534.2</ele>
        <time>2026-09-03T06:13:43Z</time>
      </trkpt>
      <trkpt lat="44.72409" lon="7.04646">
        <ele>2534.2</ele>
        <time>2026-09-03T06:13:48Z</time>
      </trkpt>
      <trkpt lat="44.72408" lon="7.04653">
        <ele>2534.7</ele>
        <time>2026-09-03T06:13:54Z</time>
      </trkpt>
      <trkpt lat="44.72408" lon="7.04655">
        <ele>2534.7</ele>
        <time>2026-09-03T06:13:59Z</time>
      </trkpt>
      <trkpt lat="44.72407" lon="7.04658">
        <ele>2535.3</ele>
        <time>2026-09-03T06:14:04Z</time>
      </trkpt>
      <trkpt lat="44.72407" lon="7.04658">
        <ele>2535.3</ele>
        <time>2026-09-03T06:14:10Z</time>
      </trkpt>
      <trkpt lat="44.72407" lon="7.04658">
        <ele>2535.3</ele>
        <time>2026-09-03T06:14:15Z</time>
      </trkpt>
      <trkpt lat="44.72407" lon="7.04658">
        <ele>2535.3</ele>
        <time>2026-09-03T06:14:20Z</time>
      </trkpt>
      <trkpt lat="44.72407" lon="7.04658">
        <ele>2535.3</ele>
        <time>2026-09-03T06:14:26Z</time>
      </trkpt>
      <trkpt lat="44.72407" lon="7.04658">
        <ele>2535.3</ele>
        <time>2026-09-03T06:14:31Z</time>
      </trkpt>
      <trkpt lat="44.72407" lon="7.04658">
        <ele>2535.3</ele>
        <time>2026-09-03T06:14:36Z</time>
      </trkpt>
      <trkpt lat="44.72407" lon="7.04658">
        <ele>2535.3</ele>
        <time>2026-09-03T06:14:42Z</time>
      </trkpt>
      <trkpt lat="44.72402" lon="7.04665">
        <ele>2538.1</ele>
        <time>2026-09-03T06:14:47Z</time>
      </trkpt>
      <trkpt lat="44.72401" lon="7.04665">
        <ele>2538.6</ele>
        <time>2026-09-03T06:14:52Z</time>
      </trkpt>
      <trkpt lat="44.72401" lon="7.04665">
        <ele>2538.6</ele>
        <time>2026-09-03T06:14:58Z</time>
      </trkpt>
      <trkpt lat="44.72401" lon="7.04665">
        <ele>2538.6</ele>
        <time>2026-09-03T06:15:03Z</time>
      </trkpt>
      <trkpt lat="44.72401" lon="7.04665">
        <ele>2538.6</ele>
        <time>2026-09-03T06:15:08Z</time>
      </trkpt>
      <trkpt lat="44.72401" lon="7.04665">
        <ele>2538.6</ele>
        <time>2026-09-03T06:15:14Z</time>
      </trkpt>
      <trkpt lat="44.72396" lon="7.04666">
        <ele>2541.4</ele>
        <time>2026-09-03T06:15:19Z</time>
      </trkpt>
      <trkpt lat="44.72396" lon="7.04666">
        <ele>2541.4</ele>
        <time>2026-09-03T06:15:24Z</time>
      </trkpt>
      <trkpt lat="44.72396" lon="7.04666">
        <ele>2541.4</ele>
        <time>2026-09-03T06:15:30Z</time>
      </trkpt>
      <trkpt lat="44.72396" lon="7.04666">
        <ele>2541.4</ele>
        <time>2026-09-03T06:15:35Z</time>
      </trkpt>
      <trkpt lat="44.72396" lon="7.04666">
        <ele>2541.4</ele>
        <time>2026-09-03T06:15:40Z</time>
      </trkpt>
      <trkpt lat="44.72391" lon="7.04672">
        <ele>2542.2</ele>
        <time>2026-09-03T06:15:46Z</time>
      </trkpt>
      <trkpt lat="44.72391" lon="7.04672">
        <ele>2542.2</ele>
        <time>2026-09-03T06:15:51Z</time>
      </trkpt>
      <trkpt lat="44.72391" lon="7.04672">
        <ele>2542.2</ele>
        <time>2026-09-03T06:15:56Z</time>
      </trkpt>
      <trkpt lat="44.72391" lon="7.04672">
        <ele>2542.2</ele>
        <time>2026-09-03T06:16:02Z</time>
      </trkpt>
      <trkpt lat="44.72391" lon="7.04672">
        <ele>2542.2</ele>
        <time>2026-09-03T06:16:07Z</time>
      </trkpt>
      <trkpt lat="44.72392" lon="7.04676">
        <ele>2540.2</ele>
        <time>2026-09-03T06:16:12Z</time>
      </trkpt>
      <trkpt lat="44.72392" lon="7.04676">
        <ele>2540.2</ele>
        <time>2026-09-03T06:16:18Z</time>
      </trkpt>
      <trkpt lat="44.72392" lon="7.04676">
        <ele>2540.2</ele>
        <time>2026-09-03T06:16:23Z</time>
      </trkpt>
      <trkpt lat="44.72392" lon="7.04676">
        <ele>2540.2</ele>
        <time>2026-09-03T06:16:28Z</time>
      </trkpt>
      <trkpt lat="44.72392" lon="7.04676">
        <ele>2540.2</ele>
        <time>2026-09-03T06:16:34Z</time>
      </trkpt>
      <trkpt lat="44.72387" lon="7.04673">
        <ele>2544.1</ele>
        <time>2026-09-03T06:16:39Z</time>
      </trkpt>
      <trkpt lat="44.72387" lon="7.04673">
        <ele>2544.1</ele>
        <time>2026-09-03T06:16:44Z</time>
      </trkpt>
      <trkpt lat="44.72387" lon="7.04673">
        <ele>2544.1</ele>
        <time>2026-09-03T06:16:50Z</time>
      </trkpt>
      <trkpt lat="44.72387" lon="7.04673">
        <ele>2544.1</ele>
        <time>2026-09-03T06:16:55Z</time>
      </trkpt>
      <trkpt lat="44.72387" lon="7.04673">
        <ele>2544.1</ele>
        <time>2026-09-03T06:17:00Z</time>
      </trkpt>
      <trkpt lat="44.72387" lon="7.04673">
        <ele>2544.1</ele>
        <time>2026-09-03T06:17:06Z</time>
      </trkpt>
      <trkpt lat="44.72387" lon="7.04673">
        <ele>2544.1</ele>
        <time>2026-09-03T06:17:11Z</time>
      </trkpt>
      <trkpt lat="44.72387" lon="7.04673">
        <ele>2544.1</ele>
        <time>2026-09-03T06:17:16Z</time>
      </trkpt>
      <trkpt lat="44.72387" lon="7.04673">
        <ele>2544.1</ele>
        <time>2026-09-03T06:17:22Z</time>
      </trkpt>
      <trkpt lat="44.72387" lon="7.04673">
        <ele>2544.1</ele>
        <time>2026-09-03T06:17:27Z</time>
      </trkpt>
      <trkpt lat="44.72387" lon="7.04673">
        <ele>2544.1</ele>
        <time>2026-09-03T06:17:32Z</time>
      </trkpt>
      <trkpt lat="44.72378" lon="7.04677">
        <ele>2547.8</ele>
        <time>2026-09-03T06:17:38Z</time>
      </trkpt>
      <trkpt lat="44.72377" lon="7.04677">
        <ele>2548.3</ele>
        <time>2026-09-03T06:17:43Z</time>
      </trkpt>
      <trkpt lat="44.72377" lon="7.04677">
        <ele>2548.3</ele>
        <time>2026-09-03T06:17:48Z</time>
      </trkpt>
      <trkpt lat="44.72377" lon="7.04677">
        <ele>2548.3</ele>
        <time>2026-09-03T06:17:54Z</time>
      </trkpt>
      <trkpt lat="44.72377" lon="7.04677">
        <ele>2548.3</ele>
        <time>2026-09-03T06:17:59Z</time>
      </trkpt>
      <trkpt lat="44.72377" lon="7.04677">
        <ele>2548.3</ele>
        <time>2026-09-03T06:18:04Z</time>
      </trkpt>
      <trkpt lat="44.72373" lon="7.04685">
        <ele>2547.9</ele>
        <time>2026-09-03T06:18:10Z</time>
      </trkpt>
      <trkpt lat="44.72373" lon="7.04685">
        <ele>2547.9</ele>
        <time>2026-09-03T06:18:15Z</time>
      </trkpt>
      <trkpt lat="44.72373" lon="7.04685">
        <ele>2547.9</ele>
        <time>2026-09-03T06:18:20Z</time>
      </trkpt>
      <trkpt lat="44.72373" lon="7.04685">
        <ele>2547.9</ele>
        <time>2026-09-03T06:18:26Z</time>
      </trkpt>
      <trkpt lat="44.72373" lon="7.04685">
        <ele>2547.9</ele>
        <time>2026-09-03T06:18:31Z</time>
      </trkpt>
      <trkpt lat="44.72373" lon="7.04685">
        <ele>2547.9</ele>
        <time>2026-09-03T06:18:36Z</time>
      </trkpt>
      <trkpt lat="44.72373" lon="7.04685">
        <ele>2547.9</ele>
        <time>2026-09-03T06:18:42Z</time>
      </trkpt>
      <trkpt lat="44.72373" lon="7.04685">
        <ele>2547.9</ele>
        <time>2026-09-03T06:18:47Z</time>
      </trkpt>
      <trkpt lat="44.72373" lon="7.04685">
        <ele>2547.9</ele>
        <time>2026-09-03T06:18:52Z</time>
      </trkpt>
      <trkpt lat="44.72373" lon="7.04685">
        <ele>2547.9</ele>
        <time>2026-09-03T06:18:58Z</time>
      </trkpt>
      <trkpt lat="44.72373" lon="7.04685">
        <ele>2547.9</ele>
        <time>2026-09-03T06:19:03Z</time>
      </trkpt>
      <trkpt lat="44.72373" lon="7.04685">
        <ele>2547.9</ele>
        <time>2026-09-03T06:19:08Z</time>
      </trkpt>
      <trkpt lat="44.72364" lon="7.04688">
        <ele>2552.1</ele>
        <time>2026-09-03T06:19:14Z</time>
      </trkpt>
      <trkpt lat="44.72363" lon="7.04688">
        <ele>2552.7</ele>
        <time>2026-09-03T06:19:19Z</time>
      </trkpt>
      <trkpt lat="44.72363" lon="7.04688">
        <ele>2552.7</ele>
        <time>2026-09-03T06:19:24Z</time>
      </trkpt>
      <trkpt lat="44.72363" lon="7.04688">
        <ele>2552.7</ele>
        <time>2026-09-03T06:19:30Z</time>
      </trkpt>
      <trkpt lat="44.72363" lon="7.04688">
        <ele>2552.7</ele>
        <time>2026-09-03T06:19:35Z</time>
      </trkpt>
      <trkpt lat="44.72363" lon="7.04688">
        <ele>2552.7</ele>
        <time>2026-09-03T06:19:40Z</time>
      </trkpt>
      <trkpt lat="44.72363" lon="7.04688">
        <ele>2552.7</ele>
        <time>2026-09-03T06:19:46Z</time>
      </trkpt>
      <trkpt lat="44.72363" lon="7.04688">
        <ele>2552.7</ele>
        <time>2026-09-03T06:19:51Z</time>
      </trkpt>
      <trkpt lat="44.72363" lon="7.04688">
        <ele>2552.7</ele>
        <time>2026-09-03T06:19:56Z</time>
      </trkpt>
      <trkpt lat="44.72363" lon="7.04688">
        <ele>2552.7</ele>
        <time>2026-09-03T06:20:02Z</time>
      </trkpt>
      <trkpt lat="44.72363" lon="7.04688">
        <ele>2552.7</ele>
        <time>2026-09-03T06:20:07Z</time>
      </trkpt>
      <trkpt lat="44.72363" lon="7.04688">
        <ele>2552.7</ele>
        <time>2026-09-03T06:20:12Z</time>
      </trkpt>
      <trkpt lat="44.72363" lon="7.04688">
        <ele>2552.7</ele>
        <time>2026-09-03T06:20:18Z</time>
      </trkpt>
      <trkpt lat="44.72363" lon="7.04688">
        <ele>2552.7</ele>
        <time>2026-09-03T06:20:23Z</time>
      </trkpt>
      <trkpt lat="44.72354" lon="7.04689">
        <ele>2557.6</ele>
        <time>2026-09-03T06:20:28Z</time>
      </trkpt>
      <trkpt lat="44.72354" lon="7.04689">
        <ele>2557.6</ele>
        <time>2026-09-03T06:20:34Z</time>
      </trkpt>
      <trkpt lat="44.72354" lon="7.04689">
        <ele>2557.6</ele>
        <time>2026-09-03T06:20:39Z</time>
      </trkpt>
      <trkpt lat="44.72354" lon="7.04689">
        <ele>2557.6</ele>
        <time>2026-09-03T06:20:44Z</time>
      </trkpt>
      <trkpt lat="44.72354" lon="7.04689">
        <ele>2557.6</ele>
        <time>2026-09-03T06:20:50Z</time>
      </trkpt>
      <trkpt lat="44.72354" lon="7.04689">
        <ele>2557.6</ele>
        <time>2026-09-03T06:20:55Z</time>
      </trkpt>
      <trkpt lat="44.72354" lon="7.04689">
        <ele>2557.6</ele>
        <time>2026-09-03T06:21:00Z</time>
      </trkpt>
      <trkpt lat="44.72354" lon="7.04689">
        <ele>2557.6</ele>
        <time>2026-09-03T06:21:06Z</time>
      </trkpt>
      <trkpt lat="44.72354" lon="7.04689">
        <ele>2557.6</ele>
        <time>2026-09-03T06:21:11Z</time>
      </trkpt>
      <trkpt lat="44.72354" lon="7.04689">
        <ele>2557.6</ele>
        <time>2026-09-03T06:21:16Z</time>
      </trkpt>
      <trkpt lat="44.72354" lon="7.04689">
        <ele>2557.6</ele>
        <time>2026-09-03T06:21:22Z</time>
      </trkpt>
      <trkpt lat="44.72354" lon="7.04689">
        <ele>2557.6</ele>
        <time>2026-09-03T06:21:27Z</time>
      </trkpt>
      <trkpt lat="44.72354" lon="7.04689">
        <ele>2557.6</ele>
        <time>2026-09-03T06:21:32Z</time>
      </trkpt>
      <trkpt lat="44.72354" lon="7.04689">
        <ele>2557.6</ele>
        <time>2026-09-03T06:21:38Z</time>
      </trkpt>
      <trkpt lat="44.72354" lon="7.04689">
        <ele>2557.6</ele>
        <time>2026-09-03T06:21:43Z</time>
      </trkpt>
      <trkpt lat="44.72354" lon="7.04689">
        <ele>2557.6</ele>
        <time>2026-09-03T06:21:48Z</time>
      </trkpt>
      <trkpt lat="44.72354" lon="7.04689">
        <ele>2557.6</ele>
        <time>2026-09-03T06:21:54Z</time>
      </trkpt>
      <trkpt lat="44.72354" lon="7.04689">
        <ele>2557.6</ele>
        <time>2026-09-03T06:21:59Z</time>
      </trkpt>
      <trkpt lat="44.72354" lon="7.04689">
        <ele>2557.6</ele>
        <time>2026-09-03T06:22:04Z</time>
      </trkpt>
      <trkpt lat="44.72354" lon="7.04689">
        <ele>2557.6</ele>
        <time>2026-09-03T06:22:10Z</time>
      </trkpt>
      <trkpt lat="44.72346" lon="7.04696">
        <ele>2560.1</ele>
        <time>2026-09-03T06:22:15Z</time>
      </trkpt>
      <trkpt lat="44.72346" lon="7.04697">
        <ele>2559.8</ele>
        <time>2026-09-03T06:22:20Z</time>
      </trkpt>
      <trkpt lat="44.72346" lon="7.04697">
        <ele>2559.8</ele>
        <time>2026-09-03T06:22:26Z</time>
      </trkpt>
      <trkpt lat="44.72346" lon="7.04697">
        <ele>2559.8</ele>
        <time>2026-09-03T06:22:31Z</time>
      </trkpt>
      <trkpt lat="44.72346" lon="7.04697">
        <ele>2559.8</ele>
        <time>2026-09-03T06:22:36Z</time>
      </trkpt>
      <trkpt lat="44.72346" lon="7.04697">
        <ele>2559.8</ele>
        <time>2026-09-03T06:22:42Z</time>
      </trkpt>
      <trkpt lat="44.72346" lon="7.04697">
        <ele>2559.8</ele>
        <time>2026-09-03T06:22:47Z</time>
      </trkpt>
      <trkpt lat="44.72346" lon="7.04697">
        <ele>2559.8</ele>
        <time>2026-09-03T06:22:52Z</time>
      </trkpt>
      <trkpt lat="44.72346" lon="7.04697">
        <ele>2559.8</ele>
        <time>2026-09-03T06:22:58Z</time>
      </trkpt>
      <trkpt lat="44.72339" lon="7.04704">
        <ele>2561.8</ele>
        <time>2026-09-03T06:23:03Z</time>
      </trkpt>
      <trkpt lat="44.72339" lon="7.04704">
        <ele>2561.8</ele>
        <time>2026-09-03T06:23:08Z</time>
      </trkpt>
      <trkpt lat="44.72339" lon="7.04704">
        <ele>2561.8</ele>
        <time>2026-09-03T06:23:14Z</time>
      </trkpt>
      <trkpt lat="44.72339" lon="7.04704">
        <ele>2561.8</ele>
        <time>2026-09-03T06:23:19Z</time>
      </trkpt>
      <trkpt lat="44.72339" lon="7.04704">
        <ele>2561.8</ele>
        <time>2026-09-03T06:23:24Z</time>
      </trkpt>
      <trkpt lat="44.72339" lon="7.04704">
        <ele>2561.8</ele>
        <time>2026-09-03T06:23:30Z</time>
      </trkpt>
      <trkpt lat="44.72339" lon="7.04704">
        <ele>2561.8</ele>
        <time>2026-09-03T06:23:35Z</time>
      </trkpt>
      <trkpt lat="44.72339" lon="7.04704">
        <ele>2561.8</ele>
        <time>2026-09-03T06:23:40Z</time>
      </trkpt>
      <trkpt lat="44.72339" lon="7.04704">
        <ele>2561.8</ele>
        <time>2026-09-03T06:23:46Z</time>
      </trkpt>
      <trkpt lat="44.7233" lon="7.04708">
        <ele>2565.3</ele>
        <time>2026-09-03T06:23:51Z</time>
      </trkpt>
      <trkpt lat="44.7233" lon="7.04709">
        <ele>2565.1</ele>
        <time>2026-09-03T06:23:56Z</time>
      </trkpt>
      <trkpt lat="44.7233" lon="7.04709">
        <ele>2565.1</ele>
        <time>2026-09-03T06:24:02Z</time>
      </trkpt>
      <trkpt lat="44.7233" lon="7.04709">
        <ele>2565.1</ele>
        <time>2026-09-03T06:24:07Z</time>
      </trkpt>
      <trkpt lat="44.7233" lon="7.04709">
        <ele>2565.1</ele>
        <time>2026-09-03T06:24:12Z</time>
      </trkpt>
      <trkpt lat="44.7233" lon="7.04709">
        <ele>2565.1</ele>
        <time>2026-09-03T06:24:18Z</time>
      </trkpt>
      <trkpt lat="44.7233" lon="7.04709">
        <ele>2565.1</ele>
        <time>2026-09-03T06:24:23Z</time>
      </trkpt>
      <trkpt lat="44.7233" lon="7.04709">
        <ele>2565.1</ele>
        <time>2026-09-03T06:24:28Z</time>
      </trkpt>
      <trkpt lat="44.7233" lon="7.04709">
        <ele>2565.1</ele>
        <time>2026-09-03T06:24:34Z</time>
      </trkpt>
      <trkpt lat="44.7233" lon="7.04709">
        <ele>2565.1</ele>
        <time>2026-09-03T06:24:39Z</time>
      </trkpt>
      <trkpt lat="44.7233" lon="7.04709">
        <ele>2565.1</ele>
        <time>2026-09-03T06:24:44Z</time>
      </trkpt>
      <trkpt lat="44.7233" lon="7.04709">
        <ele>2565.1</ele>
        <time>2026-09-03T06:24:50Z</time>
      </trkpt>
      <trkpt lat="44.7233" lon="7.04709">
        <ele>2565.1</ele>
        <time>2026-09-03T06:24:55Z</time>
      </trkpt>
      <trkpt lat="44.7233" lon="7.04709">
        <ele>2565.1</ele>
        <time>2026-09-03T06:25:00Z</time>
      </trkpt>
      <trkpt lat="44.72321" lon="7.04715">
        <ele>2567</ele>
        <time>2026-09-03T06:25:06Z</time>
      </trkpt>
      <trkpt lat="44.72321" lon="7.04715">
        <ele>2567</ele>
        <time>2026-09-03T06:25:11Z</time>
      </trkpt>
      <trkpt lat="44.72321" lon="7.04715">
        <ele>2567</ele>
        <time>2026-09-03T06:25:16Z</time>
      </trkpt>
      <trkpt lat="44.72321" lon="7.04715">
        <ele>2567</ele>
        <time>2026-09-03T06:25:22Z</time>
      </trkpt>
      <trkpt lat="44.72321" lon="7.04715">
        <ele>2567</ele>
        <time>2026-09-03T06:25:27Z</time>
      </trkpt>
      <trkpt lat="44.72321" lon="7.04715">
        <ele>2567</ele>
        <time>2026-09-03T06:25:32Z</time>
      </trkpt>
      <trkpt lat="44.72321" lon="7.04715">
        <ele>2567</ele>
        <time>2026-09-03T06:25:38Z</time>
      </trkpt>
      <trkpt lat="44.72321" lon="7.04715">
        <ele>2567</ele>
        <time>2026-09-03T06:25:43Z</time>
      </trkpt>
      <trkpt lat="44.72321" lon="7.04715">
        <ele>2567</ele>
        <time>2026-09-03T06:25:48Z</time>
      </trkpt>
      <trkpt lat="44.72312" lon="7.04715">
        <ele>2570.5</ele>
        <time>2026-09-03T06:25:54Z</time>
      </trkpt>
      <trkpt lat="44.72312" lon="7.04715">
        <ele>2570.5</ele>
        <time>2026-09-03T06:25:59Z</time>
      </trkpt>
      <trkpt lat="44.72312" lon="7.04715">
        <ele>2570.5</ele>
        <time>2026-09-03T06:26:04Z</time>
      </trkpt>
      <trkpt lat="44.72312" lon="7.04715">
        <ele>2570.5</ele>
        <time>2026-09-03T06:26:10Z</time>
      </trkpt>
      <trkpt lat="44.72312" lon="7.04715">
        <ele>2570.5</ele>
        <time>2026-09-03T06:26:15Z</time>
      </trkpt>
      <trkpt lat="44.72312" lon="7.04715">
        <ele>2570.5</ele>
        <time>2026-09-03T06:26:20Z</time>
      </trkpt>
      <trkpt lat="44.72312" lon="7.04715">
        <ele>2570.5</ele>
        <time>2026-09-03T06:26:26Z</time>
      </trkpt>
      <trkpt lat="44.72312" lon="7.04715">
        <ele>2570.5</ele>
        <time>2026-09-03T06:26:31Z</time>
      </trkpt>
      <trkpt lat="44.72312" lon="7.04715">
        <ele>2570.5</ele>
        <time>2026-09-03T06:26:36Z</time>
      </trkpt>
      <trkpt lat="44.72312" lon="7.04715">
        <ele>2570.5</ele>
        <time>2026-09-03T06:26:42Z</time>
      </trkpt>
      <trkpt lat="44.72312" lon="7.04715">
        <ele>2570.5</ele>
        <time>2026-09-03T06:26:47Z</time>
      </trkpt>
      <trkpt lat="44.72312" lon="7.04715">
        <ele>2570.5</ele>
        <time>2026-09-03T06:26:52Z</time>
      </trkpt>
      <trkpt lat="44.72312" lon="7.04715">
        <ele>2570.5</ele>
        <time>2026-09-03T06:26:58Z</time>
      </trkpt>
      <trkpt lat="44.72312" lon="7.04715">
        <ele>2570.5</ele>
        <time>2026-09-03T06:27:03Z</time>
      </trkpt>
      <trkpt lat="44.72312" lon="7.04715">
        <ele>2570.5</ele>
        <time>2026-09-03T06:27:08Z</time>
      </trkpt>
      <trkpt lat="44.72312" lon="7.04715">
        <ele>2570.5</ele>
        <time>2026-09-03T06:27:14Z</time>
      </trkpt>
      <trkpt lat="44.72312" lon="7.04715">
        <ele>2570.5</ele>
        <time>2026-09-03T06:27:19Z</time>
      </trkpt>
      <trkpt lat="44.72309" lon="7.04728">
        <ele>2569.2</ele>
        <time>2026-09-03T06:27:24Z</time>
      </trkpt>
      <trkpt lat="44.72309" lon="7.04728">
        <ele>2569.2</ele>
        <time>2026-09-03T06:27:30Z</time>
      </trkpt>
      <trkpt lat="44.72309" lon="7.04728">
        <ele>2569.2</ele>
        <time>2026-09-03T06:27:35Z</time>
      </trkpt>
      <trkpt lat="44.72309" lon="7.04728">
        <ele>2569.2</ele>
        <time>2026-09-03T06:27:40Z</time>
      </trkpt>
      <trkpt lat="44.72303" lon="7.04731">
        <ele>2571.3</ele>
        <time>2026-09-03T06:27:46Z</time>
      </trkpt>
      <trkpt lat="44.72303" lon="7.04731">
        <ele>2571.3</ele>
        <time>2026-09-03T06:27:51Z</time>
      </trkpt>
      <trkpt lat="44.72303" lon="7.04731">
        <ele>2571.3</ele>
        <time>2026-09-03T06:27:56Z</time>
      </trkpt>
      <trkpt lat="44.72303" lon="7.04731">
        <ele>2571.3</ele>
        <time>2026-09-03T06:28:02Z</time>
      </trkpt>
      <trkpt lat="44.72303" lon="7.04731">
        <ele>2571.3</ele>
        <time>2026-09-03T06:28:07Z</time>
      </trkpt>
      <trkpt lat="44.72301" lon="7.04739">
        <ele>2570.9</ele>
        <time>2026-09-03T06:28:12Z</time>
      </trkpt>
      <trkpt lat="44.72298" lon="7.04736">
        <ele>2572.8</ele>
        <time>2026-09-03T06:28:18Z</time>
      </trkpt>
      <trkpt lat="44.72297" lon="7.04736">
        <ele>2573.3</ele>
        <time>2026-09-03T06:28:23Z</time>
      </trkpt>
      <trkpt lat="44.72295" lon="7.04736">
        <ele>2574.3</ele>
        <time>2026-09-03T06:28:28Z</time>
      </trkpt>
      <trkpt lat="44.72295" lon="7.04737">
        <ele>2574.1</ele>
        <time>2026-09-03T06:28:34Z</time>
      </trkpt>
      <trkpt lat="44.72295" lon="7.04737">
        <ele>2574.1</ele>
        <time>2026-09-03T06:28:39Z</time>
      </trkpt>
      <trkpt lat="44.72295" lon="7.04737">
        <ele>2574.1</ele>
        <time>2026-09-03T06:28:44Z</time>
      </trkpt>
      <trkpt lat="44.72295" lon="7.04737">
        <ele>2574.1</ele>
        <time>2026-09-03T06:28:50Z</time>
      </trkpt>
      <trkpt lat="44.72295" lon="7.04737">
        <ele>2574.1</ele>
        <time>2026-09-03T06:28:55Z</time>
      </trkpt>
      <trkpt lat="44.72295" lon="7.04737">
        <ele>2574.1</ele>
        <time>2026-09-03T06:29:00Z</time>
      </trkpt>
      <trkpt lat="44.72295" lon="7.04737">
        <ele>2574.1</ele>
        <time>2026-09-03T06:29:06Z</time>
      </trkpt>
      <trkpt lat="44.72295" lon="7.04737">
        <ele>2574.1</ele>
        <time>2026-09-03T06:29:11Z</time>
      </trkpt>
      <trkpt lat="44.72295" lon="7.04737">
        <ele>2574.1</ele>
        <time>2026-09-03T06:29:16Z</time>
      </trkpt>
      <trkpt lat="44.72295" lon="7.04737">
        <ele>2574.1</ele>
        <time>2026-09-03T06:29:22Z</time>
      </trkpt>
      <trkpt lat="44.72295" lon="7.04737">
        <ele>2574.1</ele>
        <time>2026-09-03T06:29:27Z</time>
      </trkpt>
      <trkpt lat="44.72295" lon="7.04737">
        <ele>2574.1</ele>
        <time>2026-09-03T06:29:32Z</time>
      </trkpt>
      <trkpt lat="44.72295" lon="7.04737">
        <ele>2574.1</ele>
        <time>2026-09-03T06:29:38Z</time>
      </trkpt>
      <trkpt lat="44.72295" lon="7.04737">
        <ele>2574.1</ele>
        <time>2026-09-03T06:29:43Z</time>
      </trkpt>
      <trkpt lat="44.72295" lon="7.04737">
        <ele>2574.1</ele>
        <time>2026-09-03T06:29:48Z</time>
      </trkpt>
      <trkpt lat="44.72295" lon="7.04737">
        <ele>2574.1</ele>
        <time>2026-09-03T06:29:54Z</time>
      </trkpt>
      <trkpt lat="44.72295" lon="7.04737">
        <ele>2574.1</ele>
        <time>2026-09-03T06:29:59Z</time>
      </trkpt>
      <trkpt lat="44.72295" lon="7.04737">
        <ele>2574.1</ele>
        <time>2026-09-03T06:30:04Z</time>
      </trkpt>
      <trkpt lat="44.72295" lon="7.04737">
        <ele>2574.1</ele>
        <time>2026-09-03T06:30:10Z</time>
      </trkpt>
      <trkpt lat="44.72295" lon="7.04737">
        <ele>2574.1</ele>
        <time>2026-09-03T06:30:15Z</time>
      </trkpt>
      <trkpt lat="44.72295" lon="7.04737">
        <ele>2574.1</ele>
        <time>2026-09-03T06:30:20Z</time>
      </trkpt>
      <trkpt lat="44.72295" lon="7.04737">
        <ele>2574.1</ele>
        <time>2026-09-03T06:30:26Z</time>
      </trkpt>
      <trkpt lat="44.72295" lon="7.04737">
        <ele>2574.1</ele>
        <time>2026-09-03T06:30:31Z</time>
      </trkpt>
      <trkpt lat="44.72295" lon="7.04737">
        <ele>2574.1</ele>
        <time>2026-09-03T06:30:36Z</time>
      </trkpt>
      <trkpt lat="44.72295" lon="7.04737">
        <ele>2574.1</ele>
        <time>2026-09-03T06:30:42Z</time>
      </trkpt>
      <trkpt lat="44.72293" lon="7.04739">
        <ele>2574.8</ele>
        <time>2026-09-03T06:30:47Z</time>
      </trkpt>
      <trkpt lat="44.72289" lon="7.04737">
        <ele>2577</ele>
        <time>2026-09-03T06:30:52Z</time>
      </trkpt>
      <trkpt lat="44.72288" lon="7.04734">
        <ele>2577.8</ele>
        <time>2026-09-03T06:30:58Z</time>
      </trkpt>
      <trkpt lat="44.72288" lon="7.04734">
        <ele>2577.8</ele>
        <time>2026-09-03T06:31:03Z</time>
      </trkpt>
      <trkpt lat="44.72288" lon="7.04733">
        <ele>2577.9</ele>
        <time>2026-09-03T06:31:08Z</time>
      </trkpt>
      <trkpt lat="44.72284" lon="7.04735">
        <ele>2579.6</ele>
        <time>2026-09-03T06:31:14Z</time>
      </trkpt>
      <trkpt lat="44.7228" lon="7.04733">
        <ele>2581.7</ele>
        <time>2026-09-03T06:31:19Z</time>
      </trkpt>
      <trkpt lat="44.72276" lon="7.04733">
        <ele>2583.5</ele>
        <time>2026-09-03T06:31:24Z</time>
      </trkpt>
      <trkpt lat="44.72274" lon="7.04735">
        <ele>2584.3</ele>
        <time>2026-09-03T06:31:30Z</time>
      </trkpt>
      <trkpt lat="44.72273" lon="7.04736">
        <ele>2584.7</ele>
        <time>2026-09-03T06:31:35Z</time>
      </trkpt>
      <trkpt lat="44.7227" lon="7.04735">
        <ele>2586.2</ele>
        <time>2026-09-03T06:31:40Z</time>
      </trkpt>
      <trkpt lat="44.72267" lon="7.04737">
        <ele>2587.5</ele>
        <time>2026-09-03T06:31:46Z</time>
      </trkpt>
      <trkpt lat="44.72265" lon="7.04737">
        <ele>2588.5</ele>
        <time>2026-09-03T06:31:51Z</time>
      </trkpt>
      <trkpt lat="44.72262" lon="7.04739">
        <ele>2589.9</ele>
        <time>2026-09-03T06:31:56Z</time>
      </trkpt>
      <trkpt lat="44.72258" lon="7.04743">
        <ele>2591.8</ele>
        <time>2026-09-03T06:32:02Z</time>
      </trkpt>
      <trkpt lat="44.72255" lon="7.04746">
        <ele>2593.3</ele>
        <time>2026-09-03T06:32:07Z</time>
      </trkpt>
      <trkpt lat="44.72254" lon="7.04748">
        <ele>2593.9</ele>
        <time>2026-09-03T06:32:12Z</time>
      </trkpt>
      <trkpt lat="44.72254" lon="7.0475">
        <ele>2593.9</ele>
        <time>2026-09-03T06:32:18Z</time>
      </trkpt>
      <trkpt lat="44.72254" lon="7.0475">
        <ele>2593.9</ele>
        <time>2026-09-03T06:32:23Z</time>
      </trkpt>
      <trkpt lat="44.72254" lon="7.0475">
        <ele>2593.9</ele>
        <time>2026-09-03T06:32:28Z</time>
      </trkpt>
      <trkpt lat="44.72254" lon="7.0475">
        <ele>2593.9</ele>
        <time>2026-09-03T06:32:34Z</time>
      </trkpt>
      <trkpt lat="44.72254" lon="7.0475">
        <ele>2593.9</ele>
        <time>2026-09-03T06:32:39Z</time>
      </trkpt>
      <trkpt lat="44.72254" lon="7.0475">
        <ele>2593.9</ele>
        <time>2026-09-03T06:32:44Z</time>
      </trkpt>
      <trkpt lat="44.72254" lon="7.0475">
        <ele>2593.9</ele>
        <time>2026-09-03T06:32:50Z</time>
      </trkpt>
      <trkpt lat="44.72254" lon="7.0475">
        <ele>2593.9</ele>
        <time>2026-09-03T06:32:55Z</time>
      </trkpt>
      <trkpt lat="44.72254" lon="7.0475">
        <ele>2593.9</ele>
        <time>2026-09-03T06:33:00Z</time>
      </trkpt>
      <trkpt lat="44.72254" lon="7.0475">
        <ele>2593.9</ele>
        <time>2026-09-03T06:33:06Z</time>
      </trkpt>
      <trkpt lat="44.72244" lon="7.04749">
        <ele>2598.4</ele>
        <time>2026-09-03T06:33:11Z</time>
      </trkpt>
      <trkpt lat="44.72241" lon="7.0475">
        <ele>2599.7</ele>
        <time>2026-09-03T06:33:16Z</time>
      </trkpt>
      <trkpt lat="44.72237" lon="7.04752">
        <ele>2600.7</ele>
        <time>2026-09-03T06:33:22Z</time>
      </trkpt>
      <trkpt lat="44.72236" lon="7.04755">
        <ele>2600.2</ele>
        <time>2026-09-03T06:33:27Z</time>
      </trkpt>
      <trkpt lat="44.72236" lon="7.04757">
        <ele>2599.6</ele>
        <time>2026-09-03T06:33:32Z</time>
      </trkpt>
      <trkpt lat="44.72235" lon="7.04759">
        <ele>2599.4</ele>
        <time>2026-09-03T06:33:38Z</time>
      </trkpt>
      <trkpt lat="44.72235" lon="7.04759">
        <ele>2599.4</ele>
        <time>2026-09-03T06:33:43Z</time>
      </trkpt>
      <trkpt lat="44.72235" lon="7.04759">
        <ele>2599.4</ele>
        <time>2026-09-03T06:33:48Z</time>
      </trkpt>
      <trkpt lat="44.72235" lon="7.04759">
        <ele>2599.4</ele>
        <time>2026-09-03T06:33:54Z</time>
      </trkpt>
      <trkpt lat="44.72235" lon="7.04759">
        <ele>2599.4</ele>
        <time>2026-09-03T06:33:59Z</time>
      </trkpt>
      <trkpt lat="44.72235" lon="7.04759">
        <ele>2599.4</ele>
        <time>2026-09-03T06:34:04Z</time>
      </trkpt>
      <trkpt lat="44.72235" lon="7.04759">
        <ele>2599.4</ele>
        <time>2026-09-03T06:34:10Z</time>
      </trkpt>
      <trkpt lat="44.72235" lon="7.04759">
        <ele>2599.4</ele>
        <time>2026-09-03T06:34:15Z</time>
      </trkpt>
      <trkpt lat="44.72235" lon="7.04759">
        <ele>2599.4</ele>
        <time>2026-09-03T06:34:20Z</time>
      </trkpt>
      <trkpt lat="44.72226" lon="7.04762">
        <ele>2602.5</ele>
        <time>2026-09-03T06:34:26Z</time>
      </trkpt>
      <trkpt lat="44.72225" lon="7.04763">
        <ele>2602.7</ele>
        <time>2026-09-03T06:34:31Z</time>
      </trkpt>
      <trkpt lat="44.72225" lon="7.04763">
        <ele>2602.7</ele>
        <time>2026-09-03T06:34:36Z</time>
      </trkpt>
      <trkpt lat="44.72225" lon="7.04763">
        <ele>2602.7</ele>
        <time>2026-09-03T06:34:42Z</time>
      </trkpt>
      <trkpt lat="44.72225" lon="7.04763">
        <ele>2602.7</ele>
        <time>2026-09-03T06:34:47Z</time>
      </trkpt>
      <trkpt lat="44.72225" lon="7.04763">
        <ele>2602.7</ele>
        <time>2026-09-03T06:34:52Z</time>
      </trkpt>
      <trkpt lat="44.72225" lon="7.04763">
        <ele>2602.7</ele>
        <time>2026-09-03T06:34:58Z</time>
      </trkpt>
      <trkpt lat="44.72225" lon="7.04763">
        <ele>2602.7</ele>
        <time>2026-09-03T06:35:03Z</time>
      </trkpt>
      <trkpt lat="44.72225" lon="7.04763">
        <ele>2602.7</ele>
        <time>2026-09-03T06:35:08Z</time>
      </trkpt>
      <trkpt lat="44.72225" lon="7.04763">
        <ele>2602.7</ele>
        <time>2026-09-03T06:35:14Z</time>
      </trkpt>
      <trkpt lat="44.72216" lon="7.04768">
        <ele>2605.5</ele>
        <time>2026-09-03T06:35:19Z</time>
      </trkpt>
      <trkpt lat="44.72216" lon="7.04768">
        <ele>2605.5</ele>
        <time>2026-09-03T06:35:24Z</time>
      </trkpt>
      <trkpt lat="44.72216" lon="7.04768">
        <ele>2605.5</ele>
        <time>2026-09-03T06:35:30Z</time>
      </trkpt>
      <trkpt lat="44.72216" lon="7.04768">
        <ele>2605.5</ele>
        <time>2026-09-03T06:35:35Z</time>
      </trkpt>
      <trkpt lat="44.72216" lon="7.04768">
        <ele>2605.5</ele>
        <time>2026-09-03T06:35:40Z</time>
      </trkpt>
      <trkpt lat="44.72216" lon="7.04768">
        <ele>2605.5</ele>
        <time>2026-09-03T06:35:46Z</time>
      </trkpt>
      <trkpt lat="44.72216" lon="7.04768">
        <ele>2605.5</ele>
        <time>2026-09-03T06:35:51Z</time>
      </trkpt>
      <trkpt lat="44.72216" lon="7.04768">
        <ele>2605.5</ele>
        <time>2026-09-03T06:35:56Z</time>
      </trkpt>
      <trkpt lat="44.72208" lon="7.04773">
        <ele>2608.1</ele>
        <time>2026-09-03T06:36:02Z</time>
      </trkpt>
      <trkpt lat="44.72207" lon="7.04774">
        <ele>2608.3</ele>
        <time>2026-09-03T06:36:07Z</time>
      </trkpt>
      <trkpt lat="44.72207" lon="7.04774">
        <ele>2608.3</ele>
        <time>2026-09-03T06:36:12Z</time>
      </trkpt>
      <trkpt lat="44.72207" lon="7.04774">
        <ele>2608.3</ele>
        <time>2026-09-03T06:36:18Z</time>
      </trkpt>
      <trkpt lat="44.72207" lon="7.04774">
        <ele>2608.3</ele>
        <time>2026-09-03T06:36:23Z</time>
      </trkpt>
      <trkpt lat="44.72207" lon="7.04774">
        <ele>2608.3</ele>
        <time>2026-09-03T06:36:28Z</time>
      </trkpt>
      <trkpt lat="44.72207" lon="7.04774">
        <ele>2608.3</ele>
        <time>2026-09-03T06:36:34Z</time>
      </trkpt>
      <trkpt lat="44.72207" lon="7.04774">
        <ele>2608.3</ele>
        <time>2026-09-03T06:36:39Z</time>
      </trkpt>
      <trkpt lat="44.72207" lon="7.04774">
        <ele>2608.3</ele>
        <time>2026-09-03T06:36:44Z</time>
      </trkpt>
      <trkpt lat="44.72196" lon="7.0478">
        <ele>2612.5</ele>
        <time>2026-09-03T06:36:50Z</time>
      </trkpt>
      <trkpt lat="44.72193" lon="7.0478">
        <ele>2614</ele>
        <time>2026-09-03T06:36:55Z</time>
      </trkpt>
      <trkpt lat="44.72191" lon="7.04784">
        <ele>2614.3</ele>
        <time>2026-09-03T06:37:00Z</time>
      </trkpt>
      <trkpt lat="44.72189" lon="7.04787">
        <ele>2614.8</ele>
        <time>2026-09-03T06:37:06Z</time>
      </trkpt>
      <trkpt lat="44.72187" lon="7.04788">
        <ele>2615.7</ele>
        <time>2026-09-03T06:37:11Z</time>
      </trkpt>
      <trkpt lat="44.72185" lon="7.0479">
        <ele>2616.5</ele>
        <time>2026-09-03T06:37:16Z</time>
      </trkpt>
      <trkpt lat="44.72184" lon="7.04791">
        <ele>2616.8</ele>
        <time>2026-09-03T06:37:22Z</time>
      </trkpt>
      <trkpt lat="44.72184" lon="7.04791">
        <ele>2616.8</ele>
        <time>2026-09-03T06:37:27Z</time>
      </trkpt>
      <trkpt lat="44.72181" lon="7.04794">
        <ele>2618</ele>
        <time>2026-09-03T06:37:32Z</time>
      </trkpt>
      <trkpt lat="44.72179" lon="7.04796">
        <ele>2618.8</ele>
        <time>2026-09-03T06:37:38Z</time>
      </trkpt>
      <trkpt lat="44.72178" lon="7.04796">
        <ele>2619.4</ele>
        <time>2026-09-03T06:37:43Z</time>
      </trkpt>
      <trkpt lat="44.72178" lon="7.04796">
        <ele>2619.4</ele>
        <time>2026-09-03T06:37:48Z</time>
      </trkpt>
      <trkpt lat="44.72178" lon="7.04796">
        <ele>2619.4</ele>
        <time>2026-09-03T06:37:54Z</time>
      </trkpt>
      <trkpt lat="44.72178" lon="7.04796">
        <ele>2619.4</ele>
        <time>2026-09-03T06:37:59Z</time>
      </trkpt>
      <trkpt lat="44.72174" lon="7.04796">
        <ele>2621.6</ele>
        <time>2026-09-03T06:38:04Z</time>
      </trkpt>
      <trkpt lat="44.72172" lon="7.04798">
        <ele>2622.4</ele>
        <time>2026-09-03T06:38:10Z</time>
      </trkpt>
      <trkpt lat="44.7217" lon="7.04799">
        <ele>2623.4</ele>
        <time>2026-09-03T06:38:15Z</time>
      </trkpt>
      <trkpt lat="44.7217" lon="7.048">
        <ele>2623.3</ele>
        <time>2026-09-03T06:38:20Z</time>
      </trkpt>
      <trkpt lat="44.7217" lon="7.048">
        <ele>2623.3</ele>
        <time>2026-09-03T06:38:26Z</time>
      </trkpt>
      <trkpt lat="44.7217" lon="7.048">
        <ele>2623.3</ele>
        <time>2026-09-03T06:38:31Z</time>
      </trkpt>
      <trkpt lat="44.7217" lon="7.048">
        <ele>2623.3</ele>
        <time>2026-09-03T06:38:36Z</time>
      </trkpt>
      <trkpt lat="44.72165" lon="7.04807">
        <ele>2625.2</ele>
        <time>2026-09-03T06:38:42Z</time>
      </trkpt>
      <trkpt lat="44.72163" lon="7.04808">
        <ele>2626</ele>
        <time>2026-09-03T06:38:47Z</time>
      </trkpt>
      <trkpt lat="44.72161" lon="7.04805">
        <ele>2627.1</ele>
        <time>2026-09-03T06:38:52Z</time>
      </trkpt>
      <trkpt lat="44.72159" lon="7.04805">
        <ele>2628</ele>
        <time>2026-09-03T06:38:58Z</time>
      </trkpt>
      <trkpt lat="44.72158" lon="7.04806">
        <ele>2628.3</ele>
        <time>2026-09-03T06:39:03Z</time>
      </trkpt>
      <trkpt lat="44.72156" lon="7.04807">
        <ele>2629.1</ele>
        <time>2026-09-03T06:39:08Z</time>
      </trkpt>
      <trkpt lat="44.72153" lon="7.04808">
        <ele>2630.4</ele>
        <time>2026-09-03T06:39:14Z</time>
      </trkpt>
      <trkpt lat="44.72152" lon="7.04809">
        <ele>2630.8</ele>
        <time>2026-09-03T06:39:19Z</time>
      </trkpt>
      <trkpt lat="44.7215" lon="7.04811">
        <ele>2631.6</ele>
        <time>2026-09-03T06:39:24Z</time>
      </trkpt>
      <trkpt lat="44.72149" lon="7.04811">
        <ele>2632.1</ele>
        <time>2026-09-03T06:39:30Z</time>
      </trkpt>
      <trkpt lat="44.72149" lon="7.04811">
        <ele>2632.1</ele>
        <time>2026-09-03T06:39:35Z</time>
      </trkpt>
      <trkpt lat="44.72144" lon="7.04812">
        <ele>2634.3</ele>
        <time>2026-09-03T06:39:40Z</time>
      </trkpt>
      <trkpt lat="44.72143" lon="7.04816">
        <ele>2634.7</ele>
        <time>2026-09-03T06:39:46Z</time>
      </trkpt>
      <trkpt lat="44.72143" lon="7.04817">
        <ele>2634.7</ele>
        <time>2026-09-03T06:39:51Z</time>
      </trkpt>
      <trkpt lat="44.7214" lon="7.04819">
        <ele>2636.1</ele>
        <time>2026-09-03T06:39:56Z</time>
      </trkpt>
      <trkpt lat="44.7214" lon="7.04819">
        <ele>2636.1</ele>
        <time>2026-09-03T06:40:02Z</time>
      </trkpt>
      <trkpt lat="44.7214" lon="7.04819">
        <ele>2636.1</ele>
        <time>2026-09-03T06:40:07Z</time>
      </trkpt>
      <trkpt lat="44.7214" lon="7.04819">
        <ele>2636.1</ele>
        <time>2026-09-03T06:40:12Z</time>
      </trkpt>
      <trkpt lat="44.7214" lon="7.04819">
        <ele>2636.1</ele>
        <time>2026-09-03T06:40:18Z</time>
      </trkpt>
      <trkpt lat="44.7214" lon="7.04819">
        <ele>2636.1</ele>
        <time>2026-09-03T06:40:23Z</time>
      </trkpt>
      <trkpt lat="44.7214" lon="7.04819">
        <ele>2636.1</ele>
        <time>2026-09-03T06:40:28Z</time>
      </trkpt>
      <trkpt lat="44.7214" lon="7.04819">
        <ele>2636.1</ele>
        <time>2026-09-03T06:40:34Z</time>
      </trkpt>
      <trkpt lat="44.7214" lon="7.04819">
        <ele>2636.1</ele>
        <time>2026-09-03T06:40:39Z</time>
      </trkpt>
      <trkpt lat="44.7214" lon="7.04819">
        <ele>2636.1</ele>
        <time>2026-09-03T06:40:44Z</time>
      </trkpt>
      <trkpt lat="44.7214" lon="7.04819">
        <ele>2636.1</ele>
        <time>2026-09-03T06:40:50Z</time>
      </trkpt>
      <trkpt lat="44.72136" lon="7.04826">
        <ele>2638.1</ele>
        <time>2026-09-03T06:40:55Z</time>
      </trkpt>
      <trkpt lat="44.72136" lon="7.04826">
        <ele>2638.1</ele>
        <time>2026-09-03T06:41:00Z</time>
      </trkpt>
      <trkpt lat="44.72136" lon="7.04826">
        <ele>2638.1</ele>
        <time>2026-09-03T06:41:06Z</time>
      </trkpt>
      <trkpt lat="44.72136" lon="7.04826">
        <ele>2638.1</ele>
        <time>2026-09-03T06:41:11Z</time>
      </trkpt>
      <trkpt lat="44.72136" lon="7.04826">
        <ele>2638.1</ele>
        <time>2026-09-03T06:41:16Z</time>
      </trkpt>
      <trkpt lat="44.72136" lon="7.04826">
        <ele>2638.1</ele>
        <time>2026-09-03T06:41:22Z</time>
      </trkpt>
      <trkpt lat="44.72136" lon="7.04826">
        <ele>2638.1</ele>
        <time>2026-09-03T06:41:27Z</time>
      </trkpt>
      <trkpt lat="44.72136" lon="7.04826">
        <ele>2638.1</ele>
        <time>2026-09-03T06:41:32Z</time>
      </trkpt>
      <trkpt lat="44.72129" lon="7.04836">
        <ele>2641.2</ele>
        <time>2026-09-03T06:41:38Z</time>
      </trkpt>
      <trkpt lat="44.72129" lon="7.04836">
        <ele>2641.2</ele>
        <time>2026-09-03T06:41:43Z</time>
      </trkpt>
      <trkpt lat="44.72129" lon="7.04836">
        <ele>2641.2</ele>
        <time>2026-09-03T06:41:48Z</time>
      </trkpt>
      <trkpt lat="44.72129" lon="7.04836">
        <ele>2641.2</ele>
        <time>2026-09-03T06:41:54Z</time>
      </trkpt>
      <trkpt lat="44.72124" lon="7.04841">
        <ele>2642.6</ele>
        <time>2026-09-03T06:41:59Z</time>
      </trkpt>
      <trkpt lat="44.7212" lon="7.04841">
        <ele>2644.7</ele>
        <time>2026-09-03T06:42:04Z</time>
      </trkpt>
      <trkpt lat="44.72117" lon="7.04842">
        <ele>2646.1</ele>
        <time>2026-09-03T06:42:10Z</time>
      </trkpt>
      <trkpt lat="44.72116" lon="7.04845">
        <ele>2645.8</ele>
        <time>2026-09-03T06:42:15Z</time>
      </trkpt>
      <trkpt lat="44.72116" lon="7.04849">
        <ele>2644.8</ele>
        <time>2026-09-03T06:42:20Z</time>
      </trkpt>
      <trkpt lat="44.72114" lon="7.04855">
        <ele>2644.4</ele>
        <time>2026-09-03T06:42:26Z</time>
      </trkpt>
      <trkpt lat="44.72112" lon="7.04856">
        <ele>2645.2</ele>
        <time>2026-09-03T06:42:31Z</time>
      </trkpt>
      <trkpt lat="44.7211" lon="7.04856">
        <ele>2646.3</ele>
        <time>2026-09-03T06:42:36Z</time>
      </trkpt>
      <trkpt lat="44.7211" lon="7.04856">
        <ele>2646.3</ele>
        <time>2026-09-03T06:42:42Z</time>
      </trkpt>
      <trkpt lat="44.7211" lon="7.04856">
        <ele>2646.3</ele>
        <time>2026-09-03T06:42:47Z</time>
      </trkpt>
      <trkpt lat="44.7211" lon="7.04856">
        <ele>2646.3</ele>
        <time>2026-09-03T06:42:52Z</time>
      </trkpt>
      <trkpt lat="44.7211" lon="7.04856">
        <ele>2646.3</ele>
        <time>2026-09-03T06:42:58Z</time>
      </trkpt>
      <trkpt lat="44.72103" lon="7.04856">
        <ele>2650</ele>
        <time>2026-09-03T06:43:03Z</time>
      </trkpt>
      <trkpt lat="44.72103" lon="7.04856">
        <ele>2650</ele>
        <time>2026-09-03T06:43:08Z</time>
      </trkpt>
      <trkpt lat="44.72103" lon="7.04856">
        <ele>2650</ele>
        <time>2026-09-03T06:43:14Z</time>
      </trkpt>
      <trkpt lat="44.72103" lon="7.04856">
        <ele>2650</ele>
        <time>2026-09-03T06:43:19Z</time>
      </trkpt>
      <trkpt lat="44.72102" lon="7.04864">
        <ele>2648.6</ele>
        <time>2026-09-03T06:43:24Z</time>
      </trkpt>
      <trkpt lat="44.721" lon="7.04866">
        <ele>2649.2</ele>
        <time>2026-09-03T06:43:30Z</time>
      </trkpt>
      <trkpt lat="44.72099" lon="7.04866">
        <ele>2649.7</ele>
        <time>2026-09-03T06:43:35Z</time>
      </trkpt>
      <trkpt lat="44.72099" lon="7.04866">
        <ele>2649.7</ele>
        <time>2026-09-03T06:43:40Z</time>
      </trkpt>
      <trkpt lat="44.72099" lon="7.04866">
        <ele>2649.7</ele>
        <time>2026-09-03T06:43:46Z</time>
      </trkpt>
      <trkpt lat="44.72096" lon="7.04869">
        <ele>2650.6</ele>
        <time>2026-09-03T06:43:51Z</time>
      </trkpt>
      <trkpt lat="44.72093" lon="7.04869">
        <ele>2652.2</ele>
        <time>2026-09-03T06:43:56Z</time>
      </trkpt>
      <trkpt lat="44.72092" lon="7.04873">
        <ele>2651.8</ele>
        <time>2026-09-03T06:44:02Z</time>
      </trkpt>
      <trkpt lat="44.7209" lon="7.04876">
        <ele>2652.2</ele>
        <time>2026-09-03T06:44:07Z</time>
      </trkpt>
      <trkpt lat="44.72089" lon="7.04876">
        <ele>2652.7</ele>
        <time>2026-09-03T06:44:12Z</time>
      </trkpt>
      <trkpt lat="44.72089" lon="7.04876">
        <ele>2652.7</ele>
        <time>2026-09-03T06:44:18Z</time>
      </trkpt>
      <trkpt lat="44.72089" lon="7.04876">
        <ele>2652.7</ele>
        <time>2026-09-03T06:44:23Z</time>
      </trkpt>
      <trkpt lat="44.72089" lon="7.04876">
        <ele>2652.7</ele>
        <time>2026-09-03T06:44:28Z</time>
      </trkpt>
      <trkpt lat="44.72089" lon="7.04876">
        <ele>2652.7</ele>
        <time>2026-09-03T06:44:34Z</time>
      </trkpt>
      <trkpt lat="44.72089" lon="7.04876">
        <ele>2652.7</ele>
        <time>2026-09-03T06:44:39Z</time>
      </trkpt>
      <trkpt lat="44.72089" lon="7.04876">
        <ele>2652.7</ele>
        <time>2026-09-03T06:44:44Z</time>
      </trkpt>
      <trkpt lat="44.72089" lon="7.04876">
        <ele>2652.7</ele>
        <time>2026-09-03T06:44:50Z</time>
      </trkpt>
      <trkpt lat="44.72089" lon="7.04876">
        <ele>2652.7</ele>
        <time>2026-09-03T06:44:55Z</time>
      </trkpt>
      <trkpt lat="44.72089" lon="7.04876">
        <ele>2652.7</ele>
        <time>2026-09-03T06:45:00Z</time>
      </trkpt>
      <trkpt lat="44.72082" lon="7.04881">
        <ele>2655.5</ele>
        <time>2026-09-03T06:45:06Z</time>
      </trkpt>
      <trkpt lat="44.72079" lon="7.04882">
        <ele>2657.3</ele>
        <time>2026-09-03T06:45:11Z</time>
      </trkpt>
      <trkpt lat="44.72078" lon="7.04885">
        <ele>2657.4</ele>
        <time>2026-09-03T06:45:16Z</time>
      </trkpt>
      <trkpt lat="44.72077" lon="7.04888">
        <ele>2657.5</ele>
        <time>2026-09-03T06:45:22Z</time>
      </trkpt>
      <trkpt lat="44.72076" lon="7.04887">
        <ele>2658.4</ele>
        <time>2026-09-03T06:45:27Z</time>
      </trkpt>
      <trkpt lat="44.72075" lon="7.04887">
        <ele>2659.1</ele>
        <time>2026-09-03T06:45:32Z</time>
      </trkpt>
      <trkpt lat="44.72075" lon="7.04887">
        <ele>2659.1</ele>
        <time>2026-09-03T06:45:38Z</time>
      </trkpt>
      <trkpt lat="44.72075" lon="7.04887">
        <ele>2659.1</ele>
        <time>2026-09-03T06:45:43Z</time>
      </trkpt>
      <trkpt lat="44.72075" lon="7.04887">
        <ele>2659.1</ele>
        <time>2026-09-03T06:45:48Z</time>
      </trkpt>
      <trkpt lat="44.72075" lon="7.04887">
        <ele>2659.1</ele>
        <time>2026-09-03T06:45:54Z</time>
      </trkpt>
      <trkpt lat="44.72075" lon="7.04887">
        <ele>2659.1</ele>
        <time>2026-09-03T06:45:59Z</time>
      </trkpt>
      <trkpt lat="44.72075" lon="7.04887">
        <ele>2659.1</ele>
        <time>2026-09-03T06:46:04Z</time>
      </trkpt>
      <trkpt lat="44.72067" lon="7.04895">
        <ele>2663.5</ele>
        <time>2026-09-03T06:46:10Z</time>
      </trkpt>
      <trkpt lat="44.72065" lon="7.04897">
        <ele>2664.7</ele>
        <time>2026-09-03T06:46:15Z</time>
      </trkpt>
      <trkpt lat="44.72063" lon="7.04898">
        <ele>2666.1</ele>
        <time>2026-09-03T06:46:20Z</time>
      </trkpt>
      <trkpt lat="44.72063" lon="7.04898">
        <ele>2666.1</ele>
        <time>2026-09-03T06:46:26Z</time>
      </trkpt>
      <trkpt lat="44.72063" lon="7.04898">
        <ele>2666.1</ele>
        <time>2026-09-03T06:46:31Z</time>
      </trkpt>
      <trkpt lat="44.72063" lon="7.04898">
        <ele>2666.1</ele>
        <time>2026-09-03T06:46:36Z</time>
      </trkpt>
      <trkpt lat="44.72059" lon="7.04902">
        <ele>2668.7</ele>
        <time>2026-09-03T06:46:42Z</time>
      </trkpt>
      <trkpt lat="44.72058" lon="7.04904">
        <ele>2669.2</ele>
        <time>2026-09-03T06:46:47Z</time>
      </trkpt>
      <trkpt lat="44.72057" lon="7.04904">
        <ele>2670</ele>
        <time>2026-09-03T06:46:52Z</time>
      </trkpt>
      <trkpt lat="44.72053" lon="7.04908">
        <ele>2672.8</ele>
        <time>2026-09-03T06:46:58Z</time>
      </trkpt>
      <trkpt lat="44.72051" lon="7.0491">
        <ele>2674.2</ele>
        <time>2026-09-03T06:47:03Z</time>
      </trkpt>
      <trkpt lat="44.7205" lon="7.04913">
        <ele>2674.7</ele>
        <time>2026-09-03T06:47:08Z</time>
      </trkpt>
      <trkpt lat="44.7205" lon="7.04914">
        <ele>2674.6</ele>
        <time>2026-09-03T06:47:14Z</time>
      </trkpt>
      <trkpt lat="44.72048" lon="7.04918">
        <ele>2675.7</ele>
        <time>2026-09-03T06:47:19Z</time>
      </trkpt>
      <trkpt lat="44.72047" lon="7.04918">
        <ele>2676.6</ele>
        <time>2026-09-03T06:47:24Z</time>
      </trkpt>
      <trkpt lat="44.72047" lon="7.04918">
        <ele>2676.6</ele>
        <time>2026-09-03T06:47:30Z</time>
      </trkpt>
      <trkpt lat="44.72047" lon="7.04918">
        <ele>2676.6</ele>
        <time>2026-09-03T06:47:35Z</time>
      </trkpt>
      <trkpt lat="44.72042" lon="7.0492">
        <ele>2680.2</ele>
        <time>2026-09-03T06:47:40Z</time>
      </trkpt>
      <trkpt lat="44.72039" lon="7.04922">
        <ele>2682.2</ele>
        <time>2026-09-03T06:47:46Z</time>
      </trkpt>
      <trkpt lat="44.72038" lon="7.04925">
        <ele>2682.1</ele>
        <time>2026-09-03T06:47:51Z</time>
      </trkpt>
      <trkpt lat="44.72037" lon="7.0493">
        <ele>2681.5</ele>
        <time>2026-09-03T06:47:56Z</time>
      </trkpt>
      <trkpt lat="44.72035" lon="7.04934">
        <ele>2682</ele>
        <time>2026-09-03T06:48:02Z</time>
      </trkpt>
      <trkpt lat="44.72033" lon="7.04938">
        <ele>2682.4</ele>
        <time>2026-09-03T06:48:07Z</time>
      </trkpt>
      <trkpt lat="44.7203" lon="7.0494">
        <ele>2684.3</ele>
        <time>2026-09-03T06:48:12Z</time>
      </trkpt>
      <trkpt lat="44.72028" lon="7.04942">
        <ele>2685.3</ele>
        <time>2026-09-03T06:48:18Z</time>
      </trkpt>
      <trkpt lat="44.72027" lon="7.04946">
        <ele>2684.9</ele>
        <time>2026-09-03T06:48:23Z</time>
      </trkpt>
      <trkpt lat="44.72025" lon="7.0495">
        <ele>2685.3</ele>
        <time>2026-09-03T06:48:28Z</time>
      </trkpt>
      <trkpt lat="44.72023" lon="7.04955">
        <ele>2685.4</ele>
        <time>2026-09-03T06:48:34Z</time>
      </trkpt>
      <trkpt lat="44.72021" lon="7.04958">
        <ele>2686.1</ele>
        <time>2026-09-03T06:48:39Z</time>
      </trkpt>
      <trkpt lat="44.72018" lon="7.0496">
        <ele>2687.9</ele>
        <time>2026-09-03T06:48:44Z</time>
      </trkpt>
      <trkpt lat="44.72015" lon="7.04962">
        <ele>2689.7</ele>
        <time>2026-09-03T06:48:50Z</time>
      </trkpt>
      <trkpt lat="44.72012" lon="7.04963">
        <ele>2691.8</ele>
        <time>2026-09-03T06:48:55Z</time>
      </trkpt>
      <trkpt lat="44.72011" lon="7.04967">
        <ele>2691.3</ele>
        <time>2026-09-03T06:49:00Z</time>
      </trkpt>
      <trkpt lat="44.7201" lon="7.04974">
        <ele>2689.8</ele>
        <time>2026-09-03T06:49:06Z</time>
      </trkpt>
      <trkpt lat="44.72009" lon="7.04979">
        <ele>2689</ele>
        <time>2026-09-03T06:49:11Z</time>
      </trkpt>
      <trkpt lat="44.72009" lon="7.04982">
        <ele>2688</ele>
        <time>2026-09-03T06:49:16Z</time>
      </trkpt>
      <trkpt lat="44.72009" lon="7.04982">
        <ele>2688</ele>
        <time>2026-09-03T06:49:22Z</time>
      </trkpt>
      <trkpt lat="44.72006" lon="7.04987">
        <ele>2688.7</ele>
        <time>2026-09-03T06:49:27Z</time>
      </trkpt>
      <trkpt lat="44.72007" lon="7.04991">
        <ele>2686.6</ele>
        <time>2026-09-03T06:49:32Z</time>
      </trkpt>
      <trkpt lat="44.72007" lon="7.04997">
        <ele>2684.6</ele>
        <time>2026-09-03T06:49:38Z</time>
      </trkpt>
      <trkpt lat="44.72007" lon="7.05001">
        <ele>2683.3</ele>
        <time>2026-09-03T06:49:43Z</time>
      </trkpt>
      <trkpt lat="44.72006" lon="7.05004">
        <ele>2683.2</ele>
        <time>2026-09-03T06:49:48Z</time>
      </trkpt>
      <trkpt lat="44.72004" lon="7.05007">
        <ele>2683.9</ele>
        <time>2026-09-03T06:49:54Z</time>
      </trkpt>
      <trkpt lat="44.72002" lon="7.05008">
        <ele>2685</ele>
        <time>2026-09-03T06:49:59Z</time>
      </trkpt>
      <trkpt lat="44.71999" lon="7.0501">
        <ele>2686.7</ele>
        <time>2026-09-03T06:50:04Z</time>
      </trkpt>
      <trkpt lat="44.71998" lon="7.05012">
        <ele>2686.8</ele>
        <time>2026-09-03T06:50:10Z</time>
      </trkpt>
      <trkpt lat="44.71997" lon="7.05016">
        <ele>2686.3</ele>
        <time>2026-09-03T06:50:15Z</time>
      </trkpt>
      <trkpt lat="44.71997" lon="7.05017">
        <ele>2686</ele>
        <time>2026-09-03T06:50:20Z</time>
      </trkpt>
      <trkpt lat="44.71997" lon="7.05017">
        <ele>2686</ele>
        <time>2026-09-03T06:50:26Z</time>
      </trkpt>
      <trkpt lat="44.71997" lon="7.05017">
        <ele>2686</ele>
        <time>2026-09-03T06:50:31Z</time>
      </trkpt>
      <trkpt lat="44.71997" lon="7.05017">
        <ele>2686</ele>
        <time>2026-09-03T06:50:36Z</time>
      </trkpt>
      <trkpt lat="44.71997" lon="7.05017">
        <ele>2686</ele>
        <time>2026-09-03T06:50:42Z</time>
      </trkpt>
      <trkpt lat="44.71992" lon="7.05028">
        <ele>2686.2</ele>
        <time>2026-09-03T06:50:47Z</time>
      </trkpt>
      <trkpt lat="44.71992" lon="7.05028">
        <ele>2686.2</ele>
        <time>2026-09-03T06:50:52Z</time>
      </trkpt>
      <trkpt lat="44.71992" lon="7.05028">
        <ele>2686.2</ele>
        <time>2026-09-03T06:50:58Z</time>
      </trkpt>
      <trkpt lat="44.71992" lon="7.05028">
        <ele>2686.2</ele>
        <time>2026-09-03T06:51:03Z</time>
      </trkpt>
      <trkpt lat="44.71992" lon="7.05028">
        <ele>2686.2</ele>
        <time>2026-09-03T06:51:08Z</time>
      </trkpt>
      <trkpt lat="44.71992" lon="7.05028">
        <ele>2686.2</ele>
        <time>2026-09-03T06:51:14Z</time>
      </trkpt>
      <trkpt lat="44.71992" lon="7.05028">
        <ele>2686.2</ele>
        <time>2026-09-03T06:51:19Z</time>
      </trkpt>
      <trkpt lat="44.71992" lon="7.05028">
        <ele>2686.2</ele>
        <time>2026-09-03T06:51:24Z</time>
      </trkpt>
      <trkpt lat="44.71988" lon="7.05033">
        <ele>2687.5</ele>
        <time>2026-09-03T06:51:30Z</time>
      </trkpt>
      <trkpt lat="44.71985" lon="7.05033">
        <ele>2689.7</ele>
        <time>2026-09-03T06:51:35Z</time>
      </trkpt>
      <trkpt lat="44.71984" lon="7.05036">
        <ele>2689.4</ele>
        <time>2026-09-03T06:51:40Z</time>
      </trkpt>
      <trkpt lat="44.71982" lon="7.05041">
        <ele>2689.1</ele>
        <time>2026-09-03T06:51:46Z</time>
      </trkpt>
      <trkpt lat="44.71981" lon="7.05043">
        <ele>2689.1</ele>
        <time>2026-09-03T06:51:51Z</time>
      </trkpt>
      <trkpt lat="44.71979" lon="7.05045">
        <ele>2689.8</ele>
        <time>2026-09-03T06:51:56Z</time>
      </trkpt>
      <trkpt lat="44.71977" lon="7.05048">
        <ele>2690.2</ele>
        <time>2026-09-03T06:52:02Z</time>
      </trkpt>
      <trkpt lat="44.71978" lon="7.05051">
        <ele>2688.4</ele>
        <time>2026-09-03T06:52:07Z</time>
      </trkpt>
      <trkpt lat="44.71978" lon="7.05055">
        <ele>2687</ele>
        <time>2026-09-03T06:52:12Z</time>
      </trkpt>
      <trkpt lat="44.71978" lon="7.05058">
        <ele>2685.9</ele>
        <time>2026-09-03T06:52:18Z</time>
      </trkpt>
      <trkpt lat="44.71976" lon="7.05061">
        <ele>2686.2</ele>
        <time>2026-09-03T06:52:23Z</time>
      </trkpt>
      <trkpt lat="44.71975" lon="7.0506">
        <ele>2687.3</ele>
        <time>2026-09-03T06:52:28Z</time>
      </trkpt>
      <trkpt lat="44.71974" lon="7.05061">
        <ele>2687.6</ele>
        <time>2026-09-03T06:52:34Z</time>
      </trkpt>
      <trkpt lat="44.71974" lon="7.05061">
        <ele>2687.6</ele>
        <time>2026-09-03T06:52:39Z</time>
      </trkpt>
      <trkpt lat="44.71974" lon="7.05061">
        <ele>2687.6</ele>
        <time>2026-09-03T06:52:44Z</time>
      </trkpt>
      <trkpt lat="44.71974" lon="7.05061">
        <ele>2687.6</ele>
        <time>2026-09-03T06:52:50Z</time>
      </trkpt>
      <trkpt lat="44.71974" lon="7.05061">
        <ele>2687.6</ele>
        <time>2026-09-03T06:52:55Z</time>
      </trkpt>
      <trkpt lat="44.71974" lon="7.05061">
        <ele>2687.6</ele>
        <time>2026-09-03T06:53:00Z</time>
      </trkpt>
      <trkpt lat="44.71974" lon="7.05061">
        <ele>2687.6</ele>
        <time>2026-09-03T06:53:06Z</time>
      </trkpt>
      <trkpt lat="44.71972" lon="7.05063">
        <ele>2688.2</ele>
        <time>2026-09-03T06:53:11Z</time>
      </trkpt>
      <trkpt lat="44.71971" lon="7.05065">
        <ele>2688.2</ele>
        <time>2026-09-03T06:53:16Z</time>
      </trkpt>
      <trkpt lat="44.71967" lon="7.0507">
        <ele>2689</ele>
        <time>2026-09-03T06:53:22Z</time>
      </trkpt>
      <trkpt lat="44.71964" lon="7.05077">
        <ele>2688.3</ele>
        <time>2026-09-03T06:53:27Z</time>
      </trkpt>
      <trkpt lat="44.71962" lon="7.0508">
        <ele>2688.4</ele>
        <time>2026-09-03T06:53:32Z</time>
      </trkpt>
      <trkpt lat="44.71961" lon="7.05086">
        <ele>2687.5</ele>
        <time>2026-09-03T06:53:38Z</time>
      </trkpt>
      <trkpt lat="44.71962" lon="7.05089">
        <ele>2686.6</ele>
        <time>2026-09-03T06:53:43Z</time>
      </trkpt>
      <trkpt lat="44.71962" lon="7.05091">
        <ele>2686.4</ele>
        <time>2026-09-03T06:53:48Z</time>
      </trkpt>
      <trkpt lat="44.71962" lon="7.05092">
        <ele>2686.3</ele>
        <time>2026-09-03T06:53:54Z</time>
      </trkpt>
      <trkpt lat="44.71962" lon="7.05092">
        <ele>2686.3</ele>
        <time>2026-09-03T06:53:59Z</time>
      </trkpt>
      <trkpt lat="44.71962" lon="7.05099">
        <ele>2685.6</ele>
        <time>2026-09-03T06:54:04Z</time>
      </trkpt>
      <trkpt lat="44.71963" lon="7.05102">
        <ele>2684.6</ele>
        <time>2026-09-03T06:54:10Z</time>
      </trkpt>
      <trkpt lat="44.71963" lon="7.05105">
        <ele>2684.3</ele>
        <time>2026-09-03T06:54:15Z</time>
      </trkpt>
      <trkpt lat="44.71966" lon="7.05109">
        <ele>2682.1</ele>
        <time>2026-09-03T06:54:20Z</time>
      </trkpt>
      <trkpt lat="44.71966" lon="7.0511">
        <ele>2682</ele>
        <time>2026-09-03T06:54:26Z</time>
      </trkpt>
      <trkpt lat="44.71966" lon="7.05116">
        <ele>2681.5</ele>
        <time>2026-09-03T06:54:31Z</time>
      </trkpt>
      <trkpt lat="44.71966" lon="7.05116">
        <ele>2681.5</ele>
        <time>2026-09-03T06:54:36Z</time>
      </trkpt>
      <trkpt lat="44.71966" lon="7.05116">
        <ele>2681.5</ele>
        <time>2026-09-03T06:54:42Z</time>
      </trkpt>
      <trkpt lat="44.71966" lon="7.05116">
        <ele>2681.5</ele>
        <time>2026-09-03T06:54:47Z</time>
      </trkpt>
      <trkpt lat="44.71966" lon="7.05116">
        <ele>2681.5</ele>
        <time>2026-09-03T06:54:52Z</time>
      </trkpt>
      <trkpt lat="44.71966" lon="7.05116">
        <ele>2681.5</ele>
        <time>2026-09-03T06:54:58Z</time>
      </trkpt>
      <trkpt lat="44.71966" lon="7.05116">
        <ele>2681.5</ele>
        <time>2026-09-03T06:55:03Z</time>
      </trkpt>
      <trkpt lat="44.71966" lon="7.05116">
        <ele>2681.5</ele>
        <time>2026-09-03T06:55:08Z</time>
      </trkpt>
      <trkpt lat="44.71966" lon="7.05116">
        <ele>2681.5</ele>
        <time>2026-09-03T06:55:14Z</time>
      </trkpt>
      <trkpt lat="44.71957" lon="7.05124">
        <ele>2685.9</ele>
        <time>2026-09-03T06:55:19Z</time>
      </trkpt>
      <trkpt lat="44.71957" lon="7.05126">
        <ele>2685.7</ele>
        <time>2026-09-03T06:55:24Z</time>
      </trkpt>
      <trkpt lat="44.71953" lon="7.0513">
        <ele>2687.5</ele>
        <time>2026-09-03T06:55:30Z</time>
      </trkpt>
      <trkpt lat="44.71952" lon="7.05134">
        <ele>2687.6</ele>
        <time>2026-09-03T06:55:35Z</time>
      </trkpt>
      <trkpt lat="44.71951" lon="7.05137">
        <ele>2687.8</ele>
        <time>2026-09-03T06:55:40Z</time>
      </trkpt>
      <trkpt lat="44.71952" lon="7.05138">
        <ele>2687.1</ele>
        <time>2026-09-03T06:55:46Z</time>
      </trkpt>
      <trkpt lat="44.71952" lon="7.05138">
        <ele>2687.1</ele>
        <time>2026-09-03T06:55:51Z</time>
      </trkpt>
      <trkpt lat="44.71952" lon="7.05138">
        <ele>2687.1</ele>
        <time>2026-09-03T06:55:56Z</time>
      </trkpt>
      <trkpt lat="44.71952" lon="7.05138">
        <ele>2687.1</ele>
        <time>2026-09-03T06:56:02Z</time>
      </trkpt>
      <trkpt lat="44.71952" lon="7.05138">
        <ele>2687.1</ele>
        <time>2026-09-03T06:56:07Z</time>
      </trkpt>
      <trkpt lat="44.71952" lon="7.05138">
        <ele>2687.1</ele>
        <time>2026-09-03T06:56:12Z</time>
      </trkpt>
      <trkpt lat="44.71952" lon="7.05138">
        <ele>2687.1</ele>
        <time>2026-09-03T06:56:18Z</time>
      </trkpt>
      <trkpt lat="44.71952" lon="7.05138">
        <ele>2687.1</ele>
        <time>2026-09-03T06:56:23Z</time>
      </trkpt>
      <trkpt lat="44.71952" lon="7.05138">
        <ele>2687.1</ele>
        <time>2026-09-03T06:56:28Z</time>
      </trkpt>
      <trkpt lat="44.71947" lon="7.05153">
        <ele>2688</ele>
        <time>2026-09-03T06:56:34Z</time>
      </trkpt>
      <trkpt lat="44.71948" lon="7.05157">
        <ele>2687</ele>
        <time>2026-09-03T06:56:39Z</time>
      </trkpt>
      <trkpt lat="44.71949" lon="7.0516">
        <ele>2686.1</ele>
        <time>2026-09-03T06:56:44Z</time>
      </trkpt>
      <trkpt lat="44.71949" lon="7.05162">
        <ele>2685.9</ele>
        <time>2026-09-03T06:56:50Z</time>
      </trkpt>
      <trkpt lat="44.71949" lon="7.05162">
        <ele>2685.9</ele>
        <time>2026-09-03T06:56:55Z</time>
      </trkpt>
      <trkpt lat="44.71949" lon="7.05162">
        <ele>2685.9</ele>
        <time>2026-09-03T06:57:00Z</time>
      </trkpt>
      <trkpt lat="44.71949" lon="7.05162">
        <ele>2685.9</ele>
        <time>2026-09-03T06:57:06Z</time>
      </trkpt>
      <trkpt lat="44.71949" lon="7.05162">
        <ele>2685.9</ele>
        <time>2026-09-03T06:57:11Z</time>
      </trkpt>
      <trkpt lat="44.71949" lon="7.05162">
        <ele>2685.9</ele>
        <time>2026-09-03T06:57:16Z</time>
      </trkpt>
      <trkpt lat="44.71943" lon="7.05177">
        <ele>2688.4</ele>
        <time>2026-09-03T06:57:22Z</time>
      </trkpt>
      <trkpt lat="44.71941" lon="7.05178">
        <ele>2689.4</ele>
        <time>2026-09-03T06:57:27Z</time>
      </trkpt>
      <trkpt lat="44.71937" lon="7.05178">
        <ele>2691.3</ele>
        <time>2026-09-03T06:57:32Z</time>
      </trkpt>
      <trkpt lat="44.71936" lon="7.05179">
        <ele>2691.8</ele>
        <time>2026-09-03T06:57:38Z</time>
      </trkpt>
      <trkpt lat="44.71936" lon="7.05179">
        <ele>2691.8</ele>
        <time>2026-09-03T06:57:43Z</time>
      </trkpt>
      <trkpt lat="44.71936" lon="7.05179">
        <ele>2691.8</ele>
        <time>2026-09-03T06:57:48Z</time>
      </trkpt>
      <trkpt lat="44.71936" lon="7.05179">
        <ele>2691.8</ele>
        <time>2026-09-03T06:57:54Z</time>
      </trkpt>
      <trkpt lat="44.71936" lon="7.05179">
        <ele>2691.8</ele>
        <time>2026-09-03T06:57:59Z</time>
      </trkpt>
      <trkpt lat="44.71936" lon="7.05179">
        <ele>2691.8</ele>
        <time>2026-09-03T06:58:04Z</time>
      </trkpt>
      <trkpt lat="44.71936" lon="7.05179">
        <ele>2691.8</ele>
        <time>2026-09-03T06:58:10Z</time>
      </trkpt>
      <trkpt lat="44.71936" lon="7.05179">
        <ele>2691.8</ele>
        <time>2026-09-03T06:58:15Z</time>
      </trkpt>
      <trkpt lat="44.71936" lon="7.05179">
        <ele>2691.8</ele>
        <time>2026-09-03T06:58:20Z</time>
      </trkpt>
      <trkpt lat="44.71938" lon="7.05182">
        <ele>2690.8</ele>
        <time>2026-09-03T06:58:26Z</time>
      </trkpt>
      <trkpt lat="44.71936" lon="7.05185">
        <ele>2691.7</ele>
        <time>2026-09-03T06:58:31Z</time>
      </trkpt>
      <trkpt lat="44.71935" lon="7.05189">
        <ele>2692.1</ele>
        <time>2026-09-03T06:58:36Z</time>
      </trkpt>
      <trkpt lat="44.71934" lon="7.05192">
        <ele>2692.4</ele>
        <time>2026-09-03T06:58:42Z</time>
      </trkpt>
      <trkpt lat="44.7193" lon="7.05192">
        <ele>2694.2</ele>
        <time>2026-09-03T06:58:47Z</time>
      </trkpt>
      <trkpt lat="44.71927" lon="7.05193">
        <ele>2695.5</ele>
        <time>2026-09-03T06:58:52Z</time>
      </trkpt>
      <trkpt lat="44.71923" lon="7.05197">
        <ele>2697.1</ele>
        <time>2026-09-03T06:58:58Z</time>
      </trkpt>
      <trkpt lat="44.71924" lon="7.05201">
        <ele>2696.4</ele>
        <time>2026-09-03T06:59:03Z</time>
      </trkpt>
      <trkpt lat="44.71923" lon="7.05204">
        <ele>2696.7</ele>
        <time>2026-09-03T06:59:08Z</time>
      </trkpt>
      <trkpt lat="44.7192" lon="7.05206">
        <ele>2697.8</ele>
        <time>2026-09-03T06:59:14Z</time>
      </trkpt>
      <trkpt lat="44.7192" lon="7.05208">
        <ele>2697.7</ele>
        <time>2026-09-03T06:59:19Z</time>
      </trkpt>
      <trkpt lat="44.71921" lon="7.05209">
        <ele>2697.2</ele>
        <time>2026-09-03T06:59:24Z</time>
      </trkpt>
      <trkpt lat="44.71921" lon="7.05209">
        <ele>2697.2</ele>
        <time>2026-09-03T06:59:30Z</time>
      </trkpt>
      <trkpt lat="44.71921" lon="7.05209">
        <ele>2697.2</ele>
        <time>2026-09-03T06:59:35Z</time>
      </trkpt>
      <trkpt lat="44.71921" lon="7.05209">
        <ele>2697.2</ele>
        <time>2026-09-03T06:59:40Z</time>
      </trkpt>
      <trkpt lat="44.71921" lon="7.05209">
        <ele>2697.2</ele>
        <time>2026-09-03T06:59:46Z</time>
      </trkpt>
      <trkpt lat="44.71921" lon="7.05209">
        <ele>2697.2</ele>
        <time>2026-09-03T06:59:51Z</time>
      </trkpt>
      <trkpt lat="44.7191" lon="7.05218">
        <ele>2701.3</ele>
        <time>2026-09-03T06:59:56Z</time>
      </trkpt>
      <trkpt lat="44.7191" lon="7.05218">
        <ele>2701.3</ele>
        <time>2026-09-03T07:00:02Z</time>
      </trkpt>
      <trkpt lat="44.7191" lon="7.05218">
        <ele>2701.3</ele>
        <time>2026-09-03T07:00:07Z</time>
      </trkpt>
      <trkpt lat="44.7191" lon="7.05218">
        <ele>2701.3</ele>
        <time>2026-09-03T07:00:12Z</time>
      </trkpt>
      <trkpt lat="44.7191" lon="7.05218">
        <ele>2701.3</ele>
        <time>2026-09-03T07:00:18Z</time>
      </trkpt>
      <trkpt lat="44.7191" lon="7.05218">
        <ele>2701.3</ele>
        <time>2026-09-03T07:00:23Z</time>
      </trkpt>
      <trkpt lat="44.7191" lon="7.05218">
        <ele>2701.3</ele>
        <time>2026-09-03T07:00:28Z</time>
      </trkpt>
      <trkpt lat="44.7191" lon="7.05218">
        <ele>2701.3</ele>
        <time>2026-09-03T07:00:34Z</time>
      </trkpt>
      <trkpt lat="44.71907" lon="7.05227">
        <ele>2701.9</ele>
        <time>2026-09-03T07:00:39Z</time>
      </trkpt>
      <trkpt lat="44.71902" lon="7.05226">
        <ele>2704.2</ele>
        <time>2026-09-03T07:00:44Z</time>
      </trkpt>
      <trkpt lat="44.71902" lon="7.0523">
        <ele>2704</ele>
        <time>2026-09-03T07:00:50Z</time>
      </trkpt>
      <trkpt lat="44.71902" lon="7.05232">
        <ele>2703.8</ele>
        <time>2026-09-03T07:00:55Z</time>
      </trkpt>
      <trkpt lat="44.719" lon="7.05233">
        <ele>2704.6</ele>
        <time>2026-09-03T07:01:00Z</time>
      </trkpt>
      <trkpt lat="44.71897" lon="7.05236">
        <ele>2705.7</ele>
        <time>2026-09-03T07:01:06Z</time>
      </trkpt>
      <trkpt lat="44.71895" lon="7.05238">
        <ele>2706.5</ele>
        <time>2026-09-03T07:01:11Z</time>
      </trkpt>
      <trkpt lat="44.71895" lon="7.05238">
        <ele>2706.5</ele>
        <time>2026-09-03T07:01:16Z</time>
      </trkpt>
      <trkpt lat="44.71895" lon="7.05238">
        <ele>2706.5</ele>
        <time>2026-09-03T07:01:22Z</time>
      </trkpt>
      <trkpt lat="44.71895" lon="7.05238">
        <ele>2706.5</ele>
        <time>2026-09-03T07:01:27Z</time>
      </trkpt>
      <trkpt lat="44.71895" lon="7.05238">
        <ele>2706.5</ele>
        <time>2026-09-03T07:01:32Z</time>
      </trkpt>
      <trkpt lat="44.71895" lon="7.05238">
        <ele>2706.5</ele>
        <time>2026-09-03T07:01:38Z</time>
      </trkpt>
      <trkpt lat="44.71895" lon="7.05238">
        <ele>2706.5</ele>
        <time>2026-09-03T07:01:43Z</time>
      </trkpt>
      <trkpt lat="44.71895" lon="7.05238">
        <ele>2706.5</ele>
        <time>2026-09-03T07:01:48Z</time>
      </trkpt>
      <trkpt lat="44.71895" lon="7.05238">
        <ele>2706.5</ele>
        <time>2026-09-03T07:01:54Z</time>
      </trkpt>
      <trkpt lat="44.71895" lon="7.05238">
        <ele>2706.5</ele>
        <time>2026-09-03T07:01:59Z</time>
      </trkpt>
      <trkpt lat="44.71895" lon="7.05238">
        <ele>2706.5</ele>
        <time>2026-09-03T07:02:04Z</time>
      </trkpt>
      <trkpt lat="44.71889" lon="7.05249">
        <ele>2708.4</ele>
        <time>2026-09-03T07:02:10Z</time>
      </trkpt>
      <trkpt lat="44.71889" lon="7.05249">
        <ele>2708.4</ele>
        <time>2026-09-03T07:02:15Z</time>
      </trkpt>
      <trkpt lat="44.71889" lon="7.05249">
        <ele>2708.4</ele>
        <time>2026-09-03T07:02:20Z</time>
      </trkpt>
      <trkpt lat="44.71889" lon="7.05249">
        <ele>2708.4</ele>
        <time>2026-09-03T07:02:26Z</time>
      </trkpt>
      <trkpt lat="44.71889" lon="7.05249">
        <ele>2708.4</ele>
        <time>2026-09-03T07:02:31Z</time>
      </trkpt>
      <trkpt lat="44.71889" lon="7.05249">
        <ele>2708.4</ele>
        <time>2026-09-03T07:02:36Z</time>
      </trkpt>
      <trkpt lat="44.71889" lon="7.05249">
        <ele>2708.4</ele>
        <time>2026-09-03T07:02:42Z</time>
      </trkpt>
      <trkpt lat="44.71889" lon="7.05249">
        <ele>2708.4</ele>
        <time>2026-09-03T07:02:47Z</time>
      </trkpt>
      <trkpt lat="44.71889" lon="7.05249">
        <ele>2708.4</ele>
        <time>2026-09-03T07:02:52Z</time>
      </trkpt>
      <trkpt lat="44.7188" lon="7.05253">
        <ele>2712.6</ele>
        <time>2026-09-03T07:02:58Z</time>
      </trkpt>
      <trkpt lat="44.71879" lon="7.05257">
        <ele>2713.5</ele>
        <time>2026-09-03T07:03:03Z</time>
      </trkpt>
      <trkpt lat="44.71879" lon="7.05257">
        <ele>2713.5</ele>
        <time>2026-09-03T07:03:08Z</time>
      </trkpt>
      <trkpt lat="44.71879" lon="7.05257">
        <ele>2713.5</ele>
        <time>2026-09-03T07:03:14Z</time>
      </trkpt>
      <trkpt lat="44.71879" lon="7.05257">
        <ele>2713.5</ele>
        <time>2026-09-03T07:03:19Z</time>
      </trkpt>
      <trkpt lat="44.71879" lon="7.05257">
        <ele>2713.5</ele>
        <time>2026-09-03T07:03:24Z</time>
      </trkpt>
      <trkpt lat="44.71879" lon="7.05257">
        <ele>2713.5</ele>
        <time>2026-09-03T07:03:30Z</time>
      </trkpt>
      <trkpt lat="44.71879" lon="7.05257">
        <ele>2713.5</ele>
        <time>2026-09-03T07:03:35Z</time>
      </trkpt>
      <trkpt lat="44.71879" lon="7.05257">
        <ele>2713.5</ele>
        <time>2026-09-03T07:03:40Z</time>
      </trkpt>
      <trkpt lat="44.71879" lon="7.05257">
        <ele>2713.5</ele>
        <time>2026-09-03T07:03:46Z</time>
      </trkpt>
      <trkpt lat="44.71879" lon="7.05257">
        <ele>2713.5</ele>
        <time>2026-09-03T07:03:51Z</time>
      </trkpt>
      <trkpt lat="44.71879" lon="7.05257">
        <ele>2713.5</ele>
        <time>2026-09-03T07:03:56Z</time>
      </trkpt>
      <trkpt lat="44.71879" lon="7.05257">
        <ele>2713.5</ele>
        <time>2026-09-03T07:04:02Z</time>
      </trkpt>
      <trkpt lat="44.71879" lon="7.0527">
        <ele>2714.9</ele>
        <time>2026-09-03T07:04:07Z</time>
      </trkpt>
      <trkpt lat="44.71879" lon="7.0527">
        <ele>2714.9</ele>
        <time>2026-09-03T07:04:12Z</time>
      </trkpt>
      <trkpt lat="44.71879" lon="7.0527">
        <ele>2714.9</ele>
        <time>2026-09-03T07:04:18Z</time>
      </trkpt>
      <trkpt lat="44.71879" lon="7.0527">
        <ele>2714.9</ele>
        <time>2026-09-03T07:04:23Z</time>
      </trkpt>
      <trkpt lat="44.71873" lon="7.0528">
        <ele>2718.6</ele>
        <time>2026-09-03T07:04:28Z</time>
      </trkpt>
      <trkpt lat="44.71873" lon="7.05281">
        <ele>2718.8</ele>
        <time>2026-09-03T07:04:34Z</time>
      </trkpt>
      <trkpt lat="44.71873" lon="7.05282">
        <ele>2718.9</ele>
        <time>2026-09-03T07:04:39Z</time>
      </trkpt>
      <trkpt lat="44.71873" lon="7.05282">
        <ele>2718.9</ele>
        <time>2026-09-03T07:04:44Z</time>
      </trkpt>
      <trkpt lat="44.71873" lon="7.05282">
        <ele>2718.9</ele>
        <time>2026-09-03T07:04:50Z</time>
      </trkpt>
      <trkpt lat="44.71873" lon="7.05282">
        <ele>2718.9</ele>
        <time>2026-09-03T07:04:55Z</time>
      </trkpt>
      <trkpt lat="44.71873" lon="7.05282">
        <ele>2718.9</ele>
        <time>2026-09-03T07:05:00Z</time>
      </trkpt>
      <trkpt lat="44.71873" lon="7.05295">
        <ele>2720.3</ele>
        <time>2026-09-03T07:05:06Z</time>
      </trkpt>
      <trkpt lat="44.71872" lon="7.05299">
        <ele>2721.2</ele>
        <time>2026-09-03T07:05:11Z</time>
      </trkpt>
      <trkpt lat="44.71869" lon="7.05301">
        <ele>2722.8</ele>
        <time>2026-09-03T07:05:16Z</time>
      </trkpt>
      <trkpt lat="44.71865" lon="7.05304">
        <ele>2724.9</ele>
        <time>2026-09-03T07:05:22Z</time>
      </trkpt>
      <trkpt lat="44.71862" lon="7.05306">
        <ele>2726.5</ele>
        <time>2026-09-03T07:05:27Z</time>
      </trkpt>
      <trkpt lat="44.71861" lon="7.05307">
        <ele>2727.1</ele>
        <time>2026-09-03T07:05:32Z</time>
      </trkpt>
      <trkpt lat="44.71861" lon="7.05307">
        <ele>2727.1</ele>
        <time>2026-09-03T07:05:38Z</time>
      </trkpt>
      <trkpt lat="44.71861" lon="7.05307">
        <ele>2727.1</ele>
        <time>2026-09-03T07:05:43Z</time>
      </trkpt>
      <trkpt lat="44.71861" lon="7.05307">
        <ele>2727.1</ele>
        <time>2026-09-03T07:05:48Z</time>
      </trkpt>
      <trkpt lat="44.71861" lon="7.05307">
        <ele>2727.1</ele>
        <time>2026-09-03T07:05:54Z</time>
      </trkpt>
      <trkpt lat="44.71861" lon="7.05307">
        <ele>2727.1</ele>
        <time>2026-09-03T07:05:59Z</time>
      </trkpt>
      <trkpt lat="44.71868" lon="7.05315">
        <ele>2724.8</ele>
        <time>2026-09-03T07:06:04Z</time>
      </trkpt>
      <trkpt lat="44.71869" lon="7.05318">
        <ele>2724.6</ele>
        <time>2026-09-03T07:06:10Z</time>
      </trkpt>
      <trkpt lat="44.71869" lon="7.05318">
        <ele>2724.6</ele>
        <time>2026-09-03T07:06:15Z</time>
      </trkpt>
      <trkpt lat="44.71869" lon="7.05318">
        <ele>2724.6</ele>
        <time>2026-09-03T07:06:20Z</time>
      </trkpt>
      <trkpt lat="44.71867" lon="7.05324">
        <ele>2726.2</ele>
        <time>2026-09-03T07:06:26Z</time>
      </trkpt>
      <trkpt lat="44.71867" lon="7.05324">
        <ele>2726.2</ele>
        <time>2026-09-03T07:06:31Z</time>
      </trkpt>
      <trkpt lat="44.71867" lon="7.05324">
        <ele>2726.2</ele>
        <time>2026-09-03T07:06:36Z</time>
      </trkpt>
      <trkpt lat="44.71867" lon="7.05324">
        <ele>2726.2</ele>
        <time>2026-09-03T07:06:42Z</time>
      </trkpt>
      <trkpt lat="44.71867" lon="7.05324">
        <ele>2726.2</ele>
        <time>2026-09-03T07:06:47Z</time>
      </trkpt>
      <trkpt lat="44.71867" lon="7.05324">
        <ele>2726.2</ele>
        <time>2026-09-03T07:06:52Z</time>
      </trkpt>
      <trkpt lat="44.71867" lon="7.05324">
        <ele>2726.2</ele>
        <time>2026-09-03T07:06:58Z</time>
      </trkpt>
      <trkpt lat="44.71867" lon="7.05324">
        <ele>2726.2</ele>
        <time>2026-09-03T07:07:03Z</time>
      </trkpt>
      <trkpt lat="44.71867" lon="7.05324">
        <ele>2726.2</ele>
        <time>2026-09-03T07:07:08Z</time>
      </trkpt>
      <trkpt lat="44.71867" lon="7.05324">
        <ele>2726.2</ele>
        <time>2026-09-03T07:07:14Z</time>
      </trkpt>
      <trkpt lat="44.71867" lon="7.05324">
        <ele>2726.2</ele>
        <time>2026-09-03T07:07:19Z</time>
      </trkpt>
      <trkpt lat="44.71867" lon="7.05324">
        <ele>2726.2</ele>
        <time>2026-09-03T07:07:24Z</time>
      </trkpt>
      <trkpt lat="44.71867" lon="7.05324">
        <ele>2726.2</ele>
        <time>2026-09-03T07:07:30Z</time>
      </trkpt>
      <trkpt lat="44.71867" lon="7.05324">
        <ele>2726.2</ele>
        <time>2026-09-03T07:07:35Z</time>
      </trkpt>
      <trkpt lat="44.71867" lon="7.05324">
        <ele>2726.2</ele>
        <time>2026-09-03T07:07:40Z</time>
      </trkpt>
      <trkpt lat="44.71867" lon="7.05324">
        <ele>2726.2</ele>
        <time>2026-09-03T07:07:46Z</time>
      </trkpt>
      <trkpt lat="44.71867" lon="7.05324">
        <ele>2726.2</ele>
        <time>2026-09-03T07:07:51Z</time>
      </trkpt>
      <trkpt lat="44.71867" lon="7.05324">
        <ele>2726.2</ele>
        <time>2026-09-03T07:07:56Z</time>
      </trkpt>
      <trkpt lat="44.71866" lon="7.05337">
        <ele>2728.3</ele>
        <time>2026-09-03T07:08:02Z</time>
      </trkpt>
      <trkpt lat="44.71866" lon="7.05338">
        <ele>2728.5</ele>
        <time>2026-09-03T07:08:07Z</time>
      </trkpt>
      <trkpt lat="44.71868" lon="7.05343">
        <ele>2728.4</ele>
        <time>2026-09-03T07:08:12Z</time>
      </trkpt>
      <trkpt lat="44.71871" lon="7.05342">
        <ele>2726.9</ele>
        <time>2026-09-03T07:08:18Z</time>
      </trkpt>
      <trkpt lat="44.71873" lon="7.05341">
        <ele>2725.8</ele>
        <time>2026-09-03T07:08:23Z</time>
      </trkpt>
      <trkpt lat="44.71874" lon="7.05339">
        <ele>2725</ele>
        <time>2026-09-03T07:08:28Z</time>
      </trkpt>
      <trkpt lat="44.71874" lon="7.05339">
        <ele>2725</ele>
        <time>2026-09-03T07:08:34Z</time>
      </trkpt>
      <trkpt lat="44.71874" lon="7.05339">
        <ele>2725</ele>
        <time>2026-09-03T07:08:39Z</time>
      </trkpt>
      <trkpt lat="44.71874" lon="7.05339">
        <ele>2725</ele>
        <time>2026-09-03T07:08:44Z</time>
      </trkpt>
      <trkpt lat="44.71874" lon="7.05339">
        <ele>2725</ele>
        <time>2026-09-03T07:08:50Z</time>
      </trkpt>
      <trkpt lat="44.71874" lon="7.05339">
        <ele>2725</ele>
        <time>2026-09-03T07:08:55Z</time>
      </trkpt>
      <trkpt lat="44.71874" lon="7.05339">
        <ele>2725</ele>
        <time>2026-09-03T07:09:00Z</time>
      </trkpt>
      <trkpt lat="44.71874" lon="7.05339">
        <ele>2725</ele>
        <time>2026-09-03T07:09:06Z</time>
      </trkpt>
      <trkpt lat="44.71874" lon="7.05339">
        <ele>2725</ele>
        <time>2026-09-03T07:09:11Z</time>
      </trkpt>
      <trkpt lat="44.71874" lon="7.05339">
        <ele>2725</ele>
        <time>2026-09-03T07:09:16Z</time>
      </trkpt>
      <trkpt lat="44.71874" lon="7.05339">
        <ele>2725</ele>
        <time>2026-09-03T07:09:22Z</time>
      </trkpt>
      <trkpt lat="44.71874" lon="7.05339">
        <ele>2725</ele>
        <time>2026-09-03T07:09:27Z</time>
      </trkpt>
      <trkpt lat="44.71874" lon="7.05339">
        <ele>2725</ele>
        <time>2026-09-03T07:09:32Z</time>
      </trkpt>
      <trkpt lat="44.71874" lon="7.05339">
        <ele>2725</ele>
        <time>2026-09-03T07:09:38Z</time>
      </trkpt>
      <trkpt lat="44.71874" lon="7.05339">
        <ele>2725</ele>
        <time>2026-09-03T07:09:43Z</time>
      </trkpt>
      <trkpt lat="44.71874" lon="7.05339">
        <ele>2725</ele>
        <time>2026-09-03T07:09:48Z</time>
      </trkpt>
      <trkpt lat="44.71874" lon="7.05339">
        <ele>2725</ele>
        <time>2026-09-03T07:09:54Z</time>
      </trkpt>
      <trkpt lat="44.71874" lon="7.05339">
        <ele>2725</ele>
        <time>2026-09-03T07:09:59Z</time>
      </trkpt>
      <trkpt lat="44.71874" lon="7.05339">
        <ele>2725</ele>
        <time>2026-09-03T07:10:04Z</time>
      </trkpt>
      <trkpt lat="44.71874" lon="7.05339">
        <ele>2725</ele>
        <time>2026-09-03T07:10:10Z</time>
      </trkpt>
      <trkpt lat="44.71874" lon="7.05339">
        <ele>2725</ele>
        <time>2026-09-03T07:10:15Z</time>
      </trkpt>
      <trkpt lat="44.71883" lon="7.0535">
        <ele>2723.3</ele>
        <time>2026-09-03T07:10:20Z</time>
      </trkpt>
      <trkpt lat="44.71887" lon="7.05354">
        <ele>2722.5</ele>
        <time>2026-09-03T07:10:26Z</time>
      </trkpt>
      <trkpt lat="44.71891" lon="7.05355">
        <ele>2721.1</ele>
        <time>2026-09-03T07:10:31Z</time>
      </trkpt>
      <trkpt lat="44.71893" lon="7.05356">
        <ele>2720.5</ele>
        <time>2026-09-03T07:10:36Z</time>
      </trkpt>
      <trkpt lat="44.71895" lon="7.05358">
        <ele>2720.2</ele>
        <time>2026-09-03T07:10:42Z</time>
      </trkpt>
      <trkpt lat="44.71896" lon="7.05357">
        <ele>2719.6</ele>
        <time>2026-09-03T07:10:47Z</time>
      </trkpt>
      <trkpt lat="44.71897" lon="7.05357">
        <ele>2719.2</ele>
        <time>2026-09-03T07:10:52Z</time>
      </trkpt>
      <trkpt lat="44.71897" lon="7.05357">
        <ele>2719.2</ele>
        <time>2026-09-03T07:10:58Z</time>
      </trkpt>
      <trkpt lat="44.71897" lon="7.05357">
        <ele>2719.2</ele>
        <time>2026-09-03T07:11:03Z</time>
      </trkpt>
      <trkpt lat="44.71897" lon="7.05357">
        <ele>2719.2</ele>
        <time>2026-09-03T07:11:08Z</time>
      </trkpt>
      <trkpt lat="44.71897" lon="7.05357">
        <ele>2719.2</ele>
        <time>2026-09-03T07:11:14Z</time>
      </trkpt>
      <trkpt lat="44.71897" lon="7.05357">
        <ele>2719.2</ele>
        <time>2026-09-03T07:11:19Z</time>
      </trkpt>
      <trkpt lat="44.71897" lon="7.05357">
        <ele>2719.2</ele>
        <time>2026-09-03T07:11:24Z</time>
      </trkpt>
      <trkpt lat="44.71897" lon="7.05357">
        <ele>2719.2</ele>
        <time>2026-09-03T07:11:30Z</time>
      </trkpt>
      <trkpt lat="44.71897" lon="7.05357">
        <ele>2719.2</ele>
        <time>2026-09-03T07:11:35Z</time>
      </trkpt>
      <trkpt lat="44.71897" lon="7.05357">
        <ele>2719.2</ele>
        <time>2026-09-03T07:11:40Z</time>
      </trkpt>
      <trkpt lat="44.71897" lon="7.05357">
        <ele>2719.2</ele>
        <time>2026-09-03T07:11:46Z</time>
      </trkpt>
      <trkpt lat="44.71897" lon="7.05357">
        <ele>2719.2</ele>
        <time>2026-09-03T07:11:51Z</time>
      </trkpt>
      <trkpt lat="44.71897" lon="7.05357">
        <ele>2719.2</ele>
        <time>2026-09-03T07:11:56Z</time>
      </trkpt>
      <trkpt lat="44.71897" lon="7.05357">
        <ele>2719.2</ele>
        <time>2026-09-03T07:12:02Z</time>
      </trkpt>
      <trkpt lat="44.71897" lon="7.05357">
        <ele>2719.2</ele>
        <time>2026-09-03T07:12:07Z</time>
      </trkpt>
      <trkpt lat="44.71897" lon="7.05357">
        <ele>2719.2</ele>
        <time>2026-09-03T07:12:12Z</time>
      </trkpt>
      <trkpt lat="44.71897" lon="7.05357">
        <ele>2719.2</ele>
        <time>2026-09-03T07:12:18Z</time>
      </trkpt>
      <trkpt lat="44.71897" lon="7.05357">
        <ele>2719.2</ele>
        <time>2026-09-03T07:12:23Z</time>
      </trkpt>
      <trkpt lat="44.71897" lon="7.05357">
        <ele>2719.2</ele>
        <time>2026-09-03T07:12:28Z</time>
      </trkpt>
      <trkpt lat="44.71897" lon="7.05357">
        <ele>2719.2</ele>
        <time>2026-09-03T07:12:34Z</time>
      </trkpt>
      <trkpt lat="44.71901" lon="7.05369">
        <ele>2720.8</ele>
        <time>2026-09-03T07:12:39Z</time>
      </trkpt>
      <trkpt lat="44.71902" lon="7.05371">
        <ele>2720.9</ele>
        <time>2026-09-03T07:12:44Z</time>
      </trkpt>
      <trkpt lat="44.71902" lon="7.05371">
        <ele>2720.9</ele>
        <time>2026-09-03T07:12:50Z</time>
      </trkpt>
      <trkpt lat="44.71902" lon="7.05371">
        <ele>2720.9</ele>
        <time>2026-09-03T07:12:55Z</time>
      </trkpt>
      <trkpt lat="44.71902" lon="7.05371">
        <ele>2720.9</ele>
        <time>2026-09-03T07:13:00Z</time>
      </trkpt>
      <trkpt lat="44.71902" lon="7.05376">
        <ele>2722.3</ele>
        <time>2026-09-03T07:13:06Z</time>
      </trkpt>
      <trkpt lat="44.71902" lon="7.05376">
        <ele>2722.3</ele>
        <time>2026-09-03T07:13:11Z</time>
      </trkpt>
      <trkpt lat="44.71902" lon="7.05376">
        <ele>2722.3</ele>
        <time>2026-09-03T07:13:16Z</time>
      </trkpt>
      <trkpt lat="44.71902" lon="7.05376">
        <ele>2722.3</ele>
        <time>2026-09-03T07:13:22Z</time>
      </trkpt>
      <trkpt lat="44.71902" lon="7.05376">
        <ele>2722.3</ele>
        <time>2026-09-03T07:13:27Z</time>
      </trkpt>
      <trkpt lat="44.71902" lon="7.05376">
        <ele>2722.3</ele>
        <time>2026-09-03T07:13:32Z</time>
      </trkpt>
      <trkpt lat="44.71902" lon="7.05376">
        <ele>2722.3</ele>
        <time>2026-09-03T07:13:38Z</time>
      </trkpt>
      <trkpt lat="44.71902" lon="7.05376">
        <ele>2722.3</ele>
        <time>2026-09-03T07:13:43Z</time>
      </trkpt>
      <trkpt lat="44.71902" lon="7.05389">
        <ele>2725.8</ele>
        <time>2026-09-03T07:13:48Z</time>
      </trkpt>
      <trkpt lat="44.71902" lon="7.05389">
        <ele>2725.8</ele>
        <time>2026-09-03T07:13:54Z</time>
      </trkpt>
      <trkpt lat="44.71902" lon="7.05389">
        <ele>2725.8</ele>
        <time>2026-09-03T07:13:59Z</time>
      </trkpt>
      <trkpt lat="44.71902" lon="7.05389">
        <ele>2725.8</ele>
        <time>2026-09-03T07:14:04Z</time>
      </trkpt>
      <trkpt lat="44.71902" lon="7.05389">
        <ele>2725.8</ele>
        <time>2026-09-03T07:14:10Z</time>
      </trkpt>
      <trkpt lat="44.71902" lon="7.05389">
        <ele>2725.8</ele>
        <time>2026-09-03T07:14:15Z</time>
      </trkpt>
      <trkpt lat="44.71902" lon="7.05389">
        <ele>2725.8</ele>
        <time>2026-09-03T07:14:20Z</time>
      </trkpt>
      <trkpt lat="44.71902" lon="7.05389">
        <ele>2725.8</ele>
        <time>2026-09-03T07:14:26Z</time>
      </trkpt>
      <trkpt lat="44.71898" lon="7.05394">
        <ele>2728.2</ele>
        <time>2026-09-03T07:14:31Z</time>
      </trkpt>
      <trkpt lat="44.71897" lon="7.05394">
        <ele>2728.5</ele>
        <time>2026-09-03T07:14:36Z</time>
      </trkpt>
      <trkpt lat="44.71897" lon="7.05394">
        <ele>2728.5</ele>
        <time>2026-09-03T07:14:42Z</time>
      </trkpt>
      <trkpt lat="44.71897" lon="7.05394">
        <ele>2728.5</ele>
        <time>2026-09-03T07:14:47Z</time>
      </trkpt>
      <trkpt lat="44.71897" lon="7.05394">
        <ele>2728.5</ele>
        <time>2026-09-03T07:14:52Z</time>
      </trkpt>
      <trkpt lat="44.71897" lon="7.05394">
        <ele>2728.5</ele>
        <time>2026-09-03T07:14:58Z</time>
      </trkpt>
      <trkpt lat="44.71897" lon="7.05394">
        <ele>2728.5</ele>
        <time>2026-09-03T07:15:03Z</time>
      </trkpt>
      <trkpt lat="44.71897" lon="7.05394">
        <ele>2728.5</ele>
        <time>2026-09-03T07:15:08Z</time>
      </trkpt>
      <trkpt lat="44.71897" lon="7.05394">
        <ele>2728.5</ele>
        <time>2026-09-03T07:15:14Z</time>
      </trkpt>
      <trkpt lat="44.71889" lon="7.05398">
        <ele>2731.7</ele>
        <time>2026-09-03T07:15:19Z</time>
      </trkpt>
      <trkpt lat="44.71888" lon="7.05398">
        <ele>2732</ele>
        <time>2026-09-03T07:15:24Z</time>
      </trkpt>
      <trkpt lat="44.71888" lon="7.05398">
        <ele>2732</ele>
        <time>2026-09-03T07:15:30Z</time>
      </trkpt>
      <trkpt lat="44.71888" lon="7.05398">
        <ele>2732</ele>
        <time>2026-09-03T07:15:35Z</time>
      </trkpt>
      <trkpt lat="44.71888" lon="7.05398">
        <ele>2732</ele>
        <time>2026-09-03T07:15:40Z</time>
      </trkpt>
      <trkpt lat="44.71888" lon="7.05398">
        <ele>2732</ele>
        <time>2026-09-03T07:15:46Z</time>
      </trkpt>
      <trkpt lat="44.71888" lon="7.05398">
        <ele>2732</ele>
        <time>2026-09-03T07:15:51Z</time>
      </trkpt>
      <trkpt lat="44.71894" lon="7.05402">
        <ele>2731.3</ele>
        <time>2026-09-03T07:15:56Z</time>
      </trkpt>
      <trkpt lat="44.71894" lon="7.05404">
        <ele>2731.8</ele>
        <time>2026-09-03T07:16:02Z</time>
      </trkpt>
      <trkpt lat="44.71894" lon="7.05404">
        <ele>2731.8</ele>
        <time>2026-09-03T07:16:07Z</time>
      </trkpt>
      <trkpt lat="44.71894" lon="7.05404">
        <ele>2731.8</ele>
        <time>2026-09-03T07:16:12Z</time>
      </trkpt>
      <trkpt lat="44.71894" lon="7.05404">
        <ele>2731.8</ele>
        <time>2026-09-03T07:16:18Z</time>
      </trkpt>
      <trkpt lat="44.71894" lon="7.05404">
        <ele>2731.8</ele>
        <time>2026-09-03T07:16:23Z</time>
      </trkpt>
      <trkpt lat="44.71894" lon="7.05404">
        <ele>2731.8</ele>
        <time>2026-09-03T07:16:28Z</time>
      </trkpt>
      <trkpt lat="44.7189" lon="7.05409">
        <ele>2734</ele>
        <time>2026-09-03T07:16:34Z</time>
      </trkpt>
      <trkpt lat="44.7189" lon="7.05409">
        <ele>2734</ele>
        <time>2026-09-03T07:16:39Z</time>
      </trkpt>
      <trkpt lat="44.7189" lon="7.05409">
        <ele>2734</ele>
        <time>2026-09-03T07:16:44Z</time>
      </trkpt>
      <trkpt lat="44.7189" lon="7.05409">
        <ele>2734</ele>
        <time>2026-09-03T07:16:50Z</time>
      </trkpt>
      <trkpt lat="44.7189" lon="7.05409">
        <ele>2734</ele>
        <time>2026-09-03T07:16:55Z</time>
      </trkpt>
      <trkpt lat="44.7189" lon="7.05409">
        <ele>2734</ele>
        <time>2026-09-03T07:17:00Z</time>
      </trkpt>
      <trkpt lat="44.71888" lon="7.05413">
        <ele>2735.4</ele>
        <time>2026-09-03T07:17:06Z</time>
      </trkpt>
      <trkpt lat="44.71888" lon="7.05413">
        <ele>2735.4</ele>
        <time>2026-09-03T07:17:11Z</time>
      </trkpt>
      <trkpt lat="44.71888" lon="7.05413">
        <ele>2735.4</ele>
        <time>2026-09-03T07:17:16Z</time>
      </trkpt>
      <trkpt lat="44.71888" lon="7.05413">
        <ele>2735.4</ele>
        <time>2026-09-03T07:17:22Z</time>
      </trkpt>
      <trkpt lat="44.71888" lon="7.05413">
        <ele>2735.4</ele>
        <time>2026-09-03T07:17:27Z</time>
      </trkpt>
      <trkpt lat="44.71888" lon="7.05413">
        <ele>2735.4</ele>
        <time>2026-09-03T07:17:32Z</time>
      </trkpt>
      <trkpt lat="44.71888" lon="7.05413">
        <ele>2735.4</ele>
        <time>2026-09-03T07:17:38Z</time>
      </trkpt>
      <trkpt lat="44.71888" lon="7.05413">
        <ele>2735.4</ele>
        <time>2026-09-03T07:17:43Z</time>
      </trkpt>
      <trkpt lat="44.71888" lon="7.05413">
        <ele>2735.4</ele>
        <time>2026-09-03T07:17:48Z</time>
      </trkpt>
      <trkpt lat="44.71888" lon="7.05413">
        <ele>2735.4</ele>
        <time>2026-09-03T07:17:54Z</time>
      </trkpt>
      <trkpt lat="44.71888" lon="7.05413">
        <ele>2735.4</ele>
        <time>2026-09-03T07:17:59Z</time>
      </trkpt>
      <trkpt lat="44.71886" lon="7.05426">
        <ele>2738.2</ele>
        <time>2026-09-03T07:18:04Z</time>
      </trkpt>
      <trkpt lat="44.71886" lon="7.05426">
        <ele>2738.2</ele>
        <time>2026-09-03T07:18:10Z</time>
      </trkpt>
      <trkpt lat="44.71886" lon="7.05426">
        <ele>2738.2</ele>
        <time>2026-09-03T07:18:15Z</time>
      </trkpt>
      <trkpt lat="44.71886" lon="7.05426">
        <ele>2738.2</ele>
        <time>2026-09-03T07:18:20Z</time>
      </trkpt>
      <trkpt lat="44.71886" lon="7.05426">
        <ele>2738.2</ele>
        <time>2026-09-03T07:18:26Z</time>
      </trkpt>
      <trkpt lat="44.71886" lon="7.05426">
        <ele>2738.2</ele>
        <time>2026-09-03T07:18:31Z</time>
      </trkpt>
      <trkpt lat="44.71886" lon="7.05426">
        <ele>2738.2</ele>
        <time>2026-09-03T07:18:36Z</time>
      </trkpt>
      <trkpt lat="44.71886" lon="7.05426">
        <ele>2738.2</ele>
        <time>2026-09-03T07:18:42Z</time>
      </trkpt>
      <trkpt lat="44.71886" lon="7.05426">
        <ele>2738.2</ele>
        <time>2026-09-03T07:18:47Z</time>
      </trkpt>
      <trkpt lat="44.71886" lon="7.05426">
        <ele>2738.2</ele>
        <time>2026-09-03T07:18:52Z</time>
      </trkpt>
      <trkpt lat="44.71886" lon="7.05426">
        <ele>2738.2</ele>
        <time>2026-09-03T07:18:58Z</time>
      </trkpt>
      <trkpt lat="44.71886" lon="7.05426">
        <ele>2738.2</ele>
        <time>2026-09-03T07:19:03Z</time>
      </trkpt>
      <trkpt lat="44.71886" lon="7.05426">
        <ele>2738.2</ele>
        <time>2026-09-03T07:19:08Z</time>
      </trkpt>
      <trkpt lat="44.71881" lon="7.05438">
        <ele>2741.1</ele>
        <time>2026-09-03T07:19:14Z</time>
      </trkpt>
      <trkpt lat="44.71881" lon="7.05438">
        <ele>2741.1</ele>
        <time>2026-09-03T07:19:19Z</time>
      </trkpt>
      <trkpt lat="44.71881" lon="7.05438">
        <ele>2741.1</ele>
        <time>2026-09-03T07:19:24Z</time>
      </trkpt>
      <trkpt lat="44.71881" lon="7.05438">
        <ele>2741.1</ele>
        <time>2026-09-03T07:19:30Z</time>
      </trkpt>
      <trkpt lat="44.71881" lon="7.05438">
        <ele>2741.1</ele>
        <time>2026-09-03T07:19:35Z</time>
      </trkpt>
      <trkpt lat="44.71881" lon="7.05438">
        <ele>2741.1</ele>
        <time>2026-09-03T07:19:40Z</time>
      </trkpt>
      <trkpt lat="44.71881" lon="7.05438">
        <ele>2741.1</ele>
        <time>2026-09-03T07:19:46Z</time>
      </trkpt>
      <trkpt lat="44.71881" lon="7.05438">
        <ele>2741.1</ele>
        <time>2026-09-03T07:19:51Z</time>
      </trkpt>
      <trkpt lat="44.71883" lon="7.0545">
        <ele>2742.7</ele>
        <time>2026-09-03T07:19:56Z</time>
      </trkpt>
      <trkpt lat="44.71883" lon="7.05451">
        <ele>2742.9</ele>
        <time>2026-09-03T07:20:02Z</time>
      </trkpt>
      <trkpt lat="44.71883" lon="7.05451">
        <ele>2742.9</ele>
        <time>2026-09-03T07:20:07Z</time>
      </trkpt>
      <trkpt lat="44.71883" lon="7.05451">
        <ele>2742.9</ele>
        <time>2026-09-03T07:20:12Z</time>
      </trkpt>
      <trkpt lat="44.71883" lon="7.05451">
        <ele>2742.9</ele>
        <time>2026-09-03T07:20:18Z</time>
      </trkpt>
      <trkpt lat="44.71883" lon="7.05451">
        <ele>2742.9</ele>
        <time>2026-09-03T07:20:23Z</time>
      </trkpt>
      <trkpt lat="44.71883" lon="7.05451">
        <ele>2742.9</ele>
        <time>2026-09-03T07:20:28Z</time>
      </trkpt>
      <trkpt lat="44.71883" lon="7.05451">
        <ele>2742.9</ele>
        <time>2026-09-03T07:20:34Z</time>
      </trkpt>
      <trkpt lat="44.71883" lon="7.05451">
        <ele>2742.9</ele>
        <time>2026-09-03T07:20:39Z</time>
      </trkpt>
      <trkpt lat="44.71883" lon="7.05451">
        <ele>2742.9</ele>
        <time>2026-09-03T07:20:44Z</time>
      </trkpt>
      <trkpt lat="44.71883" lon="7.05451">
        <ele>2742.9</ele>
        <time>2026-09-03T07:20:50Z</time>
      </trkpt>
      <trkpt lat="44.71883" lon="7.05451">
        <ele>2742.9</ele>
        <time>2026-09-03T07:20:55Z</time>
      </trkpt>
      <trkpt lat="44.71883" lon="7.05451">
        <ele>2742.9</ele>
        <time>2026-09-03T07:21:00Z</time>
      </trkpt>
      <trkpt lat="44.71883" lon="7.05451">
        <ele>2742.9</ele>
        <time>2026-09-03T07:21:06Z</time>
      </trkpt>
      <trkpt lat="44.71879" lon="7.05462">
        <ele>2745.2</ele>
        <time>2026-09-03T07:21:11Z</time>
      </trkpt>
      <trkpt lat="44.71878" lon="7.05463">
        <ele>2745.5</ele>
        <time>2026-09-03T07:21:16Z</time>
      </trkpt>
      <trkpt lat="44.71878" lon="7.05463">
        <ele>2745.5</ele>
        <time>2026-09-03T07:21:22Z</time>
      </trkpt>
      <trkpt lat="44.71878" lon="7.05463">
        <ele>2745.5</ele>
        <time>2026-09-03T07:21:27Z</time>
      </trkpt>
      <trkpt lat="44.71875" lon="7.05473">
        <ele>2747.5</ele>
        <time>2026-09-03T07:21:32Z</time>
      </trkpt>
      <trkpt lat="44.71876" lon="7.05474">
        <ele>2747.5</ele>
        <time>2026-09-03T07:21:38Z</time>
      </trkpt>
      <trkpt lat="44.71876" lon="7.05474">
        <ele>2747.5</ele>
        <time>2026-09-03T07:21:43Z</time>
      </trkpt>
      <trkpt lat="44.71876" lon="7.05474">
        <ele>2747.5</ele>
        <time>2026-09-03T07:21:48Z</time>
      </trkpt>
      <trkpt lat="44.71876" lon="7.05474">
        <ele>2747.5</ele>
        <time>2026-09-03T07:21:54Z</time>
      </trkpt>
      <trkpt lat="44.71876" lon="7.05474">
        <ele>2747.5</ele>
        <time>2026-09-03T07:21:59Z</time>
      </trkpt>
      <trkpt lat="44.71876" lon="7.05474">
        <ele>2747.5</ele>
        <time>2026-09-03T07:22:04Z</time>
      </trkpt>
      <trkpt lat="44.71876" lon="7.05474">
        <ele>2747.5</ele>
        <time>2026-09-03T07:22:10Z</time>
      </trkpt>
      <trkpt lat="44.71874" lon="7.05486">
        <ele>2749.5</ele>
        <time>2026-09-03T07:22:15Z</time>
      </trkpt>
      <trkpt lat="44.71872" lon="7.05489">
        <ele>2750.2</ele>
        <time>2026-09-03T07:22:20Z</time>
      </trkpt>
      <trkpt lat="44.71871" lon="7.05489">
        <ele>2750.3</ele>
        <time>2026-09-03T07:22:26Z</time>
      </trkpt>
      <trkpt lat="44.71869" lon="7.05493">
        <ele>2751</ele>
        <time>2026-09-03T07:22:31Z</time>
      </trkpt>
      <trkpt lat="44.71868" lon="7.05494">
        <ele>2751.3</ele>
        <time>2026-09-03T07:22:36Z</time>
      </trkpt>
      <trkpt lat="44.71868" lon="7.05494">
        <ele>2751.3</ele>
        <time>2026-09-03T07:22:42Z</time>
      </trkpt>
      <trkpt lat="44.71868" lon="7.05494">
        <ele>2751.3</ele>
        <time>2026-09-03T07:22:47Z</time>
      </trkpt>
      <trkpt lat="44.71868" lon="7.05494">
        <ele>2751.3</ele>
        <time>2026-09-03T07:22:52Z</time>
      </trkpt>
      <trkpt lat="44.71868" lon="7.05494">
        <ele>2751.3</ele>
        <time>2026-09-03T07:22:58Z</time>
      </trkpt>
      <trkpt lat="44.71868" lon="7.05494">
        <ele>2751.3</ele>
        <time>2026-09-03T07:23:03Z</time>
      </trkpt>
      <trkpt lat="44.71861" lon="7.05497">
        <ele>2752.3</ele>
        <time>2026-09-03T07:23:08Z</time>
      </trkpt>
      <trkpt lat="44.71861" lon="7.05497">
        <ele>2752.3</ele>
        <time>2026-09-03T07:23:14Z</time>
      </trkpt>
      <trkpt lat="44.71861" lon="7.05497">
        <ele>2752.3</ele>
        <time>2026-09-03T07:23:19Z</time>
      </trkpt>
      <trkpt lat="44.71861" lon="7.05497">
        <ele>2752.3</ele>
        <time>2026-09-03T07:23:24Z</time>
      </trkpt>
      <trkpt lat="44.71861" lon="7.05497">
        <ele>2752.3</ele>
        <time>2026-09-03T07:23:30Z</time>
      </trkpt>
      <trkpt lat="44.71861" lon="7.05497">
        <ele>2752.3</ele>
        <time>2026-09-03T07:23:35Z</time>
      </trkpt>
      <trkpt lat="44.71861" lon="7.05497">
        <ele>2752.3</ele>
        <time>2026-09-03T07:23:40Z</time>
      </trkpt>
      <trkpt lat="44.71861" lon="7.05497">
        <ele>2752.3</ele>
        <time>2026-09-03T07:23:46Z</time>
      </trkpt>
      <trkpt lat="44.71856" lon="7.05502">
        <ele>2753.4</ele>
        <time>2026-09-03T07:23:51Z</time>
      </trkpt>
      <trkpt lat="44.71854" lon="7.05504">
        <ele>2753.9</ele>
        <time>2026-09-03T07:23:56Z</time>
      </trkpt>
      <trkpt lat="44.71852" lon="7.05504">
        <ele>2754</ele>
        <time>2026-09-03T07:24:02Z</time>
      </trkpt>
      <trkpt lat="44.71852" lon="7.05504">
        <ele>2754</ele>
        <time>2026-09-03T07:24:07Z</time>
      </trkpt>
      <trkpt lat="44.71852" lon="7.05504">
        <ele>2754</ele>
        <time>2026-09-03T07:24:12Z</time>
      </trkpt>
      <trkpt lat="44.71852" lon="7.05504">
        <ele>2754</ele>
        <time>2026-09-03T07:24:18Z</time>
      </trkpt>
      <trkpt lat="44.71852" lon="7.05504">
        <ele>2754</ele>
        <time>2026-09-03T07:24:23Z</time>
      </trkpt>
      <trkpt lat="44.71852" lon="7.05504">
        <ele>2754</ele>
        <time>2026-09-03T07:24:28Z</time>
      </trkpt>
      <trkpt lat="44.71845" lon="7.0551">
        <ele>2755.6</ele>
        <time>2026-09-03T07:24:34Z</time>
      </trkpt>
      <trkpt lat="44.71842" lon="7.05514">
        <ele>2756.5</ele>
        <time>2026-09-03T07:24:39Z</time>
      </trkpt>
      <trkpt lat="44.7184" lon="7.05517">
        <ele>2757.2</ele>
        <time>2026-09-03T07:24:44Z</time>
      </trkpt>
      <trkpt lat="44.7184" lon="7.05517">
        <ele>2757.2</ele>
        <time>2026-09-03T07:24:50Z</time>
      </trkpt>
      <trkpt lat="44.7184" lon="7.05517">
        <ele>2757.2</ele>
        <time>2026-09-03T07:24:55Z</time>
      </trkpt>
      <trkpt lat="44.71837" lon="7.05517">
        <ele>2757.5</ele>
        <time>2026-09-03T07:25:00Z</time>
      </trkpt>
      <trkpt lat="44.71834" lon="7.05517">
        <ele>2757.8</ele>
        <time>2026-09-03T07:25:06Z</time>
      </trkpt>
      <trkpt lat="44.71832" lon="7.05518">
        <ele>2758.5</ele>
        <time>2026-09-03T07:25:11Z</time>
      </trkpt>
      <trkpt lat="44.71832" lon="7.05523">
        <ele>2759.3</ele>
        <time>2026-09-03T07:25:16Z</time>
      </trkpt>
      <trkpt lat="44.71829" lon="7.05526">
        <ele>2760.8</ele>
        <time>2026-09-03T07:25:22Z</time>
      </trkpt>
      <trkpt lat="44.71827" lon="7.05526">
        <ele>2761.5</ele>
        <time>2026-09-03T07:25:27Z</time>
      </trkpt>
      <trkpt lat="44.71825" lon="7.05529">
        <ele>2762.7</ele>
        <time>2026-09-03T07:25:32Z</time>
      </trkpt>
      <trkpt lat="44.71825" lon="7.05532">
        <ele>2763.1</ele>
        <time>2026-09-03T07:25:38Z</time>
      </trkpt>
      <trkpt lat="44.71826" lon="7.05535">
        <ele>2763.3</ele>
        <time>2026-09-03T07:25:43Z</time>
      </trkpt>
      <trkpt lat="44.71827" lon="7.05539">
        <ele>2763.6</ele>
        <time>2026-09-03T07:25:48Z</time>
      </trkpt>
      <trkpt lat="44.71826" lon="7.05541">
        <ele>2764.2</ele>
        <time>2026-09-03T07:25:54Z</time>
      </trkpt>
      <trkpt lat="44.71826" lon="7.05541">
        <ele>2764.2</ele>
        <time>2026-09-03T07:25:59Z</time>
      </trkpt>
      <trkpt lat="44.71826" lon="7.05541">
        <ele>2764.2</ele>
        <time>2026-09-03T07:26:04Z</time>
      </trkpt>
      <trkpt lat="44.71823" lon="7.05542">
        <ele>2765.3</ele>
        <time>2026-09-03T07:26:10Z</time>
      </trkpt>
      <trkpt lat="44.71823" lon="7.05542">
        <ele>2765.3</ele>
        <time>2026-09-03T07:26:15Z</time>
      </trkpt>
      <trkpt lat="44.71823" lon="7.05542">
        <ele>2765.3</ele>
        <time>2026-09-03T07:26:20Z</time>
      </trkpt>
      <trkpt lat="44.71823" lon="7.05542">
        <ele>2765.3</ele>
        <time>2026-09-03T07:26:26Z</time>
      </trkpt>
      <trkpt lat="44.71823" lon="7.05542">
        <ele>2765.3</ele>
        <time>2026-09-03T07:26:31Z</time>
      </trkpt>
      <trkpt lat="44.71823" lon="7.05542">
        <ele>2765.3</ele>
        <time>2026-09-03T07:26:36Z</time>
      </trkpt>
      <trkpt lat="44.71814" lon="7.05549">
        <ele>2769.2</ele>
        <time>2026-09-03T07:26:42Z</time>
      </trkpt>
      <trkpt lat="44.71813" lon="7.05551">
        <ele>2769.8</ele>
        <time>2026-09-03T07:26:47Z</time>
      </trkpt>
      <trkpt lat="44.7181" lon="7.05554">
        <ele>2771.1</ele>
        <time>2026-09-03T07:26:52Z</time>
      </trkpt>
      <trkpt lat="44.71807" lon="7.05555">
        <ele>2772.2</ele>
        <time>2026-09-03T07:26:58Z</time>
      </trkpt>
      <trkpt lat="44.71802" lon="7.05555">
        <ele>2773.7</ele>
        <time>2026-09-03T07:27:03Z</time>
      </trkpt>
      <trkpt lat="44.71799" lon="7.05558">
        <ele>2774.9</ele>
        <time>2026-09-03T07:27:08Z</time>
      </trkpt>
      <trkpt lat="44.71794" lon="7.05556">
        <ele>2776.2</ele>
        <time>2026-09-03T07:27:14Z</time>
      </trkpt>
      <trkpt lat="44.71793" lon="7.05558">
        <ele>2776.7</ele>
        <time>2026-09-03T07:27:19Z</time>
      </trkpt>
      <trkpt lat="44.71793" lon="7.05562">
        <ele>2777.2</ele>
        <time>2026-09-03T07:27:24Z</time>
      </trkpt>
      <trkpt lat="44.71788" lon="7.05563">
        <ele>2778.7</ele>
        <time>2026-09-03T07:27:30Z</time>
      </trkpt>
      <trkpt lat="44.71786" lon="7.05564">
        <ele>2779.4</ele>
        <time>2026-09-03T07:27:35Z</time>
      </trkpt>
      <trkpt lat="44.71783" lon="7.05567">
        <ele>2780.6</ele>
        <time>2026-09-03T07:27:40Z</time>
      </trkpt>
      <trkpt lat="44.71781" lon="7.05571">
        <ele>2781.6</ele>
        <time>2026-09-03T07:27:46Z</time>
      </trkpt>
      <trkpt lat="44.71781" lon="7.05573">
        <ele>2781.8</ele>
        <time>2026-09-03T07:27:51Z</time>
      </trkpt>
      <trkpt lat="44.7178" lon="7.05574">
        <ele>2782.2</ele>
        <time>2026-09-03T07:27:56Z</time>
      </trkpt>
      <trkpt lat="44.7178" lon="7.05574">
        <ele>2782.2</ele>
        <time>2026-09-03T07:28:02Z</time>
      </trkpt>
      <trkpt lat="44.71777" lon="7.05575">
        <ele>2783.1</ele>
        <time>2026-09-03T07:28:07Z</time>
      </trkpt>
      <trkpt lat="44.71775" lon="7.05578">
        <ele>2783.9</ele>
        <time>2026-09-03T07:28:12Z</time>
      </trkpt>
      <trkpt lat="44.71773" lon="7.05582">
        <ele>2784.8</ele>
        <time>2026-09-03T07:28:18Z</time>
      </trkpt>
      <trkpt lat="44.71772" lon="7.05585">
        <ele>2785.4</ele>
        <time>2026-09-03T07:28:23Z</time>
      </trkpt>
      <trkpt lat="44.71771" lon="7.05587">
        <ele>2785.9</ele>
        <time>2026-09-03T07:28:28Z</time>
      </trkpt>
      <trkpt lat="44.71771" lon="7.05587">
        <ele>2785.9</ele>
        <time>2026-09-03T07:28:34Z</time>
      </trkpt>
      <trkpt lat="44.71771" lon="7.05587">
        <ele>2785.9</ele>
        <time>2026-09-03T07:28:39Z</time>
      </trkpt>
      <trkpt lat="44.71771" lon="7.05594">
        <ele>2786.8</ele>
        <time>2026-09-03T07:28:44Z</time>
      </trkpt>
      <trkpt lat="44.71773" lon="7.05599">
        <ele>2786.9</ele>
        <time>2026-09-03T07:28:50Z</time>
      </trkpt>
      <trkpt lat="44.71772" lon="7.05602">
        <ele>2787.5</ele>
        <time>2026-09-03T07:28:55Z</time>
      </trkpt>
      <trkpt lat="44.71771" lon="7.05603">
        <ele>2787.9</ele>
        <time>2026-09-03T07:29:00Z</time>
      </trkpt>
      <trkpt lat="44.71771" lon="7.05603">
        <ele>2787.9</ele>
        <time>2026-09-03T07:29:06Z</time>
      </trkpt>
      <trkpt lat="44.71771" lon="7.05603">
        <ele>2787.9</ele>
        <time>2026-09-03T07:29:11Z</time>
      </trkpt>
      <trkpt lat="44.71771" lon="7.05603">
        <ele>2787.9</ele>
        <time>2026-09-03T07:29:16Z</time>
      </trkpt>
      <trkpt lat="44.71767" lon="7.05601">
        <ele>2788.8</ele>
        <time>2026-09-03T07:29:22Z</time>
      </trkpt>
      <trkpt lat="44.71766" lon="7.05601">
        <ele>2789.1</ele>
        <time>2026-09-03T07:29:27Z</time>
      </trkpt>
      <trkpt lat="44.71765" lon="7.05599">
        <ele>2789.1</ele>
        <time>2026-09-03T07:29:32Z</time>
      </trkpt>
      <trkpt lat="44.71765" lon="7.05599">
        <ele>2789.1</ele>
        <time>2026-09-03T07:29:38Z</time>
      </trkpt>
      <trkpt lat="44.71771" lon="7.05605">
        <ele>2788.2</ele>
        <time>2026-09-03T07:29:43Z</time>
      </trkpt>
      <trkpt lat="44.71771" lon="7.05607">
        <ele>2788.4</ele>
        <time>2026-09-03T07:29:48Z</time>
      </trkpt>
      <trkpt lat="44.71773" lon="7.0561">
        <ele>2788.2</ele>
        <time>2026-09-03T07:29:54Z</time>
      </trkpt>
      <trkpt lat="44.71777" lon="7.05612">
        <ele>2787.3</ele>
        <time>2026-09-03T07:29:59Z</time>
      </trkpt>
      <trkpt lat="44.71778" lon="7.05614">
        <ele>2787.3</ele>
        <time>2026-09-03T07:30:04Z</time>
      </trkpt>
      <trkpt lat="44.71776" lon="7.05617">
        <ele>2788.2</ele>
        <time>2026-09-03T07:30:10Z</time>
      </trkpt>
      <trkpt lat="44.71775" lon="7.0562">
        <ele>2788.9</ele>
        <time>2026-09-03T07:30:15Z</time>
      </trkpt>
      <trkpt lat="44.71776" lon="7.05627">
        <ele>2789.4</ele>
        <time>2026-09-03T07:30:20Z</time>
      </trkpt>
      <trkpt lat="44.7178" lon="7.05634">
        <ele>2789.1</ele>
        <time>2026-09-03T07:30:26Z</time>
      </trkpt>
      <trkpt lat="44.71781" lon="7.05639">
        <ele>2789.3</ele>
        <time>2026-09-03T07:30:31Z</time>
      </trkpt>
      <trkpt lat="44.71778" lon="7.05642">
        <ele>2790.6</ele>
        <time>2026-09-03T07:30:36Z</time>
      </trkpt>
      <trkpt lat="44.71773" lon="7.05646">
        <ele>2792.7</ele>
        <time>2026-09-03T07:30:42Z</time>
      </trkpt>
      <trkpt lat="44.71769" lon="7.05646">
        <ele>2794</ele>
        <time>2026-09-03T07:30:47Z</time>
      </trkpt>
      <trkpt lat="44.71766" lon="7.05648">
        <ele>2795.2</ele>
        <time>2026-09-03T07:30:52Z</time>
      </trkpt>
      <trkpt lat="44.71764" lon="7.05654">
        <ele>2796.6</ele>
        <time>2026-09-03T07:30:58Z</time>
      </trkpt>
      <trkpt lat="44.7176" lon="7.05658">
        <ele>2798.5</ele>
        <time>2026-09-03T07:31:03Z</time>
      </trkpt>
      <trkpt lat="44.71757" lon="7.05663">
        <ele>2800.1</ele>
        <time>2026-09-03T07:31:08Z</time>
      </trkpt>
      <trkpt lat="44.71758" lon="7.05669">
        <ele>2800.6</ele>
        <time>2026-09-03T07:31:14Z</time>
      </trkpt>
      <trkpt lat="44.71757" lon="7.05671">
        <ele>2801.2</ele>
        <time>2026-09-03T07:31:19Z</time>
      </trkpt>
      <trkpt lat="44.71757" lon="7.05673">
        <ele>2801.5</ele>
        <time>2026-09-03T07:31:24Z</time>
      </trkpt>
      <trkpt lat="44.71756" lon="7.05674">
        <ele>2801.9</ele>
        <time>2026-09-03T07:31:30Z</time>
      </trkpt>
      <trkpt lat="44.71753" lon="7.05674">
        <ele>2803</ele>
        <time>2026-09-03T07:31:35Z</time>
      </trkpt>
      <trkpt lat="44.71753" lon="7.05674">
        <ele>2803</ele>
        <time>2026-09-03T07:31:40Z</time>
      </trkpt>
      <trkpt lat="44.71752" lon="7.05672">
        <ele>2803</ele>
        <time>2026-09-03T07:31:46Z</time>
      </trkpt>
      <trkpt lat="44.71752" lon="7.05672">
        <ele>2803</ele>
        <time>2026-09-03T07:31:51Z</time>
      </trkpt>
      <trkpt lat="44.71749" lon="7.05675">
        <ele>2804.4</ele>
        <time>2026-09-03T07:31:56Z</time>
      </trkpt>
      <trkpt lat="44.71747" lon="7.05675">
        <ele>2804.9</ele>
        <time>2026-09-03T07:32:02Z</time>
      </trkpt>
      <trkpt lat="44.71746" lon="7.05675">
        <ele>2805.1</ele>
        <time>2026-09-03T07:32:07Z</time>
      </trkpt>
      <trkpt lat="44.71746" lon="7.05675">
        <ele>2805.1</ele>
        <time>2026-09-03T07:32:12Z</time>
      </trkpt>
      <trkpt lat="44.71746" lon="7.05675">
        <ele>2805.1</ele>
        <time>2026-09-03T07:32:18Z</time>
      </trkpt>
      <trkpt lat="44.71743" lon="7.05674">
        <ele>2805.7</ele>
        <time>2026-09-03T07:32:23Z</time>
      </trkpt>
      <trkpt lat="44.71741" lon="7.05673">
        <ele>2806.1</ele>
        <time>2026-09-03T07:32:28Z</time>
      </trkpt>
      <trkpt lat="44.7174" lon="7.05673">
        <ele>2806.4</ele>
        <time>2026-09-03T07:32:34Z</time>
      </trkpt>
      <trkpt lat="44.7174" lon="7.05673">
        <ele>2806.4</ele>
        <time>2026-09-03T07:32:39Z</time>
      </trkpt>
      <trkpt lat="44.7174" lon="7.05673">
        <ele>2806.4</ele>
        <time>2026-09-03T07:32:44Z</time>
      </trkpt>
      <trkpt lat="44.7174" lon="7.05673">
        <ele>2806.4</ele>
        <time>2026-09-03T07:32:50Z</time>
      </trkpt>
      <trkpt lat="44.7174" lon="7.05673">
        <ele>2806.4</ele>
        <time>2026-09-03T07:32:55Z</time>
      </trkpt>
      <trkpt lat="44.71738" lon="7.05677">
        <ele>2807.4</ele>
        <time>2026-09-03T07:33:00Z</time>
      </trkpt>
      <trkpt lat="44.71737" lon="7.05677">
        <ele>2807.7</ele>
        <time>2026-09-03T07:33:06Z</time>
      </trkpt>
      <trkpt lat="44.71737" lon="7.05677">
        <ele>2807.7</ele>
        <time>2026-09-03T07:33:11Z</time>
      </trkpt>
      <trkpt lat="44.71737" lon="7.05677">
        <ele>2807.7</ele>
        <time>2026-09-03T07:33:16Z</time>
      </trkpt>
      <trkpt lat="44.71734" lon="7.05681">
        <ele>2809</ele>
        <time>2026-09-03T07:33:22Z</time>
      </trkpt>
      <trkpt lat="44.71732" lon="7.05682">
        <ele>2809.6</ele>
        <time>2026-09-03T07:33:27Z</time>
      </trkpt>
      <trkpt lat="44.71731" lon="7.05684">
        <ele>2810.1</ele>
        <time>2026-09-03T07:33:32Z</time>
      </trkpt>
      <trkpt lat="44.71731" lon="7.05687">
        <ele>2810.5</ele>
        <time>2026-09-03T07:33:38Z</time>
      </trkpt>
      <trkpt lat="44.71731" lon="7.05687">
        <ele>2810.5</ele>
        <time>2026-09-03T07:33:43Z</time>
      </trkpt>
      <trkpt lat="44.71731" lon="7.05689">
        <ele>2810.8</ele>
        <time>2026-09-03T07:33:48Z</time>
      </trkpt>
      <trkpt lat="44.71731" lon="7.05689">
        <ele>2810.8</ele>
        <time>2026-09-03T07:33:54Z</time>
      </trkpt>
      <trkpt lat="44.71731" lon="7.05689">
        <ele>2810.8</ele>
        <time>2026-09-03T07:33:59Z</time>
      </trkpt>
      <trkpt lat="44.71731" lon="7.05689">
        <ele>2810.8</ele>
        <time>2026-09-03T07:34:04Z</time>
      </trkpt>
      <trkpt lat="44.71731" lon="7.05689">
        <ele>2810.8</ele>
        <time>2026-09-03T07:34:10Z</time>
      </trkpt>
      <trkpt lat="44.71731" lon="7.05689">
        <ele>2810.8</ele>
        <time>2026-09-03T07:34:15Z</time>
      </trkpt>
      <trkpt lat="44.71731" lon="7.05689">
        <ele>2810.8</ele>
        <time>2026-09-03T07:34:20Z</time>
      </trkpt>
      <trkpt lat="44.71731" lon="7.05689">
        <ele>2810.8</ele>
        <time>2026-09-03T07:34:26Z</time>
      </trkpt>
      <trkpt lat="44.71731" lon="7.05689">
        <ele>2810.8</ele>
        <time>2026-09-03T07:34:31Z</time>
      </trkpt>
      <trkpt lat="44.71731" lon="7.05689">
        <ele>2810.8</ele>
        <time>2026-09-03T07:34:36Z</time>
      </trkpt>
      <trkpt lat="44.71726" lon="7.05695">
        <ele>2812.9</ele>
        <time>2026-09-03T07:34:42Z</time>
      </trkpt>
      <trkpt lat="44.71724" lon="7.05696">
        <ele>2813.5</ele>
        <time>2026-09-03T07:34:47Z</time>
      </trkpt>
      <trkpt lat="44.71724" lon="7.05699">
        <ele>2813.9</ele>
        <time>2026-09-03T07:34:52Z</time>
      </trkpt>
      <trkpt lat="44.71721" lon="7.05699">
        <ele>2814.7</ele>
        <time>2026-09-03T07:34:58Z</time>
      </trkpt>
      <trkpt lat="44.71719" lon="7.05698">
        <ele>2815.1</ele>
        <time>2026-09-03T07:35:03Z</time>
      </trkpt>
      <trkpt lat="44.71718" lon="7.05699">
        <ele>2815.5</ele>
        <time>2026-09-03T07:35:08Z</time>
      </trkpt>
      <trkpt lat="44.71718" lon="7.05702">
        <ele>2815.9</ele>
        <time>2026-09-03T07:35:14Z</time>
      </trkpt>
      <trkpt lat="44.71718" lon="7.05704">
        <ele>2816.2</ele>
        <time>2026-09-03T07:35:19Z</time>
      </trkpt>
      <trkpt lat="44.71718" lon="7.05704">
        <ele>2816.2</ele>
        <time>2026-09-03T07:35:24Z</time>
      </trkpt>
      <trkpt lat="44.71718" lon="7.05704">
        <ele>2816.2</ele>
        <time>2026-09-03T07:35:30Z</time>
      </trkpt>
      <trkpt lat="44.71718" lon="7.05704">
        <ele>2816.2</ele>
        <time>2026-09-03T07:35:35Z</time>
      </trkpt>
      <trkpt lat="44.71718" lon="7.05704">
        <ele>2816.2</ele>
        <time>2026-09-03T07:35:40Z</time>
      </trkpt>
      <trkpt lat="44.71718" lon="7.05704">
        <ele>2816.2</ele>
        <time>2026-09-03T07:35:46Z</time>
      </trkpt>
      <trkpt lat="44.71718" lon="7.05704">
        <ele>2816.2</ele>
        <time>2026-09-03T07:35:51Z</time>
      </trkpt>
      <trkpt lat="44.71718" lon="7.05704">
        <ele>2816.2</ele>
        <time>2026-09-03T07:35:56Z</time>
      </trkpt>
      <trkpt lat="44.7171" lon="7.05711">
        <ele>2819.2</ele>
        <time>2026-09-03T07:36:02Z</time>
      </trkpt>
      <trkpt lat="44.71707" lon="7.05712">
        <ele>2820.1</ele>
        <time>2026-09-03T07:36:07Z</time>
      </trkpt>
      <trkpt lat="44.71704" lon="7.0571">
        <ele>2820.6</ele>
        <time>2026-09-03T07:36:12Z</time>
      </trkpt>
      <trkpt lat="44.71703" lon="7.0571">
        <ele>2820.9</ele>
        <time>2026-09-03T07:36:18Z</time>
      </trkpt>
      <trkpt lat="44.71703" lon="7.0571">
        <ele>2820.9</ele>
        <time>2026-09-03T07:36:23Z</time>
      </trkpt>
      <trkpt lat="44.71703" lon="7.0571">
        <ele>2820.9</ele>
        <time>2026-09-03T07:36:28Z</time>
      </trkpt>
      <trkpt lat="44.71698" lon="7.05709">
        <ele>2822</ele>
        <time>2026-09-03T07:36:34Z</time>
      </trkpt>
      <trkpt lat="44.71695" lon="7.05711">
        <ele>2823.1</ele>
        <time>2026-09-03T07:36:39Z</time>
      </trkpt>
      <trkpt lat="44.71694" lon="7.05714">
        <ele>2823.7</ele>
        <time>2026-09-03T07:36:44Z</time>
      </trkpt>
      <trkpt lat="44.71695" lon="7.05717">
        <ele>2823.9</ele>
        <time>2026-09-03T07:36:50Z</time>
      </trkpt>
      <trkpt lat="44.71695" lon="7.05717">
        <ele>2823.9</ele>
        <time>2026-09-03T07:36:55Z</time>
      </trkpt>
      <trkpt lat="44.71695" lon="7.05717">
        <ele>2823.9</ele>
        <time>2026-09-03T07:37:00Z</time>
      </trkpt>
      <trkpt lat="44.71695" lon="7.05717">
        <ele>2823.9</ele>
        <time>2026-09-03T07:37:06Z</time>
      </trkpt>
      <trkpt lat="44.71695" lon="7.05717">
        <ele>2823.9</ele>
        <time>2026-09-03T07:37:11Z</time>
      </trkpt>
      <trkpt lat="44.71696" lon="7.05723">
        <ele>2824.5</ele>
        <time>2026-09-03T07:37:16Z</time>
      </trkpt>
      <trkpt lat="44.71695" lon="7.05724">
        <ele>2824.9</ele>
        <time>2026-09-03T07:37:22Z</time>
      </trkpt>
      <trkpt lat="44.71695" lon="7.05724">
        <ele>2824.9</ele>
        <time>2026-09-03T07:37:27Z</time>
      </trkpt>
      <trkpt lat="44.71693" lon="7.05728">
        <ele>2826</ele>
        <time>2026-09-03T07:37:32Z</time>
      </trkpt>
      <trkpt lat="44.71693" lon="7.05728">
        <ele>2826</ele>
        <time>2026-09-03T07:37:38Z</time>
      </trkpt>
      <trkpt lat="44.71693" lon="7.05728">
        <ele>2826</ele>
        <time>2026-09-03T07:37:43Z</time>
      </trkpt>
      <trkpt lat="44.71693" lon="7.05728">
        <ele>2826</ele>
        <time>2026-09-03T07:37:48Z</time>
      </trkpt>
      <trkpt lat="44.71693" lon="7.05728">
        <ele>2826</ele>
        <time>2026-09-03T07:37:54Z</time>
      </trkpt>
      <trkpt lat="44.71693" lon="7.05728">
        <ele>2826</ele>
        <time>2026-09-03T07:37:59Z</time>
      </trkpt>
      <trkpt lat="44.71693" lon="7.05728">
        <ele>2826</ele>
        <time>2026-09-03T07:38:04Z</time>
      </trkpt>
      <trkpt lat="44.71693" lon="7.05728">
        <ele>2826</ele>
        <time>2026-09-03T07:38:10Z</time>
      </trkpt>
      <trkpt lat="44.71693" lon="7.05728">
        <ele>2826</ele>
        <time>2026-09-03T07:38:15Z</time>
      </trkpt>
      <trkpt lat="44.71698" lon="7.05739">
        <ele>2826.2</ele>
        <time>2026-09-03T07:38:20Z</time>
      </trkpt>
      <trkpt lat="44.71698" lon="7.0574">
        <ele>2826.3</ele>
        <time>2026-09-03T07:38:26Z</time>
      </trkpt>
      <trkpt lat="44.71698" lon="7.05744">
        <ele>2826.9</ele>
        <time>2026-09-03T07:38:31Z</time>
      </trkpt>
      <trkpt lat="44.71698" lon="7.05745">
        <ele>2827</ele>
        <time>2026-09-03T07:38:36Z</time>
      </trkpt>
      <trkpt lat="44.71697" lon="7.05749">
        <ele>2827.9</ele>
        <time>2026-09-03T07:38:42Z</time>
      </trkpt>
      <trkpt lat="44.71697" lon="7.05749">
        <ele>2827.9</ele>
        <time>2026-09-03T07:38:47Z</time>
      </trkpt>
      <trkpt lat="44.71697" lon="7.05749">
        <ele>2827.9</ele>
        <time>2026-09-03T07:38:52Z</time>
      </trkpt>
      <trkpt lat="44.71697" lon="7.05749">
        <ele>2827.9</ele>
        <time>2026-09-03T07:38:58Z</time>
      </trkpt>
      <trkpt lat="44.71697" lon="7.05749">
        <ele>2827.9</ele>
        <time>2026-09-03T07:39:03Z</time>
      </trkpt>
      <trkpt lat="44.71697" lon="7.05749">
        <ele>2827.9</ele>
        <time>2026-09-03T07:39:08Z</time>
      </trkpt>
      <trkpt lat="44.71697" lon="7.05749">
        <ele>2827.9</ele>
        <time>2026-09-03T07:39:14Z</time>
      </trkpt>
      <trkpt lat="44.71697" lon="7.05749">
        <ele>2827.9</ele>
        <time>2026-09-03T07:39:19Z</time>
      </trkpt>
      <trkpt lat="44.71697" lon="7.05749">
        <ele>2827.9</ele>
        <time>2026-09-03T07:39:24Z</time>
      </trkpt>
      <trkpt lat="44.71689" lon="7.05758">
        <ele>2830.8</ele>
        <time>2026-09-03T07:39:30Z</time>
      </trkpt>
      <trkpt lat="44.71689" lon="7.05758">
        <ele>2830.8</ele>
        <time>2026-09-03T07:39:35Z</time>
      </trkpt>
      <trkpt lat="44.71689" lon="7.05758">
        <ele>2830.8</ele>
        <time>2026-09-03T07:39:40Z</time>
      </trkpt>
      <trkpt lat="44.71689" lon="7.05758">
        <ele>2830.8</ele>
        <time>2026-09-03T07:39:46Z</time>
      </trkpt>
      <trkpt lat="44.71689" lon="7.05758">
        <ele>2830.8</ele>
        <time>2026-09-03T07:39:51Z</time>
      </trkpt>
      <trkpt lat="44.71689" lon="7.05758">
        <ele>2830.8</ele>
        <time>2026-09-03T07:39:56Z</time>
      </trkpt>
      <trkpt lat="44.71689" lon="7.05758">
        <ele>2830.8</ele>
        <time>2026-09-03T07:40:02Z</time>
      </trkpt>
      <trkpt lat="44.71685" lon="7.05766">
        <ele>2832.5</ele>
        <time>2026-09-03T07:40:07Z</time>
      </trkpt>
      <trkpt lat="44.71685" lon="7.05766">
        <ele>2832.5</ele>
        <time>2026-09-03T07:40:12Z</time>
      </trkpt>
      <trkpt lat="44.71685" lon="7.05766">
        <ele>2832.5</ele>
        <time>2026-09-03T07:40:18Z</time>
      </trkpt>
      <trkpt lat="44.71683" lon="7.0577">
        <ele>2833.3</ele>
        <time>2026-09-03T07:40:23Z</time>
      </trkpt>
      <trkpt lat="44.71683" lon="7.05772">
        <ele>2833.5</ele>
        <time>2026-09-03T07:40:28Z</time>
      </trkpt>
      <trkpt lat="44.71684" lon="7.05777">
        <ele>2833.6</ele>
        <time>2026-09-03T07:40:34Z</time>
      </trkpt>
      <trkpt lat="44.71685" lon="7.05782">
        <ele>2833.8</ele>
        <time>2026-09-03T07:40:39Z</time>
      </trkpt>
      <trkpt lat="44.71684" lon="7.05785">
        <ele>2834.3</ele>
        <time>2026-09-03T07:40:44Z</time>
      </trkpt>
      <trkpt lat="44.71684" lon="7.05786">
        <ele>2834.4</ele>
        <time>2026-09-03T07:40:50Z</time>
      </trkpt>
      <trkpt lat="44.71684" lon="7.05786">
        <ele>2834.4</ele>
        <time>2026-09-03T07:40:55Z</time>
      </trkpt>
      <trkpt lat="44.71684" lon="7.05786">
        <ele>2834.4</ele>
        <time>2026-09-03T07:41:00Z</time>
      </trkpt>
      <trkpt lat="44.71684" lon="7.05786">
        <ele>2834.4</ele>
        <time>2026-09-03T07:41:06Z</time>
      </trkpt>
      <trkpt lat="44.71684" lon="7.05786">
        <ele>2834.4</ele>
        <time>2026-09-03T07:41:11Z</time>
      </trkpt>
      <trkpt lat="44.71684" lon="7.05794">
        <ele>2835</ele>
        <time>2026-09-03T07:41:16Z</time>
      </trkpt>
      <trkpt lat="44.71685" lon="7.05796">
        <ele>2835</ele>
        <time>2026-09-03T07:41:22Z</time>
      </trkpt>
      <trkpt lat="44.71686" lon="7.05799">
        <ele>2835</ele>
        <time>2026-09-03T07:41:27Z</time>
      </trkpt>
      <trkpt lat="44.71686" lon="7.05801">
        <ele>2835.1</ele>
        <time>2026-09-03T07:41:32Z</time>
      </trkpt>
      <trkpt lat="44.71686" lon="7.05801">
        <ele>2835.1</ele>
        <time>2026-09-03T07:41:38Z</time>
      </trkpt>
      <trkpt lat="44.71686" lon="7.05801">
        <ele>2835.1</ele>
        <time>2026-09-03T07:41:43Z</time>
      </trkpt>
      <trkpt lat="44.71689" lon="7.05807">
        <ele>2834.9</ele>
        <time>2026-09-03T07:41:48Z</time>
      </trkpt>
      <trkpt lat="44.71689" lon="7.05811">
        <ele>2835.3</ele>
        <time>2026-09-03T07:41:54Z</time>
      </trkpt>
      <trkpt lat="44.7169" lon="7.05814">
        <ele>2835.3</ele>
        <time>2026-09-03T07:41:59Z</time>
      </trkpt>
      <trkpt lat="44.71689" lon="7.05816">
        <ele>2835.7</ele>
        <time>2026-09-03T07:42:04Z</time>
      </trkpt>
      <trkpt lat="44.71689" lon="7.05816">
        <ele>2835.7</ele>
        <time>2026-09-03T07:42:10Z</time>
      </trkpt>
      <trkpt lat="44.71689" lon="7.05816">
        <ele>2835.7</ele>
        <time>2026-09-03T07:42:15Z</time>
      </trkpt>
      <trkpt lat="44.71689" lon="7.05816">
        <ele>2835.7</ele>
        <time>2026-09-03T07:42:20Z</time>
      </trkpt>
      <trkpt lat="44.71689" lon="7.05816">
        <ele>2835.7</ele>
        <time>2026-09-03T07:42:26Z</time>
      </trkpt>
      <trkpt lat="44.71689" lon="7.05816">
        <ele>2835.7</ele>
        <time>2026-09-03T07:42:31Z</time>
      </trkpt>
      <trkpt lat="44.71689" lon="7.05816">
        <ele>2835.7</ele>
        <time>2026-09-03T07:42:36Z</time>
      </trkpt>
      <trkpt lat="44.71689" lon="7.05816">
        <ele>2835.7</ele>
        <time>2026-09-03T07:42:42Z</time>
      </trkpt>
      <trkpt lat="44.71689" lon="7.05816">
        <ele>2835.7</ele>
        <time>2026-09-03T07:42:47Z</time>
      </trkpt>
      <trkpt lat="44.71689" lon="7.05816">
        <ele>2835.7</ele>
        <time>2026-09-03T07:42:52Z</time>
      </trkpt>
      <trkpt lat="44.71689" lon="7.05816">
        <ele>2835.7</ele>
        <time>2026-09-03T07:42:58Z</time>
      </trkpt>
      <trkpt lat="44.71689" lon="7.05816">
        <ele>2835.7</ele>
        <time>2026-09-03T07:43:03Z</time>
      </trkpt>
      <trkpt lat="44.71689" lon="7.05816">
        <ele>2835.7</ele>
        <time>2026-09-03T07:43:08Z</time>
      </trkpt>
      <trkpt lat="44.71689" lon="7.05816">
        <ele>2835.7</ele>
        <time>2026-09-03T07:43:14Z</time>
      </trkpt>
      <trkpt lat="44.71689" lon="7.05816">
        <ele>2835.7</ele>
        <time>2026-09-03T07:43:19Z</time>
      </trkpt>
      <trkpt lat="44.71689" lon="7.05816">
        <ele>2835.7</ele>
        <time>2026-09-03T07:43:24Z</time>
      </trkpt>
      <trkpt lat="44.71689" lon="7.05816">
        <ele>2835.7</ele>
        <time>2026-09-03T07:43:30Z</time>
      </trkpt>
      <trkpt lat="44.71689" lon="7.05816">
        <ele>2835.7</ele>
        <time>2026-09-03T07:43:35Z</time>
      </trkpt>
      <trkpt lat="44.71689" lon="7.05816">
        <ele>2835.7</ele>
        <time>2026-09-03T07:43:40Z</time>
      </trkpt>
      <trkpt lat="44.71689" lon="7.05816">
        <ele>2835.7</ele>
        <time>2026-09-03T07:43:46Z</time>
      </trkpt>
      <trkpt lat="44.71679" lon="7.05825">
        <ele>2838.7</ele>
        <time>2026-09-03T07:43:51Z</time>
      </trkpt>
      <trkpt lat="44.71675" lon="7.05826">
        <ele>2839.6</ele>
        <time>2026-09-03T07:43:56Z</time>
      </trkpt>
      <trkpt lat="44.7167" lon="7.05827">
        <ele>2840.8</ele>
        <time>2026-09-03T07:44:02Z</time>
      </trkpt>
      <trkpt lat="44.71667" lon="7.0583">
        <ele>2841.7</ele>
        <time>2026-09-03T07:44:07Z</time>
      </trkpt>
      <trkpt lat="44.71667" lon="7.05832">
        <ele>2841.8</ele>
        <time>2026-09-03T07:44:12Z</time>
      </trkpt>
      <trkpt lat="44.71668" lon="7.05833">
        <ele>2841.7</ele>
        <time>2026-09-03T07:44:18Z</time>
      </trkpt>
      <trkpt lat="44.71668" lon="7.05833">
        <ele>2841.7</ele>
        <time>2026-09-03T07:44:23Z</time>
      </trkpt>
      <trkpt lat="44.71665" lon="7.05839">
        <ele>2842.9</ele>
        <time>2026-09-03T07:44:28Z</time>
      </trkpt>
      <trkpt lat="44.71663" lon="7.05841">
        <ele>2843.7</ele>
        <time>2026-09-03T07:44:34Z</time>
      </trkpt>
      <trkpt lat="44.71661" lon="7.05842">
        <ele>2844.3</ele>
        <time>2026-09-03T07:44:39Z</time>
      </trkpt>
      <trkpt lat="44.71659" lon="7.05843">
        <ele>2844.9</ele>
        <time>2026-09-03T07:44:44Z</time>
      </trkpt>
      <trkpt lat="44.71659" lon="7.05844">
        <ele>2845</ele>
        <time>2026-09-03T07:44:50Z</time>
      </trkpt>
      <trkpt lat="44.71659" lon="7.05844">
        <ele>2845</ele>
        <time>2026-09-03T07:44:55Z</time>
      </trkpt>
      <trkpt lat="44.71659" lon="7.05844">
        <ele>2845</ele>
        <time>2026-09-03T07:45:00Z</time>
      </trkpt>
      <trkpt lat="44.71659" lon="7.05844">
        <ele>2845</ele>
        <time>2026-09-03T07:45:06Z</time>
      </trkpt>
      <trkpt lat="44.71659" lon="7.05844">
        <ele>2845</ele>
        <time>2026-09-03T07:45:11Z</time>
      </trkpt>
      <trkpt lat="44.71659" lon="7.05844">
        <ele>2845</ele>
        <time>2026-09-03T07:45:16Z</time>
      </trkpt>
      <trkpt lat="44.71659" lon="7.05844">
        <ele>2845</ele>
        <time>2026-09-03T07:45:22Z</time>
      </trkpt>
      <trkpt lat="44.71659" lon="7.05844">
        <ele>2845</ele>
        <time>2026-09-03T07:45:27Z</time>
      </trkpt>
      <trkpt lat="44.71651" lon="7.05847">
        <ele>2847.3</ele>
        <time>2026-09-03T07:45:32Z</time>
      </trkpt>
      <trkpt lat="44.7165" lon="7.05846">
        <ele>2847.5</ele>
        <time>2026-09-03T07:45:38Z</time>
      </trkpt>
      <trkpt lat="44.7165" lon="7.05846">
        <ele>2847.5</ele>
        <time>2026-09-03T07:45:43Z</time>
      </trkpt>
      <trkpt lat="44.7165" lon="7.05846">
        <ele>2847.5</ele>
        <time>2026-09-03T07:45:48Z</time>
      </trkpt>
      <trkpt lat="44.7165" lon="7.05846">
        <ele>2847.5</ele>
        <time>2026-09-03T07:45:54Z</time>
      </trkpt>
      <trkpt lat="44.7165" lon="7.05846">
        <ele>2847.5</ele>
        <time>2026-09-03T07:45:59Z</time>
      </trkpt>
      <trkpt lat="44.7165" lon="7.05846">
        <ele>2847.5</ele>
        <time>2026-09-03T07:46:04Z</time>
      </trkpt>
      <trkpt lat="44.7165" lon="7.05846">
        <ele>2847.5</ele>
        <time>2026-09-03T07:46:10Z</time>
      </trkpt>
      <trkpt lat="44.7165" lon="7.05846">
        <ele>2847.5</ele>
        <time>2026-09-03T07:46:15Z</time>
      </trkpt>
      <trkpt lat="44.7165" lon="7.05846">
        <ele>2847.5</ele>
        <time>2026-09-03T07:46:20Z</time>
      </trkpt>
      <trkpt lat="44.7165" lon="7.05846">
        <ele>2847.5</ele>
        <time>2026-09-03T07:46:26Z</time>
      </trkpt>
      <trkpt lat="44.71641" lon="7.05851">
        <ele>2850.2</ele>
        <time>2026-09-03T07:46:31Z</time>
      </trkpt>
      <trkpt lat="44.71639" lon="7.05852">
        <ele>2850.7</ele>
        <time>2026-09-03T07:46:36Z</time>
      </trkpt>
      <trkpt lat="44.71637" lon="7.05852">
        <ele>2851.2</ele>
        <time>2026-09-03T07:46:42Z</time>
      </trkpt>
      <trkpt lat="44.71634" lon="7.05852">
        <ele>2852</ele>
        <time>2026-09-03T07:46:47Z</time>
      </trkpt>
      <trkpt lat="44.71632" lon="7.05854">
        <ele>2852.6</ele>
        <time>2026-09-03T07:46:52Z</time>
      </trkpt>
      <trkpt lat="44.71629" lon="7.05856">
        <ele>2853.4</ele>
        <time>2026-09-03T07:46:58Z</time>
      </trkpt>
      <trkpt lat="44.71625" lon="7.05857">
        <ele>2854.4</ele>
        <time>2026-09-03T07:47:03Z</time>
      </trkpt>
      <trkpt lat="44.71624" lon="7.05855">
        <ele>2854.6</ele>
        <time>2026-09-03T07:47:08Z</time>
      </trkpt>
      <trkpt lat="44.71623" lon="7.05855">
        <ele>2854.9</ele>
        <time>2026-09-03T07:47:14Z</time>
      </trkpt>
      <trkpt lat="44.71621" lon="7.05853">
        <ele>2855.4</ele>
        <time>2026-09-03T07:47:19Z</time>
      </trkpt>
      <trkpt lat="44.71618" lon="7.05853">
        <ele>2856.2</ele>
        <time>2026-09-03T07:47:24Z</time>
      </trkpt>
      <trkpt lat="44.71614" lon="7.05853">
        <ele>2857.2</ele>
        <time>2026-09-03T07:47:30Z</time>
      </trkpt>
      <trkpt lat="44.71611" lon="7.05851">
        <ele>2858</ele>
        <time>2026-09-03T07:47:35Z</time>
      </trkpt>
      <trkpt lat="44.71608" lon="7.05847">
        <ele>2858.8</ele>
        <time>2026-09-03T07:47:40Z</time>
      </trkpt>
      <trkpt lat="44.71604" lon="7.05844">
        <ele>2859.9</ele>
        <time>2026-09-03T07:47:46Z</time>
      </trkpt>
      <trkpt lat="44.716" lon="7.05843">
        <ele>2861</ele>
        <time>2026-09-03T07:47:51Z</time>
      </trkpt>
      <trkpt lat="44.71597" lon="7.05842">
        <ele>2861.8</ele>
        <time>2026-09-03T07:47:56Z</time>
      </trkpt>
      <trkpt lat="44.71593" lon="7.0584">
        <ele>2863</ele>
        <time>2026-09-03T07:48:02Z</time>
      </trkpt>
      <trkpt lat="44.71591" lon="7.05837">
        <ele>2863.7</ele>
        <time>2026-09-03T07:48:07Z</time>
      </trkpt>
      <trkpt lat="44.71587" lon="7.05837">
        <ele>2864.8</ele>
        <time>2026-09-03T07:48:12Z</time>
      </trkpt>
      <trkpt lat="44.71584" lon="7.05837">
        <ele>2865.6</ele>
        <time>2026-09-03T07:48:18Z</time>
      </trkpt>
      <trkpt lat="44.71581" lon="7.05837">
        <ele>2865.5</ele>
        <time>2026-09-03T07:48:23Z</time>
      </trkpt>
      <trkpt lat="44.71578" lon="7.05838">
        <ele>2865.1</ele>
        <time>2026-09-03T07:48:28Z</time>
      </trkpt>
      <trkpt lat="44.71575" lon="7.05841">
        <ele>2864.5</ele>
        <time>2026-09-03T07:48:34Z</time>
      </trkpt>
      <trkpt lat="44.71575" lon="7.05841">
        <ele>2864.5</ele>
        <time>2026-09-03T07:48:39Z</time>
      </trkpt>
      <trkpt lat="44.71575" lon="7.05841">
        <ele>2864.5</ele>
        <time>2026-09-03T07:48:44Z</time>
      </trkpt>
      <trkpt lat="44.71575" lon="7.05841">
        <ele>2864.5</ele>
        <time>2026-09-03T07:48:50Z</time>
      </trkpt>
      <trkpt lat="44.71575" lon="7.05841">
        <ele>2864.5</ele>
        <time>2026-09-03T07:48:55Z</time>
      </trkpt>
      <trkpt lat="44.71575" lon="7.05841">
        <ele>2864.5</ele>
        <time>2026-09-03T07:49:00Z</time>
      </trkpt>
      <trkpt lat="44.71575" lon="7.05841">
        <ele>2864.5</ele>
        <time>2026-09-03T07:49:06Z</time>
      </trkpt>
      <trkpt lat="44.71575" lon="7.05841">
        <ele>2864.5</ele>
        <time>2026-09-03T07:49:11Z</time>
      </trkpt>
      <trkpt lat="44.71575" lon="7.05841">
        <ele>2864.5</ele>
        <time>2026-09-03T07:49:16Z</time>
      </trkpt>
      <trkpt lat="44.71564" lon="7.0584">
        <ele>2863.2</ele>
        <time>2026-09-03T07:49:22Z</time>
      </trkpt>
      <trkpt lat="44.71561" lon="7.0584">
        <ele>2862.8</ele>
        <time>2026-09-03T07:49:27Z</time>
      </trkpt>
      <trkpt lat="44.71557" lon="7.05841">
        <ele>2862.2</ele>
        <time>2026-09-03T07:49:32Z</time>
      </trkpt>
      <trkpt lat="44.71552" lon="7.05845">
        <ele>2861.2</ele>
        <time>2026-09-03T07:49:38Z</time>
      </trkpt>
      <trkpt lat="44.7155" lon="7.05846">
        <ele>2860.8</ele>
        <time>2026-09-03T07:49:43Z</time>
      </trkpt>
      <trkpt lat="44.71549" lon="7.05845">
        <ele>2860.8</ele>
        <time>2026-09-03T07:49:48Z</time>
      </trkpt>
      <trkpt lat="44.71549" lon="7.05845">
        <ele>2860.8</ele>
        <time>2026-09-03T07:49:54Z</time>
      </trkpt>
      <trkpt lat="44.71549" lon="7.05845">
        <ele>2860.8</ele>
        <time>2026-09-03T07:49:59Z</time>
      </trkpt>
      <trkpt lat="44.71549" lon="7.05845">
        <ele>2860.8</ele>
        <time>2026-09-03T07:50:04Z</time>
      </trkpt>
      <trkpt lat="44.71549" lon="7.05845">
        <ele>2860.8</ele>
        <time>2026-09-03T07:50:10Z</time>
      </trkpt>
      <trkpt lat="44.71549" lon="7.05845">
        <ele>2860.8</ele>
        <time>2026-09-03T07:50:15Z</time>
      </trkpt>
      <trkpt lat="44.71549" lon="7.05845">
        <ele>2860.8</ele>
        <time>2026-09-03T07:50:20Z</time>
      </trkpt>
      <trkpt lat="44.71549" lon="7.05845">
        <ele>2860.8</ele>
        <time>2026-09-03T07:50:26Z</time>
      </trkpt>
      <trkpt lat="44.71549" lon="7.05845">
        <ele>2860.8</ele>
        <time>2026-09-03T07:50:31Z</time>
      </trkpt>
      <trkpt lat="44.71549" lon="7.05845">
        <ele>2860.8</ele>
        <time>2026-09-03T07:50:36Z</time>
      </trkpt>
      <trkpt lat="44.71549" lon="7.05845">
        <ele>2860.8</ele>
        <time>2026-09-03T07:50:42Z</time>
      </trkpt>
      <trkpt lat="44.71549" lon="7.05845">
        <ele>2860.8</ele>
        <time>2026-09-03T07:50:47Z</time>
      </trkpt>
      <trkpt lat="44.71549" lon="7.05845">
        <ele>2860.8</ele>
        <time>2026-09-03T07:50:52Z</time>
      </trkpt>
      <trkpt lat="44.71549" lon="7.05845">
        <ele>2860.8</ele>
        <time>2026-09-03T07:50:58Z</time>
      </trkpt>
      <trkpt lat="44.71549" lon="7.05845">
        <ele>2860.8</ele>
        <time>2026-09-03T07:51:03Z</time>
      </trkpt>
      <trkpt lat="44.71547" lon="7.05843">
        <ele>2860.7</ele>
        <time>2026-09-03T07:51:08Z</time>
      </trkpt>
      <trkpt lat="44.71547" lon="7.05843">
        <ele>2860.7</ele>
        <time>2026-09-03T07:51:14Z</time>
      </trkpt>
      <trkpt lat="44.71547" lon="7.05843">
        <ele>2860.7</ele>
        <time>2026-09-03T07:51:19Z</time>
      </trkpt>
      <trkpt lat="44.71547" lon="7.05843">
        <ele>2860.7</ele>
        <time>2026-09-03T07:51:24Z</time>
      </trkpt>
      <trkpt lat="44.71547" lon="7.05843">
        <ele>2860.7</ele>
        <time>2026-09-03T07:51:30Z</time>
      </trkpt>
      <trkpt lat="44.71547" lon="7.05843">
        <ele>2860.7</ele>
        <time>2026-09-03T07:51:35Z</time>
      </trkpt>
      <trkpt lat="44.71537" lon="7.05848">
        <ele>2858.9</ele>
        <time>2026-09-03T07:51:40Z</time>
      </trkpt>
      <trkpt lat="44.71537" lon="7.05848">
        <ele>2858.9</ele>
        <time>2026-09-03T07:51:46Z</time>
      </trkpt>
      <trkpt lat="44.71537" lon="7.05848">
        <ele>2858.9</ele>
        <time>2026-09-03T07:51:51Z</time>
      </trkpt>
      <trkpt lat="44.71537" lon="7.05848">
        <ele>2858.9</ele>
        <time>2026-09-03T07:51:56Z</time>
      </trkpt>
      <trkpt lat="44.71537" lon="7.05848">
        <ele>2858.9</ele>
        <time>2026-09-03T07:52:02Z</time>
      </trkpt>
      <trkpt lat="44.71533" lon="7.05837">
        <ele>2859.5</ele>
        <time>2026-09-03T07:52:07Z</time>
      </trkpt>
      <trkpt lat="44.71529" lon="7.05835">
        <ele>2859.3</ele>
        <time>2026-09-03T07:52:12Z</time>
      </trkpt>
      <trkpt lat="44.71527" lon="7.05835">
        <ele>2859</ele>
        <time>2026-09-03T07:52:18Z</time>
      </trkpt>
      <trkpt lat="44.71527" lon="7.05835">
        <ele>2859</ele>
        <time>2026-09-03T07:52:23Z</time>
      </trkpt>
      <trkpt lat="44.71525" lon="7.05833">
        <ele>2858.9</ele>
        <time>2026-09-03T07:52:28Z</time>
      </trkpt>
      <trkpt lat="44.71522" lon="7.05829">
        <ele>2857.8</ele>
        <time>2026-09-03T07:52:34Z</time>
      </trkpt>
      <trkpt lat="44.71521" lon="7.05826">
        <ele>2857</ele>
        <time>2026-09-03T07:52:39Z</time>
      </trkpt>
      <trkpt lat="44.71521" lon="7.05823">
        <ele>2856.4</ele>
        <time>2026-09-03T07:52:44Z</time>
      </trkpt>
      <trkpt lat="44.7152" lon="7.0582">
        <ele>2855.6</ele>
        <time>2026-09-03T07:52:50Z</time>
      </trkpt>
      <trkpt lat="44.71519" lon="7.05817">
        <ele>2854.8</ele>
        <time>2026-09-03T07:52:55Z</time>
      </trkpt>
      <trkpt lat="44.71519" lon="7.05817">
        <ele>2854.8</ele>
        <time>2026-09-03T07:53:00Z</time>
      </trkpt>
      <trkpt lat="44.71519" lon="7.05817">
        <ele>2854.8</ele>
        <time>2026-09-03T07:53:06Z</time>
      </trkpt>
      <trkpt lat="44.71519" lon="7.05817">
        <ele>2854.8</ele>
        <time>2026-09-03T07:53:11Z</time>
      </trkpt>
      <trkpt lat="44.71519" lon="7.05817">
        <ele>2854.8</ele>
        <time>2026-09-03T07:53:16Z</time>
      </trkpt>
      <trkpt lat="44.71519" lon="7.05817">
        <ele>2854.8</ele>
        <time>2026-09-03T07:53:22Z</time>
      </trkpt>
      <trkpt lat="44.71519" lon="7.05817">
        <ele>2854.8</ele>
        <time>2026-09-03T07:53:27Z</time>
      </trkpt>
      <trkpt lat="44.71519" lon="7.05817">
        <ele>2854.8</ele>
        <time>2026-09-03T07:53:32Z</time>
      </trkpt>
      <trkpt lat="44.71519" lon="7.05817">
        <ele>2854.8</ele>
        <time>2026-09-03T07:53:38Z</time>
      </trkpt>
      <trkpt lat="44.71519" lon="7.05817">
        <ele>2854.8</ele>
        <time>2026-09-03T07:53:43Z</time>
      </trkpt>
      <trkpt lat="44.71519" lon="7.05817">
        <ele>2854.8</ele>
        <time>2026-09-03T07:53:48Z</time>
      </trkpt>
      <trkpt lat="44.71519" lon="7.05817">
        <ele>2854.8</ele>
        <time>2026-09-03T07:53:54Z</time>
      </trkpt>
      <trkpt lat="44.71519" lon="7.05817">
        <ele>2854.8</ele>
        <time>2026-09-03T07:53:59Z</time>
      </trkpt>
      <trkpt lat="44.71507" lon="7.05815">
        <ele>2852.4</ele>
        <time>2026-09-03T07:54:04Z</time>
      </trkpt>
      <trkpt lat="44.71506" lon="7.05818">
        <ele>2852.9</ele>
        <time>2026-09-03T07:54:10Z</time>
      </trkpt>
      <trkpt lat="44.71506" lon="7.05819">
        <ele>2853.2</ele>
        <time>2026-09-03T07:54:15Z</time>
      </trkpt>
      <trkpt lat="44.71506" lon="7.05819">
        <ele>2853.2</ele>
        <time>2026-09-03T07:54:20Z</time>
      </trkpt>
      <trkpt lat="44.71506" lon="7.05819">
        <ele>2853.2</ele>
        <time>2026-09-03T07:54:26Z</time>
      </trkpt>
      <trkpt lat="44.71506" lon="7.05819">
        <ele>2853.2</ele>
        <time>2026-09-03T07:54:31Z</time>
      </trkpt>
      <trkpt lat="44.71506" lon="7.05819">
        <ele>2853.2</ele>
        <time>2026-09-03T07:54:36Z</time>
      </trkpt>
      <trkpt lat="44.71506" lon="7.05819">
        <ele>2853.2</ele>
        <time>2026-09-03T07:54:42Z</time>
      </trkpt>
      <trkpt lat="44.71506" lon="7.05819">
        <ele>2853.2</ele>
        <time>2026-09-03T07:54:47Z</time>
      </trkpt>
      <trkpt lat="44.71506" lon="7.05819">
        <ele>2853.2</ele>
        <time>2026-09-03T07:54:52Z</time>
      </trkpt>
      <trkpt lat="44.71506" lon="7.05819">
        <ele>2853.2</ele>
        <time>2026-09-03T07:54:58Z</time>
      </trkpt>
      <trkpt lat="44.71506" lon="7.05819">
        <ele>2853.2</ele>
        <time>2026-09-03T07:55:03Z</time>
      </trkpt>
      <trkpt lat="44.71506" lon="7.05819">
        <ele>2853.2</ele>
        <time>2026-09-03T07:55:08Z</time>
      </trkpt>
      <trkpt lat="44.71506" lon="7.05819">
        <ele>2853.2</ele>
        <time>2026-09-03T07:55:14Z</time>
      </trkpt>
      <trkpt lat="44.71506" lon="7.05819">
        <ele>2853.2</ele>
        <time>2026-09-03T07:55:19Z</time>
      </trkpt>
      <trkpt lat="44.71506" lon="7.05819">
        <ele>2853.2</ele>
        <time>2026-09-03T07:55:24Z</time>
      </trkpt>
      <trkpt lat="44.71506" lon="7.05819">
        <ele>2853.2</ele>
        <time>2026-09-03T07:55:30Z</time>
      </trkpt>
      <trkpt lat="44.71506" lon="7.05819">
        <ele>2853.2</ele>
        <time>2026-09-03T07:55:35Z</time>
      </trkpt>
      <trkpt lat="44.71506" lon="7.05819">
        <ele>2853.2</ele>
        <time>2026-09-03T07:55:40Z</time>
      </trkpt>
      <trkpt lat="44.71506" lon="7.05819">
        <ele>2853.2</ele>
        <time>2026-09-03T07:55:46Z</time>
      </trkpt>
      <trkpt lat="44.71506" lon="7.05819">
        <ele>2853.2</ele>
        <time>2026-09-03T07:55:51Z</time>
      </trkpt>
      <trkpt lat="44.71506" lon="7.05819">
        <ele>2853.2</ele>
        <time>2026-09-03T07:55:56Z</time>
      </trkpt>
      <trkpt lat="44.71506" lon="7.05819">
        <ele>2853.2</ele>
        <time>2026-09-03T07:56:02Z</time>
      </trkpt>
      <trkpt lat="44.71506" lon="7.05819">
        <ele>2853.2</ele>
        <time>2026-09-03T07:56:07Z</time>
      </trkpt>
      <trkpt lat="44.71506" lon="7.05819">
        <ele>2853.2</ele>
        <time>2026-09-03T07:56:12Z</time>
      </trkpt>
      <trkpt lat="44.71506" lon="7.05819">
        <ele>2853.2</ele>
        <time>2026-09-03T07:56:18Z</time>
      </trkpt>
      <trkpt lat="44.71506" lon="7.05819">
        <ele>2853.2</ele>
        <time>2026-09-03T07:56:23Z</time>
      </trkpt>
      <trkpt lat="44.71506" lon="7.05819">
        <ele>2853.2</ele>
        <time>2026-09-03T07:56:28Z</time>
      </trkpt>
      <trkpt lat="44.71498" lon="7.0581">
        <ele>2848.4</ele>
        <time>2026-09-03T07:56:34Z</time>
      </trkpt>
      <trkpt lat="44.71498" lon="7.0581">
        <ele>2848.4</ele>
        <time>2026-09-03T07:56:39Z</time>
      </trkpt>
      <trkpt lat="44.71498" lon="7.0581">
        <ele>2848.4</ele>
        <time>2026-09-03T07:56:44Z</time>
      </trkpt>
      <trkpt lat="44.71498" lon="7.0581">
        <ele>2848.4</ele>
        <time>2026-09-03T07:56:50Z</time>
      </trkpt>
      <trkpt lat="44.71498" lon="7.0581">
        <ele>2848.4</ele>
        <time>2026-09-03T07:56:55Z</time>
      </trkpt>
      <trkpt lat="44.71498" lon="7.0581">
        <ele>2848.4</ele>
        <time>2026-09-03T07:57:00Z</time>
      </trkpt>
      <trkpt lat="44.71498" lon="7.0581">
        <ele>2848.4</ele>
        <time>2026-09-03T07:57:06Z</time>
      </trkpt>
      <trkpt lat="44.71498" lon="7.0581">
        <ele>2848.4</ele>
        <time>2026-09-03T07:57:11Z</time>
      </trkpt>
      <trkpt lat="44.71498" lon="7.0581">
        <ele>2848.4</ele>
        <time>2026-09-03T07:57:16Z</time>
      </trkpt>
      <trkpt lat="44.71498" lon="7.0581">
        <ele>2848.4</ele>
        <time>2026-09-03T07:57:22Z</time>
      </trkpt>
      <trkpt lat="44.71498" lon="7.0581">
        <ele>2848.4</ele>
        <time>2026-09-03T07:57:27Z</time>
      </trkpt>
      <trkpt lat="44.71498" lon="7.0581">
        <ele>2848.4</ele>
        <time>2026-09-03T07:57:32Z</time>
      </trkpt>
      <trkpt lat="44.71498" lon="7.0581">
        <ele>2848.4</ele>
        <time>2026-09-03T07:57:38Z</time>
      </trkpt>
      <trkpt lat="44.71498" lon="7.0581">
        <ele>2848.4</ele>
        <time>2026-09-03T07:57:43Z</time>
      </trkpt>
      <trkpt lat="44.71498" lon="7.0581">
        <ele>2848.4</ele>
        <time>2026-09-03T07:57:48Z</time>
      </trkpt>
      <trkpt lat="44.71498" lon="7.0581">
        <ele>2848.4</ele>
        <time>2026-09-03T07:57:54Z</time>
      </trkpt>
      <trkpt lat="44.71498" lon="7.0581">
        <ele>2848.4</ele>
        <time>2026-09-03T07:57:59Z</time>
      </trkpt>
      <trkpt lat="44.71498" lon="7.0581">
        <ele>2848.4</ele>
        <time>2026-09-03T07:58:04Z</time>
      </trkpt>
      <trkpt lat="44.71498" lon="7.0581">
        <ele>2848.4</ele>
        <time>2026-09-03T07:58:10Z</time>
      </trkpt>
      <trkpt lat="44.71498" lon="7.0581">
        <ele>2848.4</ele>
        <time>2026-09-03T07:58:15Z</time>
      </trkpt>
      <trkpt lat="44.71498" lon="7.0581">
        <ele>2848.4</ele>
        <time>2026-09-03T07:58:20Z</time>
      </trkpt>
      <trkpt lat="44.71498" lon="7.0581">
        <ele>2848.4</ele>
        <time>2026-09-03T07:58:26Z</time>
      </trkpt>
      <trkpt lat="44.71498" lon="7.0581">
        <ele>2848.4</ele>
        <time>2026-09-03T07:58:31Z</time>
      </trkpt>
      <trkpt lat="44.71498" lon="7.0581">
        <ele>2848.4</ele>
        <time>2026-09-03T07:58:36Z</time>
      </trkpt>
      <trkpt lat="44.71498" lon="7.0581">
        <ele>2848.4</ele>
        <time>2026-09-03T07:58:42Z</time>
      </trkpt>
      <trkpt lat="44.71498" lon="7.0581">
        <ele>2848.4</ele>
        <time>2026-09-03T07:58:47Z</time>
      </trkpt>
      <trkpt lat="44.71498" lon="7.0581">
        <ele>2848.4</ele>
        <time>2026-09-03T07:58:52Z</time>
      </trkpt>
      <trkpt lat="44.71498" lon="7.0581">
        <ele>2848.4</ele>
        <time>2026-09-03T07:58:58Z</time>
      </trkpt>
      <trkpt lat="44.71498" lon="7.0581">
        <ele>2848.4</ele>
        <time>2026-09-03T07:59:03Z</time>
      </trkpt>
      <trkpt lat="44.71488" lon="7.05815">
        <ele>2842.5</ele>
        <time>2026-09-03T07:59:08Z</time>
      </trkpt>
      <trkpt lat="44.71488" lon="7.05815">
        <ele>2842.5</ele>
        <time>2026-09-03T07:59:14Z</time>
      </trkpt>
      <trkpt lat="44.71488" lon="7.05815">
        <ele>2842.5</ele>
        <time>2026-09-03T07:59:19Z</time>
      </trkpt>
      <trkpt lat="44.71488" lon="7.05815">
        <ele>2842.5</ele>
        <time>2026-09-03T07:59:24Z</time>
      </trkpt>
      <trkpt lat="44.71488" lon="7.05815">
        <ele>2842.5</ele>
        <time>2026-09-03T07:59:30Z</time>
      </trkpt>
      <trkpt lat="44.71488" lon="7.05815">
        <ele>2842.5</ele>
        <time>2026-09-03T07:59:35Z</time>
      </trkpt>
      <trkpt lat="44.71488" lon="7.05815">
        <ele>2842.5</ele>
        <time>2026-09-03T07:59:40Z</time>
      </trkpt>
      <trkpt lat="44.71488" lon="7.05815">
        <ele>2842.5</ele>
        <time>2026-09-03T07:59:46Z</time>
      </trkpt>
      <trkpt lat="44.71488" lon="7.05815">
        <ele>2842.5</ele>
        <time>2026-09-03T07:59:51Z</time>
      </trkpt>
      <trkpt lat="44.71488" lon="7.05815">
        <ele>2842.5</ele>
        <time>2026-09-03T07:59:56Z</time>
      </trkpt>
      <trkpt lat="44.71488" lon="7.05815">
        <ele>2842.5</ele>
        <time>2026-09-03T08:00:02Z</time>
      </trkpt>
      <trkpt lat="44.71479" lon="7.05818">
        <ele>2836.7</ele>
        <time>2026-09-03T08:00:07Z</time>
      </trkpt>
      <trkpt lat="44.71478" lon="7.05817">
        <ele>2835.7</ele>
        <time>2026-09-03T08:00:12Z</time>
      </trkpt>
      <trkpt lat="44.71478" lon="7.05817">
        <ele>2835.7</ele>
        <time>2026-09-03T08:00:18Z</time>
      </trkpt>
      <trkpt lat="44.71478" lon="7.05817">
        <ele>2835.7</ele>
        <time>2026-09-03T08:00:23Z</time>
      </trkpt>
      <trkpt lat="44.71478" lon="7.05817">
        <ele>2835.7</ele>
        <time>2026-09-03T08:00:28Z</time>
      </trkpt>
      <trkpt lat="44.71478" lon="7.05817">
        <ele>2835.7</ele>
        <time>2026-09-03T08:00:34Z</time>
      </trkpt>
      <trkpt lat="44.71478" lon="7.05817">
        <ele>2835.7</ele>
        <time>2026-09-03T08:00:39Z</time>
      </trkpt>
      <trkpt lat="44.71478" lon="7.05817">
        <ele>2835.7</ele>
        <time>2026-09-03T08:00:44Z</time>
      </trkpt>
      <trkpt lat="44.71478" lon="7.05817">
        <ele>2835.7</ele>
        <time>2026-09-03T08:00:50Z</time>
      </trkpt>
      <trkpt lat="44.71478" lon="7.05817">
        <ele>2835.7</ele>
        <time>2026-09-03T08:00:55Z</time>
      </trkpt>
      <trkpt lat="44.71478" lon="7.05817">
        <ele>2835.7</ele>
        <time>2026-09-03T08:01:00Z</time>
      </trkpt>
      <trkpt lat="44.71478" lon="7.05817">
        <ele>2835.7</ele>
        <time>2026-09-03T08:01:06Z</time>
      </trkpt>
      <trkpt lat="44.71478" lon="7.05817">
        <ele>2835.7</ele>
        <time>2026-09-03T08:01:11Z</time>
      </trkpt>
      <trkpt lat="44.71478" lon="7.05817">
        <ele>2835.7</ele>
        <time>2026-09-03T08:01:16Z</time>
      </trkpt>
      <trkpt lat="44.71478" lon="7.05817">
        <ele>2835.7</ele>
        <time>2026-09-03T08:01:22Z</time>
      </trkpt>
      <trkpt lat="44.71478" lon="7.05817">
        <ele>2835.7</ele>
        <time>2026-09-03T08:01:27Z</time>
      </trkpt>
      <trkpt lat="44.71478" lon="7.05817">
        <ele>2835.7</ele>
        <time>2026-09-03T08:01:32Z</time>
      </trkpt>
      <trkpt lat="44.71478" lon="7.05817">
        <ele>2835.7</ele>
        <time>2026-09-03T08:01:38Z</time>
      </trkpt>
      <trkpt lat="44.71478" lon="7.05817">
        <ele>2835.7</ele>
        <time>2026-09-03T08:01:43Z</time>
      </trkpt>
      <trkpt lat="44.71478" lon="7.05817">
        <ele>2835.7</ele>
        <time>2026-09-03T08:01:48Z</time>
      </trkpt>
      <trkpt lat="44.71478" lon="7.05817">
        <ele>2835.7</ele>
        <time>2026-09-03T08:01:54Z</time>
      </trkpt>
      <trkpt lat="44.71478" lon="7.05817">
        <ele>2835.7</ele>
        <time>2026-09-03T08:01:59Z</time>
      </trkpt>
      <trkpt lat="44.71478" lon="7.05817">
        <ele>2835.7</ele>
        <time>2026-09-03T08:02:04Z</time>
      </trkpt>
      <trkpt lat="44.71478" lon="7.05817">
        <ele>2835.7</ele>
        <time>2026-09-03T08:02:10Z</time>
      </trkpt>
      <trkpt lat="44.71478" lon="7.05817">
        <ele>2835.7</ele>
        <time>2026-09-03T08:02:15Z</time>
      </trkpt>
      <trkpt lat="44.71468" lon="7.05815">
        <ele>2828.1</ele>
        <time>2026-09-03T08:02:20Z</time>
      </trkpt>
      <trkpt lat="44.71468" lon="7.05815">
        <ele>2828.1</ele>
        <time>2026-09-03T08:02:26Z</time>
      </trkpt>
      <trkpt lat="44.71463" lon="7.05813">
        <ele>2824.2</ele>
        <time>2026-09-03T08:02:31Z</time>
      </trkpt>
      <trkpt lat="44.71463" lon="7.05813">
        <ele>2824.2</ele>
        <time>2026-09-03T08:02:36Z</time>
      </trkpt>
      <trkpt lat="44.71463" lon="7.05813">
        <ele>2824.2</ele>
        <time>2026-09-03T08:02:42Z</time>
      </trkpt>
      <trkpt lat="44.71463" lon="7.05813">
        <ele>2824.2</ele>
        <time>2026-09-03T08:02:47Z</time>
      </trkpt>
      <trkpt lat="44.71463" lon="7.05813">
        <ele>2824.2</ele>
        <time>2026-09-03T08:02:52Z</time>
      </trkpt>
      <trkpt lat="44.71463" lon="7.05813">
        <ele>2824.2</ele>
        <time>2026-09-03T08:02:58Z</time>
      </trkpt>
      <trkpt lat="44.71463" lon="7.05813">
        <ele>2824.2</ele>
        <time>2026-09-03T08:03:03Z</time>
      </trkpt>
      <trkpt lat="44.71463" lon="7.05813">
        <ele>2824.2</ele>
        <time>2026-09-03T08:03:08Z</time>
      </trkpt>
      <trkpt lat="44.71463" lon="7.05813">
        <ele>2824.2</ele>
        <time>2026-09-03T08:03:14Z</time>
      </trkpt>
      <trkpt lat="44.71463" lon="7.05813">
        <ele>2824.2</ele>
        <time>2026-09-03T08:03:19Z</time>
      </trkpt>
      <trkpt lat="44.71463" lon="7.05813">
        <ele>2824.2</ele>
        <time>2026-09-03T08:03:24Z</time>
      </trkpt>
      <trkpt lat="44.71463" lon="7.05813">
        <ele>2824.2</ele>
        <time>2026-09-03T08:03:30Z</time>
      </trkpt>
      <trkpt lat="44.71463" lon="7.05813">
        <ele>2824.2</ele>
        <time>2026-09-03T08:03:35Z</time>
      </trkpt>
      <trkpt lat="44.71463" lon="7.05813">
        <ele>2824.2</ele>
        <time>2026-09-03T08:03:40Z</time>
      </trkpt>
      <trkpt lat="44.71463" lon="7.05813">
        <ele>2824.2</ele>
        <time>2026-09-03T08:03:46Z</time>
      </trkpt>
      <trkpt lat="44.71463" lon="7.05813">
        <ele>2824.2</ele>
        <time>2026-09-03T08:03:51Z</time>
      </trkpt>
      <trkpt lat="44.71463" lon="7.05813">
        <ele>2824.2</ele>
        <time>2026-09-03T08:03:56Z</time>
      </trkpt>
      <trkpt lat="44.71459" lon="7.05814">
        <ele>2821.5</ele>
        <time>2026-09-03T08:04:02Z</time>
      </trkpt>
      <trkpt lat="44.71459" lon="7.05814">
        <ele>2821.5</ele>
        <time>2026-09-03T08:04:07Z</time>
      </trkpt>
      <trkpt lat="44.71456" lon="7.05813">
        <ele>2819.2</ele>
        <time>2026-09-03T08:04:12Z</time>
      </trkpt>
      <trkpt lat="44.71452" lon="7.05814">
        <ele>2816.4</ele>
        <time>2026-09-03T08:04:18Z</time>
      </trkpt>
      <trkpt lat="44.71449" lon="7.05815">
        <ele>2814.4</ele>
        <time>2026-09-03T08:04:23Z</time>
      </trkpt>
      <trkpt lat="44.71447" lon="7.05813">
        <ele>2812.7</ele>
        <time>2026-09-03T08:04:28Z</time>
      </trkpt>
      <trkpt lat="44.71445" lon="7.0581">
        <ele>2810.9</ele>
        <time>2026-09-03T08:04:34Z</time>
      </trkpt>
      <trkpt lat="44.71443" lon="7.0581">
        <ele>2809.5</ele>
        <time>2026-09-03T08:04:39Z</time>
      </trkpt>
      <trkpt lat="44.71443" lon="7.0581">
        <ele>2809.5</ele>
        <time>2026-09-03T08:04:44Z</time>
      </trkpt>
      <trkpt lat="44.71443" lon="7.0581">
        <ele>2809.5</ele>
        <time>2026-09-03T08:04:50Z</time>
      </trkpt>
      <trkpt lat="44.71443" lon="7.0581">
        <ele>2809.5</ele>
        <time>2026-09-03T08:04:55Z</time>
      </trkpt>
      <trkpt lat="44.71443" lon="7.0581">
        <ele>2809.5</ele>
        <time>2026-09-03T08:05:00Z</time>
      </trkpt>
      <trkpt lat="44.71443" lon="7.0581">
        <ele>2809.5</ele>
        <time>2026-09-03T08:05:06Z</time>
      </trkpt>
      <trkpt lat="44.71443" lon="7.0581">
        <ele>2809.5</ele>
        <time>2026-09-03T08:05:11Z</time>
      </trkpt>
      <trkpt lat="44.71443" lon="7.0581">
        <ele>2809.5</ele>
        <time>2026-09-03T08:05:16Z</time>
      </trkpt>
      <trkpt lat="44.71443" lon="7.0581">
        <ele>2809.5</ele>
        <time>2026-09-03T08:05:22Z</time>
      </trkpt>
      <trkpt lat="44.71443" lon="7.0581">
        <ele>2809.5</ele>
        <time>2026-09-03T08:05:27Z</time>
      </trkpt>
      <trkpt lat="44.71443" lon="7.0581">
        <ele>2809.5</ele>
        <time>2026-09-03T08:05:32Z</time>
      </trkpt>
      <trkpt lat="44.71443" lon="7.0581">
        <ele>2809.5</ele>
        <time>2026-09-03T08:05:38Z</time>
      </trkpt>
      <trkpt lat="44.71443" lon="7.0581">
        <ele>2809.5</ele>
        <time>2026-09-03T08:05:43Z</time>
      </trkpt>
      <trkpt lat="44.71443" lon="7.0581">
        <ele>2809.5</ele>
        <time>2026-09-03T08:05:48Z</time>
      </trkpt>
      <trkpt lat="44.71447" lon="7.05817">
        <ele>2813.2</ele>
        <time>2026-09-03T08:05:54Z</time>
      </trkpt>
      <trkpt lat="44.71447" lon="7.05817">
        <ele>2813.2</ele>
        <time>2026-09-03T08:05:59Z</time>
      </trkpt>
      <trkpt lat="44.71447" lon="7.05817">
        <ele>2813.2</ele>
        <time>2026-09-03T08:06:04Z</time>
      </trkpt>
      <trkpt lat="44.71454" lon="7.05816">
        <ele>2818.2</ele>
        <time>2026-09-03T08:06:10Z</time>
      </trkpt>
      <trkpt lat="44.71456" lon="7.05815">
        <ele>2819.5</ele>
        <time>2026-09-03T08:06:15Z</time>
      </trkpt>
      <trkpt lat="44.71457" lon="7.05814">
        <ele>2820</ele>
        <time>2026-09-03T08:06:20Z</time>
      </trkpt>
      <trkpt lat="44.71457" lon="7.05814">
        <ele>2820</ele>
        <time>2026-09-03T08:06:26Z</time>
      </trkpt>
      <trkpt lat="44.71457" lon="7.05814">
        <ele>2820</ele>
        <time>2026-09-03T08:06:31Z</time>
      </trkpt>
      <trkpt lat="44.71457" lon="7.05814">
        <ele>2820</ele>
        <time>2026-09-03T08:06:36Z</time>
      </trkpt>
      <trkpt lat="44.71465" lon="7.05814">
        <ele>2825.8</ele>
        <time>2026-09-03T08:06:42Z</time>
      </trkpt>
      <trkpt lat="44.71466" lon="7.05814">
        <ele>2826.5</ele>
        <time>2026-09-03T08:06:47Z</time>
      </trkpt>
      <trkpt lat="44.71468" lon="7.05815">
        <ele>2828.1</ele>
        <time>2026-09-03T08:06:52Z</time>
      </trkpt>
      <trkpt lat="44.7147" lon="7.05815">
        <ele>2829.5</ele>
        <time>2026-09-03T08:06:58Z</time>
      </trkpt>
      <trkpt lat="44.7147" lon="7.05815">
        <ele>2829.5</ele>
        <time>2026-09-03T08:07:03Z</time>
      </trkpt>
      <trkpt lat="44.7147" lon="7.05815">
        <ele>2829.5</ele>
        <time>2026-09-03T08:07:08Z</time>
      </trkpt>
      <trkpt lat="44.7147" lon="7.05815">
        <ele>2829.5</ele>
        <time>2026-09-03T08:07:14Z</time>
      </trkpt>
      <trkpt lat="44.7147" lon="7.05815">
        <ele>2829.5</ele>
        <time>2026-09-03T08:07:19Z</time>
      </trkpt>
      <trkpt lat="44.7147" lon="7.05815">
        <ele>2829.5</ele>
        <time>2026-09-03T08:07:24Z</time>
      </trkpt>
      <trkpt lat="44.7147" lon="7.05815">
        <ele>2829.5</ele>
        <time>2026-09-03T08:07:30Z</time>
      </trkpt>
      <trkpt lat="44.7147" lon="7.05815">
        <ele>2829.5</ele>
        <time>2026-09-03T08:07:35Z</time>
      </trkpt>
      <trkpt lat="44.7147" lon="7.05815">
        <ele>2829.5</ele>
        <time>2026-09-03T08:07:40Z</time>
      </trkpt>
      <trkpt lat="44.7147" lon="7.05815">
        <ele>2829.5</ele>
        <time>2026-09-03T08:07:46Z</time>
      </trkpt>
      <trkpt lat="44.7147" lon="7.05815">
        <ele>2829.5</ele>
        <time>2026-09-03T08:07:51Z</time>
      </trkpt>
      <trkpt lat="44.7147" lon="7.05815">
        <ele>2829.5</ele>
        <time>2026-09-03T08:07:56Z</time>
      </trkpt>
      <trkpt lat="44.7147" lon="7.05815">
        <ele>2829.5</ele>
        <time>2026-09-03T08:08:02Z</time>
      </trkpt>
      <trkpt lat="44.7147" lon="7.05815">
        <ele>2829.5</ele>
        <time>2026-09-03T08:08:07Z</time>
      </trkpt>
      <trkpt lat="44.7147" lon="7.05815">
        <ele>2829.5</ele>
        <time>2026-09-03T08:08:12Z</time>
      </trkpt>
      <trkpt lat="44.7147" lon="7.05815">
        <ele>2829.5</ele>
        <time>2026-09-03T08:08:18Z</time>
      </trkpt>
      <trkpt lat="44.7147" lon="7.05815">
        <ele>2829.5</ele>
        <time>2026-09-03T08:08:23Z</time>
      </trkpt>
      <trkpt lat="44.7147" lon="7.05815">
        <ele>2829.5</ele>
        <time>2026-09-03T08:08:28Z</time>
      </trkpt>
      <trkpt lat="44.7147" lon="7.05815">
        <ele>2829.5</ele>
        <time>2026-09-03T08:08:34Z</time>
      </trkpt>
      <trkpt lat="44.7147" lon="7.05815">
        <ele>2829.5</ele>
        <time>2026-09-03T08:08:39Z</time>
      </trkpt>
      <trkpt lat="44.71459" lon="7.0581">
        <ele>2820.8</ele>
        <time>2026-09-03T08:08:44Z</time>
      </trkpt>
      <trkpt lat="44.71456" lon="7.05805">
        <ele>2818</ele>
        <time>2026-09-03T08:08:50Z</time>
      </trkpt>
      <trkpt lat="44.71453" lon="7.05805">
        <ele>2815.9</ele>
        <time>2026-09-03T08:08:55Z</time>
      </trkpt>
      <trkpt lat="44.71451" lon="7.05807">
        <ele>2814.8</ele>
        <time>2026-09-03T08:09:00Z</time>
      </trkpt>
      <trkpt lat="44.71448" lon="7.05809">
        <ele>2812.9</ele>
        <time>2026-09-03T08:09:06Z</time>
      </trkpt>
      <trkpt lat="44.71448" lon="7.05809">
        <ele>2812.9</ele>
        <time>2026-09-03T08:09:11Z</time>
      </trkpt>
      <trkpt lat="44.71448" lon="7.05809">
        <ele>2812.9</ele>
        <time>2026-09-03T08:09:16Z</time>
      </trkpt>
      <trkpt lat="44.71448" lon="7.05809">
        <ele>2812.9</ele>
        <time>2026-09-03T08:09:22Z</time>
      </trkpt>
      <trkpt lat="44.71448" lon="7.05809">
        <ele>2812.9</ele>
        <time>2026-09-03T08:09:27Z</time>
      </trkpt>
      <trkpt lat="44.71448" lon="7.05809">
        <ele>2812.9</ele>
        <time>2026-09-03T08:09:32Z</time>
      </trkpt>
      <trkpt lat="44.71448" lon="7.05809">
        <ele>2812.9</ele>
        <time>2026-09-03T08:09:38Z</time>
      </trkpt>
      <trkpt lat="44.71448" lon="7.05809">
        <ele>2812.9</ele>
        <time>2026-09-03T08:09:43Z</time>
      </trkpt>
      <trkpt lat="44.71448" lon="7.05809">
        <ele>2812.9</ele>
        <time>2026-09-03T08:09:48Z</time>
      </trkpt>
      <trkpt lat="44.71448" lon="7.05809">
        <ele>2812.9</ele>
        <time>2026-09-03T08:09:54Z</time>
      </trkpt>
      <trkpt lat="44.71448" lon="7.05809">
        <ele>2812.9</ele>
        <time>2026-09-03T08:09:59Z</time>
      </trkpt>
      <trkpt lat="44.71448" lon="7.05809">
        <ele>2812.9</ele>
        <time>2026-09-03T08:10:04Z</time>
      </trkpt>
      <trkpt lat="44.71448" lon="7.05809">
        <ele>2812.9</ele>
        <time>2026-09-03T08:10:10Z</time>
      </trkpt>
      <trkpt lat="44.71448" lon="7.05809">
        <ele>2812.9</ele>
        <time>2026-09-03T08:10:15Z</time>
      </trkpt>
      <trkpt lat="44.71448" lon="7.05809">
        <ele>2812.9</ele>
        <time>2026-09-03T08:10:20Z</time>
      </trkpt>
      <trkpt lat="44.71448" lon="7.05809">
        <ele>2812.9</ele>
        <time>2026-09-03T08:10:26Z</time>
      </trkpt>
      <trkpt lat="44.71448" lon="7.05809">
        <ele>2812.9</ele>
        <time>2026-09-03T08:10:31Z</time>
      </trkpt>
      <trkpt lat="44.71448" lon="7.05809">
        <ele>2812.9</ele>
        <time>2026-09-03T08:10:36Z</time>
      </trkpt>
      <trkpt lat="44.71448" lon="7.05809">
        <ele>2812.9</ele>
        <time>2026-09-03T08:10:42Z</time>
      </trkpt>
      <trkpt lat="44.71448" lon="7.05809">
        <ele>2812.9</ele>
        <time>2026-09-03T08:10:47Z</time>
      </trkpt>
      <trkpt lat="44.71448" lon="7.05809">
        <ele>2812.9</ele>
        <time>2026-09-03T08:10:52Z</time>
      </trkpt>
      <trkpt lat="44.71448" lon="7.05809">
        <ele>2812.9</ele>
        <time>2026-09-03T08:10:58Z</time>
      </trkpt>
      <trkpt lat="44.71448" lon="7.05809">
        <ele>2812.9</ele>
        <time>2026-09-03T08:11:03Z</time>
      </trkpt>
      <trkpt lat="44.71448" lon="7.05809">
        <ele>2812.9</ele>
        <time>2026-09-03T08:11:08Z</time>
      </trkpt>
      <trkpt lat="44.71449" lon="7.05804">
        <ele>2813</ele>
        <time>2026-09-03T08:11:14Z</time>
      </trkpt>
      <trkpt lat="44.71453" lon="7.058">
        <ele>2815.2</ele>
        <time>2026-09-03T08:11:19Z</time>
      </trkpt>
      <trkpt lat="44.71455" lon="7.05798">
        <ele>2816.2</ele>
        <time>2026-09-03T08:11:24Z</time>
      </trkpt>
      <trkpt lat="44.71455" lon="7.05797">
        <ele>2816.1</ele>
        <time>2026-09-03T08:11:30Z</time>
      </trkpt>
      <trkpt lat="44.71455" lon="7.05797">
        <ele>2816.1</ele>
        <time>2026-09-03T08:11:35Z</time>
      </trkpt>
      <trkpt lat="44.71455" lon="7.05797">
        <ele>2816.1</ele>
        <time>2026-09-03T08:11:40Z</time>
      </trkpt>
      <trkpt lat="44.71455" lon="7.05797">
        <ele>2816.1</ele>
        <time>2026-09-03T08:11:46Z</time>
      </trkpt>
      <trkpt lat="44.71455" lon="7.05797">
        <ele>2816.1</ele>
        <time>2026-09-03T08:11:51Z</time>
      </trkpt>
      <trkpt lat="44.71455" lon="7.05797">
        <ele>2816.1</ele>
        <time>2026-09-03T08:11:56Z</time>
      </trkpt>
      <trkpt lat="44.71455" lon="7.05797">
        <ele>2816.1</ele>
        <time>2026-09-03T08:12:02Z</time>
      </trkpt>
      <trkpt lat="44.71455" lon="7.05797">
        <ele>2816.1</ele>
        <time>2026-09-03T08:12:07Z</time>
      </trkpt>
      <trkpt lat="44.71455" lon="7.05797">
        <ele>2816.1</ele>
        <time>2026-09-03T08:12:12Z</time>
      </trkpt>
      <trkpt lat="44.71455" lon="7.05797">
        <ele>2816.1</ele>
        <time>2026-09-03T08:12:18Z</time>
      </trkpt>
      <trkpt lat="44.71455" lon="7.05797">
        <ele>2816.1</ele>
        <time>2026-09-03T08:12:23Z</time>
      </trkpt>
      <trkpt lat="44.71455" lon="7.05797">
        <ele>2816.1</ele>
        <time>2026-09-03T08:12:28Z</time>
      </trkpt>
      <trkpt lat="44.71455" lon="7.05797">
        <ele>2816.1</ele>
        <time>2026-09-03T08:12:34Z</time>
      </trkpt>
      <trkpt lat="44.71455" lon="7.05797">
        <ele>2816.1</ele>
        <time>2026-09-03T08:12:39Z</time>
      </trkpt>
      <trkpt lat="44.71447" lon="7.05792">
        <ele>2810.1</ele>
        <time>2026-09-03T08:12:44Z</time>
      </trkpt>
      <trkpt lat="44.71446" lon="7.05791">
        <ele>2809.3</ele>
        <time>2026-09-03T08:12:50Z</time>
      </trkpt>
      <trkpt lat="44.71446" lon="7.05791">
        <ele>2809.3</ele>
        <time>2026-09-03T08:12:55Z</time>
      </trkpt>
      <trkpt lat="44.71446" lon="7.05791">
        <ele>2809.3</ele>
        <time>2026-09-03T08:13:00Z</time>
      </trkpt>
      <trkpt lat="44.71446" lon="7.05791">
        <ele>2809.3</ele>
        <time>2026-09-03T08:13:06Z</time>
      </trkpt>
      <trkpt lat="44.71446" lon="7.05791">
        <ele>2809.3</ele>
        <time>2026-09-03T08:13:11Z</time>
      </trkpt>
      <trkpt lat="44.71446" lon="7.05791">
        <ele>2809.3</ele>
        <time>2026-09-03T08:13:16Z</time>
      </trkpt>
      <trkpt lat="44.71446" lon="7.05791">
        <ele>2809.3</ele>
        <time>2026-09-03T08:13:22Z</time>
      </trkpt>
      <trkpt lat="44.71446" lon="7.05791">
        <ele>2809.3</ele>
        <time>2026-09-03T08:13:27Z</time>
      </trkpt>
      <trkpt lat="44.71446" lon="7.05791">
        <ele>2809.3</ele>
        <time>2026-09-03T08:13:32Z</time>
      </trkpt>
      <trkpt lat="44.71446" lon="7.05791">
        <ele>2809.3</ele>
        <time>2026-09-03T08:13:38Z</time>
      </trkpt>
      <trkpt lat="44.71446" lon="7.05791">
        <ele>2809.3</ele>
        <time>2026-09-03T08:13:43Z</time>
      </trkpt>
      <trkpt lat="44.71446" lon="7.05791">
        <ele>2809.3</ele>
        <time>2026-09-03T08:13:48Z</time>
      </trkpt>
      <trkpt lat="44.71438" lon="7.05784">
        <ele>2803.3</ele>
        <time>2026-09-03T08:13:54Z</time>
      </trkpt>
      <trkpt lat="44.71437" lon="7.05784">
        <ele>2802.6</ele>
        <time>2026-09-03T08:13:59Z</time>
      </trkpt>
      <trkpt lat="44.71437" lon="7.05784">
        <ele>2802.6</ele>
        <time>2026-09-03T08:14:04Z</time>
      </trkpt>
      <trkpt lat="44.71437" lon="7.05784">
        <ele>2802.6</ele>
        <time>2026-09-03T08:14:10Z</time>
      </trkpt>
      <trkpt lat="44.71437" lon="7.05784">
        <ele>2802.6</ele>
        <time>2026-09-03T08:14:15Z</time>
      </trkpt>
      <trkpt lat="44.71437" lon="7.05784">
        <ele>2802.6</ele>
        <time>2026-09-03T08:14:20Z</time>
      </trkpt>
      <trkpt lat="44.71428" lon="7.05779">
        <ele>2796.5</ele>
        <time>2026-09-03T08:14:26Z</time>
      </trkpt>
      <trkpt lat="44.71427" lon="7.05778">
        <ele>2795.8</ele>
        <time>2026-09-03T08:14:31Z</time>
      </trkpt>
      <trkpt lat="44.71424" lon="7.05778">
        <ele>2793.9</ele>
        <time>2026-09-03T08:14:36Z</time>
      </trkpt>
      <trkpt lat="44.71422" lon="7.0578">
        <ele>2792.8</ele>
        <time>2026-09-03T08:14:42Z</time>
      </trkpt>
      <trkpt lat="44.7142" lon="7.0578">
        <ele>2791.5</ele>
        <time>2026-09-03T08:14:47Z</time>
      </trkpt>
      <trkpt lat="44.71418" lon="7.05781">
        <ele>2790.3</ele>
        <time>2026-09-03T08:14:52Z</time>
      </trkpt>
      <trkpt lat="44.71416" lon="7.05785">
        <ele>2789.3</ele>
        <time>2026-09-03T08:14:58Z</time>
      </trkpt>
      <trkpt lat="44.71414" lon="7.05788">
        <ele>2788.4</ele>
        <time>2026-09-03T08:15:03Z</time>
      </trkpt>
      <trkpt lat="44.71411" lon="7.05791">
        <ele>2786.9</ele>
        <time>2026-09-03T08:15:08Z</time>
      </trkpt>
      <trkpt lat="44.71409" lon="7.05794">
        <ele>2786</ele>
        <time>2026-09-03T08:15:14Z</time>
      </trkpt>
      <trkpt lat="44.71408" lon="7.05797">
        <ele>2785.6</ele>
        <time>2026-09-03T08:15:19Z</time>
      </trkpt>
      <trkpt lat="44.71408" lon="7.05801">
        <ele>2785.8</ele>
        <time>2026-09-03T08:15:24Z</time>
      </trkpt>
      <trkpt lat="44.71407" lon="7.05804">
        <ele>2785.4</ele>
        <time>2026-09-03T08:15:30Z</time>
      </trkpt>
      <trkpt lat="44.71405" lon="7.05803">
        <ele>2784.3</ele>
        <time>2026-09-03T08:15:35Z</time>
      </trkpt>
      <trkpt lat="44.71403" lon="7.05804">
        <ele>2783.3</ele>
        <time>2026-09-03T08:15:40Z</time>
      </trkpt>
      <trkpt lat="44.71403" lon="7.05804">
        <ele>2783.3</ele>
        <time>2026-09-03T08:15:46Z</time>
      </trkpt>
      <trkpt lat="44.71403" lon="7.05804">
        <ele>2783.3</ele>
        <time>2026-09-03T08:15:51Z</time>
      </trkpt>
      <trkpt lat="44.71403" lon="7.05804">
        <ele>2783.3</ele>
        <time>2026-09-03T08:15:56Z</time>
      </trkpt>
      <trkpt lat="44.71403" lon="7.05804">
        <ele>2783.3</ele>
        <time>2026-09-03T08:16:02Z</time>
      </trkpt>
      <trkpt lat="44.71403" lon="7.05804">
        <ele>2783.3</ele>
        <time>2026-09-03T08:16:07Z</time>
      </trkpt>
      <trkpt lat="44.71403" lon="7.05804">
        <ele>2783.3</ele>
        <time>2026-09-03T08:16:12Z</time>
      </trkpt>
      <trkpt lat="44.71403" lon="7.05804">
        <ele>2783.3</ele>
        <time>2026-09-03T08:16:18Z</time>
      </trkpt>
      <trkpt lat="44.71403" lon="7.05804">
        <ele>2783.3</ele>
        <time>2026-09-03T08:16:23Z</time>
      </trkpt>
      <trkpt lat="44.71403" lon="7.05804">
        <ele>2783.3</ele>
        <time>2026-09-03T08:16:28Z</time>
      </trkpt>
      <trkpt lat="44.71403" lon="7.05804">
        <ele>2783.3</ele>
        <time>2026-09-03T08:16:34Z</time>
      </trkpt>
      <trkpt lat="44.71403" lon="7.05804">
        <ele>2783.3</ele>
        <time>2026-09-03T08:16:39Z</time>
      </trkpt>
      <trkpt lat="44.71403" lon="7.05804">
        <ele>2783.3</ele>
        <time>2026-09-03T08:16:44Z</time>
      </trkpt>
      <trkpt lat="44.71403" lon="7.05804">
        <ele>2783.3</ele>
        <time>2026-09-03T08:16:50Z</time>
      </trkpt>
      <trkpt lat="44.71403" lon="7.05804">
        <ele>2783.3</ele>
        <time>2026-09-03T08:16:55Z</time>
      </trkpt>
      <trkpt lat="44.71403" lon="7.05804">
        <ele>2783.3</ele>
        <time>2026-09-03T08:17:00Z</time>
      </trkpt>
      <trkpt lat="44.71395" lon="7.05801">
        <ele>2778.9</ele>
        <time>2026-09-03T08:17:06Z</time>
      </trkpt>
      <trkpt lat="44.71392" lon="7.05802">
        <ele>2777.4</ele>
        <time>2026-09-03T08:17:11Z</time>
      </trkpt>
      <trkpt lat="44.71391" lon="7.05803">
        <ele>2776.9</ele>
        <time>2026-09-03T08:17:16Z</time>
      </trkpt>
      <trkpt lat="44.71391" lon="7.05803">
        <ele>2776.9</ele>
        <time>2026-09-03T08:17:22Z</time>
      </trkpt>
      <trkpt lat="44.71391" lon="7.05803">
        <ele>2776.9</ele>
        <time>2026-09-03T08:17:27Z</time>
      </trkpt>
      <trkpt lat="44.71391" lon="7.05803">
        <ele>2776.9</ele>
        <time>2026-09-03T08:17:32Z</time>
      </trkpt>
      <trkpt lat="44.71389" lon="7.05811">
        <ele>2776.2</ele>
        <time>2026-09-03T08:17:38Z</time>
      </trkpt>
      <trkpt lat="44.71386" lon="7.05811">
        <ele>2774.6</ele>
        <time>2026-09-03T08:17:43Z</time>
      </trkpt>
      <trkpt lat="44.71385" lon="7.0581">
        <ele>2774.1</ele>
        <time>2026-09-03T08:17:48Z</time>
      </trkpt>
      <trkpt lat="44.71384" lon="7.05809">
        <ele>2773.5</ele>
        <time>2026-09-03T08:17:54Z</time>
      </trkpt>
      <trkpt lat="44.71384" lon="7.05809">
        <ele>2773.5</ele>
        <time>2026-09-03T08:17:59Z</time>
      </trkpt>
      <trkpt lat="44.71384" lon="7.05809">
        <ele>2773.5</ele>
        <time>2026-09-03T08:18:04Z</time>
      </trkpt>
      <trkpt lat="44.71384" lon="7.05809">
        <ele>2773.5</ele>
        <time>2026-09-03T08:18:10Z</time>
      </trkpt>
      <trkpt lat="44.71377" lon="7.0581">
        <ele>2769.8</ele>
        <time>2026-09-03T08:18:15Z</time>
      </trkpt>
      <trkpt lat="44.71377" lon="7.05809">
        <ele>2769.7</ele>
        <time>2026-09-03T08:18:20Z</time>
      </trkpt>
      <trkpt lat="44.71377" lon="7.05809">
        <ele>2769.7</ele>
        <time>2026-09-03T08:18:26Z</time>
      </trkpt>
      <trkpt lat="44.71377" lon="7.05809">
        <ele>2769.7</ele>
        <time>2026-09-03T08:18:31Z</time>
      </trkpt>
      <trkpt lat="44.71377" lon="7.05809">
        <ele>2769.7</ele>
        <time>2026-09-03T08:18:36Z</time>
      </trkpt>
      <trkpt lat="44.71377" lon="7.05809">
        <ele>2769.7</ele>
        <time>2026-09-03T08:18:42Z</time>
      </trkpt>
      <trkpt lat="44.71377" lon="7.05809">
        <ele>2769.7</ele>
        <time>2026-09-03T08:18:47Z</time>
      </trkpt>
      <trkpt lat="44.71377" lon="7.05809">
        <ele>2769.7</ele>
        <time>2026-09-03T08:18:52Z</time>
      </trkpt>
      <trkpt lat="44.71377" lon="7.05809">
        <ele>2769.7</ele>
        <time>2026-09-03T08:18:58Z</time>
      </trkpt>
      <trkpt lat="44.71371" lon="7.05813">
        <ele>2766.8</ele>
        <time>2026-09-03T08:19:03Z</time>
      </trkpt>
      <trkpt lat="44.7137" lon="7.05814">
        <ele>2766.3</ele>
        <time>2026-09-03T08:19:08Z</time>
      </trkpt>
      <trkpt lat="44.71369" lon="7.05815">
        <ele>2765.8</ele>
        <time>2026-09-03T08:19:14Z</time>
      </trkpt>
      <trkpt lat="44.71369" lon="7.05815">
        <ele>2765.8</ele>
        <time>2026-09-03T08:19:19Z</time>
      </trkpt>
      <trkpt lat="44.71369" lon="7.05815">
        <ele>2765.8</ele>
        <time>2026-09-03T08:19:24Z</time>
      </trkpt>
      <trkpt lat="44.71369" lon="7.05815">
        <ele>2765.8</ele>
        <time>2026-09-03T08:19:30Z</time>
      </trkpt>
      <trkpt lat="44.71369" lon="7.05815">
        <ele>2765.8</ele>
        <time>2026-09-03T08:19:35Z</time>
      </trkpt>
      <trkpt lat="44.71369" lon="7.05815">
        <ele>2765.8</ele>
        <time>2026-09-03T08:19:40Z</time>
      </trkpt>
      <trkpt lat="44.71369" lon="7.05815">
        <ele>2765.8</ele>
        <time>2026-09-03T08:19:46Z</time>
      </trkpt>
      <trkpt lat="44.71369" lon="7.05815">
        <ele>2765.8</ele>
        <time>2026-09-03T08:19:51Z</time>
      </trkpt>
      <trkpt lat="44.71369" lon="7.05815">
        <ele>2765.8</ele>
        <time>2026-09-03T08:19:56Z</time>
      </trkpt>
      <trkpt lat="44.71369" lon="7.05815">
        <ele>2765.8</ele>
        <time>2026-09-03T08:20:02Z</time>
      </trkpt>
      <trkpt lat="44.71369" lon="7.05815">
        <ele>2765.8</ele>
        <time>2026-09-03T08:20:07Z</time>
      </trkpt>
      <trkpt lat="44.71369" lon="7.05815">
        <ele>2765.8</ele>
        <time>2026-09-03T08:20:12Z</time>
      </trkpt>
      <trkpt lat="44.71369" lon="7.05815">
        <ele>2765.8</ele>
        <time>2026-09-03T08:20:18Z</time>
      </trkpt>
      <trkpt lat="44.71369" lon="7.05815">
        <ele>2765.8</ele>
        <time>2026-09-03T08:20:23Z</time>
      </trkpt>
      <trkpt lat="44.71369" lon="7.05815">
        <ele>2765.8</ele>
        <time>2026-09-03T08:20:28Z</time>
      </trkpt>
      <trkpt lat="44.71369" lon="7.05815">
        <ele>2765.8</ele>
        <time>2026-09-03T08:20:34Z</time>
      </trkpt>
      <trkpt lat="44.71369" lon="7.05815">
        <ele>2765.8</ele>
        <time>2026-09-03T08:20:39Z</time>
      </trkpt>
      <trkpt lat="44.71369" lon="7.05815">
        <ele>2765.8</ele>
        <time>2026-09-03T08:20:44Z</time>
      </trkpt>
      <trkpt lat="44.71369" lon="7.05815">
        <ele>2765.8</ele>
        <time>2026-09-03T08:20:50Z</time>
      </trkpt>
      <trkpt lat="44.71369" lon="7.05815">
        <ele>2765.8</ele>
        <time>2026-09-03T08:20:55Z</time>
      </trkpt>
      <trkpt lat="44.71369" lon="7.05815">
        <ele>2765.8</ele>
        <time>2026-09-03T08:21:00Z</time>
      </trkpt>
      <trkpt lat="44.71364" lon="7.05804">
        <ele>2762.6</ele>
        <time>2026-09-03T08:21:06Z</time>
      </trkpt>
      <trkpt lat="44.71364" lon="7.05803">
        <ele>2762.5</ele>
        <time>2026-09-03T08:21:11Z</time>
      </trkpt>
      <trkpt lat="44.71364" lon="7.05803">
        <ele>2762.5</ele>
        <time>2026-09-03T08:21:16Z</time>
      </trkpt>
      <trkpt lat="44.71364" lon="7.05803">
        <ele>2762.5</ele>
        <time>2026-09-03T08:21:22Z</time>
      </trkpt>
      <trkpt lat="44.71364" lon="7.05803">
        <ele>2762.5</ele>
        <time>2026-09-03T08:21:27Z</time>
      </trkpt>
      <trkpt lat="44.71364" lon="7.05803">
        <ele>2762.5</ele>
        <time>2026-09-03T08:21:32Z</time>
      </trkpt>
      <trkpt lat="44.71364" lon="7.05803">
        <ele>2762.5</ele>
        <time>2026-09-03T08:21:38Z</time>
      </trkpt>
      <trkpt lat="44.71364" lon="7.05803">
        <ele>2762.5</ele>
        <time>2026-09-03T08:21:43Z</time>
      </trkpt>
      <trkpt lat="44.71364" lon="7.05803">
        <ele>2762.5</ele>
        <time>2026-09-03T08:21:48Z</time>
      </trkpt>
      <trkpt lat="44.71364" lon="7.05803">
        <ele>2762.5</ele>
        <time>2026-09-03T08:21:54Z</time>
      </trkpt>
      <trkpt lat="44.71364" lon="7.05803">
        <ele>2762.5</ele>
        <time>2026-09-03T08:21:59Z</time>
      </trkpt>
      <trkpt lat="44.71364" lon="7.05803">
        <ele>2762.5</ele>
        <time>2026-09-03T08:22:04Z</time>
      </trkpt>
      <trkpt lat="44.71364" lon="7.05803">
        <ele>2762.5</ele>
        <time>2026-09-03T08:22:10Z</time>
      </trkpt>
      <trkpt lat="44.71364" lon="7.05803">
        <ele>2762.5</ele>
        <time>2026-09-03T08:22:15Z</time>
      </trkpt>
      <trkpt lat="44.71364" lon="7.05803">
        <ele>2762.5</ele>
        <time>2026-09-03T08:22:20Z</time>
      </trkpt>
      <trkpt lat="44.71364" lon="7.05803">
        <ele>2762.5</ele>
        <time>2026-09-03T08:22:26Z</time>
      </trkpt>
      <trkpt lat="44.71364" lon="7.05803">
        <ele>2762.5</ele>
        <time>2026-09-03T08:22:31Z</time>
      </trkpt>
      <trkpt lat="44.71354" lon="7.05805">
        <ele>2757.3</ele>
        <time>2026-09-03T08:22:36Z</time>
      </trkpt>
      <trkpt lat="44.71354" lon="7.05805">
        <ele>2757.3</ele>
        <time>2026-09-03T08:22:42Z</time>
      </trkpt>
      <trkpt lat="44.71354" lon="7.05805">
        <ele>2757.3</ele>
        <time>2026-09-03T08:22:47Z</time>
      </trkpt>
      <trkpt lat="44.71354" lon="7.05805">
        <ele>2757.3</ele>
        <time>2026-09-03T08:22:52Z</time>
      </trkpt>
      <trkpt lat="44.71354" lon="7.05805">
        <ele>2757.3</ele>
        <time>2026-09-03T08:22:58Z</time>
      </trkpt>
      <trkpt lat="44.71354" lon="7.05805">
        <ele>2757.3</ele>
        <time>2026-09-03T08:23:03Z</time>
      </trkpt>
      <trkpt lat="44.71354" lon="7.05805">
        <ele>2757.3</ele>
        <time>2026-09-03T08:23:08Z</time>
      </trkpt>
      <trkpt lat="44.71354" lon="7.05805">
        <ele>2757.3</ele>
        <time>2026-09-03T08:23:14Z</time>
      </trkpt>
      <trkpt lat="44.71354" lon="7.05805">
        <ele>2757.3</ele>
        <time>2026-09-03T08:23:19Z</time>
      </trkpt>
      <trkpt lat="44.71354" lon="7.05805">
        <ele>2757.3</ele>
        <time>2026-09-03T08:23:24Z</time>
      </trkpt>
      <trkpt lat="44.71354" lon="7.05805">
        <ele>2757.3</ele>
        <time>2026-09-03T08:23:30Z</time>
      </trkpt>
      <trkpt lat="44.71354" lon="7.05805">
        <ele>2757.3</ele>
        <time>2026-09-03T08:23:35Z</time>
      </trkpt>
      <trkpt lat="44.71354" lon="7.05805">
        <ele>2757.3</ele>
        <time>2026-09-03T08:23:40Z</time>
      </trkpt>
      <trkpt lat="44.71354" lon="7.05805">
        <ele>2757.3</ele>
        <time>2026-09-03T08:23:46Z</time>
      </trkpt>
      <trkpt lat="44.71354" lon="7.05805">
        <ele>2757.3</ele>
        <time>2026-09-03T08:23:51Z</time>
      </trkpt>
      <trkpt lat="44.71354" lon="7.05805">
        <ele>2757.3</ele>
        <time>2026-09-03T08:23:56Z</time>
      </trkpt>
      <trkpt lat="44.71354" lon="7.05805">
        <ele>2757.3</ele>
        <time>2026-09-03T08:24:02Z</time>
      </trkpt>
      <trkpt lat="44.71354" lon="7.05805">
        <ele>2757.3</ele>
        <time>2026-09-03T08:24:07Z</time>
      </trkpt>
      <trkpt lat="44.71354" lon="7.05805">
        <ele>2757.3</ele>
        <time>2026-09-03T08:24:12Z</time>
      </trkpt>
      <trkpt lat="44.71354" lon="7.05805">
        <ele>2757.3</ele>
        <time>2026-09-03T08:24:18Z</time>
      </trkpt>
      <trkpt lat="44.71354" lon="7.05805">
        <ele>2757.3</ele>
        <time>2026-09-03T08:24:23Z</time>
      </trkpt>
      <trkpt lat="44.71354" lon="7.05805">
        <ele>2757.3</ele>
        <time>2026-09-03T08:24:28Z</time>
      </trkpt>
      <trkpt lat="44.71354" lon="7.05805">
        <ele>2757.3</ele>
        <time>2026-09-03T08:24:34Z</time>
      </trkpt>
      <trkpt lat="44.71354" lon="7.05805">
        <ele>2757.3</ele>
        <time>2026-09-03T08:24:39Z</time>
      </trkpt>
      <trkpt lat="44.71348" lon="7.05811">
        <ele>2754.5</ele>
        <time>2026-09-03T08:24:44Z</time>
      </trkpt>
      <trkpt lat="44.71345" lon="7.05812">
        <ele>2752.9</ele>
        <time>2026-09-03T08:24:50Z</time>
      </trkpt>
      <trkpt lat="44.71345" lon="7.05812">
        <ele>2752.9</ele>
        <time>2026-09-03T08:24:55Z</time>
      </trkpt>
      <trkpt lat="44.71345" lon="7.05812">
        <ele>2752.9</ele>
        <time>2026-09-03T08:25:00Z</time>
      </trkpt>
      <trkpt lat="44.71345" lon="7.05812">
        <ele>2752.9</ele>
        <time>2026-09-03T08:25:06Z</time>
      </trkpt>
      <trkpt lat="44.71345" lon="7.05812">
        <ele>2752.9</ele>
        <time>2026-09-03T08:25:11Z</time>
      </trkpt>
      <trkpt lat="44.71345" lon="7.05812">
        <ele>2752.9</ele>
        <time>2026-09-03T08:25:16Z</time>
      </trkpt>
      <trkpt lat="44.71345" lon="7.05812">
        <ele>2752.9</ele>
        <time>2026-09-03T08:25:22Z</time>
      </trkpt>
      <trkpt lat="44.71345" lon="7.05812">
        <ele>2752.9</ele>
        <time>2026-09-03T08:25:27Z</time>
      </trkpt>
      <trkpt lat="44.71345" lon="7.05812">
        <ele>2752.9</ele>
        <time>2026-09-03T08:25:32Z</time>
      </trkpt>
      <trkpt lat="44.71345" lon="7.05812">
        <ele>2752.9</ele>
        <time>2026-09-03T08:25:38Z</time>
      </trkpt>
      <trkpt lat="44.71345" lon="7.05824">
        <ele>2753.6</ele>
        <time>2026-09-03T08:25:43Z</time>
      </trkpt>
      <trkpt lat="44.71345" lon="7.05824">
        <ele>2753.6</ele>
        <time>2026-09-03T08:25:48Z</time>
      </trkpt>
      <trkpt lat="44.71345" lon="7.05824">
        <ele>2753.6</ele>
        <time>2026-09-03T08:25:54Z</time>
      </trkpt>
      <trkpt lat="44.71345" lon="7.05824">
        <ele>2753.6</ele>
        <time>2026-09-03T08:25:59Z</time>
      </trkpt>
      <trkpt lat="44.71345" lon="7.05824">
        <ele>2753.6</ele>
        <time>2026-09-03T08:26:04Z</time>
      </trkpt>
      <trkpt lat="44.71345" lon="7.05824">
        <ele>2753.6</ele>
        <time>2026-09-03T08:26:10Z</time>
      </trkpt>
      <trkpt lat="44.71345" lon="7.05824">
        <ele>2753.6</ele>
        <time>2026-09-03T08:26:15Z</time>
      </trkpt>
      <trkpt lat="44.71345" lon="7.05824">
        <ele>2753.6</ele>
        <time>2026-09-03T08:26:20Z</time>
      </trkpt>
      <trkpt lat="44.71345" lon="7.05824">
        <ele>2753.6</ele>
        <time>2026-09-03T08:26:26Z</time>
      </trkpt>
      <trkpt lat="44.71345" lon="7.05824">
        <ele>2753.6</ele>
        <time>2026-09-03T08:26:31Z</time>
      </trkpt>
      <trkpt lat="44.71345" lon="7.05824">
        <ele>2753.6</ele>
        <time>2026-09-03T08:26:36Z</time>
      </trkpt>
      <trkpt lat="44.71345" lon="7.05824">
        <ele>2753.6</ele>
        <time>2026-09-03T08:26:42Z</time>
      </trkpt>
      <trkpt lat="44.71345" lon="7.05824">
        <ele>2753.6</ele>
        <time>2026-09-03T08:26:47Z</time>
      </trkpt>
      <trkpt lat="44.71345" lon="7.05824">
        <ele>2753.6</ele>
        <time>2026-09-03T08:26:52Z</time>
      </trkpt>
      <trkpt lat="44.71346" lon="7.05841">
        <ele>2754.7</ele>
        <time>2026-09-03T08:26:58Z</time>
      </trkpt>
      <trkpt lat="44.71346" lon="7.05844">
        <ele>2754.7</ele>
        <time>2026-09-03T08:27:03Z</time>
      </trkpt>
      <trkpt lat="44.71344" lon="7.05846">
        <ele>2753.6</ele>
        <time>2026-09-03T08:27:08Z</time>
      </trkpt>
      <trkpt lat="44.71337" lon="7.05848">
        <ele>2750.1</ele>
        <time>2026-09-03T08:27:14Z</time>
      </trkpt>
      <trkpt lat="44.71332" lon="7.05848">
        <ele>2747.6</ele>
        <time>2026-09-03T08:27:19Z</time>
      </trkpt>
      <trkpt lat="44.71327" lon="7.0585">
        <ele>2745.5</ele>
        <time>2026-09-03T08:27:24Z</time>
      </trkpt>
      <trkpt lat="44.71324" lon="7.05849">
        <ele>2744.2</ele>
        <time>2026-09-03T08:27:30Z</time>
      </trkpt>
      <trkpt lat="44.71323" lon="7.0585">
        <ele>2743.8</ele>
        <time>2026-09-03T08:27:35Z</time>
      </trkpt>
      <trkpt lat="44.71323" lon="7.0585">
        <ele>2743.8</ele>
        <time>2026-09-03T08:27:40Z</time>
      </trkpt>
      <trkpt lat="44.71323" lon="7.0585">
        <ele>2743.8</ele>
        <time>2026-09-03T08:27:46Z</time>
      </trkpt>
      <trkpt lat="44.71323" lon="7.0585">
        <ele>2743.8</ele>
        <time>2026-09-03T08:27:51Z</time>
      </trkpt>
      <trkpt lat="44.71323" lon="7.0585">
        <ele>2743.8</ele>
        <time>2026-09-03T08:27:56Z</time>
      </trkpt>
      <trkpt lat="44.71323" lon="7.0585">
        <ele>2743.8</ele>
        <time>2026-09-03T08:28:02Z</time>
      </trkpt>
      <trkpt lat="44.71323" lon="7.0585">
        <ele>2743.8</ele>
        <time>2026-09-03T08:28:07Z</time>
      </trkpt>
      <trkpt lat="44.71323" lon="7.0585">
        <ele>2743.8</ele>
        <time>2026-09-03T08:28:12Z</time>
      </trkpt>
      <trkpt lat="44.71323" lon="7.0585">
        <ele>2743.8</ele>
        <time>2026-09-03T08:28:18Z</time>
      </trkpt>
      <trkpt lat="44.71323" lon="7.0585">
        <ele>2743.8</ele>
        <time>2026-09-03T08:28:23Z</time>
      </trkpt>
      <trkpt lat="44.71323" lon="7.0585">
        <ele>2743.8</ele>
        <time>2026-09-03T08:28:28Z</time>
      </trkpt>
      <trkpt lat="44.71323" lon="7.0585">
        <ele>2743.8</ele>
        <time>2026-09-03T08:28:34Z</time>
      </trkpt>
      <trkpt lat="44.71323" lon="7.0585">
        <ele>2743.8</ele>
        <time>2026-09-03T08:28:39Z</time>
      </trkpt>
      <trkpt lat="44.71323" lon="7.0585">
        <ele>2743.8</ele>
        <time>2026-09-03T08:28:44Z</time>
      </trkpt>
      <trkpt lat="44.71323" lon="7.0585">
        <ele>2743.8</ele>
        <time>2026-09-03T08:28:50Z</time>
      </trkpt>
      <trkpt lat="44.71323" lon="7.0585">
        <ele>2743.8</ele>
        <time>2026-09-03T08:28:55Z</time>
      </trkpt>
      <trkpt lat="44.71323" lon="7.0585">
        <ele>2743.8</ele>
        <time>2026-09-03T08:29:00Z</time>
      </trkpt>
      <trkpt lat="44.71323" lon="7.0585">
        <ele>2743.8</ele>
        <time>2026-09-03T08:29:06Z</time>
      </trkpt>
      <trkpt lat="44.71323" lon="7.0585">
        <ele>2743.8</ele>
        <time>2026-09-03T08:29:11Z</time>
      </trkpt>
      <trkpt lat="44.71323" lon="7.0585">
        <ele>2743.8</ele>
        <time>2026-09-03T08:29:16Z</time>
      </trkpt>
      <trkpt lat="44.71323" lon="7.0585">
        <ele>2743.8</ele>
        <time>2026-09-03T08:29:22Z</time>
      </trkpt>
      <trkpt lat="44.71323" lon="7.0585">
        <ele>2743.8</ele>
        <time>2026-09-03T08:29:27Z</time>
      </trkpt>
      <trkpt lat="44.71323" lon="7.0585">
        <ele>2743.8</ele>
        <time>2026-09-03T08:29:32Z</time>
      </trkpt>
      <trkpt lat="44.71323" lon="7.0585">
        <ele>2743.8</ele>
        <time>2026-09-03T08:29:38Z</time>
      </trkpt>
      <trkpt lat="44.71323" lon="7.0585">
        <ele>2743.8</ele>
        <time>2026-09-03T08:29:43Z</time>
      </trkpt>
      <trkpt lat="44.71323" lon="7.0585">
        <ele>2743.8</ele>
        <time>2026-09-03T08:29:48Z</time>
      </trkpt>
      <trkpt lat="44.71323" lon="7.0585">
        <ele>2743.8</ele>
        <time>2026-09-03T08:29:54Z</time>
      </trkpt>
      <trkpt lat="44.71323" lon="7.0585">
        <ele>2743.8</ele>
        <time>2026-09-03T08:29:59Z</time>
      </trkpt>
      <trkpt lat="44.71323" lon="7.0585">
        <ele>2743.8</ele>
        <time>2026-09-03T08:30:04Z</time>
      </trkpt>
      <trkpt lat="44.71323" lon="7.0585">
        <ele>2743.8</ele>
        <time>2026-09-03T08:30:10Z</time>
      </trkpt>
      <trkpt lat="44.71323" lon="7.0585">
        <ele>2743.8</ele>
        <time>2026-09-03T08:30:15Z</time>
      </trkpt>
      <trkpt lat="44.71323" lon="7.0585">
        <ele>2743.8</ele>
        <time>2026-09-03T08:30:20Z</time>
      </trkpt>
      <trkpt lat="44.71323" lon="7.0585">
        <ele>2743.8</ele>
        <time>2026-09-03T08:30:26Z</time>
      </trkpt>
      <trkpt lat="44.71323" lon="7.0585">
        <ele>2743.8</ele>
        <time>2026-09-03T08:30:31Z</time>
      </trkpt>
      <trkpt lat="44.71323" lon="7.0585">
        <ele>2743.8</ele>
        <time>2026-09-03T08:30:36Z</time>
      </trkpt>
      <trkpt lat="44.71323" lon="7.0585">
        <ele>2743.8</ele>
        <time>2026-09-03T08:30:42Z</time>
      </trkpt>
      <trkpt lat="44.71323" lon="7.0585">
        <ele>2743.8</ele>
        <time>2026-09-03T08:30:47Z</time>
      </trkpt>
      <trkpt lat="44.71323" lon="7.0585">
        <ele>2743.8</ele>
        <time>2026-09-03T08:30:52Z</time>
      </trkpt>
      <trkpt lat="44.71323" lon="7.0585">
        <ele>2743.8</ele>
        <time>2026-09-03T08:30:58Z</time>
      </trkpt>
      <trkpt lat="44.71323" lon="7.0585">
        <ele>2743.8</ele>
        <time>2026-09-03T08:31:03Z</time>
      </trkpt>
      <trkpt lat="44.71323" lon="7.0585">
        <ele>2743.8</ele>
        <time>2026-09-03T08:31:08Z</time>
      </trkpt>
      <trkpt lat="44.71323" lon="7.0585">
        <ele>2743.8</ele>
        <time>2026-09-03T08:31:14Z</time>
      </trkpt>
      <trkpt lat="44.71323" lon="7.0585">
        <ele>2743.8</ele>
        <time>2026-09-03T08:31:19Z</time>
      </trkpt>
      <trkpt lat="44.71323" lon="7.0585">
        <ele>2743.8</ele>
        <time>2026-09-03T08:31:24Z</time>
      </trkpt>
      <trkpt lat="44.71323" lon="7.0585">
        <ele>2743.8</ele>
        <time>2026-09-03T08:31:30Z</time>
      </trkpt>
      <trkpt lat="44.71323" lon="7.0585">
        <ele>2743.8</ele>
        <time>2026-09-03T08:31:35Z</time>
      </trkpt>
      <trkpt lat="44.71323" lon="7.0585">
        <ele>2743.8</ele>
        <time>2026-09-03T08:31:40Z</time>
      </trkpt>
      <trkpt lat="44.71323" lon="7.0585">
        <ele>2743.8</ele>
        <time>2026-09-03T08:31:46Z</time>
      </trkpt>
      <trkpt lat="44.71323" lon="7.0585">
        <ele>2743.8</ele>
        <time>2026-09-03T08:31:51Z</time>
      </trkpt>
      <trkpt lat="44.71323" lon="7.0585">
        <ele>2743.8</ele>
        <time>2026-09-03T08:31:56Z</time>
      </trkpt>
      <trkpt lat="44.71323" lon="7.0585">
        <ele>2743.8</ele>
        <time>2026-09-03T08:32:02Z</time>
      </trkpt>
      <trkpt lat="44.71323" lon="7.0585">
        <ele>2743.8</ele>
        <time>2026-09-03T08:32:07Z</time>
      </trkpt>
      <trkpt lat="44.71323" lon="7.0585">
        <ele>2743.8</ele>
        <time>2026-09-03T08:32:12Z</time>
      </trkpt>
      <trkpt lat="44.71323" lon="7.0585">
        <ele>2743.8</ele>
        <time>2026-09-03T08:32:18Z</time>
      </trkpt>
      <trkpt lat="44.71323" lon="7.0585">
        <ele>2743.8</ele>
        <time>2026-09-03T08:32:23Z</time>
      </trkpt>
      <trkpt lat="44.71323" lon="7.0585">
        <ele>2743.8</ele>
        <time>2026-09-03T08:32:28Z</time>
      </trkpt>
      <trkpt lat="44.71323" lon="7.0585">
        <ele>2743.8</ele>
        <time>2026-09-03T08:32:34Z</time>
      </trkpt>
      <trkpt lat="44.71323" lon="7.0585">
        <ele>2743.8</ele>
        <time>2026-09-03T08:32:39Z</time>
      </trkpt>
      <trkpt lat="44.71323" lon="7.0585">
        <ele>2743.8</ele>
        <time>2026-09-03T08:32:44Z</time>
      </trkpt>
      <trkpt lat="44.71323" lon="7.0585">
        <ele>2743.8</ele>
        <time>2026-09-03T08:32:50Z</time>
      </trkpt>
      <trkpt lat="44.71323" lon="7.0585">
        <ele>2743.8</ele>
        <time>2026-09-03T08:32:55Z</time>
      </trkpt>
      <trkpt lat="44.71323" lon="7.0585">
        <ele>2743.8</ele>
        <time>2026-09-03T08:33:00Z</time>
      </trkpt>
      <trkpt lat="44.71323" lon="7.0585">
        <ele>2743.8</ele>
        <time>2026-09-03T08:33:06Z</time>
      </trkpt>
      <trkpt lat="44.71323" lon="7.0585">
        <ele>2743.8</ele>
        <time>2026-09-03T08:33:11Z</time>
      </trkpt>
      <trkpt lat="44.71323" lon="7.0585">
        <ele>2743.8</ele>
        <time>2026-09-03T08:33:16Z</time>
      </trkpt>
      <trkpt lat="44.71323" lon="7.0585">
        <ele>2743.8</ele>
        <time>2026-09-03T08:33:22Z</time>
      </trkpt>
      <trkpt lat="44.71323" lon="7.0585">
        <ele>2743.8</ele>
        <time>2026-09-03T08:33:27Z</time>
      </trkpt>
      <trkpt lat="44.71323" lon="7.0585">
        <ele>2743.8</ele>
        <time>2026-09-03T08:33:32Z</time>
      </trkpt>
      <trkpt lat="44.71323" lon="7.0585">
        <ele>2743.8</ele>
        <time>2026-09-03T08:33:38Z</time>
      </trkpt>
      <trkpt lat="44.71323" lon="7.0585">
        <ele>2743.8</ele>
        <time>2026-09-03T08:33:43Z</time>
      </trkpt>
      <trkpt lat="44.71323" lon="7.0585">
        <ele>2743.8</ele>
        <time>2026-09-03T08:33:48Z</time>
      </trkpt>
      <trkpt lat="44.71323" lon="7.0585">
        <ele>2743.8</ele>
        <time>2026-09-03T08:33:54Z</time>
      </trkpt>
      <trkpt lat="44.71323" lon="7.0585">
        <ele>2743.8</ele>
        <time>2026-09-03T08:33:59Z</time>
      </trkpt>
      <trkpt lat="44.71323" lon="7.0585">
        <ele>2743.8</ele>
        <time>2026-09-03T08:34:04Z</time>
      </trkpt>
      <trkpt lat="44.71323" lon="7.0585">
        <ele>2743.8</ele>
        <time>2026-09-03T08:34:10Z</time>
      </trkpt>
      <trkpt lat="44.71323" lon="7.0585">
        <ele>2743.8</ele>
        <time>2026-09-03T08:34:15Z</time>
      </trkpt>
      <trkpt lat="44.71323" lon="7.0585">
        <ele>2743.8</ele>
        <time>2026-09-03T08:34:20Z</time>
      </trkpt>
      <trkpt lat="44.71323" lon="7.0585">
        <ele>2743.8</ele>
        <time>2026-09-03T08:34:26Z</time>
      </trkpt>
      <trkpt lat="44.71323" lon="7.0585">
        <ele>2743.8</ele>
        <time>2026-09-03T08:34:31Z</time>
      </trkpt>
      <trkpt lat="44.71323" lon="7.0585">
        <ele>2743.8</ele>
        <time>2026-09-03T08:34:36Z</time>
      </trkpt>
      <trkpt lat="44.71314" lon="7.05848">
        <ele>2739.8</ele>
        <time>2026-09-03T08:34:42Z</time>
      </trkpt>
      <trkpt lat="44.71311" lon="7.05849">
        <ele>2738.6</ele>
        <time>2026-09-03T08:34:47Z</time>
      </trkpt>
      <trkpt lat="44.71308" lon="7.05849">
        <ele>2737.3</ele>
        <time>2026-09-03T08:34:52Z</time>
      </trkpt>
      <trkpt lat="44.71305" lon="7.05849">
        <ele>2736</ele>
        <time>2026-09-03T08:34:58Z</time>
      </trkpt>
      <trkpt lat="44.71302" lon="7.05848">
        <ele>2734.7</ele>
        <time>2026-09-03T08:35:03Z</time>
      </trkpt>
      <trkpt lat="44.713" lon="7.05848">
        <ele>2733.8</ele>
        <time>2026-09-03T08:35:08Z</time>
      </trkpt>
      <trkpt lat="44.713" lon="7.05854">
        <ele>2734.2</ele>
        <time>2026-09-03T08:35:14Z</time>
      </trkpt>
      <trkpt lat="44.71301" lon="7.0586">
        <ele>2735.1</ele>
        <time>2026-09-03T08:35:19Z</time>
      </trkpt>
      <trkpt lat="44.71303" lon="7.05868">
        <ele>2736.4</ele>
        <time>2026-09-03T08:35:24Z</time>
      </trkpt>
      <trkpt lat="44.71305" lon="7.05876">
        <ele>2737.7</ele>
        <time>2026-09-03T08:35:30Z</time>
      </trkpt>
      <trkpt lat="44.71306" lon="7.0588">
        <ele>2738.3</ele>
        <time>2026-09-03T08:35:35Z</time>
      </trkpt>
      <trkpt lat="44.71305" lon="7.05887">
        <ele>2738.4</ele>
        <time>2026-09-03T08:35:40Z</time>
      </trkpt>
      <trkpt lat="44.71302" lon="7.05894">
        <ele>2737.7</ele>
        <time>2026-09-03T08:35:46Z</time>
      </trkpt>
      <trkpt lat="44.71303" lon="7.05898">
        <ele>2738.3</ele>
        <time>2026-09-03T08:35:51Z</time>
      </trkpt>
      <trkpt lat="44.71303" lon="7.05902">
        <ele>2738.6</ele>
        <time>2026-09-03T08:35:56Z</time>
      </trkpt>
      <trkpt lat="44.71301" lon="7.05904">
        <ele>2738.1</ele>
        <time>2026-09-03T08:36:02Z</time>
      </trkpt>
      <trkpt lat="44.71298" lon="7.05903">
        <ele>2737</ele>
        <time>2026-09-03T08:36:07Z</time>
      </trkpt>
      <trkpt lat="44.71295" lon="7.05902">
        <ele>2735.9</ele>
        <time>2026-09-03T08:36:12Z</time>
      </trkpt>
      <trkpt lat="44.71291" lon="7.05902">
        <ele>2734.5</ele>
        <time>2026-09-03T08:36:18Z</time>
      </trkpt>
      <trkpt lat="44.71288" lon="7.059">
        <ele>2733.4</ele>
        <time>2026-09-03T08:36:23Z</time>
      </trkpt>
      <trkpt lat="44.71285" lon="7.05898">
        <ele>2732.1</ele>
        <time>2026-09-03T08:36:28Z</time>
      </trkpt>
      <trkpt lat="44.71283" lon="7.05895">
        <ele>2731.2</ele>
        <time>2026-09-03T08:36:34Z</time>
      </trkpt>
      <trkpt lat="44.71281" lon="7.05895">
        <ele>2730.5</ele>
        <time>2026-09-03T08:36:39Z</time>
      </trkpt>
      <trkpt lat="44.71279" lon="7.05894">
        <ele>2729.6</ele>
        <time>2026-09-03T08:36:44Z</time>
      </trkpt>
      <trkpt lat="44.71275" lon="7.05894">
        <ele>2728.2</ele>
        <time>2026-09-03T08:36:50Z</time>
      </trkpt>
      <trkpt lat="44.71272" lon="7.05892">
        <ele>2727</ele>
        <time>2026-09-03T08:36:55Z</time>
      </trkpt>
      <trkpt lat="44.71272" lon="7.05897">
        <ele>2727.5</ele>
        <time>2026-09-03T08:37:00Z</time>
      </trkpt>
      <trkpt lat="44.71271" lon="7.05904">
        <ele>2728</ele>
        <time>2026-09-03T08:37:06Z</time>
      </trkpt>
      <trkpt lat="44.71267" lon="7.05907">
        <ele>2727.1</ele>
        <time>2026-09-03T08:37:11Z</time>
      </trkpt>
      <trkpt lat="44.71262" lon="7.05908">
        <ele>2725.6</ele>
        <time>2026-09-03T08:37:16Z</time>
      </trkpt>
      <trkpt lat="44.71257" lon="7.05911">
        <ele>2724.4</ele>
        <time>2026-09-03T08:37:22Z</time>
      </trkpt>
      <trkpt lat="44.71254" lon="7.05909">
        <ele>2723.1</ele>
        <time>2026-09-03T08:37:27Z</time>
      </trkpt>
      <trkpt lat="44.7125" lon="7.0591">
        <ele>2722</ele>
        <time>2026-09-03T08:37:32Z</time>
      </trkpt>
      <trkpt lat="44.71246" lon="7.05909">
        <ele>2720.7</ele>
        <time>2026-09-03T08:37:38Z</time>
      </trkpt>
      <trkpt lat="44.71245" lon="7.05912">
        <ele>2720.9</ele>
        <time>2026-09-03T08:37:43Z</time>
      </trkpt>
      <trkpt lat="44.71243" lon="7.05911">
        <ele>2720.2</ele>
        <time>2026-09-03T08:37:48Z</time>
      </trkpt>
      <trkpt lat="44.71242" lon="7.05912">
        <ele>2720.1</ele>
        <time>2026-09-03T08:37:54Z</time>
      </trkpt>
      <trkpt lat="44.71238" lon="7.0591">
        <ele>2718.6</ele>
        <time>2026-09-03T08:37:59Z</time>
      </trkpt>
      <trkpt lat="44.71236" lon="7.0591">
        <ele>2718.1</ele>
        <time>2026-09-03T08:38:04Z</time>
      </trkpt>
      <trkpt lat="44.71232" lon="7.05914">
        <ele>2717.6</ele>
        <time>2026-09-03T08:38:10Z</time>
      </trkpt>
      <trkpt lat="44.71229" lon="7.05916">
        <ele>2717.1</ele>
        <time>2026-09-03T08:38:15Z</time>
      </trkpt>
      <trkpt lat="44.71227" lon="7.0592">
        <ele>2717.6</ele>
        <time>2026-09-03T08:38:20Z</time>
      </trkpt>
      <trkpt lat="44.71224" lon="7.05924">
        <ele>2717.9</ele>
        <time>2026-09-03T08:38:26Z</time>
      </trkpt>
      <trkpt lat="44.7122" lon="7.05926">
        <ele>2717.4</ele>
        <time>2026-09-03T08:38:31Z</time>
      </trkpt>
      <trkpt lat="44.71217" lon="7.05928">
        <ele>2717.2</ele>
        <time>2026-09-03T08:38:36Z</time>
      </trkpt>
      <trkpt lat="44.71214" lon="7.05933">
        <ele>2717.8</ele>
        <time>2026-09-03T08:38:42Z</time>
      </trkpt>
      <trkpt lat="44.71212" lon="7.05935">
        <ele>2717.9</ele>
        <time>2026-09-03T08:38:47Z</time>
      </trkpt>
      <trkpt lat="44.7121" lon="7.05932">
        <ele>2716.5</ele>
        <time>2026-09-03T08:38:52Z</time>
      </trkpt>
      <trkpt lat="44.71211" lon="7.05929">
        <ele>2715.9</ele>
        <time>2026-09-03T08:38:58Z</time>
      </trkpt>
      <trkpt lat="44.71211" lon="7.05928">
        <ele>2715.6</ele>
        <time>2026-09-03T08:39:03Z</time>
      </trkpt>
      <trkpt lat="44.71211" lon="7.05928">
        <ele>2715.6</ele>
        <time>2026-09-03T08:39:08Z</time>
      </trkpt>
      <trkpt lat="44.71211" lon="7.05928">
        <ele>2715.6</ele>
        <time>2026-09-03T08:39:14Z</time>
      </trkpt>
      <trkpt lat="44.71211" lon="7.05928">
        <ele>2715.6</ele>
        <time>2026-09-03T08:39:19Z</time>
      </trkpt>
      <trkpt lat="44.71211" lon="7.05928">
        <ele>2715.6</ele>
        <time>2026-09-03T08:39:24Z</time>
      </trkpt>
      <trkpt lat="44.71211" lon="7.05928">
        <ele>2715.6</ele>
        <time>2026-09-03T08:39:30Z</time>
      </trkpt>
      <trkpt lat="44.71211" lon="7.05928">
        <ele>2715.6</ele>
        <time>2026-09-03T08:39:35Z</time>
      </trkpt>
      <trkpt lat="44.71211" lon="7.05928">
        <ele>2715.6</ele>
        <time>2026-09-03T08:39:40Z</time>
      </trkpt>
      <trkpt lat="44.71201" lon="7.0592">
        <ele>2710.5</ele>
        <time>2026-09-03T08:39:46Z</time>
      </trkpt>
      <trkpt lat="44.71199" lon="7.05921">
        <ele>2710.3</ele>
        <time>2026-09-03T08:39:51Z</time>
      </trkpt>
      <trkpt lat="44.71198" lon="7.05927">
        <ele>2711.9</ele>
        <time>2026-09-03T08:39:56Z</time>
      </trkpt>
      <trkpt lat="44.71196" lon="7.0593">
        <ele>2712.3</ele>
        <time>2026-09-03T08:40:02Z</time>
      </trkpt>
      <trkpt lat="44.71194" lon="7.05931">
        <ele>2712.1</ele>
        <time>2026-09-03T08:40:07Z</time>
      </trkpt>
      <trkpt lat="44.71191" lon="7.05932">
        <ele>2711.7</ele>
        <time>2026-09-03T08:40:12Z</time>
      </trkpt>
      <trkpt lat="44.71188" lon="7.05933">
        <ele>2711.3</ele>
        <time>2026-09-03T08:40:18Z</time>
      </trkpt>
      <trkpt lat="44.71187" lon="7.05933">
        <ele>2711</ele>
        <time>2026-09-03T08:40:23Z</time>
      </trkpt>
      <trkpt lat="44.71184" lon="7.05934">
        <ele>2710.6</ele>
        <time>2026-09-03T08:40:28Z</time>
      </trkpt>
      <trkpt lat="44.71183" lon="7.05934">
        <ele>2710.3</ele>
        <time>2026-09-03T08:40:34Z</time>
      </trkpt>
      <trkpt lat="44.71182" lon="7.05932">
        <ele>2709.4</ele>
        <time>2026-09-03T08:40:39Z</time>
      </trkpt>
      <trkpt lat="44.7118" lon="7.05932">
        <ele>2708.9</ele>
        <time>2026-09-03T08:40:44Z</time>
      </trkpt>
      <trkpt lat="44.71177" lon="7.05931">
        <ele>2707.8</ele>
        <time>2026-09-03T08:40:50Z</time>
      </trkpt>
      <trkpt lat="44.71176" lon="7.0593">
        <ele>2707.2</ele>
        <time>2026-09-03T08:40:55Z</time>
      </trkpt>
      <trkpt lat="44.71174" lon="7.05928">
        <ele>2706</ele>
        <time>2026-09-03T08:41:00Z</time>
      </trkpt>
      <trkpt lat="44.71171" lon="7.0593">
        <ele>2705.9</ele>
        <time>2026-09-03T08:41:06Z</time>
      </trkpt>
      <trkpt lat="44.7117" lon="7.05929">
        <ele>2705.3</ele>
        <time>2026-09-03T08:41:11Z</time>
      </trkpt>
      <trkpt lat="44.7117" lon="7.05927">
        <ele>2704.6</ele>
        <time>2026-09-03T08:41:16Z</time>
      </trkpt>
      <trkpt lat="44.7117" lon="7.05927">
        <ele>2704.6</ele>
        <time>2026-09-03T08:41:22Z</time>
      </trkpt>
      <trkpt lat="44.7117" lon="7.05927">
        <ele>2704.6</ele>
        <time>2026-09-03T08:41:27Z</time>
      </trkpt>
      <trkpt lat="44.7117" lon="7.05927">
        <ele>2704.6</ele>
        <time>2026-09-03T08:41:32Z</time>
      </trkpt>
      <trkpt lat="44.7117" lon="7.05927">
        <ele>2704.6</ele>
        <time>2026-09-03T08:41:38Z</time>
      </trkpt>
      <trkpt lat="44.7117" lon="7.05927">
        <ele>2704.6</ele>
        <time>2026-09-03T08:41:43Z</time>
      </trkpt>
      <trkpt lat="44.71169" lon="7.05922">
        <ele>2702.5</ele>
        <time>2026-09-03T08:41:48Z</time>
      </trkpt>
      <trkpt lat="44.71165" lon="7.05923">
        <ele>2702.3</ele>
        <time>2026-09-03T08:41:54Z</time>
      </trkpt>
      <trkpt lat="44.71161" lon="7.05925">
        <ele>2703.1</ele>
        <time>2026-09-03T08:41:59Z</time>
      </trkpt>
      <trkpt lat="44.7116" lon="7.05924">
        <ele>2702.8</ele>
        <time>2026-09-03T08:42:04Z</time>
      </trkpt>
      <trkpt lat="44.71159" lon="7.05923">
        <ele>2702.5</ele>
        <time>2026-09-03T08:42:10Z</time>
      </trkpt>
      <trkpt lat="44.71159" lon="7.05923">
        <ele>2702.5</ele>
        <time>2026-09-03T08:42:15Z</time>
      </trkpt>
      <trkpt lat="44.71159" lon="7.05923">
        <ele>2702.5</ele>
        <time>2026-09-03T08:42:20Z</time>
      </trkpt>
      <trkpt lat="44.71159" lon="7.05923">
        <ele>2702.5</ele>
        <time>2026-09-03T08:42:26Z</time>
      </trkpt>
      <trkpt lat="44.71159" lon="7.05923">
        <ele>2702.5</ele>
        <time>2026-09-03T08:42:31Z</time>
      </trkpt>
      <trkpt lat="44.71159" lon="7.05923">
        <ele>2702.5</ele>
        <time>2026-09-03T08:42:36Z</time>
      </trkpt>
      <trkpt lat="44.71159" lon="7.05923">
        <ele>2702.5</ele>
        <time>2026-09-03T08:42:42Z</time>
      </trkpt>
      <trkpt lat="44.71159" lon="7.05923">
        <ele>2702.5</ele>
        <time>2026-09-03T08:42:47Z</time>
      </trkpt>
      <trkpt lat="44.71159" lon="7.05923">
        <ele>2702.5</ele>
        <time>2026-09-03T08:42:52Z</time>
      </trkpt>
      <trkpt lat="44.71159" lon="7.05923">
        <ele>2702.5</ele>
        <time>2026-09-03T08:42:58Z</time>
      </trkpt>
      <trkpt lat="44.71159" lon="7.05923">
        <ele>2702.5</ele>
        <time>2026-09-03T08:43:03Z</time>
      </trkpt>
      <trkpt lat="44.71159" lon="7.05923">
        <ele>2702.5</ele>
        <time>2026-09-03T08:43:08Z</time>
      </trkpt>
      <trkpt lat="44.71159" lon="7.05923">
        <ele>2702.5</ele>
        <time>2026-09-03T08:43:14Z</time>
      </trkpt>
      <trkpt lat="44.71159" lon="7.05923">
        <ele>2702.5</ele>
        <time>2026-09-03T08:43:19Z</time>
      </trkpt>
      <trkpt lat="44.71159" lon="7.05923">
        <ele>2702.5</ele>
        <time>2026-09-03T08:43:24Z</time>
      </trkpt>
      <trkpt lat="44.71159" lon="7.05923">
        <ele>2702.5</ele>
        <time>2026-09-03T08:43:30Z</time>
      </trkpt>
      <trkpt lat="44.71159" lon="7.05923">
        <ele>2702.5</ele>
        <time>2026-09-03T08:43:35Z</time>
      </trkpt>
      <trkpt lat="44.71159" lon="7.05923">
        <ele>2702.5</ele>
        <time>2026-09-03T08:43:40Z</time>
      </trkpt>
      <trkpt lat="44.71159" lon="7.05923">
        <ele>2702.5</ele>
        <time>2026-09-03T08:43:46Z</time>
      </trkpt>
      <trkpt lat="44.71159" lon="7.05923">
        <ele>2702.5</ele>
        <time>2026-09-03T08:43:51Z</time>
      </trkpt>
      <trkpt lat="44.71159" lon="7.05923">
        <ele>2702.5</ele>
        <time>2026-09-03T08:43:56Z</time>
      </trkpt>
      <trkpt lat="44.71159" lon="7.05923">
        <ele>2702.5</ele>
        <time>2026-09-03T08:44:02Z</time>
      </trkpt>
      <trkpt lat="44.71159" lon="7.05923">
        <ele>2702.5</ele>
        <time>2026-09-03T08:44:07Z</time>
      </trkpt>
      <trkpt lat="44.71162" lon="7.05918">
        <ele>2700.6</ele>
        <time>2026-09-03T08:44:12Z</time>
      </trkpt>
      <trkpt lat="44.71162" lon="7.05918">
        <ele>2700.6</ele>
        <time>2026-09-03T08:44:18Z</time>
      </trkpt>
      <trkpt lat="44.71162" lon="7.05918">
        <ele>2700.6</ele>
        <time>2026-09-03T08:44:23Z</time>
      </trkpt>
      <trkpt lat="44.71162" lon="7.05918">
        <ele>2700.6</ele>
        <time>2026-09-03T08:44:28Z</time>
      </trkpt>
      <trkpt lat="44.71162" lon="7.05918">
        <ele>2700.6</ele>
        <time>2026-09-03T08:44:34Z</time>
      </trkpt>
      <trkpt lat="44.71162" lon="7.05918">
        <ele>2700.6</ele>
        <time>2026-09-03T08:44:39Z</time>
      </trkpt>
      <trkpt lat="44.71162" lon="7.05918">
        <ele>2700.6</ele>
        <time>2026-09-03T08:44:44Z</time>
      </trkpt>
      <trkpt lat="44.71162" lon="7.05918">
        <ele>2700.6</ele>
        <time>2026-09-03T08:44:50Z</time>
      </trkpt>
      <trkpt lat="44.71159" lon="7.05905">
        <ele>2697.9</ele>
        <time>2026-09-03T08:44:55Z</time>
      </trkpt>
      <trkpt lat="44.71159" lon="7.05905">
        <ele>2697.9</ele>
        <time>2026-09-03T08:45:00Z</time>
      </trkpt>
      <trkpt lat="44.71158" lon="7.05898">
        <ele>2696.6</ele>
        <time>2026-09-03T08:45:06Z</time>
      </trkpt>
      <trkpt lat="44.71157" lon="7.05894">
        <ele>2695.8</ele>
        <time>2026-09-03T08:45:11Z</time>
      </trkpt>
      <trkpt lat="44.71157" lon="7.05894">
        <ele>2695.8</ele>
        <time>2026-09-03T08:45:16Z</time>
      </trkpt>
      <trkpt lat="44.71158" lon="7.05893">
        <ele>2695.6</ele>
        <time>2026-09-03T08:45:22Z</time>
      </trkpt>
      <trkpt lat="44.71158" lon="7.05887">
        <ele>2694.4</ele>
        <time>2026-09-03T08:45:27Z</time>
      </trkpt>
      <trkpt lat="44.71159" lon="7.05885">
        <ele>2694.1</ele>
        <time>2026-09-03T08:45:32Z</time>
      </trkpt>
      <trkpt lat="44.71161" lon="7.05883">
        <ele>2693.7</ele>
        <time>2026-09-03T08:45:38Z</time>
      </trkpt>
      <trkpt lat="44.71161" lon="7.05881">
        <ele>2693.4</ele>
        <time>2026-09-03T08:45:43Z</time>
      </trkpt>
      <trkpt lat="44.71162" lon="7.05879">
        <ele>2693</ele>
        <time>2026-09-03T08:45:48Z</time>
      </trkpt>
      <trkpt lat="44.71162" lon="7.05875">
        <ele>2692.3</ele>
        <time>2026-09-03T08:45:54Z</time>
      </trkpt>
      <trkpt lat="44.71163" lon="7.05871">
        <ele>2691.6</ele>
        <time>2026-09-03T08:45:59Z</time>
      </trkpt>
      <trkpt lat="44.71164" lon="7.05871">
        <ele>2691.6</ele>
        <time>2026-09-03T08:46:04Z</time>
      </trkpt>
      <trkpt lat="44.71165" lon="7.05868">
        <ele>2691.1</ele>
        <time>2026-09-03T08:46:10Z</time>
      </trkpt>
      <trkpt lat="44.71164" lon="7.05866">
        <ele>2690.7</ele>
        <time>2026-09-03T08:46:15Z</time>
      </trkpt>
      <trkpt lat="44.71161" lon="7.05866">
        <ele>2690.5</ele>
        <time>2026-09-03T08:46:20Z</time>
      </trkpt>
      <trkpt lat="44.71158" lon="7.05866">
        <ele>2690.3</ele>
        <time>2026-09-03T08:46:26Z</time>
      </trkpt>
      <trkpt lat="44.71158" lon="7.05866">
        <ele>2690.3</ele>
        <time>2026-09-03T08:46:31Z</time>
      </trkpt>
      <trkpt lat="44.71158" lon="7.05866">
        <ele>2690.3</ele>
        <time>2026-09-03T08:46:36Z</time>
      </trkpt>
      <trkpt lat="44.71156" lon="7.05865">
        <ele>2690</ele>
        <time>2026-09-03T08:46:42Z</time>
      </trkpt>
      <trkpt lat="44.71153" lon="7.05865">
        <ele>2689.8</ele>
        <time>2026-09-03T08:46:47Z</time>
      </trkpt>
      <trkpt lat="44.71152" lon="7.05862">
        <ele>2689.1</ele>
        <time>2026-09-03T08:46:52Z</time>
      </trkpt>
      <trkpt lat="44.71153" lon="7.05859">
        <ele>2688.6</ele>
        <time>2026-09-03T08:46:58Z</time>
      </trkpt>
      <trkpt lat="44.71151" lon="7.05858">
        <ele>2688.2</ele>
        <time>2026-09-03T08:47:03Z</time>
      </trkpt>
      <trkpt lat="44.71148" lon="7.05857">
        <ele>2687.8</ele>
        <time>2026-09-03T08:47:08Z</time>
      </trkpt>
      <trkpt lat="44.71145" lon="7.05858">
        <ele>2687.8</ele>
        <time>2026-09-03T08:47:14Z</time>
      </trkpt>
      <trkpt lat="44.71141" lon="7.05859">
        <ele>2687.7</ele>
        <time>2026-09-03T08:47:19Z</time>
      </trkpt>
      <trkpt lat="44.71138" lon="7.05862">
        <ele>2688.1</ele>
        <time>2026-09-03T08:47:24Z</time>
      </trkpt>
      <trkpt lat="44.71136" lon="7.05862">
        <ele>2688</ele>
        <time>2026-09-03T08:47:30Z</time>
      </trkpt>
      <trkpt lat="44.71131" lon="7.05859">
        <ele>2686.9</ele>
        <time>2026-09-03T08:47:35Z</time>
      </trkpt>
      <trkpt lat="44.71127" lon="7.05855">
        <ele>2685.6</ele>
        <time>2026-09-03T08:47:40Z</time>
      </trkpt>
      <trkpt lat="44.71122" lon="7.05857">
        <ele>2685.7</ele>
        <time>2026-09-03T08:47:46Z</time>
      </trkpt>
      <trkpt lat="44.71119" lon="7.05862">
        <ele>2686.8</ele>
        <time>2026-09-03T08:47:51Z</time>
      </trkpt>
      <trkpt lat="44.71118" lon="7.05861">
        <ele>2686.5</ele>
        <time>2026-09-03T08:47:56Z</time>
      </trkpt>
      <trkpt lat="44.71116" lon="7.05862">
        <ele>2686.6</ele>
        <time>2026-09-03T08:48:02Z</time>
      </trkpt>
      <trkpt lat="44.71114" lon="7.05865">
        <ele>2687.3</ele>
        <time>2026-09-03T08:48:07Z</time>
      </trkpt>
      <trkpt lat="44.71112" lon="7.05863">
        <ele>2686.6</ele>
        <time>2026-09-03T08:48:12Z</time>
      </trkpt>
      <trkpt lat="44.7111" lon="7.05856">
        <ele>2684.5</ele>
        <time>2026-09-03T08:48:18Z</time>
      </trkpt>
      <trkpt lat="44.71111" lon="7.05852">
        <ele>2683.5</ele>
        <time>2026-09-03T08:48:23Z</time>
      </trkpt>
      <trkpt lat="44.7111" lon="7.05849">
        <ele>2682.6</ele>
        <time>2026-09-03T08:48:28Z</time>
      </trkpt>
      <trkpt lat="44.71112" lon="7.05846">
        <ele>2681.9</ele>
        <time>2026-09-03T08:48:34Z</time>
      </trkpt>
      <trkpt lat="44.71111" lon="7.05842">
        <ele>2680.7</ele>
        <time>2026-09-03T08:48:39Z</time>
      </trkpt>
      <trkpt lat="44.71112" lon="7.05837">
        <ele>2679.4</ele>
        <time>2026-09-03T08:48:44Z</time>
      </trkpt>
      <trkpt lat="44.71113" lon="7.05834">
        <ele>2678.7</ele>
        <time>2026-09-03T08:48:50Z</time>
      </trkpt>
      <trkpt lat="44.71114" lon="7.05832">
        <ele>2678.4</ele>
        <time>2026-09-03T08:48:55Z</time>
      </trkpt>
      <trkpt lat="44.71112" lon="7.0583">
        <ele>2677.8</ele>
        <time>2026-09-03T08:49:00Z</time>
      </trkpt>
      <trkpt lat="44.71109" lon="7.05827">
        <ele>2676.8</ele>
        <time>2026-09-03T08:49:06Z</time>
      </trkpt>
      <trkpt lat="44.71107" lon="7.05823">
        <ele>2675.7</ele>
        <time>2026-09-03T08:49:11Z</time>
      </trkpt>
      <trkpt lat="44.71107" lon="7.05823">
        <ele>2675.7</ele>
        <time>2026-09-03T08:49:16Z</time>
      </trkpt>
      <trkpt lat="44.71107" lon="7.05823">
        <ele>2675.7</ele>
        <time>2026-09-03T08:49:22Z</time>
      </trkpt>
      <trkpt lat="44.71107" lon="7.05823">
        <ele>2675.7</ele>
        <time>2026-09-03T08:49:27Z</time>
      </trkpt>
      <trkpt lat="44.71107" lon="7.05823">
        <ele>2675.7</ele>
        <time>2026-09-03T08:49:32Z</time>
      </trkpt>
      <trkpt lat="44.71107" lon="7.05823">
        <ele>2675.7</ele>
        <time>2026-09-03T08:49:38Z</time>
      </trkpt>
      <trkpt lat="44.71101" lon="7.0582">
        <ele>2674.3</ele>
        <time>2026-09-03T08:49:43Z</time>
      </trkpt>
      <trkpt lat="44.71098" lon="7.05817">
        <ele>2673.3</ele>
        <time>2026-09-03T08:49:48Z</time>
      </trkpt>
      <trkpt lat="44.71095" lon="7.05815">
        <ele>2672.5</ele>
        <time>2026-09-03T08:49:54Z</time>
      </trkpt>
      <trkpt lat="44.71092" lon="7.05814">
        <ele>2671.9</ele>
        <time>2026-09-03T08:49:59Z</time>
      </trkpt>
      <trkpt lat="44.71088" lon="7.05811">
        <ele>2670.8</ele>
        <time>2026-09-03T08:50:04Z</time>
      </trkpt>
      <trkpt lat="44.71088" lon="7.05805">
        <ele>2669.5</ele>
        <time>2026-09-03T08:50:10Z</time>
      </trkpt>
      <trkpt lat="44.71091" lon="7.05801">
        <ele>2669</ele>
        <time>2026-09-03T08:50:15Z</time>
      </trkpt>
      <trkpt lat="44.71087" lon="7.058">
        <ele>2668.3</ele>
        <time>2026-09-03T08:50:20Z</time>
      </trkpt>
      <trkpt lat="44.71083" lon="7.05799">
        <ele>2667.5</ele>
        <time>2026-09-03T08:50:26Z</time>
      </trkpt>
      <trkpt lat="44.71082" lon="7.05796">
        <ele>2666.8</ele>
        <time>2026-09-03T08:50:31Z</time>
      </trkpt>
      <trkpt lat="44.7108" lon="7.05796">
        <ele>2666.5</ele>
        <time>2026-09-03T08:50:36Z</time>
      </trkpt>
      <trkpt lat="44.71076" lon="7.05794">
        <ele>2665.6</ele>
        <time>2026-09-03T08:50:42Z</time>
      </trkpt>
      <trkpt lat="44.71072" lon="7.05793">
        <ele>2664.9</ele>
        <time>2026-09-03T08:50:47Z</time>
      </trkpt>
      <trkpt lat="44.71068" lon="7.05792">
        <ele>2664.1</ele>
        <time>2026-09-03T08:50:52Z</time>
      </trkpt>
      <trkpt lat="44.71062" lon="7.05793">
        <ele>2663.6</ele>
        <time>2026-09-03T08:50:58Z</time>
      </trkpt>
      <trkpt lat="44.71057" lon="7.05792">
        <ele>2662.8</ele>
        <time>2026-09-03T08:51:03Z</time>
      </trkpt>
      <trkpt lat="44.71051" lon="7.05792">
        <ele>2662</ele>
        <time>2026-09-03T08:51:08Z</time>
      </trkpt>
      <trkpt lat="44.71046" lon="7.05791">
        <ele>2661.1</ele>
        <time>2026-09-03T08:51:14Z</time>
      </trkpt>
      <trkpt lat="44.71042" lon="7.05791">
        <ele>2660.6</ele>
        <time>2026-09-03T08:51:19Z</time>
      </trkpt>
      <trkpt lat="44.71039" lon="7.0579">
        <ele>2660</ele>
        <time>2026-09-03T08:51:24Z</time>
      </trkpt>
      <trkpt lat="44.71037" lon="7.05788">
        <ele>2659.1</ele>
        <time>2026-09-03T08:51:30Z</time>
      </trkpt>
      <trkpt lat="44.71035" lon="7.05785">
        <ele>2658.1</ele>
        <time>2026-09-03T08:51:35Z</time>
      </trkpt>
      <trkpt lat="44.71033" lon="7.05781">
        <ele>2656.7</ele>
        <time>2026-09-03T08:51:40Z</time>
      </trkpt>
      <trkpt lat="44.7103" lon="7.0578">
        <ele>2656</ele>
        <time>2026-09-03T08:51:46Z</time>
      </trkpt>
      <trkpt lat="44.71029" lon="7.05777">
        <ele>2655</ele>
        <time>2026-09-03T08:51:51Z</time>
      </trkpt>
      <trkpt lat="44.71026" lon="7.05778">
        <ele>2654.8</ele>
        <time>2026-09-03T08:51:56Z</time>
      </trkpt>
      <trkpt lat="44.71022" lon="7.0578">
        <ele>2654.8</ele>
        <time>2026-09-03T08:52:02Z</time>
      </trkpt>
      <trkpt lat="44.71019" lon="7.0578">
        <ele>2654.4</ele>
        <time>2026-09-03T08:52:07Z</time>
      </trkpt>
      <trkpt lat="44.71015" lon="7.05779">
        <ele>2653.5</ele>
        <time>2026-09-03T08:52:12Z</time>
      </trkpt>
      <trkpt lat="44.71011" lon="7.05777">
        <ele>2652.3</ele>
        <time>2026-09-03T08:52:18Z</time>
      </trkpt>
      <trkpt lat="44.71009" lon="7.05774">
        <ele>2651.1</ele>
        <time>2026-09-03T08:52:23Z</time>
      </trkpt>
      <trkpt lat="44.71006" lon="7.05774">
        <ele>2650.7</ele>
        <time>2026-09-03T08:52:28Z</time>
      </trkpt>
      <trkpt lat="44.71002" lon="7.05772">
        <ele>2649.4</ele>
        <time>2026-09-03T08:52:34Z</time>
      </trkpt>
      <trkpt lat="44.70998" lon="7.05771">
        <ele>2648.5</ele>
        <time>2026-09-03T08:52:39Z</time>
      </trkpt>
      <trkpt lat="44.70994" lon="7.05766">
        <ele>2646.4</ele>
        <time>2026-09-03T08:52:44Z</time>
      </trkpt>
      <trkpt lat="44.70988" lon="7.05761">
        <ele>2643.9</ele>
        <time>2026-09-03T08:52:50Z</time>
      </trkpt>
      <trkpt lat="44.70985" lon="7.05761">
        <ele>2643.5</ele>
        <time>2026-09-03T08:52:55Z</time>
      </trkpt>
      <trkpt lat="44.70982" lon="7.05761">
        <ele>2643.1</ele>
        <time>2026-09-03T08:53:00Z</time>
      </trkpt>
      <trkpt lat="44.70978" lon="7.0576">
        <ele>2642.3</ele>
        <time>2026-09-03T08:53:06Z</time>
      </trkpt>
      <trkpt lat="44.70974" lon="7.0576">
        <ele>2641.7</ele>
        <time>2026-09-03T08:53:11Z</time>
      </trkpt>
      <trkpt lat="44.70971" lon="7.05758">
        <ele>2640.7</ele>
        <time>2026-09-03T08:53:16Z</time>
      </trkpt>
      <trkpt lat="44.70966" lon="7.05758">
        <ele>2640</ele>
        <time>2026-09-03T08:53:22Z</time>
      </trkpt>
      <trkpt lat="44.70962" lon="7.05757">
        <ele>2639.2</ele>
        <time>2026-09-03T08:53:27Z</time>
      </trkpt>
      <trkpt lat="44.70959" lon="7.05754">
        <ele>2637.8</ele>
        <time>2026-09-03T08:53:32Z</time>
      </trkpt>
      <trkpt lat="44.70959" lon="7.05754">
        <ele>2637.8</ele>
        <time>2026-09-03T08:53:38Z</time>
      </trkpt>
      <trkpt lat="44.70959" lon="7.05754">
        <ele>2637.8</ele>
        <time>2026-09-03T08:53:43Z</time>
      </trkpt>
      <trkpt lat="44.70959" lon="7.05754">
        <ele>2637.8</ele>
        <time>2026-09-03T08:53:48Z</time>
      </trkpt>
      <trkpt lat="44.70959" lon="7.05754">
        <ele>2637.8</ele>
        <time>2026-09-03T08:53:54Z</time>
      </trkpt>
      <trkpt lat="44.70959" lon="7.05754">
        <ele>2637.8</ele>
        <time>2026-09-03T08:53:59Z</time>
      </trkpt>
      <trkpt lat="44.70959" lon="7.05754">
        <ele>2637.8</ele>
        <time>2026-09-03T08:54:04Z</time>
      </trkpt>
      <trkpt lat="44.70959" lon="7.05754">
        <ele>2637.8</ele>
        <time>2026-09-03T08:54:10Z</time>
      </trkpt>
      <trkpt lat="44.70959" lon="7.05754">
        <ele>2637.8</ele>
        <time>2026-09-03T08:54:15Z</time>
      </trkpt>
      <trkpt lat="44.70959" lon="7.05754">
        <ele>2637.8</ele>
        <time>2026-09-03T08:54:20Z</time>
      </trkpt>
      <trkpt lat="44.70959" lon="7.05754">
        <ele>2637.8</ele>
        <time>2026-09-03T08:54:26Z</time>
      </trkpt>
      <trkpt lat="44.70959" lon="7.05754">
        <ele>2637.8</ele>
        <time>2026-09-03T08:54:31Z</time>
      </trkpt>
      <trkpt lat="44.70959" lon="7.05754">
        <ele>2637.8</ele>
        <time>2026-09-03T08:54:36Z</time>
      </trkpt>
      <trkpt lat="44.70959" lon="7.05754">
        <ele>2637.8</ele>
        <time>2026-09-03T08:54:42Z</time>
      </trkpt>
      <trkpt lat="44.70959" lon="7.05754">
        <ele>2637.8</ele>
        <time>2026-09-03T08:54:47Z</time>
      </trkpt>
      <trkpt lat="44.70959" lon="7.05754">
        <ele>2637.8</ele>
        <time>2026-09-03T08:54:52Z</time>
      </trkpt>
      <trkpt lat="44.70959" lon="7.05754">
        <ele>2637.8</ele>
        <time>2026-09-03T08:54:58Z</time>
      </trkpt>
      <trkpt lat="44.70959" lon="7.05754">
        <ele>2637.8</ele>
        <time>2026-09-03T08:55:03Z</time>
      </trkpt>
      <trkpt lat="44.70959" lon="7.05754">
        <ele>2637.8</ele>
        <time>2026-09-03T08:55:08Z</time>
      </trkpt>
      <trkpt lat="44.70959" lon="7.05754">
        <ele>2637.8</ele>
        <time>2026-09-03T08:55:14Z</time>
      </trkpt>
      <trkpt lat="44.70959" lon="7.05754">
        <ele>2637.8</ele>
        <time>2026-09-03T08:55:19Z</time>
      </trkpt>
      <trkpt lat="44.70966" lon="7.0576">
        <ele>2640.7</ele>
        <time>2026-09-03T08:55:24Z</time>
      </trkpt>
      <trkpt lat="44.70969" lon="7.05764">
        <ele>2642.3</ele>
        <time>2026-09-03T08:55:30Z</time>
      </trkpt>
      <trkpt lat="44.70971" lon="7.05763">
        <ele>2642.3</ele>
        <time>2026-09-03T08:55:35Z</time>
      </trkpt>
      <trkpt lat="44.70973" lon="7.05764">
        <ele>2642.9</ele>
        <time>2026-09-03T08:55:40Z</time>
      </trkpt>
      <trkpt lat="44.70974" lon="7.05764">
        <ele>2643</ele>
        <time>2026-09-03T08:55:46Z</time>
      </trkpt>
      <trkpt lat="44.70974" lon="7.05764">
        <ele>2643</ele>
        <time>2026-09-03T08:55:51Z</time>
      </trkpt>
      <trkpt lat="44.70977" lon="7.05768">
        <ele>2644.7</ele>
        <time>2026-09-03T08:55:56Z</time>
      </trkpt>
      <trkpt lat="44.70978" lon="7.05771">
        <ele>2645.8</ele>
        <time>2026-09-03T08:56:02Z</time>
      </trkpt>
      <trkpt lat="44.70978" lon="7.0577">
        <ele>2645.4</ele>
        <time>2026-09-03T08:56:07Z</time>
      </trkpt>
      <trkpt lat="44.70978" lon="7.0577">
        <ele>2645.4</ele>
        <time>2026-09-03T08:56:12Z</time>
      </trkpt>
      <trkpt lat="44.70978" lon="7.0577">
        <ele>2645.4</ele>
        <time>2026-09-03T08:56:18Z</time>
      </trkpt>
      <trkpt lat="44.70978" lon="7.0577">
        <ele>2645.4</ele>
        <time>2026-09-03T08:56:23Z</time>
      </trkpt>
      <trkpt lat="44.70978" lon="7.0577">
        <ele>2645.4</ele>
        <time>2026-09-03T08:56:28Z</time>
      </trkpt>
      <trkpt lat="44.70978" lon="7.0577">
        <ele>2645.4</ele>
        <time>2026-09-03T08:56:34Z</time>
      </trkpt>
      <trkpt lat="44.70978" lon="7.0577">
        <ele>2645.4</ele>
        <time>2026-09-03T08:56:39Z</time>
      </trkpt>
      <trkpt lat="44.70978" lon="7.0577">
        <ele>2645.4</ele>
        <time>2026-09-03T08:56:44Z</time>
      </trkpt>
      <trkpt lat="44.70978" lon="7.0577">
        <ele>2645.4</ele>
        <time>2026-09-03T08:56:50Z</time>
      </trkpt>
      <trkpt lat="44.70978" lon="7.0577">
        <ele>2645.4</ele>
        <time>2026-09-03T08:56:55Z</time>
      </trkpt>
      <trkpt lat="44.70978" lon="7.0577">
        <ele>2645.4</ele>
        <time>2026-09-03T08:57:00Z</time>
      </trkpt>
      <trkpt lat="44.70978" lon="7.0577">
        <ele>2645.4</ele>
        <time>2026-09-03T08:57:06Z</time>
      </trkpt>
      <trkpt lat="44.70978" lon="7.0577">
        <ele>2645.4</ele>
        <time>2026-09-03T08:57:11Z</time>
      </trkpt>
      <trkpt lat="44.70978" lon="7.0577">
        <ele>2645.4</ele>
        <time>2026-09-03T08:57:16Z</time>
      </trkpt>
      <trkpt lat="44.70978" lon="7.0577">
        <ele>2645.4</ele>
        <time>2026-09-03T08:57:22Z</time>
      </trkpt>
      <trkpt lat="44.70978" lon="7.0577">
        <ele>2645.4</ele>
        <time>2026-09-03T08:57:27Z</time>
      </trkpt>
      <trkpt lat="44.70978" lon="7.0577">
        <ele>2645.4</ele>
        <time>2026-09-03T08:57:32Z</time>
      </trkpt>
      <trkpt lat="44.70978" lon="7.0577">
        <ele>2645.4</ele>
        <time>2026-09-03T08:57:38Z</time>
      </trkpt>
      <trkpt lat="44.70978" lon="7.0577">
        <ele>2645.4</ele>
        <time>2026-09-03T08:57:43Z</time>
      </trkpt>
      <trkpt lat="44.70978" lon="7.0577">
        <ele>2645.4</ele>
        <time>2026-09-03T08:57:48Z</time>
      </trkpt>
      <trkpt lat="44.70978" lon="7.0577">
        <ele>2645.4</ele>
        <time>2026-09-03T08:57:54Z</time>
      </trkpt>
      <trkpt lat="44.70978" lon="7.0577">
        <ele>2645.4</ele>
        <time>2026-09-03T08:57:59Z</time>
      </trkpt>
      <trkpt lat="44.70978" lon="7.0577">
        <ele>2645.4</ele>
        <time>2026-09-03T08:58:04Z</time>
      </trkpt>
      <trkpt lat="44.70978" lon="7.0577">
        <ele>2645.4</ele>
        <time>2026-09-03T08:58:10Z</time>
      </trkpt>
      <trkpt lat="44.70978" lon="7.0577">
        <ele>2645.4</ele>
        <time>2026-09-03T08:58:15Z</time>
      </trkpt>
      <trkpt lat="44.70978" lon="7.0577">
        <ele>2645.4</ele>
        <time>2026-09-03T08:58:20Z</time>
      </trkpt>
      <trkpt lat="44.70978" lon="7.0577">
        <ele>2645.4</ele>
        <time>2026-09-03T08:58:26Z</time>
      </trkpt>
      <trkpt lat="44.70981" lon="7.05771">
        <ele>2646.2</ele>
        <time>2026-09-03T08:58:31Z</time>
      </trkpt>
      <trkpt lat="44.70987" lon="7.05769">
        <ele>2646.4</ele>
        <time>2026-09-03T08:58:36Z</time>
      </trkpt>
      <trkpt lat="44.70993" lon="7.05768">
        <ele>2646.9</ele>
        <time>2026-09-03T08:58:42Z</time>
      </trkpt>
      <trkpt lat="44.70998" lon="7.05767">
        <ele>2647.2</ele>
        <time>2026-09-03T08:58:47Z</time>
      </trkpt>
      <trkpt lat="44.71001" lon="7.05769">
        <ele>2648.3</ele>
        <time>2026-09-03T08:58:52Z</time>
      </trkpt>
      <trkpt lat="44.71007" lon="7.05772">
        <ele>2650.2</ele>
        <time>2026-09-03T08:58:58Z</time>
      </trkpt>
      <trkpt lat="44.71009" lon="7.05772">
        <ele>2650.5</ele>
        <time>2026-09-03T08:59:03Z</time>
      </trkpt>
      <trkpt lat="44.71011" lon="7.0577">
        <ele>2650.2</ele>
        <time>2026-09-03T08:59:08Z</time>
      </trkpt>
      <trkpt lat="44.71013" lon="7.05776">
        <ele>2652.3</ele>
        <time>2026-09-03T08:59:14Z</time>
      </trkpt>
      <trkpt lat="44.71016" lon="7.05777">
        <ele>2653.1</ele>
        <time>2026-09-03T08:59:19Z</time>
      </trkpt>
      <trkpt lat="44.71018" lon="7.05775">
        <ele>2652.8</ele>
        <time>2026-09-03T08:59:24Z</time>
      </trkpt>
      <trkpt lat="44.7102" lon="7.05779">
        <ele>2654.2</ele>
        <time>2026-09-03T08:59:30Z</time>
      </trkpt>
      <trkpt lat="44.71024" lon="7.0578">
        <ele>2655.1</ele>
        <time>2026-09-03T08:59:35Z</time>
      </trkpt>
      <trkpt lat="44.71027" lon="7.0578">
        <ele>2655.5</ele>
        <time>2026-09-03T08:59:40Z</time>
      </trkpt>
      <trkpt lat="44.71029" lon="7.05779">
        <ele>2655.5</ele>
        <time>2026-09-03T08:59:46Z</time>
      </trkpt>
      <trkpt lat="44.71032" lon="7.0578">
        <ele>2656.2</ele>
        <time>2026-09-03T08:59:51Z</time>
      </trkpt>
      <trkpt lat="44.71034" lon="7.05781">
        <ele>2656.8</ele>
        <time>2026-09-03T08:59:56Z</time>
      </trkpt>
      <trkpt lat="44.71035" lon="7.05787">
        <ele>2658.6</ele>
        <time>2026-09-03T09:00:02Z</time>
      </trkpt>
      <trkpt lat="44.71034" lon="7.05793">
        <ele>2660.2</ele>
        <time>2026-09-03T09:00:07Z</time>
      </trkpt>
      <trkpt lat="44.71037" lon="7.05796">
        <ele>2661.4</ele>
        <time>2026-09-03T09:00:12Z</time>
      </trkpt>
      <trkpt lat="44.71041" lon="7.05792">
        <ele>2660.8</ele>
        <time>2026-09-03T09:00:18Z</time>
      </trkpt>
      <trkpt lat="44.71044" lon="7.05791">
        <ele>2660.9</ele>
        <time>2026-09-03T09:00:23Z</time>
      </trkpt>
      <trkpt lat="44.71045" lon="7.0579">
        <ele>2660.7</ele>
        <time>2026-09-03T09:00:28Z</time>
      </trkpt>
      <trkpt lat="44.71046" lon="7.0579">
        <ele>2660.9</ele>
        <time>2026-09-03T09:00:34Z</time>
      </trkpt>
      <trkpt lat="44.71046" lon="7.0579">
        <ele>2660.9</ele>
        <time>2026-09-03T09:00:39Z</time>
      </trkpt>
      <trkpt lat="44.71048" lon="7.05788">
        <ele>2660.6</ele>
        <time>2026-09-03T09:00:44Z</time>
      </trkpt>
      <trkpt lat="44.71053" lon="7.05789">
        <ele>2661.5</ele>
        <time>2026-09-03T09:00:50Z</time>
      </trkpt>
      <trkpt lat="44.71057" lon="7.05788">
        <ele>2661.8</ele>
        <time>2026-09-03T09:00:55Z</time>
      </trkpt>
      <trkpt lat="44.71059" lon="7.05789">
        <ele>2662.3</ele>
        <time>2026-09-03T09:01:00Z</time>
      </trkpt>
      <trkpt lat="44.71065" lon="7.0579">
        <ele>2663.3</ele>
        <time>2026-09-03T09:01:06Z</time>
      </trkpt>
      <trkpt lat="44.71069" lon="7.05791">
        <ele>2664</ele>
        <time>2026-09-03T09:01:11Z</time>
      </trkpt>
      <trkpt lat="44.71073" lon="7.05792">
        <ele>2664.8</ele>
        <time>2026-09-03T09:01:16Z</time>
      </trkpt>
      <trkpt lat="44.71076" lon="7.0579">
        <ele>2664.7</ele>
        <time>2026-09-03T09:01:22Z</time>
      </trkpt>
      <trkpt lat="44.71079" lon="7.05789">
        <ele>2664.9</ele>
        <time>2026-09-03T09:01:27Z</time>
      </trkpt>
      <trkpt lat="44.71082" lon="7.05789">
        <ele>2665.3</ele>
        <time>2026-09-03T09:01:32Z</time>
      </trkpt>
      <trkpt lat="44.71084" lon="7.05794">
        <ele>2666.6</ele>
        <time>2026-09-03T09:01:38Z</time>
      </trkpt>
      <trkpt lat="44.71086" lon="7.05796">
        <ele>2667.3</ele>
        <time>2026-09-03T09:01:43Z</time>
      </trkpt>
      <trkpt lat="44.71086" lon="7.05798">
        <ele>2667.7</ele>
        <time>2026-09-03T09:01:48Z</time>
      </trkpt>
      <trkpt lat="44.71087" lon="7.05799">
        <ele>2668.1</ele>
        <time>2026-09-03T09:01:54Z</time>
      </trkpt>
      <trkpt lat="44.71089" lon="7.05801">
        <ele>2668.8</ele>
        <time>2026-09-03T09:01:59Z</time>
      </trkpt>
      <trkpt lat="44.71089" lon="7.05801">
        <ele>2668.8</ele>
        <time>2026-09-03T09:02:04Z</time>
      </trkpt>
      <trkpt lat="44.7109" lon="7.05802">
        <ele>2669.1</ele>
        <time>2026-09-03T09:02:10Z</time>
      </trkpt>
      <trkpt lat="44.71091" lon="7.05802">
        <ele>2669.3</ele>
        <time>2026-09-03T09:02:15Z</time>
      </trkpt>
      <trkpt lat="44.71091" lon="7.05806">
        <ele>2670.1</ele>
        <time>2026-09-03T09:02:20Z</time>
      </trkpt>
      <trkpt lat="44.71093" lon="7.05809">
        <ele>2671</ele>
        <time>2026-09-03T09:02:26Z</time>
      </trkpt>
      <trkpt lat="44.71095" lon="7.05812">
        <ele>2671.9</ele>
        <time>2026-09-03T09:02:31Z</time>
      </trkpt>
      <trkpt lat="44.71096" lon="7.05812">
        <ele>2672</ele>
        <time>2026-09-03T09:02:36Z</time>
      </trkpt>
      <trkpt lat="44.71096" lon="7.05812">
        <ele>2672</ele>
        <time>2026-09-03T09:02:42Z</time>
      </trkpt>
      <trkpt lat="44.71099" lon="7.05814">
        <ele>2672.8</ele>
        <time>2026-09-03T09:02:47Z</time>
      </trkpt>
      <trkpt lat="44.71099" lon="7.05814">
        <ele>2672.8</ele>
        <time>2026-09-03T09:02:52Z</time>
      </trkpt>
      <trkpt lat="44.71099" lon="7.05814">
        <ele>2672.8</ele>
        <time>2026-09-03T09:02:58Z</time>
      </trkpt>
      <trkpt lat="44.71099" lon="7.05814">
        <ele>2672.8</ele>
        <time>2026-09-03T09:03:03Z</time>
      </trkpt>
      <trkpt lat="44.71099" lon="7.05814">
        <ele>2672.8</ele>
        <time>2026-09-03T09:03:08Z</time>
      </trkpt>
      <trkpt lat="44.71099" lon="7.05814">
        <ele>2672.8</ele>
        <time>2026-09-03T09:03:14Z</time>
      </trkpt>
      <trkpt lat="44.71099" lon="7.05814">
        <ele>2672.8</ele>
        <time>2026-09-03T09:03:19Z</time>
      </trkpt>
      <trkpt lat="44.71107" lon="7.05818">
        <ele>2674.7</ele>
        <time>2026-09-03T09:03:24Z</time>
      </trkpt>
      <trkpt lat="44.71108" lon="7.05819">
        <ele>2675</ele>
        <time>2026-09-03T09:03:30Z</time>
      </trkpt>
      <trkpt lat="44.71108" lon="7.05819">
        <ele>2675</ele>
        <time>2026-09-03T09:03:35Z</time>
      </trkpt>
      <trkpt lat="44.71113" lon="7.05817">
        <ele>2675.2</ele>
        <time>2026-09-03T09:03:40Z</time>
      </trkpt>
      <trkpt lat="44.71114" lon="7.05822">
        <ele>2676.4</ele>
        <time>2026-09-03T09:03:46Z</time>
      </trkpt>
      <trkpt lat="44.71112" lon="7.05825">
        <ele>2676.7</ele>
        <time>2026-09-03T09:03:51Z</time>
      </trkpt>
      <trkpt lat="44.71112" lon="7.05828">
        <ele>2677.4</ele>
        <time>2026-09-03T09:03:56Z</time>
      </trkpt>
      <trkpt lat="44.71112" lon="7.05828">
        <ele>2677.4</ele>
        <time>2026-09-03T09:04:02Z</time>
      </trkpt>
      <trkpt lat="44.71112" lon="7.05828">
        <ele>2677.4</ele>
        <time>2026-09-03T09:04:07Z</time>
      </trkpt>
      <trkpt lat="44.71116" lon="7.05834">
        <ele>2679.1</ele>
        <time>2026-09-03T09:04:12Z</time>
      </trkpt>
      <trkpt lat="44.71116" lon="7.05835">
        <ele>2679.4</ele>
        <time>2026-09-03T09:04:18Z</time>
      </trkpt>
      <trkpt lat="44.71114" lon="7.05838">
        <ele>2679.9</ele>
        <time>2026-09-03T09:04:23Z</time>
      </trkpt>
      <trkpt lat="44.71114" lon="7.05839">
        <ele>2680.2</ele>
        <time>2026-09-03T09:04:28Z</time>
      </trkpt>
      <trkpt lat="44.71114" lon="7.05845">
        <ele>2681.8</ele>
        <time>2026-09-03T09:04:34Z</time>
      </trkpt>
      <trkpt lat="44.71114" lon="7.05845">
        <ele>2681.8</ele>
        <time>2026-09-03T09:04:39Z</time>
      </trkpt>
      <trkpt lat="44.71114" lon="7.0585">
        <ele>2683.2</ele>
        <time>2026-09-03T09:04:44Z</time>
      </trkpt>
      <trkpt lat="44.71113" lon="7.05853">
        <ele>2683.9</ele>
        <time>2026-09-03T09:04:50Z</time>
      </trkpt>
      <trkpt lat="44.71113" lon="7.05856">
        <ele>2684.7</ele>
        <time>2026-09-03T09:04:55Z</time>
      </trkpt>
      <trkpt lat="44.71113" lon="7.05859">
        <ele>2685.6</ele>
        <time>2026-09-03T09:05:00Z</time>
      </trkpt>
      <trkpt lat="44.71116" lon="7.05863">
        <ele>2686.9</ele>
        <time>2026-09-03T09:05:06Z</time>
      </trkpt>
      <trkpt lat="44.71117" lon="7.05864">
        <ele>2687.2</ele>
        <time>2026-09-03T09:05:11Z</time>
      </trkpt>
      <trkpt lat="44.71117" lon="7.05864">
        <ele>2687.2</ele>
        <time>2026-09-03T09:05:16Z</time>
      </trkpt>
      <trkpt lat="44.71117" lon="7.05864">
        <ele>2687.2</ele>
        <time>2026-09-03T09:05:22Z</time>
      </trkpt>
      <trkpt lat="44.71118" lon="7.05859">
        <ele>2685.9</ele>
        <time>2026-09-03T09:05:27Z</time>
      </trkpt>
      <trkpt lat="44.7112" lon="7.0586">
        <ele>2686.4</ele>
        <time>2026-09-03T09:05:32Z</time>
      </trkpt>
      <trkpt lat="44.71124" lon="7.0586">
        <ele>2686.6</ele>
        <time>2026-09-03T09:05:38Z</time>
      </trkpt>
      <trkpt lat="44.71128" lon="7.05857">
        <ele>2686.2</ele>
        <time>2026-09-03T09:05:43Z</time>
      </trkpt>
      <trkpt lat="44.71129" lon="7.05856">
        <ele>2686</ele>
        <time>2026-09-03T09:05:48Z</time>
      </trkpt>
      <trkpt lat="44.71132" lon="7.05855">
        <ele>2686</ele>
        <time>2026-09-03T09:05:54Z</time>
      </trkpt>
      <trkpt lat="44.71135" lon="7.05855">
        <ele>2686.3</ele>
        <time>2026-09-03T09:05:59Z</time>
      </trkpt>
      <trkpt lat="44.71139" lon="7.05859">
        <ele>2687.5</ele>
        <time>2026-09-03T09:06:04Z</time>
      </trkpt>
      <trkpt lat="44.71143" lon="7.05862">
        <ele>2688.5</ele>
        <time>2026-09-03T09:06:10Z</time>
      </trkpt>
      <trkpt lat="44.71145" lon="7.05863">
        <ele>2688.9</ele>
        <time>2026-09-03T09:06:15Z</time>
      </trkpt>
      <trkpt lat="44.71148" lon="7.0586">
        <ele>2688.4</ele>
        <time>2026-09-03T09:06:20Z</time>
      </trkpt>
      <trkpt lat="44.7115" lon="7.05859">
        <ele>2688.4</ele>
        <time>2026-09-03T09:06:26Z</time>
      </trkpt>
      <trkpt lat="44.71151" lon="7.05858">
        <ele>2688.2</ele>
        <time>2026-09-03T09:06:31Z</time>
      </trkpt>
      <trkpt lat="44.71152" lon="7.05859">
        <ele>2688.5</ele>
        <time>2026-09-03T09:06:36Z</time>
      </trkpt>
      <trkpt lat="44.71152" lon="7.05859">
        <ele>2688.5</ele>
        <time>2026-09-03T09:06:42Z</time>
      </trkpt>
      <trkpt lat="44.71155" lon="7.05864">
        <ele>2689.7</ele>
        <time>2026-09-03T09:06:47Z</time>
      </trkpt>
      <trkpt lat="44.71156" lon="7.05868">
        <ele>2690.6</ele>
        <time>2026-09-03T09:06:52Z</time>
      </trkpt>
      <trkpt lat="44.71156" lon="7.0587">
        <ele>2691</ele>
        <time>2026-09-03T09:06:58Z</time>
      </trkpt>
      <trkpt lat="44.71156" lon="7.0587">
        <ele>2691</ele>
        <time>2026-09-03T09:07:03Z</time>
      </trkpt>
      <trkpt lat="44.71156" lon="7.0587">
        <ele>2691</ele>
        <time>2026-09-03T09:07:08Z</time>
      </trkpt>
      <trkpt lat="44.71156" lon="7.0587">
        <ele>2691</ele>
        <time>2026-09-03T09:07:14Z</time>
      </trkpt>
      <trkpt lat="44.71161" lon="7.05868">
        <ele>2690.9</ele>
        <time>2026-09-03T09:07:19Z</time>
      </trkpt>
      <trkpt lat="44.71163" lon="7.05867">
        <ele>2690.8</ele>
        <time>2026-09-03T09:07:24Z</time>
      </trkpt>
      <trkpt lat="44.71165" lon="7.05867">
        <ele>2691</ele>
        <time>2026-09-03T09:07:30Z</time>
      </trkpt>
      <trkpt lat="44.71166" lon="7.05868">
        <ele>2691.2</ele>
        <time>2026-09-03T09:07:35Z</time>
      </trkpt>
      <trkpt lat="44.71166" lon="7.05868">
        <ele>2691.2</ele>
        <time>2026-09-03T09:07:40Z</time>
      </trkpt>
      <trkpt lat="44.71166" lon="7.05868">
        <ele>2691.2</ele>
        <time>2026-09-03T09:07:46Z</time>
      </trkpt>
      <trkpt lat="44.71166" lon="7.05868">
        <ele>2691.2</ele>
        <time>2026-09-03T09:07:51Z</time>
      </trkpt>
      <trkpt lat="44.71164" lon="7.0588">
        <ele>2693.3</ele>
        <time>2026-09-03T09:07:56Z</time>
      </trkpt>
      <trkpt lat="44.71165" lon="7.05883">
        <ele>2693.9</ele>
        <time>2026-09-03T09:08:02Z</time>
      </trkpt>
      <trkpt lat="44.71165" lon="7.05883">
        <ele>2693.9</ele>
        <time>2026-09-03T09:08:07Z</time>
      </trkpt>
      <trkpt lat="44.71165" lon="7.05883">
        <ele>2693.9</ele>
        <time>2026-09-03T09:08:12Z</time>
      </trkpt>
      <trkpt lat="44.71165" lon="7.05883">
        <ele>2693.9</ele>
        <time>2026-09-03T09:08:18Z</time>
      </trkpt>
      <trkpt lat="44.71165" lon="7.05883">
        <ele>2693.9</ele>
        <time>2026-09-03T09:08:23Z</time>
      </trkpt>
      <trkpt lat="44.71165" lon="7.05883">
        <ele>2693.9</ele>
        <time>2026-09-03T09:08:28Z</time>
      </trkpt>
      <trkpt lat="44.71165" lon="7.05883">
        <ele>2693.9</ele>
        <time>2026-09-03T09:08:34Z</time>
      </trkpt>
      <trkpt lat="44.71165" lon="7.05883">
        <ele>2693.9</ele>
        <time>2026-09-03T09:08:39Z</time>
      </trkpt>
      <trkpt lat="44.71165" lon="7.05883">
        <ele>2693.9</ele>
        <time>2026-09-03T09:08:44Z</time>
      </trkpt>
      <trkpt lat="44.71165" lon="7.05883">
        <ele>2693.9</ele>
        <time>2026-09-03T09:08:50Z</time>
      </trkpt>
      <trkpt lat="44.71165" lon="7.05883">
        <ele>2693.9</ele>
        <time>2026-09-03T09:08:55Z</time>
      </trkpt>
      <trkpt lat="44.71165" lon="7.05883">
        <ele>2693.9</ele>
        <time>2026-09-03T09:09:00Z</time>
      </trkpt>
      <trkpt lat="44.71165" lon="7.05884">
        <ele>2694.1</ele>
        <time>2026-09-03T09:09:06Z</time>
      </trkpt>
      <trkpt lat="44.71165" lon="7.05888">
        <ele>2694.8</ele>
        <time>2026-09-03T09:09:11Z</time>
      </trkpt>
      <trkpt lat="44.71166" lon="7.05892">
        <ele>2695.5</ele>
        <time>2026-09-03T09:09:16Z</time>
      </trkpt>
      <trkpt lat="44.71166" lon="7.05897">
        <ele>2696.5</ele>
        <time>2026-09-03T09:09:22Z</time>
      </trkpt>
      <trkpt lat="44.71165" lon="7.05903">
        <ele>2697.5</ele>
        <time>2026-09-03T09:09:27Z</time>
      </trkpt>
      <trkpt lat="44.71165" lon="7.0591">
        <ele>2698.8</ele>
        <time>2026-09-03T09:09:32Z</time>
      </trkpt>
      <trkpt lat="44.71167" lon="7.05915">
        <ele>2699.8</ele>
        <time>2026-09-03T09:09:38Z</time>
      </trkpt>
      <trkpt lat="44.71169" lon="7.05915">
        <ele>2700.3</ele>
        <time>2026-09-03T09:09:43Z</time>
      </trkpt>
      <trkpt lat="44.71168" lon="7.05916">
        <ele>2700.2</ele>
        <time>2026-09-03T09:09:48Z</time>
      </trkpt>
      <trkpt lat="44.71168" lon="7.05916">
        <ele>2700.2</ele>
        <time>2026-09-03T09:09:54Z</time>
      </trkpt>
      <trkpt lat="44.71168" lon="7.05916">
        <ele>2700.2</ele>
        <time>2026-09-03T09:09:59Z</time>
      </trkpt>
      <trkpt lat="44.71168" lon="7.05916">
        <ele>2700.2</ele>
        <time>2026-09-03T09:10:04Z</time>
      </trkpt>
      <trkpt lat="44.71168" lon="7.05916">
        <ele>2700.2</ele>
        <time>2026-09-03T09:10:10Z</time>
      </trkpt>
      <trkpt lat="44.71168" lon="7.05916">
        <ele>2700.2</ele>
        <time>2026-09-03T09:10:15Z</time>
      </trkpt>
      <trkpt lat="44.71174" lon="7.05924">
        <ele>2704.6</ele>
        <time>2026-09-03T09:10:20Z</time>
      </trkpt>
      <trkpt lat="44.71176" lon="7.05925">
        <ele>2705.5</ele>
        <time>2026-09-03T09:10:26Z</time>
      </trkpt>
      <trkpt lat="44.71177" lon="7.05924">
        <ele>2705.4</ele>
        <time>2026-09-03T09:10:31Z</time>
      </trkpt>
      <trkpt lat="44.71177" lon="7.05924">
        <ele>2705.4</ele>
        <time>2026-09-03T09:10:36Z</time>
      </trkpt>
      <trkpt lat="44.71177" lon="7.05924">
        <ele>2705.4</ele>
        <time>2026-09-03T09:10:42Z</time>
      </trkpt>
      <trkpt lat="44.71177" lon="7.05924">
        <ele>2705.4</ele>
        <time>2026-09-03T09:10:47Z</time>
      </trkpt>
      <trkpt lat="44.71177" lon="7.05924">
        <ele>2705.4</ele>
        <time>2026-09-03T09:10:52Z</time>
      </trkpt>
      <trkpt lat="44.71177" lon="7.05931">
        <ele>2707.8</ele>
        <time>2026-09-03T09:10:58Z</time>
      </trkpt>
      <trkpt lat="44.71177" lon="7.05931">
        <ele>2707.8</ele>
        <time>2026-09-03T09:11:03Z</time>
      </trkpt>
      <trkpt lat="44.71177" lon="7.05931">
        <ele>2707.8</ele>
        <time>2026-09-03T09:11:08Z</time>
      </trkpt>
      <trkpt lat="44.71177" lon="7.05931">
        <ele>2707.8</ele>
        <time>2026-09-03T09:11:14Z</time>
      </trkpt>
      <trkpt lat="44.71177" lon="7.05931">
        <ele>2707.8</ele>
        <time>2026-09-03T09:11:19Z</time>
      </trkpt>
      <trkpt lat="44.71177" lon="7.05931">
        <ele>2707.8</ele>
        <time>2026-09-03T09:11:24Z</time>
      </trkpt>
      <trkpt lat="44.71186" lon="7.05932">
        <ele>2710.4</ele>
        <time>2026-09-03T09:11:30Z</time>
      </trkpt>
      <trkpt lat="44.71189" lon="7.05932">
        <ele>2711.2</ele>
        <time>2026-09-03T09:11:35Z</time>
      </trkpt>
      <trkpt lat="44.71191" lon="7.05931">
        <ele>2711.4</ele>
        <time>2026-09-03T09:11:40Z</time>
      </trkpt>
      <trkpt lat="44.71193" lon="7.05933">
        <ele>2712.5</ele>
        <time>2026-09-03T09:11:46Z</time>
      </trkpt>
      <trkpt lat="44.71196" lon="7.05931">
        <ele>2712.7</ele>
        <time>2026-09-03T09:11:51Z</time>
      </trkpt>
      <trkpt lat="44.71198" lon="7.05929">
        <ele>2712.5</ele>
        <time>2026-09-03T09:11:56Z</time>
      </trkpt>
      <trkpt lat="44.71199" lon="7.05928">
        <ele>2712.5</ele>
        <time>2026-09-03T09:12:02Z</time>
      </trkpt>
      <trkpt lat="44.71201" lon="7.05926">
        <ele>2712.4</ele>
        <time>2026-09-03T09:12:07Z</time>
      </trkpt>
      <trkpt lat="44.71202" lon="7.05926">
        <ele>2712.6</ele>
        <time>2026-09-03T09:12:12Z</time>
      </trkpt>
      <trkpt lat="44.71202" lon="7.05926">
        <ele>2712.6</ele>
        <time>2026-09-03T09:12:18Z</time>
      </trkpt>
      <trkpt lat="44.71202" lon="7.05926">
        <ele>2712.6</ele>
        <time>2026-09-03T09:12:23Z</time>
      </trkpt>
      <trkpt lat="44.71202" lon="7.05926">
        <ele>2712.6</ele>
        <time>2026-09-03T09:12:28Z</time>
      </trkpt>
      <trkpt lat="44.71202" lon="7.05926">
        <ele>2712.6</ele>
        <time>2026-09-03T09:12:34Z</time>
      </trkpt>
      <trkpt lat="44.71202" lon="7.05926">
        <ele>2712.6</ele>
        <time>2026-09-03T09:12:39Z</time>
      </trkpt>
      <trkpt lat="44.71202" lon="7.05926">
        <ele>2712.6</ele>
        <time>2026-09-03T09:12:44Z</time>
      </trkpt>
      <trkpt lat="44.71202" lon="7.05926">
        <ele>2712.6</ele>
        <time>2026-09-03T09:12:50Z</time>
      </trkpt>
      <trkpt lat="44.71202" lon="7.05926">
        <ele>2712.6</ele>
        <time>2026-09-03T09:12:55Z</time>
      </trkpt>
      <trkpt lat="44.71202" lon="7.05926">
        <ele>2712.6</ele>
        <time>2026-09-03T09:13:00Z</time>
      </trkpt>
      <trkpt lat="44.71207" lon="7.05922">
        <ele>2712.7</ele>
        <time>2026-09-03T09:13:06Z</time>
      </trkpt>
      <trkpt lat="44.71208" lon="7.05923">
        <ele>2713.3</ele>
        <time>2026-09-03T09:13:11Z</time>
      </trkpt>
      <trkpt lat="44.71209" lon="7.05919">
        <ele>2712.4</ele>
        <time>2026-09-03T09:13:16Z</time>
      </trkpt>
      <trkpt lat="44.71213" lon="7.05917">
        <ele>2712.9</ele>
        <time>2026-09-03T09:13:22Z</time>
      </trkpt>
      <trkpt lat="44.71215" lon="7.05919">
        <ele>2714</ele>
        <time>2026-09-03T09:13:27Z</time>
      </trkpt>
      <trkpt lat="44.71217" lon="7.05922">
        <ele>2715.4</ele>
        <time>2026-09-03T09:13:32Z</time>
      </trkpt>
      <trkpt lat="44.71221" lon="7.05921">
        <ele>2716.2</ele>
        <time>2026-09-03T09:13:38Z</time>
      </trkpt>
      <trkpt lat="44.71223" lon="7.05921">
        <ele>2716.8</ele>
        <time>2026-09-03T09:13:43Z</time>
      </trkpt>
      <trkpt lat="44.71225" lon="7.05919">
        <ele>2716.7</ele>
        <time>2026-09-03T09:13:48Z</time>
      </trkpt>
      <trkpt lat="44.71228" lon="7.05914">
        <ele>2716.5</ele>
        <time>2026-09-03T09:13:54Z</time>
      </trkpt>
      <trkpt lat="44.71232" lon="7.05914">
        <ele>2717.6</ele>
        <time>2026-09-03T09:13:59Z</time>
      </trkpt>
      <trkpt lat="44.71233" lon="7.05913">
        <ele>2717.7</ele>
        <time>2026-09-03T09:14:04Z</time>
      </trkpt>
      <trkpt lat="44.71236" lon="7.0591">
        <ele>2718.1</ele>
        <time>2026-09-03T09:14:10Z</time>
      </trkpt>
      <trkpt lat="44.71237" lon="7.0591">
        <ele>2718.3</ele>
        <time>2026-09-03T09:14:15Z</time>
      </trkpt>
      <trkpt lat="44.71237" lon="7.05908">
        <ele>2718</ele>
        <time>2026-09-03T09:14:20Z</time>
      </trkpt>
      <trkpt lat="44.71237" lon="7.05908">
        <ele>2718</ele>
        <time>2026-09-03T09:14:26Z</time>
      </trkpt>
      <trkpt lat="44.71237" lon="7.05908">
        <ele>2718</ele>
        <time>2026-09-03T09:14:31Z</time>
      </trkpt>
      <trkpt lat="44.71237" lon="7.05908">
        <ele>2718</ele>
        <time>2026-09-03T09:14:36Z</time>
      </trkpt>
      <trkpt lat="44.71237" lon="7.05908">
        <ele>2718</ele>
        <time>2026-09-03T09:14:42Z</time>
      </trkpt>
      <trkpt lat="44.71243" lon="7.05908">
        <ele>2719.7</ele>
        <time>2026-09-03T09:14:47Z</time>
      </trkpt>
      <trkpt lat="44.71246" lon="7.05911">
        <ele>2721</ele>
        <time>2026-09-03T09:14:52Z</time>
      </trkpt>
      <trkpt lat="44.71248" lon="7.0591">
        <ele>2721.4</ele>
        <time>2026-09-03T09:14:58Z</time>
      </trkpt>
      <trkpt lat="44.71251" lon="7.05907">
        <ele>2721.8</ele>
        <time>2026-09-03T09:15:03Z</time>
      </trkpt>
      <trkpt lat="44.71254" lon="7.05907">
        <ele>2722.8</ele>
        <time>2026-09-03T09:15:08Z</time>
      </trkpt>
      <trkpt lat="44.71258" lon="7.05906">
        <ele>2724</ele>
        <time>2026-09-03T09:15:14Z</time>
      </trkpt>
      <trkpt lat="44.71259" lon="7.05906">
        <ele>2724.3</ele>
        <time>2026-09-03T09:15:19Z</time>
      </trkpt>
      <trkpt lat="44.71261" lon="7.05908">
        <ele>2725.2</ele>
        <time>2026-09-03T09:15:24Z</time>
      </trkpt>
      <trkpt lat="44.71261" lon="7.05908">
        <ele>2725.2</ele>
        <time>2026-09-03T09:15:30Z</time>
      </trkpt>
      <trkpt lat="44.71266" lon="7.05906">
        <ele>2726.6</ele>
        <time>2026-09-03T09:15:35Z</time>
      </trkpt>
      <trkpt lat="44.71269" lon="7.05905">
        <ele>2727.5</ele>
        <time>2026-09-03T09:15:40Z</time>
      </trkpt>
      <trkpt lat="44.71272" lon="7.05905">
        <ele>2728.5</ele>
        <time>2026-09-03T09:15:46Z</time>
      </trkpt>
      <trkpt lat="44.71273" lon="7.05904">
        <ele>2728.7</ele>
        <time>2026-09-03T09:15:51Z</time>
      </trkpt>
      <trkpt lat="44.71273" lon="7.05904">
        <ele>2728.7</ele>
        <time>2026-09-03T09:15:56Z</time>
      </trkpt>
      <trkpt lat="44.71273" lon="7.05904">
        <ele>2728.7</ele>
        <time>2026-09-03T09:16:02Z</time>
      </trkpt>
      <trkpt lat="44.71273" lon="7.05904">
        <ele>2728.7</ele>
        <time>2026-09-03T09:16:07Z</time>
      </trkpt>
      <trkpt lat="44.71273" lon="7.05904">
        <ele>2728.7</ele>
        <time>2026-09-03T09:16:12Z</time>
      </trkpt>
      <trkpt lat="44.71273" lon="7.05904">
        <ele>2728.7</ele>
        <time>2026-09-03T09:16:18Z</time>
      </trkpt>
      <trkpt lat="44.71273" lon="7.05904">
        <ele>2728.7</ele>
        <time>2026-09-03T09:16:23Z</time>
      </trkpt>
      <trkpt lat="44.71273" lon="7.05904">
        <ele>2728.7</ele>
        <time>2026-09-03T09:16:28Z</time>
      </trkpt>
      <trkpt lat="44.71273" lon="7.05904">
        <ele>2728.7</ele>
        <time>2026-09-03T09:16:34Z</time>
      </trkpt>
      <trkpt lat="44.71273" lon="7.05904">
        <ele>2728.7</ele>
        <time>2026-09-03T09:16:39Z</time>
      </trkpt>
      <trkpt lat="44.71273" lon="7.05904">
        <ele>2728.7</ele>
        <time>2026-09-03T09:16:44Z</time>
      </trkpt>
      <trkpt lat="44.71273" lon="7.05904">
        <ele>2728.7</ele>
        <time>2026-09-03T09:16:50Z</time>
      </trkpt>
      <trkpt lat="44.71273" lon="7.05904">
        <ele>2728.7</ele>
        <time>2026-09-03T09:16:55Z</time>
      </trkpt>
      <trkpt lat="44.71273" lon="7.05904">
        <ele>2728.7</ele>
        <time>2026-09-03T09:17:00Z</time>
      </trkpt>
      <trkpt lat="44.71273" lon="7.05904">
        <ele>2728.7</ele>
        <time>2026-09-03T09:17:06Z</time>
      </trkpt>
      <trkpt lat="44.71273" lon="7.05904">
        <ele>2728.7</ele>
        <time>2026-09-03T09:17:11Z</time>
      </trkpt>
      <trkpt lat="44.71273" lon="7.05904">
        <ele>2728.7</ele>
        <time>2026-09-03T09:17:16Z</time>
      </trkpt>
      <trkpt lat="44.71273" lon="7.05904">
        <ele>2728.7</ele>
        <time>2026-09-03T09:17:22Z</time>
      </trkpt>
      <trkpt lat="44.71273" lon="7.05904">
        <ele>2728.7</ele>
        <time>2026-09-03T09:17:27Z</time>
      </trkpt>
      <trkpt lat="44.71273" lon="7.05904">
        <ele>2728.7</ele>
        <time>2026-09-03T09:17:32Z</time>
      </trkpt>
      <trkpt lat="44.71273" lon="7.05904">
        <ele>2728.7</ele>
        <time>2026-09-03T09:17:38Z</time>
      </trkpt>
      <trkpt lat="44.71273" lon="7.05904">
        <ele>2728.7</ele>
        <time>2026-09-03T09:17:43Z</time>
      </trkpt>
      <trkpt lat="44.71273" lon="7.05904">
        <ele>2728.7</ele>
        <time>2026-09-03T09:17:48Z</time>
      </trkpt>
      <trkpt lat="44.71273" lon="7.05904">
        <ele>2728.7</ele>
        <time>2026-09-03T09:17:54Z</time>
      </trkpt>
      <trkpt lat="44.71273" lon="7.05904">
        <ele>2728.7</ele>
        <time>2026-09-03T09:17:59Z</time>
      </trkpt>
      <trkpt lat="44.71273" lon="7.05904">
        <ele>2728.7</ele>
        <time>2026-09-03T09:18:04Z</time>
      </trkpt>
      <trkpt lat="44.71273" lon="7.05904">
        <ele>2728.7</ele>
        <time>2026-09-03T09:18:10Z</time>
      </trkpt>
      <trkpt lat="44.71273" lon="7.05904">
        <ele>2728.7</ele>
        <time>2026-09-03T09:18:15Z</time>
      </trkpt>
      <trkpt lat="44.71276" lon="7.05893">
        <ele>2728.5</ele>
        <time>2026-09-03T09:18:20Z</time>
      </trkpt>
      <trkpt lat="44.71281" lon="7.05892">
        <ele>2730.1</ele>
        <time>2026-09-03T09:18:26Z</time>
      </trkpt>
      <trkpt lat="44.71284" lon="7.05896">
        <ele>2731.6</ele>
        <time>2026-09-03T09:18:31Z</time>
      </trkpt>
      <trkpt lat="44.71288" lon="7.05897">
        <ele>2733.1</ele>
        <time>2026-09-03T09:18:36Z</time>
      </trkpt>
      <trkpt lat="44.71291" lon="7.059">
        <ele>2734.4</ele>
        <time>2026-09-03T09:18:42Z</time>
      </trkpt>
      <trkpt lat="44.71294" lon="7.05904">
        <ele>2735.7</ele>
        <time>2026-09-03T09:18:47Z</time>
      </trkpt>
      <trkpt lat="44.71296" lon="7.05903">
        <ele>2736.3</ele>
        <time>2026-09-03T09:18:52Z</time>
      </trkpt>
      <trkpt lat="44.713" lon="7.059">
        <ele>2737.4</ele>
        <time>2026-09-03T09:18:58Z</time>
      </trkpt>
      <trkpt lat="44.71302" lon="7.05898">
        <ele>2738</ele>
        <time>2026-09-03T09:19:03Z</time>
      </trkpt>
      <trkpt lat="44.71302" lon="7.05898">
        <ele>2738</ele>
        <time>2026-09-03T09:19:08Z</time>
      </trkpt>
      <trkpt lat="44.71302" lon="7.05898">
        <ele>2738</ele>
        <time>2026-09-03T09:19:14Z</time>
      </trkpt>
      <trkpt lat="44.71302" lon="7.05898">
        <ele>2738</ele>
        <time>2026-09-03T09:19:19Z</time>
      </trkpt>
      <trkpt lat="44.71304" lon="7.05898">
        <ele>2738.7</ele>
        <time>2026-09-03T09:19:24Z</time>
      </trkpt>
      <trkpt lat="44.71305" lon="7.05896">
        <ele>2738.9</ele>
        <time>2026-09-03T09:19:30Z</time>
      </trkpt>
      <trkpt lat="44.71305" lon="7.05896">
        <ele>2738.9</ele>
        <time>2026-09-03T09:19:35Z</time>
      </trkpt>
      <trkpt lat="44.71304" lon="7.0589">
        <ele>2738.2</ele>
        <time>2026-09-03T09:19:40Z</time>
      </trkpt>
      <trkpt lat="44.71304" lon="7.0589">
        <ele>2738.2</ele>
        <time>2026-09-03T09:19:46Z</time>
      </trkpt>
      <trkpt lat="44.71304" lon="7.0589">
        <ele>2738.2</ele>
        <time>2026-09-03T09:19:51Z</time>
      </trkpt>
      <trkpt lat="44.71304" lon="7.0589">
        <ele>2738.2</ele>
        <time>2026-09-03T09:19:56Z</time>
      </trkpt>
      <trkpt lat="44.71304" lon="7.0589">
        <ele>2738.2</ele>
        <time>2026-09-03T09:20:02Z</time>
      </trkpt>
      <trkpt lat="44.71304" lon="7.0589">
        <ele>2738.2</ele>
        <time>2026-09-03T09:20:07Z</time>
      </trkpt>
      <trkpt lat="44.71304" lon="7.0589">
        <ele>2738.2</ele>
        <time>2026-09-03T09:20:12Z</time>
      </trkpt>
      <trkpt lat="44.71304" lon="7.0589">
        <ele>2738.2</ele>
        <time>2026-09-03T09:20:18Z</time>
      </trkpt>
      <trkpt lat="44.71304" lon="7.0589">
        <ele>2738.2</ele>
        <time>2026-09-03T09:20:23Z</time>
      </trkpt>
      <trkpt lat="44.71304" lon="7.0589">
        <ele>2738.2</ele>
        <time>2026-09-03T09:20:28Z</time>
      </trkpt>
      <trkpt lat="44.71304" lon="7.0589">
        <ele>2738.2</ele>
        <time>2026-09-03T09:20:34Z</time>
      </trkpt>
      <trkpt lat="44.71303" lon="7.05887">
        <ele>2737.6</ele>
        <time>2026-09-03T09:20:39Z</time>
      </trkpt>
      <trkpt lat="44.71305" lon="7.05879">
        <ele>2737.9</ele>
        <time>2026-09-03T09:20:44Z</time>
      </trkpt>
      <trkpt lat="44.71305" lon="7.05871">
        <ele>2737.4</ele>
        <time>2026-09-03T09:20:50Z</time>
      </trkpt>
      <trkpt lat="44.71304" lon="7.05865">
        <ele>2736.6</ele>
        <time>2026-09-03T09:20:55Z</time>
      </trkpt>
      <trkpt lat="44.71301" lon="7.05857">
        <ele>2734.9</ele>
        <time>2026-09-03T09:21:00Z</time>
      </trkpt>
      <trkpt lat="44.713" lon="7.0585">
        <ele>2734</ele>
        <time>2026-09-03T09:21:06Z</time>
      </trkpt>
      <trkpt lat="44.71301" lon="7.05846">
        <ele>2734.1</ele>
        <time>2026-09-03T09:21:11Z</time>
      </trkpt>
      <trkpt lat="44.71303" lon="7.0584">
        <ele>2734.6</ele>
        <time>2026-09-03T09:21:16Z</time>
      </trkpt>
      <trkpt lat="44.71303" lon="7.0584">
        <ele>2734.6</ele>
        <time>2026-09-03T09:21:22Z</time>
      </trkpt>
      <trkpt lat="44.71303" lon="7.0584">
        <ele>2734.6</ele>
        <time>2026-09-03T09:21:27Z</time>
      </trkpt>
      <trkpt lat="44.71308" lon="7.05843">
        <ele>2737</ele>
        <time>2026-09-03T09:21:32Z</time>
      </trkpt>
      <trkpt lat="44.71313" lon="7.0584">
        <ele>2739</ele>
        <time>2026-09-03T09:21:38Z</time>
      </trkpt>
      <trkpt lat="44.71317" lon="7.05842">
        <ele>2740.9</ele>
        <time>2026-09-03T09:21:43Z</time>
      </trkpt>
      <trkpt lat="44.7132" lon="7.05843">
        <ele>2742.3</ele>
        <time>2026-09-03T09:21:48Z</time>
      </trkpt>
      <trkpt lat="44.71324" lon="7.05847">
        <ele>2744.1</ele>
        <time>2026-09-03T09:21:54Z</time>
      </trkpt>
      <trkpt lat="44.71328" lon="7.05846">
        <ele>2745.8</ele>
        <time>2026-09-03T09:21:59Z</time>
      </trkpt>
      <trkpt lat="44.71331" lon="7.05844">
        <ele>2747.1</ele>
        <time>2026-09-03T09:22:04Z</time>
      </trkpt>
      <trkpt lat="44.71331" lon="7.05843">
        <ele>2747.1</ele>
        <time>2026-09-03T09:22:10Z</time>
      </trkpt>
      <trkpt lat="44.71331" lon="7.05843">
        <ele>2747.1</ele>
        <time>2026-09-03T09:22:15Z</time>
      </trkpt>
      <trkpt lat="44.71336" lon="7.0584">
        <ele>2749.5</ele>
        <time>2026-09-03T09:22:20Z</time>
      </trkpt>
      <trkpt lat="44.7134" lon="7.05842">
        <ele>2751.6</ele>
        <time>2026-09-03T09:22:26Z</time>
      </trkpt>
      <trkpt lat="44.71343" lon="7.05844">
        <ele>2753.1</ele>
        <time>2026-09-03T09:22:31Z</time>
      </trkpt>
      <trkpt lat="44.71346" lon="7.05847">
        <ele>2754.7</ele>
        <time>2026-09-03T09:22:36Z</time>
      </trkpt>
      <trkpt lat="44.71348" lon="7.05849">
        <ele>2755.7</ele>
        <time>2026-09-03T09:22:42Z</time>
      </trkpt>
      <trkpt lat="44.71348" lon="7.0585">
        <ele>2755.7</ele>
        <time>2026-09-03T09:22:47Z</time>
      </trkpt>
      <trkpt lat="44.71348" lon="7.0585">
        <ele>2755.7</ele>
        <time>2026-09-03T09:22:52Z</time>
      </trkpt>
      <trkpt lat="44.71348" lon="7.0585">
        <ele>2755.7</ele>
        <time>2026-09-03T09:22:58Z</time>
      </trkpt>
      <trkpt lat="44.71348" lon="7.0585">
        <ele>2755.7</ele>
        <time>2026-09-03T09:23:03Z</time>
      </trkpt>
      <trkpt lat="44.71348" lon="7.0585">
        <ele>2755.7</ele>
        <time>2026-09-03T09:23:08Z</time>
      </trkpt>
      <trkpt lat="44.71348" lon="7.0585">
        <ele>2755.7</ele>
        <time>2026-09-03T09:23:14Z</time>
      </trkpt>
      <trkpt lat="44.71348" lon="7.0585">
        <ele>2755.7</ele>
        <time>2026-09-03T09:23:19Z</time>
      </trkpt>
      <trkpt lat="44.71355" lon="7.05856">
        <ele>2759.2</ele>
        <time>2026-09-03T09:23:24Z</time>
      </trkpt>
      <trkpt lat="44.71355" lon="7.05856">
        <ele>2759.2</ele>
        <time>2026-09-03T09:23:30Z</time>
      </trkpt>
      <trkpt lat="44.71355" lon="7.05856">
        <ele>2759.2</ele>
        <time>2026-09-03T09:23:35Z</time>
      </trkpt>
      <trkpt lat="44.71355" lon="7.05856">
        <ele>2759.2</ele>
        <time>2026-09-03T09:23:40Z</time>
      </trkpt>
      <trkpt lat="44.71357" lon="7.05859">
        <ele>2760.2</ele>
        <time>2026-09-03T09:23:46Z</time>
      </trkpt>
      <trkpt lat="44.71357" lon="7.0586">
        <ele>2760.2</ele>
        <time>2026-09-03T09:23:51Z</time>
      </trkpt>
      <trkpt lat="44.71356" lon="7.05861">
        <ele>2759.7</ele>
        <time>2026-09-03T09:23:56Z</time>
      </trkpt>
      <trkpt lat="44.71356" lon="7.05861">
        <ele>2759.7</ele>
        <time>2026-09-03T09:24:02Z</time>
      </trkpt>
      <trkpt lat="44.71356" lon="7.05861">
        <ele>2759.7</ele>
        <time>2026-09-03T09:24:07Z</time>
      </trkpt>
      <trkpt lat="44.71356" lon="7.05861">
        <ele>2759.7</ele>
        <time>2026-09-03T09:24:12Z</time>
      </trkpt>
      <trkpt lat="44.71356" lon="7.05861">
        <ele>2759.7</ele>
        <time>2026-09-03T09:24:18Z</time>
      </trkpt>
      <trkpt lat="44.71356" lon="7.05861">
        <ele>2759.7</ele>
        <time>2026-09-03T09:24:23Z</time>
      </trkpt>
      <trkpt lat="44.71356" lon="7.05861">
        <ele>2759.7</ele>
        <time>2026-09-03T09:24:28Z</time>
      </trkpt>
      <trkpt lat="44.71354" lon="7.05865">
        <ele>2758.6</ele>
        <time>2026-09-03T09:24:34Z</time>
      </trkpt>
      <trkpt lat="44.71355" lon="7.05866">
        <ele>2759.1</ele>
        <time>2026-09-03T09:24:39Z</time>
      </trkpt>
      <trkpt lat="44.71355" lon="7.05866">
        <ele>2759.1</ele>
        <time>2026-09-03T09:24:44Z</time>
      </trkpt>
      <trkpt lat="44.71355" lon="7.05866">
        <ele>2759.1</ele>
        <time>2026-09-03T09:24:50Z</time>
      </trkpt>
      <trkpt lat="44.71355" lon="7.05866">
        <ele>2759.1</ele>
        <time>2026-09-03T09:24:55Z</time>
      </trkpt>
      <trkpt lat="44.71355" lon="7.05866">
        <ele>2759.1</ele>
        <time>2026-09-03T09:25:00Z</time>
      </trkpt>
      <trkpt lat="44.71355" lon="7.05866">
        <ele>2759.1</ele>
        <time>2026-09-03T09:25:06Z</time>
      </trkpt>
      <trkpt lat="44.71355" lon="7.05866">
        <ele>2759.1</ele>
        <time>2026-09-03T09:25:11Z</time>
      </trkpt>
      <trkpt lat="44.71355" lon="7.05866">
        <ele>2759.1</ele>
        <time>2026-09-03T09:25:16Z</time>
      </trkpt>
      <trkpt lat="44.71355" lon="7.05866">
        <ele>2759.1</ele>
        <time>2026-09-03T09:25:22Z</time>
      </trkpt>
      <trkpt lat="44.71355" lon="7.05866">
        <ele>2759.1</ele>
        <time>2026-09-03T09:25:27Z</time>
      </trkpt>
      <trkpt lat="44.71355" lon="7.05866">
        <ele>2759.1</ele>
        <time>2026-09-03T09:25:32Z</time>
      </trkpt>
      <trkpt lat="44.71355" lon="7.05866">
        <ele>2759.1</ele>
        <time>2026-09-03T09:25:38Z</time>
      </trkpt>
      <trkpt lat="44.71355" lon="7.05866">
        <ele>2759.1</ele>
        <time>2026-09-03T09:25:43Z</time>
      </trkpt>
      <trkpt lat="44.71355" lon="7.05866">
        <ele>2759.1</ele>
        <time>2026-09-03T09:25:48Z</time>
      </trkpt>
      <trkpt lat="44.71355" lon="7.05866">
        <ele>2759.1</ele>
        <time>2026-09-03T09:25:54Z</time>
      </trkpt>
      <trkpt lat="44.71355" lon="7.05866">
        <ele>2759.1</ele>
        <time>2026-09-03T09:25:59Z</time>
      </trkpt>
      <trkpt lat="44.71355" lon="7.05866">
        <ele>2759.1</ele>
        <time>2026-09-03T09:26:04Z</time>
      </trkpt>
      <trkpt lat="44.71355" lon="7.05866">
        <ele>2759.1</ele>
        <time>2026-09-03T09:26:10Z</time>
      </trkpt>
      <trkpt lat="44.71355" lon="7.05866">
        <ele>2759.1</ele>
        <time>2026-09-03T09:26:15Z</time>
      </trkpt>
      <trkpt lat="44.71355" lon="7.05866">
        <ele>2759.1</ele>
        <time>2026-09-03T09:26:20Z</time>
      </trkpt>
      <trkpt lat="44.71355" lon="7.05866">
        <ele>2759.1</ele>
        <time>2026-09-03T09:26:26Z</time>
      </trkpt>
      <trkpt lat="44.71357" lon="7.05879">
        <ele>2760</ele>
        <time>2026-09-03T09:26:31Z</time>
      </trkpt>
      <trkpt lat="44.71362" lon="7.05885">
        <ele>2762.3</ele>
        <time>2026-09-03T09:26:36Z</time>
      </trkpt>
      <trkpt lat="44.71367" lon="7.05895">
        <ele>2764.4</ele>
        <time>2026-09-03T09:26:42Z</time>
      </trkpt>
      <trkpt lat="44.71372" lon="7.05897">
        <ele>2766.7</ele>
        <time>2026-09-03T09:26:47Z</time>
      </trkpt>
      <trkpt lat="44.71375" lon="7.05899">
        <ele>2768</ele>
        <time>2026-09-03T09:26:52Z</time>
      </trkpt>
      <trkpt lat="44.71377" lon="7.05906">
        <ele>2768.7</ele>
        <time>2026-09-03T09:26:58Z</time>
      </trkpt>
      <trkpt lat="44.71379" lon="7.05911">
        <ele>2769.5</ele>
        <time>2026-09-03T09:27:03Z</time>
      </trkpt>
      <trkpt lat="44.71379" lon="7.05914">
        <ele>2769.4</ele>
        <time>2026-09-03T09:27:08Z</time>
      </trkpt>
      <trkpt lat="44.71377" lon="7.05918">
        <ele>2768.5</ele>
        <time>2026-09-03T09:27:14Z</time>
      </trkpt>
      <trkpt lat="44.71377" lon="7.05924">
        <ele>2769</ele>
        <time>2026-09-03T09:27:19Z</time>
      </trkpt>
      <trkpt lat="44.71378" lon="7.0593">
        <ele>2770</ele>
        <time>2026-09-03T09:27:24Z</time>
      </trkpt>
      <trkpt lat="44.71378" lon="7.05935">
        <ele>2770.4</ele>
        <time>2026-09-03T09:27:30Z</time>
      </trkpt>
      <trkpt lat="44.7138" lon="7.05938">
        <ele>2771.6</ele>
        <time>2026-09-03T09:27:35Z</time>
      </trkpt>
      <trkpt lat="44.71384" lon="7.05936">
        <ele>2773.1</ele>
        <time>2026-09-03T09:27:40Z</time>
      </trkpt>
      <trkpt lat="44.71384" lon="7.05935">
        <ele>2773</ele>
        <time>2026-09-03T09:27:46Z</time>
      </trkpt>
      <trkpt lat="44.71384" lon="7.05935">
        <ele>2773</ele>
        <time>2026-09-03T09:27:51Z</time>
      </trkpt>
      <trkpt lat="44.71384" lon="7.05935">
        <ele>2773</ele>
        <time>2026-09-03T09:27:56Z</time>
      </trkpt>
      <trkpt lat="44.71384" lon="7.05935">
        <ele>2773</ele>
        <time>2026-09-03T09:28:02Z</time>
      </trkpt>
      <trkpt lat="44.71384" lon="7.05935">
        <ele>2773</ele>
        <time>2026-09-03T09:28:07Z</time>
      </trkpt>
      <trkpt lat="44.71384" lon="7.05935">
        <ele>2773</ele>
        <time>2026-09-03T09:28:12Z</time>
      </trkpt>
      <trkpt lat="44.71384" lon="7.05935">
        <ele>2773</ele>
        <time>2026-09-03T09:28:18Z</time>
      </trkpt>
      <trkpt lat="44.71384" lon="7.05935">
        <ele>2773</ele>
        <time>2026-09-03T09:28:23Z</time>
      </trkpt>
      <trkpt lat="44.71384" lon="7.05935">
        <ele>2773</ele>
        <time>2026-09-03T09:28:28Z</time>
      </trkpt>
      <trkpt lat="44.7138" lon="7.05948">
        <ele>2772.4</ele>
        <time>2026-09-03T09:28:34Z</time>
      </trkpt>
      <trkpt lat="44.7138" lon="7.05948">
        <ele>2772.4</ele>
        <time>2026-09-03T09:28:39Z</time>
      </trkpt>
      <trkpt lat="44.71382" lon="7.05954">
        <ele>2773.8</ele>
        <time>2026-09-03T09:28:44Z</time>
      </trkpt>
      <trkpt lat="44.71382" lon="7.05954">
        <ele>2773.8</ele>
        <time>2026-09-03T09:28:50Z</time>
      </trkpt>
      <trkpt lat="44.71382" lon="7.05954">
        <ele>2773.8</ele>
        <time>2026-09-03T09:28:55Z</time>
      </trkpt>
      <trkpt lat="44.71382" lon="7.05954">
        <ele>2773.8</ele>
        <time>2026-09-03T09:29:00Z</time>
      </trkpt>
      <trkpt lat="44.71382" lon="7.05954">
        <ele>2773.8</ele>
        <time>2026-09-03T09:29:06Z</time>
      </trkpt>
      <trkpt lat="44.71382" lon="7.05954">
        <ele>2773.8</ele>
        <time>2026-09-03T09:29:11Z</time>
      </trkpt>
      <trkpt lat="44.71382" lon="7.05954">
        <ele>2773.8</ele>
        <time>2026-09-03T09:29:16Z</time>
      </trkpt>
      <trkpt lat="44.71381" lon="7.05957">
        <ele>2773.6</ele>
        <time>2026-09-03T09:29:22Z</time>
      </trkpt>
      <trkpt lat="44.71384" lon="7.0596">
        <ele>2775.1</ele>
        <time>2026-09-03T09:29:27Z</time>
      </trkpt>
      <trkpt lat="44.71383" lon="7.05967">
        <ele>2775.3</ele>
        <time>2026-09-03T09:29:32Z</time>
      </trkpt>
      <trkpt lat="44.71381" lon="7.05973">
        <ele>2775</ele>
        <time>2026-09-03T09:29:38Z</time>
      </trkpt>
      <trkpt lat="44.71383" lon="7.0598">
        <ele>2776.4</ele>
        <time>2026-09-03T09:29:43Z</time>
      </trkpt>
      <trkpt lat="44.71386" lon="7.05985">
        <ele>2778</ele>
        <time>2026-09-03T09:29:48Z</time>
      </trkpt>
      <trkpt lat="44.71388" lon="7.05991">
        <ele>2779.3</ele>
        <time>2026-09-03T09:29:54Z</time>
      </trkpt>
      <trkpt lat="44.71389" lon="7.05997">
        <ele>2780.1</ele>
        <time>2026-09-03T09:29:59Z</time>
      </trkpt>
      <trkpt lat="44.71388" lon="7.06004">
        <ele>2781</ele>
        <time>2026-09-03T09:30:04Z</time>
      </trkpt>
      <trkpt lat="44.71386" lon="7.0601">
        <ele>2781.8</ele>
        <time>2026-09-03T09:30:10Z</time>
      </trkpt>
      <trkpt lat="44.71384" lon="7.06013">
        <ele>2781.8</ele>
        <time>2026-09-03T09:30:15Z</time>
      </trkpt>
      <trkpt lat="44.71383" lon="7.06019">
        <ele>2782.9</ele>
        <time>2026-09-03T09:30:20Z</time>
      </trkpt>
      <trkpt lat="44.71383" lon="7.06025">
        <ele>2784.4</ele>
        <time>2026-09-03T09:30:26Z</time>
      </trkpt>
      <trkpt lat="44.71381" lon="7.06029">
        <ele>2784.7</ele>
        <time>2026-09-03T09:30:31Z</time>
      </trkpt>
      <trkpt lat="44.71381" lon="7.06033">
        <ele>2785.7</ele>
        <time>2026-09-03T09:30:36Z</time>
      </trkpt>
      <trkpt lat="44.71383" lon="7.06036">
        <ele>2787.2</ele>
        <time>2026-09-03T09:30:42Z</time>
      </trkpt>
      <trkpt lat="44.71382" lon="7.06039">
        <ele>2787.6</ele>
        <time>2026-09-03T09:30:47Z</time>
      </trkpt>
      <trkpt lat="44.71382" lon="7.06041">
        <ele>2788.1</ele>
        <time>2026-09-03T09:30:52Z</time>
      </trkpt>
      <trkpt lat="44.71381" lon="7.06042">
        <ele>2788</ele>
        <time>2026-09-03T09:30:58Z</time>
      </trkpt>
      <trkpt lat="44.71381" lon="7.06042">
        <ele>2788</ele>
        <time>2026-09-03T09:31:03Z</time>
      </trkpt>
      <trkpt lat="44.71379" lon="7.06047">
        <ele>2788.6</ele>
        <time>2026-09-03T09:31:08Z</time>
      </trkpt>
      <trkpt lat="44.71379" lon="7.06047">
        <ele>2788.6</ele>
        <time>2026-09-03T09:31:14Z</time>
      </trkpt>
      <trkpt lat="44.71379" lon="7.06047">
        <ele>2788.6</ele>
        <time>2026-09-03T09:31:19Z</time>
      </trkpt>
      <trkpt lat="44.71379" lon="7.06047">
        <ele>2788.6</ele>
        <time>2026-09-03T09:31:24Z</time>
      </trkpt>
      <trkpt lat="44.71379" lon="7.06047">
        <ele>2788.6</ele>
        <time>2026-09-03T09:31:30Z</time>
      </trkpt>
      <trkpt lat="44.71377" lon="7.06057">
        <ele>2790.4</ele>
        <time>2026-09-03T09:31:35Z</time>
      </trkpt>
      <trkpt lat="44.71376" lon="7.0606">
        <ele>2790.8</ele>
        <time>2026-09-03T09:31:40Z</time>
      </trkpt>
      <trkpt lat="44.71376" lon="7.06065">
        <ele>2792.1</ele>
        <time>2026-09-03T09:31:46Z</time>
      </trkpt>
      <trkpt lat="44.71376" lon="7.06066">
        <ele>2792.4</ele>
        <time>2026-09-03T09:31:51Z</time>
      </trkpt>
      <trkpt lat="44.71376" lon="7.06066">
        <ele>2792.4</ele>
        <time>2026-09-03T09:31:56Z</time>
      </trkpt>
      <trkpt lat="44.71376" lon="7.06066">
        <ele>2792.4</ele>
        <time>2026-09-03T09:32:02Z</time>
      </trkpt>
      <trkpt lat="44.71374" lon="7.0607">
        <ele>2792.7</ele>
        <time>2026-09-03T09:32:07Z</time>
      </trkpt>
      <trkpt lat="44.71373" lon="7.0607">
        <ele>2792.4</ele>
        <time>2026-09-03T09:32:12Z</time>
      </trkpt>
      <trkpt lat="44.7137" lon="7.06073">
        <ele>2792.1</ele>
        <time>2026-09-03T09:32:18Z</time>
      </trkpt>
      <trkpt lat="44.7137" lon="7.06073">
        <ele>2792.1</ele>
        <time>2026-09-03T09:32:23Z</time>
      </trkpt>
      <trkpt lat="44.7137" lon="7.06073">
        <ele>2792.1</ele>
        <time>2026-09-03T09:32:28Z</time>
      </trkpt>
      <trkpt lat="44.7137" lon="7.06073">
        <ele>2792.1</ele>
        <time>2026-09-03T09:32:34Z</time>
      </trkpt>
      <trkpt lat="44.7137" lon="7.06073">
        <ele>2792.1</ele>
        <time>2026-09-03T09:32:39Z</time>
      </trkpt>
      <trkpt lat="44.7137" lon="7.06085">
        <ele>2795.1</ele>
        <time>2026-09-03T09:32:44Z</time>
      </trkpt>
      <trkpt lat="44.71366" lon="7.06089">
        <ele>2794.6</ele>
        <time>2026-09-03T09:32:50Z</time>
      </trkpt>
      <trkpt lat="44.71365" lon="7.0609">
        <ele>2794.5</ele>
        <time>2026-09-03T09:32:55Z</time>
      </trkpt>
      <trkpt lat="44.71365" lon="7.06093">
        <ele>2795.1</ele>
        <time>2026-09-03T09:33:00Z</time>
      </trkpt>
      <trkpt lat="44.71365" lon="7.06093">
        <ele>2795.1</ele>
        <time>2026-09-03T09:33:06Z</time>
      </trkpt>
      <trkpt lat="44.71365" lon="7.06093">
        <ele>2795.1</ele>
        <time>2026-09-03T09:33:11Z</time>
      </trkpt>
      <trkpt lat="44.71365" lon="7.06093">
        <ele>2795.1</ele>
        <time>2026-09-03T09:33:16Z</time>
      </trkpt>
      <trkpt lat="44.71365" lon="7.06093">
        <ele>2795.1</ele>
        <time>2026-09-03T09:33:22Z</time>
      </trkpt>
      <trkpt lat="44.71362" lon="7.06101">
        <ele>2795.7</ele>
        <time>2026-09-03T09:33:27Z</time>
      </trkpt>
      <trkpt lat="44.7136" lon="7.06104">
        <ele>2795.6</ele>
        <time>2026-09-03T09:33:32Z</time>
      </trkpt>
      <trkpt lat="44.7136" lon="7.06104">
        <ele>2795.6</ele>
        <time>2026-09-03T09:33:38Z</time>
      </trkpt>
      <trkpt lat="44.71358" lon="7.06108">
        <ele>2795.8</ele>
        <time>2026-09-03T09:33:43Z</time>
      </trkpt>
      <trkpt lat="44.71354" lon="7.06111">
        <ele>2794.9</ele>
        <time>2026-09-03T09:33:48Z</time>
      </trkpt>
      <trkpt lat="44.71352" lon="7.06118">
        <ele>2795.6</ele>
        <time>2026-09-03T09:33:54Z</time>
      </trkpt>
      <trkpt lat="44.71354" lon="7.06122">
        <ele>2797.2</ele>
        <time>2026-09-03T09:33:59Z</time>
      </trkpt>
      <trkpt lat="44.71355" lon="7.06125">
        <ele>2798.2</ele>
        <time>2026-09-03T09:34:04Z</time>
      </trkpt>
      <trkpt lat="44.71352" lon="7.06126">
        <ele>2797.3</ele>
        <time>2026-09-03T09:34:10Z</time>
      </trkpt>
      <trkpt lat="44.71352" lon="7.06133">
        <ele>2798.7</ele>
        <time>2026-09-03T09:34:15Z</time>
      </trkpt>
      <trkpt lat="44.71353" lon="7.06141">
        <ele>2800.7</ele>
        <time>2026-09-03T09:34:20Z</time>
      </trkpt>
      <trkpt lat="44.71355" lon="7.06146">
        <ele>2802.5</ele>
        <time>2026-09-03T09:34:26Z</time>
      </trkpt>
      <trkpt lat="44.71357" lon="7.06148">
        <ele>2803.8</ele>
        <time>2026-09-03T09:34:31Z</time>
      </trkpt>
      <trkpt lat="44.71358" lon="7.06149">
        <ele>2804.4</ele>
        <time>2026-09-03T09:34:36Z</time>
      </trkpt>
      <trkpt lat="44.71358" lon="7.06151">
        <ele>2804.8</ele>
        <time>2026-09-03T09:34:42Z</time>
      </trkpt>
      <trkpt lat="44.71358" lon="7.06151">
        <ele>2804.8</ele>
        <time>2026-09-03T09:34:47Z</time>
      </trkpt>
      <trkpt lat="44.71358" lon="7.06151">
        <ele>2804.8</ele>
        <time>2026-09-03T09:34:52Z</time>
      </trkpt>
      <trkpt lat="44.71358" lon="7.06151">
        <ele>2804.8</ele>
        <time>2026-09-03T09:34:58Z</time>
      </trkpt>
      <trkpt lat="44.71358" lon="7.06151">
        <ele>2804.8</ele>
        <time>2026-09-03T09:35:03Z</time>
      </trkpt>
      <trkpt lat="44.71358" lon="7.06151">
        <ele>2804.8</ele>
        <time>2026-09-03T09:35:08Z</time>
      </trkpt>
      <trkpt lat="44.71358" lon="7.06151">
        <ele>2804.8</ele>
        <time>2026-09-03T09:35:14Z</time>
      </trkpt>
      <trkpt lat="44.71355" lon="7.06166">
        <ele>2806.7</ele>
        <time>2026-09-03T09:35:19Z</time>
      </trkpt>
      <trkpt lat="44.71353" lon="7.0617">
        <ele>2806.8</ele>
        <time>2026-09-03T09:35:24Z</time>
      </trkpt>
      <trkpt lat="44.71351" lon="7.06174">
        <ele>2806.8</ele>
        <time>2026-09-03T09:35:30Z</time>
      </trkpt>
      <trkpt lat="44.7135" lon="7.06176">
        <ele>2806.9</ele>
        <time>2026-09-03T09:35:35Z</time>
      </trkpt>
      <trkpt lat="44.7135" lon="7.06176">
        <ele>2806.9</ele>
        <time>2026-09-03T09:35:40Z</time>
      </trkpt>
      <trkpt lat="44.7135" lon="7.06176">
        <ele>2806.9</ele>
        <time>2026-09-03T09:35:46Z</time>
      </trkpt>
      <trkpt lat="44.7135" lon="7.06176">
        <ele>2806.9</ele>
        <time>2026-09-03T09:35:51Z</time>
      </trkpt>
      <trkpt lat="44.7135" lon="7.06176">
        <ele>2806.9</ele>
        <time>2026-09-03T09:35:56Z</time>
      </trkpt>
      <trkpt lat="44.7135" lon="7.06176">
        <ele>2806.9</ele>
        <time>2026-09-03T09:36:02Z</time>
      </trkpt>
      <trkpt lat="44.7135" lon="7.06176">
        <ele>2806.9</ele>
        <time>2026-09-03T09:36:07Z</time>
      </trkpt>
      <trkpt lat="44.71349" lon="7.0618">
        <ele>2807.4</ele>
        <time>2026-09-03T09:36:12Z</time>
      </trkpt>
      <trkpt lat="44.71351" lon="7.06186">
        <ele>2809.5</ele>
        <time>2026-09-03T09:36:18Z</time>
      </trkpt>
      <trkpt lat="44.71353" lon="7.06192">
        <ele>2811.7</ele>
        <time>2026-09-03T09:36:23Z</time>
      </trkpt>
      <trkpt lat="44.71355" lon="7.062">
        <ele>2814.2</ele>
        <time>2026-09-03T09:36:28Z</time>
      </trkpt>
      <trkpt lat="44.71357" lon="7.06207">
        <ele>2816.6</ele>
        <time>2026-09-03T09:36:34Z</time>
      </trkpt>
      <trkpt lat="44.71359" lon="7.0621">
        <ele>2818</ele>
        <time>2026-09-03T09:36:39Z</time>
      </trkpt>
      <trkpt lat="44.71359" lon="7.06212">
        <ele>2818.5</ele>
        <time>2026-09-03T09:36:44Z</time>
      </trkpt>
      <trkpt lat="44.7136" lon="7.06212">
        <ele>2818.9</ele>
        <time>2026-09-03T09:36:50Z</time>
      </trkpt>
      <trkpt lat="44.7136" lon="7.06212">
        <ele>2818.9</ele>
        <time>2026-09-03T09:36:55Z</time>
      </trkpt>
      <trkpt lat="44.7136" lon="7.06212">
        <ele>2818.9</ele>
        <time>2026-09-03T09:37:00Z</time>
      </trkpt>
      <trkpt lat="44.7136" lon="7.06212">
        <ele>2818.9</ele>
        <time>2026-09-03T09:37:06Z</time>
      </trkpt>
      <trkpt lat="44.7136" lon="7.06212">
        <ele>2818.9</ele>
        <time>2026-09-03T09:37:11Z</time>
      </trkpt>
      <trkpt lat="44.7136" lon="7.06212">
        <ele>2818.9</ele>
        <time>2026-09-03T09:37:16Z</time>
      </trkpt>
      <trkpt lat="44.7136" lon="7.06212">
        <ele>2818.9</ele>
        <time>2026-09-03T09:37:22Z</time>
      </trkpt>
      <trkpt lat="44.71358" lon="7.06224">
        <ele>2820.7</ele>
        <time>2026-09-03T09:37:27Z</time>
      </trkpt>
      <trkpt lat="44.71359" lon="7.06227">
        <ele>2821.8</ele>
        <time>2026-09-03T09:37:32Z</time>
      </trkpt>
      <trkpt lat="44.71359" lon="7.06227">
        <ele>2821.8</ele>
        <time>2026-09-03T09:37:38Z</time>
      </trkpt>
      <trkpt lat="44.71359" lon="7.06227">
        <ele>2821.8</ele>
        <time>2026-09-03T09:37:43Z</time>
      </trkpt>
      <trkpt lat="44.71359" lon="7.06227">
        <ele>2821.8</ele>
        <time>2026-09-03T09:37:48Z</time>
      </trkpt>
      <trkpt lat="44.71359" lon="7.06227">
        <ele>2821.8</ele>
        <time>2026-09-03T09:37:54Z</time>
      </trkpt>
      <trkpt lat="44.71359" lon="7.06227">
        <ele>2821.8</ele>
        <time>2026-09-03T09:37:59Z</time>
      </trkpt>
      <trkpt lat="44.71359" lon="7.06227">
        <ele>2821.8</ele>
        <time>2026-09-03T09:38:04Z</time>
      </trkpt>
      <trkpt lat="44.71359" lon="7.06227">
        <ele>2821.8</ele>
        <time>2026-09-03T09:38:10Z</time>
      </trkpt>
      <trkpt lat="44.71359" lon="7.06227">
        <ele>2821.8</ele>
        <time>2026-09-03T09:38:15Z</time>
      </trkpt>
      <trkpt lat="44.71359" lon="7.06227">
        <ele>2821.8</ele>
        <time>2026-09-03T09:38:20Z</time>
      </trkpt>
      <trkpt lat="44.71359" lon="7.06227">
        <ele>2821.8</ele>
        <time>2026-09-03T09:38:26Z</time>
      </trkpt>
      <trkpt lat="44.71359" lon="7.06227">
        <ele>2821.8</ele>
        <time>2026-09-03T09:38:31Z</time>
      </trkpt>
      <trkpt lat="44.71359" lon="7.06227">
        <ele>2821.8</ele>
        <time>2026-09-03T09:38:36Z</time>
      </trkpt>
      <trkpt lat="44.71359" lon="7.06227">
        <ele>2821.8</ele>
        <time>2026-09-03T09:38:42Z</time>
      </trkpt>
      <trkpt lat="44.71355" lon="7.06241">
        <ele>2823.3</ele>
        <time>2026-09-03T09:38:47Z</time>
      </trkpt>
      <trkpt lat="44.71355" lon="7.06246">
        <ele>2824.4</ele>
        <time>2026-09-03T09:38:52Z</time>
      </trkpt>
      <trkpt lat="44.71351" lon="7.06251">
        <ele>2824</ele>
        <time>2026-09-03T09:38:58Z</time>
      </trkpt>
      <trkpt lat="44.71349" lon="7.06254">
        <ele>2823.8</ele>
        <time>2026-09-03T09:39:03Z</time>
      </trkpt>
      <trkpt lat="44.71346" lon="7.0626">
        <ele>2823.8</ele>
        <time>2026-09-03T09:39:08Z</time>
      </trkpt>
      <trkpt lat="44.71346" lon="7.06266">
        <ele>2825</ele>
        <time>2026-09-03T09:39:14Z</time>
      </trkpt>
      <trkpt lat="44.71348" lon="7.06269">
        <ele>2826.5</ele>
        <time>2026-09-03T09:39:19Z</time>
      </trkpt>
      <trkpt lat="44.71349" lon="7.06269">
        <ele>2826.9</ele>
        <time>2026-09-03T09:39:24Z</time>
      </trkpt>
      <trkpt lat="44.7135" lon="7.06271">
        <ele>2827.7</ele>
        <time>2026-09-03T09:39:30Z</time>
      </trkpt>
      <trkpt lat="44.71351" lon="7.06275">
        <ele>2829</ele>
        <time>2026-09-03T09:39:35Z</time>
      </trkpt>
      <trkpt lat="44.71354" lon="7.06275">
        <ele>2830.3</ele>
        <time>2026-09-03T09:39:40Z</time>
      </trkpt>
      <trkpt lat="44.71355" lon="7.06275">
        <ele>2830.8</ele>
        <time>2026-09-03T09:39:46Z</time>
      </trkpt>
      <trkpt lat="44.71355" lon="7.06275">
        <ele>2830.8</ele>
        <time>2026-09-03T09:39:51Z</time>
      </trkpt>
      <trkpt lat="44.71355" lon="7.06281">
        <ele>2832.1</ele>
        <time>2026-09-03T09:39:56Z</time>
      </trkpt>
      <trkpt lat="44.71358" lon="7.06284">
        <ele>2834.1</ele>
        <time>2026-09-03T09:40:02Z</time>
      </trkpt>
      <trkpt lat="44.7136" lon="7.06284">
        <ele>2835</ele>
        <time>2026-09-03T09:40:07Z</time>
      </trkpt>
      <trkpt lat="44.71361" lon="7.06283">
        <ele>2835.3</ele>
        <time>2026-09-03T09:40:12Z</time>
      </trkpt>
      <trkpt lat="44.71361" lon="7.06283">
        <ele>2835.3</ele>
        <time>2026-09-03T09:40:18Z</time>
      </trkpt>
      <trkpt lat="44.71361" lon="7.06283">
        <ele>2835.3</ele>
        <time>2026-09-03T09:40:23Z</time>
      </trkpt>
      <trkpt lat="44.71361" lon="7.06283">
        <ele>2835.3</ele>
        <time>2026-09-03T09:40:28Z</time>
      </trkpt>
      <trkpt lat="44.71361" lon="7.06279">
        <ele>2834.3</ele>
        <time>2026-09-03T09:40:34Z</time>
      </trkpt>
      <trkpt lat="44.7136" lon="7.06285">
        <ele>2835.3</ele>
        <time>2026-09-03T09:40:39Z</time>
      </trkpt>
      <trkpt lat="44.71359" lon="7.06291">
        <ele>2836.2</ele>
        <time>2026-09-03T09:40:44Z</time>
      </trkpt>
      <trkpt lat="44.71358" lon="7.06301">
        <ele>2837.9</ele>
        <time>2026-09-03T09:40:50Z</time>
      </trkpt>
      <trkpt lat="44.71356" lon="7.06305">
        <ele>2837.8</ele>
        <time>2026-09-03T09:40:55Z</time>
      </trkpt>
      <trkpt lat="44.71355" lon="7.06309">
        <ele>2838.2</ele>
        <time>2026-09-03T09:41:00Z</time>
      </trkpt>
      <trkpt lat="44.71352" lon="7.06314">
        <ele>2837.7</ele>
        <time>2026-09-03T09:41:06Z</time>
      </trkpt>
      <trkpt lat="44.7135" lon="7.06321">
        <ele>2838.1</ele>
        <time>2026-09-03T09:41:11Z</time>
      </trkpt>
      <trkpt lat="44.71349" lon="7.06322">
        <ele>2837.7</ele>
        <time>2026-09-03T09:41:16Z</time>
      </trkpt>
      <trkpt lat="44.71349" lon="7.06322">
        <ele>2837.7</ele>
        <time>2026-09-03T09:41:22Z</time>
      </trkpt>
      <trkpt lat="44.71347" lon="7.06322">
        <ele>2836.6</ele>
        <time>2026-09-03T09:41:27Z</time>
      </trkpt>
      <trkpt lat="44.71345" lon="7.06327">
        <ele>2836.5</ele>
        <time>2026-09-03T09:41:32Z</time>
      </trkpt>
      <trkpt lat="44.71345" lon="7.06334">
        <ele>2837.9</ele>
        <time>2026-09-03T09:41:38Z</time>
      </trkpt>
      <trkpt lat="44.71345" lon="7.06338">
        <ele>2839</ele>
        <time>2026-09-03T09:41:43Z</time>
      </trkpt>
      <trkpt lat="44.71345" lon="7.06344">
        <ele>2840.7</ele>
        <time>2026-09-03T09:41:48Z</time>
      </trkpt>
      <trkpt lat="44.71346" lon="7.06351">
        <ele>2843.3</ele>
        <time>2026-09-03T09:41:54Z</time>
      </trkpt>
      <trkpt lat="44.71345" lon="7.06354">
        <ele>2843.6</ele>
        <time>2026-09-03T09:41:59Z</time>
      </trkpt>
      <trkpt lat="44.71343" lon="7.06358">
        <ele>2843.5</ele>
        <time>2026-09-03T09:42:04Z</time>
      </trkpt>
      <trkpt lat="44.71339" lon="7.06361">
        <ele>2842</ele>
        <time>2026-09-03T09:42:10Z</time>
      </trkpt>
      <trkpt lat="44.71339" lon="7.06361">
        <ele>2842</ele>
        <time>2026-09-03T09:42:15Z</time>
      </trkpt>
      <trkpt lat="44.71339" lon="7.06361">
        <ele>2842</ele>
        <time>2026-09-03T09:42:20Z</time>
      </trkpt>
      <trkpt lat="44.71339" lon="7.06361">
        <ele>2842</ele>
        <time>2026-09-03T09:42:26Z</time>
      </trkpt>
      <trkpt lat="44.71339" lon="7.06361">
        <ele>2842</ele>
        <time>2026-09-03T09:42:31Z</time>
      </trkpt>
      <trkpt lat="44.71334" lon="7.06367">
        <ele>2840.7</ele>
        <time>2026-09-03T09:42:36Z</time>
      </trkpt>
      <trkpt lat="44.7133" lon="7.06374">
        <ele>2842.2</ele>
        <time>2026-09-03T09:42:42Z</time>
      </trkpt>
      <trkpt lat="44.71326" lon="7.06381">
        <ele>2844.2</ele>
        <time>2026-09-03T09:42:47Z</time>
      </trkpt>
      <trkpt lat="44.71322" lon="7.06384">
        <ele>2845</ele>
        <time>2026-09-03T09:42:52Z</time>
      </trkpt>
      <trkpt lat="44.71317" lon="7.06387">
        <ele>2845.9</ele>
        <time>2026-09-03T09:42:58Z</time>
      </trkpt>
      <trkpt lat="44.71315" lon="7.06391">
        <ele>2847</ele>
        <time>2026-09-03T09:43:03Z</time>
      </trkpt>
      <trkpt lat="44.71314" lon="7.06396">
        <ele>2848.4</ele>
        <time>2026-09-03T09:43:08Z</time>
      </trkpt>
      <trkpt lat="44.71314" lon="7.06396">
        <ele>2848.4</ele>
        <time>2026-09-03T09:43:14Z</time>
      </trkpt>
      <trkpt lat="44.71314" lon="7.06396">
        <ele>2848.4</ele>
        <time>2026-09-03T09:43:19Z</time>
      </trkpt>
      <trkpt lat="44.71314" lon="7.06396">
        <ele>2848.4</ele>
        <time>2026-09-03T09:43:24Z</time>
      </trkpt>
      <trkpt lat="44.71314" lon="7.06396">
        <ele>2848.4</ele>
        <time>2026-09-03T09:43:30Z</time>
      </trkpt>
      <trkpt lat="44.71314" lon="7.06396">
        <ele>2848.4</ele>
        <time>2026-09-03T09:43:35Z</time>
      </trkpt>
      <trkpt lat="44.71314" lon="7.06396">
        <ele>2848.4</ele>
        <time>2026-09-03T09:43:40Z</time>
      </trkpt>
      <trkpt lat="44.71314" lon="7.06396">
        <ele>2848.4</ele>
        <time>2026-09-03T09:43:46Z</time>
      </trkpt>
      <trkpt lat="44.71309" lon="7.06398">
        <ele>2849</ele>
        <time>2026-09-03T09:43:51Z</time>
      </trkpt>
      <trkpt lat="44.71305" lon="7.06399">
        <ele>2849.3</ele>
        <time>2026-09-03T09:43:56Z</time>
      </trkpt>
      <trkpt lat="44.71303" lon="7.06406">
        <ele>2851.3</ele>
        <time>2026-09-03T09:44:02Z</time>
      </trkpt>
      <trkpt lat="44.71305" lon="7.06412">
        <ele>2853</ele>
        <time>2026-09-03T09:44:07Z</time>
      </trkpt>
      <trkpt lat="44.71306" lon="7.06413">
        <ele>2853.3</ele>
        <time>2026-09-03T09:44:12Z</time>
      </trkpt>
      <trkpt lat="44.71306" lon="7.06413">
        <ele>2853.3</ele>
        <time>2026-09-03T09:44:18Z</time>
      </trkpt>
      <trkpt lat="44.71306" lon="7.06413">
        <ele>2853.3</ele>
        <time>2026-09-03T09:44:23Z</time>
      </trkpt>
      <trkpt lat="44.71302" lon="7.06414">
        <ele>2853.6</ele>
        <time>2026-09-03T09:44:28Z</time>
      </trkpt>
      <trkpt lat="44.713" lon="7.06417">
        <ele>2854.6</ele>
        <time>2026-09-03T09:44:34Z</time>
      </trkpt>
      <trkpt lat="44.71296" lon="7.0642">
        <ele>2856.5</ele>
        <time>2026-09-03T09:44:39Z</time>
      </trkpt>
      <trkpt lat="44.71294" lon="7.06426">
        <ele>2860.2</ele>
        <time>2026-09-03T09:44:44Z</time>
      </trkpt>
      <trkpt lat="44.71293" lon="7.06429">
        <ele>2862</ele>
        <time>2026-09-03T09:44:50Z</time>
      </trkpt>
      <trkpt lat="44.71293" lon="7.06429">
        <ele>2862</ele>
        <time>2026-09-03T09:44:55Z</time>
      </trkpt>
      <trkpt lat="44.71293" lon="7.06429">
        <ele>2862</ele>
        <time>2026-09-03T09:45:00Z</time>
      </trkpt>
      <trkpt lat="44.71293" lon="7.06429">
        <ele>2862</ele>
        <time>2026-09-03T09:45:06Z</time>
      </trkpt>
      <trkpt lat="44.71293" lon="7.06429">
        <ele>2862</ele>
        <time>2026-09-03T09:45:11Z</time>
      </trkpt>
      <trkpt lat="44.7129" lon="7.06433">
        <ele>2864.3</ele>
        <time>2026-09-03T09:45:16Z</time>
      </trkpt>
      <trkpt lat="44.71291" lon="7.06444">
        <ele>2871</ele>
        <time>2026-09-03T09:45:22Z</time>
      </trkpt>
      <trkpt lat="44.71289" lon="7.06452">
        <ele>2875.6</ele>
        <time>2026-09-03T09:45:27Z</time>
      </trkpt>
      <trkpt lat="44.71286" lon="7.06458">
        <ele>2878.8</ele>
        <time>2026-09-03T09:45:32Z</time>
      </trkpt>
      <trkpt lat="44.71282" lon="7.06459">
        <ele>2878.9</ele>
        <time>2026-09-03T09:45:38Z</time>
      </trkpt>
      <trkpt lat="44.71276" lon="7.06461">
        <ele>2879.3</ele>
        <time>2026-09-03T09:45:43Z</time>
      </trkpt>
      <trkpt lat="44.71272" lon="7.06462">
        <ele>2879.3</ele>
        <time>2026-09-03T09:45:48Z</time>
      </trkpt>
      <trkpt lat="44.71267" lon="7.06466">
        <ele>2880.7</ele>
        <time>2026-09-03T09:45:54Z</time>
      </trkpt>
      <trkpt lat="44.71263" lon="7.06469">
        <ele>2881.6</ele>
        <time>2026-09-03T09:45:59Z</time>
      </trkpt>
      <trkpt lat="44.71259" lon="7.0647">
        <ele>2881.4</ele>
        <time>2026-09-03T09:46:04Z</time>
      </trkpt>
      <trkpt lat="44.71255" lon="7.06472">
        <ele>2881.8</ele>
        <time>2026-09-03T09:46:10Z</time>
      </trkpt>
      <trkpt lat="44.71255" lon="7.06475">
        <ele>2883.2</ele>
        <time>2026-09-03T09:46:15Z</time>
      </trkpt>
      <trkpt lat="44.71252" lon="7.0648">
        <ele>2885</ele>
        <time>2026-09-03T09:46:20Z</time>
      </trkpt>
      <trkpt lat="44.71247" lon="7.06484">
        <ele>2887.6</ele>
        <time>2026-09-03T09:46:26Z</time>
      </trkpt>
      <trkpt lat="44.71241" lon="7.06487">
        <ele>2891.2</ele>
        <time>2026-09-03T09:46:31Z</time>
      </trkpt>
      <trkpt lat="44.71238" lon="7.06489">
        <ele>2893.1</ele>
        <time>2026-09-03T09:46:36Z</time>
      </trkpt>
      <trkpt lat="44.71236" lon="7.06488">
        <ele>2893.4</ele>
        <time>2026-09-03T09:46:42Z</time>
      </trkpt>
      <trkpt lat="44.71234" lon="7.06487">
        <ele>2893.7</ele>
        <time>2026-09-03T09:46:47Z</time>
      </trkpt>
      <trkpt lat="44.71232" lon="7.06487">
        <ele>2894.4</ele>
        <time>2026-09-03T09:46:52Z</time>
      </trkpt>
      <trkpt lat="44.71232" lon="7.06487">
        <ele>2894.4</ele>
        <time>2026-09-03T09:46:58Z</time>
      </trkpt>
      <trkpt lat="44.71232" lon="7.06487">
        <ele>2894.4</ele>
        <time>2026-09-03T09:47:03Z</time>
      </trkpt>
      <trkpt lat="44.71232" lon="7.06487">
        <ele>2894.4</ele>
        <time>2026-09-03T09:47:08Z</time>
      </trkpt>
      <trkpt lat="44.71232" lon="7.06487">
        <ele>2894.4</ele>
        <time>2026-09-03T09:47:14Z</time>
      </trkpt>
      <trkpt lat="44.71232" lon="7.06487">
        <ele>2894.4</ele>
        <time>2026-09-03T09:47:19Z</time>
      </trkpt>
      <trkpt lat="44.71232" lon="7.06487">
        <ele>2894.4</ele>
        <time>2026-09-03T09:47:24Z</time>
      </trkpt>
      <trkpt lat="44.71232" lon="7.06487">
        <ele>2894.4</ele>
        <time>2026-09-03T09:47:30Z</time>
      </trkpt>
      <trkpt lat="44.71232" lon="7.06487">
        <ele>2894.4</ele>
        <time>2026-09-03T09:47:35Z</time>
      </trkpt>
      <trkpt lat="44.71232" lon="7.06487">
        <ele>2894.4</ele>
        <time>2026-09-03T09:47:40Z</time>
      </trkpt>
      <trkpt lat="44.71232" lon="7.06487">
        <ele>2894.4</ele>
        <time>2026-09-03T09:47:46Z</time>
      </trkpt>
      <trkpt lat="44.71226" lon="7.06498">
        <ele>2901</ele>
        <time>2026-09-03T09:47:51Z</time>
      </trkpt>
      <trkpt lat="44.71222" lon="7.065">
        <ele>2903.1</ele>
        <time>2026-09-03T09:47:56Z</time>
      </trkpt>
      <trkpt lat="44.71217" lon="7.06503">
        <ele>2905.9</ele>
        <time>2026-09-03T09:48:02Z</time>
      </trkpt>
      <trkpt lat="44.71214" lon="7.06505">
        <ele>2907.6</ele>
        <time>2026-09-03T09:48:07Z</time>
      </trkpt>
      <trkpt lat="44.71211" lon="7.06508">
        <ele>2909.7</ele>
        <time>2026-09-03T09:48:12Z</time>
      </trkpt>
      <trkpt lat="44.71207" lon="7.06511">
        <ele>2912</ele>
        <time>2026-09-03T09:48:18Z</time>
      </trkpt>
      <trkpt lat="44.71204" lon="7.06513">
        <ele>2913.6</ele>
        <time>2026-09-03T09:48:23Z</time>
      </trkpt>
      <trkpt lat="44.71203" lon="7.06518">
        <ele>2915.7</ele>
        <time>2026-09-03T09:48:28Z</time>
      </trkpt>
      <trkpt lat="44.71203" lon="7.06522">
        <ele>2917.1</ele>
        <time>2026-09-03T09:48:34Z</time>
      </trkpt>
      <trkpt lat="44.71203" lon="7.06522">
        <ele>2917.1</ele>
        <time>2026-09-03T09:48:39Z</time>
      </trkpt>
      <trkpt lat="44.71203" lon="7.06522">
        <ele>2917.1</ele>
        <time>2026-09-03T09:48:44Z</time>
      </trkpt>
      <trkpt lat="44.71203" lon="7.06522">
        <ele>2917.1</ele>
        <time>2026-09-03T09:48:50Z</time>
      </trkpt>
      <trkpt lat="44.71203" lon="7.06522">
        <ele>2917.1</ele>
        <time>2026-09-03T09:48:55Z</time>
      </trkpt>
      <trkpt lat="44.71203" lon="7.06522">
        <ele>2917.1</ele>
        <time>2026-09-03T09:49:00Z</time>
      </trkpt>
      <trkpt lat="44.71203" lon="7.06522">
        <ele>2917.1</ele>
        <time>2026-09-03T09:49:06Z</time>
      </trkpt>
      <trkpt lat="44.71214" lon="7.06527">
        <ele>2916.1</ele>
        <time>2026-09-03T09:49:11Z</time>
      </trkpt>
      <trkpt lat="44.71219" lon="7.06525">
        <ele>2914</ele>
        <time>2026-09-03T09:49:16Z</time>
      </trkpt>
      <trkpt lat="44.71221" lon="7.06528">
        <ele>2914.6</ele>
        <time>2026-09-03T09:49:22Z</time>
      </trkpt>
      <trkpt lat="44.71223" lon="7.06529">
        <ele>2914.5</ele>
        <time>2026-09-03T09:49:27Z</time>
      </trkpt>
      <trkpt lat="44.71226" lon="7.06532">
        <ele>2915</ele>
        <time>2026-09-03T09:49:32Z</time>
      </trkpt>
      <trkpt lat="44.71221" lon="7.06535">
        <ele>2917.4</ele>
        <time>2026-09-03T09:49:38Z</time>
      </trkpt>
      <trkpt lat="44.71217" lon="7.06536">
        <ele>2918.8</ele>
        <time>2026-09-03T09:49:43Z</time>
      </trkpt>
      <trkpt lat="44.71215" lon="7.06537">
        <ele>2919.7</ele>
        <time>2026-09-03T09:49:48Z</time>
      </trkpt>
      <trkpt lat="44.71212" lon="7.06539">
        <ele>2921.1</ele>
        <time>2026-09-03T09:49:54Z</time>
      </trkpt>
      <trkpt lat="44.7121" lon="7.0654">
        <ele>2922</ele>
        <time>2026-09-03T09:49:59Z</time>
      </trkpt>
      <trkpt lat="44.71208" lon="7.06543">
        <ele>2923.6</ele>
        <time>2026-09-03T09:50:04Z</time>
      </trkpt>
      <trkpt lat="44.71208" lon="7.06543">
        <ele>2923.6</ele>
        <time>2026-09-03T09:50:10Z</time>
      </trkpt>
      <trkpt lat="44.71208" lon="7.06543">
        <ele>2923.6</ele>
        <time>2026-09-03T09:50:15Z</time>
      </trkpt>
      <trkpt lat="44.71208" lon="7.06543">
        <ele>2923.6</ele>
        <time>2026-09-03T09:50:20Z</time>
      </trkpt>
      <trkpt lat="44.71208" lon="7.06543">
        <ele>2923.6</ele>
        <time>2026-09-03T09:50:26Z</time>
      </trkpt>
      <trkpt lat="44.71208" lon="7.06543">
        <ele>2923.6</ele>
        <time>2026-09-03T09:50:31Z</time>
      </trkpt>
      <trkpt lat="44.71208" lon="7.06543">
        <ele>2923.6</ele>
        <time>2026-09-03T09:50:36Z</time>
      </trkpt>
      <trkpt lat="44.71208" lon="7.06543">
        <ele>2923.6</ele>
        <time>2026-09-03T09:50:42Z</time>
      </trkpt>
      <trkpt lat="44.71208" lon="7.06543">
        <ele>2923.6</ele>
        <time>2026-09-03T09:50:47Z</time>
      </trkpt>
      <trkpt lat="44.71208" lon="7.06543">
        <ele>2923.6</ele>
        <time>2026-09-03T09:50:52Z</time>
      </trkpt>
      <trkpt lat="44.71208" lon="7.06543">
        <ele>2923.6</ele>
        <time>2026-09-03T09:50:58Z</time>
      </trkpt>
      <trkpt lat="44.71208" lon="7.06543">
        <ele>2923.6</ele>
        <time>2026-09-03T09:51:03Z</time>
      </trkpt>
      <trkpt lat="44.71208" lon="7.06543">
        <ele>2923.6</ele>
        <time>2026-09-03T09:51:08Z</time>
      </trkpt>
      <trkpt lat="44.71208" lon="7.06543">
        <ele>2923.6</ele>
        <time>2026-09-03T09:51:14Z</time>
      </trkpt>
      <trkpt lat="44.71208" lon="7.06543">
        <ele>2923.6</ele>
        <time>2026-09-03T09:51:19Z</time>
      </trkpt>
      <trkpt lat="44.71208" lon="7.06543">
        <ele>2923.6</ele>
        <time>2026-09-03T09:51:24Z</time>
      </trkpt>
      <trkpt lat="44.71209" lon="7.06556">
        <ele>2928.2</ele>
        <time>2026-09-03T09:51:30Z</time>
      </trkpt>
      <trkpt lat="44.71209" lon="7.06556">
        <ele>2928.2</ele>
        <time>2026-09-03T09:51:35Z</time>
      </trkpt>
      <trkpt lat="44.71209" lon="7.06556">
        <ele>2928.2</ele>
        <time>2026-09-03T09:51:40Z</time>
      </trkpt>
      <trkpt lat="44.71209" lon="7.0656">
        <ele>2929.7</ele>
        <time>2026-09-03T09:51:46Z</time>
      </trkpt>
      <trkpt lat="44.71213" lon="7.06571">
        <ele>2933.2</ele>
        <time>2026-09-03T09:51:51Z</time>
      </trkpt>
      <trkpt lat="44.71234" lon="7.06569">
        <ele>2928.9</ele>
        <time>2026-09-03T09:54:23Z</time>
      </trkpt>
      <trkpt lat="44.71239" lon="7.06574">
        <ele>2930.3</ele>
        <time>2026-09-03T09:54:29Z</time>
      </trkpt>
      <trkpt lat="44.71241" lon="7.06579">
        <ele>2932.2</ele>
        <time>2026-09-03T09:54:34Z</time>
      </trkpt>
      <trkpt lat="44.71239" lon="7.06591">
        <ele>2933.7</ele>
        <time>2026-09-03T09:54:39Z</time>
      </trkpt>
      <trkpt lat="44.71238" lon="7.06595">
        <ele>2933.4</ele>
        <time>2026-09-03T09:54:45Z</time>
      </trkpt>
      <trkpt lat="44.71237" lon="7.06607">
        <ele>2932.3</ele>
        <time>2026-09-03T09:54:50Z</time>
      </trkpt>
      <trkpt lat="44.71236" lon="7.06616">
        <ele>2931.4</ele>
        <time>2026-09-03T09:54:55Z</time>
      </trkpt>
      <trkpt lat="44.71235" lon="7.06617">
        <ele>2931.4</ele>
        <time>2026-09-03T09:55:01Z</time>
      </trkpt>
      <trkpt lat="44.71235" lon="7.06617">
        <ele>2931.4</ele>
        <time>2026-09-03T09:55:06Z</time>
      </trkpt>
      <trkpt lat="44.71235" lon="7.06617">
        <ele>2931.4</ele>
        <time>2026-09-03T09:55:11Z</time>
      </trkpt>
      <trkpt lat="44.71232" lon="7.06621">
        <ele>2931.1</ele>
        <time>2026-09-03T09:55:17Z</time>
      </trkpt>
      <trkpt lat="44.71231" lon="7.06624">
        <ele>2930.8</ele>
        <time>2026-09-03T09:55:22Z</time>
      </trkpt>
      <trkpt lat="44.71231" lon="7.06624">
        <ele>2930.8</ele>
        <time>2026-09-03T09:55:27Z</time>
      </trkpt>
      <trkpt lat="44.71231" lon="7.06624">
        <ele>2930.8</ele>
        <time>2026-09-03T09:55:33Z</time>
      </trkpt>
      <trkpt lat="44.71231" lon="7.06624">
        <ele>2930.8</ele>
        <time>2026-09-03T09:55:38Z</time>
      </trkpt>
      <trkpt lat="44.71231" lon="7.06624">
        <ele>2930.8</ele>
        <time>2026-09-03T09:55:43Z</time>
      </trkpt>
      <trkpt lat="44.71231" lon="7.06624">
        <ele>2930.8</ele>
        <time>2026-09-03T09:55:49Z</time>
      </trkpt>
      <trkpt lat="44.71231" lon="7.06624">
        <ele>2930.8</ele>
        <time>2026-09-03T09:55:54Z</time>
      </trkpt>
      <trkpt lat="44.71231" lon="7.06624">
        <ele>2930.8</ele>
        <time>2026-09-03T09:55:59Z</time>
      </trkpt>
      <trkpt lat="44.71231" lon="7.06624">
        <ele>2930.8</ele>
        <time>2026-09-03T09:56:05Z</time>
      </trkpt>
      <trkpt lat="44.71231" lon="7.06624">
        <ele>2930.8</ele>
        <time>2026-09-03T09:56:10Z</time>
      </trkpt>
      <trkpt lat="44.71231" lon="7.06624">
        <ele>2930.8</ele>
        <time>2026-09-03T09:56:15Z</time>
      </trkpt>
      <trkpt lat="44.71231" lon="7.06624">
        <ele>2930.8</ele>
        <time>2026-09-03T09:56:25Z</time>
      </trkpt>
      <trkpt lat="44.71231" lon="7.06624">
        <ele>2930.8</ele>
        <time>2026-09-03T09:56:31Z</time>
      </trkpt>
      <trkpt lat="44.71231" lon="7.06624">
        <ele>2930.8</ele>
        <time>2026-09-03T09:56:36Z</time>
      </trkpt>
      <trkpt lat="44.71243" lon="7.06626">
        <ele>2930.2</ele>
        <time>2026-09-03T09:56:41Z</time>
      </trkpt>
      <trkpt lat="44.71211" lon="7.06549">
        <ele>2925.2</ele>
        <time>2026-09-03T09:58:18Z</time>
      </trkpt>
      <trkpt lat="44.71208" lon="7.06535">
        <ele>2920.6</ele>
        <time>2026-09-03T09:58:24Z</time>
      </trkpt>
      <trkpt lat="44.71211" lon="7.06531">
        <ele>2918.4</ele>
        <time>2026-09-03T09:58:29Z</time>
      </trkpt>
      <trkpt lat="44.71213" lon="7.06532">
        <ele>2918.2</ele>
        <time>2026-09-03T09:58:34Z</time>
      </trkpt>
      <trkpt lat="44.71213" lon="7.06532">
        <ele>2918.2</ele>
        <time>2026-09-03T09:58:40Z</time>
      </trkpt>
      <trkpt lat="44.71213" lon="7.06532">
        <ele>2918.2</ele>
        <time>2026-09-03T09:58:45Z</time>
      </trkpt>
      <trkpt lat="44.71213" lon="7.06532">
        <ele>2918.2</ele>
        <time>2026-09-03T09:58:50Z</time>
      </trkpt>
      <trkpt lat="44.71213" lon="7.06532">
        <ele>2918.2</ele>
        <time>2026-09-03T09:58:56Z</time>
      </trkpt>
      <trkpt lat="44.71213" lon="7.06532">
        <ele>2918.2</ele>
        <time>2026-09-03T09:59:01Z</time>
      </trkpt>
      <trkpt lat="44.71213" lon="7.06532">
        <ele>2918.2</ele>
        <time>2026-09-03T09:59:06Z</time>
      </trkpt>
      <trkpt lat="44.71213" lon="7.06532">
        <ele>2918.2</ele>
        <time>2026-09-03T09:59:12Z</time>
      </trkpt>
      <trkpt lat="44.71213" lon="7.06532">
        <ele>2918.2</ele>
        <time>2026-09-03T09:59:17Z</time>
      </trkpt>
      <trkpt lat="44.71213" lon="7.06532">
        <ele>2918.2</ele>
        <time>2026-09-03T09:59:22Z</time>
      </trkpt>
      <trkpt lat="44.71213" lon="7.06532">
        <ele>2918.2</ele>
        <time>2026-09-03T09:59:28Z</time>
      </trkpt>
      <trkpt lat="44.71213" lon="7.06532">
        <ele>2918.2</ele>
        <time>2026-09-03T09:59:33Z</time>
      </trkpt>
      <trkpt lat="44.71213" lon="7.06532">
        <ele>2918.2</ele>
        <time>2026-09-03T09:59:38Z</time>
      </trkpt>
      <trkpt lat="44.71213" lon="7.06532">
        <ele>2918.2</ele>
        <time>2026-09-03T09:59:44Z</time>
      </trkpt>
      <trkpt lat="44.71213" lon="7.06532">
        <ele>2918.2</ele>
        <time>2026-09-03T09:59:49Z</time>
      </trkpt>
      <trkpt lat="44.71213" lon="7.06532">
        <ele>2918.2</ele>
        <time>2026-09-03T09:59:54Z</time>
      </trkpt>
      <trkpt lat="44.71213" lon="7.06532">
        <ele>2918.2</ele>
        <time>2026-09-03T10:00:00Z</time>
      </trkpt>
      <trkpt lat="44.71213" lon="7.06532">
        <ele>2918.2</ele>
        <time>2026-09-03T10:00:05Z</time>
      </trkpt>
      <trkpt lat="44.71213" lon="7.06532">
        <ele>2918.2</ele>
        <time>2026-09-03T10:00:10Z</time>
      </trkpt>
      <trkpt lat="44.71213" lon="7.06532">
        <ele>2918.2</ele>
        <time>2026-09-03T10:00:16Z</time>
      </trkpt>
      <trkpt lat="44.71213" lon="7.06532">
        <ele>2918.2</ele>
        <time>2026-09-03T10:00:21Z</time>
      </trkpt>
      <trkpt lat="44.71213" lon="7.06532">
        <ele>2918.2</ele>
        <time>2026-09-03T10:00:26Z</time>
      </trkpt>
      <trkpt lat="44.71213" lon="7.06532">
        <ele>2918.2</ele>
        <time>2026-09-03T10:00:32Z</time>
      </trkpt>
      <trkpt lat="44.71213" lon="7.06532">
        <ele>2918.2</ele>
        <time>2026-09-03T10:00:37Z</time>
      </trkpt>
      <trkpt lat="44.71213" lon="7.06532">
        <ele>2918.2</ele>
        <time>2026-09-03T10:00:42Z</time>
      </trkpt>
      <trkpt lat="44.71213" lon="7.06532">
        <ele>2918.2</ele>
        <time>2026-09-03T10:00:48Z</time>
      </trkpt>
      <trkpt lat="44.71213" lon="7.06532">
        <ele>2918.2</ele>
        <time>2026-09-03T10:00:53Z</time>
      </trkpt>
      <trkpt lat="44.71213" lon="7.06532">
        <ele>2918.2</ele>
        <time>2026-09-03T10:00:58Z</time>
      </trkpt>
      <trkpt lat="44.71213" lon="7.06532">
        <ele>2918.2</ele>
        <time>2026-09-03T10:01:04Z</time>
      </trkpt>
      <trkpt lat="44.71211" lon="7.06523">
        <ele>2915.3</ele>
        <time>2026-09-03T10:01:09Z</time>
      </trkpt>
      <trkpt lat="44.71208" lon="7.06518">
        <ele>2914.3</ele>
        <time>2026-09-03T10:01:14Z</time>
      </trkpt>
      <trkpt lat="44.71205" lon="7.06516">
        <ele>2914.4</ele>
        <time>2026-09-03T10:01:20Z</time>
      </trkpt>
      <trkpt lat="44.71202" lon="7.06512">
        <ele>2913.8</ele>
        <time>2026-09-03T10:01:25Z</time>
      </trkpt>
      <trkpt lat="44.71201" lon="7.06511">
        <ele>2913.8</ele>
        <time>2026-09-03T10:01:30Z</time>
      </trkpt>
      <trkpt lat="44.71201" lon="7.06511">
        <ele>2913.8</ele>
        <time>2026-09-03T10:01:36Z</time>
      </trkpt>
      <trkpt lat="44.71201" lon="7.06511">
        <ele>2913.8</ele>
        <time>2026-09-03T10:01:41Z</time>
      </trkpt>
      <trkpt lat="44.71201" lon="7.06511">
        <ele>2913.8</ele>
        <time>2026-09-03T10:01:46Z</time>
      </trkpt>
      <trkpt lat="44.71201" lon="7.06511">
        <ele>2913.8</ele>
        <time>2026-09-03T10:01:52Z</time>
      </trkpt>
      <trkpt lat="44.71201" lon="7.06511">
        <ele>2913.8</ele>
        <time>2026-09-03T10:01:57Z</time>
      </trkpt>
      <trkpt lat="44.71201" lon="7.06511">
        <ele>2913.8</ele>
        <time>2026-09-03T10:02:02Z</time>
      </trkpt>
      <trkpt lat="44.71201" lon="7.06511">
        <ele>2913.8</ele>
        <time>2026-09-03T10:02:08Z</time>
      </trkpt>
      <trkpt lat="44.71201" lon="7.06511">
        <ele>2913.8</ele>
        <time>2026-09-03T10:02:13Z</time>
      </trkpt>
      <trkpt lat="44.71201" lon="7.06511">
        <ele>2913.8</ele>
        <time>2026-09-03T10:02:18Z</time>
      </trkpt>
      <trkpt lat="44.71201" lon="7.06511">
        <ele>2913.8</ele>
        <time>2026-09-03T10:02:24Z</time>
      </trkpt>
      <trkpt lat="44.71201" lon="7.06511">
        <ele>2913.8</ele>
        <time>2026-09-03T10:02:29Z</time>
      </trkpt>
      <trkpt lat="44.71201" lon="7.06511">
        <ele>2913.8</ele>
        <time>2026-09-03T10:02:34Z</time>
      </trkpt>
      <trkpt lat="44.71201" lon="7.06511">
        <ele>2913.8</ele>
        <time>2026-09-03T10:02:40Z</time>
      </trkpt>
      <trkpt lat="44.71201" lon="7.06511">
        <ele>2913.8</ele>
        <time>2026-09-03T10:02:45Z</time>
      </trkpt>
      <trkpt lat="44.71201" lon="7.06511">
        <ele>2913.8</ele>
        <time>2026-09-03T10:02:50Z</time>
      </trkpt>
      <trkpt lat="44.71201" lon="7.06511">
        <ele>2913.8</ele>
        <time>2026-09-03T10:02:56Z</time>
      </trkpt>
      <trkpt lat="44.71201" lon="7.06511">
        <ele>2913.8</ele>
        <time>2026-09-03T10:03:01Z</time>
      </trkpt>
      <trkpt lat="44.71201" lon="7.06511">
        <ele>2913.8</ele>
        <time>2026-09-03T10:03:06Z</time>
      </trkpt>
      <trkpt lat="44.71201" lon="7.06511">
        <ele>2913.8</ele>
        <time>2026-09-03T10:03:12Z</time>
      </trkpt>
      <trkpt lat="44.71201" lon="7.06511">
        <ele>2913.8</ele>
        <time>2026-09-03T10:03:17Z</time>
      </trkpt>
      <trkpt lat="44.71201" lon="7.06511">
        <ele>2913.8</ele>
        <time>2026-09-03T10:03:22Z</time>
      </trkpt>
      <trkpt lat="44.71201" lon="7.06511">
        <ele>2913.8</ele>
        <time>2026-09-03T10:03:28Z</time>
      </trkpt>
      <trkpt lat="44.71201" lon="7.06511">
        <ele>2913.8</ele>
        <time>2026-09-03T10:03:33Z</time>
      </trkpt>
      <trkpt lat="44.71201" lon="7.06511">
        <ele>2913.8</ele>
        <time>2026-09-03T10:03:38Z</time>
      </trkpt>
      <trkpt lat="44.7121" lon="7.06512">
        <ele>2911.5</ele>
        <time>2026-09-03T10:03:44Z</time>
      </trkpt>
      <trkpt lat="44.71215" lon="7.06508">
        <ele>2908.4</ele>
        <time>2026-09-03T10:03:49Z</time>
      </trkpt>
      <trkpt lat="44.71218" lon="7.06504">
        <ele>2905.9</ele>
        <time>2026-09-03T10:03:54Z</time>
      </trkpt>
      <trkpt lat="44.71223" lon="7.065">
        <ele>2902.7</ele>
        <time>2026-09-03T10:04:00Z</time>
      </trkpt>
      <trkpt lat="44.71226" lon="7.06499">
        <ele>2901.4</ele>
        <time>2026-09-03T10:04:05Z</time>
      </trkpt>
      <trkpt lat="44.71227" lon="7.06497">
        <ele>2900.2</ele>
        <time>2026-09-03T10:04:10Z</time>
      </trkpt>
      <trkpt lat="44.71226" lon="7.06492">
        <ele>2898.6</ele>
        <time>2026-09-03T10:04:16Z</time>
      </trkpt>
      <trkpt lat="44.71228" lon="7.0649">
        <ele>2897</ele>
        <time>2026-09-03T10:04:21Z</time>
      </trkpt>
      <trkpt lat="44.71229" lon="7.06487">
        <ele>2895.5</ele>
        <time>2026-09-03T10:04:26Z</time>
      </trkpt>
      <trkpt lat="44.71229" lon="7.06485">
        <ele>2894.6</ele>
        <time>2026-09-03T10:04:32Z</time>
      </trkpt>
      <trkpt lat="44.71229" lon="7.06485">
        <ele>2894.6</ele>
        <time>2026-09-03T10:04:37Z</time>
      </trkpt>
      <trkpt lat="44.71229" lon="7.06485">
        <ele>2894.6</ele>
        <time>2026-09-03T10:04:42Z</time>
      </trkpt>
      <trkpt lat="44.71229" lon="7.06485">
        <ele>2894.6</ele>
        <time>2026-09-03T10:04:48Z</time>
      </trkpt>
      <trkpt lat="44.71229" lon="7.06485">
        <ele>2894.6</ele>
        <time>2026-09-03T10:04:53Z</time>
      </trkpt>
      <trkpt lat="44.71237" lon="7.06486">
        <ele>2892.2</ele>
        <time>2026-09-03T10:04:58Z</time>
      </trkpt>
      <trkpt lat="44.71243" lon="7.06481">
        <ele>2887.7</ele>
        <time>2026-09-03T10:05:04Z</time>
      </trkpt>
      <trkpt lat="44.71249" lon="7.06482">
        <ele>2885.9</ele>
        <time>2026-09-03T10:05:09Z</time>
      </trkpt>
      <trkpt lat="44.71252" lon="7.06481">
        <ele>2885.5</ele>
        <time>2026-09-03T10:05:14Z</time>
      </trkpt>
      <trkpt lat="44.71252" lon="7.06479">
        <ele>2884.6</ele>
        <time>2026-09-03T10:05:20Z</time>
      </trkpt>
      <trkpt lat="44.71255" lon="7.06477">
        <ele>2884.2</ele>
        <time>2026-09-03T10:05:25Z</time>
      </trkpt>
      <trkpt lat="44.71257" lon="7.06476">
        <ele>2884.1</ele>
        <time>2026-09-03T10:05:30Z</time>
      </trkpt>
      <trkpt lat="44.71261" lon="7.06474">
        <ele>2883.8</ele>
        <time>2026-09-03T10:05:36Z</time>
      </trkpt>
      <trkpt lat="44.71265" lon="7.06471">
        <ele>2882.9</ele>
        <time>2026-09-03T10:05:41Z</time>
      </trkpt>
      <trkpt lat="44.71268" lon="7.06469">
        <ele>2882.4</ele>
        <time>2026-09-03T10:05:46Z</time>
      </trkpt>
      <trkpt lat="44.71273" lon="7.06464">
        <ele>2880.5</ele>
        <time>2026-09-03T10:05:52Z</time>
      </trkpt>
      <trkpt lat="44.71275" lon="7.0646">
        <ele>2878.6</ele>
        <time>2026-09-03T10:05:57Z</time>
      </trkpt>
      <trkpt lat="44.71277" lon="7.06455">
        <ele>2876</ele>
        <time>2026-09-03T10:06:02Z</time>
      </trkpt>
      <trkpt lat="44.71279" lon="7.06451">
        <ele>2874</ele>
        <time>2026-09-03T10:06:08Z</time>
      </trkpt>
      <trkpt lat="44.71279" lon="7.06451">
        <ele>2874</ele>
        <time>2026-09-03T10:06:13Z</time>
      </trkpt>
      <trkpt lat="44.71279" lon="7.06451">
        <ele>2874</ele>
        <time>2026-09-03T10:06:18Z</time>
      </trkpt>
      <trkpt lat="44.71279" lon="7.06451">
        <ele>2874</ele>
        <time>2026-09-03T10:06:24Z</time>
      </trkpt>
      <trkpt lat="44.71281" lon="7.06443">
        <ele>2869.7</ele>
        <time>2026-09-03T10:06:29Z</time>
      </trkpt>
      <trkpt lat="44.71282" lon="7.06438">
        <ele>2866.9</ele>
        <time>2026-09-03T10:06:34Z</time>
      </trkpt>
      <trkpt lat="44.71287" lon="7.06431">
        <ele>2863</ele>
        <time>2026-09-03T10:06:40Z</time>
      </trkpt>
      <trkpt lat="44.71288" lon="7.06428">
        <ele>2861.3</ele>
        <time>2026-09-03T10:06:45Z</time>
      </trkpt>
      <trkpt lat="44.7129" lon="7.06425">
        <ele>2859.5</ele>
        <time>2026-09-03T10:06:50Z</time>
      </trkpt>
      <trkpt lat="44.71295" lon="7.06422">
        <ele>2857.8</ele>
        <time>2026-09-03T10:06:56Z</time>
      </trkpt>
      <trkpt lat="44.71297" lon="7.06418">
        <ele>2855.3</ele>
        <time>2026-09-03T10:07:01Z</time>
      </trkpt>
      <trkpt lat="44.71299" lon="7.06417">
        <ele>2854.6</ele>
        <time>2026-09-03T10:07:06Z</time>
      </trkpt>
      <trkpt lat="44.71302" lon="7.06412">
        <ele>2853</ele>
        <time>2026-09-03T10:07:12Z</time>
      </trkpt>
      <trkpt lat="44.71307" lon="7.0641">
        <ele>2852.4</ele>
        <time>2026-09-03T10:07:17Z</time>
      </trkpt>
      <trkpt lat="44.71307" lon="7.0641">
        <ele>2852.4</ele>
        <time>2026-09-03T10:07:22Z</time>
      </trkpt>
      <trkpt lat="44.71307" lon="7.0641">
        <ele>2852.4</ele>
        <time>2026-09-03T10:07:28Z</time>
      </trkpt>
      <trkpt lat="44.71307" lon="7.0641">
        <ele>2852.4</ele>
        <time>2026-09-03T10:07:33Z</time>
      </trkpt>
      <trkpt lat="44.71307" lon="7.0641">
        <ele>2852.4</ele>
        <time>2026-09-03T10:07:38Z</time>
      </trkpt>
      <trkpt lat="44.71307" lon="7.0641">
        <ele>2852.4</ele>
        <time>2026-09-03T10:07:44Z</time>
      </trkpt>
      <trkpt lat="44.71307" lon="7.0641">
        <ele>2852.4</ele>
        <time>2026-09-03T10:07:49Z</time>
      </trkpt>
      <trkpt lat="44.71307" lon="7.0641">
        <ele>2852.4</ele>
        <time>2026-09-03T10:07:54Z</time>
      </trkpt>
      <trkpt lat="44.71307" lon="7.0641">
        <ele>2852.4</ele>
        <time>2026-09-03T10:08:00Z</time>
      </trkpt>
      <trkpt lat="44.71307" lon="7.0641">
        <ele>2852.4</ele>
        <time>2026-09-03T10:08:05Z</time>
      </trkpt>
      <trkpt lat="44.71307" lon="7.0641">
        <ele>2852.4</ele>
        <time>2026-09-03T10:08:10Z</time>
      </trkpt>
      <trkpt lat="44.71313" lon="7.06398">
        <ele>2849</ele>
        <time>2026-09-03T10:08:16Z</time>
      </trkpt>
      <trkpt lat="44.71313" lon="7.06395">
        <ele>2848.1</ele>
        <time>2026-09-03T10:08:21Z</time>
      </trkpt>
      <trkpt lat="44.71314" lon="7.06391">
        <ele>2847</ele>
        <time>2026-09-03T10:08:26Z</time>
      </trkpt>
      <trkpt lat="44.71314" lon="7.06387">
        <ele>2845.9</ele>
        <time>2026-09-03T10:08:32Z</time>
      </trkpt>
      <trkpt lat="44.71316" lon="7.06387">
        <ele>2845.9</ele>
        <time>2026-09-03T10:08:37Z</time>
      </trkpt>
      <trkpt lat="44.71318" lon="7.06383">
        <ele>2844.7</ele>
        <time>2026-09-03T10:08:42Z</time>
      </trkpt>
      <trkpt lat="44.71321" lon="7.06379">
        <ele>2843.6</ele>
        <time>2026-09-03T10:08:48Z</time>
      </trkpt>
      <trkpt lat="44.71324" lon="7.06374">
        <ele>2842.2</ele>
        <time>2026-09-03T10:08:53Z</time>
      </trkpt>
      <trkpt lat="44.71327" lon="7.06368">
        <ele>2840.6</ele>
        <time>2026-09-03T10:08:58Z</time>
      </trkpt>
      <trkpt lat="44.71331" lon="7.06361">
        <ele>2838.6</ele>
        <time>2026-09-03T10:09:04Z</time>
      </trkpt>
      <trkpt lat="44.71334" lon="7.06355">
        <ele>2837.4</ele>
        <time>2026-09-03T10:09:09Z</time>
      </trkpt>
      <trkpt lat="44.71337" lon="7.06349">
        <ele>2837.5</ele>
        <time>2026-09-03T10:09:14Z</time>
      </trkpt>
      <trkpt lat="44.71338" lon="7.06342">
        <ele>2836.1</ele>
        <time>2026-09-03T10:09:20Z</time>
      </trkpt>
      <trkpt lat="44.71338" lon="7.06336">
        <ele>2834.4</ele>
        <time>2026-09-03T10:09:25Z</time>
      </trkpt>
      <trkpt lat="44.7134" lon="7.06331">
        <ele>2834.4</ele>
        <time>2026-09-03T10:09:30Z</time>
      </trkpt>
      <trkpt lat="44.71341" lon="7.06328">
        <ele>2834.4</ele>
        <time>2026-09-03T10:09:36Z</time>
      </trkpt>
      <trkpt lat="44.71342" lon="7.06325">
        <ele>2834.4</ele>
        <time>2026-09-03T10:09:41Z</time>
      </trkpt>
      <trkpt lat="44.71343" lon="7.06323">
        <ele>2834.6</ele>
        <time>2026-09-03T10:09:46Z</time>
      </trkpt>
      <trkpt lat="44.71346" lon="7.06316">
        <ele>2834.9</ele>
        <time>2026-09-03T10:09:52Z</time>
      </trkpt>
      <trkpt lat="44.71349" lon="7.06309">
        <ele>2835.1</ele>
        <time>2026-09-03T10:09:57Z</time>
      </trkpt>
      <trkpt lat="44.71352" lon="7.06304">
        <ele>2835.6</ele>
        <time>2026-09-03T10:10:02Z</time>
      </trkpt>
      <trkpt lat="44.71353" lon="7.06299">
        <ele>2835</ele>
        <time>2026-09-03T10:10:08Z</time>
      </trkpt>
      <trkpt lat="44.71354" lon="7.06296">
        <ele>2834.9</ele>
        <time>2026-09-03T10:10:13Z</time>
      </trkpt>
      <trkpt lat="44.71356" lon="7.06291">
        <ele>2834.7</ele>
        <time>2026-09-03T10:10:18Z</time>
      </trkpt>
      <trkpt lat="44.71355" lon="7.06286">
        <ele>2833.2</ele>
        <time>2026-09-03T10:10:24Z</time>
      </trkpt>
      <trkpt lat="44.71354" lon="7.06281">
        <ele>2831.6</ele>
        <time>2026-09-03T10:10:29Z</time>
      </trkpt>
      <trkpt lat="44.71353" lon="7.06277">
        <ele>2830.3</ele>
        <time>2026-09-03T10:10:34Z</time>
      </trkpt>
      <trkpt lat="44.71353" lon="7.06271">
        <ele>2829</ele>
        <time>2026-09-03T10:10:40Z</time>
      </trkpt>
      <trkpt lat="44.71352" lon="7.06267">
        <ele>2827.8</ele>
        <time>2026-09-03T10:10:45Z</time>
      </trkpt>
      <trkpt lat="44.71352" lon="7.06265">
        <ele>2827.3</ele>
        <time>2026-09-03T10:10:50Z</time>
      </trkpt>
      <trkpt lat="44.71348" lon="7.06261">
        <ele>2824.9</ele>
        <time>2026-09-03T10:10:56Z</time>
      </trkpt>
      <trkpt lat="44.71347" lon="7.06259">
        <ele>2824</ele>
        <time>2026-09-03T10:11:01Z</time>
      </trkpt>
      <trkpt lat="44.71348" lon="7.06256">
        <ele>2823.8</ele>
        <time>2026-09-03T10:11:06Z</time>
      </trkpt>
      <trkpt lat="44.7135" lon="7.06253">
        <ele>2824</ele>
        <time>2026-09-03T10:11:12Z</time>
      </trkpt>
      <trkpt lat="44.71353" lon="7.06249">
        <ele>2824.3</ele>
        <time>2026-09-03T10:11:17Z</time>
      </trkpt>
      <trkpt lat="44.71354" lon="7.06245">
        <ele>2823.8</ele>
        <time>2026-09-03T10:11:22Z</time>
      </trkpt>
      <trkpt lat="44.71354" lon="7.0624">
        <ele>2822.7</ele>
        <time>2026-09-03T10:11:28Z</time>
      </trkpt>
      <trkpt lat="44.71356" lon="7.06235">
        <ele>2822.4</ele>
        <time>2026-09-03T10:11:33Z</time>
      </trkpt>
      <trkpt lat="44.71356" lon="7.06233">
        <ele>2821.9</ele>
        <time>2026-09-03T10:11:38Z</time>
      </trkpt>
      <trkpt lat="44.71356" lon="7.06233">
        <ele>2821.9</ele>
        <time>2026-09-03T10:11:44Z</time>
      </trkpt>
      <trkpt lat="44.71356" lon="7.06233">
        <ele>2821.9</ele>
        <time>2026-09-03T10:11:49Z</time>
      </trkpt>
      <trkpt lat="44.71352" lon="7.06228">
        <ele>2819.3</ele>
        <time>2026-09-03T10:11:54Z</time>
      </trkpt>
      <trkpt lat="44.71354" lon="7.06225">
        <ele>2819.4</ele>
        <time>2026-09-03T10:12:00Z</time>
      </trkpt>
      <trkpt lat="44.71353" lon="7.06222">
        <ele>2818.3</ele>
        <time>2026-09-03T10:12:05Z</time>
      </trkpt>
      <trkpt lat="44.71351" lon="7.06216">
        <ele>2816.2</ele>
        <time>2026-09-03T10:12:10Z</time>
      </trkpt>
      <trkpt lat="44.71352" lon="7.06211">
        <ele>2815.5</ele>
        <time>2026-09-03T10:12:16Z</time>
      </trkpt>
      <trkpt lat="44.71352" lon="7.06206">
        <ele>2814.4</ele>
        <time>2026-09-03T10:12:21Z</time>
      </trkpt>
      <trkpt lat="44.71351" lon="7.06206">
        <ele>2814</ele>
        <time>2026-09-03T10:12:26Z</time>
      </trkpt>
      <trkpt lat="44.7135" lon="7.06203">
        <ele>2812.9</ele>
        <time>2026-09-03T10:12:32Z</time>
      </trkpt>
      <trkpt lat="44.7135" lon="7.062">
        <ele>2812.2</ele>
        <time>2026-09-03T10:12:37Z</time>
      </trkpt>
      <trkpt lat="44.71348" lon="7.06194">
        <ele>2810.1</ele>
        <time>2026-09-03T10:12:42Z</time>
      </trkpt>
      <trkpt lat="44.71347" lon="7.06188">
        <ele>2808.4</ele>
        <time>2026-09-03T10:12:48Z</time>
      </trkpt>
      <trkpt lat="44.71347" lon="7.06187">
        <ele>2808.1</ele>
        <time>2026-09-03T10:12:53Z</time>
      </trkpt>
      <trkpt lat="44.71346" lon="7.06184">
        <ele>2807.1</ele>
        <time>2026-09-03T10:12:58Z</time>
      </trkpt>
      <trkpt lat="44.71346" lon="7.06179">
        <ele>2805.9</ele>
        <time>2026-09-03T10:13:04Z</time>
      </trkpt>
      <trkpt lat="44.71347" lon="7.06177">
        <ele>2805.9</ele>
        <time>2026-09-03T10:13:09Z</time>
      </trkpt>
      <trkpt lat="44.71347" lon="7.06172">
        <ele>2804.8</ele>
        <time>2026-09-03T10:13:14Z</time>
      </trkpt>
      <trkpt lat="44.71348" lon="7.06167">
        <ele>2804.1</ele>
        <time>2026-09-03T10:13:20Z</time>
      </trkpt>
      <trkpt lat="44.7135" lon="7.06162">
        <ele>2803.8</ele>
        <time>2026-09-03T10:13:25Z</time>
      </trkpt>
      <trkpt lat="44.7135" lon="7.06159">
        <ele>2803.2</ele>
        <time>2026-09-03T10:13:30Z</time>
      </trkpt>
      <trkpt lat="44.71351" lon="7.06155">
        <ele>2802.8</ele>
        <time>2026-09-03T10:13:36Z</time>
      </trkpt>
      <trkpt lat="44.71349" lon="7.06153">
        <ele>2801.6</ele>
        <time>2026-09-03T10:13:41Z</time>
      </trkpt>
      <trkpt lat="44.7135" lon="7.0615">
        <ele>2801.4</ele>
        <time>2026-09-03T10:13:46Z</time>
      </trkpt>
      <trkpt lat="44.71351" lon="7.06148">
        <ele>2801.4</ele>
        <time>2026-09-03T10:13:52Z</time>
      </trkpt>
      <trkpt lat="44.7135" lon="7.06146">
        <ele>2800.6</ele>
        <time>2026-09-03T10:13:57Z</time>
      </trkpt>
      <trkpt lat="44.71348" lon="7.06145">
        <ele>2799.6</ele>
        <time>2026-09-03T10:14:02Z</time>
      </trkpt>
      <trkpt lat="44.71345" lon="7.06139">
        <ele>2797.2</ele>
        <time>2026-09-03T10:14:08Z</time>
      </trkpt>
      <trkpt lat="44.71346" lon="7.0613">
        <ele>2795.8</ele>
        <time>2026-09-03T10:14:13Z</time>
      </trkpt>
      <trkpt lat="44.71348" lon="7.06126">
        <ele>2795.7</ele>
        <time>2026-09-03T10:14:18Z</time>
      </trkpt>
      <trkpt lat="44.71351" lon="7.06125">
        <ele>2796.7</ele>
        <time>2026-09-03T10:14:24Z</time>
      </trkpt>
      <trkpt lat="44.71351" lon="7.06122">
        <ele>2796.1</ele>
        <time>2026-09-03T10:14:29Z</time>
      </trkpt>
      <trkpt lat="44.71352" lon="7.06116">
        <ele>2795.2</ele>
        <time>2026-09-03T10:14:34Z</time>
      </trkpt>
      <trkpt lat="44.71356" lon="7.06111">
        <ele>2795.7</ele>
        <time>2026-09-03T10:14:40Z</time>
      </trkpt>
      <trkpt lat="44.71359" lon="7.06109">
        <ele>2796.3</ele>
        <time>2026-09-03T10:14:45Z</time>
      </trkpt>
      <trkpt lat="44.71361" lon="7.06104">
        <ele>2796</ele>
        <time>2026-09-03T10:14:50Z</time>
      </trkpt>
      <trkpt lat="44.71362" lon="7.06099">
        <ele>2795.3</ele>
        <time>2026-09-03T10:14:56Z</time>
      </trkpt>
      <trkpt lat="44.71363" lon="7.06096">
        <ele>2795</ele>
        <time>2026-09-03T10:15:01Z</time>
      </trkpt>
      <trkpt lat="44.71364" lon="7.06092">
        <ele>2794.5</ele>
        <time>2026-09-03T10:15:06Z</time>
      </trkpt>
      <trkpt lat="44.71365" lon="7.06089">
        <ele>2794.2</ele>
        <time>2026-09-03T10:15:12Z</time>
      </trkpt>
      <trkpt lat="44.71366" lon="7.06086">
        <ele>2793.9</ele>
        <time>2026-09-03T10:15:17Z</time>
      </trkpt>
      <trkpt lat="44.71366" lon="7.06082">
        <ele>2793</ele>
        <time>2026-09-03T10:15:22Z</time>
      </trkpt>
      <trkpt lat="44.71367" lon="7.06077">
        <ele>2792.1</ele>
        <time>2026-09-03T10:15:28Z</time>
      </trkpt>
      <trkpt lat="44.71367" lon="7.06072">
        <ele>2790.8</ele>
        <time>2026-09-03T10:15:33Z</time>
      </trkpt>
      <trkpt lat="44.71368" lon="7.06069">
        <ele>2790.3</ele>
        <time>2026-09-03T10:15:38Z</time>
      </trkpt>
      <trkpt lat="44.71369" lon="7.06066">
        <ele>2789.9</ele>
        <time>2026-09-03T10:15:44Z</time>
      </trkpt>
      <trkpt lat="44.71369" lon="7.06063">
        <ele>2789.1</ele>
        <time>2026-09-03T10:15:49Z</time>
      </trkpt>
      <trkpt lat="44.71371" lon="7.06059">
        <ele>2788.8</ele>
        <time>2026-09-03T10:15:54Z</time>
      </trkpt>
      <trkpt lat="44.71373" lon="7.06052">
        <ele>2787.7</ele>
        <time>2026-09-03T10:16:00Z</time>
      </trkpt>
      <trkpt lat="44.71374" lon="7.06049">
        <ele>2787.3</ele>
        <time>2026-09-03T10:16:05Z</time>
      </trkpt>
      <trkpt lat="44.71372" lon="7.06046">
        <ele>2785.8</ele>
        <time>2026-09-03T10:16:10Z</time>
      </trkpt>
      <trkpt lat="44.71371" lon="7.06045">
        <ele>2785.2</ele>
        <time>2026-09-03T10:16:16Z</time>
      </trkpt>
      <trkpt lat="44.71371" lon="7.06042">
        <ele>2784.4</ele>
        <time>2026-09-03T10:16:21Z</time>
      </trkpt>
      <trkpt lat="44.71371" lon="7.06037">
        <ele>2783.1</ele>
        <time>2026-09-03T10:16:26Z</time>
      </trkpt>
      <trkpt lat="44.71374" lon="7.06031">
        <ele>2782.6</ele>
        <time>2026-09-03T10:16:32Z</time>
      </trkpt>
      <trkpt lat="44.71377" lon="7.06026">
        <ele>2782.5</ele>
        <time>2026-09-03T10:16:37Z</time>
      </trkpt>
      <trkpt lat="44.71378" lon="7.06021">
        <ele>2781.5</ele>
        <time>2026-09-03T10:16:42Z</time>
      </trkpt>
      <trkpt lat="44.7138" lon="7.06013">
        <ele>2780.2</ele>
        <time>2026-09-03T10:16:48Z</time>
      </trkpt>
      <trkpt lat="44.71381" lon="7.06006">
        <ele>2778.8</ele>
        <time>2026-09-03T10:16:53Z</time>
      </trkpt>
      <trkpt lat="44.71382" lon="7.06">
        <ele>2777.7</ele>
        <time>2026-09-03T10:16:58Z</time>
      </trkpt>
      <trkpt lat="44.71381" lon="7.05994">
        <ele>2776.8</ele>
        <time>2026-09-03T10:17:04Z</time>
      </trkpt>
      <trkpt lat="44.71381" lon="7.05991">
        <ele>2776.5</ele>
        <time>2026-09-03T10:17:09Z</time>
      </trkpt>
      <trkpt lat="44.71379" lon="7.05988">
        <ele>2775.5</ele>
        <time>2026-09-03T10:17:14Z</time>
      </trkpt>
      <trkpt lat="44.71378" lon="7.05982">
        <ele>2774.6</ele>
        <time>2026-09-03T10:17:20Z</time>
      </trkpt>
      <trkpt lat="44.71378" lon="7.05976">
        <ele>2774</ele>
        <time>2026-09-03T10:17:25Z</time>
      </trkpt>
      <trkpt lat="44.7138" lon="7.05971">
        <ele>2774.4</ele>
        <time>2026-09-03T10:17:30Z</time>
      </trkpt>
      <trkpt lat="44.71381" lon="7.05964">
        <ele>2774.2</ele>
        <time>2026-09-03T10:17:36Z</time>
      </trkpt>
      <trkpt lat="44.71381" lon="7.05957">
        <ele>2773.6</ele>
        <time>2026-09-03T10:17:41Z</time>
      </trkpt>
      <trkpt lat="44.71381" lon="7.05954">
        <ele>2773.4</ele>
        <time>2026-09-03T10:17:46Z</time>
      </trkpt>
      <trkpt lat="44.71382" lon="7.05952">
        <ele>2773.6</ele>
        <time>2026-09-03T10:17:52Z</time>
      </trkpt>
      <trkpt lat="44.71382" lon="7.05952">
        <ele>2773.6</ele>
        <time>2026-09-03T10:17:57Z</time>
      </trkpt>
      <trkpt lat="44.71382" lon="7.05952">
        <ele>2773.6</ele>
        <time>2026-09-03T10:18:02Z</time>
      </trkpt>
      <trkpt lat="44.71382" lon="7.05952">
        <ele>2773.6</ele>
        <time>2026-09-03T10:18:08Z</time>
      </trkpt>
      <trkpt lat="44.71382" lon="7.05952">
        <ele>2773.6</ele>
        <time>2026-09-03T10:18:13Z</time>
      </trkpt>
      <trkpt lat="44.71382" lon="7.05952">
        <ele>2773.6</ele>
        <time>2026-09-03T10:18:18Z</time>
      </trkpt>
      <trkpt lat="44.71382" lon="7.05952">
        <ele>2773.6</ele>
        <time>2026-09-03T10:18:24Z</time>
      </trkpt>
      <trkpt lat="44.71382" lon="7.05952">
        <ele>2773.6</ele>
        <time>2026-09-03T10:18:29Z</time>
      </trkpt>
      <trkpt lat="44.71382" lon="7.05952">
        <ele>2773.6</ele>
        <time>2026-09-03T10:18:34Z</time>
      </trkpt>
      <trkpt lat="44.71372" lon="7.05946">
        <ele>2768.9</ele>
        <time>2026-09-03T10:18:40Z</time>
      </trkpt>
      <trkpt lat="44.7137" lon="7.05946">
        <ele>2768</ele>
        <time>2026-09-03T10:18:45Z</time>
      </trkpt>
      <trkpt lat="44.71366" lon="7.05945">
        <ele>2766.2</ele>
        <time>2026-09-03T10:18:50Z</time>
      </trkpt>
      <trkpt lat="44.71365" lon="7.05943">
        <ele>2765.6</ele>
        <time>2026-09-03T10:18:56Z</time>
      </trkpt>
      <trkpt lat="44.71364" lon="7.05941">
        <ele>2765</ele>
        <time>2026-09-03T10:19:01Z</time>
      </trkpt>
      <trkpt lat="44.71366" lon="7.05933">
        <ele>2765.1</ele>
        <time>2026-09-03T10:19:06Z</time>
      </trkpt>
      <trkpt lat="44.71368" lon="7.05928">
        <ele>2765.5</ele>
        <time>2026-09-03T10:19:12Z</time>
      </trkpt>
      <trkpt lat="44.71369" lon="7.05922">
        <ele>2765.3</ele>
        <time>2026-09-03T10:19:17Z</time>
      </trkpt>
      <trkpt lat="44.7137" lon="7.05916">
        <ele>2765.3</ele>
        <time>2026-09-03T10:19:22Z</time>
      </trkpt>
      <trkpt lat="44.71368" lon="7.0591">
        <ele>2764.5</ele>
        <time>2026-09-03T10:19:28Z</time>
      </trkpt>
      <trkpt lat="44.71367" lon="7.05904">
        <ele>2764.2</ele>
        <time>2026-09-03T10:19:33Z</time>
      </trkpt>
      <trkpt lat="44.71365" lon="7.05901">
        <ele>2763.4</ele>
        <time>2026-09-03T10:19:38Z</time>
      </trkpt>
      <trkpt lat="44.71364" lon="7.05895">
        <ele>2763</ele>
        <time>2026-09-03T10:19:44Z</time>
      </trkpt>
      <trkpt lat="44.71364" lon="7.05887">
        <ele>2763.2</ele>
        <time>2026-09-03T10:19:49Z</time>
      </trkpt>
      <trkpt lat="44.71363" lon="7.05879">
        <ele>2762.8</ele>
        <time>2026-09-03T10:19:54Z</time>
      </trkpt>
      <trkpt lat="44.7136" lon="7.05877">
        <ele>2761.4</ele>
        <time>2026-09-03T10:20:00Z</time>
      </trkpt>
      <trkpt lat="44.71357" lon="7.05875">
        <ele>2760</ele>
        <time>2026-09-03T10:20:05Z</time>
      </trkpt>
      <trkpt lat="44.71356" lon="7.0587">
        <ele>2759.6</ele>
        <time>2026-09-03T10:20:10Z</time>
      </trkpt>
      <trkpt lat="44.71354" lon="7.05865">
        <ele>2758.6</ele>
        <time>2026-09-03T10:20:16Z</time>
      </trkpt>
      <trkpt lat="44.71355" lon="7.05861">
        <ele>2759.2</ele>
        <time>2026-09-03T10:20:21Z</time>
      </trkpt>
      <trkpt lat="44.71355" lon="7.05858">
        <ele>2759.2</ele>
        <time>2026-09-03T10:20:26Z</time>
      </trkpt>
      <trkpt lat="44.71355" lon="7.05856">
        <ele>2759.2</ele>
        <time>2026-09-03T10:20:32Z</time>
      </trkpt>
      <trkpt lat="44.71355" lon="7.05856">
        <ele>2759.2</ele>
        <time>2026-09-03T10:20:37Z</time>
      </trkpt>
      <trkpt lat="44.71355" lon="7.05856">
        <ele>2759.2</ele>
        <time>2026-09-03T10:20:42Z</time>
      </trkpt>
      <trkpt lat="44.71355" lon="7.05856">
        <ele>2759.2</ele>
        <time>2026-09-03T10:20:48Z</time>
      </trkpt>
      <trkpt lat="44.71355" lon="7.05856">
        <ele>2759.2</ele>
        <time>2026-09-03T10:20:53Z</time>
      </trkpt>
      <trkpt lat="44.71355" lon="7.05856">
        <ele>2759.2</ele>
        <time>2026-09-03T10:20:58Z</time>
      </trkpt>
      <trkpt lat="44.71349" lon="7.05859">
        <ele>2756.2</ele>
        <time>2026-09-03T10:21:04Z</time>
      </trkpt>
      <trkpt lat="44.71345" lon="7.05857">
        <ele>2754.2</ele>
        <time>2026-09-03T10:21:09Z</time>
      </trkpt>
      <trkpt lat="44.71344" lon="7.05855">
        <ele>2753.7</ele>
        <time>2026-09-03T10:21:14Z</time>
      </trkpt>
      <trkpt lat="44.71342" lon="7.05853">
        <ele>2752.6</ele>
        <time>2026-09-03T10:21:20Z</time>
      </trkpt>
      <trkpt lat="44.7134" lon="7.05852">
        <ele>2751.6</ele>
        <time>2026-09-03T10:21:25Z</time>
      </trkpt>
      <trkpt lat="44.71337" lon="7.05852">
        <ele>2750.1</ele>
        <time>2026-09-03T10:21:30Z</time>
      </trkpt>
      <trkpt lat="44.71332" lon="7.05851">
        <ele>2747.6</ele>
        <time>2026-09-03T10:21:36Z</time>
      </trkpt>
      <trkpt lat="44.71327" lon="7.05852">
        <ele>2745.5</ele>
        <time>2026-09-03T10:21:41Z</time>
      </trkpt>
      <trkpt lat="44.71323" lon="7.05853">
        <ele>2743.9</ele>
        <time>2026-09-03T10:21:46Z</time>
      </trkpt>
      <trkpt lat="44.71319" lon="7.05854">
        <ele>2742.2</ele>
        <time>2026-09-03T10:21:52Z</time>
      </trkpt>
      <trkpt lat="44.71317" lon="7.05852">
        <ele>2741.3</ele>
        <time>2026-09-03T10:21:57Z</time>
      </trkpt>
      <trkpt lat="44.71314" lon="7.0585">
        <ele>2739.9</ele>
        <time>2026-09-03T10:22:02Z</time>
      </trkpt>
      <trkpt lat="44.71311" lon="7.0585">
        <ele>2738.7</ele>
        <time>2026-09-03T10:22:08Z</time>
      </trkpt>
      <trkpt lat="44.71309" lon="7.0585">
        <ele>2737.8</ele>
        <time>2026-09-03T10:22:13Z</time>
      </trkpt>
      <trkpt lat="44.71305" lon="7.05851">
        <ele>2736.2</ele>
        <time>2026-09-03T10:22:18Z</time>
      </trkpt>
      <trkpt lat="44.713" lon="7.05849">
        <ele>2733.9</ele>
        <time>2026-09-03T10:22:24Z</time>
      </trkpt>
      <trkpt lat="44.71299" lon="7.05852">
        <ele>2733.7</ele>
        <time>2026-09-03T10:22:29Z</time>
      </trkpt>
      <trkpt lat="44.71299" lon="7.05859">
        <ele>2734.2</ele>
        <time>2026-09-03T10:22:34Z</time>
      </trkpt>
      <trkpt lat="44.71302" lon="7.05867">
        <ele>2735.9</ele>
        <time>2026-09-03T10:22:40Z</time>
      </trkpt>
      <trkpt lat="44.71305" lon="7.05876">
        <ele>2737.7</ele>
        <time>2026-09-03T10:22:45Z</time>
      </trkpt>
      <trkpt lat="44.71307" lon="7.05879">
        <ele>2738.6</ele>
        <time>2026-09-03T10:22:50Z</time>
      </trkpt>
      <trkpt lat="44.71306" lon="7.05885">
        <ele>2738.6</ele>
        <time>2026-09-03T10:22:56Z</time>
      </trkpt>
      <trkpt lat="44.71303" lon="7.0589">
        <ele>2737.8</ele>
        <time>2026-09-03T10:23:01Z</time>
      </trkpt>
      <trkpt lat="44.71303" lon="7.05894">
        <ele>2738.1</ele>
        <time>2026-09-03T10:23:06Z</time>
      </trkpt>
      <trkpt lat="44.71304" lon="7.05902">
        <ele>2738.9</ele>
        <time>2026-09-03T10:23:12Z</time>
      </trkpt>
      <trkpt lat="44.71301" lon="7.05904">
        <ele>2738.1</ele>
        <time>2026-09-03T10:23:17Z</time>
      </trkpt>
      <trkpt lat="44.71298" lon="7.05901">
        <ele>2736.8</ele>
        <time>2026-09-03T10:23:22Z</time>
      </trkpt>
      <trkpt lat="44.71294" lon="7.059">
        <ele>2735.4</ele>
        <time>2026-09-03T10:23:28Z</time>
      </trkpt>
      <trkpt lat="44.7129" lon="7.059">
        <ele>2734</ele>
        <time>2026-09-03T10:23:33Z</time>
      </trkpt>
      <trkpt lat="44.71287" lon="7.05899">
        <ele>2732.9</ele>
        <time>2026-09-03T10:23:38Z</time>
      </trkpt>
      <trkpt lat="44.71284" lon="7.05896">
        <ele>2731.6</ele>
        <time>2026-09-03T10:23:44Z</time>
      </trkpt>
      <trkpt lat="44.7128" lon="7.05897">
        <ele>2730.3</ele>
        <time>2026-09-03T10:23:49Z</time>
      </trkpt>
      <trkpt lat="44.71278" lon="7.05895">
        <ele>2729.4</ele>
        <time>2026-09-03T10:23:54Z</time>
      </trkpt>
      <trkpt lat="44.71274" lon="7.05894">
        <ele>2727.9</ele>
        <time>2026-09-03T10:24:00Z</time>
      </trkpt>
      <trkpt lat="44.71271" lon="7.05896">
        <ele>2727.1</ele>
        <time>2026-09-03T10:24:05Z</time>
      </trkpt>
      <trkpt lat="44.71271" lon="7.05901">
        <ele>2727.7</ele>
        <time>2026-09-03T10:24:10Z</time>
      </trkpt>
      <trkpt lat="44.71268" lon="7.05908">
        <ele>2727.5</ele>
        <time>2026-09-03T10:24:16Z</time>
      </trkpt>
      <trkpt lat="44.71261" lon="7.05908">
        <ele>2725.2</ele>
        <time>2026-09-03T10:24:21Z</time>
      </trkpt>
      <trkpt lat="44.71255" lon="7.05909">
        <ele>2723.4</ele>
        <time>2026-09-03T10:24:26Z</time>
      </trkpt>
      <trkpt lat="44.71252" lon="7.05908">
        <ele>2722.3</ele>
        <time>2026-09-03T10:24:32Z</time>
      </trkpt>
      <trkpt lat="44.71248" lon="7.05908">
        <ele>2721.1</ele>
        <time>2026-09-03T10:24:37Z</time>
      </trkpt>
      <trkpt lat="44.71245" lon="7.05912">
        <ele>2720.9</ele>
        <time>2026-09-03T10:24:42Z</time>
      </trkpt>
      <trkpt lat="44.71242" lon="7.05915">
        <ele>2720.5</ele>
        <time>2026-09-03T10:24:48Z</time>
      </trkpt>
      <trkpt lat="44.71241" lon="7.05912">
        <ele>2719.8</ele>
        <time>2026-09-03T10:24:53Z</time>
      </trkpt>
      <trkpt lat="44.7124" lon="7.05911">
        <ele>2719.3</ele>
        <time>2026-09-03T10:24:58Z</time>
      </trkpt>
      <trkpt lat="44.71234" lon="7.05913">
        <ele>2718</ele>
        <time>2026-09-03T10:25:04Z</time>
      </trkpt>
      <trkpt lat="44.71231" lon="7.05916">
        <ele>2717.6</ele>
        <time>2026-09-03T10:25:09Z</time>
      </trkpt>
      <trkpt lat="44.71227" lon="7.05916">
        <ele>2716.5</ele>
        <time>2026-09-03T10:25:14Z</time>
      </trkpt>
      <trkpt lat="44.71223" lon="7.05918">
        <ele>2715.9</ele>
        <time>2026-09-03T10:25:20Z</time>
      </trkpt>
      <trkpt lat="44.71221" lon="7.05918">
        <ele>2715.4</ele>
        <time>2026-09-03T10:25:25Z</time>
      </trkpt>
      <trkpt lat="44.71219" lon="7.05923">
        <ele>2716.2</ele>
        <time>2026-09-03T10:25:30Z</time>
      </trkpt>
      <trkpt lat="44.71216" lon="7.05925">
        <ele>2716</ele>
        <time>2026-09-03T10:25:36Z</time>
      </trkpt>
      <trkpt lat="44.71213" lon="7.05925">
        <ele>2715.2</ele>
        <time>2026-09-03T10:25:41Z</time>
      </trkpt>
      <trkpt lat="44.7121" lon="7.05924">
        <ele>2714.1</ele>
        <time>2026-09-03T10:25:46Z</time>
      </trkpt>
      <trkpt lat="44.71208" lon="7.05922">
        <ele>2713</ele>
        <time>2026-09-03T10:25:52Z</time>
      </trkpt>
      <trkpt lat="44.71207" lon="7.05922">
        <ele>2712.7</ele>
        <time>2026-09-03T10:25:57Z</time>
      </trkpt>
      <trkpt lat="44.71207" lon="7.05921">
        <ele>2712.4</ele>
        <time>2026-09-03T10:26:02Z</time>
      </trkpt>
      <trkpt lat="44.71207" lon="7.05921">
        <ele>2712.4</ele>
        <time>2026-09-03T10:26:08Z</time>
      </trkpt>
      <trkpt lat="44.71201" lon="7.05919">
        <ele>2710.2</ele>
        <time>2026-09-03T10:26:13Z</time>
      </trkpt>
      <trkpt lat="44.71198" lon="7.05922">
        <ele>2710.3</ele>
        <time>2026-09-03T10:26:18Z</time>
      </trkpt>
      <trkpt lat="44.71197" lon="7.05928">
        <ele>2712</ele>
        <time>2026-09-03T10:26:24Z</time>
      </trkpt>
      <trkpt lat="44.71194" lon="7.05931">
        <ele>2712.1</ele>
        <time>2026-09-03T10:26:29Z</time>
      </trkpt>
      <trkpt lat="44.71191" lon="7.0593">
        <ele>2711</ele>
        <time>2026-09-03T10:26:34Z</time>
      </trkpt>
      <trkpt lat="44.71189" lon="7.05932">
        <ele>2711.2</ele>
        <time>2026-09-03T10:26:40Z</time>
      </trkpt>
      <trkpt lat="44.71188" lon="7.05932">
        <ele>2710.9</ele>
        <time>2026-09-03T10:26:45Z</time>
      </trkpt>
      <trkpt lat="44.71188" lon="7.05932">
        <ele>2710.9</ele>
        <time>2026-09-03T10:26:50Z</time>
      </trkpt>
      <trkpt lat="44.71188" lon="7.05932">
        <ele>2710.9</ele>
        <time>2026-09-03T10:26:56Z</time>
      </trkpt>
      <trkpt lat="44.71188" lon="7.05932">
        <ele>2710.9</ele>
        <time>2026-09-03T10:27:01Z</time>
      </trkpt>
      <trkpt lat="44.71188" lon="7.05932">
        <ele>2710.9</ele>
        <time>2026-09-03T10:27:06Z</time>
      </trkpt>
      <trkpt lat="44.71188" lon="7.05932">
        <ele>2710.9</ele>
        <time>2026-09-03T10:27:12Z</time>
      </trkpt>
      <trkpt lat="44.71188" lon="7.05932">
        <ele>2710.9</ele>
        <time>2026-09-03T10:27:17Z</time>
      </trkpt>
      <trkpt lat="44.71188" lon="7.05932">
        <ele>2710.9</ele>
        <time>2026-09-03T10:27:22Z</time>
      </trkpt>
      <trkpt lat="44.71188" lon="7.05932">
        <ele>2710.9</ele>
        <time>2026-09-03T10:27:28Z</time>
      </trkpt>
      <trkpt lat="44.71188" lon="7.05932">
        <ele>2710.9</ele>
        <time>2026-09-03T10:27:33Z</time>
      </trkpt>
      <trkpt lat="44.71188" lon="7.05932">
        <ele>2710.9</ele>
        <time>2026-09-03T10:27:38Z</time>
      </trkpt>
      <trkpt lat="44.71188" lon="7.05932">
        <ele>2710.9</ele>
        <time>2026-09-03T10:27:44Z</time>
      </trkpt>
      <trkpt lat="44.71188" lon="7.05932">
        <ele>2710.9</ele>
        <time>2026-09-03T10:27:49Z</time>
      </trkpt>
      <trkpt lat="44.71188" lon="7.05932">
        <ele>2710.9</ele>
        <time>2026-09-03T10:27:54Z</time>
      </trkpt>
      <trkpt lat="44.71188" lon="7.05932">
        <ele>2710.9</ele>
        <time>2026-09-03T10:28:00Z</time>
      </trkpt>
      <trkpt lat="44.71188" lon="7.05932">
        <ele>2710.9</ele>
        <time>2026-09-03T10:28:05Z</time>
      </trkpt>
      <trkpt lat="44.71188" lon="7.05932">
        <ele>2710.9</ele>
        <time>2026-09-03T10:28:10Z</time>
      </trkpt>
      <trkpt lat="44.71188" lon="7.05932">
        <ele>2710.9</ele>
        <time>2026-09-03T10:28:16Z</time>
      </trkpt>
      <trkpt lat="44.71188" lon="7.05932">
        <ele>2710.9</ele>
        <time>2026-09-03T10:28:21Z</time>
      </trkpt>
      <trkpt lat="44.71188" lon="7.05932">
        <ele>2710.9</ele>
        <time>2026-09-03T10:28:26Z</time>
      </trkpt>
      <trkpt lat="44.71188" lon="7.05932">
        <ele>2710.9</ele>
        <time>2026-09-03T10:28:32Z</time>
      </trkpt>
      <trkpt lat="44.71188" lon="7.05932">
        <ele>2710.9</ele>
        <time>2026-09-03T10:28:37Z</time>
      </trkpt>
      <trkpt lat="44.71188" lon="7.05932">
        <ele>2710.9</ele>
        <time>2026-09-03T10:28:42Z</time>
      </trkpt>
      <trkpt lat="44.71188" lon="7.05932">
        <ele>2710.9</ele>
        <time>2026-09-03T10:28:48Z</time>
      </trkpt>
      <trkpt lat="44.71188" lon="7.05932">
        <ele>2710.9</ele>
        <time>2026-09-03T10:28:53Z</time>
      </trkpt>
      <trkpt lat="44.71188" lon="7.05932">
        <ele>2710.9</ele>
        <time>2026-09-03T10:28:58Z</time>
      </trkpt>
      <trkpt lat="44.71188" lon="7.05932">
        <ele>2710.9</ele>
        <time>2026-09-03T10:29:04Z</time>
      </trkpt>
      <trkpt lat="44.71188" lon="7.05932">
        <ele>2710.9</ele>
        <time>2026-09-03T10:29:09Z</time>
      </trkpt>
      <trkpt lat="44.71188" lon="7.05932">
        <ele>2710.9</ele>
        <time>2026-09-03T10:29:14Z</time>
      </trkpt>
      <trkpt lat="44.71188" lon="7.05932">
        <ele>2710.9</ele>
        <time>2026-09-03T10:29:20Z</time>
      </trkpt>
      <trkpt lat="44.71188" lon="7.05932">
        <ele>2710.9</ele>
        <time>2026-09-03T10:29:25Z</time>
      </trkpt>
      <trkpt lat="44.71188" lon="7.05932">
        <ele>2710.9</ele>
        <time>2026-09-03T10:29:30Z</time>
      </trkpt>
      <trkpt lat="44.71188" lon="7.05932">
        <ele>2710.9</ele>
        <time>2026-09-03T10:29:36Z</time>
      </trkpt>
      <trkpt lat="44.71188" lon="7.05932">
        <ele>2710.9</ele>
        <time>2026-09-03T10:29:41Z</time>
      </trkpt>
      <trkpt lat="44.71188" lon="7.05932">
        <ele>2710.9</ele>
        <time>2026-09-03T10:29:46Z</time>
      </trkpt>
      <trkpt lat="44.71188" lon="7.05932">
        <ele>2710.9</ele>
        <time>2026-09-03T10:29:52Z</time>
      </trkpt>
      <trkpt lat="44.71185" lon="7.05933">
        <ele>2710.5</ele>
        <time>2026-09-03T10:29:57Z</time>
      </trkpt>
      <trkpt lat="44.71183" lon="7.05931">
        <ele>2709.3</ele>
        <time>2026-09-03T10:30:02Z</time>
      </trkpt>
      <trkpt lat="44.71182" lon="7.05929">
        <ele>2708.4</ele>
        <time>2026-09-03T10:30:08Z</time>
      </trkpt>
      <trkpt lat="44.71181" lon="7.0593">
        <ele>2708.5</ele>
        <time>2026-09-03T10:30:13Z</time>
      </trkpt>
      <trkpt lat="44.71178" lon="7.05928">
        <ele>2707</ele>
        <time>2026-09-03T10:30:18Z</time>
      </trkpt>
      <trkpt lat="44.71178" lon="7.05928">
        <ele>2707</ele>
        <time>2026-09-03T10:30:24Z</time>
      </trkpt>
      <trkpt lat="44.71178" lon="7.05928">
        <ele>2707</ele>
        <time>2026-09-03T10:30:29Z</time>
      </trkpt>
      <trkpt lat="44.71178" lon="7.05928">
        <ele>2707</ele>
        <time>2026-09-03T10:30:34Z</time>
      </trkpt>
      <trkpt lat="44.71178" lon="7.05928">
        <ele>2707</ele>
        <time>2026-09-03T10:30:40Z</time>
      </trkpt>
      <trkpt lat="44.71178" lon="7.05928">
        <ele>2707</ele>
        <time>2026-09-03T10:30:45Z</time>
      </trkpt>
      <trkpt lat="44.71178" lon="7.05928">
        <ele>2707</ele>
        <time>2026-09-03T10:30:50Z</time>
      </trkpt>
      <trkpt lat="44.71178" lon="7.05928">
        <ele>2707</ele>
        <time>2026-09-03T10:30:56Z</time>
      </trkpt>
      <trkpt lat="44.71178" lon="7.05928">
        <ele>2707</ele>
        <time>2026-09-03T10:31:01Z</time>
      </trkpt>
      <trkpt lat="44.71178" lon="7.05928">
        <ele>2707</ele>
        <time>2026-09-03T10:31:06Z</time>
      </trkpt>
      <trkpt lat="44.71178" lon="7.05928">
        <ele>2707</ele>
        <time>2026-09-03T10:31:12Z</time>
      </trkpt>
      <trkpt lat="44.71178" lon="7.05928">
        <ele>2707</ele>
        <time>2026-09-03T10:31:17Z</time>
      </trkpt>
      <trkpt lat="44.71178" lon="7.05928">
        <ele>2707</ele>
        <time>2026-09-03T10:31:22Z</time>
      </trkpt>
      <trkpt lat="44.71178" lon="7.05928">
        <ele>2707</ele>
        <time>2026-09-03T10:31:28Z</time>
      </trkpt>
      <trkpt lat="44.71178" lon="7.05928">
        <ele>2707</ele>
        <time>2026-09-03T10:31:33Z</time>
      </trkpt>
      <trkpt lat="44.71178" lon="7.05928">
        <ele>2707</ele>
        <time>2026-09-03T10:31:38Z</time>
      </trkpt>
      <trkpt lat="44.71178" lon="7.05928">
        <ele>2707</ele>
        <time>2026-09-03T10:31:44Z</time>
      </trkpt>
      <trkpt lat="44.71178" lon="7.05928">
        <ele>2707</ele>
        <time>2026-09-03T10:31:49Z</time>
      </trkpt>
      <trkpt lat="44.71176" lon="7.05927">
        <ele>2706.2</ele>
        <time>2026-09-03T10:31:54Z</time>
      </trkpt>
      <trkpt lat="44.71176" lon="7.05927">
        <ele>2706.2</ele>
        <time>2026-09-03T10:32:00Z</time>
      </trkpt>
      <trkpt lat="44.71176" lon="7.05927">
        <ele>2706.2</ele>
        <time>2026-09-03T10:32:05Z</time>
      </trkpt>
      <trkpt lat="44.71176" lon="7.05927">
        <ele>2706.2</ele>
        <time>2026-09-03T10:32:10Z</time>
      </trkpt>
      <trkpt lat="44.71172" lon="7.05929">
        <ele>2705.8</ele>
        <time>2026-09-03T10:32:16Z</time>
      </trkpt>
      <trkpt lat="44.71171" lon="7.05926">
        <ele>2704.5</ele>
        <time>2026-09-03T10:32:21Z</time>
      </trkpt>
      <trkpt lat="44.71169" lon="7.05923">
        <ele>2702.9</ele>
        <time>2026-09-03T10:32:26Z</time>
      </trkpt>
      <trkpt lat="44.71165" lon="7.05921">
        <ele>2701.6</ele>
        <time>2026-09-03T10:32:32Z</time>
      </trkpt>
      <trkpt lat="44.71162" lon="7.05919">
        <ele>2701</ele>
        <time>2026-09-03T10:32:37Z</time>
      </trkpt>
      <trkpt lat="44.71162" lon="7.05916">
        <ele>2700</ele>
        <time>2026-09-03T10:32:42Z</time>
      </trkpt>
      <trkpt lat="44.71162" lon="7.05913">
        <ele>2699.4</ele>
        <time>2026-09-03T10:32:48Z</time>
      </trkpt>
      <trkpt lat="44.71162" lon="7.0591">
        <ele>2698.9</ele>
        <time>2026-09-03T10:32:53Z</time>
      </trkpt>
      <trkpt lat="44.71163" lon="7.05905">
        <ele>2697.9</ele>
        <time>2026-09-03T10:32:58Z</time>
      </trkpt>
      <trkpt lat="44.71161" lon="7.05902">
        <ele>2697.4</ele>
        <time>2026-09-03T10:33:04Z</time>
      </trkpt>
      <trkpt lat="44.71162" lon="7.05897">
        <ele>2696.4</ele>
        <time>2026-09-03T10:33:09Z</time>
      </trkpt>
      <trkpt lat="44.71162" lon="7.05892">
        <ele>2695.5</ele>
        <time>2026-09-03T10:33:14Z</time>
      </trkpt>
      <trkpt lat="44.71163" lon="7.05887">
        <ele>2694.6</ele>
        <time>2026-09-03T10:33:20Z</time>
      </trkpt>
      <trkpt lat="44.71162" lon="7.05884">
        <ele>2694</ele>
        <time>2026-09-03T10:33:25Z</time>
      </trkpt>
      <trkpt lat="44.71163" lon="7.05878">
        <ele>2692.9</ele>
        <time>2026-09-03T10:33:30Z</time>
      </trkpt>
      <trkpt lat="44.71163" lon="7.05874">
        <ele>2692.1</ele>
        <time>2026-09-03T10:33:36Z</time>
      </trkpt>
      <trkpt lat="44.71164" lon="7.05871">
        <ele>2691.6</ele>
        <time>2026-09-03T10:33:41Z</time>
      </trkpt>
      <trkpt lat="44.71163" lon="7.05871">
        <ele>2691.6</ele>
        <time>2026-09-03T10:33:46Z</time>
      </trkpt>
      <trkpt lat="44.71164" lon="7.05865">
        <ele>2690.5</ele>
        <time>2026-09-03T10:33:52Z</time>
      </trkpt>
      <trkpt lat="44.71164" lon="7.05864">
        <ele>2690.3</ele>
        <time>2026-09-03T10:33:57Z</time>
      </trkpt>
      <trkpt lat="44.71164" lon="7.05864">
        <ele>2690.3</ele>
        <time>2026-09-03T10:34:02Z</time>
      </trkpt>
      <trkpt lat="44.71164" lon="7.05864">
        <ele>2690.3</ele>
        <time>2026-09-03T10:34:08Z</time>
      </trkpt>
      <trkpt lat="44.71164" lon="7.05864">
        <ele>2690.3</ele>
        <time>2026-09-03T10:34:13Z</time>
      </trkpt>
      <trkpt lat="44.71163" lon="7.05865">
        <ele>2690.5</ele>
        <time>2026-09-03T10:34:18Z</time>
      </trkpt>
      <trkpt lat="44.7116" lon="7.05864">
        <ele>2690.1</ele>
        <time>2026-09-03T10:34:24Z</time>
      </trkpt>
      <trkpt lat="44.71157" lon="7.05866">
        <ele>2690.3</ele>
        <time>2026-09-03T10:34:29Z</time>
      </trkpt>
      <trkpt lat="44.71154" lon="7.05864">
        <ele>2689.7</ele>
        <time>2026-09-03T10:34:34Z</time>
      </trkpt>
      <trkpt lat="44.71152" lon="7.05864">
        <ele>2689.5</ele>
        <time>2026-09-03T10:34:40Z</time>
      </trkpt>
      <trkpt lat="44.7115" lon="7.05864">
        <ele>2689.4</ele>
        <time>2026-09-03T10:34:45Z</time>
      </trkpt>
      <trkpt lat="44.71147" lon="7.05864">
        <ele>2689.2</ele>
        <time>2026-09-03T10:34:50Z</time>
      </trkpt>
      <trkpt lat="44.71146" lon="7.05863">
        <ele>2688.9</ele>
        <time>2026-09-03T10:34:56Z</time>
      </trkpt>
      <trkpt lat="44.71146" lon="7.05859">
        <ele>2688.1</ele>
        <time>2026-09-03T10:35:01Z</time>
      </trkpt>
      <trkpt lat="44.71143" lon="7.0586">
        <ele>2688.1</ele>
        <time>2026-09-03T10:35:06Z</time>
      </trkpt>
      <trkpt lat="44.71139" lon="7.05861">
        <ele>2688</ele>
        <time>2026-09-03T10:35:12Z</time>
      </trkpt>
      <trkpt lat="44.71135" lon="7.0586">
        <ele>2687.5</ele>
        <time>2026-09-03T10:35:17Z</time>
      </trkpt>
      <trkpt lat="44.71133" lon="7.05858">
        <ele>2686.8</ele>
        <time>2026-09-03T10:35:22Z</time>
      </trkpt>
      <trkpt lat="44.71129" lon="7.05859">
        <ele>2686.8</ele>
        <time>2026-09-03T10:35:28Z</time>
      </trkpt>
      <trkpt lat="44.71127" lon="7.0586">
        <ele>2686.9</ele>
        <time>2026-09-03T10:35:33Z</time>
      </trkpt>
      <trkpt lat="44.71125" lon="7.0586">
        <ele>2686.7</ele>
        <time>2026-09-03T10:35:38Z</time>
      </trkpt>
      <trkpt lat="44.71125" lon="7.0586">
        <ele>2686.7</ele>
        <time>2026-09-03T10:35:44Z</time>
      </trkpt>
      <trkpt lat="44.71125" lon="7.0586">
        <ele>2686.7</ele>
        <time>2026-09-03T10:35:49Z</time>
      </trkpt>
      <trkpt lat="44.71121" lon="7.05858">
        <ele>2685.9</ele>
        <time>2026-09-03T10:35:54Z</time>
      </trkpt>
      <trkpt lat="44.71118" lon="7.05861">
        <ele>2686.5</ele>
        <time>2026-09-03T10:36:00Z</time>
      </trkpt>
      <trkpt lat="44.71116" lon="7.05863">
        <ele>2686.9</ele>
        <time>2026-09-03T10:36:05Z</time>
      </trkpt>
      <trkpt lat="44.71112" lon="7.05861">
        <ele>2686</ele>
        <time>2026-09-03T10:36:10Z</time>
      </trkpt>
      <trkpt lat="44.71111" lon="7.05853">
        <ele>2683.8</ele>
        <time>2026-09-03T10:36:16Z</time>
      </trkpt>
      <trkpt lat="44.71111" lon="7.05849">
        <ele>2682.6</ele>
        <time>2026-09-03T10:36:21Z</time>
      </trkpt>
      <trkpt lat="44.71111" lon="7.05845">
        <ele>2681.5</ele>
        <time>2026-09-03T10:36:26Z</time>
      </trkpt>
      <trkpt lat="44.71112" lon="7.0584">
        <ele>2680.3</ele>
        <time>2026-09-03T10:36:32Z</time>
      </trkpt>
      <trkpt lat="44.71113" lon="7.05838">
        <ele>2679.8</ele>
        <time>2026-09-03T10:36:37Z</time>
      </trkpt>
      <trkpt lat="44.71114" lon="7.05834">
        <ele>2678.9</ele>
        <time>2026-09-03T10:36:42Z</time>
      </trkpt>
      <trkpt lat="44.71115" lon="7.05829">
        <ele>2677.9</ele>
        <time>2026-09-03T10:36:48Z</time>
      </trkpt>
      <trkpt lat="44.71114" lon="7.05825">
        <ele>2677</ele>
        <time>2026-09-03T10:36:53Z</time>
      </trkpt>
      <trkpt lat="44.71113" lon="7.0582">
        <ele>2675.9</ele>
        <time>2026-09-03T10:36:58Z</time>
      </trkpt>
      <trkpt lat="44.71111" lon="7.05817">
        <ele>2675</ele>
        <time>2026-09-03T10:37:04Z</time>
      </trkpt>
      <trkpt lat="44.71109" lon="7.05816">
        <ele>2674.5</ele>
        <time>2026-09-03T10:37:09Z</time>
      </trkpt>
      <trkpt lat="44.71107" lon="7.05816">
        <ele>2674.3</ele>
        <time>2026-09-03T10:37:14Z</time>
      </trkpt>
      <trkpt lat="44.71104" lon="7.05817">
        <ele>2674.1</ele>
        <time>2026-09-03T10:37:20Z</time>
      </trkpt>
      <trkpt lat="44.71102" lon="7.05818">
        <ele>2674.1</ele>
        <time>2026-09-03T10:37:25Z</time>
      </trkpt>
      <trkpt lat="44.711" lon="7.05816">
        <ele>2673.4</ele>
        <time>2026-09-03T10:37:30Z</time>
      </trkpt>
      <trkpt lat="44.71098" lon="7.05814">
        <ele>2672.7</ele>
        <time>2026-09-03T10:37:36Z</time>
      </trkpt>
      <trkpt lat="44.71094" lon="7.05813">
        <ele>2672</ele>
        <time>2026-09-03T10:37:41Z</time>
      </trkpt>
      <trkpt lat="44.71091" lon="7.05811">
        <ele>2671.2</ele>
        <time>2026-09-03T10:37:46Z</time>
      </trkpt>
      <trkpt lat="44.7109" lon="7.05804">
        <ele>2669.5</ele>
        <time>2026-09-03T10:37:52Z</time>
      </trkpt>
      <trkpt lat="44.7109" lon="7.05798">
        <ele>2668.3</ele>
        <time>2026-09-03T10:37:57Z</time>
      </trkpt>
      <trkpt lat="44.71087" lon="7.05797">
        <ele>2667.6</ele>
        <time>2026-09-03T10:38:02Z</time>
      </trkpt>
      <trkpt lat="44.71083" lon="7.05796">
        <ele>2666.9</ele>
        <time>2026-09-03T10:38:08Z</time>
      </trkpt>
      <trkpt lat="44.71081" lon="7.05795">
        <ele>2666.4</ele>
        <time>2026-09-03T10:38:13Z</time>
      </trkpt>
      <trkpt lat="44.7108" lon="7.05793">
        <ele>2665.9</ele>
        <time>2026-09-03T10:38:18Z</time>
      </trkpt>
      <trkpt lat="44.71075" lon="7.0579">
        <ele>2664.6</ele>
        <time>2026-09-03T10:38:24Z</time>
      </trkpt>
      <trkpt lat="44.71071" lon="7.05791">
        <ele>2664.3</ele>
        <time>2026-09-03T10:38:29Z</time>
      </trkpt>
      <trkpt lat="44.71066" lon="7.05791">
        <ele>2663.7</ele>
        <time>2026-09-03T10:38:34Z</time>
      </trkpt>
      <trkpt lat="44.7106" lon="7.0579">
        <ele>2662.6</ele>
        <time>2026-09-03T10:38:40Z</time>
      </trkpt>
      <trkpt lat="44.71055" lon="7.0579">
        <ele>2662</ele>
        <time>2026-09-03T10:38:45Z</time>
      </trkpt>
      <trkpt lat="44.7105" lon="7.0579">
        <ele>2661.4</ele>
        <time>2026-09-03T10:38:50Z</time>
      </trkpt>
      <trkpt lat="44.71046" lon="7.0579">
        <ele>2660.9</ele>
        <time>2026-09-03T10:38:56Z</time>
      </trkpt>
      <trkpt lat="44.71043" lon="7.0579">
        <ele>2660.5</ele>
        <time>2026-09-03T10:39:01Z</time>
      </trkpt>
      <trkpt lat="44.71041" lon="7.0579">
        <ele>2660.2</ele>
        <time>2026-09-03T10:39:06Z</time>
      </trkpt>
      <trkpt lat="44.71038" lon="7.05789">
        <ele>2659.6</ele>
        <time>2026-09-03T10:39:12Z</time>
      </trkpt>
      <trkpt lat="44.71038" lon="7.05789">
        <ele>2659.6</ele>
        <time>2026-09-03T10:39:17Z</time>
      </trkpt>
      <trkpt lat="44.71038" lon="7.05789">
        <ele>2659.6</ele>
        <time>2026-09-03T10:39:22Z</time>
      </trkpt>
      <trkpt lat="44.71038" lon="7.05789">
        <ele>2659.6</ele>
        <time>2026-09-03T10:39:28Z</time>
      </trkpt>
      <trkpt lat="44.71038" lon="7.05789">
        <ele>2659.6</ele>
        <time>2026-09-03T10:39:33Z</time>
      </trkpt>
      <trkpt lat="44.71038" lon="7.05789">
        <ele>2659.6</ele>
        <time>2026-09-03T10:39:38Z</time>
      </trkpt>
      <trkpt lat="44.71038" lon="7.05789">
        <ele>2659.6</ele>
        <time>2026-09-03T10:39:44Z</time>
      </trkpt>
      <trkpt lat="44.7103" lon="7.05777">
        <ele>2655.1</ele>
        <time>2026-09-03T10:39:49Z</time>
      </trkpt>
      <trkpt lat="44.71027" lon="7.05779">
        <ele>2655.2</ele>
        <time>2026-09-03T10:39:54Z</time>
      </trkpt>
      <trkpt lat="44.71022" lon="7.0578">
        <ele>2654.8</ele>
        <time>2026-09-03T10:40:00Z</time>
      </trkpt>
      <trkpt lat="44.71018" lon="7.05779">
        <ele>2654</ele>
        <time>2026-09-03T10:40:05Z</time>
      </trkpt>
      <trkpt lat="44.71015" lon="7.05778">
        <ele>2653.2</ele>
        <time>2026-09-03T10:40:10Z</time>
      </trkpt>
      <trkpt lat="44.71011" lon="7.05779">
        <ele>2653</ele>
        <time>2026-09-03T10:40:16Z</time>
      </trkpt>
      <trkpt lat="44.71011" lon="7.05777">
        <ele>2652.3</ele>
        <time>2026-09-03T10:40:21Z</time>
      </trkpt>
      <trkpt lat="44.71009" lon="7.05774">
        <ele>2651.1</ele>
        <time>2026-09-03T10:40:26Z</time>
      </trkpt>
      <trkpt lat="44.71005" lon="7.05774">
        <ele>2650.5</ele>
        <time>2026-09-03T10:40:32Z</time>
      </trkpt>
      <trkpt lat="44.71004" lon="7.05772">
        <ele>2649.7</ele>
        <time>2026-09-03T10:40:37Z</time>
      </trkpt>
      <trkpt lat="44.71002" lon="7.05772">
        <ele>2649.4</ele>
        <time>2026-09-03T10:40:42Z</time>
      </trkpt>
      <trkpt lat="44.70995" lon="7.05768">
        <ele>2647.1</ele>
        <time>2026-09-03T10:40:48Z</time>
      </trkpt>
      <trkpt lat="44.70992" lon="7.05764">
        <ele>2645.4</ele>
        <time>2026-09-03T10:40:53Z</time>
      </trkpt>
      <trkpt lat="44.70989" lon="7.05762">
        <ele>2644.4</ele>
        <time>2026-09-03T10:40:58Z</time>
      </trkpt>
      <trkpt lat="44.70985" lon="7.05762">
        <ele>2643.9</ele>
        <time>2026-09-03T10:41:04Z</time>
      </trkpt>
      <trkpt lat="44.70982" lon="7.0576">
        <ele>2642.8</ele>
        <time>2026-09-03T10:41:09Z</time>
      </trkpt>
      <trkpt lat="44.70979" lon="7.05757">
        <ele>2641.5</ele>
        <time>2026-09-03T10:41:14Z</time>
      </trkpt>
      <trkpt lat="44.70978" lon="7.05759">
        <ele>2642</ele>
        <time>2026-09-03T10:41:20Z</time>
      </trkpt>
      <trkpt lat="44.70977" lon="7.0576">
        <ele>2642.1</ele>
        <time>2026-09-03T10:41:25Z</time>
      </trkpt>
      <trkpt lat="44.70973" lon="7.05759">
        <ele>2641.3</ele>
        <time>2026-09-03T10:41:30Z</time>
      </trkpt>
      <trkpt lat="44.7097" lon="7.05759">
        <ele>2640.9</ele>
        <time>2026-09-03T10:41:36Z</time>
      </trkpt>
      <trkpt lat="44.7097" lon="7.05759">
        <ele>2640.9</ele>
        <time>2026-09-03T10:41:41Z</time>
      </trkpt>
      <trkpt lat="44.7097" lon="7.05759">
        <ele>2640.9</ele>
        <time>2026-09-03T10:41:46Z</time>
      </trkpt>
      <trkpt lat="44.7097" lon="7.05759">
        <ele>2640.9</ele>
        <time>2026-09-03T10:41:52Z</time>
      </trkpt>
      <trkpt lat="44.7097" lon="7.05759">
        <ele>2640.9</ele>
        <time>2026-09-03T10:41:57Z</time>
      </trkpt>
      <trkpt lat="44.7097" lon="7.05759">
        <ele>2640.9</ele>
        <time>2026-09-03T10:42:02Z</time>
      </trkpt>
      <trkpt lat="44.7097" lon="7.05759">
        <ele>2640.9</ele>
        <time>2026-09-03T10:42:08Z</time>
      </trkpt>
      <trkpt lat="44.7097" lon="7.05759">
        <ele>2640.9</ele>
        <time>2026-09-03T10:42:13Z</time>
      </trkpt>
      <trkpt lat="44.7097" lon="7.05759">
        <ele>2640.9</ele>
        <time>2026-09-03T10:42:18Z</time>
      </trkpt>
      <trkpt lat="44.7097" lon="7.05759">
        <ele>2640.9</ele>
        <time>2026-09-03T10:42:24Z</time>
      </trkpt>
      <trkpt lat="44.7097" lon="7.05759">
        <ele>2640.9</ele>
        <time>2026-09-03T10:42:29Z</time>
      </trkpt>
      <trkpt lat="44.7097" lon="7.05759">
        <ele>2640.9</ele>
        <time>2026-09-03T10:42:34Z</time>
      </trkpt>
      <trkpt lat="44.7097" lon="7.05759">
        <ele>2640.9</ele>
        <time>2026-09-03T10:42:40Z</time>
      </trkpt>
      <trkpt lat="44.7097" lon="7.05759">
        <ele>2640.9</ele>
        <time>2026-09-03T10:42:45Z</time>
      </trkpt>
      <trkpt lat="44.7097" lon="7.05759">
        <ele>2640.9</ele>
        <time>2026-09-03T10:42:50Z</time>
      </trkpt>
      <trkpt lat="44.7097" lon="7.05759">
        <ele>2640.9</ele>
        <time>2026-09-03T10:42:56Z</time>
      </trkpt>
      <trkpt lat="44.7097" lon="7.05759">
        <ele>2640.9</ele>
        <time>2026-09-03T10:43:01Z</time>
      </trkpt>
      <trkpt lat="44.7097" lon="7.05759">
        <ele>2640.9</ele>
        <time>2026-09-03T10:43:06Z</time>
      </trkpt>
      <trkpt lat="44.7097" lon="7.05759">
        <ele>2640.9</ele>
        <time>2026-09-03T10:43:12Z</time>
      </trkpt>
      <trkpt lat="44.7097" lon="7.05759">
        <ele>2640.9</ele>
        <time>2026-09-03T10:43:17Z</time>
      </trkpt>
      <trkpt lat="44.7097" lon="7.05759">
        <ele>2640.9</ele>
        <time>2026-09-03T10:43:22Z</time>
      </trkpt>
      <trkpt lat="44.7097" lon="7.05759">
        <ele>2640.9</ele>
        <time>2026-09-03T10:43:28Z</time>
      </trkpt>
      <trkpt lat="44.7097" lon="7.05759">
        <ele>2640.9</ele>
        <time>2026-09-03T10:43:33Z</time>
      </trkpt>
      <trkpt lat="44.7097" lon="7.05759">
        <ele>2640.9</ele>
        <time>2026-09-03T10:43:38Z</time>
      </trkpt>
      <trkpt lat="44.7097" lon="7.05759">
        <ele>2640.9</ele>
        <time>2026-09-03T10:43:44Z</time>
      </trkpt>
      <trkpt lat="44.7097" lon="7.05759">
        <ele>2640.9</ele>
        <time>2026-09-03T10:43:49Z</time>
      </trkpt>
      <trkpt lat="44.7097" lon="7.05759">
        <ele>2640.9</ele>
        <time>2026-09-03T10:43:54Z</time>
      </trkpt>
      <trkpt lat="44.7097" lon="7.05759">
        <ele>2640.9</ele>
        <time>2026-09-03T10:44:00Z</time>
      </trkpt>
      <trkpt lat="44.7097" lon="7.05759">
        <ele>2640.9</ele>
        <time>2026-09-03T10:44:05Z</time>
      </trkpt>
      <trkpt lat="44.7097" lon="7.05759">
        <ele>2640.9</ele>
        <time>2026-09-03T10:44:10Z</time>
      </trkpt>
      <trkpt lat="44.7097" lon="7.05759">
        <ele>2640.9</ele>
        <time>2026-09-03T10:44:16Z</time>
      </trkpt>
      <trkpt lat="44.7097" lon="7.05759">
        <ele>2640.9</ele>
        <time>2026-09-03T10:44:21Z</time>
      </trkpt>
      <trkpt lat="44.7097" lon="7.05759">
        <ele>2640.9</ele>
        <time>2026-09-03T10:44:26Z</time>
      </trkpt>
      <trkpt lat="44.7097" lon="7.05759">
        <ele>2640.9</ele>
        <time>2026-09-03T10:44:32Z</time>
      </trkpt>
      <trkpt lat="44.7097" lon="7.05759">
        <ele>2640.9</ele>
        <time>2026-09-03T10:44:37Z</time>
      </trkpt>
      <trkpt lat="44.7097" lon="7.05759">
        <ele>2640.9</ele>
        <time>2026-09-03T10:44:42Z</time>
      </trkpt>
      <trkpt lat="44.7097" lon="7.05759">
        <ele>2640.9</ele>
        <time>2026-09-03T10:44:48Z</time>
      </trkpt>
      <trkpt lat="44.7097" lon="7.05759">
        <ele>2640.9</ele>
        <time>2026-09-03T10:44:53Z</time>
      </trkpt>
      <trkpt lat="44.7097" lon="7.05759">
        <ele>2640.9</ele>
        <time>2026-09-03T10:44:58Z</time>
      </trkpt>
      <trkpt lat="44.7097" lon="7.05759">
        <ele>2640.9</ele>
        <time>2026-09-03T10:45:04Z</time>
      </trkpt>
      <trkpt lat="44.7097" lon="7.05759">
        <ele>2640.9</ele>
        <time>2026-09-03T10:45:09Z</time>
      </trkpt>
      <trkpt lat="44.7097" lon="7.05759">
        <ele>2640.9</ele>
        <time>2026-09-03T10:45:14Z</time>
      </trkpt>
      <trkpt lat="44.7097" lon="7.05759">
        <ele>2640.9</ele>
        <time>2026-09-03T10:45:20Z</time>
      </trkpt>
      <trkpt lat="44.7097" lon="7.05759">
        <ele>2640.9</ele>
        <time>2026-09-03T10:45:25Z</time>
      </trkpt>
      <trkpt lat="44.7097" lon="7.05759">
        <ele>2640.9</ele>
        <time>2026-09-03T10:45:30Z</time>
      </trkpt>
      <trkpt lat="44.7097" lon="7.05759">
        <ele>2640.9</ele>
        <time>2026-09-03T10:45:36Z</time>
      </trkpt>
      <trkpt lat="44.7097" lon="7.05759">
        <ele>2640.9</ele>
        <time>2026-09-03T10:45:41Z</time>
      </trkpt>
      <trkpt lat="44.7097" lon="7.05759">
        <ele>2640.9</ele>
        <time>2026-09-03T10:45:46Z</time>
      </trkpt>
      <trkpt lat="44.7097" lon="7.05759">
        <ele>2640.9</ele>
        <time>2026-09-03T10:45:52Z</time>
      </trkpt>
      <trkpt lat="44.7097" lon="7.05759">
        <ele>2640.9</ele>
        <time>2026-09-03T10:45:57Z</time>
      </trkpt>
      <trkpt lat="44.7097" lon="7.05759">
        <ele>2640.9</ele>
        <time>2026-09-03T10:46:02Z</time>
      </trkpt>
      <trkpt lat="44.7097" lon="7.05759">
        <ele>2640.9</ele>
        <time>2026-09-03T10:46:08Z</time>
      </trkpt>
      <trkpt lat="44.7097" lon="7.05759">
        <ele>2640.9</ele>
        <time>2026-09-03T10:46:13Z</time>
      </trkpt>
      <trkpt lat="44.7097" lon="7.05759">
        <ele>2640.9</ele>
        <time>2026-09-03T10:46:18Z</time>
      </trkpt>
      <trkpt lat="44.7097" lon="7.05759">
        <ele>2640.9</ele>
        <time>2026-09-03T10:46:24Z</time>
      </trkpt>
      <trkpt lat="44.7097" lon="7.05759">
        <ele>2640.9</ele>
        <time>2026-09-03T10:46:29Z</time>
      </trkpt>
      <trkpt lat="44.7097" lon="7.05759">
        <ele>2640.9</ele>
        <time>2026-09-03T10:46:34Z</time>
      </trkpt>
      <trkpt lat="44.7097" lon="7.05759">
        <ele>2640.9</ele>
        <time>2026-09-03T10:46:40Z</time>
      </trkpt>
      <trkpt lat="44.7097" lon="7.05759">
        <ele>2640.9</ele>
        <time>2026-09-03T10:46:45Z</time>
      </trkpt>
      <trkpt lat="44.7097" lon="7.05759">
        <ele>2640.9</ele>
        <time>2026-09-03T10:46:50Z</time>
      </trkpt>
      <trkpt lat="44.7097" lon="7.05759">
        <ele>2640.9</ele>
        <time>2026-09-03T10:46:56Z</time>
      </trkpt>
      <trkpt lat="44.7097" lon="7.05759">
        <ele>2640.9</ele>
        <time>2026-09-03T10:47:01Z</time>
      </trkpt>
      <trkpt lat="44.7097" lon="7.05759">
        <ele>2640.9</ele>
        <time>2026-09-03T10:47:06Z</time>
      </trkpt>
      <trkpt lat="44.7097" lon="7.05759">
        <ele>2640.9</ele>
        <time>2026-09-03T10:47:12Z</time>
      </trkpt>
      <trkpt lat="44.7097" lon="7.05759">
        <ele>2640.9</ele>
        <time>2026-09-03T10:47:17Z</time>
      </trkpt>
      <trkpt lat="44.7097" lon="7.05759">
        <ele>2640.9</ele>
        <time>2026-09-03T10:47:22Z</time>
      </trkpt>
      <trkpt lat="44.7097" lon="7.05759">
        <ele>2640.9</ele>
        <time>2026-09-03T10:47:28Z</time>
      </trkpt>
      <trkpt lat="44.7097" lon="7.05759">
        <ele>2640.9</ele>
        <time>2026-09-03T10:47:33Z</time>
      </trkpt>
      <trkpt lat="44.7097" lon="7.05759">
        <ele>2640.9</ele>
        <time>2026-09-03T10:47:38Z</time>
      </trkpt>
      <trkpt lat="44.7097" lon="7.05759">
        <ele>2640.9</ele>
        <time>2026-09-03T10:47:44Z</time>
      </trkpt>
      <trkpt lat="44.7097" lon="7.05759">
        <ele>2640.9</ele>
        <time>2026-09-03T10:47:49Z</time>
      </trkpt>
      <trkpt lat="44.7097" lon="7.05759">
        <ele>2640.9</ele>
        <time>2026-09-03T10:47:54Z</time>
      </trkpt>
      <trkpt lat="44.7097" lon="7.05759">
        <ele>2640.9</ele>
        <time>2026-09-03T10:48:00Z</time>
      </trkpt>
      <trkpt lat="44.7097" lon="7.05759">
        <ele>2640.9</ele>
        <time>2026-09-03T10:48:05Z</time>
      </trkpt>
      <trkpt lat="44.7097" lon="7.05759">
        <ele>2640.9</ele>
        <time>2026-09-03T10:48:10Z</time>
      </trkpt>
      <trkpt lat="44.7097" lon="7.05759">
        <ele>2640.9</ele>
        <time>2026-09-03T10:48:16Z</time>
      </trkpt>
      <trkpt lat="44.7097" lon="7.05759">
        <ele>2640.9</ele>
        <time>2026-09-03T10:48:21Z</time>
      </trkpt>
      <trkpt lat="44.7097" lon="7.05759">
        <ele>2640.9</ele>
        <time>2026-09-03T10:48:26Z</time>
      </trkpt>
      <trkpt lat="44.7097" lon="7.05759">
        <ele>2640.9</ele>
        <time>2026-09-03T10:48:32Z</time>
      </trkpt>
      <trkpt lat="44.7097" lon="7.05759">
        <ele>2640.9</ele>
        <time>2026-09-03T10:48:37Z</time>
      </trkpt>
      <trkpt lat="44.7097" lon="7.05759">
        <ele>2640.9</ele>
        <time>2026-09-03T10:48:42Z</time>
      </trkpt>
      <trkpt lat="44.7097" lon="7.05759">
        <ele>2640.9</ele>
        <time>2026-09-03T10:48:48Z</time>
      </trkpt>
      <trkpt lat="44.7097" lon="7.05759">
        <ele>2640.9</ele>
        <time>2026-09-03T10:48:53Z</time>
      </trkpt>
      <trkpt lat="44.7097" lon="7.05759">
        <ele>2640.9</ele>
        <time>2026-09-03T10:48:58Z</time>
      </trkpt>
      <trkpt lat="44.70968" lon="7.05759">
        <ele>2640.6</ele>
        <time>2026-09-03T10:49:04Z</time>
      </trkpt>
      <trkpt lat="44.70965" lon="7.05758">
        <ele>2639.9</ele>
        <time>2026-09-03T10:49:09Z</time>
      </trkpt>
      <trkpt lat="44.7096" lon="7.05756">
        <ele>2638.6</ele>
        <time>2026-09-03T10:49:14Z</time>
      </trkpt>
      <trkpt lat="44.70958" lon="7.05755">
        <ele>2638</ele>
        <time>2026-09-03T10:49:20Z</time>
      </trkpt>
      <trkpt lat="44.70955" lon="7.05756">
        <ele>2637.9</ele>
        <time>2026-09-03T10:49:25Z</time>
      </trkpt>
      <trkpt lat="44.70954" lon="7.05753">
        <ele>2636.9</ele>
        <time>2026-09-03T10:49:30Z</time>
      </trkpt>
      <trkpt lat="44.70955" lon="7.05748">
        <ele>2635.6</ele>
        <time>2026-09-03T10:49:36Z</time>
      </trkpt>
      <trkpt lat="44.70956" lon="7.05744">
        <ele>2634.7</ele>
        <time>2026-09-03T10:49:41Z</time>
      </trkpt>
      <trkpt lat="44.70954" lon="7.05741">
        <ele>2633.7</ele>
        <time>2026-09-03T10:49:46Z</time>
      </trkpt>
      <trkpt lat="44.70954" lon="7.05735">
        <ele>2632.3</ele>
        <time>2026-09-03T10:49:52Z</time>
      </trkpt>
      <trkpt lat="44.70957" lon="7.05733">
        <ele>2632.2</ele>
        <time>2026-09-03T10:49:57Z</time>
      </trkpt>
      <trkpt lat="44.70958" lon="7.05732">
        <ele>2632.1</ele>
        <time>2026-09-03T10:50:02Z</time>
      </trkpt>
      <trkpt lat="44.70959" lon="7.05729">
        <ele>2631.6</ele>
        <time>2026-09-03T10:50:08Z</time>
      </trkpt>
      <trkpt lat="44.70959" lon="7.05724">
        <ele>2630.4</ele>
        <time>2026-09-03T10:50:13Z</time>
      </trkpt>
      <trkpt lat="44.70956" lon="7.05721">
        <ele>2629.2</ele>
        <time>2026-09-03T10:50:18Z</time>
      </trkpt>
      <trkpt lat="44.70957" lon="7.05718">
        <ele>2628.6</ele>
        <time>2026-09-03T10:50:24Z</time>
      </trkpt>
      <trkpt lat="44.7096" lon="7.05717">
        <ele>2628.9</ele>
        <time>2026-09-03T10:50:29Z</time>
      </trkpt>
      <trkpt lat="44.70955" lon="7.05713">
        <ele>2627</ele>
        <time>2026-09-03T10:50:34Z</time>
      </trkpt>
      <trkpt lat="44.70948" lon="7.05714">
        <ele>2626.1</ele>
        <time>2026-09-03T10:50:40Z</time>
      </trkpt>
      <trkpt lat="44.70945" lon="7.05716">
        <ele>2626.1</ele>
        <time>2026-09-03T10:50:45Z</time>
      </trkpt>
      <trkpt lat="44.70943" lon="7.05716">
        <ele>2625.7</ele>
        <time>2026-09-03T10:50:50Z</time>
      </trkpt>
      <trkpt lat="44.70939" lon="7.05716">
        <ele>2625</ele>
        <time>2026-09-03T10:50:56Z</time>
      </trkpt>
      <trkpt lat="44.70939" lon="7.05719">
        <ele>2625.8</ele>
        <time>2026-09-03T10:51:01Z</time>
      </trkpt>
      <trkpt lat="44.70939" lon="7.05719">
        <ele>2625.8</ele>
        <time>2026-09-03T10:51:06Z</time>
      </trkpt>
      <trkpt lat="44.70939" lon="7.05715">
        <ele>2624.8</ele>
        <time>2026-09-03T10:51:12Z</time>
      </trkpt>
      <trkpt lat="44.70937" lon="7.05712">
        <ele>2623.6</ele>
        <time>2026-09-03T10:51:17Z</time>
      </trkpt>
      <trkpt lat="44.70933" lon="7.05712">
        <ele>2622.9</ele>
        <time>2026-09-03T10:51:22Z</time>
      </trkpt>
      <trkpt lat="44.70929" lon="7.05708">
        <ele>2621.1</ele>
        <time>2026-09-03T10:51:28Z</time>
      </trkpt>
      <trkpt lat="44.70926" lon="7.05705">
        <ele>2619.8</ele>
        <time>2026-09-03T10:51:33Z</time>
      </trkpt>
      <trkpt lat="44.70924" lon="7.057">
        <ele>2618</ele>
        <time>2026-09-03T10:51:38Z</time>
      </trkpt>
      <trkpt lat="44.70924" lon="7.05693">
        <ele>2616</ele>
        <time>2026-09-03T10:51:44Z</time>
      </trkpt>
      <trkpt lat="44.70927" lon="7.05692">
        <ele>2616.4</ele>
        <time>2026-09-03T10:51:49Z</time>
      </trkpt>
      <trkpt lat="44.7093" lon="7.05686">
        <ele>2615.3</ele>
        <time>2026-09-03T10:51:54Z</time>
      </trkpt>
      <trkpt lat="44.70925" lon="7.05681">
        <ele>2612.9</ele>
        <time>2026-09-03T10:52:00Z</time>
      </trkpt>
      <trkpt lat="44.7092" lon="7.05678">
        <ele>2611</ele>
        <time>2026-09-03T10:52:05Z</time>
      </trkpt>
      <trkpt lat="44.70924" lon="7.05668">
        <ele>2609</ele>
        <time>2026-09-03T10:52:10Z</time>
      </trkpt>
      <trkpt lat="44.70927" lon="7.05659">
        <ele>2606.4</ele>
        <time>2026-09-03T10:52:16Z</time>
      </trkpt>
      <trkpt lat="44.70928" lon="7.05653">
        <ele>2604.3</ele>
        <time>2026-09-03T10:52:21Z</time>
      </trkpt>
      <trkpt lat="44.70928" lon="7.05647">
        <ele>2602</ele>
        <time>2026-09-03T10:52:26Z</time>
      </trkpt>
      <trkpt lat="44.70928" lon="7.05641">
        <ele>2599.7</ele>
        <time>2026-09-03T10:52:32Z</time>
      </trkpt>
      <trkpt lat="44.70933" lon="7.05637">
        <ele>2599.4</ele>
        <time>2026-09-03T10:52:37Z</time>
      </trkpt>
      <trkpt lat="44.70939" lon="7.05636">
        <ele>2600.5</ele>
        <time>2026-09-03T10:52:42Z</time>
      </trkpt>
      <trkpt lat="44.70946" lon="7.05643">
        <ele>2604.9</ele>
        <time>2026-09-03T10:52:48Z</time>
      </trkpt>
      <trkpt lat="44.70949" lon="7.05643">
        <ele>2605.7</ele>
        <time>2026-09-03T10:52:53Z</time>
      </trkpt>
      <trkpt lat="44.70949" lon="7.0564">
        <ele>2604.6</ele>
        <time>2026-09-03T10:52:58Z</time>
      </trkpt>
      <trkpt lat="44.70948" lon="7.05635">
        <ele>2602.5</ele>
        <time>2026-09-03T10:53:04Z</time>
      </trkpt>
      <trkpt lat="44.70946" lon="7.0563">
        <ele>2600.1</ele>
        <time>2026-09-03T10:53:09Z</time>
      </trkpt>
      <trkpt lat="44.70944" lon="7.05628">
        <ele>2598.8</ele>
        <time>2026-09-03T10:53:14Z</time>
      </trkpt>
      <trkpt lat="44.70943" lon="7.05622">
        <ele>2596.3</ele>
        <time>2026-09-03T10:53:20Z</time>
      </trkpt>
      <trkpt lat="44.70943" lon="7.05619">
        <ele>2595.2</ele>
        <time>2026-09-03T10:53:25Z</time>
      </trkpt>
      <trkpt lat="44.70941" lon="7.05617">
        <ele>2593.9</ele>
        <time>2026-09-03T10:53:30Z</time>
      </trkpt>
      <trkpt lat="44.70936" lon="7.05616">
        <ele>2592.2</ele>
        <time>2026-09-03T10:53:36Z</time>
      </trkpt>
      <trkpt lat="44.70936" lon="7.05615">
        <ele>2591.8</ele>
        <time>2026-09-03T10:53:41Z</time>
      </trkpt>
      <trkpt lat="44.70936" lon="7.05615">
        <ele>2591.8</ele>
        <time>2026-09-03T10:53:46Z</time>
      </trkpt>
      <trkpt lat="44.7094" lon="7.05609">
        <ele>2590.6</ele>
        <time>2026-09-03T10:53:52Z</time>
      </trkpt>
      <trkpt lat="44.70941" lon="7.0561">
        <ele>2591.3</ele>
        <time>2026-09-03T10:53:57Z</time>
      </trkpt>
      <trkpt lat="44.70941" lon="7.0561">
        <ele>2591.3</ele>
        <time>2026-09-03T10:54:02Z</time>
      </trkpt>
      <trkpt lat="44.70941" lon="7.0561">
        <ele>2591.3</ele>
        <time>2026-09-03T10:54:08Z</time>
      </trkpt>
      <trkpt lat="44.70941" lon="7.0561">
        <ele>2591.3</ele>
        <time>2026-09-03T10:54:13Z</time>
      </trkpt>
      <trkpt lat="44.70941" lon="7.0561">
        <ele>2591.3</ele>
        <time>2026-09-03T10:54:18Z</time>
      </trkpt>
      <trkpt lat="44.70941" lon="7.0561">
        <ele>2591.3</ele>
        <time>2026-09-03T10:54:24Z</time>
      </trkpt>
      <trkpt lat="44.70941" lon="7.0561">
        <ele>2591.3</ele>
        <time>2026-09-03T10:54:29Z</time>
      </trkpt>
      <trkpt lat="44.70941" lon="7.0561">
        <ele>2591.3</ele>
        <time>2026-09-03T10:54:34Z</time>
      </trkpt>
      <trkpt lat="44.70941" lon="7.0561">
        <ele>2591.3</ele>
        <time>2026-09-03T10:54:40Z</time>
      </trkpt>
      <trkpt lat="44.70949" lon="7.05609">
        <ele>2593.1</ele>
        <time>2026-09-03T10:54:45Z</time>
      </trkpt>
      <trkpt lat="44.70951" lon="7.05614">
        <ele>2595.5</ele>
        <time>2026-09-03T10:54:50Z</time>
      </trkpt>
      <trkpt lat="44.70956" lon="7.0562">
        <ele>2599.1</ele>
        <time>2026-09-03T10:54:56Z</time>
      </trkpt>
      <trkpt lat="44.70959" lon="7.0562">
        <ele>2599.9</ele>
        <time>2026-09-03T10:55:01Z</time>
      </trkpt>
      <trkpt lat="44.70959" lon="7.0562">
        <ele>2599.9</ele>
        <time>2026-09-03T10:55:06Z</time>
      </trkpt>
      <trkpt lat="44.70959" lon="7.0562">
        <ele>2599.9</ele>
        <time>2026-09-03T10:55:12Z</time>
      </trkpt>
      <trkpt lat="44.70959" lon="7.0562">
        <ele>2599.9</ele>
        <time>2026-09-03T10:55:17Z</time>
      </trkpt>
      <trkpt lat="44.70959" lon="7.0562">
        <ele>2599.9</ele>
        <time>2026-09-03T10:55:22Z</time>
      </trkpt>
      <trkpt lat="44.70959" lon="7.0562">
        <ele>2599.9</ele>
        <time>2026-09-03T10:55:28Z</time>
      </trkpt>
      <trkpt lat="44.70959" lon="7.05605">
        <ele>2594.5</ele>
        <time>2026-09-03T10:55:33Z</time>
      </trkpt>
      <trkpt lat="44.70958" lon="7.05602">
        <ele>2593.1</ele>
        <time>2026-09-03T10:55:38Z</time>
      </trkpt>
      <trkpt lat="44.70958" lon="7.056">
        <ele>2592.4</ele>
        <time>2026-09-03T10:55:44Z</time>
      </trkpt>
      <trkpt lat="44.70958" lon="7.056">
        <ele>2592.4</ele>
        <time>2026-09-03T10:55:49Z</time>
      </trkpt>
      <trkpt lat="44.70961" lon="7.05598">
        <ele>2592.5</ele>
        <time>2026-09-03T10:55:54Z</time>
      </trkpt>
      <trkpt lat="44.70963" lon="7.05592">
        <ele>2591</ele>
        <time>2026-09-03T10:56:00Z</time>
      </trkpt>
      <trkpt lat="44.7096" lon="7.05587">
        <ele>2588.3</ele>
        <time>2026-09-03T10:56:05Z</time>
      </trkpt>
      <trkpt lat="44.70957" lon="7.05582">
        <ele>2585.7</ele>
        <time>2026-09-03T10:56:10Z</time>
      </trkpt>
      <trkpt lat="44.70953" lon="7.05573">
        <ele>2582</ele>
        <time>2026-09-03T10:56:16Z</time>
      </trkpt>
      <trkpt lat="44.70954" lon="7.05564">
        <ele>2579.7</ele>
        <time>2026-09-03T10:56:21Z</time>
      </trkpt>
      <trkpt lat="44.70953" lon="7.05557">
        <ele>2577.4</ele>
        <time>2026-09-03T10:56:26Z</time>
      </trkpt>
      <trkpt lat="44.70951" lon="7.05549">
        <ele>2574.6</ele>
        <time>2026-09-03T10:56:32Z</time>
      </trkpt>
      <trkpt lat="44.70949" lon="7.05543">
        <ele>2572.3</ele>
        <time>2026-09-03T10:56:37Z</time>
      </trkpt>
      <trkpt lat="44.7095" lon="7.05535">
        <ele>2570.3</ele>
        <time>2026-09-03T10:56:42Z</time>
      </trkpt>
      <trkpt lat="44.70951" lon="7.05528">
        <ele>2568.6</ele>
        <time>2026-09-03T10:56:48Z</time>
      </trkpt>
      <trkpt lat="44.7095" lon="7.0552">
        <ele>2566.1</ele>
        <time>2026-09-03T10:56:53Z</time>
      </trkpt>
      <trkpt lat="44.70948" lon="7.05513">
        <ele>2563.6</ele>
        <time>2026-09-03T10:56:58Z</time>
      </trkpt>
      <trkpt lat="44.70949" lon="7.05503">
        <ele>2561</ele>
        <time>2026-09-03T10:57:04Z</time>
      </trkpt>
      <trkpt lat="44.70948" lon="7.05496">
        <ele>2559.4</ele>
        <time>2026-09-03T10:57:09Z</time>
      </trkpt>
      <trkpt lat="44.70946" lon="7.0549">
        <ele>2558.2</ele>
        <time>2026-09-03T10:57:14Z</time>
      </trkpt>
      <trkpt lat="44.70941" lon="7.05486">
        <ele>2556.5</ele>
        <time>2026-09-03T10:57:20Z</time>
      </trkpt>
      <trkpt lat="44.70939" lon="7.05484">
        <ele>2555.7</ele>
        <time>2026-09-03T10:57:25Z</time>
      </trkpt>
      <trkpt lat="44.70936" lon="7.05485">
        <ele>2555.1</ele>
        <time>2026-09-03T10:57:30Z</time>
      </trkpt>
      <trkpt lat="44.70933" lon="7.05483">
        <ele>2554.1</ele>
        <time>2026-09-03T10:57:36Z</time>
      </trkpt>
      <trkpt lat="44.70932" lon="7.05477">
        <ele>2553.1</ele>
        <time>2026-09-03T10:57:41Z</time>
      </trkpt>
      <trkpt lat="44.70932" lon="7.05472">
        <ele>2552.5</ele>
        <time>2026-09-03T10:57:46Z</time>
      </trkpt>
      <trkpt lat="44.70932" lon="7.05468">
        <ele>2552</ele>
        <time>2026-09-03T10:57:52Z</time>
      </trkpt>
      <trkpt lat="44.70932" lon="7.05465">
        <ele>2551.7</ele>
        <time>2026-09-03T10:57:57Z</time>
      </trkpt>
      <trkpt lat="44.70932" lon="7.05464">
        <ele>2551.5</ele>
        <time>2026-09-03T10:58:02Z</time>
      </trkpt>
      <trkpt lat="44.70932" lon="7.05464">
        <ele>2551.5</ele>
        <time>2026-09-03T10:58:08Z</time>
      </trkpt>
      <trkpt lat="44.70932" lon="7.05464">
        <ele>2551.5</ele>
        <time>2026-09-03T10:58:13Z</time>
      </trkpt>
      <trkpt lat="44.70932" lon="7.05464">
        <ele>2551.5</ele>
        <time>2026-09-03T10:58:18Z</time>
      </trkpt>
      <trkpt lat="44.70932" lon="7.05464">
        <ele>2551.5</ele>
        <time>2026-09-03T10:58:24Z</time>
      </trkpt>
      <trkpt lat="44.70932" lon="7.05464">
        <ele>2551.5</ele>
        <time>2026-09-03T10:58:29Z</time>
      </trkpt>
      <trkpt lat="44.70924" lon="7.05458">
        <ele>2548.8</ele>
        <time>2026-09-03T10:58:34Z</time>
      </trkpt>
      <trkpt lat="44.70924" lon="7.05453">
        <ele>2548.2</ele>
        <time>2026-09-03T10:58:40Z</time>
      </trkpt>
      <trkpt lat="44.70925" lon="7.05448">
        <ele>2547.9</ele>
        <time>2026-09-03T10:58:45Z</time>
      </trkpt>
      <trkpt lat="44.70922" lon="7.05446">
        <ele>2546.9</ele>
        <time>2026-09-03T10:58:50Z</time>
      </trkpt>
      <trkpt lat="44.7092" lon="7.05443">
        <ele>2546</ele>
        <time>2026-09-03T10:58:56Z</time>
      </trkpt>
      <trkpt lat="44.70918" lon="7.05439">
        <ele>2545</ele>
        <time>2026-09-03T10:59:01Z</time>
      </trkpt>
      <trkpt lat="44.70915" lon="7.05437">
        <ele>2544.4</ele>
        <time>2026-09-03T10:59:06Z</time>
      </trkpt>
      <trkpt lat="44.70912" lon="7.05433">
        <ele>2543.8</ele>
        <time>2026-09-03T10:59:12Z</time>
      </trkpt>
      <trkpt lat="44.7091" lon="7.05427">
        <ele>2543.1</ele>
        <time>2026-09-03T10:59:17Z</time>
      </trkpt>
      <trkpt lat="44.70909" lon="7.05422">
        <ele>2542.5</ele>
        <time>2026-09-03T10:59:22Z</time>
      </trkpt>
      <trkpt lat="44.70907" lon="7.05418">
        <ele>2541.9</ele>
        <time>2026-09-03T10:59:28Z</time>
      </trkpt>
      <trkpt lat="44.70907" lon="7.05413">
        <ele>2541.5</ele>
        <time>2026-09-03T10:59:33Z</time>
      </trkpt>
      <trkpt lat="44.70905" lon="7.05414">
        <ele>2541.5</ele>
        <time>2026-09-03T10:59:38Z</time>
      </trkpt>
      <trkpt lat="44.70903" lon="7.0542">
        <ele>2542.1</ele>
        <time>2026-09-03T10:59:44Z</time>
      </trkpt>
      <trkpt lat="44.70901" lon="7.05424">
        <ele>2542.5</ele>
        <time>2026-09-03T10:59:49Z</time>
      </trkpt>
      <trkpt lat="44.70899" lon="7.05428">
        <ele>2542.9</ele>
        <time>2026-09-03T10:59:54Z</time>
      </trkpt>
      <trkpt lat="44.70894" lon="7.05428">
        <ele>2542.8</ele>
        <time>2026-09-03T11:00:00Z</time>
      </trkpt>
      <trkpt lat="44.70891" lon="7.05426">
        <ele>2542.5</ele>
        <time>2026-09-03T11:00:05Z</time>
      </trkpt>
      <trkpt lat="44.70889" lon="7.05427">
        <ele>2542.5</ele>
        <time>2026-09-03T11:00:10Z</time>
      </trkpt>
      <trkpt lat="44.70884" lon="7.05431">
        <ele>2542.9</ele>
        <time>2026-09-03T11:00:16Z</time>
      </trkpt>
      <trkpt lat="44.7088" lon="7.0543">
        <ele>2542.6</ele>
        <time>2026-09-03T11:00:21Z</time>
      </trkpt>
      <trkpt lat="44.70877" lon="7.05429">
        <ele>2542.5</ele>
        <time>2026-09-03T11:00:26Z</time>
      </trkpt>
      <trkpt lat="44.70873" lon="7.05431">
        <ele>2542.6</ele>
        <time>2026-09-03T11:00:32Z</time>
      </trkpt>
      <trkpt lat="44.70867" lon="7.05429">
        <ele>2542.2</ele>
        <time>2026-09-03T11:00:37Z</time>
      </trkpt>
      <trkpt lat="44.70863" lon="7.05429">
        <ele>2542.1</ele>
        <time>2026-09-03T11:00:42Z</time>
      </trkpt>
      <trkpt lat="44.70859" lon="7.05429">
        <ele>2542</ele>
        <time>2026-09-03T11:00:48Z</time>
      </trkpt>
      <trkpt lat="44.70856" lon="7.05426">
        <ele>2541.6</ele>
        <time>2026-09-03T11:00:53Z</time>
      </trkpt>
      <trkpt lat="44.70855" lon="7.05426">
        <ele>2541.6</ele>
        <time>2026-09-03T11:00:58Z</time>
      </trkpt>
      <trkpt lat="44.70855" lon="7.05427">
        <ele>2541.7</ele>
        <time>2026-09-03T11:01:04Z</time>
      </trkpt>
      <trkpt lat="44.70855" lon="7.05427">
        <ele>2541.7</ele>
        <time>2026-09-03T11:01:09Z</time>
      </trkpt>
      <trkpt lat="44.70853" lon="7.05429">
        <ele>2541.8</ele>
        <time>2026-09-03T11:01:14Z</time>
      </trkpt>
      <trkpt lat="44.7085" lon="7.05426">
        <ele>2541.4</ele>
        <time>2026-09-03T11:01:20Z</time>
      </trkpt>
      <trkpt lat="44.70851" lon="7.0542">
        <ele>2540.8</ele>
        <time>2026-09-03T11:01:25Z</time>
      </trkpt>
      <trkpt lat="44.70849" lon="7.05415">
        <ele>2540.2</ele>
        <time>2026-09-03T11:01:30Z</time>
      </trkpt>
      <trkpt lat="44.70848" lon="7.05411">
        <ele>2539.8</ele>
        <time>2026-09-03T11:01:36Z</time>
      </trkpt>
      <trkpt lat="44.70845" lon="7.05407">
        <ele>2539.4</ele>
        <time>2026-09-03T11:01:41Z</time>
      </trkpt>
      <trkpt lat="44.70842" lon="7.05402">
        <ele>2538.8</ele>
        <time>2026-09-03T11:01:46Z</time>
      </trkpt>
      <trkpt lat="44.70839" lon="7.05396">
        <ele>2538.2</ele>
        <time>2026-09-03T11:01:52Z</time>
      </trkpt>
      <trkpt lat="44.70837" lon="7.05391">
        <ele>2537.7</ele>
        <time>2026-09-03T11:01:57Z</time>
      </trkpt>
      <trkpt lat="44.70837" lon="7.05386">
        <ele>2537.2</ele>
        <time>2026-09-03T11:02:02Z</time>
      </trkpt>
      <trkpt lat="44.70836" lon="7.05381">
        <ele>2536.7</ele>
        <time>2026-09-03T11:02:08Z</time>
      </trkpt>
      <trkpt lat="44.70835" lon="7.05376">
        <ele>2536.2</ele>
        <time>2026-09-03T11:02:13Z</time>
      </trkpt>
      <trkpt lat="44.70833" lon="7.05375">
        <ele>2536</ele>
        <time>2026-09-03T11:02:18Z</time>
      </trkpt>
      <trkpt lat="44.70829" lon="7.05373">
        <ele>2535.9</ele>
        <time>2026-09-03T11:02:24Z</time>
      </trkpt>
      <trkpt lat="44.70828" lon="7.05368">
        <ele>2535.4</ele>
        <time>2026-09-03T11:02:29Z</time>
      </trkpt>
      <trkpt lat="44.70829" lon="7.05364">
        <ele>2535</ele>
        <time>2026-09-03T11:02:34Z</time>
      </trkpt>
      <trkpt lat="44.70829" lon="7.05357">
        <ele>2534.3</ele>
        <time>2026-09-03T11:02:40Z</time>
      </trkpt>
      <trkpt lat="44.70827" lon="7.05354">
        <ele>2534</ele>
        <time>2026-09-03T11:02:45Z</time>
      </trkpt>
      <trkpt lat="44.70824" lon="7.05353">
        <ele>2533.9</ele>
        <time>2026-09-03T11:02:50Z</time>
      </trkpt>
      <trkpt lat="44.70822" lon="7.05346">
        <ele>2533.2</ele>
        <time>2026-09-03T11:02:56Z</time>
      </trkpt>
      <trkpt lat="44.7082" lon="7.05341">
        <ele>2532.6</ele>
        <time>2026-09-03T11:03:01Z</time>
      </trkpt>
      <trkpt lat="44.70818" lon="7.05337">
        <ele>2532.2</ele>
        <time>2026-09-03T11:03:06Z</time>
      </trkpt>
      <trkpt lat="44.70818" lon="7.05331">
        <ele>2531.4</ele>
        <time>2026-09-03T11:03:12Z</time>
      </trkpt>
      <trkpt lat="44.70819" lon="7.05326">
        <ele>2530.4</ele>
        <time>2026-09-03T11:03:17Z</time>
      </trkpt>
      <trkpt lat="44.7082" lon="7.0532">
        <ele>2529.3</ele>
        <time>2026-09-03T11:03:22Z</time>
      </trkpt>
      <trkpt lat="44.70819" lon="7.05314">
        <ele>2528.1</ele>
        <time>2026-09-03T11:03:28Z</time>
      </trkpt>
      <trkpt lat="44.70819" lon="7.0531">
        <ele>2527.3</ele>
        <time>2026-09-03T11:03:33Z</time>
      </trkpt>
      <trkpt lat="44.70819" lon="7.05304">
        <ele>2526.1</ele>
        <time>2026-09-03T11:03:38Z</time>
      </trkpt>
      <trkpt lat="44.70817" lon="7.05298">
        <ele>2524.9</ele>
        <time>2026-09-03T11:03:44Z</time>
      </trkpt>
      <trkpt lat="44.70817" lon="7.0529">
        <ele>2523.4</ele>
        <time>2026-09-03T11:03:49Z</time>
      </trkpt>
      <trkpt lat="44.70818" lon="7.05289">
        <ele>2523.2</ele>
        <time>2026-09-03T11:03:54Z</time>
      </trkpt>
      <trkpt lat="44.70818" lon="7.05289">
        <ele>2523.2</ele>
        <time>2026-09-03T11:04:00Z</time>
      </trkpt>
      <trkpt lat="44.70818" lon="7.05289">
        <ele>2523.2</ele>
        <time>2026-09-03T11:04:05Z</time>
      </trkpt>
      <trkpt lat="44.70818" lon="7.05289">
        <ele>2523.2</ele>
        <time>2026-09-03T11:04:10Z</time>
      </trkpt>
      <trkpt lat="44.70818" lon="7.05289">
        <ele>2523.2</ele>
        <time>2026-09-03T11:04:16Z</time>
      </trkpt>
      <trkpt lat="44.70818" lon="7.05289">
        <ele>2523.2</ele>
        <time>2026-09-03T11:04:21Z</time>
      </trkpt>
      <trkpt lat="44.70818" lon="7.05289">
        <ele>2523.2</ele>
        <time>2026-09-03T11:04:26Z</time>
      </trkpt>
      <trkpt lat="44.7081" lon="7.05279">
        <ele>2521.1</ele>
        <time>2026-09-03T11:04:32Z</time>
      </trkpt>
      <trkpt lat="44.70811" lon="7.05275">
        <ele>2520.3</ele>
        <time>2026-09-03T11:04:37Z</time>
      </trkpt>
      <trkpt lat="44.70814" lon="7.05272">
        <ele>2519.8</ele>
        <time>2026-09-03T11:04:42Z</time>
      </trkpt>
      <trkpt lat="44.70814" lon="7.05269">
        <ele>2519.2</ele>
        <time>2026-09-03T11:04:48Z</time>
      </trkpt>
      <trkpt lat="44.70815" lon="7.05265">
        <ele>2518.5</ele>
        <time>2026-09-03T11:04:53Z</time>
      </trkpt>
      <trkpt lat="44.70816" lon="7.05261">
        <ele>2517.7</ele>
        <time>2026-09-03T11:04:58Z</time>
      </trkpt>
      <trkpt lat="44.70815" lon="7.05254">
        <ele>2516.3</ele>
        <time>2026-09-03T11:05:04Z</time>
      </trkpt>
      <trkpt lat="44.70814" lon="7.0525">
        <ele>2515.5</ele>
        <time>2026-09-03T11:05:09Z</time>
      </trkpt>
      <trkpt lat="44.70814" lon="7.05245">
        <ele>2514.4</ele>
        <time>2026-09-03T11:05:14Z</time>
      </trkpt>
      <trkpt lat="44.70812" lon="7.0524">
        <ele>2513.2</ele>
        <time>2026-09-03T11:05:20Z</time>
      </trkpt>
      <trkpt lat="44.70811" lon="7.05237">
        <ele>2512.4</ele>
        <time>2026-09-03T11:05:25Z</time>
      </trkpt>
      <trkpt lat="44.7081" lon="7.05235">
        <ele>2511.9</ele>
        <time>2026-09-03T11:05:30Z</time>
      </trkpt>
      <trkpt lat="44.70806" lon="7.05234">
        <ele>2511.6</ele>
        <time>2026-09-03T11:05:36Z</time>
      </trkpt>
      <trkpt lat="44.70804" lon="7.05232">
        <ele>2511</ele>
        <time>2026-09-03T11:05:41Z</time>
      </trkpt>
      <trkpt lat="44.70807" lon="7.05229">
        <ele>2510.4</ele>
        <time>2026-09-03T11:05:46Z</time>
      </trkpt>
      <trkpt lat="44.7081" lon="7.05224">
        <ele>2509.4</ele>
        <time>2026-09-03T11:05:52Z</time>
      </trkpt>
      <trkpt lat="44.70812" lon="7.0522">
        <ele>2508.5</ele>
        <time>2026-09-03T11:05:57Z</time>
      </trkpt>
      <trkpt lat="44.70814" lon="7.05215">
        <ele>2507.5</ele>
        <time>2026-09-03T11:06:02Z</time>
      </trkpt>
      <trkpt lat="44.70813" lon="7.05212">
        <ele>2506.7</ele>
        <time>2026-09-03T11:06:08Z</time>
      </trkpt>
      <trkpt lat="44.70814" lon="7.05207">
        <ele>2505.6</ele>
        <time>2026-09-03T11:06:13Z</time>
      </trkpt>
      <trkpt lat="44.70815" lon="7.05202">
        <ele>2504.6</ele>
        <time>2026-09-03T11:06:18Z</time>
      </trkpt>
      <trkpt lat="44.70812" lon="7.05197">
        <ele>2503.2</ele>
        <time>2026-09-03T11:06:24Z</time>
      </trkpt>
      <trkpt lat="44.70813" lon="7.05191">
        <ele>2501.9</ele>
        <time>2026-09-03T11:06:29Z</time>
      </trkpt>
      <trkpt lat="44.70814" lon="7.05186">
        <ele>2500.8</ele>
        <time>2026-09-03T11:06:34Z</time>
      </trkpt>
      <trkpt lat="44.70816" lon="7.0518">
        <ele>2499.6</ele>
        <time>2026-09-03T11:06:40Z</time>
      </trkpt>
      <trkpt lat="44.70817" lon="7.05175">
        <ele>2498.5</ele>
        <time>2026-09-03T11:06:45Z</time>
      </trkpt>
      <trkpt lat="44.70815" lon="7.05171">
        <ele>2497.5</ele>
        <time>2026-09-03T11:06:50Z</time>
      </trkpt>
      <trkpt lat="44.70813" lon="7.05164">
        <ele>2495.6</ele>
        <time>2026-09-03T11:06:56Z</time>
      </trkpt>
      <trkpt lat="44.70811" lon="7.0516">
        <ele>2494.4</ele>
        <time>2026-09-03T11:07:01Z</time>
      </trkpt>
      <trkpt lat="44.70812" lon="7.05154">
        <ele>2492.9</ele>
        <time>2026-09-03T11:07:06Z</time>
      </trkpt>
      <trkpt lat="44.70814" lon="7.05147">
        <ele>2491.2</ele>
        <time>2026-09-03T11:07:12Z</time>
      </trkpt>
      <trkpt lat="44.70816" lon="7.05139">
        <ele>2489.3</ele>
        <time>2026-09-03T11:07:17Z</time>
      </trkpt>
      <trkpt lat="44.70817" lon="7.05134">
        <ele>2488.1</ele>
        <time>2026-09-03T11:07:22Z</time>
      </trkpt>
      <trkpt lat="44.70819" lon="7.05129">
        <ele>2486.9</ele>
        <time>2026-09-03T11:07:28Z</time>
      </trkpt>
      <trkpt lat="44.70823" lon="7.05129">
        <ele>2487.2</ele>
        <time>2026-09-03T11:07:33Z</time>
      </trkpt>
      <trkpt lat="44.70827" lon="7.05126">
        <ele>2486.8</ele>
        <time>2026-09-03T11:07:38Z</time>
      </trkpt>
      <trkpt lat="44.7083" lon="7.05121">
        <ele>2485.7</ele>
        <time>2026-09-03T11:07:44Z</time>
      </trkpt>
      <trkpt lat="44.7083" lon="7.05114">
        <ele>2483.8</ele>
        <time>2026-09-03T11:07:49Z</time>
      </trkpt>
      <trkpt lat="44.70827" lon="7.05113">
        <ele>2483.3</ele>
        <time>2026-09-03T11:07:54Z</time>
      </trkpt>
      <trkpt lat="44.70827" lon="7.05113">
        <ele>2483.3</ele>
        <time>2026-09-03T11:08:00Z</time>
      </trkpt>
      <trkpt lat="44.70827" lon="7.05113">
        <ele>2483.3</ele>
        <time>2026-09-03T11:08:05Z</time>
      </trkpt>
      <trkpt lat="44.70827" lon="7.05113">
        <ele>2483.3</ele>
        <time>2026-09-03T11:08:10Z</time>
      </trkpt>
      <trkpt lat="44.70827" lon="7.05113">
        <ele>2483.3</ele>
        <time>2026-09-03T11:08:16Z</time>
      </trkpt>
      <trkpt lat="44.70827" lon="7.05113">
        <ele>2483.3</ele>
        <time>2026-09-03T11:08:21Z</time>
      </trkpt>
      <trkpt lat="44.70824" lon="7.05111">
        <ele>2482.6</ele>
        <time>2026-09-03T11:08:26Z</time>
      </trkpt>
      <trkpt lat="44.7082" lon="7.05105">
        <ele>2480.7</ele>
        <time>2026-09-03T11:08:32Z</time>
      </trkpt>
      <trkpt lat="44.70817" lon="7.05098">
        <ele>2478.7</ele>
        <time>2026-09-03T11:08:37Z</time>
      </trkpt>
      <trkpt lat="44.70813" lon="7.05094">
        <ele>2477.3</ele>
        <time>2026-09-03T11:08:42Z</time>
      </trkpt>
      <trkpt lat="44.70811" lon="7.05086">
        <ele>2475.1</ele>
        <time>2026-09-03T11:08:48Z</time>
      </trkpt>
      <trkpt lat="44.70807" lon="7.05081">
        <ele>2473.7</ele>
        <time>2026-09-03T11:08:53Z</time>
      </trkpt>
      <trkpt lat="44.70803" lon="7.05077">
        <ele>2472.6</ele>
        <time>2026-09-03T11:08:58Z</time>
      </trkpt>
      <trkpt lat="44.70804" lon="7.0507">
        <ele>2471.4</ele>
        <time>2026-09-03T11:09:04Z</time>
      </trkpt>
      <trkpt lat="44.70806" lon="7.05066">
        <ele>2470.8</ele>
        <time>2026-09-03T11:09:09Z</time>
      </trkpt>
      <trkpt lat="44.70809" lon="7.05061">
        <ele>2470</ele>
        <time>2026-09-03T11:09:14Z</time>
      </trkpt>
      <trkpt lat="44.7081" lon="7.05052">
        <ele>2468.3</ele>
        <time>2026-09-03T11:09:20Z</time>
      </trkpt>
      <trkpt lat="44.70807" lon="7.05048">
        <ele>2467.4</ele>
        <time>2026-09-03T11:09:25Z</time>
      </trkpt>
      <trkpt lat="44.70806" lon="7.05044">
        <ele>2466.6</ele>
        <time>2026-09-03T11:09:30Z</time>
      </trkpt>
      <trkpt lat="44.70806" lon="7.05044">
        <ele>2466.6</ele>
        <time>2026-09-03T11:09:36Z</time>
      </trkpt>
      <trkpt lat="44.70807" lon="7.05044">
        <ele>2466.7</ele>
        <time>2026-09-03T11:09:41Z</time>
      </trkpt>
      <trkpt lat="44.70807" lon="7.05044">
        <ele>2466.7</ele>
        <time>2026-09-03T11:09:46Z</time>
      </trkpt>
      <trkpt lat="44.70807" lon="7.05044">
        <ele>2466.7</ele>
        <time>2026-09-03T11:09:52Z</time>
      </trkpt>
      <trkpt lat="44.70807" lon="7.05044">
        <ele>2466.7</ele>
        <time>2026-09-03T11:09:57Z</time>
      </trkpt>
      <trkpt lat="44.70807" lon="7.05044">
        <ele>2466.7</ele>
        <time>2026-09-03T11:10:02Z</time>
      </trkpt>
      <trkpt lat="44.70807" lon="7.05044">
        <ele>2466.7</ele>
        <time>2026-09-03T11:10:08Z</time>
      </trkpt>
      <trkpt lat="44.70807" lon="7.05044">
        <ele>2466.7</ele>
        <time>2026-09-03T11:10:13Z</time>
      </trkpt>
      <trkpt lat="44.70809" lon="7.0504">
        <ele>2466</ele>
        <time>2026-09-03T11:10:18Z</time>
      </trkpt>
      <trkpt lat="44.7081" lon="7.05033">
        <ele>2464.7</ele>
        <time>2026-09-03T11:10:24Z</time>
      </trkpt>
      <trkpt lat="44.7081" lon="7.05028">
        <ele>2463.8</ele>
        <time>2026-09-03T11:10:29Z</time>
      </trkpt>
      <trkpt lat="44.7081" lon="7.05023">
        <ele>2462.8</ele>
        <time>2026-09-03T11:10:34Z</time>
      </trkpt>
      <trkpt lat="44.70809" lon="7.05017">
        <ele>2461.6</ele>
        <time>2026-09-03T11:10:40Z</time>
      </trkpt>
      <trkpt lat="44.70807" lon="7.05015">
        <ele>2461.2</ele>
        <time>2026-09-03T11:10:45Z</time>
      </trkpt>
      <trkpt lat="44.70808" lon="7.05011">
        <ele>2460.5</ele>
        <time>2026-09-03T11:10:50Z</time>
      </trkpt>
      <trkpt lat="44.7081" lon="7.05006">
        <ele>2459.6</ele>
        <time>2026-09-03T11:10:56Z</time>
      </trkpt>
      <trkpt lat="44.70808" lon="7.05002">
        <ele>2458.8</ele>
        <time>2026-09-03T11:11:01Z</time>
      </trkpt>
      <trkpt lat="44.70808" lon="7.04996">
        <ele>2458</ele>
        <time>2026-09-03T11:11:06Z</time>
      </trkpt>
      <trkpt lat="44.70809" lon="7.04987">
        <ele>2457.2</ele>
        <time>2026-09-03T11:11:12Z</time>
      </trkpt>
      <trkpt lat="44.70809" lon="7.0498">
        <ele>2456.5</ele>
        <time>2026-09-03T11:11:17Z</time>
      </trkpt>
      <trkpt lat="44.70808" lon="7.04972">
        <ele>2455.7</ele>
        <time>2026-09-03T11:11:22Z</time>
      </trkpt>
      <trkpt lat="44.7081" lon="7.04969">
        <ele>2455.5</ele>
        <time>2026-09-03T11:11:28Z</time>
      </trkpt>
      <trkpt lat="44.7081" lon="7.04969">
        <ele>2455.5</ele>
        <time>2026-09-03T11:11:33Z</time>
      </trkpt>
      <trkpt lat="44.7081" lon="7.04969">
        <ele>2455.5</ele>
        <time>2026-09-03T11:11:38Z</time>
      </trkpt>
      <trkpt lat="44.7081" lon="7.04969">
        <ele>2455.5</ele>
        <time>2026-09-03T11:11:44Z</time>
      </trkpt>
      <trkpt lat="44.70809" lon="7.04966">
        <ele>2455.2</ele>
        <time>2026-09-03T11:11:49Z</time>
      </trkpt>
      <trkpt lat="44.70807" lon="7.04959">
        <ele>2454.5</ele>
        <time>2026-09-03T11:11:54Z</time>
      </trkpt>
      <trkpt lat="44.70802" lon="7.0495">
        <ele>2453.4</ele>
        <time>2026-09-03T11:12:00Z</time>
      </trkpt>
      <trkpt lat="44.70797" lon="7.04944">
        <ele>2452.5</ele>
        <time>2026-09-03T11:12:05Z</time>
      </trkpt>
      <trkpt lat="44.70792" lon="7.04939">
        <ele>2451.8</ele>
        <time>2026-09-03T11:12:10Z</time>
      </trkpt>
      <trkpt lat="44.70787" lon="7.0493">
        <ele>2450.6</ele>
        <time>2026-09-03T11:12:16Z</time>
      </trkpt>
      <trkpt lat="44.70787" lon="7.04929">
        <ele>2450.5</ele>
        <time>2026-09-03T11:12:21Z</time>
      </trkpt>
      <trkpt lat="44.70787" lon="7.04929">
        <ele>2450.5</ele>
        <time>2026-09-03T11:12:26Z</time>
      </trkpt>
      <trkpt lat="44.70787" lon="7.04929">
        <ele>2450.5</ele>
        <time>2026-09-03T11:12:32Z</time>
      </trkpt>
      <trkpt lat="44.70784" lon="7.04927">
        <ele>2450.1</ele>
        <time>2026-09-03T11:12:37Z</time>
      </trkpt>
      <trkpt lat="44.70779" lon="7.04923">
        <ele>2449.4</ele>
        <time>2026-09-03T11:12:42Z</time>
      </trkpt>
      <trkpt lat="44.70774" lon="7.04919">
        <ele>2448.7</ele>
        <time>2026-09-03T11:12:48Z</time>
      </trkpt>
      <trkpt lat="44.70771" lon="7.04916">
        <ele>2448.2</ele>
        <time>2026-09-03T11:12:53Z</time>
      </trkpt>
      <trkpt lat="44.7077" lon="7.04915">
        <ele>2448</ele>
        <time>2026-09-03T11:12:58Z</time>
      </trkpt>
      <trkpt lat="44.7077" lon="7.04915">
        <ele>2448</ele>
        <time>2026-09-03T11:13:04Z</time>
      </trkpt>
      <trkpt lat="44.70768" lon="7.04915">
        <ele>2447.8</ele>
        <time>2026-09-03T11:13:09Z</time>
      </trkpt>
      <trkpt lat="44.70763" lon="7.04912">
        <ele>2447</ele>
        <time>2026-09-03T11:13:14Z</time>
      </trkpt>
      <trkpt lat="44.70756" lon="7.04911">
        <ele>2446.4</ele>
        <time>2026-09-03T11:13:20Z</time>
      </trkpt>
      <trkpt lat="44.7075" lon="7.04914">
        <ele>2446.5</ele>
        <time>2026-09-03T11:13:25Z</time>
      </trkpt>
      <trkpt lat="44.70743" lon="7.04915">
        <ele>2446.2</ele>
        <time>2026-09-03T11:13:30Z</time>
      </trkpt>
      <trkpt lat="44.70735" lon="7.04918">
        <ele>2446.1</ele>
        <time>2026-09-03T11:13:36Z</time>
      </trkpt>
      <trkpt lat="44.70731" lon="7.04919">
        <ele>2446</ele>
        <time>2026-09-03T11:13:41Z</time>
      </trkpt>
      <trkpt lat="44.70731" lon="7.04919">
        <ele>2446</ele>
        <time>2026-09-03T11:13:46Z</time>
      </trkpt>
      <trkpt lat="44.70731" lon="7.04919">
        <ele>2446</ele>
        <time>2026-09-03T11:13:52Z</time>
      </trkpt>
      <trkpt lat="44.70731" lon="7.04919">
        <ele>2446</ele>
        <time>2026-09-03T11:13:57Z</time>
      </trkpt>
      <trkpt lat="44.70731" lon="7.04919">
        <ele>2446</ele>
        <time>2026-09-03T11:14:02Z</time>
      </trkpt>
      <trkpt lat="44.70726" lon="7.04912">
        <ele>2444.3</ele>
        <time>2026-09-03T11:14:08Z</time>
      </trkpt>
      <trkpt lat="44.70722" lon="7.04903">
        <ele>2442.2</ele>
        <time>2026-09-03T11:14:13Z</time>
      </trkpt>
      <trkpt lat="44.70721" lon="7.04897">
        <ele>2440.9</ele>
        <time>2026-09-03T11:14:18Z</time>
      </trkpt>
      <trkpt lat="44.70721" lon="7.04897">
        <ele>2440.9</ele>
        <time>2026-09-03T11:14:24Z</time>
      </trkpt>
      <trkpt lat="44.70721" lon="7.04895">
        <ele>2440.5</ele>
        <time>2026-09-03T11:14:29Z</time>
      </trkpt>
      <trkpt lat="44.70719" lon="7.04888">
        <ele>2438.8</ele>
        <time>2026-09-03T11:14:34Z</time>
      </trkpt>
      <trkpt lat="44.70716" lon="7.04876">
        <ele>2436</ele>
        <time>2026-09-03T11:14:40Z</time>
      </trkpt>
      <trkpt lat="44.70712" lon="7.04867">
        <ele>2433.7</ele>
        <time>2026-09-03T11:14:45Z</time>
      </trkpt>
      <trkpt lat="44.70709" lon="7.04858">
        <ele>2431.4</ele>
        <time>2026-09-03T11:14:50Z</time>
      </trkpt>
      <trkpt lat="44.70704" lon="7.04848">
        <ele>2428.6</ele>
        <time>2026-09-03T11:14:56Z</time>
      </trkpt>
      <trkpt lat="44.70702" lon="7.04841">
        <ele>2426.8</ele>
        <time>2026-09-03T11:15:01Z</time>
      </trkpt>
      <trkpt lat="44.70699" lon="7.04833">
        <ele>2424.5</ele>
        <time>2026-09-03T11:15:06Z</time>
      </trkpt>
      <trkpt lat="44.70696" lon="7.04822">
        <ele>2420.2</ele>
        <time>2026-09-03T11:15:12Z</time>
      </trkpt>
      <trkpt lat="44.70693" lon="7.04813">
        <ele>2416.5</ele>
        <time>2026-09-03T11:15:17Z</time>
      </trkpt>
      <trkpt lat="44.70691" lon="7.04807">
        <ele>2413.9</ele>
        <time>2026-09-03T11:15:22Z</time>
      </trkpt>
      <trkpt lat="44.70691" lon="7.04802">
        <ele>2412.1</ele>
        <time>2026-09-03T11:15:28Z</time>
      </trkpt>
      <trkpt lat="44.70689" lon="7.04796">
        <ele>2409.5</ele>
        <time>2026-09-03T11:15:33Z</time>
      </trkpt>
      <trkpt lat="44.70687" lon="7.0479">
        <ele>2406.8</ele>
        <time>2026-09-03T11:15:38Z</time>
      </trkpt>
      <trkpt lat="44.70688" lon="7.04785">
        <ele>2405.1</ele>
        <time>2026-09-03T11:15:44Z</time>
      </trkpt>
      <trkpt lat="44.70689" lon="7.04778">
        <ele>2402.8</ele>
        <time>2026-09-03T11:15:49Z</time>
      </trkpt>
      <trkpt lat="44.7069" lon="7.04772">
        <ele>2400.9</ele>
        <time>2026-09-03T11:15:54Z</time>
      </trkpt>
      <trkpt lat="44.7069" lon="7.04766">
        <ele>2398.7</ele>
        <time>2026-09-03T11:16:00Z</time>
      </trkpt>
      <trkpt lat="44.70691" lon="7.04766">
        <ele>2399</ele>
        <time>2026-09-03T11:16:05Z</time>
      </trkpt>
      <trkpt lat="44.70691" lon="7.04766">
        <ele>2399</ele>
        <time>2026-09-03T11:16:10Z</time>
      </trkpt>
      <trkpt lat="44.70691" lon="7.04766">
        <ele>2399</ele>
        <time>2026-09-03T11:16:16Z</time>
      </trkpt>
      <trkpt lat="44.70691" lon="7.04766">
        <ele>2399</ele>
        <time>2026-09-03T11:16:21Z</time>
      </trkpt>
      <trkpt lat="44.70691" lon="7.04766">
        <ele>2399</ele>
        <time>2026-09-03T11:16:26Z</time>
      </trkpt>
      <trkpt lat="44.70691" lon="7.04757">
        <ele>2395.7</ele>
        <time>2026-09-03T11:16:32Z</time>
      </trkpt>
      <trkpt lat="44.70691" lon="7.04752">
        <ele>2393.9</ele>
        <time>2026-09-03T11:16:37Z</time>
      </trkpt>
      <trkpt lat="44.70691" lon="7.04748">
        <ele>2392.5</ele>
        <time>2026-09-03T11:16:42Z</time>
      </trkpt>
      <trkpt lat="44.70692" lon="7.04742">
        <ele>2390.8</ele>
        <time>2026-09-03T11:16:48Z</time>
      </trkpt>
      <trkpt lat="44.70694" lon="7.04735">
        <ele>2389.1</ele>
        <time>2026-09-03T11:16:53Z</time>
      </trkpt>
      <trkpt lat="44.70692" lon="7.0473">
        <ele>2386.7</ele>
        <time>2026-09-03T11:16:58Z</time>
      </trkpt>
      <trkpt lat="44.70687" lon="7.04731">
        <ele>2385.3</ele>
        <time>2026-09-03T11:17:04Z</time>
      </trkpt>
      <trkpt lat="44.70686" lon="7.04726">
        <ele>2383.2</ele>
        <time>2026-09-03T11:17:09Z</time>
      </trkpt>
      <trkpt lat="44.70688" lon="7.04722">
        <ele>2382.5</ele>
        <time>2026-09-03T11:17:14Z</time>
      </trkpt>
      <trkpt lat="44.70692" lon="7.04714">
        <ele>2381.2</ele>
        <time>2026-09-03T11:17:20Z</time>
      </trkpt>
      <trkpt lat="44.70695" lon="7.04712">
        <ele>2381.6</ele>
        <time>2026-09-03T11:17:25Z</time>
      </trkpt>
      <trkpt lat="44.70699" lon="7.04707">
        <ele>2381.4</ele>
        <time>2026-09-03T11:17:30Z</time>
      </trkpt>
      <trkpt lat="44.70702" lon="7.04703">
        <ele>2381.1</ele>
        <time>2026-09-03T11:17:36Z</time>
      </trkpt>
      <trkpt lat="44.707" lon="7.04696">
        <ele>2378.1</ele>
        <time>2026-09-03T11:17:41Z</time>
      </trkpt>
      <trkpt lat="44.70696" lon="7.04696">
        <ele>2376.6</ele>
        <time>2026-09-03T11:17:46Z</time>
      </trkpt>
      <trkpt lat="44.70689" lon="7.04699">
        <ele>2375</ele>
        <time>2026-09-03T11:17:52Z</time>
      </trkpt>
      <trkpt lat="44.70689" lon="7.047">
        <ele>2375.3</ele>
        <time>2026-09-03T11:17:57Z</time>
      </trkpt>
      <trkpt lat="44.70689" lon="7.047">
        <ele>2375.3</ele>
        <time>2026-09-03T11:18:02Z</time>
      </trkpt>
      <trkpt lat="44.70689" lon="7.047">
        <ele>2375.3</ele>
        <time>2026-09-03T11:18:08Z</time>
      </trkpt>
      <trkpt lat="44.70689" lon="7.047">
        <ele>2375.3</ele>
        <time>2026-09-03T11:18:13Z</time>
      </trkpt>
      <trkpt lat="44.70689" lon="7.047">
        <ele>2375.3</ele>
        <time>2026-09-03T11:18:18Z</time>
      </trkpt>
      <trkpt lat="44.70689" lon="7.047">
        <ele>2375.3</ele>
        <time>2026-09-03T11:18:24Z</time>
      </trkpt>
      <trkpt lat="44.70685" lon="7.04692">
        <ele>2371</ele>
        <time>2026-09-03T11:18:29Z</time>
      </trkpt>
      <trkpt lat="44.70687" lon="7.04687">
        <ele>2370.1</ele>
        <time>2026-09-03T11:18:34Z</time>
      </trkpt>
      <trkpt lat="44.70691" lon="7.04682">
        <ele>2369.9</ele>
        <time>2026-09-03T11:18:40Z</time>
      </trkpt>
      <trkpt lat="44.70694" lon="7.04678">
        <ele>2369.7</ele>
        <time>2026-09-03T11:18:45Z</time>
      </trkpt>
      <trkpt lat="44.70694" lon="7.04672">
        <ele>2367.6</ele>
        <time>2026-09-03T11:18:50Z</time>
      </trkpt>
      <trkpt lat="44.70697" lon="7.04667">
        <ele>2367.1</ele>
        <time>2026-09-03T11:18:56Z</time>
      </trkpt>
      <trkpt lat="44.707" lon="7.04663">
        <ele>2366.9</ele>
        <time>2026-09-03T11:19:01Z</time>
      </trkpt>
      <trkpt lat="44.70705" lon="7.04661">
        <ele>2368.1</ele>
        <time>2026-09-03T11:19:06Z</time>
      </trkpt>
      <trkpt lat="44.70711" lon="7.04661">
        <ele>2370.5</ele>
        <time>2026-09-03T11:19:12Z</time>
      </trkpt>
      <trkpt lat="44.70717" lon="7.04662">
        <ele>2373.3</ele>
        <time>2026-09-03T11:19:17Z</time>
      </trkpt>
      <trkpt lat="44.70721" lon="7.04662">
        <ele>2374.9</ele>
        <time>2026-09-03T11:19:22Z</time>
      </trkpt>
      <trkpt lat="44.70727" lon="7.0466">
        <ele>2376.6</ele>
        <time>2026-09-03T11:19:28Z</time>
      </trkpt>
      <trkpt lat="44.70729" lon="7.04658">
        <ele>2376.7</ele>
        <time>2026-09-03T11:19:33Z</time>
      </trkpt>
      <trkpt lat="44.70732" lon="7.04655">
        <ele>2376.8</ele>
        <time>2026-09-03T11:19:38Z</time>
      </trkpt>
      <trkpt lat="44.70735" lon="7.04654">
        <ele>2377.7</ele>
        <time>2026-09-03T11:19:44Z</time>
      </trkpt>
      <trkpt lat="44.70738" lon="7.04651">
        <ele>2377.9</ele>
        <time>2026-09-03T11:19:49Z</time>
      </trkpt>
      <trkpt lat="44.70742" lon="7.04648">
        <ele>2378.5</ele>
        <time>2026-09-03T11:19:54Z</time>
      </trkpt>
      <trkpt lat="44.70746" lon="7.0464">
        <ele>2377.4</ele>
        <time>2026-09-03T11:20:00Z</time>
      </trkpt>
      <trkpt lat="44.70747" lon="7.04634">
        <ele>2375.8</ele>
        <time>2026-09-03T11:20:05Z</time>
      </trkpt>
      <trkpt lat="44.7075" lon="7.04628">
        <ele>2375</ele>
        <time>2026-09-03T11:20:10Z</time>
      </trkpt>
      <trkpt lat="44.70744" lon="7.04622">
        <ele>2370.5</ele>
        <time>2026-09-03T11:20:16Z</time>
      </trkpt>
      <trkpt lat="44.70739" lon="7.04619">
        <ele>2367.3</ele>
        <time>2026-09-03T11:20:21Z</time>
      </trkpt>
      <trkpt lat="44.70735" lon="7.04618">
        <ele>2365.3</ele>
        <time>2026-09-03T11:20:26Z</time>
      </trkpt>
      <trkpt lat="44.70729" lon="7.04615">
        <ele>2361.7</ele>
        <time>2026-09-03T11:20:32Z</time>
      </trkpt>
      <trkpt lat="44.70724" lon="7.04611">
        <ele>2358.2</ele>
        <time>2026-09-03T11:20:37Z</time>
      </trkpt>
      <trkpt lat="44.70724" lon="7.04605">
        <ele>2356.1</ele>
        <time>2026-09-03T11:20:42Z</time>
      </trkpt>
      <trkpt lat="44.70721" lon="7.04601">
        <ele>2353.4</ele>
        <time>2026-09-03T11:20:48Z</time>
      </trkpt>
      <trkpt lat="44.70718" lon="7.04598">
        <ele>2351</ele>
        <time>2026-09-03T11:20:53Z</time>
      </trkpt>
      <trkpt lat="44.70716" lon="7.04593">
        <ele>2348.3</ele>
        <time>2026-09-03T11:20:58Z</time>
      </trkpt>
      <trkpt lat="44.70714" lon="7.04587">
        <ele>2345.3</ele>
        <time>2026-09-03T11:21:04Z</time>
      </trkpt>
      <trkpt lat="44.70711" lon="7.04582">
        <ele>2342.3</ele>
        <time>2026-09-03T11:21:09Z</time>
      </trkpt>
      <trkpt lat="44.70708" lon="7.0458">
        <ele>2340.4</ele>
        <time>2026-09-03T11:21:14Z</time>
      </trkpt>
      <trkpt lat="44.7071" lon="7.0458">
        <ele>2341.3</ele>
        <time>2026-09-03T11:21:20Z</time>
      </trkpt>
      <trkpt lat="44.7071" lon="7.0458">
        <ele>2341.3</ele>
        <time>2026-09-03T11:21:25Z</time>
      </trkpt>
      <trkpt lat="44.7071" lon="7.0458">
        <ele>2341.3</ele>
        <time>2026-09-03T11:21:30Z</time>
      </trkpt>
      <trkpt lat="44.7071" lon="7.0458">
        <ele>2341.3</ele>
        <time>2026-09-03T11:21:36Z</time>
      </trkpt>
      <trkpt lat="44.70711" lon="7.04578">
        <ele>2341.1</ele>
        <time>2026-09-03T11:21:41Z</time>
      </trkpt>
      <trkpt lat="44.70713" lon="7.04576">
        <ele>2341.5</ele>
        <time>2026-09-03T11:21:46Z</time>
      </trkpt>
      <trkpt lat="44.70717" lon="7.04574">
        <ele>2342.7</ele>
        <time>2026-09-03T11:21:52Z</time>
      </trkpt>
      <trkpt lat="44.70721" lon="7.04571">
        <ele>2343.6</ele>
        <time>2026-09-03T11:21:57Z</time>
      </trkpt>
      <trkpt lat="44.70724" lon="7.0457">
        <ele>2344.6</ele>
        <time>2026-09-03T11:22:02Z</time>
      </trkpt>
      <trkpt lat="44.70725" lon="7.04564">
        <ele>2343.3</ele>
        <time>2026-09-03T11:22:08Z</time>
      </trkpt>
      <trkpt lat="44.70725" lon="7.04558">
        <ele>2341.6</ele>
        <time>2026-09-03T11:22:13Z</time>
      </trkpt>
      <trkpt lat="44.70724" lon="7.04551">
        <ele>2339.1</ele>
        <time>2026-09-03T11:22:18Z</time>
      </trkpt>
      <trkpt lat="44.70724" lon="7.04545">
        <ele>2337.4</ele>
        <time>2026-09-03T11:22:24Z</time>
      </trkpt>
      <trkpt lat="44.70724" lon="7.04539">
        <ele>2335.7</ele>
        <time>2026-09-03T11:22:29Z</time>
      </trkpt>
      <trkpt lat="44.70727" lon="7.04532">
        <ele>2335</ele>
        <time>2026-09-03T11:22:34Z</time>
      </trkpt>
      <trkpt lat="44.70728" lon="7.04523">
        <ele>2332.9</ele>
        <time>2026-09-03T11:22:40Z</time>
      </trkpt>
      <trkpt lat="44.70729" lon="7.04515">
        <ele>2331</ele>
        <time>2026-09-03T11:22:45Z</time>
      </trkpt>
      <trkpt lat="44.7073" lon="7.04509">
        <ele>2329.7</ele>
        <time>2026-09-03T11:22:50Z</time>
      </trkpt>
      <trkpt lat="44.70729" lon="7.04502">
        <ele>2327.3</ele>
        <time>2026-09-03T11:22:56Z</time>
      </trkpt>
      <trkpt lat="44.70729" lon="7.04494">
        <ele>2325.6</ele>
        <time>2026-09-03T11:23:01Z</time>
      </trkpt>
      <trkpt lat="44.70732" lon="7.04489">
        <ele>2326</ele>
        <time>2026-09-03T11:23:06Z</time>
      </trkpt>
      <trkpt lat="44.70733" lon="7.04482">
        <ele>2325.2</ele>
        <time>2026-09-03T11:23:12Z</time>
      </trkpt>
      <trkpt lat="44.70735" lon="7.04475">
        <ele>2324.8</ele>
        <time>2026-09-03T11:23:17Z</time>
      </trkpt>
      <trkpt lat="44.70738" lon="7.04467">
        <ele>2324.7</ele>
        <time>2026-09-03T11:23:22Z</time>
      </trkpt>
      <trkpt lat="44.7074" lon="7.04459">
        <ele>2324.2</ele>
        <time>2026-09-03T11:23:28Z</time>
      </trkpt>
      <trkpt lat="44.70742" lon="7.04453">
        <ele>2324</ele>
        <time>2026-09-03T11:23:33Z</time>
      </trkpt>
      <trkpt lat="44.70744" lon="7.04447">
        <ele>2323.8</ele>
        <time>2026-09-03T11:23:38Z</time>
      </trkpt>
      <trkpt lat="44.70747" lon="7.04439">
        <ele>2323.7</ele>
        <time>2026-09-03T11:23:44Z</time>
      </trkpt>
      <trkpt lat="44.70749" lon="7.04435">
        <ele>2323.9</ele>
        <time>2026-09-03T11:23:49Z</time>
      </trkpt>
      <trkpt lat="44.7075" lon="7.0443">
        <ele>2323.4</ele>
        <time>2026-09-03T11:23:54Z</time>
      </trkpt>
      <trkpt lat="44.70752" lon="7.04426">
        <ele>2323.3</ele>
        <time>2026-09-03T11:24:00Z</time>
      </trkpt>
      <trkpt lat="44.70753" lon="7.0442">
        <ele>2322.5</ele>
        <time>2026-09-03T11:24:05Z</time>
      </trkpt>
      <trkpt lat="44.70753" lon="7.04414">
        <ele>2321.4</ele>
        <time>2026-09-03T11:24:10Z</time>
      </trkpt>
      <trkpt lat="44.70755" lon="7.04407">
        <ele>2320.9</ele>
        <time>2026-09-03T11:24:16Z</time>
      </trkpt>
      <trkpt lat="44.70755" lon="7.04402">
        <ele>2320.1</ele>
        <time>2026-09-03T11:24:21Z</time>
      </trkpt>
      <trkpt lat="44.70755" lon="7.04397">
        <ele>2319.3</ele>
        <time>2026-09-03T11:24:26Z</time>
      </trkpt>
      <trkpt lat="44.70755" lon="7.04397">
        <ele>2319.3</ele>
        <time>2026-09-03T11:24:32Z</time>
      </trkpt>
      <trkpt lat="44.70755" lon="7.04397">
        <ele>2319.3</ele>
        <time>2026-09-03T11:24:37Z</time>
      </trkpt>
      <trkpt lat="44.70755" lon="7.04397">
        <ele>2319.3</ele>
        <time>2026-09-03T11:24:42Z</time>
      </trkpt>
      <trkpt lat="44.70755" lon="7.04397">
        <ele>2319.3</ele>
        <time>2026-09-03T11:24:48Z</time>
      </trkpt>
      <trkpt lat="44.70755" lon="7.04397">
        <ele>2319.3</ele>
        <time>2026-09-03T11:24:53Z</time>
      </trkpt>
      <trkpt lat="44.70755" lon="7.04397">
        <ele>2319.3</ele>
        <time>2026-09-03T11:24:58Z</time>
      </trkpt>
      <trkpt lat="44.70759" lon="7.04389">
        <ele>2319.2</ele>
        <time>2026-09-03T11:25:04Z</time>
      </trkpt>
      <trkpt lat="44.70762" lon="7.04386">
        <ele>2319.6</ele>
        <time>2026-09-03T11:25:09Z</time>
      </trkpt>
      <trkpt lat="44.70764" lon="7.04383">
        <ele>2319.6</ele>
        <time>2026-09-03T11:25:14Z</time>
      </trkpt>
      <trkpt lat="44.70768" lon="7.04376">
        <ele>2319.6</ele>
        <time>2026-09-03T11:25:20Z</time>
      </trkpt>
      <trkpt lat="44.7077" lon="7.04369">
        <ele>2319</ele>
        <time>2026-09-03T11:25:25Z</time>
      </trkpt>
      <trkpt lat="44.70773" lon="7.04364">
        <ele>2319.1</ele>
        <time>2026-09-03T11:25:30Z</time>
      </trkpt>
      <trkpt lat="44.70774" lon="7.04352">
        <ele>2317.4</ele>
        <time>2026-09-03T11:25:36Z</time>
      </trkpt>
      <trkpt lat="44.70776" lon="7.04345">
        <ele>2316.8</ele>
        <time>2026-09-03T11:25:41Z</time>
      </trkpt>
      <trkpt lat="44.70775" lon="7.04339">
        <ele>2315.5</ele>
        <time>2026-09-03T11:25:46Z</time>
      </trkpt>
      <trkpt lat="44.70778" lon="7.04332">
        <ele>2315.1</ele>
        <time>2026-09-03T11:25:52Z</time>
      </trkpt>
      <trkpt lat="44.7078" lon="7.04325">
        <ele>2314.3</ele>
        <time>2026-09-03T11:25:57Z</time>
      </trkpt>
      <trkpt lat="44.70779" lon="7.04319">
        <ele>2312.9</ele>
        <time>2026-09-03T11:26:02Z</time>
      </trkpt>
      <trkpt lat="44.70779" lon="7.04313">
        <ele>2311.8</ele>
        <time>2026-09-03T11:26:08Z</time>
      </trkpt>
      <trkpt lat="44.70781" lon="7.04307">
        <ele>2311.1</ele>
        <time>2026-09-03T11:26:13Z</time>
      </trkpt>
      <trkpt lat="44.70781" lon="7.04302">
        <ele>2310.2</ele>
        <time>2026-09-03T11:26:18Z</time>
      </trkpt>
      <trkpt lat="44.70782" lon="7.04295">
        <ele>2309.1</ele>
        <time>2026-09-03T11:26:24Z</time>
      </trkpt>
      <trkpt lat="44.70783" lon="7.0429">
        <ele>2308.4</ele>
        <time>2026-09-03T11:26:29Z</time>
      </trkpt>
      <trkpt lat="44.70784" lon="7.04285">
        <ele>2307.7</ele>
        <time>2026-09-03T11:26:34Z</time>
      </trkpt>
      <trkpt lat="44.70786" lon="7.04276">
        <ele>2306.5</ele>
        <time>2026-09-03T11:26:40Z</time>
      </trkpt>
      <trkpt lat="44.70789" lon="7.04269">
        <ele>2305.9</ele>
        <time>2026-09-03T11:26:45Z</time>
      </trkpt>
      <trkpt lat="44.70791" lon="7.04263">
        <ele>2305.3</ele>
        <time>2026-09-03T11:26:50Z</time>
      </trkpt>
      <trkpt lat="44.70791" lon="7.04256">
        <ele>2304</ele>
        <time>2026-09-03T11:26:56Z</time>
      </trkpt>
      <trkpt lat="44.70793" lon="7.0425">
        <ele>2303.4</ele>
        <time>2026-09-03T11:27:01Z</time>
      </trkpt>
      <trkpt lat="44.70795" lon="7.04243">
        <ele>2302.3</ele>
        <time>2026-09-03T11:27:06Z</time>
      </trkpt>
      <trkpt lat="44.70798" lon="7.04236">
        <ele>2301.5</ele>
        <time>2026-09-03T11:27:12Z</time>
      </trkpt>
      <trkpt lat="44.708" lon="7.04231">
        <ele>2300.9</ele>
        <time>2026-09-03T11:27:17Z</time>
      </trkpt>
      <trkpt lat="44.70802" lon="7.04226">
        <ele>2300.3</ele>
        <time>2026-09-03T11:27:22Z</time>
      </trkpt>
      <trkpt lat="44.70802" lon="7.04219">
        <ele>2298.7</ele>
        <time>2026-09-03T11:27:28Z</time>
      </trkpt>
      <trkpt lat="44.70799" lon="7.04216">
        <ele>2297.2</ele>
        <time>2026-09-03T11:27:33Z</time>
      </trkpt>
      <trkpt lat="44.70795" lon="7.0421">
        <ele>2294.6</ele>
        <time>2026-09-03T11:27:38Z</time>
      </trkpt>
      <trkpt lat="44.70792" lon="7.04203">
        <ele>2292.1</ele>
        <time>2026-09-03T11:27:44Z</time>
      </trkpt>
      <trkpt lat="44.7079" lon="7.042">
        <ele>2290.8</ele>
        <time>2026-09-03T11:27:49Z</time>
      </trkpt>
      <trkpt lat="44.70788" lon="7.04196">
        <ele>2289.3</ele>
        <time>2026-09-03T11:27:54Z</time>
      </trkpt>
      <trkpt lat="44.70784" lon="7.0419">
        <ele>2286.6</ele>
        <time>2026-09-03T11:28:00Z</time>
      </trkpt>
      <trkpt lat="44.70783" lon="7.04189">
        <ele>2286.1</ele>
        <time>2026-09-03T11:28:05Z</time>
      </trkpt>
      <trkpt lat="44.70783" lon="7.04189">
        <ele>2286.1</ele>
        <time>2026-09-03T11:28:10Z</time>
      </trkpt>
      <trkpt lat="44.70783" lon="7.04189">
        <ele>2286.1</ele>
        <time>2026-09-03T11:28:16Z</time>
      </trkpt>
      <trkpt lat="44.70781" lon="7.04186">
        <ele>2284.7</ele>
        <time>2026-09-03T11:28:21Z</time>
      </trkpt>
      <trkpt lat="44.70781" lon="7.04186">
        <ele>2284.7</ele>
        <time>2026-09-03T11:28:26Z</time>
      </trkpt>
      <trkpt lat="44.70781" lon="7.04181">
        <ele>2283.5</ele>
        <time>2026-09-03T11:28:32Z</time>
      </trkpt>
      <trkpt lat="44.70782" lon="7.04176">
        <ele>2282.6</ele>
        <time>2026-09-03T11:28:37Z</time>
      </trkpt>
      <trkpt lat="44.70782" lon="7.04171">
        <ele>2281.4</ele>
        <time>2026-09-03T11:28:42Z</time>
      </trkpt>
      <trkpt lat="44.70783" lon="7.04166">
        <ele>2280.6</ele>
        <time>2026-09-03T11:28:48Z</time>
      </trkpt>
      <trkpt lat="44.70785" lon="7.04162">
        <ele>2280.4</ele>
        <time>2026-09-03T11:28:53Z</time>
      </trkpt>
      <trkpt lat="44.70786" lon="7.04157">
        <ele>2279.8</ele>
        <time>2026-09-03T11:28:58Z</time>
      </trkpt>
      <trkpt lat="44.70785" lon="7.0415">
        <ele>2278.1</ele>
        <time>2026-09-03T11:29:04Z</time>
      </trkpt>
      <trkpt lat="44.70783" lon="7.04143">
        <ele>2276</ele>
        <time>2026-09-03T11:29:09Z</time>
      </trkpt>
      <trkpt lat="44.70783" lon="7.04136">
        <ele>2274.7</ele>
        <time>2026-09-03T11:29:14Z</time>
      </trkpt>
      <trkpt lat="44.70782" lon="7.04127">
        <ele>2272.5</ele>
        <time>2026-09-03T11:29:20Z</time>
      </trkpt>
      <trkpt lat="44.70781" lon="7.0412">
        <ele>2270.8</ele>
        <time>2026-09-03T11:29:25Z</time>
      </trkpt>
      <trkpt lat="44.70781" lon="7.04112">
        <ele>2269.2</ele>
        <time>2026-09-03T11:29:30Z</time>
      </trkpt>
      <trkpt lat="44.70779" lon="7.04105">
        <ele>2267.1</ele>
        <time>2026-09-03T11:29:36Z</time>
      </trkpt>
      <trkpt lat="44.70778" lon="7.04099">
        <ele>2265.5</ele>
        <time>2026-09-03T11:29:41Z</time>
      </trkpt>
      <trkpt lat="44.70778" lon="7.04096">
        <ele>2264.9</ele>
        <time>2026-09-03T11:29:46Z</time>
      </trkpt>
      <trkpt lat="44.70779" lon="7.04089">
        <ele>2263.9</ele>
        <time>2026-09-03T11:29:52Z</time>
      </trkpt>
      <trkpt lat="44.7078" lon="7.04081">
        <ele>2262.7</ele>
        <time>2026-09-03T11:29:57Z</time>
      </trkpt>
      <trkpt lat="44.70784" lon="7.04074">
        <ele>2262.9</ele>
        <time>2026-09-03T11:30:02Z</time>
      </trkpt>
      <trkpt lat="44.70787" lon="7.04065">
        <ele>2262.3</ele>
        <time>2026-09-03T11:30:08Z</time>
      </trkpt>
      <trkpt lat="44.70788" lon="7.04056">
        <ele>2260.9</ele>
        <time>2026-09-03T11:30:13Z</time>
      </trkpt>
      <trkpt lat="44.70788" lon="7.0405">
        <ele>2259.8</ele>
        <time>2026-09-03T11:30:18Z</time>
      </trkpt>
      <trkpt lat="44.70786" lon="7.04046">
        <ele>2258.3</ele>
        <time>2026-09-03T11:30:24Z</time>
      </trkpt>
      <trkpt lat="44.70783" lon="7.04045">
        <ele>2257</ele>
        <time>2026-09-03T11:30:29Z</time>
      </trkpt>
      <trkpt lat="44.7078" lon="7.04044">
        <ele>2255.7</ele>
        <time>2026-09-03T11:30:34Z</time>
      </trkpt>
      <trkpt lat="44.70776" lon="7.04041">
        <ele>2253.7</ele>
        <time>2026-09-03T11:30:40Z</time>
      </trkpt>
      <trkpt lat="44.70772" lon="7.04041">
        <ele>2252.3</ele>
        <time>2026-09-03T11:30:45Z</time>
      </trkpt>
      <trkpt lat="44.70769" lon="7.04038">
        <ele>2250.7</ele>
        <time>2026-09-03T11:30:50Z</time>
      </trkpt>
      <trkpt lat="44.70765" lon="7.0403">
        <ele>2247.7</ele>
        <time>2026-09-03T11:30:56Z</time>
      </trkpt>
      <trkpt lat="44.70763" lon="7.04028">
        <ele>2246.7</ele>
        <time>2026-09-03T11:31:01Z</time>
      </trkpt>
      <trkpt lat="44.70763" lon="7.04028">
        <ele>2246.7</ele>
        <time>2026-09-03T11:31:06Z</time>
      </trkpt>
      <trkpt lat="44.70763" lon="7.04028">
        <ele>2246.7</ele>
        <time>2026-09-03T11:31:12Z</time>
      </trkpt>
      <trkpt lat="44.70763" lon="7.04028">
        <ele>2246.7</ele>
        <time>2026-09-03T11:31:17Z</time>
      </trkpt>
      <trkpt lat="44.7076" lon="7.04025">
        <ele>2245.1</ele>
        <time>2026-09-03T11:31:22Z</time>
      </trkpt>
      <trkpt lat="44.7076" lon="7.04015">
        <ele>2243.2</ele>
        <time>2026-09-03T11:31:28Z</time>
      </trkpt>
      <trkpt lat="44.70763" lon="7.04009">
        <ele>2243.2</ele>
        <time>2026-09-03T11:31:33Z</time>
      </trkpt>
      <trkpt lat="44.70764" lon="7.04002">
        <ele>2242.2</ele>
        <time>2026-09-03T11:31:38Z</time>
      </trkpt>
      <trkpt lat="44.70765" lon="7.03994">
        <ele>2240.8</ele>
        <time>2026-09-03T11:31:44Z</time>
      </trkpt>
      <trkpt lat="44.70767" lon="7.03988">
        <ele>2240.1</ele>
        <time>2026-09-03T11:31:49Z</time>
      </trkpt>
      <trkpt lat="44.70768" lon="7.03982">
        <ele>2239</ele>
        <time>2026-09-03T11:31:54Z</time>
      </trkpt>
      <trkpt lat="44.70771" lon="7.03974">
        <ele>2238.1</ele>
        <time>2026-09-03T11:32:00Z</time>
      </trkpt>
      <trkpt lat="44.70774" lon="7.03969">
        <ele>2238</ele>
        <time>2026-09-03T11:32:05Z</time>
      </trkpt>
      <trkpt lat="44.70775" lon="7.03963">
        <ele>2236.9</ele>
        <time>2026-09-03T11:32:10Z</time>
      </trkpt>
      <trkpt lat="44.70779" lon="7.03958">
        <ele>2237</ele>
        <time>2026-09-03T11:32:16Z</time>
      </trkpt>
      <trkpt lat="44.70782" lon="7.03956">
        <ele>2237.5</ele>
        <time>2026-09-03T11:32:21Z</time>
      </trkpt>
      <trkpt lat="44.70786" lon="7.03952">
        <ele>2237.8</ele>
        <time>2026-09-03T11:32:26Z</time>
      </trkpt>
      <trkpt lat="44.70788" lon="7.03944">
        <ele>2236.5</ele>
        <time>2026-09-03T11:32:32Z</time>
      </trkpt>
      <trkpt lat="44.70789" lon="7.03937">
        <ele>2235.1</ele>
        <time>2026-09-03T11:32:37Z</time>
      </trkpt>
      <trkpt lat="44.70792" lon="7.03931">
        <ele>2234.6</ele>
        <time>2026-09-03T11:32:42Z</time>
      </trkpt>
      <trkpt lat="44.70795" lon="7.03921">
        <ele>2233.1</ele>
        <time>2026-09-03T11:32:48Z</time>
      </trkpt>
      <trkpt lat="44.70799" lon="7.03913">
        <ele>2232</ele>
        <time>2026-09-03T11:32:53Z</time>
      </trkpt>
      <trkpt lat="44.70804" lon="7.03908">
        <ele>2231.8</ele>
        <time>2026-09-03T11:32:58Z</time>
      </trkpt>
      <trkpt lat="44.70809" lon="7.039">
        <ele>2230.6</ele>
        <time>2026-09-03T11:33:04Z</time>
      </trkpt>
      <trkpt lat="44.70813" lon="7.03893">
        <ele>2229.5</ele>
        <time>2026-09-03T11:33:09Z</time>
      </trkpt>
      <trkpt lat="44.70819" lon="7.03886">
        <ele>2229.1</ele>
        <time>2026-09-03T11:33:14Z</time>
      </trkpt>
      <trkpt lat="44.70826" lon="7.03879">
        <ele>2229.2</ele>
        <time>2026-09-03T11:33:20Z</time>
      </trkpt>
      <trkpt lat="44.70832" lon="7.03872">
        <ele>2229.1</ele>
        <time>2026-09-03T11:33:25Z</time>
      </trkpt>
      <trkpt lat="44.70834" lon="7.03861">
        <ele>2226.2</ele>
        <time>2026-09-03T11:33:30Z</time>
      </trkpt>
      <trkpt lat="44.70836" lon="7.03849">
        <ele>2223.1</ele>
        <time>2026-09-03T11:33:36Z</time>
      </trkpt>
      <trkpt lat="44.70839" lon="7.03841">
        <ele>2221.6</ele>
        <time>2026-09-03T11:33:41Z</time>
      </trkpt>
      <trkpt lat="44.70843" lon="7.03837">
        <ele>2221.9</ele>
        <time>2026-09-03T11:33:46Z</time>
      </trkpt>
      <trkpt lat="44.70844" lon="7.03827">
        <ele>2218.6</ele>
        <time>2026-09-03T11:33:52Z</time>
      </trkpt>
      <trkpt lat="44.70845" lon="7.03819">
        <ele>2215.9</ele>
        <time>2026-09-03T11:33:57Z</time>
      </trkpt>
      <trkpt lat="44.70847" lon="7.03811">
        <ele>2213.7</ele>
        <time>2026-09-03T11:34:02Z</time>
      </trkpt>
      <trkpt lat="44.7085" lon="7.038">
        <ele>2210.7</ele>
        <time>2026-09-03T11:34:08Z</time>
      </trkpt>
      <trkpt lat="44.70852" lon="7.03791">
        <ele>2208.1</ele>
        <time>2026-09-03T11:34:13Z</time>
      </trkpt>
      <trkpt lat="44.70852" lon="7.03782">
        <ele>2204.7</ele>
        <time>2026-09-03T11:34:18Z</time>
      </trkpt>
      <trkpt lat="44.70851" lon="7.03781">
        <ele>2203.9</ele>
        <time>2026-09-03T11:34:24Z</time>
      </trkpt>
      <trkpt lat="44.7085" lon="7.03781">
        <ele>2203.4</ele>
        <time>2026-09-03T11:34:29Z</time>
      </trkpt>
      <trkpt lat="44.7085" lon="7.03781">
        <ele>2203.4</ele>
        <time>2026-09-03T11:34:34Z</time>
      </trkpt>
      <trkpt lat="44.70851" lon="7.03773">
        <ele>2200.8</ele>
        <time>2026-09-03T11:34:40Z</time>
      </trkpt>
      <trkpt lat="44.70854" lon="7.0377">
        <ele>2201</ele>
        <time>2026-09-03T11:34:45Z</time>
      </trkpt>
      <trkpt lat="44.70857" lon="7.03768">
        <ele>2201.6</ele>
        <time>2026-09-03T11:34:50Z</time>
      </trkpt>
      <trkpt lat="44.70862" lon="7.03764">
        <ele>2202.3</ele>
        <time>2026-09-03T11:34:56Z</time>
      </trkpt>
      <trkpt lat="44.70865" lon="7.03759">
        <ele>2201.8</ele>
        <time>2026-09-03T11:35:01Z</time>
      </trkpt>
      <trkpt lat="44.70866" lon="7.03754">
        <ele>2200.4</ele>
        <time>2026-09-03T11:35:06Z</time>
      </trkpt>
      <trkpt lat="44.70868" lon="7.03749">
        <ele>2199.6</ele>
        <time>2026-09-03T11:35:12Z</time>
      </trkpt>
      <trkpt lat="44.70869" lon="7.03746">
        <ele>2199.6</ele>
        <time>2026-09-03T11:35:17Z</time>
      </trkpt>
      <trkpt lat="44.70871" lon="7.03743">
        <ele>2199.9</ele>
        <time>2026-09-03T11:35:22Z</time>
      </trkpt>
      <trkpt lat="44.70873" lon="7.03739">
        <ele>2200.1</ele>
        <time>2026-09-03T11:35:28Z</time>
      </trkpt>
      <trkpt lat="44.70875" lon="7.03733">
        <ele>2199.9</ele>
        <time>2026-09-03T11:35:33Z</time>
      </trkpt>
      <trkpt lat="44.70877" lon="7.03728">
        <ele>2199.9</ele>
        <time>2026-09-03T11:35:38Z</time>
      </trkpt>
      <trkpt lat="44.70878" lon="7.03727">
        <ele>2200.2</ele>
        <time>2026-09-03T11:35:44Z</time>
      </trkpt>
      <trkpt lat="44.70878" lon="7.03727">
        <ele>2200.2</ele>
        <time>2026-09-03T11:35:49Z</time>
      </trkpt>
      <trkpt lat="44.70879" lon="7.03723">
        <ele>2199.9</ele>
        <time>2026-09-03T11:35:54Z</time>
      </trkpt>
      <trkpt lat="44.70883" lon="7.03716">
        <ele>2200.4</ele>
        <time>2026-09-03T11:36:00Z</time>
      </trkpt>
      <trkpt lat="44.70884" lon="7.03712">
        <ele>2200.1</ele>
        <time>2026-09-03T11:36:05Z</time>
      </trkpt>
      <trkpt lat="44.70886" lon="7.03707">
        <ele>2200</ele>
        <time>2026-09-03T11:36:10Z</time>
      </trkpt>
      <trkpt lat="44.70888" lon="7.03696">
        <ele>2198.8</ele>
        <time>2026-09-03T11:36:16Z</time>
      </trkpt>
      <trkpt lat="44.70891" lon="7.03688">
        <ele>2198.6</ele>
        <time>2026-09-03T11:36:21Z</time>
      </trkpt>
      <trkpt lat="44.70891" lon="7.0368">
        <ele>2197.1</ele>
        <time>2026-09-03T11:36:26Z</time>
      </trkpt>
      <trkpt lat="44.70889" lon="7.03678">
        <ele>2195.8</ele>
        <time>2026-09-03T11:36:32Z</time>
      </trkpt>
      <trkpt lat="44.70884" lon="7.03683">
        <ele>2194.7</ele>
        <time>2026-09-03T11:36:37Z</time>
      </trkpt>
      <trkpt lat="44.70882" lon="7.03688">
        <ele>2194.8</ele>
        <time>2026-09-03T11:36:42Z</time>
      </trkpt>
      <trkpt lat="44.70876" lon="7.03694">
        <ele>2193.3</ele>
        <time>2026-09-03T11:36:48Z</time>
      </trkpt>
      <trkpt lat="44.70872" lon="7.03701">
        <ele>2192.9</ele>
        <time>2026-09-03T11:36:53Z</time>
      </trkpt>
      <trkpt lat="44.70871" lon="7.03706">
        <ele>2193.4</ele>
        <time>2026-09-03T11:36:58Z</time>
      </trkpt>
      <trkpt lat="44.7087" lon="7.03703">
        <ele>2192.4</ele>
        <time>2026-09-03T11:37:04Z</time>
      </trkpt>
      <trkpt lat="44.70871" lon="7.03697">
        <ele>2191.8</ele>
        <time>2026-09-03T11:37:09Z</time>
      </trkpt>
      <trkpt lat="44.7087" lon="7.0369">
        <ele>2190.1</ele>
        <time>2026-09-03T11:37:14Z</time>
      </trkpt>
      <trkpt lat="44.70869" lon="7.03681">
        <ele>2188.1</ele>
        <time>2026-09-03T11:37:20Z</time>
      </trkpt>
      <trkpt lat="44.7087" lon="7.03674">
        <ele>2187.3</ele>
        <time>2026-09-03T11:37:25Z</time>
      </trkpt>
      <trkpt lat="44.7087" lon="7.03667">
        <ele>2186</ele>
        <time>2026-09-03T11:37:30Z</time>
      </trkpt>
      <trkpt lat="44.70872" lon="7.03659">
        <ele>2186.1</ele>
        <time>2026-09-03T11:37:36Z</time>
      </trkpt>
      <trkpt lat="44.70873" lon="7.03654">
        <ele>2186</ele>
        <time>2026-09-03T11:37:41Z</time>
      </trkpt>
      <trkpt lat="44.70874" lon="7.0365">
        <ele>2186.1</ele>
        <time>2026-09-03T11:37:46Z</time>
      </trkpt>
      <trkpt lat="44.70876" lon="7.03647">
        <ele>2186.6</ele>
        <time>2026-09-03T11:37:52Z</time>
      </trkpt>
      <trkpt lat="44.70875" lon="7.03643">
        <ele>2185.9</ele>
        <time>2026-09-03T11:37:57Z</time>
      </trkpt>
      <trkpt lat="44.70875" lon="7.03639">
        <ele>2185.5</ele>
        <time>2026-09-03T11:38:02Z</time>
      </trkpt>
      <trkpt lat="44.70875" lon="7.03632">
        <ele>2184.9</ele>
        <time>2026-09-03T11:38:08Z</time>
      </trkpt>
      <trkpt lat="44.70877" lon="7.03624">
        <ele>2185</ele>
        <time>2026-09-03T11:38:13Z</time>
      </trkpt>
      <trkpt lat="44.70877" lon="7.03615">
        <ele>2184.2</ele>
        <time>2026-09-03T11:38:18Z</time>
      </trkpt>
      <trkpt lat="44.70878" lon="7.03606">
        <ele>2183.8</ele>
        <time>2026-09-03T11:38:24Z</time>
      </trkpt>
      <trkpt lat="44.7088" lon="7.03598">
        <ele>2183.9</ele>
        <time>2026-09-03T11:38:29Z</time>
      </trkpt>
      <trkpt lat="44.70881" lon="7.03589">
        <ele>2183.5</ele>
        <time>2026-09-03T11:38:34Z</time>
      </trkpt>
      <trkpt lat="44.70882" lon="7.03578">
        <ele>2182.8</ele>
        <time>2026-09-03T11:38:40Z</time>
      </trkpt>
      <trkpt lat="44.7088" lon="7.0357">
        <ele>2181.1</ele>
        <time>2026-09-03T11:38:45Z</time>
      </trkpt>
      <trkpt lat="44.70878" lon="7.03561">
        <ele>2179.2</ele>
        <time>2026-09-03T11:38:50Z</time>
      </trkpt>
      <trkpt lat="44.70878" lon="7.0355">
        <ele>2177.9</ele>
        <time>2026-09-03T11:38:56Z</time>
      </trkpt>
      <trkpt lat="44.70877" lon="7.03544">
        <ele>2176.8</ele>
        <time>2026-09-03T11:39:01Z</time>
      </trkpt>
      <trkpt lat="44.70876" lon="7.03537">
        <ele>2175.6</ele>
        <time>2026-09-03T11:39:06Z</time>
      </trkpt>
      <trkpt lat="44.70875" lon="7.03532">
        <ele>2174.6</ele>
        <time>2026-09-03T11:39:12Z</time>
      </trkpt>
      <trkpt lat="44.70874" lon="7.0353">
        <ele>2174</ele>
        <time>2026-09-03T11:39:17Z</time>
      </trkpt>
      <trkpt lat="44.70875" lon="7.03523">
        <ele>2173.6</ele>
        <time>2026-09-03T11:39:22Z</time>
      </trkpt>
      <trkpt lat="44.70876" lon="7.03515">
        <ele>2173.1</ele>
        <time>2026-09-03T11:39:28Z</time>
      </trkpt>
      <trkpt lat="44.70879" lon="7.03509">
        <ele>2173.7</ele>
        <time>2026-09-03T11:39:33Z</time>
      </trkpt>
      <trkpt lat="44.70883" lon="7.03504">
        <ele>2174.7</ele>
        <time>2026-09-03T11:39:38Z</time>
      </trkpt>
      <trkpt lat="44.70889" lon="7.03499">
        <ele>2176.6</ele>
        <time>2026-09-03T11:39:44Z</time>
      </trkpt>
      <trkpt lat="44.70892" lon="7.03494">
        <ele>2177.3</ele>
        <time>2026-09-03T11:39:49Z</time>
      </trkpt>
      <trkpt lat="44.70894" lon="7.03489">
        <ele>2177.5</ele>
        <time>2026-09-03T11:39:54Z</time>
      </trkpt>
      <trkpt lat="44.70897" lon="7.03481">
        <ele>2177.7</ele>
        <time>2026-09-03T11:40:00Z</time>
      </trkpt>
      <trkpt lat="44.70898" lon="7.03471">
        <ele>2176.8</ele>
        <time>2026-09-03T11:40:05Z</time>
      </trkpt>
      <trkpt lat="44.70901" lon="7.03461">
        <ele>2176.6</ele>
        <time>2026-09-03T11:40:10Z</time>
      </trkpt>
      <trkpt lat="44.70903" lon="7.0345">
        <ele>2175.8</ele>
        <time>2026-09-03T11:40:16Z</time>
      </trkpt>
      <trkpt lat="44.70903" lon="7.0344">
        <ele>2174.5</ele>
        <time>2026-09-03T11:40:21Z</time>
      </trkpt>
      <trkpt lat="44.70904" lon="7.0343">
        <ele>2173.4</ele>
        <time>2026-09-03T11:40:26Z</time>
      </trkpt>
      <trkpt lat="44.70907" lon="7.03419">
        <ele>2172.8</ele>
        <time>2026-09-03T11:40:32Z</time>
      </trkpt>
      <trkpt lat="44.70907" lon="7.0341">
        <ele>2171.1</ele>
        <time>2026-09-03T11:40:37Z</time>
      </trkpt>
      <trkpt lat="44.70905" lon="7.034">
        <ele>2168.6</ele>
        <time>2026-09-03T11:40:42Z</time>
      </trkpt>
      <trkpt lat="44.70905" lon="7.03388">
        <ele>2166.2</ele>
        <time>2026-09-03T11:40:48Z</time>
      </trkpt>
      <trkpt lat="44.70905" lon="7.0338">
        <ele>2164.6</ele>
        <time>2026-09-03T11:40:53Z</time>
      </trkpt>
      <trkpt lat="44.70903" lon="7.03371">
        <ele>2162.6</ele>
        <time>2026-09-03T11:40:58Z</time>
      </trkpt>
      <trkpt lat="44.70903" lon="7.03363">
        <ele>2161</ele>
        <time>2026-09-03T11:41:04Z</time>
      </trkpt>
      <trkpt lat="44.70902" lon="7.03356">
        <ele>2159.6</ele>
        <time>2026-09-03T11:41:09Z</time>
      </trkpt>
      <trkpt lat="44.70899" lon="7.03355">
        <ele>2159.3</ele>
        <time>2026-09-03T11:41:14Z</time>
      </trkpt>
      <trkpt lat="44.70898" lon="7.03352">
        <ele>2158.7</ele>
        <time>2026-09-03T11:41:20Z</time>
      </trkpt>
      <trkpt lat="44.70899" lon="7.03349">
        <ele>2158.2</ele>
        <time>2026-09-03T11:41:25Z</time>
      </trkpt>
      <trkpt lat="44.709" lon="7.03342">
        <ele>2157</ele>
        <time>2026-09-03T11:41:30Z</time>
      </trkpt>
      <trkpt lat="44.709" lon="7.03336">
        <ele>2155.9</ele>
        <time>2026-09-03T11:41:36Z</time>
      </trkpt>
      <trkpt lat="44.70899" lon="7.03333">
        <ele>2155.4</ele>
        <time>2026-09-03T11:41:41Z</time>
      </trkpt>
      <trkpt lat="44.70899" lon="7.03329">
        <ele>2154.5</ele>
        <time>2026-09-03T11:41:46Z</time>
      </trkpt>
      <trkpt lat="44.70896" lon="7.03325">
        <ele>2153.8</ele>
        <time>2026-09-03T11:41:52Z</time>
      </trkpt>
      <trkpt lat="44.70898" lon="7.03321">
        <ele>2152.9</ele>
        <time>2026-09-03T11:41:57Z</time>
      </trkpt>
      <trkpt lat="44.70897" lon="7.03317">
        <ele>2152.1</ele>
        <time>2026-09-03T11:42:02Z</time>
      </trkpt>
      <trkpt lat="44.70896" lon="7.0331">
        <ele>2150.8</ele>
        <time>2026-09-03T11:42:08Z</time>
      </trkpt>
      <trkpt lat="44.70897" lon="7.03302">
        <ele>2149</ele>
        <time>2026-09-03T11:42:13Z</time>
      </trkpt>
      <trkpt lat="44.70899" lon="7.03298">
        <ele>2147.9</ele>
        <time>2026-09-03T11:42:18Z</time>
      </trkpt>
      <trkpt lat="44.70894" lon="7.03294">
        <ele>2147.9</ele>
        <time>2026-09-03T11:42:24Z</time>
      </trkpt>
      <trkpt lat="44.70893" lon="7.03288">
        <ele>2146.9</ele>
        <time>2026-09-03T11:42:29Z</time>
      </trkpt>
      <trkpt lat="44.70893" lon="7.03282">
        <ele>2145.8</ele>
        <time>2026-09-03T11:42:34Z</time>
      </trkpt>
      <trkpt lat="44.70895" lon="7.03275">
        <ele>2144</ele>
        <time>2026-09-03T11:42:40Z</time>
      </trkpt>
      <trkpt lat="44.70899" lon="7.03268">
        <ele>2141.5</ele>
        <time>2026-09-03T11:42:45Z</time>
      </trkpt>
      <trkpt lat="44.709" lon="7.03259">
        <ele>2139.3</ele>
        <time>2026-09-03T11:42:50Z</time>
      </trkpt>
      <trkpt lat="44.70905" lon="7.03253">
        <ele>2136.5</ele>
        <time>2026-09-03T11:42:56Z</time>
      </trkpt>
      <trkpt lat="44.70909" lon="7.03246">
        <ele>2133.9</ele>
        <time>2026-09-03T11:43:01Z</time>
      </trkpt>
      <trkpt lat="44.70913" lon="7.0324">
        <ele>2131.6</ele>
        <time>2026-09-03T11:43:06Z</time>
      </trkpt>
      <trkpt lat="44.70915" lon="7.03234">
        <ele>2129.8</ele>
        <time>2026-09-03T11:43:12Z</time>
      </trkpt>
      <trkpt lat="44.70911" lon="7.03231">
        <ele>2130.9</ele>
        <time>2026-09-03T11:43:17Z</time>
      </trkpt>
      <trkpt lat="44.70904" lon="7.03233">
        <ele>2134</ele>
        <time>2026-09-03T11:43:22Z</time>
      </trkpt>
      <trkpt lat="44.70896" lon="7.03234">
        <ele>2137.3</ele>
        <time>2026-09-03T11:43:28Z</time>
      </trkpt>
      <trkpt lat="44.70891" lon="7.03236">
        <ele>2139.5</ele>
        <time>2026-09-03T11:43:33Z</time>
      </trkpt>
      <trkpt lat="44.70886" lon="7.0324">
        <ele>2141.5</ele>
        <time>2026-09-03T11:43:38Z</time>
      </trkpt>
      <trkpt lat="44.70885" lon="7.03242">
        <ele>2142</ele>
        <time>2026-09-03T11:43:44Z</time>
      </trkpt>
      <trkpt lat="44.70887" lon="7.03243">
        <ele>2141.3</ele>
        <time>2026-09-03T11:43:49Z</time>
      </trkpt>
      <trkpt lat="44.70887" lon="7.03243">
        <ele>2141.3</ele>
        <time>2026-09-03T11:43:54Z</time>
      </trkpt>
      <trkpt lat="44.70888" lon="7.0324">
        <ele>2140.8</ele>
        <time>2026-09-03T11:44:00Z</time>
      </trkpt>
      <trkpt lat="44.70887" lon="7.0323">
        <ele>2140.7</ele>
        <time>2026-09-03T11:44:05Z</time>
      </trkpt>
      <trkpt lat="44.70888" lon="7.03221">
        <ele>2139.9</ele>
        <time>2026-09-03T11:44:10Z</time>
      </trkpt>
      <trkpt lat="44.70891" lon="7.03216">
        <ele>2138.2</ele>
        <time>2026-09-03T11:44:16Z</time>
      </trkpt>
      <trkpt lat="44.70893" lon="7.03212">
        <ele>2137</ele>
        <time>2026-09-03T11:44:21Z</time>
      </trkpt>
      <trkpt lat="44.70897" lon="7.03207">
        <ele>2134.5</ele>
        <time>2026-09-03T11:44:26Z</time>
      </trkpt>
      <trkpt lat="44.709" lon="7.03204">
        <ele>2132.7</ele>
        <time>2026-09-03T11:44:32Z</time>
      </trkpt>
      <trkpt lat="44.70903" lon="7.03205">
        <ele>2131.2</ele>
        <time>2026-09-03T11:44:37Z</time>
      </trkpt>
      <trkpt lat="44.70906" lon="7.03199">
        <ele>2128.8</ele>
        <time>2026-09-03T11:44:42Z</time>
      </trkpt>
      <trkpt lat="44.70912" lon="7.03191">
        <ele>2124.2</ele>
        <time>2026-09-03T11:44:48Z</time>
      </trkpt>
      <trkpt lat="44.70918" lon="7.03185">
        <ele>2120.9</ele>
        <time>2026-09-03T11:44:53Z</time>
      </trkpt>
      <trkpt lat="44.70921" lon="7.03179">
        <ele>2121.1</ele>
        <time>2026-09-03T11:44:58Z</time>
      </trkpt>
      <trkpt lat="44.70921" lon="7.03173">
        <ele>2120</ele>
        <time>2026-09-03T11:45:04Z</time>
      </trkpt>
      <trkpt lat="44.70922" lon="7.03167">
        <ele>2119.4</ele>
        <time>2026-09-03T11:45:09Z</time>
      </trkpt>
      <trkpt lat="44.70921" lon="7.03164">
        <ele>2118.7</ele>
        <time>2026-09-03T11:45:14Z</time>
      </trkpt>
      <trkpt lat="44.70921" lon="7.03158">
        <ele>2118.4</ele>
        <time>2026-09-03T11:45:20Z</time>
      </trkpt>
      <trkpt lat="44.7092" lon="7.03154">
        <ele>2117.8</ele>
        <time>2026-09-03T11:45:25Z</time>
      </trkpt>
      <trkpt lat="44.70921" lon="7.03151">
        <ele>2118.1</ele>
        <time>2026-09-03T11:45:30Z</time>
      </trkpt>
      <trkpt lat="44.70917" lon="7.03147">
        <ele>2116.2</ele>
        <time>2026-09-03T11:45:36Z</time>
      </trkpt>
      <trkpt lat="44.70913" lon="7.03147">
        <ele>2119</ele>
        <time>2026-09-03T11:45:41Z</time>
      </trkpt>
      <trkpt lat="44.70912" lon="7.03149">
        <ele>2119.8</ele>
        <time>2026-09-03T11:45:46Z</time>
      </trkpt>
      <trkpt lat="44.70906" lon="7.03148">
        <ele>2124.5</ele>
        <time>2026-09-03T11:45:52Z</time>
      </trkpt>
      <trkpt lat="44.70899" lon="7.03146">
        <ele>2130</ele>
        <time>2026-09-03T11:45:57Z</time>
      </trkpt>
      <trkpt lat="44.70893" lon="7.03145">
        <ele>2134.9</ele>
        <time>2026-09-03T11:46:02Z</time>
      </trkpt>
      <trkpt lat="44.70887" lon="7.03145">
        <ele>2139.6</ele>
        <time>2026-09-03T11:46:08Z</time>
      </trkpt>
      <trkpt lat="44.70883" lon="7.03146">
        <ele>2142.7</ele>
        <time>2026-09-03T11:46:13Z</time>
      </trkpt>
      <trkpt lat="44.70883" lon="7.03149">
        <ele>2142.5</ele>
        <time>2026-09-03T11:46:18Z</time>
      </trkpt>
      <trkpt lat="44.70883" lon="7.03149">
        <ele>2142.5</ele>
        <time>2026-09-03T11:46:24Z</time>
      </trkpt>
      <trkpt lat="44.70883" lon="7.03149">
        <ele>2142.5</ele>
        <time>2026-09-03T11:46:29Z</time>
      </trkpt>
      <trkpt lat="44.70883" lon="7.03149">
        <ele>2142.5</ele>
        <time>2026-09-03T11:46:34Z</time>
      </trkpt>
      <trkpt lat="44.70888" lon="7.03135">
        <ele>2139.6</ele>
        <time>2026-09-03T11:46:40Z</time>
      </trkpt>
      <trkpt lat="44.70889" lon="7.03131">
        <ele>2139</ele>
        <time>2026-09-03T11:46:45Z</time>
      </trkpt>
      <trkpt lat="44.70889" lon="7.03126">
        <ele>2139.3</ele>
        <time>2026-09-03T11:46:50Z</time>
      </trkpt>
      <trkpt lat="44.70889" lon="7.0312">
        <ele>2139.7</ele>
        <time>2026-09-03T11:46:56Z</time>
      </trkpt>
      <trkpt lat="44.7089" lon="7.03115">
        <ele>2139.2</ele>
        <time>2026-09-03T11:47:01Z</time>
      </trkpt>
      <trkpt lat="44.70891" lon="7.03108">
        <ele>2138.6</ele>
        <time>2026-09-03T11:47:06Z</time>
      </trkpt>
      <trkpt lat="44.7089" lon="7.03102">
        <ele>2140</ele>
        <time>2026-09-03T11:47:12Z</time>
      </trkpt>
      <trkpt lat="44.70886" lon="7.031">
        <ele>2144</ele>
        <time>2026-09-03T11:47:17Z</time>
      </trkpt>
      <trkpt lat="44.70885" lon="7.03094">
        <ele>2145.5</ele>
        <time>2026-09-03T11:47:22Z</time>
      </trkpt>
      <trkpt lat="44.70884" lon="7.03087">
        <ele>2147.2</ele>
        <time>2026-09-03T11:47:28Z</time>
      </trkpt>
      <trkpt lat="44.70881" lon="7.03084">
        <ele>2150.6</ele>
        <time>2026-09-03T11:47:33Z</time>
      </trkpt>
      <trkpt lat="44.70879" lon="7.0308">
        <ele>2153</ele>
        <time>2026-09-03T11:47:38Z</time>
      </trkpt>
      <trkpt lat="44.70878" lon="7.03074">
        <ele>2154.4</ele>
        <time>2026-09-03T11:47:44Z</time>
      </trkpt>
      <trkpt lat="44.70879" lon="7.03071">
        <ele>2153.5</ele>
        <time>2026-09-03T11:47:49Z</time>
      </trkpt>
      <trkpt lat="44.70878" lon="7.03068">
        <ele>2154.8</ele>
        <time>2026-09-03T11:47:54Z</time>
      </trkpt>
      <trkpt lat="44.70877" lon="7.03063">
        <ele>2156.2</ele>
        <time>2026-09-03T11:48:00Z</time>
      </trkpt>
      <trkpt lat="44.70878" lon="7.0306">
        <ele>2155.3</ele>
        <time>2026-09-03T11:48:05Z</time>
      </trkpt>
      <trkpt lat="44.70879" lon="7.03057">
        <ele>2154.3</ele>
        <time>2026-09-03T11:48:10Z</time>
      </trkpt>
      <trkpt lat="44.70881" lon="7.03052">
        <ele>2152.4</ele>
        <time>2026-09-03T11:48:16Z</time>
      </trkpt>
      <trkpt lat="44.70882" lon="7.03047">
        <ele>2151.6</ele>
        <time>2026-09-03T11:48:21Z</time>
      </trkpt>
      <trkpt lat="44.70884" lon="7.03042">
        <ele>2149.6</ele>
        <time>2026-09-03T11:48:26Z</time>
      </trkpt>
      <trkpt lat="44.70885" lon="7.0304">
        <ele>2148.6</ele>
        <time>2026-09-03T11:48:32Z</time>
      </trkpt>
      <trkpt lat="44.70885" lon="7.03034">
        <ele>2148.9</ele>
        <time>2026-09-03T11:48:37Z</time>
      </trkpt>
      <trkpt lat="44.70884" lon="7.03032">
        <ele>2150.2</ele>
        <time>2026-09-03T11:48:42Z</time>
      </trkpt>
      <trkpt lat="44.70884" lon="7.03032">
        <ele>2150.2</ele>
        <time>2026-09-03T11:48:48Z</time>
      </trkpt>
      <trkpt lat="44.70884" lon="7.03032">
        <ele>2150.2</ele>
        <time>2026-09-03T11:48:53Z</time>
      </trkpt>
      <trkpt lat="44.70884" lon="7.03032">
        <ele>2150.2</ele>
        <time>2026-09-03T11:48:58Z</time>
      </trkpt>
      <trkpt lat="44.70884" lon="7.03032">
        <ele>2150.2</ele>
        <time>2026-09-03T11:49:04Z</time>
      </trkpt>
      <trkpt lat="44.70884" lon="7.03032">
        <ele>2150.2</ele>
        <time>2026-09-03T11:49:09Z</time>
      </trkpt>
      <trkpt lat="44.70883" lon="7.03031">
        <ele>2151.3</ele>
        <time>2026-09-03T11:49:14Z</time>
      </trkpt>
      <trkpt lat="44.70883" lon="7.03028">
        <ele>2151.5</ele>
        <time>2026-09-03T11:49:20Z</time>
      </trkpt>
      <trkpt lat="44.70884" lon="7.03023">
        <ele>2150.6</ele>
        <time>2026-09-03T11:49:25Z</time>
      </trkpt>
      <trkpt lat="44.70885" lon="7.0302">
        <ele>2149.6</ele>
        <time>2026-09-03T11:49:30Z</time>
      </trkpt>
      <trkpt lat="44.70885" lon="7.03016">
        <ele>2149.8</ele>
        <time>2026-09-03T11:49:36Z</time>
      </trkpt>
      <trkpt lat="44.70886" lon="7.03013">
        <ele>2148.8</ele>
        <time>2026-09-03T11:49:41Z</time>
      </trkpt>
      <trkpt lat="44.70888" lon="7.03007">
        <ele>2146.7</ele>
        <time>2026-09-03T11:49:46Z</time>
      </trkpt>
      <trkpt lat="44.7089" lon="7.02999">
        <ele>2144.7</ele>
        <time>2026-09-03T11:49:52Z</time>
      </trkpt>
      <trkpt lat="44.7089" lon="7.02994">
        <ele>2144.8</ele>
        <time>2026-09-03T11:49:57Z</time>
      </trkpt>
      <trkpt lat="44.7089" lon="7.02987">
        <ele>2144.8</ele>
        <time>2026-09-03T11:50:02Z</time>
      </trkpt>
      <trkpt lat="44.70891" lon="7.02983">
        <ele>2143.7</ele>
        <time>2026-09-03T11:50:08Z</time>
      </trkpt>
      <trkpt lat="44.70891" lon="7.02983">
        <ele>2143.7</ele>
        <time>2026-09-03T11:50:13Z</time>
      </trkpt>
      <trkpt lat="44.70891" lon="7.02982">
        <ele>2143.7</ele>
        <time>2026-09-03T11:50:18Z</time>
      </trkpt>
      <trkpt lat="44.70891" lon="7.02982">
        <ele>2143.7</ele>
        <time>2026-09-03T11:50:24Z</time>
      </trkpt>
      <trkpt lat="44.70891" lon="7.02982">
        <ele>2143.7</ele>
        <time>2026-09-03T11:50:29Z</time>
      </trkpt>
      <trkpt lat="44.70891" lon="7.02982">
        <ele>2143.7</ele>
        <time>2026-09-03T11:50:34Z</time>
      </trkpt>
      <trkpt lat="44.70891" lon="7.02982">
        <ele>2143.7</ele>
        <time>2026-09-03T11:50:40Z</time>
      </trkpt>
      <trkpt lat="44.70891" lon="7.02982">
        <ele>2143.7</ele>
        <time>2026-09-03T11:50:45Z</time>
      </trkpt>
      <trkpt lat="44.70891" lon="7.02982">
        <ele>2143.7</ele>
        <time>2026-09-03T11:50:50Z</time>
      </trkpt>
      <trkpt lat="44.70896" lon="7.02973">
        <ele>2137.9</ele>
        <time>2026-09-03T11:50:56Z</time>
      </trkpt>
      <trkpt lat="44.70898" lon="7.02966">
        <ele>2135.6</ele>
        <time>2026-09-03T11:51:01Z</time>
      </trkpt>
      <trkpt lat="44.70901" lon="7.02961">
        <ele>2132.1</ele>
        <time>2026-09-03T11:51:06Z</time>
      </trkpt>
      <trkpt lat="44.70904" lon="7.02951">
        <ele>2128.6</ele>
        <time>2026-09-03T11:51:12Z</time>
      </trkpt>
      <trkpt lat="44.70905" lon="7.02942">
        <ele>2127.6</ele>
        <time>2026-09-03T11:51:17Z</time>
      </trkpt>
      <trkpt lat="44.70907" lon="7.02938">
        <ele>2125.2</ele>
        <time>2026-09-03T11:51:22Z</time>
      </trkpt>
      <trkpt lat="44.70906" lon="7.02933">
        <ele>2126.5</ele>
        <time>2026-09-03T11:51:28Z</time>
      </trkpt>
      <trkpt lat="44.70906" lon="7.02928">
        <ele>2126.5</ele>
        <time>2026-09-03T11:51:33Z</time>
      </trkpt>
      <trkpt lat="44.70908" lon="7.02923">
        <ele>2124.2</ele>
        <time>2026-09-03T11:51:38Z</time>
      </trkpt>
      <trkpt lat="44.7091" lon="7.02919">
        <ele>2121.9</ele>
        <time>2026-09-03T11:51:44Z</time>
      </trkpt>
      <trkpt lat="44.70909" lon="7.02915">
        <ele>2123.5</ele>
        <time>2026-09-03T11:51:49Z</time>
      </trkpt>
      <trkpt lat="44.7091" lon="7.02914">
        <ele>2122.5</ele>
        <time>2026-09-03T11:51:54Z</time>
      </trkpt>
      <trkpt lat="44.7091" lon="7.02914">
        <ele>2122.5</ele>
        <time>2026-09-03T11:52:00Z</time>
      </trkpt>
      <trkpt lat="44.70914" lon="7.02905">
        <ele>2119.8</ele>
        <time>2026-09-03T11:52:05Z</time>
      </trkpt>
      <trkpt lat="44.70914" lon="7.02898">
        <ele>2121.4</ele>
        <time>2026-09-03T11:52:10Z</time>
      </trkpt>
      <trkpt lat="44.70917" lon="7.02895">
        <ele>2118.9</ele>
        <time>2026-09-03T11:52:16Z</time>
      </trkpt>
      <trkpt lat="44.70918" lon="7.02893">
        <ele>2119.1</ele>
        <time>2026-09-03T11:52:21Z</time>
      </trkpt>
      <trkpt lat="44.70913" lon="7.02893">
        <ele>2123.6</ele>
        <time>2026-09-03T11:52:26Z</time>
      </trkpt>
      <trkpt lat="44.70905" lon="7.029">
        <ele>2131.4</ele>
        <time>2026-09-03T11:52:32Z</time>
      </trkpt>
      <trkpt lat="44.70903" lon="7.02898">
        <ele>2134.2</ele>
        <time>2026-09-03T11:52:37Z</time>
      </trkpt>
      <trkpt lat="44.70907" lon="7.02892">
        <ele>2130.8</ele>
        <time>2026-09-03T11:52:42Z</time>
      </trkpt>
      <trkpt lat="44.70911" lon="7.02889">
        <ele>2126.8</ele>
        <time>2026-09-03T11:52:48Z</time>
      </trkpt>
      <trkpt lat="44.70912" lon="7.02889">
        <ele>2125.7</ele>
        <time>2026-09-03T11:52:53Z</time>
      </trkpt>
      <trkpt lat="44.70912" lon="7.02889">
        <ele>2125.7</ele>
        <time>2026-09-03T11:52:58Z</time>
      </trkpt>
      <trkpt lat="44.70912" lon="7.02889">
        <ele>2125.7</ele>
        <time>2026-09-03T11:53:04Z</time>
      </trkpt>
      <trkpt lat="44.70912" lon="7.02889">
        <ele>2125.7</ele>
        <time>2026-09-03T11:53:09Z</time>
      </trkpt>
      <trkpt lat="44.70917" lon="7.02881">
        <ele>2122</ele>
        <time>2026-09-03T11:53:14Z</time>
      </trkpt>
      <trkpt lat="44.70917" lon="7.02881">
        <ele>2122</ele>
        <time>2026-09-03T11:53:20Z</time>
      </trkpt>
      <trkpt lat="44.70917" lon="7.02881">
        <ele>2122</ele>
        <time>2026-09-03T11:53:25Z</time>
      </trkpt>
      <trkpt lat="44.70914" lon="7.02873">
        <ele>2127</ele>
        <time>2026-09-03T11:53:30Z</time>
      </trkpt>
      <trkpt lat="44.70915" lon="7.02872">
        <ele>2126.1</ele>
        <time>2026-09-03T11:53:36Z</time>
      </trkpt>
      <trkpt lat="44.70915" lon="7.02872">
        <ele>2126.1</ele>
        <time>2026-09-03T11:53:41Z</time>
      </trkpt>
      <trkpt lat="44.70915" lon="7.02872">
        <ele>2126.1</ele>
        <time>2026-09-03T11:53:46Z</time>
      </trkpt>
      <trkpt lat="44.70915" lon="7.02872">
        <ele>2126.1</ele>
        <time>2026-09-03T11:53:52Z</time>
      </trkpt>
      <trkpt lat="44.70915" lon="7.02872">
        <ele>2126.1</ele>
        <time>2026-09-03T11:53:57Z</time>
      </trkpt>
      <trkpt lat="44.70915" lon="7.02872">
        <ele>2126.1</ele>
        <time>2026-09-03T11:54:02Z</time>
      </trkpt>
      <trkpt lat="44.70923" lon="7.02865">
        <ele>2123.3</ele>
        <time>2026-09-03T11:54:08Z</time>
      </trkpt>
      <trkpt lat="44.70923" lon="7.02865">
        <ele>2123.3</ele>
        <time>2026-09-03T11:54:13Z</time>
      </trkpt>
      <trkpt lat="44.70923" lon="7.02865">
        <ele>2123.3</ele>
        <time>2026-09-03T11:54:18Z</time>
      </trkpt>
      <trkpt lat="44.70912" lon="7.02862">
        <ele>2131.7</ele>
        <time>2026-09-03T11:54:24Z</time>
      </trkpt>
      <trkpt lat="44.70913" lon="7.02855">
        <ele>2132.1</ele>
        <time>2026-09-03T11:54:29Z</time>
      </trkpt>
      <trkpt lat="44.70919" lon="7.02855">
        <ele>2127</ele>
        <time>2026-09-03T11:54:34Z</time>
      </trkpt>
      <trkpt lat="44.70923" lon="7.02855">
        <ele>2125.2</ele>
        <time>2026-09-03T11:54:40Z</time>
      </trkpt>
      <trkpt lat="44.70926" lon="7.02852">
        <ele>2124.4</ele>
        <time>2026-09-03T11:54:45Z</time>
      </trkpt>
      <trkpt lat="44.70929" lon="7.02847">
        <ele>2123.8</ele>
        <time>2026-09-03T11:54:50Z</time>
      </trkpt>
      <trkpt lat="44.70931" lon="7.02837">
        <ele>2124.2</ele>
        <time>2026-09-03T11:54:56Z</time>
      </trkpt>
      <trkpt lat="44.70933" lon="7.02829">
        <ele>2123.9</ele>
        <time>2026-09-03T11:55:01Z</time>
      </trkpt>
      <trkpt lat="44.70938" lon="7.02821">
        <ele>2121.4</ele>
        <time>2026-09-03T11:55:06Z</time>
      </trkpt>
      <trkpt lat="44.70942" lon="7.02814">
        <ele>2119.4</ele>
        <time>2026-09-03T11:55:12Z</time>
      </trkpt>
      <trkpt lat="44.70945" lon="7.02808">
        <ele>2117.8</ele>
        <time>2026-09-03T11:55:17Z</time>
      </trkpt>
      <trkpt lat="44.7095" lon="7.02806">
        <ele>2114.7</ele>
        <time>2026-09-03T11:55:22Z</time>
      </trkpt>
      <trkpt lat="44.70955" lon="7.028">
        <ele>2111.6</ele>
        <time>2026-09-03T11:55:28Z</time>
      </trkpt>
      <trkpt lat="44.7096" lon="7.02794">
        <ele>2108.4</ele>
        <time>2026-09-03T11:55:33Z</time>
      </trkpt>
      <trkpt lat="44.70965" lon="7.02788">
        <ele>2105</ele>
        <time>2026-09-03T11:55:38Z</time>
      </trkpt>
      <trkpt lat="44.70969" lon="7.02781">
        <ele>2102.2</ele>
        <time>2026-09-03T11:55:44Z</time>
      </trkpt>
      <trkpt lat="44.70975" lon="7.02776">
        <ele>2097.9</ele>
        <time>2026-09-03T11:55:49Z</time>
      </trkpt>
      <trkpt lat="44.70975" lon="7.02771">
        <ele>2097.8</ele>
        <time>2026-09-03T11:55:54Z</time>
      </trkpt>
      <trkpt lat="44.70979" lon="7.02766">
        <ele>2094.7</ele>
        <time>2026-09-03T11:56:00Z</time>
      </trkpt>
      <trkpt lat="44.70982" lon="7.0276">
        <ele>2092.2</ele>
        <time>2026-09-03T11:56:05Z</time>
      </trkpt>
      <trkpt lat="44.70984" lon="7.02754">
        <ele>2090.5</ele>
        <time>2026-09-03T11:56:10Z</time>
      </trkpt>
      <trkpt lat="44.70988" lon="7.02743">
        <ele>2087.7</ele>
        <time>2026-09-03T11:56:16Z</time>
      </trkpt>
      <trkpt lat="44.70993" lon="7.02738">
        <ele>2084.1</ele>
        <time>2026-09-03T11:56:21Z</time>
      </trkpt>
      <trkpt lat="44.70997" lon="7.02735">
        <ele>2081.1</ele>
        <time>2026-09-03T11:56:26Z</time>
      </trkpt>
      <trkpt lat="44.71002" lon="7.02727">
        <ele>2079</ele>
        <time>2026-09-03T11:56:32Z</time>
      </trkpt>
      <trkpt lat="44.71007" lon="7.0272">
        <ele>2078.9</ele>
        <time>2026-09-03T11:56:37Z</time>
      </trkpt>
      <trkpt lat="44.71013" lon="7.02716">
        <ele>2078.4</ele>
        <time>2026-09-03T11:56:42Z</time>
      </trkpt>
      <trkpt lat="44.71018" lon="7.02712">
        <ele>2077.8</ele>
        <time>2026-09-03T11:56:48Z</time>
      </trkpt>
      <trkpt lat="44.7102" lon="7.02709">
        <ele>2077.5</ele>
        <time>2026-09-03T11:56:53Z</time>
      </trkpt>
      <trkpt lat="44.71024" lon="7.02703">
        <ele>2076.7</ele>
        <time>2026-09-03T11:56:58Z</time>
      </trkpt>
      <trkpt lat="44.71028" lon="7.02696">
        <ele>2075.6</ele>
        <time>2026-09-03T11:57:04Z</time>
      </trkpt>
      <trkpt lat="44.7103" lon="7.02693">
        <ele>2075</ele>
        <time>2026-09-03T11:57:09Z</time>
      </trkpt>
      <trkpt lat="44.7103" lon="7.02687">
        <ele>2074.6</ele>
        <time>2026-09-03T11:57:14Z</time>
      </trkpt>
      <trkpt lat="44.71032" lon="7.02684">
        <ele>2073.9</ele>
        <time>2026-09-03T11:57:20Z</time>
      </trkpt>
      <trkpt lat="44.71032" lon="7.02684">
        <ele>2073.9</ele>
        <time>2026-09-03T11:57:25Z</time>
      </trkpt>
      <trkpt lat="44.71033" lon="7.02682">
        <ele>2073.5</ele>
        <time>2026-09-03T11:57:30Z</time>
      </trkpt>
      <trkpt lat="44.71036" lon="7.0268">
        <ele>2072.6</ele>
        <time>2026-09-03T11:57:36Z</time>
      </trkpt>
      <trkpt lat="44.71037" lon="7.02674">
        <ele>2071.7</ele>
        <time>2026-09-03T11:57:41Z</time>
      </trkpt>
      <trkpt lat="44.7104" lon="7.02668">
        <ele>2070.2</ele>
        <time>2026-09-03T11:57:46Z</time>
      </trkpt>
      <trkpt lat="44.71041" lon="7.0266">
        <ele>2069.7</ele>
        <time>2026-09-03T11:57:52Z</time>
      </trkpt>
      <trkpt lat="44.71044" lon="7.02655">
        <ele>2068.7</ele>
        <time>2026-09-03T11:57:57Z</time>
      </trkpt>
      <trkpt lat="44.71047" lon="7.0265">
        <ele>2067.6</ele>
        <time>2026-09-03T11:58:02Z</time>
      </trkpt>
      <trkpt lat="44.7105" lon="7.02643">
        <ele>2066.4</ele>
        <time>2026-09-03T11:58:08Z</time>
      </trkpt>
      <trkpt lat="44.71055" lon="7.02636">
        <ele>2064.2</ele>
        <time>2026-09-03T11:58:13Z</time>
      </trkpt>
      <trkpt lat="44.71059" lon="7.02631">
        <ele>2062.3</ele>
        <time>2026-09-03T11:58:18Z</time>
      </trkpt>
      <trkpt lat="44.71061" lon="7.02627">
        <ele>2061.3</ele>
        <time>2026-09-03T11:58:24Z</time>
      </trkpt>
      <trkpt lat="44.7106" lon="7.02625">
        <ele>2061.6</ele>
        <time>2026-09-03T11:58:29Z</time>
      </trkpt>
      <trkpt lat="44.7106" lon="7.02625">
        <ele>2061.6</ele>
        <time>2026-09-03T11:58:34Z</time>
      </trkpt>
      <trkpt lat="44.7106" lon="7.02625">
        <ele>2061.6</ele>
        <time>2026-09-03T11:58:40Z</time>
      </trkpt>
      <trkpt lat="44.7106" lon="7.02625">
        <ele>2061.6</ele>
        <time>2026-09-03T11:58:45Z</time>
      </trkpt>
      <trkpt lat="44.7106" lon="7.02625">
        <ele>2061.6</ele>
        <time>2026-09-03T11:58:50Z</time>
      </trkpt>
      <trkpt lat="44.7106" lon="7.02625">
        <ele>2061.6</ele>
        <time>2026-09-03T11:58:56Z</time>
      </trkpt>
      <trkpt lat="44.7106" lon="7.02625">
        <ele>2061.6</ele>
        <time>2026-09-03T11:59:01Z</time>
      </trkpt>
      <trkpt lat="44.7106" lon="7.02625">
        <ele>2061.6</ele>
        <time>2026-09-03T11:59:06Z</time>
      </trkpt>
      <trkpt lat="44.71054" lon="7.02631">
        <ele>2064.4</ele>
        <time>2026-09-03T11:59:12Z</time>
      </trkpt>
      <trkpt lat="44.71049" lon="7.02639">
        <ele>2066.7</ele>
        <time>2026-09-03T11:59:17Z</time>
      </trkpt>
      <trkpt lat="44.71045" lon="7.02647">
        <ele>2068.3</ele>
        <time>2026-09-03T11:59:22Z</time>
      </trkpt>
      <trkpt lat="44.71046" lon="7.02651">
        <ele>2068</ele>
        <time>2026-09-03T11:59:28Z</time>
      </trkpt>
      <trkpt lat="44.71048" lon="7.0265">
        <ele>2067.3</ele>
        <time>2026-09-03T11:59:33Z</time>
      </trkpt>
      <trkpt lat="44.71051" lon="7.02647">
        <ele>2066.1</ele>
        <time>2026-09-03T11:59:38Z</time>
      </trkpt>
      <trkpt lat="44.71057" lon="7.02638">
        <ele>2063.5</ele>
        <time>2026-09-03T11:59:44Z</time>
      </trkpt>
      <trkpt lat="44.71062" lon="7.02631">
        <ele>2061.1</ele>
        <time>2026-09-03T11:59:49Z</time>
      </trkpt>
      <trkpt lat="44.71066" lon="7.02626">
        <ele>2059.1</ele>
        <time>2026-09-03T11:59:54Z</time>
      </trkpt>
      <trkpt lat="44.71059" lon="7.02628">
        <ele>2062.2</ele>
        <time>2026-09-03T12:00:00Z</time>
      </trkpt>
      <trkpt lat="44.71054" lon="7.02629">
        <ele>2064.3</ele>
        <time>2026-09-03T12:00:05Z</time>
      </trkpt>
      <trkpt lat="44.71053" lon="7.02625">
        <ele>2064.6</ele>
        <time>2026-09-03T12:00:10Z</time>
      </trkpt>
      <trkpt lat="44.71057" lon="7.02622">
        <ele>2062.7</ele>
        <time>2026-09-03T12:00:16Z</time>
      </trkpt>
      <trkpt lat="44.7106" lon="7.02621">
        <ele>2061.3</ele>
        <time>2026-09-03T12:00:21Z</time>
      </trkpt>
      <trkpt lat="44.71061" lon="7.02619">
        <ele>2060.8</ele>
        <time>2026-09-03T12:00:26Z</time>
      </trkpt>
      <trkpt lat="44.71062" lon="7.02617">
        <ele>2060.2</ele>
        <time>2026-09-03T12:00:32Z</time>
      </trkpt>
      <trkpt lat="44.71062" lon="7.02617">
        <ele>2060.2</ele>
        <time>2026-09-03T12:00:37Z</time>
      </trkpt>
      <trkpt lat="44.71062" lon="7.02617">
        <ele>2060.2</ele>
        <time>2026-09-03T12:00:42Z</time>
      </trkpt>
      <trkpt lat="44.71062" lon="7.02617">
        <ele>2060.2</ele>
        <time>2026-09-03T12:00:48Z</time>
      </trkpt>
      <trkpt lat="44.71066" lon="7.02614">
        <ele>2058.1</ele>
        <time>2026-09-03T12:00:53Z</time>
      </trkpt>
      <trkpt lat="44.7107" lon="7.02613">
        <ele>2056.2</ele>
        <time>2026-09-03T12:00:58Z</time>
      </trkpt>
      <trkpt lat="44.71074" lon="7.02613">
        <ele>2054.3</ele>
        <time>2026-09-03T12:01:04Z</time>
      </trkpt>
      <trkpt lat="44.71077" lon="7.02612">
        <ele>2052.8</ele>
        <time>2026-09-03T12:01:09Z</time>
      </trkpt>
      <trkpt lat="44.71081" lon="7.02612">
        <ele>2050.9</ele>
        <time>2026-09-03T12:01:14Z</time>
      </trkpt>
      <trkpt lat="44.71083" lon="7.02608">
        <ele>2049.4</ele>
        <time>2026-09-03T12:01:20Z</time>
      </trkpt>
      <trkpt lat="44.71086" lon="7.02609">
        <ele>2049.4</ele>
        <time>2026-09-03T12:01:25Z</time>
      </trkpt>
      <trkpt lat="44.71088" lon="7.0261">
        <ele>2049.5</ele>
        <time>2026-09-03T12:01:30Z</time>
      </trkpt>
      <trkpt lat="44.7109" lon="7.0261">
        <ele>2049.5</ele>
        <time>2026-09-03T12:01:36Z</time>
      </trkpt>
      <trkpt lat="44.71092" lon="7.02606">
        <ele>2048.8</ele>
        <time>2026-09-03T12:01:41Z</time>
      </trkpt>
      <trkpt lat="44.71092" lon="7.02605">
        <ele>2048.7</ele>
        <time>2026-09-03T12:01:46Z</time>
      </trkpt>
      <trkpt lat="44.71094" lon="7.02599">
        <ele>2047.7</ele>
        <time>2026-09-03T12:01:52Z</time>
      </trkpt>
      <trkpt lat="44.71096" lon="7.02595">
        <ele>2047</ele>
        <time>2026-09-03T12:01:57Z</time>
      </trkpt>
      <trkpt lat="44.71099" lon="7.02593">
        <ele>2046.5</ele>
        <time>2026-09-03T12:02:02Z</time>
      </trkpt>
      <trkpt lat="44.71103" lon="7.02589">
        <ele>2045.6</ele>
        <time>2026-09-03T12:02:08Z</time>
      </trkpt>
      <trkpt lat="44.7111" lon="7.02586">
        <ele>2044.6</ele>
        <time>2026-09-03T12:02:13Z</time>
      </trkpt>
      <trkpt lat="44.71114" lon="7.02581">
        <ele>2044</ele>
        <time>2026-09-03T12:02:18Z</time>
      </trkpt>
      <trkpt lat="44.71115" lon="7.02574">
        <ele>2044.7</ele>
        <time>2026-09-03T12:02:24Z</time>
      </trkpt>
      <trkpt lat="44.71119" lon="7.02566">
        <ele>2045.1</ele>
        <time>2026-09-03T12:02:29Z</time>
      </trkpt>
      <trkpt lat="44.71124" lon="7.02561">
        <ele>2045</ele>
        <time>2026-09-03T12:02:34Z</time>
      </trkpt>
      <trkpt lat="44.7113" lon="7.02554">
        <ele>2044.8</ele>
        <time>2026-09-03T12:02:40Z</time>
      </trkpt>
      <trkpt lat="44.71135" lon="7.02552">
        <ele>2044.2</ele>
        <time>2026-09-03T12:02:45Z</time>
      </trkpt>
      <trkpt lat="44.7114" lon="7.02549">
        <ele>2043.6</ele>
        <time>2026-09-03T12:02:50Z</time>
      </trkpt>
      <trkpt lat="44.71147" lon="7.02545">
        <ele>2042.7</ele>
        <time>2026-09-03T12:02:56Z</time>
      </trkpt>
      <trkpt lat="44.71151" lon="7.02541">
        <ele>2042.1</ele>
        <time>2026-09-03T12:03:01Z</time>
      </trkpt>
      <trkpt lat="44.71156" lon="7.02536">
        <ele>2041.4</ele>
        <time>2026-09-03T12:03:06Z</time>
      </trkpt>
      <trkpt lat="44.7116" lon="7.02529">
        <ele>2040.7</ele>
        <time>2026-09-03T12:03:12Z</time>
      </trkpt>
      <trkpt lat="44.71163" lon="7.0252">
        <ele>2040</ele>
        <time>2026-09-03T12:03:17Z</time>
      </trkpt>
      <trkpt lat="44.71168" lon="7.02514">
        <ele>2039.1</ele>
        <time>2026-09-03T12:03:22Z</time>
      </trkpt>
      <trkpt lat="44.71174" lon="7.02503">
        <ele>2038.6</ele>
        <time>2026-09-03T12:03:28Z</time>
      </trkpt>
      <trkpt lat="44.71178" lon="7.02493">
        <ele>2038.4</ele>
        <time>2026-09-03T12:03:33Z</time>
      </trkpt>
      <trkpt lat="44.71183" lon="7.02485">
        <ele>2038.3</ele>
        <time>2026-09-03T12:03:38Z</time>
      </trkpt>
      <trkpt lat="44.71185" lon="7.02473">
        <ele>2038.4</ele>
        <time>2026-09-03T12:03:44Z</time>
      </trkpt>
      <trkpt lat="44.71187" lon="7.02463">
        <ele>2038.4</ele>
        <time>2026-09-03T12:03:49Z</time>
      </trkpt>
      <trkpt lat="44.7119" lon="7.02453">
        <ele>2038.3</ele>
        <time>2026-09-03T12:03:54Z</time>
      </trkpt>
      <trkpt lat="44.71195" lon="7.02443">
        <ele>2037.8</ele>
        <time>2026-09-03T12:04:00Z</time>
      </trkpt>
      <trkpt lat="44.71199" lon="7.02435">
        <ele>2037.4</ele>
        <time>2026-09-03T12:04:05Z</time>
      </trkpt>
      <trkpt lat="44.71201" lon="7.02426">
        <ele>2037.2</ele>
        <time>2026-09-03T12:04:10Z</time>
      </trkpt>
      <trkpt lat="44.71201" lon="7.02414">
        <ele>2037.3</ele>
        <time>2026-09-03T12:04:16Z</time>
      </trkpt>
      <trkpt lat="44.71204" lon="7.02407">
        <ele>2037.1</ele>
        <time>2026-09-03T12:04:21Z</time>
      </trkpt>
      <trkpt lat="44.71205" lon="7.02407">
        <ele>2036.9</ele>
        <time>2026-09-03T12:04:26Z</time>
      </trkpt>
      <trkpt lat="44.71208" lon="7.02402">
        <ele>2036.5</ele>
        <time>2026-09-03T12:04:32Z</time>
      </trkpt>
      <trkpt lat="44.7121" lon="7.02392">
        <ele>2036.4</ele>
        <time>2026-09-03T12:04:37Z</time>
      </trkpt>
      <trkpt lat="44.71213" lon="7.02383">
        <ele>2036</ele>
        <time>2026-09-03T12:04:42Z</time>
      </trkpt>
      <trkpt lat="44.71217" lon="7.02375">
        <ele>2035.2</ele>
        <time>2026-09-03T12:04:48Z</time>
      </trkpt>
      <trkpt lat="44.7122" lon="7.0237">
        <ele>2034.6</ele>
        <time>2026-09-03T12:04:53Z</time>
      </trkpt>
      <trkpt lat="44.71222" lon="7.02369">
        <ele>2034.1</ele>
        <time>2026-09-03T12:04:58Z</time>
      </trkpt>
      <trkpt lat="44.71222" lon="7.02369">
        <ele>2034.1</ele>
        <time>2026-09-03T12:05:04Z</time>
      </trkpt>
      <trkpt lat="44.71222" lon="7.02369">
        <ele>2034.1</ele>
        <time>2026-09-03T12:05:09Z</time>
      </trkpt>
      <trkpt lat="44.71223" lon="7.02365">
        <ele>2033.9</ele>
        <time>2026-09-03T12:05:14Z</time>
      </trkpt>
      <trkpt lat="44.71227" lon="7.02359">
        <ele>2032.9</ele>
        <time>2026-09-03T12:05:20Z</time>
      </trkpt>
      <trkpt lat="44.71231" lon="7.02353">
        <ele>2031.8</ele>
        <time>2026-09-03T12:05:25Z</time>
      </trkpt>
      <trkpt lat="44.71234" lon="7.02347">
        <ele>2030.9</ele>
        <time>2026-09-03T12:05:30Z</time>
      </trkpt>
      <trkpt lat="44.71238" lon="7.02341">
        <ele>2029.7</ele>
        <time>2026-09-03T12:05:36Z</time>
      </trkpt>
      <trkpt lat="44.7124" lon="7.02334">
        <ele>2029</ele>
        <time>2026-09-03T12:05:41Z</time>
      </trkpt>
      <trkpt lat="44.71244" lon="7.02328">
        <ele>2027.6</ele>
        <time>2026-09-03T12:05:46Z</time>
      </trkpt>
      <trkpt lat="44.71248" lon="7.0232">
        <ele>2026.1</ele>
        <time>2026-09-03T12:05:52Z</time>
      </trkpt>
      <trkpt lat="44.71251" lon="7.02312">
        <ele>2025.3</ele>
        <time>2026-09-03T12:05:57Z</time>
      </trkpt>
      <trkpt lat="44.71254" lon="7.02303">
        <ele>2025</ele>
        <time>2026-09-03T12:06:02Z</time>
      </trkpt>
      <trkpt lat="44.7126" lon="7.02293">
        <ele>2024.7</ele>
        <time>2026-09-03T12:06:08Z</time>
      </trkpt>
      <trkpt lat="44.71265" lon="7.02283">
        <ele>2024.2</ele>
        <time>2026-09-03T12:06:13Z</time>
      </trkpt>
      <trkpt lat="44.71267" lon="7.02274">
        <ele>2023.7</ele>
        <time>2026-09-03T12:06:18Z</time>
      </trkpt>
      <trkpt lat="44.71271" lon="7.02264">
        <ele>2023.1</ele>
        <time>2026-09-03T12:06:24Z</time>
      </trkpt>
      <trkpt lat="44.71275" lon="7.02257">
        <ele>2022.6</ele>
        <time>2026-09-03T12:06:29Z</time>
      </trkpt>
      <trkpt lat="44.71279" lon="7.0225">
        <ele>2022</ele>
        <time>2026-09-03T12:06:34Z</time>
      </trkpt>
      <trkpt lat="44.71285" lon="7.02239">
        <ele>2022.2</ele>
        <time>2026-09-03T12:06:40Z</time>
      </trkpt>
      <trkpt lat="44.71288" lon="7.0223">
        <ele>2022.3</ele>
        <time>2026-09-03T12:06:45Z</time>
      </trkpt>
      <trkpt lat="44.71293" lon="7.02222">
        <ele>2022.2</ele>
        <time>2026-09-03T12:06:50Z</time>
      </trkpt>
      <trkpt lat="44.713" lon="7.02215">
        <ele>2021.9</ele>
        <time>2026-09-03T12:06:56Z</time>
      </trkpt>
      <trkpt lat="44.71306" lon="7.02212">
        <ele>2021.4</ele>
        <time>2026-09-03T12:07:01Z</time>
      </trkpt>
      <trkpt lat="44.71313" lon="7.02208">
        <ele>2020.8</ele>
        <time>2026-09-03T12:07:06Z</time>
      </trkpt>
      <trkpt lat="44.71321" lon="7.02206">
        <ele>2020.1</ele>
        <time>2026-09-03T12:07:12Z</time>
      </trkpt>
      <trkpt lat="44.71328" lon="7.02204">
        <ele>2019.4</ele>
        <time>2026-09-03T12:07:17Z</time>
      </trkpt>
      <trkpt lat="44.71334" lon="7.02205">
        <ele>2019</ele>
        <time>2026-09-03T12:07:22Z</time>
      </trkpt>
      <trkpt lat="44.71343" lon="7.02204">
        <ele>2019.4</ele>
        <time>2026-09-03T12:07:28Z</time>
      </trkpt>
      <trkpt lat="44.7135" lon="7.02202">
        <ele>2019.7</ele>
        <time>2026-09-03T12:07:33Z</time>
      </trkpt>
      <trkpt lat="44.71357" lon="7.02202">
        <ele>2020.1</ele>
        <time>2026-09-03T12:07:38Z</time>
      </trkpt>
      <trkpt lat="44.71365" lon="7.02201">
        <ele>2020.4</ele>
        <time>2026-09-03T12:07:44Z</time>
      </trkpt>
      <trkpt lat="44.71373" lon="7.022">
        <ele>2020.7</ele>
        <time>2026-09-03T12:07:49Z</time>
      </trkpt>
      <trkpt lat="44.71381" lon="7.02197">
        <ele>2020.8</ele>
        <time>2026-09-03T12:07:54Z</time>
      </trkpt>
      <trkpt lat="44.7139" lon="7.02194">
        <ele>2020.9</ele>
        <time>2026-09-03T12:08:00Z</time>
      </trkpt>
      <trkpt lat="44.71397" lon="7.0219">
        <ele>2020.7</ele>
        <time>2026-09-03T12:08:05Z</time>
      </trkpt>
      <trkpt lat="44.71404" lon="7.02189">
        <ele>2020.8</ele>
        <time>2026-09-03T12:08:10Z</time>
      </trkpt>
      <trkpt lat="44.71414" lon="7.02186">
        <ele>2020.7</ele>
        <time>2026-09-03T12:08:16Z</time>
      </trkpt>
      <trkpt lat="44.71421" lon="7.02182">
        <ele>2020.3</ele>
        <time>2026-09-03T12:08:21Z</time>
      </trkpt>
      <trkpt lat="44.71427" lon="7.0218">
        <ele>2020.2</ele>
        <time>2026-09-03T12:08:26Z</time>
      </trkpt>
      <trkpt lat="44.71434" lon="7.02172">
        <ele>2019.1</ele>
        <time>2026-09-03T12:08:32Z</time>
      </trkpt>
      <trkpt lat="44.71441" lon="7.02167">
        <ele>2018.4</ele>
        <time>2026-09-03T12:08:37Z</time>
      </trkpt>
      <trkpt lat="44.71447" lon="7.02161">
        <ele>2018.6</ele>
        <time>2026-09-03T12:08:42Z</time>
      </trkpt>
      <trkpt lat="44.71452" lon="7.02155">
        <ele>2018.8</ele>
        <time>2026-09-03T12:08:48Z</time>
      </trkpt>
      <trkpt lat="44.71458" lon="7.02148">
        <ele>2019.1</ele>
        <time>2026-09-03T12:08:53Z</time>
      </trkpt>
      <trkpt lat="44.71464" lon="7.02141">
        <ele>2019.2</ele>
        <time>2026-09-03T12:08:58Z</time>
      </trkpt>
      <trkpt lat="44.71471" lon="7.02132">
        <ele>2019.4</ele>
        <time>2026-09-03T12:09:04Z</time>
      </trkpt>
      <trkpt lat="44.71475" lon="7.02127">
        <ele>2019.4</ele>
        <time>2026-09-03T12:09:09Z</time>
      </trkpt>
      <trkpt lat="44.7148" lon="7.02119">
        <ele>2019.4</ele>
        <time>2026-09-03T12:09:14Z</time>
      </trkpt>
      <trkpt lat="44.71485" lon="7.02109">
        <ele>2019.4</ele>
        <time>2026-09-03T12:09:20Z</time>
      </trkpt>
      <trkpt lat="44.71491" lon="7.02102">
        <ele>2019.3</ele>
        <time>2026-09-03T12:09:25Z</time>
      </trkpt>
      <trkpt lat="44.71498" lon="7.02096">
        <ele>2019.1</ele>
        <time>2026-09-03T12:09:30Z</time>
      </trkpt>
      <trkpt lat="44.71506" lon="7.02093">
        <ele>2018.8</ele>
        <time>2026-09-03T12:09:36Z</time>
      </trkpt>
      <trkpt lat="44.71512" lon="7.0209">
        <ele>2018.5</ele>
        <time>2026-09-03T12:09:41Z</time>
      </trkpt>
      <trkpt lat="44.71519" lon="7.02088">
        <ele>2018.1</ele>
        <time>2026-09-03T12:09:46Z</time>
      </trkpt>
      <trkpt lat="44.71526" lon="7.02084">
        <ele>2017.5</ele>
        <time>2026-09-03T12:09:52Z</time>
      </trkpt>
      <trkpt lat="44.71533" lon="7.02081">
        <ele>2017.3</ele>
        <time>2026-09-03T12:09:57Z</time>
      </trkpt>
      <trkpt lat="44.7154" lon="7.02076">
        <ele>2017.4</ele>
        <time>2026-09-03T12:10:02Z</time>
      </trkpt>
      <trkpt lat="44.71547" lon="7.0207">
        <ele>2017.5</ele>
        <time>2026-09-03T12:10:08Z</time>
      </trkpt>
      <trkpt lat="44.71553" lon="7.02066">
        <ele>2017.5</ele>
        <time>2026-09-03T12:10:13Z</time>
      </trkpt>
      <trkpt lat="44.71559" lon="7.02063">
        <ele>2017.4</ele>
        <time>2026-09-03T12:10:18Z</time>
      </trkpt>
      <trkpt lat="44.71567" lon="7.02059">
        <ele>2017.2</ele>
        <time>2026-09-03T12:10:24Z</time>
      </trkpt>
      <trkpt lat="44.71574" lon="7.02054">
        <ele>2017.1</ele>
        <time>2026-09-03T12:10:29Z</time>
      </trkpt>
      <trkpt lat="44.71578" lon="7.02048">
        <ele>2017.4</ele>
        <time>2026-09-03T12:10:34Z</time>
      </trkpt>
      <trkpt lat="44.71583" lon="7.02038">
        <ele>2017.8</ele>
        <time>2026-09-03T12:10:40Z</time>
      </trkpt>
      <trkpt lat="44.71587" lon="7.0203">
        <ele>2018.6</ele>
        <time>2026-09-03T12:10:45Z</time>
      </trkpt>
      <trkpt lat="44.71589" lon="7.0202">
        <ele>2019.2</ele>
        <time>2026-09-03T12:10:50Z</time>
      </trkpt>
      <trkpt lat="44.71591" lon="7.02007">
        <ele>2019.9</ele>
        <time>2026-09-03T12:10:56Z</time>
      </trkpt>
      <trkpt lat="44.71593" lon="7.01999">
        <ele>2020.2</ele>
        <time>2026-09-03T12:11:01Z</time>
      </trkpt>
      <trkpt lat="44.71595" lon="7.01991">
        <ele>2021.2</ele>
        <time>2026-09-03T12:11:06Z</time>
      </trkpt>
      <trkpt lat="44.71599" lon="7.01984">
        <ele>2021.6</ele>
        <time>2026-09-03T12:11:12Z</time>
      </trkpt>
      <trkpt lat="44.71604" lon="7.01977">
        <ele>2021.9</ele>
        <time>2026-09-03T12:11:17Z</time>
      </trkpt>
      <trkpt lat="44.71609" lon="7.01972">
        <ele>2021.7</ele>
        <time>2026-09-03T12:11:22Z</time>
      </trkpt>
      <trkpt lat="44.71615" lon="7.01966">
        <ele>2021.3</ele>
        <time>2026-09-03T12:11:28Z</time>
      </trkpt>
      <trkpt lat="44.7162" lon="7.01958">
        <ele>2021.2</ele>
        <time>2026-09-03T12:11:33Z</time>
      </trkpt>
      <trkpt lat="44.71625" lon="7.0195">
        <ele>2020.9</ele>
        <time>2026-09-03T12:11:38Z</time>
      </trkpt>
      <trkpt lat="44.71625" lon="7.0195">
        <ele>2020.9</ele>
        <time>2026-09-03T12:11:44Z</time>
      </trkpt>
      <trkpt lat="44.71625" lon="7.01946">
        <ele>2021.2</ele>
        <time>2026-09-03T12:11:49Z</time>
      </trkpt>
      <trkpt lat="44.71631" lon="7.01937">
        <ele>2020.5</ele>
        <time>2026-09-03T12:11:54Z</time>
      </trkpt>
      <trkpt lat="44.71637" lon="7.01927">
        <ele>2019.6</ele>
        <time>2026-09-03T12:12:00Z</time>
      </trkpt>
      <trkpt lat="44.71642" lon="7.0192">
        <ele>2018.7</ele>
        <time>2026-09-03T12:12:05Z</time>
      </trkpt>
      <trkpt lat="44.71646" lon="7.01913">
        <ele>2018</ele>
        <time>2026-09-03T12:12:10Z</time>
      </trkpt>
      <trkpt lat="44.71651" lon="7.01903">
        <ele>2017.2</ele>
        <time>2026-09-03T12:12:16Z</time>
      </trkpt>
      <trkpt lat="44.71655" lon="7.01896">
        <ele>2016.5</ele>
        <time>2026-09-03T12:12:21Z</time>
      </trkpt>
      <trkpt lat="44.71659" lon="7.01887">
        <ele>2015.8</ele>
        <time>2026-09-03T12:12:26Z</time>
      </trkpt>
      <trkpt lat="44.71665" lon="7.01879">
        <ele>2014.3</ele>
        <time>2026-09-03T12:12:32Z</time>
      </trkpt>
      <trkpt lat="44.71671" lon="7.0187">
        <ele>2014.1</ele>
        <time>2026-09-03T12:12:37Z</time>
      </trkpt>
      <trkpt lat="44.71674" lon="7.01863">
        <ele>2014.3</ele>
        <time>2026-09-03T12:12:42Z</time>
      </trkpt>
      <trkpt lat="44.71674" lon="7.01863">
        <ele>2014.3</ele>
        <time>2026-09-03T12:12:48Z</time>
      </trkpt>
      <trkpt lat="44.71674" lon="7.01863">
        <ele>2014.3</ele>
        <time>2026-09-03T12:12:53Z</time>
      </trkpt>
      <trkpt lat="44.71679" lon="7.01863">
        <ele>2014.1</ele>
        <time>2026-09-03T12:12:58Z</time>
      </trkpt>
      <trkpt lat="44.71682" lon="7.01849">
        <ele>2014.3</ele>
        <time>2026-09-03T12:13:04Z</time>
      </trkpt>
      <trkpt lat="44.71684" lon="7.01837">
        <ele>2014.5</ele>
        <time>2026-09-03T12:13:09Z</time>
      </trkpt>
      <trkpt lat="44.71687" lon="7.01828">
        <ele>2014.7</ele>
        <time>2026-09-03T12:13:14Z</time>
      </trkpt>
      <trkpt lat="44.71689" lon="7.01817">
        <ele>2015.4</ele>
        <time>2026-09-03T12:13:20Z</time>
      </trkpt>
      <trkpt lat="44.71693" lon="7.01809">
        <ele>2015.5</ele>
        <time>2026-09-03T12:13:25Z</time>
      </trkpt>
      <trkpt lat="44.71696" lon="7.018">
        <ele>2015.7</ele>
        <time>2026-09-03T12:13:30Z</time>
      </trkpt>
      <trkpt lat="44.71698" lon="7.01789">
        <ele>2016.1</ele>
        <time>2026-09-03T12:13:36Z</time>
      </trkpt>
      <trkpt lat="44.71702" lon="7.01781">
        <ele>2015.9</ele>
        <time>2026-09-03T12:13:41Z</time>
      </trkpt>
      <trkpt lat="44.71708" lon="7.01774">
        <ele>2015.1</ele>
        <time>2026-09-03T12:13:46Z</time>
      </trkpt>
      <trkpt lat="44.71715" lon="7.01767">
        <ele>2013.9</ele>
        <time>2026-09-03T12:13:52Z</time>
      </trkpt>
      <trkpt lat="44.71722" lon="7.01763">
        <ele>2012.5</ele>
        <time>2026-09-03T12:13:57Z</time>
      </trkpt>
      <trkpt lat="44.71727" lon="7.01755">
        <ele>2011.5</ele>
        <time>2026-09-03T12:14:02Z</time>
      </trkpt>
      <trkpt lat="44.71732" lon="7.01748">
        <ele>2011</ele>
        <time>2026-09-03T12:14:08Z</time>
      </trkpt>
      <trkpt lat="44.71736" lon="7.01741">
        <ele>2012.2</ele>
        <time>2026-09-03T12:14:13Z</time>
      </trkpt>
      <trkpt lat="44.71742" lon="7.01737">
        <ele>2011.7</ele>
        <time>2026-09-03T12:14:18Z</time>
      </trkpt>
      <trkpt lat="44.71748" lon="7.01731">
        <ele>2011.4</ele>
        <time>2026-09-03T12:14:24Z</time>
      </trkpt>
      <trkpt lat="44.71754" lon="7.01726">
        <ele>2011.9</ele>
        <time>2026-09-03T12:14:29Z</time>
      </trkpt>
      <trkpt lat="44.71761" lon="7.0172">
        <ele>2012.8</ele>
        <time>2026-09-03T12:14:34Z</time>
      </trkpt>
      <trkpt lat="44.71768" lon="7.01713">
        <ele>2013.5</ele>
        <time>2026-09-03T12:14:40Z</time>
      </trkpt>
      <trkpt lat="44.71773" lon="7.01707">
        <ele>2013.9</ele>
        <time>2026-09-03T12:14:45Z</time>
      </trkpt>
      <trkpt lat="44.71779" lon="7.01701">
        <ele>2013.9</ele>
        <time>2026-09-03T12:14:50Z</time>
      </trkpt>
      <trkpt lat="44.71786" lon="7.01693">
        <ele>2013.7</ele>
        <time>2026-09-03T12:14:56Z</time>
      </trkpt>
      <trkpt lat="44.71791" lon="7.01688">
        <ele>2013.1</ele>
        <time>2026-09-03T12:15:01Z</time>
      </trkpt>
      <trkpt lat="44.71796" lon="7.0168">
        <ele>2012.5</ele>
        <time>2026-09-03T12:15:06Z</time>
      </trkpt>
      <trkpt lat="44.71803" lon="7.01674">
        <ele>2010.9</ele>
        <time>2026-09-03T12:15:12Z</time>
      </trkpt>
      <trkpt lat="44.71807" lon="7.01666">
        <ele>2010.2</ele>
        <time>2026-09-03T12:15:17Z</time>
      </trkpt>
      <trkpt lat="44.71812" lon="7.01657">
        <ele>2011.9</ele>
        <time>2026-09-03T12:15:22Z</time>
      </trkpt>
      <trkpt lat="44.71817" lon="7.01646">
        <ele>2013.8</ele>
        <time>2026-09-03T12:15:28Z</time>
      </trkpt>
      <trkpt lat="44.71821" lon="7.01638">
        <ele>2014.6</ele>
        <time>2026-09-03T12:15:33Z</time>
      </trkpt>
      <trkpt lat="44.71825" lon="7.01632">
        <ele>2014.5</ele>
        <time>2026-09-03T12:15:38Z</time>
      </trkpt>
      <trkpt lat="44.71828" lon="7.01625">
        <ele>2014.9</ele>
        <time>2026-09-03T12:15:44Z</time>
      </trkpt>
      <trkpt lat="44.71832" lon="7.01619">
        <ele>2014.2</ele>
        <time>2026-09-03T12:15:49Z</time>
      </trkpt>
      <trkpt lat="44.71838" lon="7.01614">
        <ele>2013.8</ele>
        <time>2026-09-03T12:15:54Z</time>
      </trkpt>
      <trkpt lat="44.71846" lon="7.0161">
        <ele>2013.2</ele>
        <time>2026-09-03T12:16:00Z</time>
      </trkpt>
      <trkpt lat="44.71853" lon="7.01604">
        <ele>2012.9</ele>
        <time>2026-09-03T12:16:05Z</time>
      </trkpt>
      <trkpt lat="44.71859" lon="7.01599">
        <ele>2012.4</ele>
        <time>2026-09-03T12:16:10Z</time>
      </trkpt>
      <trkpt lat="44.71867" lon="7.01594">
        <ele>2011.1</ele>
        <time>2026-09-03T12:16:16Z</time>
      </trkpt>
      <trkpt lat="44.71872" lon="7.01588">
        <ele>2010.4</ele>
        <time>2026-09-03T12:16:21Z</time>
      </trkpt>
      <trkpt lat="44.71877" lon="7.01582">
        <ele>2009.9</ele>
        <time>2026-09-03T12:16:26Z</time>
      </trkpt>
      <trkpt lat="44.71884" lon="7.01572">
        <ele>2011.4</ele>
        <time>2026-09-03T12:16:32Z</time>
      </trkpt>
      <trkpt lat="44.71889" lon="7.01565">
        <ele>2012.1</ele>
        <time>2026-09-03T12:16:37Z</time>
      </trkpt>
      <trkpt lat="44.71896" lon="7.01559">
        <ele>2011.5</ele>
        <time>2026-09-03T12:16:42Z</time>
      </trkpt>
      <trkpt lat="44.71902" lon="7.0155">
        <ele>2011.9</ele>
        <time>2026-09-03T12:16:48Z</time>
      </trkpt>
      <trkpt lat="44.71908" lon="7.01542">
        <ele>2011.7</ele>
        <time>2026-09-03T12:16:53Z</time>
      </trkpt>
      <trkpt lat="44.71913" lon="7.01534">
        <ele>2011.5</ele>
        <time>2026-09-03T12:16:58Z</time>
      </trkpt>
      <trkpt lat="44.71915" lon="7.01521">
        <ele>2013.8</ele>
        <time>2026-09-03T12:17:04Z</time>
      </trkpt>
      <trkpt lat="44.7192" lon="7.01515">
        <ele>2013.7</ele>
        <time>2026-09-03T12:17:09Z</time>
      </trkpt>
      <trkpt lat="44.71925" lon="7.01508">
        <ele>2014.1</ele>
        <time>2026-09-03T12:17:14Z</time>
      </trkpt>
      <trkpt lat="44.71933" lon="7.01505">
        <ele>2012.8</ele>
        <time>2026-09-03T12:17:20Z</time>
      </trkpt>
      <trkpt lat="44.71937" lon="7.01498">
        <ele>2013.5</ele>
        <time>2026-09-03T12:17:25Z</time>
      </trkpt>
      <trkpt lat="44.7194" lon="7.01491">
        <ele>2015.6</ele>
        <time>2026-09-03T12:17:30Z</time>
      </trkpt>
      <trkpt lat="44.71945" lon="7.01486">
        <ele>2016.2</ele>
        <time>2026-09-03T12:17:36Z</time>
      </trkpt>
      <trkpt lat="44.71951" lon="7.0148">
        <ele>2016.8</ele>
        <time>2026-09-03T12:17:41Z</time>
      </trkpt>
      <trkpt lat="44.71957" lon="7.01473">
        <ele>2017.5</ele>
        <time>2026-09-03T12:17:46Z</time>
      </trkpt>
      <trkpt lat="44.71965" lon="7.01467">
        <ele>2016.9</ele>
        <time>2026-09-03T12:17:52Z</time>
      </trkpt>
      <trkpt lat="44.71972" lon="7.01463">
        <ele>2015.8</ele>
        <time>2026-09-03T12:17:57Z</time>
      </trkpt>
      <trkpt lat="44.71978" lon="7.01461">
        <ele>2014.3</ele>
        <time>2026-09-03T12:18:02Z</time>
      </trkpt>
      <trkpt lat="44.71985" lon="7.01456">
        <ele>2013.3</ele>
        <time>2026-09-03T12:18:08Z</time>
      </trkpt>
      <trkpt lat="44.71992" lon="7.01453">
        <ele>2011.5</ele>
        <time>2026-09-03T12:18:13Z</time>
      </trkpt>
      <trkpt lat="44.71998" lon="7.01449">
        <ele>2010.3</ele>
        <time>2026-09-03T12:18:18Z</time>
      </trkpt>
      <trkpt lat="44.72006" lon="7.01445">
        <ele>2009.4</ele>
        <time>2026-09-03T12:18:24Z</time>
      </trkpt>
      <trkpt lat="44.72011" lon="7.01442">
        <ele>2009.1</ele>
        <time>2026-09-03T12:18:29Z</time>
      </trkpt>
      <trkpt lat="44.72018" lon="7.0144">
        <ele>2008</ele>
        <time>2026-09-03T12:18:34Z</time>
      </trkpt>
      <trkpt lat="44.72026" lon="7.01435">
        <ele>2007.1</ele>
        <time>2026-09-03T12:18:40Z</time>
      </trkpt>
      <trkpt lat="44.72032" lon="7.01434">
        <ele>2005.8</ele>
        <time>2026-09-03T12:18:45Z</time>
      </trkpt>
      <trkpt lat="44.72035" lon="7.01431">
        <ele>2005.5</ele>
        <time>2026-09-03T12:18:50Z</time>
      </trkpt>
      <trkpt lat="44.72035" lon="7.01431">
        <ele>2005.5</ele>
        <time>2026-09-03T12:18:56Z</time>
      </trkpt>
      <trkpt lat="44.72035" lon="7.01431">
        <ele>2005.5</ele>
        <time>2026-09-03T12:19:01Z</time>
      </trkpt>
      <trkpt lat="44.72039" lon="7.01428">
        <ele>2004.7</ele>
        <time>2026-09-03T12:19:06Z</time>
      </trkpt>
      <trkpt lat="44.72044" lon="7.01423">
        <ele>2003.8</ele>
        <time>2026-09-03T12:19:12Z</time>
      </trkpt>
      <trkpt lat="44.72048" lon="7.01419">
        <ele>2002.9</ele>
        <time>2026-09-03T12:19:17Z</time>
      </trkpt>
      <trkpt lat="44.72051" lon="7.01413">
        <ele>2003.1</ele>
        <time>2026-09-03T12:19:22Z</time>
      </trkpt>
      <trkpt lat="44.72056" lon="7.01407">
        <ele>2003.1</ele>
        <time>2026-09-03T12:19:28Z</time>
      </trkpt>
      <trkpt lat="44.7206" lon="7.01402">
        <ele>2003.1</ele>
        <time>2026-09-03T12:19:33Z</time>
      </trkpt>
      <trkpt lat="44.72066" lon="7.01399">
        <ele>2001.7</ele>
        <time>2026-09-03T12:19:38Z</time>
      </trkpt>
      <trkpt lat="44.72073" lon="7.01393">
        <ele>2000.6</ele>
        <time>2026-09-03T12:19:44Z</time>
      </trkpt>
      <trkpt lat="44.72079" lon="7.01388">
        <ele>1999.5</ele>
        <time>2026-09-03T12:19:49Z</time>
      </trkpt>
      <trkpt lat="44.72083" lon="7.01385">
        <ele>1998.6</ele>
        <time>2026-09-03T12:19:54Z</time>
      </trkpt>
      <trkpt lat="44.72088" lon="7.01381">
        <ele>1999</ele>
        <time>2026-09-03T12:20:00Z</time>
      </trkpt>
      <trkpt lat="44.72094" lon="7.01379">
        <ele>1998.9</ele>
        <time>2026-09-03T12:20:05Z</time>
      </trkpt>
      <trkpt lat="44.72101" lon="7.01375">
        <ele>1998.9</ele>
        <time>2026-09-03T12:20:10Z</time>
      </trkpt>
      <trkpt lat="44.72108" lon="7.01371">
        <ele>1998.7</ele>
        <time>2026-09-03T12:20:16Z</time>
      </trkpt>
      <trkpt lat="44.72114" lon="7.01367">
        <ele>1998.5</ele>
        <time>2026-09-03T12:20:21Z</time>
      </trkpt>
      <trkpt lat="44.7212" lon="7.01365">
        <ele>1997.9</ele>
        <time>2026-09-03T12:20:26Z</time>
      </trkpt>
      <trkpt lat="44.72127" lon="7.01361">
        <ele>1997.2</ele>
        <time>2026-09-03T12:20:32Z</time>
      </trkpt>
      <trkpt lat="44.72131" lon="7.01356">
        <ele>1996.8</ele>
        <time>2026-09-03T12:20:37Z</time>
      </trkpt>
      <trkpt lat="44.72137" lon="7.0135">
        <ele>1995.9</ele>
        <time>2026-09-03T12:20:42Z</time>
      </trkpt>
      <trkpt lat="44.72144" lon="7.01345">
        <ele>1994.6</ele>
        <time>2026-09-03T12:20:48Z</time>
      </trkpt>
      <trkpt lat="44.7215" lon="7.0134">
        <ele>1993.2</ele>
        <time>2026-09-03T12:20:53Z</time>
      </trkpt>
      <trkpt lat="44.72156" lon="7.01333">
        <ele>1991.6</ele>
        <time>2026-09-03T12:20:58Z</time>
      </trkpt>
      <trkpt lat="44.72162" lon="7.01326">
        <ele>1991.4</ele>
        <time>2026-09-03T12:21:04Z</time>
      </trkpt>
      <trkpt lat="44.72167" lon="7.01321">
        <ele>1991.1</ele>
        <time>2026-09-03T12:21:09Z</time>
      </trkpt>
      <trkpt lat="44.72173" lon="7.01316">
        <ele>1991.8</ele>
        <time>2026-09-03T12:21:14Z</time>
      </trkpt>
      <trkpt lat="44.72175" lon="7.01319">
        <ele>1991.4</ele>
        <time>2026-09-03T12:21:20Z</time>
      </trkpt>
      <trkpt lat="44.72176" lon="7.0132">
        <ele>1991.2</ele>
        <time>2026-09-03T12:21:25Z</time>
      </trkpt>
      <trkpt lat="44.72177" lon="7.0132">
        <ele>1991.2</ele>
        <time>2026-09-03T12:21:30Z</time>
      </trkpt>
      <trkpt lat="44.72177" lon="7.0132">
        <ele>1991.2</ele>
        <time>2026-09-03T12:21:36Z</time>
      </trkpt>
      <trkpt lat="44.72177" lon="7.0132">
        <ele>1991.2</ele>
        <time>2026-09-03T12:21:41Z</time>
      </trkpt>
      <trkpt lat="44.72177" lon="7.0132">
        <ele>1991.2</ele>
        <time>2026-09-03T12:21:46Z</time>
      </trkpt>
      <trkpt lat="44.72177" lon="7.0132">
        <ele>1991.2</ele>
        <time>2026-09-03T12:21:52Z</time>
      </trkpt>
      <trkpt lat="44.72177" lon="7.0132">
        <ele>1991.2</ele>
        <time>2026-09-03T12:21:57Z</time>
      </trkpt>
      <trkpt lat="44.72177" lon="7.0132">
        <ele>1991.2</ele>
        <time>2026-09-03T12:22:02Z</time>
      </trkpt>
      <trkpt lat="44.72177" lon="7.0132">
        <ele>1991.2</ele>
        <time>2026-09-03T12:22:08Z</time>
      </trkpt>
      <trkpt lat="44.72177" lon="7.0132">
        <ele>1991.2</ele>
        <time>2026-09-03T12:22:13Z</time>
      </trkpt>
      <trkpt lat="44.72177" lon="7.0132">
        <ele>1991.2</ele>
        <time>2026-09-03T12:22:18Z</time>
      </trkpt>
      <trkpt lat="44.72177" lon="7.0132">
        <ele>1991.2</ele>
        <time>2026-09-03T12:22:24Z</time>
      </trkpt>
      <trkpt lat="44.72177" lon="7.0132">
        <ele>1991.2</ele>
        <time>2026-09-03T12:22:29Z</time>
      </trkpt>
      <trkpt lat="44.72177" lon="7.0132">
        <ele>1991.2</ele>
        <time>2026-09-03T12:22:34Z</time>
      </trkpt>
      <trkpt lat="44.72177" lon="7.0132">
        <ele>1991.2</ele>
        <time>2026-09-03T12:22:40Z</time>
      </trkpt>
      <trkpt lat="44.72177" lon="7.0132">
        <ele>1991.2</ele>
        <time>2026-09-03T12:22:45Z</time>
      </trkpt>
      <trkpt lat="44.72177" lon="7.0132">
        <ele>1991.2</ele>
        <time>2026-09-03T12:22:50Z</time>
      </trkpt>
      <trkpt lat="44.72177" lon="7.0132">
        <ele>1991.2</ele>
        <time>2026-09-03T12:22:56Z</time>
      </trkpt>
      <trkpt lat="44.72177" lon="7.0132">
        <ele>1991.2</ele>
        <time>2026-09-03T12:23:01Z</time>
      </trkpt>
      <trkpt lat="44.72177" lon="7.0132">
        <ele>1991.2</ele>
        <time>2026-09-03T12:23:06Z</time>
      </trkpt>
      <trkpt lat="44.72177" lon="7.0132">
        <ele>1991.2</ele>
        <time>2026-09-03T12:23:12Z</time>
      </trkpt>
      <trkpt lat="44.72177" lon="7.0132">
        <ele>1991.2</ele>
        <time>2026-09-03T12:23:17Z</time>
      </trkpt>
      <trkpt lat="44.72177" lon="7.0132">
        <ele>1991.2</ele>
        <time>2026-09-03T12:23:22Z</time>
      </trkpt>
      <trkpt lat="44.72177" lon="7.0132">
        <ele>1991.2</ele>
        <time>2026-09-03T12:23:28Z</time>
      </trkpt>
      <trkpt lat="44.72177" lon="7.0132">
        <ele>1991.2</ele>
        <time>2026-09-03T12:23:33Z</time>
      </trkpt>
      <trkpt lat="44.72177" lon="7.0132">
        <ele>1991.2</ele>
        <time>2026-09-03T12:23:38Z</time>
      </trkpt>
      <trkpt lat="44.72177" lon="7.0132">
        <ele>1991.2</ele>
        <time>2026-09-03T12:23:44Z</time>
      </trkpt>
      <trkpt lat="44.72177" lon="7.0132">
        <ele>1991.2</ele>
        <time>2026-09-03T12:23:49Z</time>
      </trkpt>
      <trkpt lat="44.72177" lon="7.0132">
        <ele>1991.2</ele>
        <time>2026-09-03T12:23:54Z</time>
      </trkpt>
      <trkpt lat="44.72177" lon="7.0132">
        <ele>1991.2</ele>
        <time>2026-09-03T12:24:00Z</time>
      </trkpt>
      <trkpt lat="44.72177" lon="7.0132">
        <ele>1991.2</ele>
        <time>2026-09-03T12:24:05Z</time>
      </trkpt>
      <trkpt lat="44.72177" lon="7.0132">
        <ele>1991.2</ele>
        <time>2026-09-03T12:24:10Z</time>
      </trkpt>
      <trkpt lat="44.72177" lon="7.0132">
        <ele>1991.2</ele>
        <time>2026-09-03T12:24:16Z</time>
      </trkpt>
      <trkpt lat="44.72177" lon="7.0132">
        <ele>1991.2</ele>
        <time>2026-09-03T12:24:21Z</time>
      </trkpt>
      <trkpt lat="44.72177" lon="7.0132">
        <ele>1991.2</ele>
        <time>2026-09-03T12:24:26Z</time>
      </trkpt>
      <trkpt lat="44.72177" lon="7.0132">
        <ele>1991.2</ele>
        <time>2026-09-03T12:24:32Z</time>
      </trkpt>
      <trkpt lat="44.72177" lon="7.0132">
        <ele>1991.2</ele>
        <time>2026-09-03T12:24:37Z</time>
      </trkpt>
      <trkpt lat="44.72177" lon="7.0132">
        <ele>1991.2</ele>
        <time>2026-09-03T12:24:42Z</time>
      </trkpt>
      <trkpt lat="44.72177" lon="7.0132">
        <ele>1991.2</ele>
        <time>2026-09-03T12:24:48Z</time>
      </trkpt>
      <trkpt lat="44.72177" lon="7.0132">
        <ele>1991.2</ele>
        <time>2026-09-03T12:24:53Z</time>
      </trkpt>
      <trkpt lat="44.72177" lon="7.0132">
        <ele>1991.2</ele>
        <time>2026-09-03T12:24:58Z</time>
      </trkpt>
      <trkpt lat="44.72177" lon="7.0132">
        <ele>1991.2</ele>
        <time>2026-09-03T12:25:04Z</time>
      </trkpt>
      <trkpt lat="44.72177" lon="7.0132">
        <ele>1991.2</ele>
        <time>2026-09-03T12:25:09Z</time>
      </trkpt>
      <trkpt lat="44.72177" lon="7.0132">
        <ele>1991.2</ele>
        <time>2026-09-03T12:25:14Z</time>
      </trkpt>
      <trkpt lat="44.72177" lon="7.0132">
        <ele>1991.2</ele>
        <time>2026-09-03T12:25:20Z</time>
      </trkpt>
      <trkpt lat="44.72177" lon="7.0132">
        <ele>1991.2</ele>
        <time>2026-09-03T12:25:25Z</time>
      </trkpt>
      <trkpt lat="44.72177" lon="7.0132">
        <ele>1991.2</ele>
        <time>2026-09-03T12:25:30Z</time>
      </trkpt>
      <trkpt lat="44.72177" lon="7.0132">
        <ele>1991.2</ele>
        <time>2026-09-03T12:25:36Z</time>
      </trkpt>
      <trkpt lat="44.72177" lon="7.0132">
        <ele>1991.2</ele>
        <time>2026-09-03T12:25:41Z</time>
      </trkpt>
      <trkpt lat="44.72177" lon="7.0132">
        <ele>1991.2</ele>
        <time>2026-09-03T12:25:46Z</time>
      </trkpt>
      <trkpt lat="44.72177" lon="7.0132">
        <ele>1991.2</ele>
        <time>2026-09-03T12:25:52Z</time>
      </trkpt>
      <trkpt lat="44.72177" lon="7.0132">
        <ele>1991.2</ele>
        <time>2026-09-03T12:25:57Z</time>
      </trkpt>
      <trkpt lat="44.72177" lon="7.0132">
        <ele>1991.2</ele>
        <time>2026-09-03T12:26:02Z</time>
      </trkpt>
      <trkpt lat="44.72177" lon="7.0132">
        <ele>1991.2</ele>
        <time>2026-09-03T12:26:08Z</time>
      </trkpt>
      <trkpt lat="44.72177" lon="7.0132">
        <ele>1991.2</ele>
        <time>2026-09-03T12:26:13Z</time>
      </trkpt>
      <trkpt lat="44.72177" lon="7.0132">
        <ele>1991.2</ele>
        <time>2026-09-03T12:26:18Z</time>
      </trkpt>
      <trkpt lat="44.72177" lon="7.0132">
        <ele>1991.2</ele>
        <time>2026-09-03T12:26:24Z</time>
      </trkpt>
      <trkpt lat="44.72177" lon="7.0132">
        <ele>1991.2</ele>
        <time>2026-09-03T12:26:29Z</time>
      </trkpt>
      <trkpt lat="44.72177" lon="7.0132">
        <ele>1991.2</ele>
        <time>2026-09-03T12:26:34Z</time>
      </trkpt>
      <trkpt lat="44.72177" lon="7.0132">
        <ele>1991.2</ele>
        <time>2026-09-03T12:26:40Z</time>
      </trkpt>
      <trkpt lat="44.72177" lon="7.0132">
        <ele>1991.2</ele>
        <time>2026-09-03T12:26:45Z</time>
      </trkpt>
      <trkpt lat="44.72177" lon="7.0132">
        <ele>1991.2</ele>
        <time>2026-09-03T12:26:50Z</time>
      </trkpt>
      <trkpt lat="44.72177" lon="7.0132">
        <ele>1991.2</ele>
        <time>2026-09-03T12:26:56Z</time>
      </trkpt>
      <trkpt lat="44.72177" lon="7.0132">
        <ele>1991.2</ele>
        <time>2026-09-03T12:27:01Z</time>
      </trkpt>
      <trkpt lat="44.72177" lon="7.0132">
        <ele>1991.2</ele>
        <time>2026-09-03T12:27:06Z</time>
      </trkpt>
      <trkpt lat="44.72177" lon="7.0132">
        <ele>1991.2</ele>
        <time>2026-09-03T12:27:12Z</time>
      </trkpt>
      <trkpt lat="44.72177" lon="7.0132">
        <ele>1991.2</ele>
        <time>2026-09-03T12:27:17Z</time>
      </trkpt>
      <trkpt lat="44.72177" lon="7.0132">
        <ele>1991.2</ele>
        <time>2026-09-03T12:27:22Z</time>
      </trkpt>
      <trkpt lat="44.72177" lon="7.0132">
        <ele>1991.2</ele>
        <time>2026-09-03T12:27:28Z</time>
      </trkpt>
      <trkpt lat="44.72177" lon="7.0132">
        <ele>1991.2</ele>
        <time>2026-09-03T12:27:33Z</time>
      </trkpt>
      <trkpt lat="44.72177" lon="7.0132">
        <ele>1991.2</ele>
        <time>2026-09-03T12:27:38Z</time>
      </trkpt>
      <trkpt lat="44.72177" lon="7.0132">
        <ele>1991.2</ele>
        <time>2026-09-03T12:27:44Z</time>
      </trkpt>
      <trkpt lat="44.72177" lon="7.0132">
        <ele>1991.2</ele>
        <time>2026-09-03T12:27:49Z</time>
      </trkpt>
      <trkpt lat="44.72177" lon="7.0132">
        <ele>1991.2</ele>
        <time>2026-09-03T12:27:54Z</time>
      </trkpt>
      <trkpt lat="44.72177" lon="7.0132">
        <ele>1991.2</ele>
        <time>2026-09-03T12:28:00Z</time>
      </trkpt>
      <trkpt lat="44.72177" lon="7.0132">
        <ele>1991.2</ele>
        <time>2026-09-03T12:28:05Z</time>
      </trkpt>
      <trkpt lat="44.72177" lon="7.0132">
        <ele>1991.2</ele>
        <time>2026-09-03T12:28:10Z</time>
      </trkpt>
      <trkpt lat="44.72177" lon="7.0132">
        <ele>1991.2</ele>
        <time>2026-09-03T12:28:16Z</time>
      </trkpt>
      <trkpt lat="44.72177" lon="7.0132">
        <ele>1991.2</ele>
        <time>2026-09-03T12:28:21Z</time>
      </trkpt>
      <trkpt lat="44.72177" lon="7.0132">
        <ele>1991.2</ele>
        <time>2026-09-03T12:28:26Z</time>
      </trkpt>
      <trkpt lat="44.72177" lon="7.0132">
        <ele>1991.2</ele>
        <time>2026-09-03T12:28:32Z</time>
      </trkpt>
      <trkpt lat="44.72177" lon="7.0132">
        <ele>1991.2</ele>
        <time>2026-09-03T12:28:37Z</time>
      </trkpt>
      <trkpt lat="44.72177" lon="7.0132">
        <ele>1991.2</ele>
        <time>2026-09-03T12:28:42Z</time>
      </trkpt>
      <trkpt lat="44.72177" lon="7.0132">
        <ele>1991.2</ele>
        <time>2026-09-03T12:28:48Z</time>
      </trkpt>
      <trkpt lat="44.72177" lon="7.0132">
        <ele>1991.2</ele>
        <time>2026-09-03T12:28:53Z</time>
      </trkpt>
      <trkpt lat="44.72177" lon="7.0132">
        <ele>1991.2</ele>
        <time>2026-09-03T12:28:58Z</time>
      </trkpt>
      <trkpt lat="44.72177" lon="7.0132">
        <ele>1991.2</ele>
        <time>2026-09-03T12:29:04Z</time>
      </trkpt>
      <trkpt lat="44.72177" lon="7.0132">
        <ele>1991.2</ele>
        <time>2026-09-03T12:29:09Z</time>
      </trkpt>
      <trkpt lat="44.72182" lon="7.01313">
        <ele>1992.1</ele>
        <time>2026-09-03T12:29:14Z</time>
      </trkpt>
      <trkpt lat="44.72186" lon="7.01313">
        <ele>1992</ele>
        <time>2026-09-03T12:29:20Z</time>
      </trkpt>
      <trkpt lat="44.72186" lon="7.01312">
        <ele>1992.1</ele>
        <time>2026-09-03T12:29:25Z</time>
      </trkpt>
      <trkpt lat="44.72186" lon="7.01307">
        <ele>1992.7</ele>
        <time>2026-09-03T12:29:30Z</time>
      </trkpt>
      <trkpt lat="44.72191" lon="7.01306">
        <ele>1992.6</ele>
        <time>2026-09-03T12:29:36Z</time>
      </trkpt>
      <trkpt lat="44.72196" lon="7.01303">
        <ele>1992.6</ele>
        <time>2026-09-03T12:29:41Z</time>
      </trkpt>
      <trkpt lat="44.72203" lon="7.01302">
        <ele>1992.3</ele>
        <time>2026-09-03T12:29:46Z</time>
      </trkpt>
      <trkpt lat="44.72211" lon="7.01298">
        <ele>1992</ele>
        <time>2026-09-03T12:29:52Z</time>
      </trkpt>
      <trkpt lat="44.72216" lon="7.01294">
        <ele>1991.8</ele>
        <time>2026-09-03T12:29:57Z</time>
      </trkpt>
      <trkpt lat="44.72222" lon="7.01289">
        <ele>1991.4</ele>
        <time>2026-09-03T12:30:02Z</time>
      </trkpt>
      <trkpt lat="44.72229" lon="7.01282">
        <ele>1990.7</ele>
        <time>2026-09-03T12:30:08Z</time>
      </trkpt>
      <trkpt lat="44.72234" lon="7.01274">
        <ele>1989.9</ele>
        <time>2026-09-03T12:30:13Z</time>
      </trkpt>
      <trkpt lat="44.72238" lon="7.01266">
        <ele>1989</ele>
        <time>2026-09-03T12:30:18Z</time>
      </trkpt>
      <trkpt lat="44.72245" lon="7.01261">
        <ele>1987.7</ele>
        <time>2026-09-03T12:30:24Z</time>
      </trkpt>
      <trkpt lat="44.72252" lon="7.01254">
        <ele>1986.3</ele>
        <time>2026-09-03T12:30:29Z</time>
      </trkpt>
      <trkpt lat="44.72259" lon="7.0125">
        <ele>1985.9</ele>
        <time>2026-09-03T12:30:34Z</time>
      </trkpt>
      <trkpt lat="44.72267" lon="7.01242">
        <ele>1986.4</ele>
        <time>2026-09-03T12:30:40Z</time>
      </trkpt>
      <trkpt lat="44.72272" lon="7.01237">
        <ele>1986.6</ele>
        <time>2026-09-03T12:30:45Z</time>
      </trkpt>
      <trkpt lat="44.72277" lon="7.01231">
        <ele>1986.6</ele>
        <time>2026-09-03T12:30:50Z</time>
      </trkpt>
      <trkpt lat="44.72285" lon="7.01225">
        <ele>1986.2</ele>
        <time>2026-09-03T12:30:56Z</time>
      </trkpt>
      <trkpt lat="44.7229" lon="7.01216">
        <ele>1985.9</ele>
        <time>2026-09-03T12:31:01Z</time>
      </trkpt>
      <trkpt lat="44.72296" lon="7.01211">
        <ele>1985.2</ele>
        <time>2026-09-03T12:31:06Z</time>
      </trkpt>
      <trkpt lat="44.72302" lon="7.01203">
        <ele>1984.2</ele>
        <time>2026-09-03T12:31:12Z</time>
      </trkpt>
      <trkpt lat="44.72307" lon="7.01196">
        <ele>1983.1</ele>
        <time>2026-09-03T12:31:17Z</time>
      </trkpt>
      <trkpt lat="44.72313" lon="7.01191">
        <ele>1981.8</ele>
        <time>2026-09-03T12:31:22Z</time>
      </trkpt>
      <trkpt lat="44.72322" lon="7.01185">
        <ele>1979.6</ele>
        <time>2026-09-03T12:31:28Z</time>
      </trkpt>
      <trkpt lat="44.72327" lon="7.01179">
        <ele>1977.9</ele>
        <time>2026-09-03T12:31:33Z</time>
      </trkpt>
      <trkpt lat="44.72329" lon="7.01179">
        <ele>1977.5</ele>
        <time>2026-09-03T12:31:38Z</time>
      </trkpt>
      <trkpt lat="44.72334" lon="7.01178">
        <ele>1976.4</ele>
        <time>2026-09-03T12:31:44Z</time>
      </trkpt>
      <trkpt lat="44.72341" lon="7.01173">
        <ele>1976.5</ele>
        <time>2026-09-03T12:31:49Z</time>
      </trkpt>
      <trkpt lat="44.72348" lon="7.01168">
        <ele>1976.4</ele>
        <time>2026-09-03T12:31:54Z</time>
      </trkpt>
      <trkpt lat="44.72354" lon="7.01161">
        <ele>1977.7</ele>
        <time>2026-09-03T12:32:00Z</time>
      </trkpt>
      <trkpt lat="44.7236" lon="7.01153">
        <ele>1979.1</ele>
        <time>2026-09-03T12:32:05Z</time>
      </trkpt>
      <trkpt lat="44.72362" lon="7.01144">
        <ele>1980.3</ele>
        <time>2026-09-03T12:32:10Z</time>
      </trkpt>
      <trkpt lat="44.72366" lon="7.01133">
        <ele>1981.4</ele>
        <time>2026-09-03T12:32:16Z</time>
      </trkpt>
      <trkpt lat="44.72369" lon="7.01124">
        <ele>1982</ele>
        <time>2026-09-03T12:32:21Z</time>
      </trkpt>
      <trkpt lat="44.72372" lon="7.01115">
        <ele>1982.4</ele>
        <time>2026-09-03T12:32:26Z</time>
      </trkpt>
      <trkpt lat="44.72374" lon="7.01105">
        <ele>1982.8</ele>
        <time>2026-09-03T12:32:32Z</time>
      </trkpt>
      <trkpt lat="44.72377" lon="7.01096">
        <ele>1982.7</ele>
        <time>2026-09-03T12:32:37Z</time>
      </trkpt>
      <trkpt lat="44.7238" lon="7.01088">
        <ele>1982.2</ele>
        <time>2026-09-03T12:32:42Z</time>
      </trkpt>
      <trkpt lat="44.72386" lon="7.01077">
        <ele>1982.2</ele>
        <time>2026-09-03T12:32:48Z</time>
      </trkpt>
      <trkpt lat="44.72389" lon="7.0107">
        <ele>1983</ele>
        <time>2026-09-03T12:32:53Z</time>
      </trkpt>
      <trkpt lat="44.72394" lon="7.0106">
        <ele>1983.5</ele>
        <time>2026-09-03T12:32:58Z</time>
      </trkpt>
      <trkpt lat="44.72398" lon="7.01049">
        <ele>1984.4</ele>
        <time>2026-09-03T12:33:04Z</time>
      </trkpt>
      <trkpt lat="44.724" lon="7.01039">
        <ele>1985.7</ele>
        <time>2026-09-03T12:33:09Z</time>
      </trkpt>
      <trkpt lat="44.72402" lon="7.01029">
        <ele>1986.8</ele>
        <time>2026-09-03T12:33:14Z</time>
      </trkpt>
      <trkpt lat="44.72404" lon="7.01018">
        <ele>1988</ele>
        <time>2026-09-03T12:33:20Z</time>
      </trkpt>
      <trkpt lat="44.72408" lon="7.01011">
        <ele>1987.2</ele>
        <time>2026-09-03T12:33:25Z</time>
      </trkpt>
      <trkpt lat="44.72414" lon="7.01004">
        <ele>1984.9</ele>
        <time>2026-09-03T12:33:30Z</time>
      </trkpt>
      <trkpt lat="44.72419" lon="7.00994">
        <ele>1985.9</ele>
        <time>2026-09-03T12:33:36Z</time>
      </trkpt>
      <trkpt lat="44.72422" lon="7.00985">
        <ele>1988.6</ele>
        <time>2026-09-03T12:33:41Z</time>
      </trkpt>
      <trkpt lat="44.72427" lon="7.00977">
        <ele>1990.4</ele>
        <time>2026-09-03T12:33:46Z</time>
      </trkpt>
      <trkpt lat="44.72432" lon="7.00969">
        <ele>1991.6</ele>
        <time>2026-09-03T12:33:52Z</time>
      </trkpt>
      <trkpt lat="44.72434" lon="7.00962">
        <ele>1992.9</ele>
        <time>2026-09-03T12:33:57Z</time>
      </trkpt>
      <trkpt lat="44.72436" lon="7.00954">
        <ele>1994.3</ele>
        <time>2026-09-03T12:34:02Z</time>
      </trkpt>
      <trkpt lat="44.72439" lon="7.00945">
        <ele>1995.4</ele>
        <time>2026-09-03T12:34:08Z</time>
      </trkpt>
      <trkpt lat="44.72444" lon="7.00936">
        <ele>1995.3</ele>
        <time>2026-09-03T12:34:13Z</time>
      </trkpt>
      <trkpt lat="44.7245" lon="7.00928">
        <ele>1994.1</ele>
        <time>2026-09-03T12:34:18Z</time>
      </trkpt>
      <trkpt lat="44.72453" lon="7.00917">
        <ele>1994.2</ele>
        <time>2026-09-03T12:34:24Z</time>
      </trkpt>
      <trkpt lat="44.72456" lon="7.00909">
        <ele>1994.6</ele>
        <time>2026-09-03T12:34:29Z</time>
      </trkpt>
      <trkpt lat="44.72461" lon="7.00902">
        <ele>1993.4</ele>
        <time>2026-09-03T12:34:34Z</time>
      </trkpt>
      <trkpt lat="44.72467" lon="7.00894">
        <ele>1991.7</ele>
        <time>2026-09-03T12:34:40Z</time>
      </trkpt>
      <trkpt lat="44.72473" lon="7.00888">
        <ele>1989.2</ele>
        <time>2026-09-03T12:34:45Z</time>
      </trkpt>
      <trkpt lat="44.72478" lon="7.0088">
        <ele>1987.5</ele>
        <time>2026-09-03T12:34:50Z</time>
      </trkpt>
      <trkpt lat="44.7248" lon="7.00865">
        <ele>1988.7</ele>
        <time>2026-09-03T12:34:56Z</time>
      </trkpt>
      <trkpt lat="44.72482" lon="7.00854">
        <ele>1989</ele>
        <time>2026-09-03T12:35:01Z</time>
      </trkpt>
      <trkpt lat="44.7248" lon="7.00842">
        <ele>1992.4</ele>
        <time>2026-09-03T12:35:06Z</time>
      </trkpt>
      <trkpt lat="44.72479" lon="7.00829">
        <ele>1995.5</ele>
        <time>2026-09-03T12:35:12Z</time>
      </trkpt>
      <trkpt lat="44.72479" lon="7.0082">
        <ele>1997.2</ele>
        <time>2026-09-03T12:35:17Z</time>
      </trkpt>
      <trkpt lat="44.7248" lon="7.0081">
        <ele>1998.3</ele>
        <time>2026-09-03T12:35:22Z</time>
      </trkpt>
      <trkpt lat="44.72483" lon="7.00798">
        <ele>1998.1</ele>
        <time>2026-09-03T12:35:28Z</time>
      </trkpt>
      <trkpt lat="44.72486" lon="7.00791">
        <ele>1996.9</ele>
        <time>2026-09-03T12:35:33Z</time>
      </trkpt>
      <trkpt lat="44.72491" lon="7.00785">
        <ele>1993.7</ele>
        <time>2026-09-03T12:35:38Z</time>
      </trkpt>
      <trkpt lat="44.72498" lon="7.00783">
        <ele>1988.2</ele>
        <time>2026-09-03T12:35:44Z</time>
      </trkpt>
      <trkpt lat="44.72505" lon="7.00783">
        <ele>1985.4</ele>
        <time>2026-09-03T12:35:49Z</time>
      </trkpt>
      <trkpt lat="44.72512" lon="7.0078">
        <ele>1984.2</ele>
        <time>2026-09-03T12:35:54Z</time>
      </trkpt>
      <trkpt lat="44.72518" lon="7.00771">
        <ele>1983.7</ele>
        <time>2026-09-03T12:36:00Z</time>
      </trkpt>
      <trkpt lat="44.72523" lon="7.00763">
        <ele>1983</ele>
        <time>2026-09-03T12:36:05Z</time>
      </trkpt>
      <trkpt lat="44.72529" lon="7.00757">
        <ele>1981.5</ele>
        <time>2026-09-03T12:36:10Z</time>
      </trkpt>
      <trkpt lat="44.72532" lon="7.00748">
        <ele>1980.9</ele>
        <time>2026-09-03T12:36:16Z</time>
      </trkpt>
      <trkpt lat="44.72536" lon="7.00738">
        <ele>1979.8</ele>
        <time>2026-09-03T12:36:21Z</time>
      </trkpt>
      <trkpt lat="44.72541" lon="7.00732">
        <ele>1977.8</ele>
        <time>2026-09-03T12:36:26Z</time>
      </trkpt>
      <trkpt lat="44.72548" lon="7.00725">
        <ele>1974.6</ele>
        <time>2026-09-03T12:36:32Z</time>
      </trkpt>
      <trkpt lat="44.72555" lon="7.00724">
        <ele>1971.4</ele>
        <time>2026-09-03T12:36:37Z</time>
      </trkpt>
      <trkpt lat="44.72562" lon="7.00722">
        <ele>1968</ele>
        <time>2026-09-03T12:36:42Z</time>
      </trkpt>
      <trkpt lat="44.72569" lon="7.00716">
        <ele>1964</ele>
        <time>2026-09-03T12:36:48Z</time>
      </trkpt>
      <trkpt lat="44.72577" lon="7.00715">
        <ele>1959.9</ele>
        <time>2026-09-03T12:36:53Z</time>
      </trkpt>
      <trkpt lat="44.72584" lon="7.00719">
        <ele>1957.5</ele>
        <time>2026-09-03T12:36:58Z</time>
      </trkpt>
      <trkpt lat="44.72591" lon="7.00722">
        <ele>1959.4</ele>
        <time>2026-09-03T12:37:04Z</time>
      </trkpt>
      <trkpt lat="44.72598" lon="7.00722">
        <ele>1960.7</ele>
        <time>2026-09-03T12:37:09Z</time>
      </trkpt>
      <trkpt lat="44.72603" lon="7.00718">
        <ele>1960.7</ele>
        <time>2026-09-03T12:37:14Z</time>
      </trkpt>
      <trkpt lat="44.72608" lon="7.00712">
        <ele>1960.3</ele>
        <time>2026-09-03T12:37:20Z</time>
      </trkpt>
      <trkpt lat="44.7261" lon="7.00701">
        <ele>1958.2</ele>
        <time>2026-09-03T12:37:25Z</time>
      </trkpt>
      <trkpt lat="44.72613" lon="7.00691">
        <ele>1956.4</ele>
        <time>2026-09-03T12:37:30Z</time>
      </trkpt>
      <trkpt lat="44.72616" lon="7.00677">
        <ele>1953.5</ele>
        <time>2026-09-03T12:37:36Z</time>
      </trkpt>
      <trkpt lat="44.72619" lon="7.00669">
        <ele>1952</ele>
        <time>2026-09-03T12:37:41Z</time>
      </trkpt>
      <trkpt lat="44.72622" lon="7.00663">
        <ele>1951.4</ele>
        <time>2026-09-03T12:37:46Z</time>
      </trkpt>
      <trkpt lat="44.72622" lon="7.00663">
        <ele>1951.4</ele>
        <time>2026-09-03T12:37:52Z</time>
      </trkpt>
      <trkpt lat="44.72622" lon="7.00663">
        <ele>1951.4</ele>
        <time>2026-09-03T12:37:57Z</time>
      </trkpt>
      <trkpt lat="44.72622" lon="7.00663">
        <ele>1951.4</ele>
        <time>2026-09-03T12:38:02Z</time>
      </trkpt>
      <trkpt lat="44.72622" lon="7.00663">
        <ele>1951.4</ele>
        <time>2026-09-03T12:38:08Z</time>
      </trkpt>
      <trkpt lat="44.72622" lon="7.00663">
        <ele>1951.4</ele>
        <time>2026-09-03T12:38:13Z</time>
      </trkpt>
      <trkpt lat="44.72622" lon="7.00663">
        <ele>1951.4</ele>
        <time>2026-09-03T12:38:18Z</time>
      </trkpt>
      <trkpt lat="44.7263" lon="7.00661">
        <ele>1951.8</ele>
        <time>2026-09-03T12:38:24Z</time>
      </trkpt>
      <trkpt lat="44.7263" lon="7.00653">
        <ele>1950.9</ele>
        <time>2026-09-03T12:38:29Z</time>
      </trkpt>
      <trkpt lat="44.72629" lon="7.00648">
        <ele>1950.3</ele>
        <time>2026-09-03T12:38:34Z</time>
      </trkpt>
      <trkpt lat="44.7263" lon="7.0064">
        <ele>1949.4</ele>
        <time>2026-09-03T12:38:40Z</time>
      </trkpt>
      <trkpt lat="44.72635" lon="7.00634">
        <ele>1948.7</ele>
        <time>2026-09-03T12:38:45Z</time>
      </trkpt>
      <trkpt lat="44.72641" lon="7.00631">
        <ele>1948.3</ele>
        <time>2026-09-03T12:38:50Z</time>
      </trkpt>
      <trkpt lat="44.72646" lon="7.00626">
        <ele>1947.5</ele>
        <time>2026-09-03T12:38:56Z</time>
      </trkpt>
      <trkpt lat="44.72653" lon="7.00626">
        <ele>1947.4</ele>
        <time>2026-09-03T12:39:01Z</time>
      </trkpt>
      <trkpt lat="44.7266" lon="7.00626">
        <ele>1947.3</ele>
        <time>2026-09-03T12:39:06Z</time>
      </trkpt>
      <trkpt lat="44.72669" lon="7.00629">
        <ele>1948.2</ele>
        <time>2026-09-03T12:39:12Z</time>
      </trkpt>
      <trkpt lat="44.72677" lon="7.00632">
        <ele>1950</ele>
        <time>2026-09-03T12:39:17Z</time>
      </trkpt>
      <trkpt lat="44.72683" lon="7.00634">
        <ele>1951.4</ele>
        <time>2026-09-03T12:39:22Z</time>
      </trkpt>
      <trkpt lat="44.72693" lon="7.00633">
        <ele>1952.6</ele>
        <time>2026-09-03T12:39:28Z</time>
      </trkpt>
      <trkpt lat="44.727" lon="7.00629">
        <ele>1952.6</ele>
        <time>2026-09-03T12:39:33Z</time>
      </trkpt>
      <trkpt lat="44.72706" lon="7.00624">
        <ele>1952.2</ele>
        <time>2026-09-03T12:39:38Z</time>
      </trkpt>
      <trkpt lat="44.72714" lon="7.00618">
        <ele>1951.6</ele>
        <time>2026-09-03T12:39:44Z</time>
      </trkpt>
      <trkpt lat="44.72719" lon="7.00613">
        <ele>1950.8</ele>
        <time>2026-09-03T12:39:49Z</time>
      </trkpt>
      <trkpt lat="44.72724" lon="7.00607">
        <ele>1949.7</ele>
        <time>2026-09-03T12:39:54Z</time>
      </trkpt>
      <trkpt lat="44.72731" lon="7.00605">
        <ele>1949.9</ele>
        <time>2026-09-03T12:40:00Z</time>
      </trkpt>
      <trkpt lat="44.72738" lon="7.00604">
        <ele>1950.4</ele>
        <time>2026-09-03T12:40:05Z</time>
      </trkpt>
      <trkpt lat="44.72744" lon="7.006">
        <ele>1949.8</ele>
        <time>2026-09-03T12:40:10Z</time>
      </trkpt>
      <trkpt lat="44.72749" lon="7.00592">
        <ele>1947.7</ele>
        <time>2026-09-03T12:40:16Z</time>
      </trkpt>
      <trkpt lat="44.72753" lon="7.00584">
        <ele>1945.7</ele>
        <time>2026-09-03T12:40:21Z</time>
      </trkpt>
      <trkpt lat="44.72756" lon="7.00577">
        <ele>1944.6</ele>
        <time>2026-09-03T12:40:26Z</time>
      </trkpt>
      <trkpt lat="44.72761" lon="7.00568">
        <ele>1943.5</ele>
        <time>2026-09-03T12:40:32Z</time>
      </trkpt>
      <trkpt lat="44.72765" lon="7.00562">
        <ele>1942.8</ele>
        <time>2026-09-03T12:40:37Z</time>
      </trkpt>
      <trkpt lat="44.7277" lon="7.00555">
        <ele>1941.9</ele>
        <time>2026-09-03T12:40:42Z</time>
      </trkpt>
      <trkpt lat="44.72776" lon="7.00545">
        <ele>1940.5</ele>
        <time>2026-09-03T12:40:48Z</time>
      </trkpt>
      <trkpt lat="44.72782" lon="7.00538">
        <ele>1939.7</ele>
        <time>2026-09-03T12:40:53Z</time>
      </trkpt>
      <trkpt lat="44.72787" lon="7.00532">
        <ele>1938.9</ele>
        <time>2026-09-03T12:40:58Z</time>
      </trkpt>
      <trkpt lat="44.72792" lon="7.00526">
        <ele>1938.1</ele>
        <time>2026-09-03T12:41:04Z</time>
      </trkpt>
      <trkpt lat="44.72797" lon="7.00519">
        <ele>1937</ele>
        <time>2026-09-03T12:41:09Z</time>
      </trkpt>
      <trkpt lat="44.72804" lon="7.00513">
        <ele>1936.3</ele>
        <time>2026-09-03T12:41:14Z</time>
      </trkpt>
      <trkpt lat="44.72812" lon="7.00505">
        <ele>1935.2</ele>
        <time>2026-09-03T12:41:20Z</time>
      </trkpt>
      <trkpt lat="44.72817" lon="7.00498">
        <ele>1934.2</ele>
        <time>2026-09-03T12:41:25Z</time>
      </trkpt>
      <trkpt lat="44.72822" lon="7.00494">
        <ele>1934</ele>
        <time>2026-09-03T12:41:30Z</time>
      </trkpt>
      <trkpt lat="44.72828" lon="7.00484">
        <ele>1932.8</ele>
        <time>2026-09-03T12:41:36Z</time>
      </trkpt>
      <trkpt lat="44.72831" lon="7.00477">
        <ele>1931.8</ele>
        <time>2026-09-03T12:41:41Z</time>
      </trkpt>
      <trkpt lat="44.72835" lon="7.0047">
        <ele>1931</ele>
        <time>2026-09-03T12:41:46Z</time>
      </trkpt>
      <trkpt lat="44.72842" lon="7.00461">
        <ele>1930.8</ele>
        <time>2026-09-03T12:41:52Z</time>
      </trkpt>
      <trkpt lat="44.72846" lon="7.00454">
        <ele>1930.3</ele>
        <time>2026-09-03T12:41:57Z</time>
      </trkpt>
      <trkpt lat="44.72852" lon="7.00448">
        <ele>1930.2</ele>
        <time>2026-09-03T12:42:02Z</time>
      </trkpt>
      <trkpt lat="44.7286" lon="7.0044">
        <ele>1929.9</ele>
        <time>2026-09-03T12:42:08Z</time>
      </trkpt>
      <trkpt lat="44.72864" lon="7.0043">
        <ele>1928.2</ele>
        <time>2026-09-03T12:42:13Z</time>
      </trkpt>
      <trkpt lat="44.7287" lon="7.00423">
        <ele>1927.4</ele>
        <time>2026-09-03T12:42:18Z</time>
      </trkpt>
      <trkpt lat="44.72875" lon="7.00413">
        <ele>1926.3</ele>
        <time>2026-09-03T12:42:24Z</time>
      </trkpt>
      <trkpt lat="44.72881" lon="7.00407">
        <ele>1926.6</ele>
        <time>2026-09-03T12:42:29Z</time>
      </trkpt>
      <trkpt lat="44.72887" lon="7.00401">
        <ele>1926.6</ele>
        <time>2026-09-03T12:42:34Z</time>
      </trkpt>
      <trkpt lat="44.72895" lon="7.00393">
        <ele>1926.3</ele>
        <time>2026-09-03T12:42:40Z</time>
      </trkpt>
      <trkpt lat="44.72899" lon="7.00385">
        <ele>1925.4</ele>
        <time>2026-09-03T12:42:45Z</time>
      </trkpt>
      <trkpt lat="44.72903" lon="7.00378">
        <ele>1924.5</ele>
        <time>2026-09-03T12:42:50Z</time>
      </trkpt>
      <trkpt lat="44.7291" lon="7.00372">
        <ele>1923.5</ele>
        <time>2026-09-03T12:42:56Z</time>
      </trkpt>
      <trkpt lat="44.72915" lon="7.00367">
        <ele>1922.5</ele>
        <time>2026-09-03T12:43:01Z</time>
      </trkpt>
      <trkpt lat="44.72918" lon="7.00358">
        <ele>1921</ele>
        <time>2026-09-03T12:43:06Z</time>
      </trkpt>
      <trkpt lat="44.72921" lon="7.00352">
        <ele>1920.3</ele>
        <time>2026-09-03T12:43:12Z</time>
      </trkpt>
      <trkpt lat="44.72919" lon="7.0035">
        <ele>1919.6</ele>
        <time>2026-09-03T12:43:17Z</time>
      </trkpt>
      <trkpt lat="44.72919" lon="7.00349">
        <ele>1919.4</ele>
        <time>2026-09-03T12:43:22Z</time>
      </trkpt>
      <trkpt lat="44.72922" lon="7.00348">
        <ele>1919.7</ele>
        <time>2026-09-03T12:43:28Z</time>
      </trkpt>
      <trkpt lat="44.72928" lon="7.00343">
        <ele>1919.7</ele>
        <time>2026-09-03T12:43:33Z</time>
      </trkpt>
      <trkpt lat="44.72933" lon="7.00337">
        <ele>1919.2</ele>
        <time>2026-09-03T12:43:38Z</time>
      </trkpt>
      <trkpt lat="44.7294" lon="7.00331">
        <ele>1919.3</ele>
        <time>2026-09-03T12:43:44Z</time>
      </trkpt>
      <trkpt lat="44.72945" lon="7.00323">
        <ele>1919.5</ele>
        <time>2026-09-03T12:43:49Z</time>
      </trkpt>
      <trkpt lat="44.72951" lon="7.00315">
        <ele>1919.7</ele>
        <time>2026-09-03T12:43:54Z</time>
      </trkpt>
      <trkpt lat="44.72958" lon="7.0031">
        <ele>1919.9</ele>
        <time>2026-09-03T12:44:00Z</time>
      </trkpt>
      <trkpt lat="44.72964" lon="7.00303">
        <ele>1919.6</ele>
        <time>2026-09-03T12:44:05Z</time>
      </trkpt>
      <trkpt lat="44.7297" lon="7.00298">
        <ele>1919.4</ele>
        <time>2026-09-03T12:44:10Z</time>
      </trkpt>
      <trkpt lat="44.72976" lon="7.00292">
        <ele>1918.8</ele>
        <time>2026-09-03T12:44:16Z</time>
      </trkpt>
      <trkpt lat="44.72983" lon="7.00283">
        <ele>1917.6</ele>
        <time>2026-09-03T12:44:21Z</time>
      </trkpt>
      <trkpt lat="44.72988" lon="7.00275">
        <ele>1916.3</ele>
        <time>2026-09-03T12:44:26Z</time>
      </trkpt>
      <trkpt lat="44.72993" lon="7.00268">
        <ele>1914.9</ele>
        <time>2026-09-03T12:44:32Z</time>
      </trkpt>
      <trkpt lat="44.72998" lon="7.0026">
        <ele>1913.2</ele>
        <time>2026-09-03T12:44:37Z</time>
      </trkpt>
      <trkpt lat="44.73002" lon="7.00251">
        <ele>1911.6</ele>
        <time>2026-09-03T12:44:42Z</time>
      </trkpt>
      <trkpt lat="44.73008" lon="7.00244">
        <ele>1912.6</ele>
        <time>2026-09-03T12:44:48Z</time>
      </trkpt>
      <trkpt lat="44.73015" lon="7.00239">
        <ele>1913.7</ele>
        <time>2026-09-03T12:44:53Z</time>
      </trkpt>
      <trkpt lat="44.73022" lon="7.00234">
        <ele>1914.7</ele>
        <time>2026-09-03T12:44:58Z</time>
      </trkpt>
      <trkpt lat="44.7303" lon="7.00227">
        <ele>1915.4</ele>
        <time>2026-09-03T12:45:04Z</time>
      </trkpt>
      <trkpt lat="44.73035" lon="7.00227">
        <ele>1916.1</ele>
        <time>2026-09-03T12:45:09Z</time>
      </trkpt>
      <trkpt lat="44.73042" lon="7.00225">
        <ele>1916.8</ele>
        <time>2026-09-03T12:45:14Z</time>
      </trkpt>
      <trkpt lat="44.73049" lon="7.00222">
        <ele>1917.4</ele>
        <time>2026-09-03T12:45:20Z</time>
      </trkpt>
      <trkpt lat="44.73054" lon="7.00219">
        <ele>1917.6</ele>
        <time>2026-09-03T12:45:25Z</time>
      </trkpt>
      <trkpt lat="44.73059" lon="7.00219">
        <ele>1918.1</ele>
        <time>2026-09-03T12:45:30Z</time>
      </trkpt>
      <trkpt lat="44.73068" lon="7.00217">
        <ele>1918.8</ele>
        <time>2026-09-03T12:45:36Z</time>
      </trkpt>
      <trkpt lat="44.73073" lon="7.00217">
        <ele>1919.4</ele>
        <time>2026-09-03T12:45:41Z</time>
      </trkpt>
      <trkpt lat="44.7308" lon="7.00212">
        <ele>1919</ele>
        <time>2026-09-03T12:45:46Z</time>
      </trkpt>
      <trkpt lat="44.73085" lon="7.00206">
        <ele>1918.1</ele>
        <time>2026-09-03T12:45:52Z</time>
      </trkpt>
      <trkpt lat="44.7309" lon="7.00206">
        <ele>1918.3</ele>
        <time>2026-09-03T12:45:57Z</time>
      </trkpt>
      <trkpt lat="44.7309" lon="7.00206">
        <ele>1918.3</ele>
        <time>2026-09-03T12:46:02Z</time>
      </trkpt>
      <trkpt lat="44.7309" lon="7.00206">
        <ele>1918.3</ele>
        <time>2026-09-03T12:46:08Z</time>
      </trkpt>
      <trkpt lat="44.7309" lon="7.00206">
        <ele>1918.3</ele>
        <time>2026-09-03T12:46:13Z</time>
      </trkpt>
      <trkpt lat="44.7309" lon="7.00206">
        <ele>1918.3</ele>
        <time>2026-09-03T12:46:18Z</time>
      </trkpt>
      <trkpt lat="44.7309" lon="7.00206">
        <ele>1918.3</ele>
        <time>2026-09-03T12:46:24Z</time>
      </trkpt>
      <trkpt lat="44.7309" lon="7.00206">
        <ele>1918.3</ele>
        <time>2026-09-03T12:46:29Z</time>
      </trkpt>
      <trkpt lat="44.7309" lon="7.00206">
        <ele>1918.3</ele>
        <time>2026-09-03T12:46:34Z</time>
      </trkpt>
      <trkpt lat="44.7309" lon="7.00206">
        <ele>1918.3</ele>
        <time>2026-09-03T12:46:40Z</time>
      </trkpt>
      <trkpt lat="44.7309" lon="7.00206">
        <ele>1918.3</ele>
        <time>2026-09-03T12:46:45Z</time>
      </trkpt>
      <trkpt lat="44.7309" lon="7.00206">
        <ele>1918.3</ele>
        <time>2026-09-03T12:46:50Z</time>
      </trkpt>
      <trkpt lat="44.7309" lon="7.00206">
        <ele>1918.3</ele>
        <time>2026-09-03T12:46:56Z</time>
      </trkpt>
      <trkpt lat="44.73095" lon="7.00204">
        <ele>1918.1</ele>
        <time>2026-09-03T12:47:01Z</time>
      </trkpt>
      <trkpt lat="44.73099" lon="7.00195">
        <ele>1916.1</ele>
        <time>2026-09-03T12:47:06Z</time>
      </trkpt>
      <trkpt lat="44.73106" lon="7.0019">
        <ele>1915.1</ele>
        <time>2026-09-03T12:47:12Z</time>
      </trkpt>
      <trkpt lat="44.7311" lon="7.00184">
        <ele>1913.7</ele>
        <time>2026-09-03T12:47:17Z</time>
      </trkpt>
      <trkpt lat="44.73115" lon="7.00182">
        <ele>1913.4</ele>
        <time>2026-09-03T12:47:22Z</time>
      </trkpt>
      <trkpt lat="44.73125" lon="7.00182">
        <ele>1913.6</ele>
        <time>2026-09-03T12:47:28Z</time>
      </trkpt>
      <trkpt lat="44.73132" lon="7.00181">
        <ele>1913.6</ele>
        <time>2026-09-03T12:47:33Z</time>
      </trkpt>
      <trkpt lat="44.73139" lon="7.00179">
        <ele>1913.2</ele>
        <time>2026-09-03T12:47:38Z</time>
      </trkpt>
      <trkpt lat="44.73146" lon="7.00174">
        <ele>1911.9</ele>
        <time>2026-09-03T12:47:44Z</time>
      </trkpt>
      <trkpt lat="44.73151" lon="7.00171">
        <ele>1911.1</ele>
        <time>2026-09-03T12:47:49Z</time>
      </trkpt>
      <trkpt lat="44.73156" lon="7.00168">
        <ele>1910.3</ele>
        <time>2026-09-03T12:47:54Z</time>
      </trkpt>
      <trkpt lat="44.73162" lon="7.00164">
        <ele>1909.4</ele>
        <time>2026-09-03T12:48:00Z</time>
      </trkpt>
      <trkpt lat="44.73166" lon="7.00161">
        <ele>1908.8</ele>
        <time>2026-09-03T12:48:05Z</time>
      </trkpt>
      <trkpt lat="44.7317" lon="7.00159">
        <ele>1908.1</ele>
        <time>2026-09-03T12:48:10Z</time>
      </trkpt>
      <trkpt lat="44.73177" lon="7.00161">
        <ele>1907.7</ele>
        <time>2026-09-03T12:48:16Z</time>
      </trkpt>
      <trkpt lat="44.73186" lon="7.00163">
        <ele>1907.2</ele>
        <time>2026-09-03T12:48:21Z</time>
      </trkpt>
      <trkpt lat="44.73193" lon="7.00163">
        <ele>1906.4</ele>
        <time>2026-09-03T12:48:26Z</time>
      </trkpt>
      <trkpt lat="44.73199" lon="7.00166">
        <ele>1906.4</ele>
        <time>2026-09-03T12:48:32Z</time>
      </trkpt>
      <trkpt lat="44.73205" lon="7.00165">
        <ele>1905.5</ele>
        <time>2026-09-03T12:48:37Z</time>
      </trkpt>
      <trkpt lat="44.73214" lon="7.00163">
        <ele>1904.1</ele>
        <time>2026-09-03T12:48:42Z</time>
      </trkpt>
      <trkpt lat="44.73223" lon="7.00162">
        <ele>1903</ele>
        <time>2026-09-03T12:48:48Z</time>
      </trkpt>
      <trkpt lat="44.7323" lon="7.00161">
        <ele>1902</ele>
        <time>2026-09-03T12:48:53Z</time>
      </trkpt>
      <trkpt lat="44.73235" lon="7.00158">
        <ele>1900.9</ele>
        <time>2026-09-03T12:48:58Z</time>
      </trkpt>
      <trkpt lat="44.73244" lon="7.00155">
        <ele>1899.3</ele>
        <time>2026-09-03T12:49:04Z</time>
      </trkpt>
      <trkpt lat="44.73253" lon="7.00153">
        <ele>1898.2</ele>
        <time>2026-09-03T12:49:09Z</time>
      </trkpt>
      <trkpt lat="44.73255" lon="7.00147">
        <ele>1896.9</ele>
        <time>2026-09-03T12:49:14Z</time>
      </trkpt>
      <trkpt lat="44.73261" lon="7.00147">
        <ele>1896.8</ele>
        <time>2026-09-03T12:49:20Z</time>
      </trkpt>
      <trkpt lat="44.73267" lon="7.0015">
        <ele>1897.3</ele>
        <time>2026-09-03T12:49:25Z</time>
      </trkpt>
      <trkpt lat="44.73273" lon="7.00149">
        <ele>1897</ele>
        <time>2026-09-03T12:49:30Z</time>
      </trkpt>
      <trkpt lat="44.7328" lon="7.00148">
        <ele>1896.6</ele>
        <time>2026-09-03T12:49:36Z</time>
      </trkpt>
      <trkpt lat="44.73287" lon="7.00142">
        <ele>1895</ele>
        <time>2026-09-03T12:49:41Z</time>
      </trkpt>
      <trkpt lat="44.73291" lon="7.00135">
        <ele>1893.2</ele>
        <time>2026-09-03T12:49:46Z</time>
      </trkpt>
      <trkpt lat="44.73298" lon="7.00129">
        <ele>1891.5</ele>
        <time>2026-09-03T12:49:52Z</time>
      </trkpt>
      <trkpt lat="44.73304" lon="7.00125">
        <ele>1890.2</ele>
        <time>2026-09-03T12:49:57Z</time>
      </trkpt>
      <trkpt lat="44.7331" lon="7.00123">
        <ele>1889.5</ele>
        <time>2026-09-03T12:50:02Z</time>
      </trkpt>
      <trkpt lat="44.73316" lon="7.00123">
        <ele>1889.2</ele>
        <time>2026-09-03T12:50:08Z</time>
      </trkpt>
      <trkpt lat="44.73322" lon="7.00123">
        <ele>1888.9</ele>
        <time>2026-09-03T12:50:13Z</time>
      </trkpt>
      <trkpt lat="44.7333" lon="7.00123">
        <ele>1888.6</ele>
        <time>2026-09-03T12:50:18Z</time>
      </trkpt>
      <trkpt lat="44.73339" lon="7.00122">
        <ele>1888.5</ele>
        <time>2026-09-03T12:50:24Z</time>
      </trkpt>
      <trkpt lat="44.73346" lon="7.00121">
        <ele>1888.6</ele>
        <time>2026-09-03T12:50:29Z</time>
      </trkpt>
      <trkpt lat="44.73353" lon="7.00122">
        <ele>1889.3</ele>
        <time>2026-09-03T12:50:34Z</time>
      </trkpt>
      <trkpt lat="44.73361" lon="7.00121">
        <ele>1889.4</ele>
        <time>2026-09-03T12:50:40Z</time>
      </trkpt>
      <trkpt lat="44.73367" lon="7.00118">
        <ele>1888.9</ele>
        <time>2026-09-03T12:50:45Z</time>
      </trkpt>
      <trkpt lat="44.73374" lon="7.00115">
        <ele>1888.3</ele>
        <time>2026-09-03T12:50:50Z</time>
      </trkpt>
      <trkpt lat="44.73382" lon="7.00115">
        <ele>1888.8</ele>
        <time>2026-09-03T12:50:56Z</time>
      </trkpt>
      <trkpt lat="44.73392" lon="7.00115">
        <ele>1889.3</ele>
        <time>2026-09-03T12:51:01Z</time>
      </trkpt>
      <trkpt lat="44.73401" lon="7.00114">
        <ele>1889.5</ele>
        <time>2026-09-03T12:51:06Z</time>
      </trkpt>
      <trkpt lat="44.73408" lon="7.00113">
        <ele>1889.5</ele>
        <time>2026-09-03T12:51:12Z</time>
      </trkpt>
      <trkpt lat="44.73415" lon="7.00111">
        <ele>1889.2</ele>
        <time>2026-09-03T12:51:17Z</time>
      </trkpt>
      <trkpt lat="44.73421" lon="7.00105">
        <ele>1886.6</ele>
        <time>2026-09-03T12:51:22Z</time>
      </trkpt>
      <trkpt lat="44.73428" lon="7.00096">
        <ele>1882.7</ele>
        <time>2026-09-03T12:51:28Z</time>
      </trkpt>
      <trkpt lat="44.73432" lon="7.00093">
        <ele>1881.1</ele>
        <time>2026-09-03T12:51:33Z</time>
      </trkpt>
      <trkpt lat="44.73437" lon="7.0009">
        <ele>1879.5</ele>
        <time>2026-09-03T12:51:38Z</time>
      </trkpt>
      <trkpt lat="44.73443" lon="7.00088">
        <ele>1878</ele>
        <time>2026-09-03T12:51:44Z</time>
      </trkpt>
      <trkpt lat="44.73447" lon="7.00085">
        <ele>1876.5</ele>
        <time>2026-09-03T12:51:49Z</time>
      </trkpt>
      <trkpt lat="44.73452" lon="7.00083">
        <ele>1875.2</ele>
        <time>2026-09-03T12:51:54Z</time>
      </trkpt>
      <trkpt lat="44.73458" lon="7.00078">
        <ele>1872.4</ele>
        <time>2026-09-03T12:52:00Z</time>
      </trkpt>
      <trkpt lat="44.73464" lon="7.00077">
        <ele>1871.1</ele>
        <time>2026-09-03T12:52:05Z</time>
      </trkpt>
      <trkpt lat="44.7347" lon="7.00077">
        <ele>1870.3</ele>
        <time>2026-09-03T12:52:10Z</time>
      </trkpt>
      <trkpt lat="44.73473" lon="7.00075">
        <ele>1869.1</ele>
        <time>2026-09-03T12:52:16Z</time>
      </trkpt>
      <trkpt lat="44.73475" lon="7.00076">
        <ele>1869.2</ele>
        <time>2026-09-03T12:52:21Z</time>
      </trkpt>
      <trkpt lat="44.73475" lon="7.00076">
        <ele>1869.2</ele>
        <time>2026-09-03T12:52:26Z</time>
      </trkpt>
      <trkpt lat="44.73475" lon="7.00076">
        <ele>1869.2</ele>
        <time>2026-09-03T12:52:32Z</time>
      </trkpt>
      <trkpt lat="44.73475" lon="7.00076">
        <ele>1869.2</ele>
        <time>2026-09-03T12:52:37Z</time>
      </trkpt>
      <trkpt lat="44.73475" lon="7.00076">
        <ele>1869.2</ele>
        <time>2026-09-03T12:52:42Z</time>
      </trkpt>
      <trkpt lat="44.7348" lon="7.00077">
        <ele>1869</ele>
        <time>2026-09-03T12:52:48Z</time>
      </trkpt>
      <trkpt lat="44.73484" lon="7.00079">
        <ele>1869.3</ele>
        <time>2026-09-03T12:52:53Z</time>
      </trkpt>
      <trkpt lat="44.7349" lon="7.00085">
        <ele>1870.8</ele>
        <time>2026-09-03T12:52:58Z</time>
      </trkpt>
      <trkpt lat="44.73497" lon="7.00092">
        <ele>1871.8</ele>
        <time>2026-09-03T12:53:04Z</time>
      </trkpt>
      <trkpt lat="44.73501" lon="7.00101">
        <ele>1873.8</ele>
        <time>2026-09-03T12:53:09Z</time>
      </trkpt>
      <trkpt lat="44.73507" lon="7.00108">
        <ele>1875</ele>
        <time>2026-09-03T12:53:14Z</time>
      </trkpt>
      <trkpt lat="44.73515" lon="7.00115">
        <ele>1876</ele>
        <time>2026-09-03T12:53:20Z</time>
      </trkpt>
      <trkpt lat="44.73519" lon="7.00117">
        <ele>1876.1</ele>
        <time>2026-09-03T12:53:25Z</time>
      </trkpt>
      <trkpt lat="44.73527" lon="7.00117">
        <ele>1875.1</ele>
        <time>2026-09-03T12:53:30Z</time>
      </trkpt>
      <trkpt lat="44.73533" lon="7.00111">
        <ele>1872.8</ele>
        <time>2026-09-03T12:53:36Z</time>
      </trkpt>
      <trkpt lat="44.73538" lon="7.00106">
        <ele>1870.9</ele>
        <time>2026-09-03T12:53:41Z</time>
      </trkpt>
      <trkpt lat="44.73538" lon="7.00105">
        <ele>1870.6</ele>
        <time>2026-09-03T12:53:46Z</time>
      </trkpt>
      <trkpt lat="44.73547" lon="7.00102">
        <ele>1868.8</ele>
        <time>2026-09-03T12:53:52Z</time>
      </trkpt>
      <trkpt lat="44.73554" lon="7.00098">
        <ele>1867</ele>
        <time>2026-09-03T12:53:57Z</time>
      </trkpt>
      <trkpt lat="44.73561" lon="7.00092">
        <ele>1864.7</ele>
        <time>2026-09-03T12:54:02Z</time>
      </trkpt>
      <trkpt lat="44.73567" lon="7.00085">
        <ele>1862.2</ele>
        <time>2026-09-03T12:54:08Z</time>
      </trkpt>
      <trkpt lat="44.7357" lon="7.00082">
        <ele>1861</ele>
        <time>2026-09-03T12:54:13Z</time>
      </trkpt>
      <trkpt lat="44.73574" lon="7.0008">
        <ele>1859.8</ele>
        <time>2026-09-03T12:54:18Z</time>
      </trkpt>
      <trkpt lat="44.73579" lon="7.00078">
        <ele>1858.6</ele>
        <time>2026-09-03T12:54:24Z</time>
      </trkpt>
      <trkpt lat="44.73584" lon="7.00079">
        <ele>1858.5</ele>
        <time>2026-09-03T12:54:29Z</time>
      </trkpt>
      <trkpt lat="44.7359" lon="7.0008">
        <ele>1858.6</ele>
        <time>2026-09-03T12:54:34Z</time>
      </trkpt>
      <trkpt lat="44.73597" lon="7.00081">
        <ele>1858.7</ele>
        <time>2026-09-03T12:54:40Z</time>
      </trkpt>
      <trkpt lat="44.73603" lon="7.00082">
        <ele>1858.8</ele>
        <time>2026-09-03T12:54:45Z</time>
      </trkpt>
      <trkpt lat="44.73609" lon="7.00082">
        <ele>1858.6</ele>
        <time>2026-09-03T12:54:50Z</time>
      </trkpt>
      <trkpt lat="44.73616" lon="7.00083">
        <ele>1858.7</ele>
        <time>2026-09-03T12:54:56Z</time>
      </trkpt>
      <trkpt lat="44.73621" lon="7.00082">
        <ele>1858.2</ele>
        <time>2026-09-03T12:55:01Z</time>
      </trkpt>
      <trkpt lat="44.73621" lon="7.00081">
        <ele>1857.9</ele>
        <time>2026-09-03T12:55:06Z</time>
      </trkpt>
      <trkpt lat="44.73621" lon="7.00081">
        <ele>1857.9</ele>
        <time>2026-09-03T12:55:12Z</time>
      </trkpt>
      <trkpt lat="44.73621" lon="7.00081">
        <ele>1857.9</ele>
        <time>2026-09-03T12:55:17Z</time>
      </trkpt>
      <trkpt lat="44.73621" lon="7.00081">
        <ele>1857.9</ele>
        <time>2026-09-03T12:55:22Z</time>
      </trkpt>
      <trkpt lat="44.73625" lon="7.0007">
        <ele>1854.1</ele>
        <time>2026-09-03T12:55:28Z</time>
      </trkpt>
      <trkpt lat="44.73628" lon="7.00063">
        <ele>1851.7</ele>
        <time>2026-09-03T12:55:33Z</time>
      </trkpt>
      <trkpt lat="44.73622" lon="7.00062">
        <ele>1851.5</ele>
        <time>2026-09-03T12:55:38Z</time>
      </trkpt>
      <trkpt lat="44.73609" lon="7.0006">
        <ele>1851.2</ele>
        <time>2026-09-03T12:55:44Z</time>
      </trkpt>
      <trkpt lat="44.73601" lon="7.00059">
        <ele>1851.1</ele>
        <time>2026-09-03T12:55:49Z</time>
      </trkpt>
      <trkpt lat="44.73594" lon="7.00056">
        <ele>1850.2</ele>
        <time>2026-09-03T12:55:54Z</time>
      </trkpt>
      <trkpt lat="44.73586" lon="7.00052">
        <ele>1849</ele>
        <time>2026-09-03T12:56:00Z</time>
      </trkpt>
      <trkpt lat="44.73581" lon="7.00047">
        <ele>1847.5</ele>
        <time>2026-09-03T12:56:05Z</time>
      </trkpt>
      <trkpt lat="44.73577" lon="7.00043">
        <ele>1846.4</ele>
        <time>2026-09-03T12:56:10Z</time>
      </trkpt>
      <trkpt lat="44.73571" lon="7.00038">
        <ele>1845</ele>
        <time>2026-09-03T12:56:16Z</time>
      </trkpt>
      <trkpt lat="44.73563" lon="7.00034">
        <ele>1844</ele>
        <time>2026-09-03T12:56:21Z</time>
      </trkpt>
      <trkpt lat="44.73555" lon="7.00031">
        <ele>1843.4</ele>
        <time>2026-09-03T12:56:26Z</time>
      </trkpt>
      <trkpt lat="44.7355" lon="7.00027">
        <ele>1842.1</ele>
        <time>2026-09-03T12:56:32Z</time>
      </trkpt>
      <trkpt lat="44.73547" lon="7.00027">
        <ele>1842.3</ele>
        <time>2026-09-03T12:56:37Z</time>
      </trkpt>
      <trkpt lat="44.73547" lon="7.00027">
        <ele>1842.3</ele>
        <time>2026-09-03T12:56:42Z</time>
      </trkpt>
      <trkpt lat="44.73538" lon="7.00021">
        <ele>1840.4</ele>
        <time>2026-09-03T12:56:48Z</time>
      </trkpt>
      <trkpt lat="44.73532" lon="7.00018">
        <ele>1839.4</ele>
        <time>2026-09-03T12:56:53Z</time>
      </trkpt>
      <trkpt lat="44.7353" lon="7.00009">
        <ele>1835.9</ele>
        <time>2026-09-03T12:56:58Z</time>
      </trkpt>
      <trkpt lat="44.73535" lon="6.99999">
        <ele>1832</ele>
        <time>2026-09-03T12:57:04Z</time>
      </trkpt>
      <trkpt lat="44.73538" lon="6.99993">
        <ele>1830.6</ele>
        <time>2026-09-03T12:57:09Z</time>
      </trkpt>
      <trkpt lat="44.73544" lon="6.99991">
        <ele>1830</ele>
        <time>2026-09-03T12:57:14Z</time>
      </trkpt>
      <trkpt lat="44.73551" lon="6.99992">
        <ele>1830</ele>
        <time>2026-09-03T12:57:20Z</time>
      </trkpt>
      <trkpt lat="44.73557" lon="6.99992">
        <ele>1829.8</ele>
        <time>2026-09-03T12:57:25Z</time>
      </trkpt>
      <trkpt lat="44.73563" lon="6.99991">
        <ele>1829.3</ele>
        <time>2026-09-03T12:57:30Z</time>
      </trkpt>
      <trkpt lat="44.73573" lon="6.99995">
        <ele>1830</ele>
        <time>2026-09-03T12:57:36Z</time>
      </trkpt>
      <trkpt lat="44.7358" lon="6.99995">
        <ele>1829.8</ele>
        <time>2026-09-03T12:57:41Z</time>
      </trkpt>
      <trkpt lat="44.73584" lon="6.99986">
        <ele>1827.3</ele>
        <time>2026-09-03T12:57:46Z</time>
      </trkpt>
      <trkpt lat="44.73584" lon="6.99977">
        <ele>1824.9</ele>
        <time>2026-09-03T12:57:52Z</time>
      </trkpt>
      <trkpt lat="44.73578" lon="6.99971">
        <ele>1823.7</ele>
        <time>2026-09-03T12:57:57Z</time>
      </trkpt>
      <trkpt lat="44.7357" lon="6.99967">
        <ele>1823.1</ele>
        <time>2026-09-03T12:58:02Z</time>
      </trkpt>
      <trkpt lat="44.73564" lon="6.99966">
        <ele>1823.2</ele>
        <time>2026-09-03T12:58:08Z</time>
      </trkpt>
      <trkpt lat="44.73557" lon="6.99965">
        <ele>1823.5</ele>
        <time>2026-09-03T12:58:13Z</time>
      </trkpt>
      <trkpt lat="44.73552" lon="6.99958">
        <ele>1822.2</ele>
        <time>2026-09-03T12:58:18Z</time>
      </trkpt>
      <trkpt lat="44.73548" lon="6.99951">
        <ele>1820.9</ele>
        <time>2026-09-03T12:58:24Z</time>
      </trkpt>
      <trkpt lat="44.73544" lon="6.99953">
        <ele>1821.7</ele>
        <time>2026-09-03T12:58:29Z</time>
      </trkpt>
      <trkpt lat="44.73545" lon="6.99955">
        <ele>1822</ele>
        <time>2026-09-03T12:58:34Z</time>
      </trkpt>
      <trkpt lat="44.73546" lon="6.99956">
        <ele>1822.2</ele>
        <time>2026-09-03T12:58:40Z</time>
      </trkpt>
      <trkpt lat="44.73549" lon="6.99949">
        <ele>1820.4</ele>
        <time>2026-09-03T12:58:45Z</time>
      </trkpt>
      <trkpt lat="44.73554" lon="6.99944">
        <ele>1818.8</ele>
        <time>2026-09-03T12:58:50Z</time>
      </trkpt>
      <trkpt lat="44.73559" lon="6.9994">
        <ele>1817.4</ele>
        <time>2026-09-03T12:58:56Z</time>
      </trkpt>
      <trkpt lat="44.73562" lon="6.99939">
        <ele>1816.9</ele>
        <time>2026-09-03T12:59:01Z</time>
      </trkpt>
      <trkpt lat="44.73563" lon="6.99938">
        <ele>1816.6</ele>
        <time>2026-09-03T12:59:06Z</time>
      </trkpt>
      <trkpt lat="44.73569" lon="6.99935">
        <ele>1815.3</ele>
        <time>2026-09-03T12:59:12Z</time>
      </trkpt>
      <trkpt lat="44.73573" lon="6.99931">
        <ele>1813.9</ele>
        <time>2026-09-03T12:59:17Z</time>
      </trkpt>
      <trkpt lat="44.73576" lon="6.99921">
        <ele>1811</ele>
        <time>2026-09-03T12:59:22Z</time>
      </trkpt>
      <trkpt lat="44.73578" lon="6.9991">
        <ele>1809.3</ele>
        <time>2026-09-03T12:59:28Z</time>
      </trkpt>
      <trkpt lat="44.73584" lon="6.99904">
        <ele>1808.3</ele>
        <time>2026-09-03T12:59:33Z</time>
      </trkpt>
      <trkpt lat="44.73588" lon="6.99897">
        <ele>1808</ele>
        <time>2026-09-03T12:59:38Z</time>
      </trkpt>
      <trkpt lat="44.73591" lon="6.99887">
        <ele>1807.4</ele>
        <time>2026-09-03T12:59:44Z</time>
      </trkpt>
      <trkpt lat="44.73587" lon="6.99879">
        <ele>1806.8</ele>
        <time>2026-09-03T12:59:49Z</time>
      </trkpt>
      <trkpt lat="44.7358" lon="6.99876">
        <ele>1807.1</ele>
        <time>2026-09-03T12:59:54Z</time>
      </trkpt>
      <trkpt lat="44.73572" lon="6.9988">
        <ele>1808.6</ele>
        <time>2026-09-03T13:00:00Z</time>
      </trkpt>
      <trkpt lat="44.73568" lon="6.99877">
        <ele>1809.2</ele>
        <time>2026-09-03T13:00:05Z</time>
      </trkpt>
      <trkpt lat="44.73562" lon="6.99879">
        <ele>1810.2</ele>
        <time>2026-09-03T13:00:10Z</time>
      </trkpt>
      <trkpt lat="44.73566" lon="6.99869">
        <ele>1809.2</ele>
        <time>2026-09-03T13:00:16Z</time>
      </trkpt>
      <trkpt lat="44.73571" lon="6.99861">
        <ele>1807.9</ele>
        <time>2026-09-03T13:00:21Z</time>
      </trkpt>
      <trkpt lat="44.73575" lon="6.99855">
        <ele>1806.9</ele>
        <time>2026-09-03T13:00:26Z</time>
      </trkpt>
      <trkpt lat="44.73586" lon="6.99852">
        <ele>1805.1</ele>
        <time>2026-09-03T13:00:32Z</time>
      </trkpt>
      <trkpt lat="44.73593" lon="6.99849">
        <ele>1804.8</ele>
        <time>2026-09-03T13:00:37Z</time>
      </trkpt>
      <trkpt lat="44.73599" lon="6.99842">
        <ele>1804.1</ele>
        <time>2026-09-03T13:00:42Z</time>
      </trkpt>
      <trkpt lat="44.73606" lon="6.99835">
        <ele>1803.3</ele>
        <time>2026-09-03T13:00:48Z</time>
      </trkpt>
      <trkpt lat="44.7361" lon="6.99827">
        <ele>1803.4</ele>
        <time>2026-09-03T13:00:53Z</time>
      </trkpt>
      <trkpt lat="44.73612" lon="6.99824">
        <ele>1803.4</ele>
        <time>2026-09-03T13:00:58Z</time>
      </trkpt>
      <trkpt lat="44.7361" lon="6.99821">
        <ele>1803.7</ele>
        <time>2026-09-03T13:01:04Z</time>
      </trkpt>
      <trkpt lat="44.73609" lon="6.99821">
        <ele>1803.7</ele>
        <time>2026-09-03T13:01:09Z</time>
      </trkpt>
      <trkpt lat="44.73618" lon="6.9982">
        <ele>1803.3</ele>
        <time>2026-09-03T13:01:14Z</time>
      </trkpt>
      <trkpt lat="44.73627" lon="6.99817">
        <ele>1803</ele>
        <time>2026-09-03T13:01:20Z</time>
      </trkpt>
      <trkpt lat="44.73634" lon="6.99813">
        <ele>1802.7</ele>
        <time>2026-09-03T13:01:25Z</time>
      </trkpt>
      <trkpt lat="44.73642" lon="6.99811">
        <ele>1802.3</ele>
        <time>2026-09-03T13:01:30Z</time>
      </trkpt>
      <trkpt lat="44.73648" lon="6.99805">
        <ele>1801.9</ele>
        <time>2026-09-03T13:01:36Z</time>
      </trkpt>
      <trkpt lat="44.73653" lon="6.998">
        <ele>1801.6</ele>
        <time>2026-09-03T13:01:41Z</time>
      </trkpt>
      <trkpt lat="44.73658" lon="6.99794">
        <ele>1801.2</ele>
        <time>2026-09-03T13:01:46Z</time>
      </trkpt>
      <trkpt lat="44.73666" lon="6.99789">
        <ele>1800.5</ele>
        <time>2026-09-03T13:01:52Z</time>
      </trkpt>
      <trkpt lat="44.73672" lon="6.9978">
        <ele>1800.4</ele>
        <time>2026-09-03T13:01:57Z</time>
      </trkpt>
      <trkpt lat="44.73676" lon="6.99772">
        <ele>1800.2</ele>
        <time>2026-09-03T13:02:02Z</time>
      </trkpt>
      <trkpt lat="44.7368" lon="6.99761">
        <ele>1799.8</ele>
        <time>2026-09-03T13:02:08Z</time>
      </trkpt>
      <trkpt lat="44.73686" lon="6.99755">
        <ele>1799.3</ele>
        <time>2026-09-03T13:02:13Z</time>
      </trkpt>
      <trkpt lat="44.73692" lon="6.99748">
        <ele>1798.9</ele>
        <time>2026-09-03T13:02:18Z</time>
      </trkpt>
      <trkpt lat="44.73699" lon="6.99742">
        <ele>1798.7</ele>
        <time>2026-09-03T13:02:24Z</time>
      </trkpt>
      <trkpt lat="44.73703" lon="6.99735">
        <ele>1798.6</ele>
        <time>2026-09-03T13:02:29Z</time>
      </trkpt>
      <trkpt lat="44.73708" lon="6.99729">
        <ele>1798.3</ele>
        <time>2026-09-03T13:02:34Z</time>
      </trkpt>
      <trkpt lat="44.73714" lon="6.9972">
        <ele>1797.8</ele>
        <time>2026-09-03T13:02:40Z</time>
      </trkpt>
      <trkpt lat="44.73717" lon="6.99711">
        <ele>1797.6</ele>
        <time>2026-09-03T13:02:45Z</time>
      </trkpt>
      <trkpt lat="44.73723" lon="6.99705">
        <ele>1796.9</ele>
        <time>2026-09-03T13:02:50Z</time>
      </trkpt>
      <trkpt lat="44.73731" lon="6.99698">
        <ele>1795.8</ele>
        <time>2026-09-03T13:02:56Z</time>
      </trkpt>
      <trkpt lat="44.73734" lon="6.99691">
        <ele>1795.3</ele>
        <time>2026-09-03T13:03:01Z</time>
      </trkpt>
      <trkpt lat="44.73739" lon="6.99685">
        <ele>1794.4</ele>
        <time>2026-09-03T13:03:06Z</time>
      </trkpt>
      <trkpt lat="44.73745" lon="6.9968">
        <ele>1793.4</ele>
        <time>2026-09-03T13:03:12Z</time>
      </trkpt>
      <trkpt lat="44.73751" lon="6.99676">
        <ele>1792.4</ele>
        <time>2026-09-03T13:03:17Z</time>
      </trkpt>
      <trkpt lat="44.73757" lon="6.99673">
        <ele>1792</ele>
        <time>2026-09-03T13:03:22Z</time>
      </trkpt>
      <trkpt lat="44.73764" lon="6.99666">
        <ele>1791.4</ele>
        <time>2026-09-03T13:03:28Z</time>
      </trkpt>
      <trkpt lat="44.73769" lon="6.99658">
        <ele>1792</ele>
        <time>2026-09-03T13:03:33Z</time>
      </trkpt>
      <trkpt lat="44.73774" lon="6.99654">
        <ele>1792</ele>
        <time>2026-09-03T13:03:38Z</time>
      </trkpt>
      <trkpt lat="44.73782" lon="6.99647">
        <ele>1792.1</ele>
        <time>2026-09-03T13:03:44Z</time>
      </trkpt>
      <trkpt lat="44.73788" lon="6.99639">
        <ele>1792.2</ele>
        <time>2026-09-03T13:03:49Z</time>
      </trkpt>
      <trkpt lat="44.73794" lon="6.99632">
        <ele>1792</ele>
        <time>2026-09-03T13:03:54Z</time>
      </trkpt>
      <trkpt lat="44.73802" lon="6.99628">
        <ele>1791.4</ele>
        <time>2026-09-03T13:04:00Z</time>
      </trkpt>
      <trkpt lat="44.73807" lon="6.99623">
        <ele>1791.1</ele>
        <time>2026-09-03T13:04:05Z</time>
      </trkpt>
      <trkpt lat="44.73812" lon="6.9962">
        <ele>1790.6</ele>
        <time>2026-09-03T13:04:10Z</time>
      </trkpt>
      <trkpt lat="44.73819" lon="6.99618">
        <ele>1789.8</ele>
        <time>2026-09-03T13:04:16Z</time>
      </trkpt>
      <trkpt lat="44.73826" lon="6.99614">
        <ele>1789</ele>
        <time>2026-09-03T13:04:21Z</time>
      </trkpt>
      <trkpt lat="44.73832" lon="6.99607">
        <ele>1788.2</ele>
        <time>2026-09-03T13:04:26Z</time>
      </trkpt>
      <trkpt lat="44.73839" lon="6.99597">
        <ele>1787.9</ele>
        <time>2026-09-03T13:04:32Z</time>
      </trkpt>
      <trkpt lat="44.73841" lon="6.99589">
        <ele>1787.7</ele>
        <time>2026-09-03T13:04:37Z</time>
      </trkpt>
      <trkpt lat="44.73841" lon="6.99589">
        <ele>1787.7</ele>
        <time>2026-09-03T13:04:42Z</time>
      </trkpt>
      <trkpt lat="44.73842" lon="6.99584">
        <ele>1787.6</ele>
        <time>2026-09-03T13:04:48Z</time>
      </trkpt>
      <trkpt lat="44.73849" lon="6.99577">
        <ele>1788.2</ele>
        <time>2026-09-03T13:04:53Z</time>
      </trkpt>
      <trkpt lat="44.73854" lon="6.99572">
        <ele>1788.6</ele>
        <time>2026-09-03T13:04:58Z</time>
      </trkpt>
      <trkpt lat="44.7386" lon="6.99565">
        <ele>1789.2</ele>
        <time>2026-09-03T13:05:04Z</time>
      </trkpt>
      <trkpt lat="44.73864" lon="6.9956">
        <ele>1789.5</ele>
        <time>2026-09-03T13:05:09Z</time>
      </trkpt>
      <trkpt lat="44.73868" lon="6.99556">
        <ele>1789.6</ele>
        <time>2026-09-03T13:05:14Z</time>
      </trkpt>
      <trkpt lat="44.73868" lon="6.99556">
        <ele>1789.6</ele>
        <time>2026-09-03T13:05:20Z</time>
      </trkpt>
      <trkpt lat="44.73872" lon="6.99549">
        <ele>1790</ele>
        <time>2026-09-03T13:05:25Z</time>
      </trkpt>
      <trkpt lat="44.73882" lon="6.99546">
        <ele>1789.2</ele>
        <time>2026-09-03T13:05:30Z</time>
      </trkpt>
      <trkpt lat="44.73891" lon="6.9954">
        <ele>1788.7</ele>
        <time>2026-09-03T13:05:36Z</time>
      </trkpt>
      <trkpt lat="44.73898" lon="6.99533">
        <ele>1788.3</ele>
        <time>2026-09-03T13:05:41Z</time>
      </trkpt>
      <trkpt lat="44.73904" lon="6.99524">
        <ele>1788</ele>
        <time>2026-09-03T13:05:46Z</time>
      </trkpt>
      <trkpt lat="44.73909" lon="6.99514">
        <ele>1787.8</ele>
        <time>2026-09-03T13:05:52Z</time>
      </trkpt>
      <trkpt lat="44.73914" lon="6.99507">
        <ele>1787.2</ele>
        <time>2026-09-03T13:05:57Z</time>
      </trkpt>
      <trkpt lat="44.73922" lon="6.99501">
        <ele>1786.5</ele>
        <time>2026-09-03T13:06:02Z</time>
      </trkpt>
      <trkpt lat="44.73933" lon="6.99497">
        <ele>1786.2</ele>
        <time>2026-09-03T13:06:08Z</time>
      </trkpt>
      <trkpt lat="44.73939" lon="6.99492">
        <ele>1786.8</ele>
        <time>2026-09-03T13:06:13Z</time>
      </trkpt>
      <trkpt lat="44.73945" lon="6.99485">
        <ele>1787.7</ele>
        <time>2026-09-03T13:06:18Z</time>
      </trkpt>
      <trkpt lat="44.73952" lon="6.99478">
        <ele>1788.3</ele>
        <time>2026-09-03T13:06:24Z</time>
      </trkpt>
      <trkpt lat="44.73958" lon="6.99473">
        <ele>1788.4</ele>
        <time>2026-09-03T13:06:29Z</time>
      </trkpt>
      <trkpt lat="44.73966" lon="6.9947">
        <ele>1787.6</ele>
        <time>2026-09-03T13:06:34Z</time>
      </trkpt>
      <trkpt lat="44.73972" lon="6.99462">
        <ele>1787.9</ele>
        <time>2026-09-03T13:06:40Z</time>
      </trkpt>
      <trkpt lat="44.73978" lon="6.9946">
        <ele>1787.1</ele>
        <time>2026-09-03T13:06:45Z</time>
      </trkpt>
      <trkpt lat="44.73985" lon="6.99456">
        <ele>1786.3</ele>
        <time>2026-09-03T13:06:50Z</time>
      </trkpt>
      <trkpt lat="44.73988" lon="6.99457">
        <ele>1785.5</ele>
        <time>2026-09-03T13:06:56Z</time>
      </trkpt>
      <trkpt lat="44.73988" lon="6.99457">
        <ele>1785.5</ele>
        <time>2026-09-03T13:07:01Z</time>
      </trkpt>
      <trkpt lat="44.73988" lon="6.99457">
        <ele>1785.5</ele>
        <time>2026-09-03T13:07:06Z</time>
      </trkpt>
      <trkpt lat="44.73988" lon="6.99457">
        <ele>1785.5</ele>
        <time>2026-09-03T13:07:12Z</time>
      </trkpt>
      <trkpt lat="44.73988" lon="6.99457">
        <ele>1785.5</ele>
        <time>2026-09-03T13:07:17Z</time>
      </trkpt>
      <trkpt lat="44.73988" lon="6.99457">
        <ele>1785.5</ele>
        <time>2026-09-03T13:07:22Z</time>
      </trkpt>
      <trkpt lat="44.73988" lon="6.99457">
        <ele>1785.5</ele>
        <time>2026-09-03T13:07:28Z</time>
      </trkpt>
      <trkpt lat="44.73988" lon="6.99457">
        <ele>1785.5</ele>
        <time>2026-09-03T13:07:33Z</time>
      </trkpt>
      <trkpt lat="44.73988" lon="6.99457">
        <ele>1785.5</ele>
        <time>2026-09-03T13:07:38Z</time>
      </trkpt>
      <trkpt lat="44.73988" lon="6.99457">
        <ele>1785.5</ele>
        <time>2026-09-03T13:07:44Z</time>
      </trkpt>
      <trkpt lat="44.73998" lon="6.99453">
        <ele>1783.9</ele>
        <time>2026-09-03T13:07:49Z</time>
      </trkpt>
      <trkpt lat="44.74007" lon="6.99451">
        <ele>1783.1</ele>
        <time>2026-09-03T13:07:54Z</time>
      </trkpt>
      <trkpt lat="44.74016" lon="6.9945">
        <ele>1782.4</ele>
        <time>2026-09-03T13:08:00Z</time>
      </trkpt>
      <trkpt lat="44.74023" lon="6.9945">
        <ele>1781.8</ele>
        <time>2026-09-03T13:08:05Z</time>
      </trkpt>
      <trkpt lat="44.74031" lon="6.99452">
        <ele>1781.1</ele>
        <time>2026-09-03T13:08:10Z</time>
      </trkpt>
      <trkpt lat="44.7404" lon="6.99453">
        <ele>1780.4</ele>
        <time>2026-09-03T13:08:16Z</time>
      </trkpt>
      <trkpt lat="44.74048" lon="6.99452">
        <ele>1779.8</ele>
        <time>2026-09-03T13:08:21Z</time>
      </trkpt>
      <trkpt lat="44.74057" lon="6.99451">
        <ele>1779</ele>
        <time>2026-09-03T13:08:26Z</time>
      </trkpt>
      <trkpt lat="44.74064" lon="6.99446">
        <ele>1777.8</ele>
        <time>2026-09-03T13:08:32Z</time>
      </trkpt>
      <trkpt lat="44.74071" lon="6.99444">
        <ele>1776.9</ele>
        <time>2026-09-03T13:08:37Z</time>
      </trkpt>
      <trkpt lat="44.74079" lon="6.99443">
        <ele>1775.9</ele>
        <time>2026-09-03T13:08:42Z</time>
      </trkpt>
      <trkpt lat="44.74089" lon="6.99438">
        <ele>1774.9</ele>
        <time>2026-09-03T13:08:48Z</time>
      </trkpt>
      <trkpt lat="44.74097" lon="6.99436">
        <ele>1775.1</ele>
        <time>2026-09-03T13:08:53Z</time>
      </trkpt>
      <trkpt lat="44.74105" lon="6.99435">
        <ele>1775.3</ele>
        <time>2026-09-03T13:08:58Z</time>
      </trkpt>
      <trkpt lat="44.74112" lon="6.99434">
        <ele>1775.5</ele>
        <time>2026-09-03T13:09:04Z</time>
      </trkpt>
      <trkpt lat="44.74119" lon="6.99434">
        <ele>1775.9</ele>
        <time>2026-09-03T13:09:09Z</time>
      </trkpt>
      <trkpt lat="44.74124" lon="6.99435">
        <ele>1776.5</ele>
        <time>2026-09-03T13:09:14Z</time>
      </trkpt>
      <trkpt lat="44.74131" lon="6.99434">
        <ele>1776.6</ele>
        <time>2026-09-03T13:09:20Z</time>
      </trkpt>
      <trkpt lat="44.74136" lon="6.99432">
        <ele>1776.4</ele>
        <time>2026-09-03T13:09:25Z</time>
      </trkpt>
      <trkpt lat="44.74143" lon="6.99426">
        <ele>1775</ele>
        <time>2026-09-03T13:09:30Z</time>
      </trkpt>
      <trkpt lat="44.74153" lon="6.99424">
        <ele>1774.9</ele>
        <time>2026-09-03T13:09:36Z</time>
      </trkpt>
      <trkpt lat="44.74161" lon="6.99424">
        <ele>1775.2</ele>
        <time>2026-09-03T13:09:41Z</time>
      </trkpt>
      <trkpt lat="44.74171" lon="6.99423">
        <ele>1774.9</ele>
        <time>2026-09-03T13:09:46Z</time>
      </trkpt>
      <trkpt lat="44.7418" lon="6.99425">
        <ele>1775.4</ele>
        <time>2026-09-03T13:09:52Z</time>
      </trkpt>
      <trkpt lat="44.74188" lon="6.99427">
        <ele>1775.9</ele>
        <time>2026-09-03T13:09:57Z</time>
      </trkpt>
      <trkpt lat="44.74194" lon="6.99428">
        <ele>1776.1</ele>
        <time>2026-09-03T13:10:02Z</time>
      </trkpt>
      <trkpt lat="44.74203" lon="6.99429">
        <ele>1776.3</ele>
        <time>2026-09-03T13:10:08Z</time>
      </trkpt>
      <trkpt lat="44.74211" lon="6.99429">
        <ele>1776.2</ele>
        <time>2026-09-03T13:10:13Z</time>
      </trkpt>
      <trkpt lat="44.74219" lon="6.9943">
        <ele>1776.4</ele>
        <time>2026-09-03T13:10:18Z</time>
      </trkpt>
      <trkpt lat="44.74227" lon="6.99431">
        <ele>1776.7</ele>
        <time>2026-09-03T13:10:24Z</time>
      </trkpt>
      <trkpt lat="44.74234" lon="6.9943">
        <ele>1776.2</ele>
        <time>2026-09-03T13:10:29Z</time>
      </trkpt>
      <trkpt lat="44.74243" lon="6.9943">
        <ele>1776</ele>
        <time>2026-09-03T13:10:34Z</time>
      </trkpt>
      <trkpt lat="44.74252" lon="6.99429">
        <ele>1775.4</ele>
        <time>2026-09-03T13:10:40Z</time>
      </trkpt>
      <trkpt lat="44.74261" lon="6.99431">
        <ele>1775.9</ele>
        <time>2026-09-03T13:10:45Z</time>
      </trkpt>
      <trkpt lat="44.74268" lon="6.99432">
        <ele>1776</ele>
        <time>2026-09-03T13:10:50Z</time>
      </trkpt>
      <trkpt lat="44.74276" lon="6.99432">
        <ele>1775.6</ele>
        <time>2026-09-03T13:10:56Z</time>
      </trkpt>
      <trkpt lat="44.74279" lon="6.99435">
        <ele>1776.8</ele>
        <time>2026-09-03T13:11:01Z</time>
      </trkpt>
      <trkpt lat="44.74278" lon="6.99441">
        <ele>1779.6</ele>
        <time>2026-09-03T13:11:06Z</time>
      </trkpt>
      <trkpt lat="44.74279" lon="6.99444">
        <ele>1780.9</ele>
        <time>2026-09-03T13:11:12Z</time>
      </trkpt>
      <trkpt lat="44.74286" lon="6.9944">
        <ele>1778.8</ele>
        <time>2026-09-03T13:11:17Z</time>
      </trkpt>
      <trkpt lat="44.74292" lon="6.99435">
        <ele>1776.2</ele>
        <time>2026-09-03T13:11:22Z</time>
      </trkpt>
      <trkpt lat="44.74297" lon="6.99434">
        <ele>1775.6</ele>
        <time>2026-09-03T13:11:28Z</time>
      </trkpt>
      <trkpt lat="44.74298" lon="6.99431">
        <ele>1774.2</ele>
        <time>2026-09-03T13:11:33Z</time>
      </trkpt>
      <trkpt lat="44.74306" lon="6.99431">
        <ele>1773.8</ele>
        <time>2026-09-03T13:11:38Z</time>
      </trkpt>
      <trkpt lat="44.74314" lon="6.99432">
        <ele>1773.9</ele>
        <time>2026-09-03T13:11:44Z</time>
      </trkpt>
      <trkpt lat="44.74319" lon="6.99432">
        <ele>1773.6</ele>
        <time>2026-09-03T13:11:49Z</time>
      </trkpt>
      <trkpt lat="44.74326" lon="6.99431">
        <ele>1772.9</ele>
        <time>2026-09-03T13:11:54Z</time>
      </trkpt>
      <trkpt lat="44.74336" lon="6.99429">
        <ele>1771.4</ele>
        <time>2026-09-03T13:12:00Z</time>
      </trkpt>
      <trkpt lat="44.74343" lon="6.99429">
        <ele>1770.8</ele>
        <time>2026-09-03T13:12:05Z</time>
      </trkpt>
      <trkpt lat="44.7435" lon="6.9943">
        <ele>1770.7</ele>
        <time>2026-09-03T13:12:10Z</time>
      </trkpt>
      <trkpt lat="44.7436" lon="6.99432">
        <ele>1770.8</ele>
        <time>2026-09-03T13:12:16Z</time>
      </trkpt>
      <trkpt lat="44.74368" lon="6.99432">
        <ele>1770.1</ele>
        <time>2026-09-03T13:12:21Z</time>
      </trkpt>
      <trkpt lat="44.74374" lon="6.99433">
        <ele>1770</ele>
        <time>2026-09-03T13:12:26Z</time>
      </trkpt>
      <trkpt lat="44.74383" lon="6.99434">
        <ele>1769.7</ele>
        <time>2026-09-03T13:12:32Z</time>
      </trkpt>
      <trkpt lat="44.74389" lon="6.99436">
        <ele>1770.1</ele>
        <time>2026-09-03T13:12:37Z</time>
      </trkpt>
      <trkpt lat="44.74395" lon="6.99437">
        <ele>1770.1</ele>
        <time>2026-09-03T13:12:42Z</time>
      </trkpt>
      <trkpt lat="44.74406" lon="6.99439">
        <ele>1770.1</ele>
        <time>2026-09-03T13:12:48Z</time>
      </trkpt>
      <trkpt lat="44.74415" lon="6.9944">
        <ele>1769.8</ele>
        <time>2026-09-03T13:12:53Z</time>
      </trkpt>
      <trkpt lat="44.74422" lon="6.99442">
        <ele>1770.2</ele>
        <time>2026-09-03T13:12:58Z</time>
      </trkpt>
      <trkpt lat="44.74422" lon="6.99442">
        <ele>1770.2</ele>
        <time>2026-09-03T13:13:04Z</time>
      </trkpt>
      <trkpt lat="44.74422" lon="6.99442">
        <ele>1770.2</ele>
        <time>2026-09-03T13:13:09Z</time>
      </trkpt>
      <trkpt lat="44.74424" lon="6.99441">
        <ele>1769.6</ele>
        <time>2026-09-03T13:13:14Z</time>
      </trkpt>
      <trkpt lat="44.74435" lon="6.99445">
        <ele>1770.6</ele>
        <time>2026-09-03T13:13:20Z</time>
      </trkpt>
      <trkpt lat="44.74443" lon="6.99447">
        <ele>1770.8</ele>
        <time>2026-09-03T13:13:25Z</time>
      </trkpt>
      <trkpt lat="44.7445" lon="6.9945">
        <ele>1771.5</ele>
        <time>2026-09-03T13:13:30Z</time>
      </trkpt>
      <trkpt lat="44.74458" lon="6.99453">
        <ele>1772</ele>
        <time>2026-09-03T13:13:36Z</time>
      </trkpt>
      <trkpt lat="44.74466" lon="6.99455">
        <ele>1772</ele>
        <time>2026-09-03T13:13:41Z</time>
      </trkpt>
      <trkpt lat="44.74476" lon="6.99458">
        <ele>1772.2</ele>
        <time>2026-09-03T13:13:46Z</time>
      </trkpt>
      <trkpt lat="44.74482" lon="6.99461">
        <ele>1772.6</ele>
        <time>2026-09-03T13:13:52Z</time>
      </trkpt>
      <trkpt lat="44.74489" lon="6.99465">
        <ele>1773.3</ele>
        <time>2026-09-03T13:13:57Z</time>
      </trkpt>
      <trkpt lat="44.74494" lon="6.99469">
        <ele>1774</ele>
        <time>2026-09-03T13:14:02Z</time>
      </trkpt>
      <trkpt lat="44.74503" lon="6.99473">
        <ele>1774.2</ele>
        <time>2026-09-03T13:14:08Z</time>
      </trkpt>
      <trkpt lat="44.7451" lon="6.99474">
        <ele>1773.5</ele>
        <time>2026-09-03T13:14:13Z</time>
      </trkpt>
      <trkpt lat="44.74515" lon="6.99474">
        <ele>1772.8</ele>
        <time>2026-09-03T13:14:18Z</time>
      </trkpt>
      <trkpt lat="44.74518" lon="6.99472">
        <ele>1771.8</ele>
        <time>2026-09-03T13:14:24Z</time>
      </trkpt>
      <trkpt lat="44.74518" lon="6.99472">
        <ele>1771.8</ele>
        <time>2026-09-03T13:14:29Z</time>
      </trkpt>
      <trkpt lat="44.74525" lon="6.99476">
        <ele>1771.9</ele>
        <time>2026-09-03T13:14:34Z</time>
      </trkpt>
      <trkpt lat="44.74535" lon="6.99481">
        <ele>1771.6</ele>
        <time>2026-09-03T13:14:40Z</time>
      </trkpt>
      <trkpt lat="44.74541" lon="6.99482">
        <ele>1770.8</ele>
        <time>2026-09-03T13:14:45Z</time>
      </trkpt>
      <trkpt lat="44.74547" lon="6.99484">
        <ele>1770.3</ele>
        <time>2026-09-03T13:14:50Z</time>
      </trkpt>
      <trkpt lat="44.74555" lon="6.99486">
        <ele>1769.3</ele>
        <time>2026-09-03T13:14:56Z</time>
      </trkpt>
      <trkpt lat="44.74561" lon="6.99488">
        <ele>1768.6</ele>
        <time>2026-09-03T13:15:01Z</time>
      </trkpt>
      <trkpt lat="44.74566" lon="6.99489">
        <ele>1767.9</ele>
        <time>2026-09-03T13:15:06Z</time>
      </trkpt>
      <trkpt lat="44.74574" lon="6.99494">
        <ele>1767.1</ele>
        <time>2026-09-03T13:15:12Z</time>
      </trkpt>
      <trkpt lat="44.74581" lon="6.99495">
        <ele>1765.9</ele>
        <time>2026-09-03T13:15:17Z</time>
      </trkpt>
      <trkpt lat="44.74589" lon="6.99498">
        <ele>1764.9</ele>
        <time>2026-09-03T13:15:22Z</time>
      </trkpt>
      <trkpt lat="44.74597" lon="6.99501">
        <ele>1764.2</ele>
        <time>2026-09-03T13:15:28Z</time>
      </trkpt>
      <trkpt lat="44.74605" lon="6.99504">
        <ele>1764</ele>
        <time>2026-09-03T13:15:33Z</time>
      </trkpt>
      <trkpt lat="44.7461" lon="6.99505">
        <ele>1763.5</ele>
        <time>2026-09-03T13:15:38Z</time>
      </trkpt>
      <trkpt lat="44.74617" lon="6.99508">
        <ele>1763.4</ele>
        <time>2026-09-03T13:15:44Z</time>
      </trkpt>
      <trkpt lat="44.74623" lon="6.9951">
        <ele>1763</ele>
        <time>2026-09-03T13:15:49Z</time>
      </trkpt>
      <trkpt lat="44.74629" lon="6.9951">
        <ele>1762</ele>
        <time>2026-09-03T13:15:54Z</time>
      </trkpt>
      <trkpt lat="44.74638" lon="6.99513">
        <ele>1761.4</ele>
        <time>2026-09-03T13:16:00Z</time>
      </trkpt>
      <trkpt lat="44.74644" lon="6.99514">
        <ele>1760.6</ele>
        <time>2026-09-03T13:16:05Z</time>
      </trkpt>
      <trkpt lat="44.74652" lon="6.99519">
        <ele>1760.7</ele>
        <time>2026-09-03T13:16:10Z</time>
      </trkpt>
      <trkpt lat="44.7466" lon="6.99523">
        <ele>1760.3</ele>
        <time>2026-09-03T13:16:16Z</time>
      </trkpt>
      <trkpt lat="44.74667" lon="6.99527">
        <ele>1760.1</ele>
        <time>2026-09-03T13:16:21Z</time>
      </trkpt>
      <trkpt lat="44.74673" lon="6.99529">
        <ele>1760.2</ele>
        <time>2026-09-03T13:16:26Z</time>
      </trkpt>
      <trkpt lat="44.74682" lon="6.99532">
        <ele>1760.2</ele>
        <time>2026-09-03T13:16:32Z</time>
      </trkpt>
      <trkpt lat="44.74689" lon="6.99535">
        <ele>1760.4</ele>
        <time>2026-09-03T13:16:37Z</time>
      </trkpt>
      <trkpt lat="44.74695" lon="6.99536">
        <ele>1760.2</ele>
        <time>2026-09-03T13:16:42Z</time>
      </trkpt>
      <trkpt lat="44.74703" lon="6.99537">
        <ele>1759.8</ele>
        <time>2026-09-03T13:16:48Z</time>
      </trkpt>
      <trkpt lat="44.74709" lon="6.99538">
        <ele>1759.6</ele>
        <time>2026-09-03T13:16:53Z</time>
      </trkpt>
      <trkpt lat="44.74717" lon="6.99539">
        <ele>1759.1</ele>
        <time>2026-09-03T13:16:58Z</time>
      </trkpt>
      <trkpt lat="44.74728" lon="6.99543">
        <ele>1759.2</ele>
        <time>2026-09-03T13:17:04Z</time>
      </trkpt>
      <trkpt lat="44.74736" lon="6.99547">
        <ele>1759.4</ele>
        <time>2026-09-03T13:17:09Z</time>
      </trkpt>
      <trkpt lat="44.74743" lon="6.99549">
        <ele>1759.2</ele>
        <time>2026-09-03T13:17:14Z</time>
      </trkpt>
      <trkpt lat="44.74752" lon="6.9955">
        <ele>1758.5</ele>
        <time>2026-09-03T13:17:20Z</time>
      </trkpt>
      <trkpt lat="44.7476" lon="6.99551">
        <ele>1757.3</ele>
        <time>2026-09-03T13:17:25Z</time>
      </trkpt>
      <trkpt lat="44.74768" lon="6.9955">
        <ele>1755.7</ele>
        <time>2026-09-03T13:17:30Z</time>
      </trkpt>
      <trkpt lat="44.74776" lon="6.9955">
        <ele>1754.4</ele>
        <time>2026-09-03T13:17:36Z</time>
      </trkpt>
      <trkpt lat="44.74784" lon="6.99549">
        <ele>1752.8</ele>
        <time>2026-09-03T13:17:41Z</time>
      </trkpt>
      <trkpt lat="44.74788" lon="6.99547">
        <ele>1751.8</ele>
        <time>2026-09-03T13:17:46Z</time>
      </trkpt>
      <trkpt lat="44.74796" lon="6.99546">
        <ele>1750.3</ele>
        <time>2026-09-03T13:17:52Z</time>
      </trkpt>
      <trkpt lat="44.74804" lon="6.99545">
        <ele>1748.8</ele>
        <time>2026-09-03T13:17:57Z</time>
      </trkpt>
      <trkpt lat="44.74812" lon="6.99545">
        <ele>1747.5</ele>
        <time>2026-09-03T13:18:02Z</time>
      </trkpt>
      <trkpt lat="44.74824" lon="6.99542">
        <ele>1745.1</ele>
        <time>2026-09-03T13:18:08Z</time>
      </trkpt>
      <trkpt lat="44.74831" lon="6.99537">
        <ele>1743.3</ele>
        <time>2026-09-03T13:18:13Z</time>
      </trkpt>
      <trkpt lat="44.74838" lon="6.99537">
        <ele>1742.6</ele>
        <time>2026-09-03T13:18:18Z</time>
      </trkpt>
      <trkpt lat="44.74843" lon="6.99536">
        <ele>1742.2</ele>
        <time>2026-09-03T13:18:24Z</time>
      </trkpt>
      <trkpt lat="44.74845" lon="6.99534">
        <ele>1741.8</ele>
        <time>2026-09-03T13:18:29Z</time>
      </trkpt>
      <trkpt lat="44.74852" lon="6.99535">
        <ele>1741.5</ele>
        <time>2026-09-03T13:18:34Z</time>
      </trkpt>
      <trkpt lat="44.7486" lon="6.99533">
        <ele>1740.8</ele>
        <time>2026-09-03T13:18:40Z</time>
      </trkpt>
      <trkpt lat="44.74868" lon="6.99531">
        <ele>1740.1</ele>
        <time>2026-09-03T13:18:45Z</time>
      </trkpt>
      <trkpt lat="44.74876" lon="6.9953">
        <ele>1739.5</ele>
        <time>2026-09-03T13:18:50Z</time>
      </trkpt>
      <trkpt lat="44.74883" lon="6.99529">
        <ele>1739</ele>
        <time>2026-09-03T13:18:56Z</time>
      </trkpt>
      <trkpt lat="44.7489" lon="6.99528">
        <ele>1738.5</ele>
        <time>2026-09-03T13:19:01Z</time>
      </trkpt>
      <trkpt lat="44.74895" lon="6.99525">
        <ele>1737.9</ele>
        <time>2026-09-03T13:19:06Z</time>
      </trkpt>
      <trkpt lat="44.74906" lon="6.99526">
        <ele>1737.4</ele>
        <time>2026-09-03T13:19:12Z</time>
      </trkpt>
      <trkpt lat="44.74912" lon="6.99525">
        <ele>1737</ele>
        <time>2026-09-03T13:19:17Z</time>
      </trkpt>
      <trkpt lat="44.74919" lon="6.99525">
        <ele>1736.7</ele>
        <time>2026-09-03T13:19:22Z</time>
      </trkpt>
      <trkpt lat="44.74929" lon="6.99524">
        <ele>1736.5</ele>
        <time>2026-09-03T13:19:28Z</time>
      </trkpt>
      <trkpt lat="44.74937" lon="6.99522">
        <ele>1736.2</ele>
        <time>2026-09-03T13:19:33Z</time>
      </trkpt>
      <trkpt lat="44.74944" lon="6.99521">
        <ele>1736</ele>
        <time>2026-09-03T13:19:38Z</time>
      </trkpt>
      <trkpt lat="44.74953" lon="6.99521">
        <ele>1735.9</ele>
        <time>2026-09-03T13:19:44Z</time>
      </trkpt>
      <trkpt lat="44.74958" lon="6.99518">
        <ele>1735.6</ele>
        <time>2026-09-03T13:19:49Z</time>
      </trkpt>
      <trkpt lat="44.74964" lon="6.99515">
        <ele>1735.3</ele>
        <time>2026-09-03T13:19:54Z</time>
      </trkpt>
      <trkpt lat="44.74973" lon="6.99513">
        <ele>1735.1</ele>
        <time>2026-09-03T13:20:00Z</time>
      </trkpt>
      <trkpt lat="44.74981" lon="6.99511">
        <ele>1734.9</ele>
        <time>2026-09-03T13:20:05Z</time>
      </trkpt>
      <trkpt lat="44.74988" lon="6.99508">
        <ele>1734.6</ele>
        <time>2026-09-03T13:20:10Z</time>
      </trkpt>
      <trkpt lat="44.74994" lon="6.99507">
        <ele>1734.5</ele>
        <time>2026-09-03T13:20:16Z</time>
      </trkpt>
      <trkpt lat="44.74998" lon="6.99504">
        <ele>1734.3</ele>
        <time>2026-09-03T13:20:21Z</time>
      </trkpt>
      <trkpt lat="44.74999" lon="6.99501">
        <ele>1734.1</ele>
        <time>2026-09-03T13:20:26Z</time>
      </trkpt>
      <trkpt lat="44.75003" lon="6.99501">
        <ele>1733.9</ele>
        <time>2026-09-03T13:20:32Z</time>
      </trkpt>
      <trkpt lat="44.75009" lon="6.99502">
        <ele>1733.7</ele>
        <time>2026-09-03T13:20:37Z</time>
      </trkpt>
      <trkpt lat="44.75015" lon="6.99499">
        <ele>1733.2</ele>
        <time>2026-09-03T13:20:42Z</time>
      </trkpt>
      <trkpt lat="44.75021" lon="6.99495">
        <ele>1732.8</ele>
        <time>2026-09-03T13:20:48Z</time>
      </trkpt>
      <trkpt lat="44.75028" lon="6.99493">
        <ele>1732.3</ele>
        <time>2026-09-03T13:20:53Z</time>
      </trkpt>
      <trkpt lat="44.75033" lon="6.99491">
        <ele>1732</ele>
        <time>2026-09-03T13:20:58Z</time>
      </trkpt>
      <trkpt lat="44.7504" lon="6.99488">
        <ele>1731.5</ele>
        <time>2026-09-03T13:21:04Z</time>
      </trkpt>
      <trkpt lat="44.75046" lon="6.99482">
        <ele>1730.9</ele>
        <time>2026-09-03T13:21:09Z</time>
      </trkpt>
      <trkpt lat="44.75054" lon="6.99479">
        <ele>1730.4</ele>
        <time>2026-09-03T13:21:14Z</time>
      </trkpt>
      <trkpt lat="44.75058" lon="6.99474">
        <ele>1730</ele>
        <time>2026-09-03T13:21:20Z</time>
      </trkpt>
      <trkpt lat="44.75058" lon="6.99474">
        <ele>1730</ele>
        <time>2026-09-03T13:21:25Z</time>
      </trkpt>
      <trkpt lat="44.75058" lon="6.99474">
        <ele>1730</ele>
        <time>2026-09-03T13:21:30Z</time>
      </trkpt>
      <trkpt lat="44.75063" lon="6.99474">
        <ele>1729.7</ele>
        <time>2026-09-03T13:21:36Z</time>
      </trkpt>
      <trkpt lat="44.75068" lon="6.99474">
        <ele>1729.5</ele>
        <time>2026-09-03T13:21:41Z</time>
      </trkpt>
      <trkpt lat="44.75074" lon="6.99471">
        <ele>1729.1</ele>
        <time>2026-09-03T13:21:46Z</time>
      </trkpt>
      <trkpt lat="44.75081" lon="6.99468">
        <ele>1728.6</ele>
        <time>2026-09-03T13:21:52Z</time>
      </trkpt>
      <trkpt lat="44.75087" lon="6.99466">
        <ele>1728.4</ele>
        <time>2026-09-03T13:21:57Z</time>
      </trkpt>
      <trkpt lat="44.75092" lon="6.99463">
        <ele>1728.4</ele>
        <time>2026-09-03T13:22:02Z</time>
      </trkpt>
      <trkpt lat="44.751" lon="6.99459">
        <ele>1728.3</ele>
        <time>2026-09-03T13:22:08Z</time>
      </trkpt>
      <trkpt lat="44.75107" lon="6.99455">
        <ele>1728.2</ele>
        <time>2026-09-03T13:22:13Z</time>
      </trkpt>
      <trkpt lat="44.75113" lon="6.99452">
        <ele>1728.1</ele>
        <time>2026-09-03T13:22:18Z</time>
      </trkpt>
      <trkpt lat="44.75121" lon="6.99447">
        <ele>1727.9</ele>
        <time>2026-09-03T13:22:24Z</time>
      </trkpt>
      <trkpt lat="44.75128" lon="6.99444">
        <ele>1727.8</ele>
        <time>2026-09-03T13:22:29Z</time>
      </trkpt>
      <trkpt lat="44.75133" lon="6.9944">
        <ele>1727.6</ele>
        <time>2026-09-03T13:22:34Z</time>
      </trkpt>
      <trkpt lat="44.75141" lon="6.99436">
        <ele>1727.4</ele>
        <time>2026-09-03T13:22:40Z</time>
      </trkpt>
      <trkpt lat="44.75147" lon="6.99432">
        <ele>1727.2</ele>
        <time>2026-09-03T13:22:45Z</time>
      </trkpt>
      <trkpt lat="44.75153" lon="6.99429">
        <ele>1727</ele>
        <time>2026-09-03T13:22:50Z</time>
      </trkpt>
      <trkpt lat="44.75161" lon="6.99424">
        <ele>1726.6</ele>
        <time>2026-09-03T13:22:56Z</time>
      </trkpt>
      <trkpt lat="44.75168" lon="6.99418">
        <ele>1726.1</ele>
        <time>2026-09-03T13:23:01Z</time>
      </trkpt>
      <trkpt lat="44.75175" lon="6.99414">
        <ele>1726.1</ele>
        <time>2026-09-03T13:23:06Z</time>
      </trkpt>
      <trkpt lat="44.75183" lon="6.99407">
        <ele>1726.4</ele>
        <time>2026-09-03T13:23:12Z</time>
      </trkpt>
      <trkpt lat="44.75187" lon="6.994">
        <ele>1726.7</ele>
        <time>2026-09-03T13:23:17Z</time>
      </trkpt>
      <trkpt lat="44.7519" lon="6.99393">
        <ele>1726.9</ele>
        <time>2026-09-03T13:23:22Z</time>
      </trkpt>
      <trkpt lat="44.75196" lon="6.99386">
        <ele>1726.9</ele>
        <time>2026-09-03T13:23:28Z</time>
      </trkpt>
      <trkpt lat="44.75202" lon="6.9938">
        <ele>1726.9</ele>
        <time>2026-09-03T13:23:33Z</time>
      </trkpt>
      <trkpt lat="44.75207" lon="6.99373">
        <ele>1726.8</ele>
        <time>2026-09-03T13:23:38Z</time>
      </trkpt>
      <trkpt lat="44.75215" lon="6.99367">
        <ele>1726.6</ele>
        <time>2026-09-03T13:23:44Z</time>
      </trkpt>
      <trkpt lat="44.75221" lon="6.99363">
        <ele>1726.3</ele>
        <time>2026-09-03T13:23:49Z</time>
      </trkpt>
      <trkpt lat="44.75227" lon="6.9936">
        <ele>1726</ele>
        <time>2026-09-03T13:23:54Z</time>
      </trkpt>
      <trkpt lat="44.75236" lon="6.99358">
        <ele>1725.4</ele>
        <time>2026-09-03T13:24:00Z</time>
      </trkpt>
      <trkpt lat="44.75243" lon="6.99357">
        <ele>1725</ele>
        <time>2026-09-03T13:24:05Z</time>
      </trkpt>
      <trkpt lat="44.7525" lon="6.99354">
        <ele>1724.5</ele>
        <time>2026-09-03T13:24:10Z</time>
      </trkpt>
      <trkpt lat="44.75258" lon="6.99352">
        <ele>1724.3</ele>
        <time>2026-09-03T13:24:16Z</time>
      </trkpt>
      <trkpt lat="44.75265" lon="6.9935">
        <ele>1724.1</ele>
        <time>2026-09-03T13:24:21Z</time>
      </trkpt>
      <trkpt lat="44.75271" lon="6.99348">
        <ele>1723.9</ele>
        <time>2026-09-03T13:24:26Z</time>
      </trkpt>
      <trkpt lat="44.75278" lon="6.99343">
        <ele>1723.5</ele>
        <time>2026-09-03T13:24:32Z</time>
      </trkpt>
      <trkpt lat="44.75285" lon="6.99338">
        <ele>1723</ele>
        <time>2026-09-03T13:24:37Z</time>
      </trkpt>
      <trkpt lat="44.75292" lon="6.99335">
        <ele>1722.6</ele>
        <time>2026-09-03T13:24:42Z</time>
      </trkpt>
      <trkpt lat="44.753" lon="6.99332">
        <ele>1722.5</ele>
        <time>2026-09-03T13:24:48Z</time>
      </trkpt>
      <trkpt lat="44.75308" lon="6.99329">
        <ele>1723</ele>
        <time>2026-09-03T13:24:53Z</time>
      </trkpt>
      <trkpt lat="44.75313" lon="6.99325">
        <ele>1723.7</ele>
        <time>2026-09-03T13:24:58Z</time>
      </trkpt>
      <trkpt lat="44.75322" lon="6.99321">
        <ele>1724.2</ele>
        <time>2026-09-03T13:25:04Z</time>
      </trkpt>
      <trkpt lat="44.7533" lon="6.99318">
        <ele>1724.3</ele>
        <time>2026-09-03T13:25:09Z</time>
      </trkpt>
      <trkpt lat="44.75337" lon="6.99317">
        <ele>1724.3</ele>
        <time>2026-09-03T13:25:14Z</time>
      </trkpt>
      <trkpt lat="44.75345" lon="6.99314">
        <ele>1724.6</ele>
        <time>2026-09-03T13:25:20Z</time>
      </trkpt>
      <trkpt lat="44.75351" lon="6.99311">
        <ele>1724.9</ele>
        <time>2026-09-03T13:25:25Z</time>
      </trkpt>
      <trkpt lat="44.7536" lon="6.99311">
        <ele>1724.6</ele>
        <time>2026-09-03T13:25:30Z</time>
      </trkpt>
      <trkpt lat="44.75368" lon="6.9931">
        <ele>1724.4</ele>
        <time>2026-09-03T13:25:36Z</time>
      </trkpt>
      <trkpt lat="44.75374" lon="6.99306">
        <ele>1724.5</ele>
        <time>2026-09-03T13:25:41Z</time>
      </trkpt>
      <trkpt lat="44.75378" lon="6.993">
        <ele>1724.8</ele>
        <time>2026-09-03T13:25:46Z</time>
      </trkpt>
      <trkpt lat="44.75382" lon="6.99293">
        <ele>1725</ele>
        <time>2026-09-03T13:25:52Z</time>
      </trkpt>
      <trkpt lat="44.75383" lon="6.99292">
        <ele>1725</ele>
        <time>2026-09-03T13:25:57Z</time>
      </trkpt>
      <trkpt lat="44.75388" lon="6.99292">
        <ele>1724.6</ele>
        <time>2026-09-03T13:26:02Z</time>
      </trkpt>
      <trkpt lat="44.75397" lon="6.99288">
        <ele>1723.9</ele>
        <time>2026-09-03T13:26:08Z</time>
      </trkpt>
      <trkpt lat="44.75403" lon="6.99286">
        <ele>1723.3</ele>
        <time>2026-09-03T13:26:13Z</time>
      </trkpt>
      <trkpt lat="44.75411" lon="6.99285">
        <ele>1722.5</ele>
        <time>2026-09-03T13:26:18Z</time>
      </trkpt>
      <trkpt lat="44.7542" lon="6.99283">
        <ele>1721.5</ele>
        <time>2026-09-03T13:26:24Z</time>
      </trkpt>
      <trkpt lat="44.75427" lon="6.99281">
        <ele>1721</ele>
        <time>2026-09-03T13:26:29Z</time>
      </trkpt>
      <trkpt lat="44.75435" lon="6.99278">
        <ele>1720.2</ele>
        <time>2026-09-03T13:26:34Z</time>
      </trkpt>
      <trkpt lat="44.75442" lon="6.99276">
        <ele>1719.6</ele>
        <time>2026-09-03T13:26:40Z</time>
      </trkpt>
      <trkpt lat="44.75448" lon="6.99275">
        <ele>1719</ele>
        <time>2026-09-03T13:26:45Z</time>
      </trkpt>
      <trkpt lat="44.75455" lon="6.99273">
        <ele>1718.3</ele>
        <time>2026-09-03T13:26:50Z</time>
      </trkpt>
      <trkpt lat="44.75464" lon="6.99271">
        <ele>1717.4</ele>
        <time>2026-09-03T13:26:56Z</time>
      </trkpt>
      <trkpt lat="44.7547" lon="6.99268">
        <ele>1716.6</ele>
        <time>2026-09-03T13:27:01Z</time>
      </trkpt>
      <trkpt lat="44.75477" lon="6.99267">
        <ele>1715.9</ele>
        <time>2026-09-03T13:27:06Z</time>
      </trkpt>
      <trkpt lat="44.75486" lon="6.99265">
        <ele>1714.9</ele>
        <time>2026-09-03T13:27:12Z</time>
      </trkpt>
      <trkpt lat="44.75492" lon="6.99263">
        <ele>1714.2</ele>
        <time>2026-09-03T13:27:17Z</time>
      </trkpt>
      <trkpt lat="44.75498" lon="6.99261">
        <ele>1713.4</ele>
        <time>2026-09-03T13:27:22Z</time>
      </trkpt>
      <trkpt lat="44.75506" lon="6.99259">
        <ele>1712.7</ele>
        <time>2026-09-03T13:27:28Z</time>
      </trkpt>
      <trkpt lat="44.75513" lon="6.99257">
        <ele>1712.1</ele>
        <time>2026-09-03T13:27:33Z</time>
      </trkpt>
      <trkpt lat="44.75521" lon="6.99254">
        <ele>1711.4</ele>
        <time>2026-09-03T13:27:38Z</time>
      </trkpt>
      <trkpt lat="44.7553" lon="6.99251">
        <ele>1710.7</ele>
        <time>2026-09-03T13:27:44Z</time>
      </trkpt>
      <trkpt lat="44.75537" lon="6.99248">
        <ele>1710.3</ele>
        <time>2026-09-03T13:27:49Z</time>
      </trkpt>
      <trkpt lat="44.75544" lon="6.99246">
        <ele>1710</ele>
        <time>2026-09-03T13:27:54Z</time>
      </trkpt>
      <trkpt lat="44.75551" lon="6.99244">
        <ele>1709.7</ele>
        <time>2026-09-03T13:28:00Z</time>
      </trkpt>
      <trkpt lat="44.75558" lon="6.99241">
        <ele>1709.4</ele>
        <time>2026-09-03T13:28:05Z</time>
      </trkpt>
      <trkpt lat="44.75564" lon="6.9924">
        <ele>1709.1</ele>
        <time>2026-09-03T13:28:10Z</time>
      </trkpt>
      <trkpt lat="44.75571" lon="6.99235">
        <ele>1708.8</ele>
        <time>2026-09-03T13:28:16Z</time>
      </trkpt>
      <trkpt lat="44.75574" lon="6.99231">
        <ele>1708.6</ele>
        <time>2026-09-03T13:28:21Z</time>
      </trkpt>
      <trkpt lat="44.75582" lon="6.9923">
        <ele>1708.1</ele>
        <time>2026-09-03T13:28:26Z</time>
      </trkpt>
      <trkpt lat="44.75588" lon="6.9923">
        <ele>1707.8</ele>
        <time>2026-09-03T13:28:32Z</time>
      </trkpt>
      <trkpt lat="44.75593" lon="6.99232">
        <ele>1707.6</ele>
        <time>2026-09-03T13:28:37Z</time>
      </trkpt>
      <trkpt lat="44.75601" lon="6.99233">
        <ele>1707.3</ele>
        <time>2026-09-03T13:28:42Z</time>
      </trkpt>
      <trkpt lat="44.75605" lon="6.99231">
        <ele>1707.2</ele>
        <time>2026-09-03T13:28:48Z</time>
      </trkpt>
      <trkpt lat="44.75608" lon="6.99227">
        <ele>1707</ele>
        <time>2026-09-03T13:28:53Z</time>
      </trkpt>
      <trkpt lat="44.75613" lon="6.99223">
        <ele>1706.8</ele>
        <time>2026-09-03T13:28:58Z</time>
      </trkpt>
      <trkpt lat="44.75621" lon="6.99218">
        <ele>1706.5</ele>
        <time>2026-09-03T13:29:04Z</time>
      </trkpt>
      <trkpt lat="44.75628" lon="6.99217">
        <ele>1706.2</ele>
        <time>2026-09-03T13:29:09Z</time>
      </trkpt>
      <trkpt lat="44.75635" lon="6.99218">
        <ele>1705.9</ele>
        <time>2026-09-03T13:29:14Z</time>
      </trkpt>
      <trkpt lat="44.75643" lon="6.99221">
        <ele>1705.6</ele>
        <time>2026-09-03T13:29:20Z</time>
      </trkpt>
      <trkpt lat="44.75649" lon="6.99223">
        <ele>1705.4</ele>
        <time>2026-09-03T13:29:25Z</time>
      </trkpt>
      <trkpt lat="44.75656" lon="6.99222">
        <ele>1705.1</ele>
        <time>2026-09-03T13:29:30Z</time>
      </trkpt>
      <trkpt lat="44.75665" lon="6.99218">
        <ele>1704.7</ele>
        <time>2026-09-03T13:29:36Z</time>
      </trkpt>
      <trkpt lat="44.7567" lon="6.99214">
        <ele>1704.4</ele>
        <time>2026-09-03T13:29:41Z</time>
      </trkpt>
      <trkpt lat="44.75677" lon="6.99208">
        <ele>1704</ele>
        <time>2026-09-03T13:29:46Z</time>
      </trkpt>
      <trkpt lat="44.75684" lon="6.99204">
        <ele>1703.6</ele>
        <time>2026-09-03T13:29:52Z</time>
      </trkpt>
      <trkpt lat="44.75689" lon="6.99199">
        <ele>1703.4</ele>
        <time>2026-09-03T13:29:57Z</time>
      </trkpt>
      <trkpt lat="44.75696" lon="6.99197">
        <ele>1703.1</ele>
        <time>2026-09-03T13:30:02Z</time>
      </trkpt>
      <trkpt lat="44.75704" lon="6.99195">
        <ele>1702.7</ele>
        <time>2026-09-03T13:30:08Z</time>
      </trkpt>
      <trkpt lat="44.75707" lon="6.99189">
        <ele>1702.6</ele>
        <time>2026-09-03T13:30:13Z</time>
      </trkpt>
      <trkpt lat="44.75709" lon="6.9918">
        <ele>1702.5</ele>
        <time>2026-09-03T13:30:18Z</time>
      </trkpt>
      <trkpt lat="44.75713" lon="6.99172">
        <ele>1702.3</ele>
        <time>2026-09-03T13:30:24Z</time>
      </trkpt>
      <trkpt lat="44.75714" lon="6.99163">
        <ele>1702.6</ele>
        <time>2026-09-03T13:30:29Z</time>
      </trkpt>
      <trkpt lat="44.75715" lon="6.99155">
        <ele>1703.3</ele>
        <time>2026-09-03T13:30:34Z</time>
      </trkpt>
      <trkpt lat="44.75715" lon="6.99143">
        <ele>1704.4</ele>
        <time>2026-09-03T13:30:40Z</time>
      </trkpt>
      <trkpt lat="44.75715" lon="6.99133">
        <ele>1705.4</ele>
        <time>2026-09-03T13:30:45Z</time>
      </trkpt>
      <trkpt lat="44.75714" lon="6.99123">
        <ele>1706.3</ele>
        <time>2026-09-03T13:30:50Z</time>
      </trkpt>
      <trkpt lat="44.75715" lon="6.99113">
        <ele>1707.2</ele>
        <time>2026-09-03T13:30:56Z</time>
      </trkpt>
      <trkpt lat="44.75717" lon="6.99105">
        <ele>1707.8</ele>
        <time>2026-09-03T13:31:01Z</time>
      </trkpt>
      <trkpt lat="44.75722" lon="6.99098">
        <ele>1708.1</ele>
        <time>2026-09-03T13:31:06Z</time>
      </trkpt>
      <trkpt lat="44.75729" lon="6.99091">
        <ele>1708.1</ele>
        <time>2026-09-03T13:31:12Z</time>
      </trkpt>
      <trkpt lat="44.75735" lon="6.99091">
        <ele>1707.6</ele>
        <time>2026-09-03T13:31:17Z</time>
      </trkpt>
      <trkpt lat="44.75743" lon="6.99093">
        <ele>1706.9</ele>
        <time>2026-09-03T13:31:22Z</time>
      </trkpt>
      <trkpt lat="44.75752" lon="6.99096">
        <ele>1706.1</ele>
        <time>2026-09-03T13:31:28Z</time>
      </trkpt>
      <trkpt lat="44.75759" lon="6.99099">
        <ele>1705.7</ele>
        <time>2026-09-03T13:31:33Z</time>
      </trkpt>
      <trkpt lat="44.75765" lon="6.99103">
        <ele>1705.4</ele>
        <time>2026-09-03T13:31:38Z</time>
      </trkpt>
      <trkpt lat="44.75772" lon="6.99105">
        <ele>1705.1</ele>
        <time>2026-09-03T13:31:44Z</time>
      </trkpt>
      <trkpt lat="44.75778" lon="6.99109">
        <ele>1704.7</ele>
        <time>2026-09-03T13:31:49Z</time>
      </trkpt>
      <trkpt lat="44.75783" lon="6.99116">
        <ele>1704.1</ele>
        <time>2026-09-03T13:31:54Z</time>
      </trkpt>
      <trkpt lat="44.75791" lon="6.99121">
        <ele>1703.6</ele>
        <time>2026-09-03T13:32:00Z</time>
      </trkpt>
      <trkpt lat="44.75799" lon="6.99126">
        <ele>1703</ele>
        <time>2026-09-03T13:32:05Z</time>
      </trkpt>
      <trkpt lat="44.75804" lon="6.99131">
        <ele>1702.5</ele>
        <time>2026-09-03T13:32:10Z</time>
      </trkpt>
      <trkpt lat="44.7581" lon="6.99136">
        <ele>1702</ele>
        <time>2026-09-03T13:32:16Z</time>
      </trkpt>
      <trkpt lat="44.75816" lon="6.99137">
        <ele>1701.8</ele>
        <time>2026-09-03T13:32:21Z</time>
      </trkpt>
      <trkpt lat="44.75825" lon="6.99141">
        <ele>1701.3</ele>
        <time>2026-09-03T13:32:26Z</time>
      </trkpt>
      <trkpt lat="44.75831" lon="6.99146">
        <ele>1700.8</ele>
        <time>2026-09-03T13:32:32Z</time>
      </trkpt>
      <trkpt lat="44.75838" lon="6.99149">
        <ele>1700.3</ele>
        <time>2026-09-03T13:32:37Z</time>
      </trkpt>
      <trkpt lat="44.75844" lon="6.99151">
        <ele>1699.9</ele>
        <time>2026-09-03T13:32:42Z</time>
      </trkpt>
      <trkpt lat="44.75852" lon="6.99155">
        <ele>1699.3</ele>
        <time>2026-09-03T13:32:48Z</time>
      </trkpt>
      <trkpt lat="44.75857" lon="6.99155">
        <ele>1699.1</ele>
        <time>2026-09-03T13:32:53Z</time>
      </trkpt>
      <trkpt lat="44.75864" lon="6.99159">
        <ele>1698.4</ele>
        <time>2026-09-03T13:32:58Z</time>
      </trkpt>
      <trkpt lat="44.75871" lon="6.99164">
        <ele>1697.5</ele>
        <time>2026-09-03T13:33:04Z</time>
      </trkpt>
      <trkpt lat="44.75878" lon="6.99166">
        <ele>1696.9</ele>
        <time>2026-09-03T13:33:09Z</time>
      </trkpt>
      <trkpt lat="44.75883" lon="6.99165">
        <ele>1696.8</ele>
        <time>2026-09-03T13:33:14Z</time>
      </trkpt>
      <trkpt lat="44.75889" lon="6.99164">
        <ele>1696.7</ele>
        <time>2026-09-03T13:33:20Z</time>
      </trkpt>
      <trkpt lat="44.75894" lon="6.9916">
        <ele>1697</ele>
        <time>2026-09-03T13:33:25Z</time>
      </trkpt>
      <trkpt lat="44.75901" lon="6.99156">
        <ele>1697.3</ele>
        <time>2026-09-03T13:33:30Z</time>
      </trkpt>
      <trkpt lat="44.75908" lon="6.99152">
        <ele>1697.6</ele>
        <time>2026-09-03T13:33:36Z</time>
      </trkpt>
      <trkpt lat="44.75914" lon="6.99148">
        <ele>1698</ele>
        <time>2026-09-03T13:33:41Z</time>
      </trkpt>
      <trkpt lat="44.75918" lon="6.99145">
        <ele>1698.4</ele>
        <time>2026-09-03T13:33:46Z</time>
      </trkpt>
      <trkpt lat="44.75923" lon="6.99146">
        <ele>1698.4</ele>
        <time>2026-09-03T13:33:52Z</time>
      </trkpt>
      <trkpt lat="44.75927" lon="6.99144">
        <ele>1698.8</ele>
        <time>2026-09-03T13:33:57Z</time>
      </trkpt>
      <trkpt lat="44.75931" lon="6.9914">
        <ele>1699.4</ele>
        <time>2026-09-03T13:34:02Z</time>
      </trkpt>
      <trkpt lat="44.75935" lon="6.99137">
        <ele>1700</ele>
        <time>2026-09-03T13:34:08Z</time>
      </trkpt>
      <trkpt lat="44.75942" lon="6.99137">
        <ele>1700.1</ele>
        <time>2026-09-03T13:34:13Z</time>
      </trkpt>
      <trkpt lat="44.75949" lon="6.99138">
        <ele>1700.1</ele>
        <time>2026-09-03T13:34:18Z</time>
      </trkpt>
      <trkpt lat="44.75958" lon="6.99138">
        <ele>1700.3</ele>
        <time>2026-09-03T13:34:24Z</time>
      </trkpt>
      <trkpt lat="44.75963" lon="6.99139">
        <ele>1700.2</ele>
        <time>2026-09-03T13:34:29Z</time>
      </trkpt>
      <trkpt lat="44.75968" lon="6.99141">
        <ele>1700</ele>
        <time>2026-09-03T13:34:34Z</time>
      </trkpt>
      <trkpt lat="44.75975" lon="6.99145">
        <ele>1699.6</ele>
        <time>2026-09-03T13:34:40Z</time>
      </trkpt>
      <trkpt lat="44.75983" lon="6.99146">
        <ele>1699.6</ele>
        <time>2026-09-03T13:34:45Z</time>
      </trkpt>
      <trkpt lat="44.7599" lon="6.99146">
        <ele>1699.8</ele>
        <time>2026-09-03T13:34:50Z</time>
      </trkpt>
      <trkpt lat="44.75999" lon="6.99145">
        <ele>1700.1</ele>
        <time>2026-09-03T13:34:56Z</time>
      </trkpt>
      <trkpt lat="44.76007" lon="6.99143">
        <ele>1699.9</ele>
        <time>2026-09-03T13:35:01Z</time>
      </trkpt>
      <trkpt lat="44.76013" lon="6.99136">
        <ele>1700.4</ele>
        <time>2026-09-03T13:35:06Z</time>
      </trkpt>
      <trkpt lat="44.7602" lon="6.99131">
        <ele>1700.6</ele>
        <time>2026-09-03T13:35:12Z</time>
      </trkpt>
      <trkpt lat="44.76026" lon="6.99127">
        <ele>1700.6</ele>
        <time>2026-09-03T13:35:17Z</time>
      </trkpt>
      <trkpt lat="44.76031" lon="6.99123">
        <ele>1700.6</ele>
        <time>2026-09-03T13:35:22Z</time>
      </trkpt>
      <trkpt lat="44.76038" lon="6.9912">
        <ele>1700.4</ele>
        <time>2026-09-03T13:35:28Z</time>
      </trkpt>
      <trkpt lat="44.76044" lon="6.99117">
        <ele>1700.2</ele>
        <time>2026-09-03T13:35:33Z</time>
      </trkpt>
      <trkpt lat="44.7605" lon="6.99117">
        <ele>1699.6</ele>
        <time>2026-09-03T13:35:38Z</time>
      </trkpt>
      <trkpt lat="44.76058" lon="6.99117">
        <ele>1698.9</ele>
        <time>2026-09-03T13:35:44Z</time>
      </trkpt>
      <trkpt lat="44.76064" lon="6.99116">
        <ele>1698.4</ele>
        <time>2026-09-03T13:35:49Z</time>
      </trkpt>
      <trkpt lat="44.76071" lon="6.99112">
        <ele>1698.1</ele>
        <time>2026-09-03T13:35:54Z</time>
      </trkpt>
      <trkpt lat="44.76079" lon="6.99104">
        <ele>1698</ele>
        <time>2026-09-03T13:36:00Z</time>
      </trkpt>
      <trkpt lat="44.76085" lon="6.99096">
        <ele>1697.9</ele>
        <time>2026-09-03T13:36:05Z</time>
      </trkpt>
      <trkpt lat="44.7609" lon="6.99087">
        <ele>1697.9</ele>
        <time>2026-09-03T13:36:10Z</time>
      </trkpt>
      <trkpt lat="44.76097" lon="6.99079">
        <ele>1697.5</ele>
        <time>2026-09-03T13:36:16Z</time>
      </trkpt>
      <trkpt lat="44.76102" lon="6.99073">
        <ele>1697.2</ele>
        <time>2026-09-03T13:36:21Z</time>
      </trkpt>
      <trkpt lat="44.76107" lon="6.99063">
        <ele>1697.1</ele>
        <time>2026-09-03T13:36:26Z</time>
      </trkpt>
      <trkpt lat="44.76112" lon="6.99056">
        <ele>1696.8</ele>
        <time>2026-09-03T13:36:32Z</time>
      </trkpt>
      <trkpt lat="44.76117" lon="6.99047">
        <ele>1696.6</ele>
        <time>2026-09-03T13:36:37Z</time>
      </trkpt>
      <trkpt lat="44.76122" lon="6.9904">
        <ele>1696.3</ele>
        <time>2026-09-03T13:36:42Z</time>
      </trkpt>
      <trkpt lat="44.7613" lon="6.99032">
        <ele>1695.5</ele>
        <time>2026-09-03T13:36:48Z</time>
      </trkpt>
      <trkpt lat="44.76133" lon="6.99024">
        <ele>1695.4</ele>
        <time>2026-09-03T13:36:53Z</time>
      </trkpt>
      <trkpt lat="44.76137" lon="6.99015">
        <ele>1695.3</ele>
        <time>2026-09-03T13:36:58Z</time>
      </trkpt>
      <trkpt lat="44.76139" lon="6.99005">
        <ele>1695.4</ele>
        <time>2026-09-03T13:37:04Z</time>
      </trkpt>
      <trkpt lat="44.76141" lon="6.98996">
        <ele>1695.6</ele>
        <time>2026-09-03T13:37:09Z</time>
      </trkpt>
      <trkpt lat="44.76144" lon="6.98986">
        <ele>1695.9</ele>
        <time>2026-09-03T13:37:14Z</time>
      </trkpt>
      <trkpt lat="44.76149" lon="6.98975">
        <ele>1695.9</ele>
        <time>2026-09-03T13:37:20Z</time>
      </trkpt>
      <trkpt lat="44.76155" lon="6.98968">
        <ele>1695.4</ele>
        <time>2026-09-03T13:37:25Z</time>
      </trkpt>
      <trkpt lat="44.76158" lon="6.98959">
        <ele>1695.5</ele>
        <time>2026-09-03T13:37:30Z</time>
      </trkpt>
      <trkpt lat="44.76163" lon="6.98949">
        <ele>1695.3</ele>
        <time>2026-09-03T13:37:36Z</time>
      </trkpt>
      <trkpt lat="44.76165" lon="6.98941">
        <ele>1695.6</ele>
        <time>2026-09-03T13:37:41Z</time>
      </trkpt>
      <trkpt lat="44.76168" lon="6.98931">
        <ele>1695.8</ele>
        <time>2026-09-03T13:37:46Z</time>
      </trkpt>
      <trkpt lat="44.76173" lon="6.98925">
        <ele>1695.6</ele>
        <time>2026-09-03T13:37:52Z</time>
      </trkpt>
      <trkpt lat="44.76175" lon="6.98917">
        <ele>1695.9</ele>
        <time>2026-09-03T13:37:57Z</time>
      </trkpt>
      <trkpt lat="44.76177" lon="6.98909">
        <ele>1696.3</ele>
        <time>2026-09-03T13:38:02Z</time>
      </trkpt>
      <trkpt lat="44.76179" lon="6.98896">
        <ele>1697.1</ele>
        <time>2026-09-03T13:38:08Z</time>
      </trkpt>
      <trkpt lat="44.76181" lon="6.98885">
        <ele>1697.8</ele>
        <time>2026-09-03T13:38:13Z</time>
      </trkpt>
      <trkpt lat="44.76182" lon="6.98875">
        <ele>1698.4</ele>
        <time>2026-09-03T13:38:18Z</time>
      </trkpt>
      <trkpt lat="44.76186" lon="6.98863">
        <ele>1698.7</ele>
        <time>2026-09-03T13:38:24Z</time>
      </trkpt>
      <trkpt lat="44.76189" lon="6.98853">
        <ele>1698.9</ele>
        <time>2026-09-03T13:38:29Z</time>
      </trkpt>
      <trkpt lat="44.76192" lon="6.98844">
        <ele>1699</ele>
        <time>2026-09-03T13:38:34Z</time>
      </trkpt>
      <trkpt lat="44.76196" lon="6.98835">
        <ele>1698.9</ele>
        <time>2026-09-03T13:38:40Z</time>
      </trkpt>
      <trkpt lat="44.762" lon="6.98825">
        <ele>1698.7</ele>
        <time>2026-09-03T13:38:45Z</time>
      </trkpt>
      <trkpt lat="44.76204" lon="6.98817">
        <ele>1698.3</ele>
        <time>2026-09-03T13:38:50Z</time>
      </trkpt>
      <trkpt lat="44.76209" lon="6.98806">
        <ele>1697.8</ele>
        <time>2026-09-03T13:38:56Z</time>
      </trkpt>
      <trkpt lat="44.76213" lon="6.98799">
        <ele>1697.3</ele>
        <time>2026-09-03T13:39:01Z</time>
      </trkpt>
      <trkpt lat="44.7622" lon="6.98795">
        <ele>1696</ele>
        <time>2026-09-03T13:39:06Z</time>
      </trkpt>
      <trkpt lat="44.76226" lon="6.98783">
        <ele>1695.2</ele>
        <time>2026-09-03T13:39:12Z</time>
      </trkpt>
      <trkpt lat="44.7623" lon="6.98774">
        <ele>1694.7</ele>
        <time>2026-09-03T13:39:17Z</time>
      </trkpt>
      <trkpt lat="44.76233" lon="6.98766">
        <ele>1694.4</ele>
        <time>2026-09-03T13:39:22Z</time>
      </trkpt>
      <trkpt lat="44.76238" lon="6.98756">
        <ele>1693.6</ele>
        <time>2026-09-03T13:39:28Z</time>
      </trkpt>
      <trkpt lat="44.76242" lon="6.98748">
        <ele>1693.1</ele>
        <time>2026-09-03T13:39:33Z</time>
      </trkpt>
      <trkpt lat="44.76247" lon="6.9874">
        <ele>1692.8</ele>
        <time>2026-09-03T13:39:38Z</time>
      </trkpt>
      <trkpt lat="44.7625" lon="6.9873">
        <ele>1693.2</ele>
        <time>2026-09-03T13:39:44Z</time>
      </trkpt>
      <trkpt lat="44.76253" lon="6.98721">
        <ele>1693.5</ele>
        <time>2026-09-03T13:39:49Z</time>
      </trkpt>
      <trkpt lat="44.76256" lon="6.98712">
        <ele>1693.7</ele>
        <time>2026-09-03T13:39:54Z</time>
      </trkpt>
      <trkpt lat="44.7626" lon="6.98701">
        <ele>1694</ele>
        <time>2026-09-03T13:40:00Z</time>
      </trkpt>
      <trkpt lat="44.76262" lon="6.98691">
        <ele>1694.5</ele>
        <time>2026-09-03T13:40:05Z</time>
      </trkpt>
      <trkpt lat="44.76264" lon="6.98682">
        <ele>1694.9</ele>
        <time>2026-09-03T13:40:10Z</time>
      </trkpt>
      <trkpt lat="44.76267" lon="6.98671">
        <ele>1695.3</ele>
        <time>2026-09-03T13:40:16Z</time>
      </trkpt>
      <trkpt lat="44.76271" lon="6.98662">
        <ele>1695.9</ele>
        <time>2026-09-03T13:40:21Z</time>
      </trkpt>
      <trkpt lat="44.76276" lon="6.98655">
        <ele>1696.3</ele>
        <time>2026-09-03T13:40:26Z</time>
      </trkpt>
      <trkpt lat="44.7628" lon="6.9865">
        <ele>1696.4</ele>
        <time>2026-09-03T13:40:32Z</time>
      </trkpt>
      <trkpt lat="44.76286" lon="6.98644">
        <ele>1696</ele>
        <time>2026-09-03T13:40:37Z</time>
      </trkpt>
      <trkpt lat="44.76291" lon="6.98637">
        <ele>1695.9</ele>
        <time>2026-09-03T13:40:42Z</time>
      </trkpt>
      <trkpt lat="44.76297" lon="6.98628">
        <ele>1695.8</ele>
        <time>2026-09-03T13:40:48Z</time>
      </trkpt>
      <trkpt lat="44.76302" lon="6.98619">
        <ele>1695.7</ele>
        <time>2026-09-03T13:40:53Z</time>
      </trkpt>
      <trkpt lat="44.76308" lon="6.98614">
        <ele>1694.3</ele>
        <time>2026-09-03T13:40:58Z</time>
      </trkpt>
      <trkpt lat="44.76315" lon="6.98607">
        <ele>1692.7</ele>
        <time>2026-09-03T13:41:04Z</time>
      </trkpt>
      <trkpt lat="44.7632" lon="6.98601">
        <ele>1691.6</ele>
        <time>2026-09-03T13:41:09Z</time>
      </trkpt>
      <trkpt lat="44.76324" lon="6.98592">
        <ele>1691.1</ele>
        <time>2026-09-03T13:41:14Z</time>
      </trkpt>
      <trkpt lat="44.76326" lon="6.98581">
        <ele>1692.1</ele>
        <time>2026-09-03T13:41:20Z</time>
      </trkpt>
      <trkpt lat="44.76324" lon="6.98574">
        <ele>1695.3</ele>
        <time>2026-09-03T13:41:25Z</time>
      </trkpt>
      <trkpt lat="44.76324" lon="6.98565">
        <ele>1698.3</ele>
        <time>2026-09-03T13:41:30Z</time>
      </trkpt>
      <trkpt lat="44.76329" lon="6.98556">
        <ele>1698.9</ele>
        <time>2026-09-03T13:41:36Z</time>
      </trkpt>
      <trkpt lat="44.76334" lon="6.98548">
        <ele>1699.3</ele>
        <time>2026-09-03T13:41:41Z</time>
      </trkpt>
      <trkpt lat="44.76339" lon="6.98542">
        <ele>1699.8</ele>
        <time>2026-09-03T13:41:46Z</time>
      </trkpt>
      <trkpt lat="44.76346" lon="6.98534">
        <ele>1700.2</ele>
        <time>2026-09-03T13:41:52Z</time>
      </trkpt>
      <trkpt lat="44.76353" lon="6.98529">
        <ele>1699.6</ele>
        <time>2026-09-03T13:41:57Z</time>
      </trkpt>
      <trkpt lat="44.76358" lon="6.98523">
        <ele>1699.7</ele>
        <time>2026-09-03T13:42:02Z</time>
      </trkpt>
      <trkpt lat="44.76365" lon="6.98517">
        <ele>1699.1</ele>
        <time>2026-09-03T13:42:08Z</time>
      </trkpt>
      <trkpt lat="44.7637" lon="6.98511">
        <ele>1699</ele>
        <time>2026-09-03T13:42:13Z</time>
      </trkpt>
      <trkpt lat="44.76373" lon="6.98504">
        <ele>1699.7</ele>
        <time>2026-09-03T13:42:18Z</time>
      </trkpt>
      <trkpt lat="44.76377" lon="6.98494">
        <ele>1701.2</ele>
        <time>2026-09-03T13:42:24Z</time>
      </trkpt>
      <trkpt lat="44.7638" lon="6.98488">
        <ele>1701.9</ele>
        <time>2026-09-03T13:42:29Z</time>
      </trkpt>
      <trkpt lat="44.76382" lon="6.98481">
        <ele>1703.3</ele>
        <time>2026-09-03T13:42:34Z</time>
      </trkpt>
      <trkpt lat="44.76384" lon="6.98471">
        <ele>1705.6</ele>
        <time>2026-09-03T13:42:40Z</time>
      </trkpt>
      <trkpt lat="44.76387" lon="6.98464">
        <ele>1706.4</ele>
        <time>2026-09-03T13:42:45Z</time>
      </trkpt>
      <trkpt lat="44.7639" lon="6.98456">
        <ele>1707.5</ele>
        <time>2026-09-03T13:42:50Z</time>
      </trkpt>
      <trkpt lat="44.76393" lon="6.98445">
        <ele>1709.4</ele>
        <time>2026-09-03T13:42:56Z</time>
      </trkpt>
      <trkpt lat="44.76398" lon="6.98437">
        <ele>1709.5</ele>
        <time>2026-09-03T13:43:01Z</time>
      </trkpt>
      <trkpt lat="44.76401" lon="6.98429">
        <ele>1710.3</ele>
        <time>2026-09-03T13:43:06Z</time>
      </trkpt>
      <trkpt lat="44.76409" lon="6.98422">
        <ele>1708.4</ele>
        <time>2026-09-03T13:43:12Z</time>
      </trkpt>
      <trkpt lat="44.76413" lon="6.98416">
        <ele>1708</ele>
        <time>2026-09-03T13:43:17Z</time>
      </trkpt>
      <trkpt lat="44.76417" lon="6.9841">
        <ele>1707.5</ele>
        <time>2026-09-03T13:43:22Z</time>
      </trkpt>
      <trkpt lat="44.76423" lon="6.98401">
        <ele>1707.3</ele>
        <time>2026-09-03T13:43:28Z</time>
      </trkpt>
      <trkpt lat="44.76425" lon="6.98394">
        <ele>1708.1</ele>
        <time>2026-09-03T13:43:33Z</time>
      </trkpt>
      <trkpt lat="44.7643" lon="6.98388">
        <ele>1707.3</ele>
        <time>2026-09-03T13:43:38Z</time>
      </trkpt>
      <trkpt lat="44.76435" lon="6.98385">
        <ele>1705.8</ele>
        <time>2026-09-03T13:43:44Z</time>
      </trkpt>
      <trkpt lat="44.7644" lon="6.98379">
        <ele>1704.9</ele>
        <time>2026-09-03T13:43:49Z</time>
      </trkpt>
      <trkpt lat="44.76446" lon="6.98372">
        <ele>1703.6</ele>
        <time>2026-09-03T13:43:54Z</time>
      </trkpt>
      <trkpt lat="44.76455" lon="6.9837">
        <ele>1699.7</ele>
        <time>2026-09-03T13:44:00Z</time>
      </trkpt>
      <trkpt lat="44.7646" lon="6.98373">
        <ele>1696.8</ele>
        <time>2026-09-03T13:44:05Z</time>
      </trkpt>
      <trkpt lat="44.76468" lon="6.98379">
        <ele>1692.1</ele>
        <time>2026-09-03T13:44:10Z</time>
      </trkpt>
      <trkpt lat="44.76474" lon="6.98386">
        <ele>1688.2</ele>
        <time>2026-09-03T13:44:16Z</time>
      </trkpt>
      <trkpt lat="44.76476" lon="6.98388">
        <ele>1687</ele>
        <time>2026-09-03T13:44:21Z</time>
      </trkpt>
      <trkpt lat="44.7648" lon="6.98389">
        <ele>1685.1</ele>
        <time>2026-09-03T13:44:26Z</time>
      </trkpt>
      <trkpt lat="44.76488" lon="6.98396">
        <ele>1680.6</ele>
        <time>2026-09-03T13:44:32Z</time>
      </trkpt>
      <trkpt lat="44.76492" lon="6.98401">
        <ele>1678.2</ele>
        <time>2026-09-03T13:44:37Z</time>
      </trkpt>
      <trkpt lat="44.76496" lon="6.98396">
        <ele>1677.2</ele>
        <time>2026-09-03T13:44:42Z</time>
      </trkpt>
      <trkpt lat="44.76499" lon="6.98392">
        <ele>1676.4</ele>
        <time>2026-09-03T13:44:48Z</time>
      </trkpt>
      <trkpt lat="44.76499" lon="6.98392">
        <ele>1676.4</ele>
        <time>2026-09-03T13:44:53Z</time>
      </trkpt>
      <trkpt lat="44.76499" lon="6.98392">
        <ele>1676.4</ele>
        <time>2026-09-03T13:44:58Z</time>
      </trkpt>
      <trkpt lat="44.76499" lon="6.98392">
        <ele>1676.4</ele>
        <time>2026-09-03T13:45:04Z</time>
      </trkpt>
      <trkpt lat="44.76497" lon="6.98388">
        <ele>1677.8</ele>
        <time>2026-09-03T13:45:09Z</time>
      </trkpt>
      <trkpt lat="44.76497" lon="6.98381">
        <ele>1678.6</ele>
        <time>2026-09-03T13:45:14Z</time>
      </trkpt>
      <trkpt lat="44.765" lon="6.98371">
        <ele>1678.5</ele>
        <time>2026-09-03T13:45:20Z</time>
      </trkpt>
      <trkpt lat="44.76502" lon="6.98359">
        <ele>1679.5</ele>
        <time>2026-09-03T13:45:25Z</time>
      </trkpt>
      <trkpt lat="44.76507" lon="6.98351">
        <ele>1679.4</ele>
        <time>2026-09-03T13:45:30Z</time>
      </trkpt>
      <trkpt lat="44.76511" lon="6.98342">
        <ele>1679.4</ele>
        <time>2026-09-03T13:45:36Z</time>
      </trkpt>
      <trkpt lat="44.76517" lon="6.98337">
        <ele>1678.4</ele>
        <time>2026-09-03T13:45:41Z</time>
      </trkpt>
      <trkpt lat="44.76522" lon="6.9833">
        <ele>1678.2</ele>
        <time>2026-09-03T13:45:46Z</time>
      </trkpt>
      <trkpt lat="44.76529" lon="6.98326">
        <ele>1677.2</ele>
        <time>2026-09-03T13:45:52Z</time>
      </trkpt>
      <trkpt lat="44.76536" lon="6.98325">
        <ele>1675.5</ele>
        <time>2026-09-03T13:45:57Z</time>
      </trkpt>
      <trkpt lat="44.76543" lon="6.98322">
        <ele>1674.2</ele>
        <time>2026-09-03T13:46:02Z</time>
      </trkpt>
      <trkpt lat="44.7655" lon="6.98312">
        <ele>1673.9</ele>
        <time>2026-09-03T13:46:08Z</time>
      </trkpt>
      <trkpt lat="44.76553" lon="6.98301">
        <ele>1674.7</ele>
        <time>2026-09-03T13:46:13Z</time>
      </trkpt>
      <trkpt lat="44.76557" lon="6.98294">
        <ele>1674.5</ele>
        <time>2026-09-03T13:46:18Z</time>
      </trkpt>
      <trkpt lat="44.76563" lon="6.98287">
        <ele>1673.5</ele>
        <time>2026-09-03T13:46:24Z</time>
      </trkpt>
      <trkpt lat="44.76568" lon="6.98281">
        <ele>1672.5</ele>
        <time>2026-09-03T13:46:29Z</time>
      </trkpt>
      <trkpt lat="44.76575" lon="6.98277">
        <ele>1670.5</ele>
        <time>2026-09-03T13:46:34Z</time>
      </trkpt>
      <trkpt lat="44.76582" lon="6.98271">
        <ele>1668.5</ele>
        <time>2026-09-03T13:46:40Z</time>
      </trkpt>
      <trkpt lat="44.76588" lon="6.98267">
        <ele>1667.9</ele>
        <time>2026-09-03T13:46:45Z</time>
      </trkpt>
      <trkpt lat="44.76596" lon="6.98262">
        <ele>1667.5</ele>
        <time>2026-09-03T13:46:50Z</time>
      </trkpt>
      <trkpt lat="44.76603" lon="6.98254">
        <ele>1667.2</ele>
        <time>2026-09-03T13:46:56Z</time>
      </trkpt>
      <trkpt lat="44.76607" lon="6.98248">
        <ele>1667.3</ele>
        <time>2026-09-03T13:47:01Z</time>
      </trkpt>
      <trkpt lat="44.76612" lon="6.98241">
        <ele>1668</ele>
        <time>2026-09-03T13:47:06Z</time>
      </trkpt>
      <trkpt lat="44.76616" lon="6.98231">
        <ele>1669.2</ele>
        <time>2026-09-03T13:47:12Z</time>
      </trkpt>
      <trkpt lat="44.7662" lon="6.98225">
        <ele>1669.5</ele>
        <time>2026-09-03T13:47:17Z</time>
      </trkpt>
      <trkpt lat="44.76624" lon="6.98217">
        <ele>1670.1</ele>
        <time>2026-09-03T13:47:22Z</time>
      </trkpt>
      <trkpt lat="44.76628" lon="6.98205">
        <ele>1671.1</ele>
        <time>2026-09-03T13:47:28Z</time>
      </trkpt>
      <trkpt lat="44.76633" lon="6.98197">
        <ele>1671</ele>
        <time>2026-09-03T13:47:33Z</time>
      </trkpt>
      <trkpt lat="44.76637" lon="6.98188">
        <ele>1671.1</ele>
        <time>2026-09-03T13:47:38Z</time>
      </trkpt>
      <trkpt lat="44.76639" lon="6.98178">
        <ele>1671.8</ele>
        <time>2026-09-03T13:47:44Z</time>
      </trkpt>
      <trkpt lat="44.76645" lon="6.9817">
        <ele>1670.9</ele>
        <time>2026-09-03T13:47:49Z</time>
      </trkpt>
      <trkpt lat="44.76651" lon="6.98161">
        <ele>1669.9</ele>
        <time>2026-09-03T13:47:54Z</time>
      </trkpt>
      <trkpt lat="44.76654" lon="6.98153">
        <ele>1669.6</ele>
        <time>2026-09-03T13:48:00Z</time>
      </trkpt>
      <trkpt lat="44.76657" lon="6.98146">
        <ele>1669.2</ele>
        <time>2026-09-03T13:48:05Z</time>
      </trkpt>
      <trkpt lat="44.76659" lon="6.98141">
        <ele>1668.9</ele>
        <time>2026-09-03T13:48:10Z</time>
      </trkpt>
      <trkpt lat="44.76663" lon="6.98134">
        <ele>1667.9</ele>
        <time>2026-09-03T13:48:16Z</time>
      </trkpt>
      <trkpt lat="44.76667" lon="6.98128">
        <ele>1666.7</ele>
        <time>2026-09-03T13:48:21Z</time>
      </trkpt>
      <trkpt lat="44.76671" lon="6.98125">
        <ele>1666.5</ele>
        <time>2026-09-03T13:48:26Z</time>
      </trkpt>
      <trkpt lat="44.76677" lon="6.9812">
        <ele>1666</ele>
        <time>2026-09-03T13:48:32Z</time>
      </trkpt>
      <trkpt lat="44.76682" lon="6.98116">
        <ele>1665.5</ele>
        <time>2026-09-03T13:48:37Z</time>
      </trkpt>
      <trkpt lat="44.76687" lon="6.98111">
        <ele>1665</ele>
        <time>2026-09-03T13:48:42Z</time>
      </trkpt>
      <trkpt lat="44.76691" lon="6.98102">
        <ele>1664.7</ele>
        <time>2026-09-03T13:48:48Z</time>
      </trkpt>
      <trkpt lat="44.76694" lon="6.98094">
        <ele>1664.4</ele>
        <time>2026-09-03T13:48:53Z</time>
      </trkpt>
      <trkpt lat="44.76697" lon="6.98086">
        <ele>1664.1</ele>
        <time>2026-09-03T13:48:58Z</time>
      </trkpt>
      <trkpt lat="44.76699" lon="6.98075">
        <ele>1664.3</ele>
        <time>2026-09-03T13:49:04Z</time>
      </trkpt>
      <trkpt lat="44.76702" lon="6.98068">
        <ele>1664.1</ele>
        <time>2026-09-03T13:49:09Z</time>
      </trkpt>
      <trkpt lat="44.76705" lon="6.9806">
        <ele>1663.9</ele>
        <time>2026-09-03T13:49:14Z</time>
      </trkpt>
      <trkpt lat="44.76709" lon="6.98053">
        <ele>1663.5</ele>
        <time>2026-09-03T13:49:20Z</time>
      </trkpt>
      <trkpt lat="44.76715" lon="6.98046">
        <ele>1662.6</ele>
        <time>2026-09-03T13:49:25Z</time>
      </trkpt>
      <trkpt lat="44.76719" lon="6.9804">
        <ele>1662.1</ele>
        <time>2026-09-03T13:49:30Z</time>
      </trkpt>
      <trkpt lat="44.76724" lon="6.98033">
        <ele>1661.4</ele>
        <time>2026-09-03T13:49:36Z</time>
      </trkpt>
      <trkpt lat="44.76727" lon="6.98025">
        <ele>1661.1</ele>
        <time>2026-09-03T13:49:41Z</time>
      </trkpt>
      <trkpt lat="44.76729" lon="6.98017">
        <ele>1661</ele>
        <time>2026-09-03T13:49:46Z</time>
      </trkpt>
      <trkpt lat="44.7673" lon="6.98007">
        <ele>1661.2</ele>
        <time>2026-09-03T13:49:52Z</time>
      </trkpt>
      <trkpt lat="44.76733" lon="6.97997">
        <ele>1660.9</ele>
        <time>2026-09-03T13:49:57Z</time>
      </trkpt>
      <trkpt lat="44.76735" lon="6.97988">
        <ele>1660.7</ele>
        <time>2026-09-03T13:50:02Z</time>
      </trkpt>
      <trkpt lat="44.76736" lon="6.97977">
        <ele>1660.7</ele>
        <time>2026-09-03T13:50:08Z</time>
      </trkpt>
      <trkpt lat="44.76736" lon="6.97967">
        <ele>1660.9</ele>
        <time>2026-09-03T13:50:13Z</time>
      </trkpt>
      <trkpt lat="44.76739" lon="6.97958">
        <ele>1660.2</ele>
        <time>2026-09-03T13:50:18Z</time>
      </trkpt>
      <trkpt lat="44.76741" lon="6.97949">
        <ele>1659.7</ele>
        <time>2026-09-03T13:50:24Z</time>
      </trkpt>
      <trkpt lat="44.76745" lon="6.97942">
        <ele>1658.6</ele>
        <time>2026-09-03T13:50:29Z</time>
      </trkpt>
      <trkpt lat="44.76751" lon="6.97938">
        <ele>1657</ele>
        <time>2026-09-03T13:50:34Z</time>
      </trkpt>
      <trkpt lat="44.76758" lon="6.97934">
        <ele>1656.9</ele>
        <time>2026-09-03T13:50:40Z</time>
      </trkpt>
      <trkpt lat="44.76761" lon="6.97927">
        <ele>1656.8</ele>
        <time>2026-09-03T13:50:45Z</time>
      </trkpt>
      <trkpt lat="44.76764" lon="6.97917">
        <ele>1656.7</ele>
        <time>2026-09-03T13:50:50Z</time>
      </trkpt>
      <trkpt lat="44.76769" lon="6.97907">
        <ele>1657.8</ele>
        <time>2026-09-03T13:50:56Z</time>
      </trkpt>
      <trkpt lat="44.76772" lon="6.97898">
        <ele>1658.8</ele>
        <time>2026-09-03T13:51:01Z</time>
      </trkpt>
      <trkpt lat="44.76775" lon="6.97891">
        <ele>1659.4</ele>
        <time>2026-09-03T13:51:06Z</time>
      </trkpt>
      <trkpt lat="44.76779" lon="6.97883">
        <ele>1659.8</ele>
        <time>2026-09-03T13:51:12Z</time>
      </trkpt>
      <trkpt lat="44.76782" lon="6.97876">
        <ele>1660.2</ele>
        <time>2026-09-03T13:51:17Z</time>
      </trkpt>
      <trkpt lat="44.76786" lon="6.97868">
        <ele>1660.4</ele>
        <time>2026-09-03T13:51:22Z</time>
      </trkpt>
      <trkpt lat="44.76793" lon="6.9786">
        <ele>1659.9</ele>
        <time>2026-09-03T13:51:28Z</time>
      </trkpt>
      <trkpt lat="44.76798" lon="6.97854">
        <ele>1659.3</ele>
        <time>2026-09-03T13:51:33Z</time>
      </trkpt>
      <trkpt lat="44.76802" lon="6.97847">
        <ele>1658.9</ele>
        <time>2026-09-03T13:51:38Z</time>
      </trkpt>
      <trkpt lat="44.76805" lon="6.97836">
        <ele>1658.7</ele>
        <time>2026-09-03T13:51:44Z</time>
      </trkpt>
      <trkpt lat="44.76807" lon="6.97826">
        <ele>1658.9</ele>
        <time>2026-09-03T13:51:49Z</time>
      </trkpt>
      <trkpt lat="44.76809" lon="6.97815">
        <ele>1659.1</ele>
        <time>2026-09-03T13:51:54Z</time>
      </trkpt>
      <trkpt lat="44.76811" lon="6.97803">
        <ele>1659.4</ele>
        <time>2026-09-03T13:52:00Z</time>
      </trkpt>
      <trkpt lat="44.76814" lon="6.97794">
        <ele>1659</ele>
        <time>2026-09-03T13:52:05Z</time>
      </trkpt>
      <trkpt lat="44.76817" lon="6.97787">
        <ele>1658.4</ele>
        <time>2026-09-03T13:52:10Z</time>
      </trkpt>
      <trkpt lat="44.76822" lon="6.97779">
        <ele>1657.2</ele>
        <time>2026-09-03T13:52:16Z</time>
      </trkpt>
      <trkpt lat="44.76826" lon="6.97771">
        <ele>1656.1</ele>
        <time>2026-09-03T13:52:21Z</time>
      </trkpt>
      <trkpt lat="44.7683" lon="6.97765">
        <ele>1654.9</ele>
        <time>2026-09-03T13:52:26Z</time>
      </trkpt>
      <trkpt lat="44.76837" lon="6.97755">
        <ele>1653.6</ele>
        <time>2026-09-03T13:52:32Z</time>
      </trkpt>
      <trkpt lat="44.76842" lon="6.97748">
        <ele>1653.7</ele>
        <time>2026-09-03T13:52:37Z</time>
      </trkpt>
      <trkpt lat="44.76846" lon="6.97741">
        <ele>1654.4</ele>
        <time>2026-09-03T13:52:42Z</time>
      </trkpt>
      <trkpt lat="44.76849" lon="6.97734">
        <ele>1655.2</ele>
        <time>2026-09-03T13:52:48Z</time>
      </trkpt>
      <trkpt lat="44.76852" lon="6.97724">
        <ele>1656.2</ele>
        <time>2026-09-03T13:52:53Z</time>
      </trkpt>
      <trkpt lat="44.76856" lon="6.97717">
        <ele>1656.6</ele>
        <time>2026-09-03T13:52:58Z</time>
      </trkpt>
      <trkpt lat="44.76858" lon="6.97708">
        <ele>1657.4</ele>
        <time>2026-09-03T13:53:04Z</time>
      </trkpt>
      <trkpt lat="44.76862" lon="6.977">
        <ele>1657.6</ele>
        <time>2026-09-03T13:53:09Z</time>
      </trkpt>
      <trkpt lat="44.76866" lon="6.97693">
        <ele>1657.6</ele>
        <time>2026-09-03T13:53:14Z</time>
      </trkpt>
      <trkpt lat="44.76872" lon="6.97683">
        <ele>1657.3</ele>
        <time>2026-09-03T13:53:20Z</time>
      </trkpt>
      <trkpt lat="44.76875" lon="6.97676">
        <ele>1657.2</ele>
        <time>2026-09-03T13:53:25Z</time>
      </trkpt>
      <trkpt lat="44.76879" lon="6.97667">
        <ele>1656.9</ele>
        <time>2026-09-03T13:53:30Z</time>
      </trkpt>
      <trkpt lat="44.76885" lon="6.97661">
        <ele>1655.6</ele>
        <time>2026-09-03T13:53:36Z</time>
      </trkpt>
      <trkpt lat="44.76889" lon="6.97654">
        <ele>1654.8</ele>
        <time>2026-09-03T13:53:41Z</time>
      </trkpt>
      <trkpt lat="44.76894" lon="6.97648">
        <ele>1653.5</ele>
        <time>2026-09-03T13:53:46Z</time>
      </trkpt>
      <trkpt lat="44.76901" lon="6.97642">
        <ele>1651.5</ele>
        <time>2026-09-03T13:53:52Z</time>
      </trkpt>
      <trkpt lat="44.76906" lon="6.97637">
        <ele>1650</ele>
        <time>2026-09-03T13:53:57Z</time>
      </trkpt>
      <trkpt lat="44.7691" lon="6.9763">
        <ele>1648.7</ele>
        <time>2026-09-03T13:54:02Z</time>
      </trkpt>
      <trkpt lat="44.76916" lon="6.97622">
        <ele>1646.7</ele>
        <time>2026-09-03T13:54:08Z</time>
      </trkpt>
      <trkpt lat="44.7692" lon="6.97615">
        <ele>1646.2</ele>
        <time>2026-09-03T13:54:13Z</time>
      </trkpt>
      <trkpt lat="44.7692" lon="6.97605">
        <ele>1646.1</ele>
        <time>2026-09-03T13:54:18Z</time>
      </trkpt>
      <trkpt lat="44.7692" lon="6.97594">
        <ele>1646</ele>
        <time>2026-09-03T13:54:24Z</time>
      </trkpt>
      <trkpt lat="44.76922" lon="6.97587">
        <ele>1645.8</ele>
        <time>2026-09-03T13:54:29Z</time>
      </trkpt>
      <trkpt lat="44.76925" lon="6.97579">
        <ele>1646.1</ele>
        <time>2026-09-03T13:54:34Z</time>
      </trkpt>
      <trkpt lat="44.76928" lon="6.97568">
        <ele>1647.2</ele>
        <time>2026-09-03T13:54:40Z</time>
      </trkpt>
      <trkpt lat="44.76932" lon="6.97561">
        <ele>1647.7</ele>
        <time>2026-09-03T13:54:45Z</time>
      </trkpt>
      <trkpt lat="44.76935" lon="6.97553">
        <ele>1648.2</ele>
        <time>2026-09-03T13:54:50Z</time>
      </trkpt>
      <trkpt lat="44.76936" lon="6.97544">
        <ele>1649.1</ele>
        <time>2026-09-03T13:54:56Z</time>
      </trkpt>
      <trkpt lat="44.76937" lon="6.97537">
        <ele>1649.6</ele>
        <time>2026-09-03T13:55:01Z</time>
      </trkpt>
      <trkpt lat="44.76936" lon="6.97533">
        <ele>1650.2</ele>
        <time>2026-09-03T13:55:06Z</time>
      </trkpt>
      <trkpt lat="44.76936" lon="6.97534">
        <ele>1650.1</ele>
        <time>2026-09-03T13:55:12Z</time>
      </trkpt>
    </trkseg>
  </trk>
</gpx>